<?xml version='1.0' encoding='UTF-8'?><gpx version="1.1" creator="JPX - https://github.com/jenetics/jpx" xmlns="http://www.topografix.com/GPX/1/1"><trk><trkseg><trkpt lat="43.117013496518055" lon="12.169266365722418"><ele>261.0</ele><time>2026-04-19T06:33:52.989Z</time></trkpt><trkpt lat="43.11706674499645" lon="12.16932039123173"><ele>261.0</ele><time>2026-04-19T06:34:01.994Z</time></trkpt><trkpt lat="43.116984410205696" lon="12.169360355204907"><ele>261.0</ele><time>2026-04-19T06:35:05Z</time></trkpt><trkpt lat="43.116911182612014" lon="12.169323355741497"><ele>261.0</ele><time>2026-04-19T06:35:09Z</time></trkpt><trkpt lat="43.11685484411391" lon="12.16928363149101"><ele>261.0</ele><time>2026-04-19T06:35:11Z</time></trkpt><trkpt lat="43.1168108779815" lon="12.169189494833384"><ele>261.0</ele><time>2026-04-19T06:35:14Z</time></trkpt><trkpt lat="43.11677663697256" lon="12.169081365460313"><ele>260.6666666666667</ele><time>2026-04-19T06:35:17Z</time></trkpt><trkpt lat="43.11674879209843" lon="12.16896137369908"><ele>260.3333333333333</ele><time>2026-04-19T06:35:19Z</time></trkpt><trkpt lat="43.11670784923836" lon="12.168830247766781"><ele>260.0</ele><time>2026-04-19T06:35:21Z</time></trkpt><trkpt lat="43.116657517133234" lon="12.168766592830988"><ele>259.66666666666663</ele><time>2026-04-19T06:35:22Z</time></trkpt><trkpt lat="43.11661053852703" lon="12.168709127665164"><ele>259.3333333333333</ele><time>2026-04-19T06:35:23Z</time></trkpt><trkpt lat="43.11656459776638" lon="12.16864242623778"><ele>259.0</ele><time>2026-04-19T06:35:25Z</time></trkpt><trkpt lat="43.11650071749978" lon="12.168622753084717"><ele>258.8333333333333</ele><time>2026-04-19T06:35:30Z</time></trkpt><trkpt lat="43.116421407547996" lon="12.168648820533551"><ele>258.66666666666663</ele><time>2026-04-19T06:35:31Z</time></trkpt><trkpt lat="43.11635063361494" lon="12.16871356458857"><ele>258.5</ele><time>2026-04-19T06:35:32Z</time></trkpt><trkpt lat="43.116267921115" lon="12.168786287875522"><ele>258.3333333333333</ele><time>2026-04-19T06:35:33Z</time></trkpt><trkpt lat="43.11621023595756" lon="12.168852535738175"><ele>258.1666666666667</ele><time>2026-04-19T06:35:34Z</time></trkpt><trkpt lat="43.11612886818491" lon="12.16891445203169"><ele>258.0</ele><time>2026-04-19T06:35:35Z</time></trkpt><trkpt lat="43.11604473030423" lon="12.168992741045175"><ele>258.0</ele><time>2026-04-19T06:35:36Z</time></trkpt><trkpt lat="43.11594109496405" lon="12.169102516916647"><ele>258.0</ele><time>2026-04-19T06:35:37Z</time></trkpt><trkpt lat="43.11581600189026" lon="12.169204203909713"><ele>258.0</ele><time>2026-04-19T06:35:38Z</time></trkpt><trkpt lat="43.115700033296775" lon="12.16931819256038"><ele>258.0</ele><time>2026-04-19T06:35:39Z</time></trkpt><trkpt lat="43.1155854009404" lon="12.169480212622164"><ele>258.0</ele><time>2026-04-19T06:35:40Z</time></trkpt><trkpt lat="43.115484216546" lon="12.169682048800306"><ele>258.0</ele><time>2026-04-19T06:35:41Z</time></trkpt><trkpt lat="43.115403933451425" lon="12.169909956152154"><ele>258.0</ele><time>2026-04-19T06:35:42Z</time></trkpt><trkpt lat="43.115329453084335" lon="12.17012499883799"><ele>259.0</ele><time>2026-04-19T06:35:43Z</time></trkpt><trkpt lat="43.11525996593721" lon="12.17035051659144"><ele>260.0</ele><time>2026-04-19T06:35:44Z</time></trkpt><trkpt lat="43.115185352179445" lon="12.170588437078795"><ele>261.0</ele><time>2026-04-19T06:35:45.002Z</time></trkpt><trkpt lat="43.11510064783564" lon="12.170827798486116"><ele>261.0</ele><time>2026-04-19T06:35:46.002Z</time></trkpt><trkpt lat="43.115017867266346" lon="12.171082396465545"><ele>261.0</ele><time>2026-04-19T06:35:47.002Z</time></trkpt><trkpt lat="43.11493915873506" lon="12.171336718933887"><ele>261.0</ele><time>2026-04-19T06:35:48.002Z</time></trkpt><trkpt lat="43.114855180673004" lon="12.171594046492507"><ele>260.3333333333333</ele><time>2026-04-19T06:35:49.002Z</time></trkpt><trkpt lat="43.114767683691156" lon="12.171825073163948"><ele>259.66666666666663</ele><time>2026-04-19T06:35:50.002Z</time></trkpt><trkpt lat="43.11467504149237" lon="12.17206260385395"><ele>259.0</ele><time>2026-04-19T06:35:51.001Z</time></trkpt><trkpt lat="43.114547050323154" lon="12.172307656912645"><ele>259.66666666666663</ele><time>2026-04-19T06:35:52.001Z</time></trkpt><trkpt lat="43.114399989136885" lon="12.172536423229621"><ele>260.3333333333333</ele><time>2026-04-19T06:35:53.001Z</time></trkpt><trkpt lat="43.1142796653895" lon="12.172719858358716"><ele>261.0</ele><time>2026-04-19T06:35:54.001Z</time></trkpt><trkpt lat="43.11417533110406" lon="12.17289651745696"><ele>261.0</ele><time>2026-04-19T06:35:55.001Z</time></trkpt><trkpt lat="43.11408613084303" lon="12.173100107346805"><ele>261.0</ele><time>2026-04-19T06:35:56.001Z</time></trkpt><trkpt lat="43.11402939268632" lon="12.17333715117475"><ele>261.0</ele><time>2026-04-19T06:35:57.001Z</time></trkpt><trkpt lat="43.11401231422906" lon="12.173600483309379"><ele>260.3333333333333</ele><time>2026-04-19T06:35:58.001Z</time></trkpt><trkpt lat="43.1140086834783" lon="12.173885680853608"><ele>259.66666666666663</ele><time>2026-04-19T06:35:59.001Z</time></trkpt><trkpt lat="43.114000433651256" lon="12.174165547081538"><ele>259.0</ele><time>2026-04-19T06:36:00.001Z</time></trkpt><trkpt lat="43.11393088250813" lon="12.17442229942041"><ele>259.0</ele><time>2026-04-19T06:36:01.001Z</time></trkpt><trkpt lat="43.1138286593298" lon="12.174679117105656"><ele>259.0</ele><time>2026-04-19T06:36:02.001Z</time></trkpt><trkpt lat="43.11371697998434" lon="12.174939392157437"><ele>259.0</ele><time>2026-04-19T06:36:03.001Z</time></trkpt><trkpt lat="43.11358210966042" lon="12.175192454930825"><ele>259.0</ele><time>2026-04-19T06:36:04.001Z</time></trkpt><trkpt lat="43.113452536215576" lon="12.17546753470409"><ele>259.0</ele><time>2026-04-19T06:36:05.001Z</time></trkpt><trkpt lat="43.113320620208306" lon="12.175758908964077"><ele>258.0</ele><time>2026-04-19T06:36:06.001Z</time></trkpt><trkpt lat="43.11319932556044" lon="12.176066703524226"><ele>257.0</ele><time>2026-04-19T06:36:07.001Z</time></trkpt><trkpt lat="43.113108190144615" lon="12.176415928443262"><ele>257.5</ele><time>2026-04-19T06:36:08.001Z</time></trkpt><trkpt lat="43.11305098813282" lon="12.176755732403876"><ele>258.0</ele><time>2026-04-19T06:36:09.001Z</time></trkpt><trkpt lat="43.11299663548373" lon="12.177063742640486"><ele>258.0</ele><time>2026-04-19T06:36:10.001Z</time></trkpt><trkpt lat="43.112943347079025" lon="12.177344468177221"><ele>258.0</ele><time>2026-04-19T06:36:11.001Z</time></trkpt><trkpt lat="43.112900718766724" lon="12.17764196232045"><ele>258.0</ele><time>2026-04-19T06:36:12.001Z</time></trkpt><trkpt lat="43.112836113741" lon="12.17796561461106"><ele>259.0</ele><time>2026-04-19T06:36:13.001Z</time></trkpt><trkpt lat="43.11275799942613" lon="12.178307522497047"><ele>260.0</ele><time>2026-04-19T06:36:14Z</time></trkpt><trkpt lat="43.11267236986572" lon="12.1786676132648"><ele>260.0</ele><time>2026-04-19T06:36:15Z</time></trkpt><trkpt lat="43.11261028633662" lon="12.178989819603657"><ele>260.0</ele><time>2026-04-19T06:36:16Z</time></trkpt><trkpt lat="43.112551711564166" lon="12.179279375272602"><ele>260.33333333333337</ele><time>2026-04-19T06:36:17Z</time></trkpt><trkpt lat="43.1124894022711" lon="12.17954967908645"><ele>260.6666666666667</ele><time>2026-04-19T06:36:18Z</time></trkpt><trkpt lat="43.112377075564595" lon="12.179799959816142"><ele>261.0</ele><time>2026-04-19T06:36:19Z</time></trkpt><trkpt lat="43.112255150730824" lon="12.180048378525248"><ele>260.0</ele><time>2026-04-19T06:36:20Z</time></trkpt><trkpt lat="43.11215460865443" lon="12.180276834565815"><ele>259.0</ele><time>2026-04-19T06:36:21Z</time></trkpt><trkpt lat="43.112049913963645" lon="12.180473282593463"><ele>258.0</ele><time>2026-04-19T06:36:22Z</time></trkpt><trkpt lat="43.11196722051324" lon="12.180622631371481"><ele>258.5</ele><time>2026-04-19T06:36:23Z</time></trkpt><trkpt lat="43.1119113017652" lon="12.18073257451848"><ele>259.0</ele><time>2026-04-19T06:36:24Z</time></trkpt><trkpt lat="43.11187754302022" lon="12.18082326691171"><ele>259.5</ele><time>2026-04-19T06:36:25Z</time></trkpt><trkpt lat="43.11188171298972" lon="12.180920921859508"><ele>260.0</ele><time>2026-04-19T06:36:26Z</time></trkpt><trkpt lat="43.1119307484259" lon="12.1810604787992"><ele>260.5</ele><time>2026-04-19T06:36:28Z</time></trkpt><trkpt lat="43.111975608175264" lon="12.181133945982038"><ele>261.0</ele><time>2026-04-19T06:36:30Z</time></trkpt><trkpt lat="43.11191618174428" lon="12.181101429261542"><ele>261.0</ele><time>2026-04-19T06:36:31Z</time></trkpt><trkpt lat="43.111910702200234" lon="12.181226401917746"><ele>261.0</ele><time>2026-04-19T06:38:18Z</time></trkpt><trkpt lat="43.111929846017325" lon="12.181112887991414"><ele>261.0</ele><time>2026-04-19T06:39:43.999Z</time></trkpt><trkpt lat="43.111845824639545" lon="12.181159029052974"><ele>261.0</ele><time>2026-04-19T06:39:59.001Z</time></trkpt><trkpt lat="43.111780199188495" lon="12.18113253084228"><ele>261.0</ele><time>2026-04-19T06:40:02.001Z</time></trkpt><trkpt lat="43.11171258733214" lon="12.181178827646502"><ele>261.0</ele><time>2026-04-19T06:40:04.001Z</time></trkpt><trkpt lat="43.111659567682146" lon="12.181268759827526"><ele>261.0</ele><time>2026-04-19T06:40:05.001Z</time></trkpt><trkpt lat="43.1115989791122" lon="12.181385923886634"><ele>261.0</ele><time>2026-04-19T06:40:06.001Z</time></trkpt><trkpt lat="43.11152320975457" lon="12.181537653595589"><ele>261.0</ele><time>2026-04-19T06:40:07.001Z</time></trkpt><trkpt lat="43.11144222028812" lon="12.18166469010262"><ele>261.0</ele><time>2026-04-19T06:40:08.001Z</time></trkpt><trkpt lat="43.111342901860496" lon="12.181878892518297"><ele>261.0</ele><time>2026-04-19T06:40:09.001Z</time></trkpt><trkpt lat="43.11124239814826" lon="12.182037002917477"><ele>261.0</ele><time>2026-04-19T06:40:10.001Z</time></trkpt><trkpt lat="43.11113584354379" lon="12.182203983207204"><ele>261.0</ele><time>2026-04-19T06:40:11.001Z</time></trkpt><trkpt lat="43.11100766151894" lon="12.182382794730518"><ele>261.0</ele><time>2026-04-19T06:40:12Z</time></trkpt><trkpt lat="43.11084983909074" lon="12.182609726258162"><ele>261.0</ele><time>2026-04-19T06:40:13Z</time></trkpt><trkpt lat="43.11069562926595" lon="12.182843726774133"><ele>260.0</ele><time>2026-04-19T06:40:14Z</time></trkpt><trkpt lat="43.110535309595605" lon="12.183089504720968"><ele>259.0</ele><time>2026-04-19T06:40:15Z</time></trkpt><trkpt lat="43.110359143013824" lon="12.183354388798435"><ele>259.0</ele><time>2026-04-19T06:40:16Z</time></trkpt><trkpt lat="43.11019113326136" lon="12.183626551637442"><ele>259.0</ele><time>2026-04-19T06:40:17Z</time></trkpt><trkpt lat="43.11004869226605" lon="12.18393326469174"><ele>259.0</ele><time>2026-04-19T06:40:18Z</time></trkpt><trkpt lat="43.10994347448994" lon="12.18427803126516"><ele>259.0</ele><time>2026-04-19T06:40:19Z</time></trkpt><trkpt lat="43.109823687372796" lon="12.184618854116108"><ele>258.5</ele><time>2026-04-19T06:40:20Z</time></trkpt><trkpt lat="43.109691919778385" lon="12.184946776919674"><ele>258.0</ele><time>2026-04-19T06:40:21Z</time></trkpt><trkpt lat="43.10955891817845" lon="12.185289217795868"><ele>258.0</ele><time>2026-04-19T06:40:22Z</time></trkpt><trkpt lat="43.109437863388344" lon="12.185579018707124"><ele>258.0</ele><time>2026-04-19T06:40:23Z</time></trkpt><trkpt lat="43.10932324921875" lon="12.185841287283726"><ele>258.0</ele><time>2026-04-19T06:40:24Z</time></trkpt><trkpt lat="43.1091848436768" lon="12.186099500473818"><ele>258.0</ele><time>2026-04-19T06:40:25Z</time></trkpt><trkpt lat="43.109012433009056" lon="12.186342041619431"><ele>259.5</ele><time>2026-04-19T06:40:26Z</time></trkpt><trkpt lat="43.10880715351014" lon="12.186551555992112"><ele>261.0</ele><time>2026-04-19T06:40:27Z</time></trkpt><trkpt lat="43.1085688101311" lon="12.18674390304389"><ele>261.0</ele><time>2026-04-19T06:40:28Z</time></trkpt><trkpt lat="43.10831422834844" lon="12.186949554323945"><ele>261.0</ele><time>2026-04-19T06:40:29Z</time></trkpt><trkpt lat="43.10808286019968" lon="12.18714988407493"><ele>260.5</ele><time>2026-04-19T06:40:30Z</time></trkpt><trkpt lat="43.10787782331152" lon="12.187330118482382"><ele>260.0</ele><time>2026-04-19T06:40:31Z</time></trkpt><trkpt lat="43.10765301237684" lon="12.187462836924889"><ele>259.0</ele><time>2026-04-19T06:40:32Z</time></trkpt><trkpt lat="43.10740979945621" lon="12.187574958584877"><ele>258.0</ele><time>2026-04-19T06:40:33Z</time></trkpt><trkpt lat="43.10716651439806" lon="12.187691748687444"><ele>258.0</ele><time>2026-04-19T06:40:34Z</time></trkpt><trkpt lat="43.106945012840306" lon="12.18782034461535"><ele>258.0</ele><time>2026-04-19T06:40:35Z</time></trkpt><trkpt lat="43.106767350754374" lon="12.187967150151698"><ele>258.0</ele><time>2026-04-19T06:40:36Z</time></trkpt><trkpt lat="43.10661016385972" lon="12.18810806627069"><ele>259.5</ele><time>2026-04-19T06:40:37Z</time></trkpt><trkpt lat="43.10646931939065" lon="12.18822174987732"><ele>261.0</ele><time>2026-04-19T06:40:38Z</time></trkpt><trkpt lat="43.106357216037196" lon="12.188311297859366"><ele>262.5</ele><time>2026-04-19T06:40:39Z</time></trkpt><trkpt lat="43.106272803784115" lon="12.18840993205493"><ele>264.0</ele><time>2026-04-19T06:40:40Z</time></trkpt><trkpt lat="43.10624036732739" lon="12.18856226564904"><ele>264.0</ele><time>2026-04-19T06:40:41Z</time></trkpt><trkpt lat="43.10625973376967" lon="12.188748701212697"><ele>264.0</ele><time>2026-04-19T06:40:42Z</time></trkpt><trkpt lat="43.106330475143075" lon="12.188939933919302"><ele>264.0</ele><time>2026-04-19T06:40:43Z</time></trkpt><trkpt lat="43.10644444705554" lon="12.189129146809911"><ele>264.6666666666667</ele><time>2026-04-19T06:40:44Z</time></trkpt><trkpt lat="43.106576495817826" lon="12.189350830874256"><ele>265.33333333333337</ele><time>2026-04-19T06:40:45Z</time></trkpt><trkpt lat="43.1067158663216" lon="12.189615034440328"><ele>266.0</ele><time>2026-04-19T06:40:46Z</time></trkpt><trkpt lat="43.10685579996931" lon="12.189890433378277"><ele>271.0</ele><time>2026-04-19T06:40:47Z</time></trkpt><trkpt lat="43.10699361334346" lon="12.190161807618628"><ele>276.0</ele><time>2026-04-19T06:40:48Z</time></trkpt><trkpt lat="43.107140326423945" lon="12.190449874522065"><ele>275.0</ele><time>2026-04-19T06:40:49Z</time></trkpt><trkpt lat="43.10730001737939" lon="12.190761548615527"><ele>274.0</ele><time>2026-04-19T06:40:50Z</time></trkpt><trkpt lat="43.10746662951884" lon="12.191075229556905"><ele>274.0</ele><time>2026-04-19T06:40:51Z</time></trkpt><trkpt lat="43.107623253697916" lon="12.191390501662328"><ele>274.0</ele><time>2026-04-19T06:40:52Z</time></trkpt><trkpt lat="43.107761750298444" lon="12.191670347458158"><ele>281.0</ele><time>2026-04-19T06:40:53Z</time></trkpt><trkpt lat="43.10789550717141" lon="12.19191862569209"><ele>288.0</ele><time>2026-04-19T06:40:54Z</time></trkpt><trkpt lat="43.108068556977486" lon="12.192125476380603"><ele>287.5</ele><time>2026-04-19T06:40:55Z</time></trkpt><trkpt lat="43.108279420148676" lon="12.192300979578505"><ele>287.0</ele><time>2026-04-19T06:40:56Z</time></trkpt><trkpt lat="43.10850745134177" lon="12.192472177558633"><ele>287.0</ele><time>2026-04-19T06:40:57Z</time></trkpt><trkpt lat="43.10874776589609" lon="12.192652532692334"><ele>287.0</ele><time>2026-04-19T06:40:58Z</time></trkpt><trkpt lat="43.10898416408622" lon="12.192831354337715"><ele>287.0</ele><time>2026-04-19T06:40:59Z</time></trkpt><trkpt lat="43.109189070527165" lon="12.192987155891654"><ele>287.0</ele><time>2026-04-19T06:41:00Z</time></trkpt><trkpt lat="43.109373627502144" lon="12.193153734586545"><ele>288.0</ele><time>2026-04-19T06:41:01Z</time></trkpt><trkpt lat="43.1095595092014" lon="12.193311064082748"><ele>289.0</ele><time>2026-04-19T06:41:02Z</time></trkpt><trkpt lat="43.10970362992196" lon="12.19353188185836"><ele>290.0</ele><time>2026-04-19T06:41:03Z</time></trkpt><trkpt lat="43.109821049227186" lon="12.193774288792385"><ele>289.0</ele><time>2026-04-19T06:41:04Z</time></trkpt><trkpt lat="43.10992347226225" lon="12.193997481184061"><ele>288.0</ele><time>2026-04-19T06:41:05Z</time></trkpt><trkpt lat="43.11002542768327" lon="12.19420848147972"><ele>287.0</ele><time>2026-04-19T06:41:05.999Z</time></trkpt><trkpt lat="43.11011552515471" lon="12.194410384156294"><ele>287.0</ele><time>2026-04-19T06:41:06.999Z</time></trkpt><trkpt lat="43.11020171539278" lon="12.194603581806671"><ele>287.0</ele><time>2026-04-19T06:41:07.999Z</time></trkpt><trkpt lat="43.11028449441462" lon="12.194785444869018"><ele>287.0</ele><time>2026-04-19T06:41:08.999Z</time></trkpt><trkpt lat="43.11036506091873" lon="12.19495966523468"><ele>285.6666666666667</ele><time>2026-04-19T06:41:09.999Z</time></trkpt><trkpt lat="43.11044273358431" lon="12.195126069485948"><ele>284.3333333333333</ele><time>2026-04-19T06:41:10.999Z</time></trkpt><trkpt lat="43.110526384920796" lon="12.195305969318541"><ele>283.0</ele><time>2026-04-19T06:41:11.999Z</time></trkpt><trkpt lat="43.1106250877814" lon="12.195496312976323"><ele>279.5</ele><time>2026-04-19T06:41:12.999Z</time></trkpt><trkpt lat="43.11076181399092" lon="12.195719080505752"><ele>276.0</ele><time>2026-04-19T06:41:13.999Z</time></trkpt><trkpt lat="43.11094985196957" lon="12.195940953067334"><ele>276.0</ele><time>2026-04-19T06:41:14.999Z</time></trkpt><trkpt lat="43.11112556659659" lon="12.196142778487792"><ele>276.0</ele><time>2026-04-19T06:41:15.999Z</time></trkpt><trkpt lat="43.11128191538717" lon="12.19632197266953"><ele>276.0</ele><time>2026-04-19T06:41:16.999Z</time></trkpt><trkpt lat="43.11142591829265" lon="12.19647317015782"><ele>275.0</ele><time>2026-04-19T06:41:17.999Z</time></trkpt><trkpt lat="43.11154167916447" lon="12.196620272081638"><ele>274.0</ele><time>2026-04-19T06:41:18.999Z</time></trkpt><trkpt lat="43.11164196514563" lon="12.196740666094408"><ele>273.0</ele><time>2026-04-19T06:41:19.999Z</time></trkpt><trkpt lat="43.11171868515202" lon="12.196824700343177"><ele>272.0</ele><time>2026-04-19T06:41:20.999Z</time></trkpt><trkpt lat="43.111779480461486" lon="12.196894146948354"><ele>271.75</ele><time>2026-04-19T06:41:21.999Z</time></trkpt><trkpt lat="43.11183172525588" lon="12.197011287154657"><ele>271.5</ele><time>2026-04-19T06:41:23.999Z</time></trkpt><trkpt lat="43.111876551078986" lon="12.19714501118177"><ele>271.25</ele><time>2026-04-19T06:41:25.999Z</time></trkpt><trkpt lat="43.111988081756785" lon="12.197278346572547"><ele>271.0</ele><time>2026-04-19T06:41:26.999Z</time></trkpt><trkpt lat="43.11212221889917" lon="12.19743598839063"><ele>269.3333333333333</ele><time>2026-04-19T06:41:27.999Z</time></trkpt><trkpt lat="43.112278392233485" lon="12.197601455970336"><ele>267.6666666666667</ele><time>2026-04-19T06:41:28.999Z</time></trkpt><trkpt lat="43.11246206560189" lon="12.197782240981223"><ele>266.0</ele><time>2026-04-19T06:41:29.999Z</time></trkpt><trkpt lat="43.11266627017621" lon="12.19797990544801"><ele>263.5</ele><time>2026-04-19T06:41:30.999Z</time></trkpt><trkpt lat="43.11290216341248" lon="12.198211074549334"><ele>261.0</ele><time>2026-04-19T06:41:31.999Z</time></trkpt><trkpt lat="43.11314601060874" lon="12.198452662042863"><ele>261.0</ele><time>2026-04-19T06:41:32.999Z</time></trkpt><trkpt lat="43.1134038245615" lon="12.198710377681055"><ele>261.0</ele><time>2026-04-19T06:41:33.999Z</time></trkpt><trkpt lat="43.11365980996069" lon="12.1989657054762"><ele>259.0</ele><time>2026-04-19T06:41:34.999Z</time></trkpt><trkpt lat="43.11388425545331" lon="12.19919372733237"><ele>257.0</ele><time>2026-04-19T06:41:35.999Z</time></trkpt><trkpt lat="43.114090089457854" lon="12.199400388192233"><ele>256.5</ele><time>2026-04-19T06:41:36.999Z</time></trkpt><trkpt lat="43.114296775800895" lon="12.199592193461148"><ele>256.0</ele><time>2026-04-19T06:41:37.999Z</time></trkpt><trkpt lat="43.11452796166378" lon="12.199740809890642"><ele>256.0</ele><time>2026-04-19T06:41:38.999Z</time></trkpt><trkpt lat="43.11478956529182" lon="12.199831016800367"><ele>256.0</ele><time>2026-04-19T06:41:39.999Z</time></trkpt><trkpt lat="43.11507490742665" lon="12.199892803208764"><ele>253.5</ele><time>2026-04-19T06:41:40.999Z</time></trkpt><trkpt lat="43.11537975133342" lon="12.199951184079186"><ele>251.0</ele><time>2026-04-19T06:41:41.999Z</time></trkpt><trkpt lat="43.115703095590966" lon="12.19999672657115"><ele>250.5</ele><time>2026-04-19T06:41:42.999Z</time></trkpt><trkpt lat="43.116019524930046" lon="12.200031884460397"><ele>250.0</ele><time>2026-04-19T06:41:43.999Z</time></trkpt><trkpt lat="43.11634024052818" lon="12.200082614909391"><ele>249.5</ele><time>2026-04-19T06:41:44.999Z</time></trkpt><trkpt lat="43.11667258625614" lon="12.200178129175539"><ele>249.0</ele><time>2026-04-19T06:41:45.999Z</time></trkpt><trkpt lat="43.117008461590345" lon="12.200296726015313"><ele>249.0</ele><time>2026-04-19T06:41:46.999Z</time></trkpt><trkpt lat="43.11733747314387" lon="12.200400323146978"><ele>249.0</ele><time>2026-04-19T06:41:47.999Z</time></trkpt><trkpt lat="43.11762775958894" lon="12.200493964121174"><ele>248.0</ele><time>2026-04-19T06:41:48.999Z</time></trkpt><trkpt lat="43.117894690694264" lon="12.200582370205073"><ele>247.0</ele><time>2026-04-19T06:41:49.999Z</time></trkpt><trkpt lat="43.118155916433494" lon="12.200676644722188"><ele>245.0</ele><time>2026-04-19T06:41:50.999Z</time></trkpt><trkpt lat="43.11842217151907" lon="12.200784795034032"><ele>243.0</ele><time>2026-04-19T06:41:51.999Z</time></trkpt><trkpt lat="43.11868546668202" lon="12.200892298765368"><ele>243.0</ele><time>2026-04-19T06:41:52.999Z</time></trkpt><trkpt lat="43.118946516464504" lon="12.201000981951717"><ele>243.0</ele><time>2026-04-19T06:41:53.999Z</time></trkpt><trkpt lat="43.11920835115567" lon="12.20110863433447"><ele>244.0</ele><time>2026-04-19T06:41:54.999Z</time></trkpt><trkpt lat="43.11947132657351" lon="12.20121108827488"><ele>245.0</ele><time>2026-04-19T06:41:55.999Z</time></trkpt><trkpt lat="43.11973756264747" lon="12.201292664647854"><ele>245.5</ele><time>2026-04-19T06:41:56.999Z</time></trkpt><trkpt lat="43.120006390899086" lon="12.201353970744488"><ele>246.0</ele><time>2026-04-19T06:41:57.999Z</time></trkpt><trkpt lat="43.120275124399264" lon="12.201397872532139"><ele>246.0</ele><time>2026-04-19T06:41:58.999Z</time></trkpt><trkpt lat="43.12054074484546" lon="12.20143677463557"><ele>246.0</ele><time>2026-04-19T06:41:59.999Z</time></trkpt><trkpt lat="43.120784291826425" lon="12.201479502903672"><ele>245.66666666666669</ele><time>2026-04-19T06:42:00.999Z</time></trkpt><trkpt lat="43.12101527313432" lon="12.201521295116956"><ele>245.33333333333334</ele><time>2026-04-19T06:42:01.999Z</time></trkpt><trkpt lat="43.12122743201369" lon="12.201557496301884"><ele>245.0</ele><time>2026-04-19T06:42:03Z</time></trkpt><trkpt lat="43.12142477490243" lon="12.201599162587927"><ele>245.0</ele><time>2026-04-19T06:42:04Z</time></trkpt><trkpt lat="43.12160977349061" lon="12.201647149338804"><ele>245.0</ele><time>2026-04-19T06:42:05Z</time></trkpt><trkpt lat="43.12178024100769" lon="12.20169163915795"><ele>245.0</ele><time>2026-04-19T06:42:06Z</time></trkpt><trkpt lat="43.121935625518994" lon="12.20173959614593"><ele>245.0</ele><time>2026-04-19T06:42:07Z</time></trkpt><trkpt lat="43.122084075048164" lon="12.201790479716312"><ele>245.0</ele><time>2026-04-19T06:42:08Z</time></trkpt><trkpt lat="43.122251940719835" lon="12.201826193681288"><ele>245.0</ele><time>2026-04-19T06:42:09Z</time></trkpt><trkpt lat="43.12245666500995" lon="12.201872770292256"><ele>245.0</ele><time>2026-04-19T06:42:10Z</time></trkpt><trkpt lat="43.12270292966573" lon="12.201944879713206"><ele>245.0</ele><time>2026-04-19T06:42:11Z</time></trkpt><trkpt lat="43.12297039922677" lon="12.20202919515473"><ele>245.0</ele><time>2026-04-19T06:42:12Z</time></trkpt><trkpt lat="43.12320173264606" lon="12.202114496078632"><ele>245.0</ele><time>2026-04-19T06:42:13Z</time></trkpt><trkpt lat="43.12341414809215" lon="12.202196337881775"><ele>244.0</ele><time>2026-04-19T06:42:14Z</time></trkpt><trkpt lat="43.12361479414913" lon="12.202257504179508"><ele>243.0</ele><time>2026-04-19T06:42:15Z</time></trkpt><trkpt lat="43.12380925552161" lon="12.202309146020006"><ele>242.0</ele><time>2026-04-19T06:42:16Z</time></trkpt><trkpt lat="43.12402402789514" lon="12.202333914658018"><ele>241.0</ele><time>2026-04-19T06:42:17Z</time></trkpt><trkpt lat="43.12427360297518" lon="12.202361466326618"><ele>240.0</ele><time>2026-04-19T06:42:18Z</time></trkpt><trkpt lat="43.124536550036986" lon="12.202403339989734"><ele>240.0</ele><time>2026-04-19T06:42:19Z</time></trkpt><trkpt lat="43.12481060440098" lon="12.20242247197761"><ele>240.0</ele><time>2026-04-19T06:42:20Z</time></trkpt><trkpt lat="43.125100725577305" lon="12.202462567341312"><ele>239.5</ele><time>2026-04-19T06:42:21Z</time></trkpt><trkpt lat="43.125356670815215" lon="12.202507197254073"><ele>239.0</ele><time>2026-04-19T06:42:22Z</time></trkpt><trkpt lat="43.1256065459007" lon="12.202531161611022"><ele>238.5</ele><time>2026-04-19T06:42:23Z</time></trkpt><trkpt lat="43.12587818376805" lon="12.202556891505992"><ele>238.0</ele><time>2026-04-19T06:42:24Z</time></trkpt><trkpt lat="43.12616405224239" lon="12.202597622397017"><ele>238.0</ele><time>2026-04-19T06:42:25Z</time></trkpt><trkpt lat="43.12643647942496" lon="12.202609680053573"><ele>238.0</ele><time>2026-04-19T06:42:26Z</time></trkpt><trkpt lat="43.12668725223841" lon="12.202640272642512"><ele>238.5</ele><time>2026-04-19T06:42:27Z</time></trkpt><trkpt lat="43.12693360627047" lon="12.20272906348321"><ele>239.0</ele><time>2026-04-19T06:42:28Z</time></trkpt><trkpt lat="43.1271680156693" lon="12.202856371672285"><ele>239.0</ele><time>2026-04-19T06:42:29Z</time></trkpt><trkpt lat="43.12737547154271" lon="12.202977484650987"><ele>239.0</ele><time>2026-04-19T06:42:30Z</time></trkpt><trkpt lat="43.12757006145982" lon="12.203084218053275"><ele>239.0</ele><time>2026-04-19T06:42:31Z</time></trkpt><trkpt lat="43.12773499265786" lon="12.203167340920494"><ele>239.0</ele><time>2026-04-19T06:42:32Z</time></trkpt><trkpt lat="43.12785912190968" lon="12.203220586417766"><ele>239.0</ele><time>2026-04-19T06:42:33Z</time></trkpt><trkpt lat="43.12797902086206" lon="12.203269270483702"><ele>239.0</ele><time>2026-04-19T06:42:34Z</time></trkpt><trkpt lat="43.12810242664292" lon="12.20332443629721"><ele>239.0</ele><time>2026-04-19T06:42:35Z</time></trkpt><trkpt lat="43.128242064233405" lon="12.203371704791985"><ele>239.0</ele><time>2026-04-19T06:42:36Z</time></trkpt><trkpt lat="43.12840499265485" lon="12.203430714695854"><ele>239.0</ele><time>2026-04-19T06:42:37Z</time></trkpt><trkpt lat="43.12858811437913" lon="12.203504038798886"><ele>239.0</ele><time>2026-04-19T06:42:38Z</time></trkpt><trkpt lat="43.12879820831762" lon="12.20358291968606"><ele>239.0</ele><time>2026-04-19T06:42:39Z</time></trkpt><trkpt lat="43.12903639705874" lon="12.203674933406932"><ele>239.0</ele><time>2026-04-19T06:42:40Z</time></trkpt><trkpt lat="43.12926909396791" lon="12.203757899712363"><ele>240.0</ele><time>2026-04-19T06:42:41Z</time></trkpt><trkpt lat="43.129505649911316" lon="12.203840150261595"><ele>241.0</ele><time>2026-04-19T06:42:42Z</time></trkpt><trkpt lat="43.12974444581156" lon="12.203929592489384"><ele>241.0</ele><time>2026-04-19T06:42:43Z</time></trkpt><trkpt lat="43.129988017961644" lon="12.204020168863662"><ele>241.0</ele><time>2026-04-19T06:42:44Z</time></trkpt><trkpt lat="43.130237667663984" lon="12.20411404522437"><ele>241.0</ele><time>2026-04-19T06:42:45Z</time></trkpt><trkpt lat="43.130489382205766" lon="12.204207718465224"><ele>241.0</ele><time>2026-04-19T06:42:46Z</time></trkpt><trkpt lat="43.13071826651326" lon="12.204288394686778"><ele>241.0</ele><time>2026-04-19T06:42:47Z</time></trkpt><trkpt lat="43.13092872134253" lon="12.204365396148669"><ele>241.0</ele><time>2026-04-19T06:42:48Z</time></trkpt><trkpt lat="43.131123662764125" lon="12.204438507105404"><ele>241.0</ele><time>2026-04-19T06:42:49Z</time></trkpt><trkpt lat="43.13129495756387" lon="12.204511330251343"><ele>241.0</ele><time>2026-04-19T06:42:50Z</time></trkpt><trkpt lat="43.13142635152462" lon="12.20458224360619"><ele>241.00000000000003</ele><time>2026-04-19T06:42:51Z</time></trkpt><trkpt lat="43.13151800060237" lon="12.204643058469856"><ele>241.00000000000003</ele><time>2026-04-19T06:42:52Z</time></trkpt><trkpt lat="43.13159242421834" lon="12.204739466080364"><ele>241.0</ele><time>2026-04-19T06:42:54Z</time></trkpt><trkpt lat="43.131562739969176" lon="12.204846177807651"><ele>241.0</ele><time>2026-04-19T06:42:56Z</time></trkpt><trkpt lat="43.13151110754097" lon="12.20490139013628"><ele>240.99999999999997</ele><time>2026-04-19T06:42:58Z</time></trkpt><trkpt lat="43.13157057868998" lon="12.20493133958785"><ele>241.0</ele><time>2026-04-19T06:43:00Z</time></trkpt><trkpt lat="43.131551130995675" lon="12.205027393262283"><ele>241.0</ele><time>2026-04-19T06:43:39.999Z</time></trkpt><trkpt lat="43.13153503903859" lon="12.204907712984522"><ele>241.0</ele><time>2026-04-19T06:44:26Z</time></trkpt><trkpt lat="43.1315929264754" lon="12.204870317718104"><ele>240.99999999999997</ele><time>2026-04-19T06:44:27Z</time></trkpt><trkpt lat="43.131656391262624" lon="12.204941839869962"><ele>241.0</ele><time>2026-04-19T06:44:43.027Z</time></trkpt><trkpt lat="43.13151150442321" lon="12.204962042365858"><ele>240.99999999999997</ele><time>2026-04-19T06:44:45.028Z</time></trkpt><trkpt lat="43.13153364397564" lon="12.204877020239662"><ele>241.0</ele><time>2026-04-19T06:45:23.999Z</time></trkpt><trkpt lat="43.131609717802036" lon="12.204878993376772"><ele>241.0</ele><time>2026-04-19T06:45:51.999Z</time></trkpt><trkpt lat="43.13167912202569" lon="12.204905375780353"><ele>241.0</ele><time>2026-04-19T06:45:53.999Z</time></trkpt><trkpt lat="43.13174376495198" lon="12.204962964665896"><ele>240.99999999999997</ele><time>2026-04-19T06:45:55.999Z</time></trkpt><trkpt lat="43.13181854997988" lon="12.205031703399834"><ele>241.0</ele><time>2026-04-19T06:45:57.999Z</time></trkpt><trkpt lat="43.131895200762614" lon="12.205105102459555"><ele>240.99999999999997</ele><time>2026-04-19T06:45:59.999Z</time></trkpt><trkpt lat="43.13198729146706" lon="12.205152419417779"><ele>241.0</ele><time>2026-04-19T06:46:01.999Z</time></trkpt><trkpt lat="43.13205124977371" lon="12.20515185246427"><ele>241.0</ele><time>2026-04-19T06:46:03.999Z</time></trkpt><trkpt lat="43.132120743041085" lon="12.205174772572985"><ele>241.0</ele><time>2026-04-19T06:46:08.999Z</time></trkpt><trkpt lat="43.132197025659" lon="12.205262174094967"><ele>240.99999999999997</ele><time>2026-04-19T06:46:09.999Z</time></trkpt><trkpt lat="43.13227781105242" lon="12.20536459897258"><ele>241.0</ele><time>2026-04-19T06:46:10.999Z</time></trkpt><trkpt lat="43.13234216523634" lon="12.20544111221959"><ele>240.66666666666666</ele><time>2026-04-19T06:46:11.999Z</time></trkpt><trkpt lat="43.13239366891246" lon="12.205504396930197"><ele>240.33333333333331</ele><time>2026-04-19T06:46:12.999Z</time></trkpt><trkpt lat="43.132474873242444" lon="12.205630235219248"><ele>240.0</ele><time>2026-04-19T06:46:15Z</time></trkpt><trkpt lat="43.13251305481372" lon="12.205704450139894"><ele>239.66666666666669</ele><time>2026-04-19T06:46:16Z</time></trkpt><trkpt lat="43.13254747697401" lon="12.205804733900893"><ele>239.33333333333334</ele><time>2026-04-19T06:46:17Z</time></trkpt><trkpt lat="43.13256768203758" lon="12.20593635944464"><ele>239.0</ele><time>2026-04-19T06:46:18Z</time></trkpt><trkpt lat="43.132602975681095" lon="12.206060987908337"><ele>238.6</ele><time>2026-04-19T06:46:19Z</time></trkpt><trkpt lat="43.13267060782224" lon="12.206158988714426"><ele>238.2</ele><time>2026-04-19T06:46:20Z</time></trkpt><trkpt lat="43.13276005493057" lon="12.206219277220953"><ele>237.79999999999998</ele><time>2026-04-19T06:46:21Z</time></trkpt><trkpt lat="43.1328368297667" lon="12.206283543870518"><ele>237.39999999999998</ele><time>2026-04-19T06:46:22Z</time></trkpt><trkpt lat="43.13290775219843" lon="12.206359872727791"><ele>237.0</ele><time>2026-04-19T06:46:23Z</time></trkpt><trkpt lat="43.13293717675235" lon="12.20649647056208"><ele>236.75</ele><time>2026-04-19T06:46:24Z</time></trkpt><trkpt lat="43.13297365018155" lon="12.20663629154753"><ele>236.5</ele><time>2026-04-19T06:46:25Z</time></trkpt><trkpt lat="43.13302475099202" lon="12.206788028345303"><ele>236.25</ele><time>2026-04-19T06:46:26Z</time></trkpt><trkpt lat="43.13308961050068" lon="12.206951935194958"><ele>236.0</ele><time>2026-04-19T06:46:27Z</time></trkpt><trkpt lat="43.133161664341664" lon="12.207104663789927"><ele>236.5</ele><time>2026-04-19T06:46:28Z</time></trkpt><trkpt lat="43.133228675133964" lon="12.207231207313235"><ele>237.0</ele><time>2026-04-19T06:46:29Z</time></trkpt><trkpt lat="43.133294562981426" lon="12.207355644148329"><ele>237.5</ele><time>2026-04-19T06:46:30Z</time></trkpt><trkpt lat="43.133363370203995" lon="12.207483163588487"><ele>238.0</ele><time>2026-04-19T06:46:31Z</time></trkpt><trkpt lat="43.133435500000004" lon="12.207615473515546"><ele>238.0</ele><time>2026-04-19T06:46:32Z</time></trkpt><trkpt lat="43.133508042834634" lon="12.207749024398106"><ele>238.0</ele><time>2026-04-19T06:46:33Z</time></trkpt><trkpt lat="43.133582188623286" lon="12.207884833037747"><ele>238.0</ele><time>2026-04-19T06:46:34Z</time></trkpt><trkpt lat="43.13365638324532" lon="12.208023524078417"><ele>238.0</ele><time>2026-04-19T06:46:35Z</time></trkpt><trkpt lat="43.13373319459851" lon="12.208164132036872"><ele>237.25</ele><time>2026-04-19T06:46:36Z</time></trkpt><trkpt lat="43.13381008194885" lon="12.208308013870042"><ele>236.5</ele><time>2026-04-19T06:46:37Z</time></trkpt><trkpt lat="43.133887378382695" lon="12.20845300064114"><ele>235.75</ele><time>2026-04-19T06:46:38Z</time></trkpt><trkpt lat="43.133968392174005" lon="12.208597034899315"><ele>235.0</ele><time>2026-04-19T06:46:39Z</time></trkpt><trkpt lat="43.134053365993125" lon="12.208730984662937"><ele>235.2</ele><time>2026-04-19T06:46:40Z</time></trkpt><trkpt lat="43.13413361195467" lon="12.208836982208375"><ele>235.4</ele><time>2026-04-19T06:46:41Z</time></trkpt><trkpt lat="43.13421354926565" lon="12.208926082647087"><ele>235.60000000000002</ele><time>2026-04-19T06:46:42Z</time></trkpt><trkpt lat="43.13429497168475" lon="12.209006183246684"><ele>235.8</ele><time>2026-04-19T06:46:43Z</time></trkpt><trkpt lat="43.13438968305342" lon="12.20908323241299"><ele>236.0</ele><time>2026-04-19T06:46:44Z</time></trkpt><trkpt lat="43.13449417207755" lon="12.209158713437585"><ele>236.0</ele><time>2026-04-19T06:46:45Z</time></trkpt><trkpt lat="43.13460495383438" lon="12.209229846459047"><ele>236.0</ele><time>2026-04-19T06:46:46Z</time></trkpt><trkpt lat="43.1347240979203" lon="12.209298866484037"><ele>236.0</ele><time>2026-04-19T06:46:47Z</time></trkpt><trkpt lat="43.134847263800296" lon="12.209370838494628"><ele>236.0</ele><time>2026-04-19T06:46:48Z</time></trkpt><trkpt lat="43.13497571224722" lon="12.209440974287201"><ele>237.0</ele><time>2026-04-19T06:46:49Z</time></trkpt><trkpt lat="43.1351062451821" lon="12.209522796322378"><ele>238.0</ele><time>2026-04-19T06:46:50Z</time></trkpt><trkpt lat="43.13523738797064" lon="12.209615273389867"><ele>239.0</ele><time>2026-04-19T06:46:51Z</time></trkpt><trkpt lat="43.13537619748942" lon="12.209704747154035"><ele>240.0</ele><time>2026-04-19T06:46:52Z</time></trkpt><trkpt lat="43.13551785996277" lon="12.20979574430542"><ele>240.0</ele><time>2026-04-19T06:46:53Z</time></trkpt><trkpt lat="43.13566471908296" lon="12.209886376440725"><ele>240.0</ele><time>2026-04-19T06:46:54Z</time></trkpt><trkpt lat="43.1358220454064" lon="12.209982044318002"><ele>240.0</ele><time>2026-04-19T06:46:55Z</time></trkpt><trkpt lat="43.13597999097362" lon="12.210071958659688"><ele>239.33333333333331</ele><time>2026-04-19T06:46:56Z</time></trkpt><trkpt lat="43.1361153000596" lon="12.210156903336003"><ele>238.66666666666666</ele><time>2026-04-19T06:46:57Z</time></trkpt><trkpt lat="43.13625373290198" lon="12.210243165041192"><ele>238.0</ele><time>2026-04-19T06:46:58Z</time></trkpt><trkpt lat="43.136395552466055" lon="12.210327133887557"><ele>238.0</ele><time>2026-04-19T06:46:59Z</time></trkpt><trkpt lat="43.136540485542156" lon="12.210415882463916"><ele>238.0</ele><time>2026-04-19T06:47:00Z</time></trkpt><trkpt lat="43.13668861307331" lon="12.210507154112824"><ele>238.0</ele><time>2026-04-19T06:47:01Z</time></trkpt><trkpt lat="43.136841635190386" lon="12.21059662616456"><ele>238.0</ele><time>2026-04-19T06:47:02Z</time></trkpt><trkpt lat="43.13699990286326" lon="12.210675191154158"><ele>238.0</ele><time>2026-04-19T06:47:03Z</time></trkpt><trkpt lat="43.13716276897204" lon="12.210739768750207"><ele>238.0</ele><time>2026-04-19T06:47:04Z</time></trkpt><trkpt lat="43.137329586607024" lon="12.210797312650103"><ele>237.66666666666666</ele><time>2026-04-19T06:47:05Z</time></trkpt><trkpt lat="43.13749735957572" lon="12.210850035770672"><ele>237.33333333333331</ele><time>2026-04-19T06:47:06Z</time></trkpt><trkpt lat="43.137660186449" lon="12.210901169602689"><ele>237.0</ele><time>2026-04-19T06:47:07Z</time></trkpt><trkpt lat="43.137808062488816" lon="12.210938295011138"><ele>237.0</ele><time>2026-04-19T06:47:08Z</time></trkpt><trkpt lat="43.13795629908012" lon="12.210984696554556"><ele>237.0</ele><time>2026-04-19T06:47:09Z</time></trkpt><trkpt lat="43.13810133173891" lon="12.211027511628023"><ele>237.0</ele><time>2026-04-19T06:47:10Z</time></trkpt><trkpt lat="43.13824949320196" lon="12.211067913934878"><ele>237.66666666666669</ele><time>2026-04-19T06:47:11Z</time></trkpt><trkpt lat="43.1383954067067" lon="12.21110970641577"><ele>238.33333333333334</ele><time>2026-04-19T06:47:12Z</time></trkpt><trkpt lat="43.13854375392135" lon="12.211151191629577"><ele>239.0</ele><time>2026-04-19T06:47:12.999Z</time></trkpt><trkpt lat="43.13869613592865" lon="12.211185386281771"><ele>239.0</ele><time>2026-04-19T06:47:13.999Z</time></trkpt><trkpt lat="43.138853122824806" lon="12.211210723099104"><ele>239.0</ele><time>2026-04-19T06:47:14.999Z</time></trkpt><trkpt lat="43.139016463006115" lon="12.211215706574745"><ele>239.0</ele><time>2026-04-19T06:47:15.999Z</time></trkpt><trkpt lat="43.13918686690451" lon="12.211198057400381"><ele>239.0</ele><time>2026-04-19T06:47:16.999Z</time></trkpt><trkpt lat="43.13936021294066" lon="12.211168078563936"><ele>239.0</ele><time>2026-04-19T06:47:17.999Z</time></trkpt><trkpt lat="43.13953493345636" lon="12.21112836657662"><ele>239.0</ele><time>2026-04-19T06:47:18.999Z</time></trkpt><trkpt lat="43.1397106467603" lon="12.21108644580888"><ele>238.33333333333334</ele><time>2026-04-19T06:47:19.999Z</time></trkpt><trkpt lat="43.13988784348667" lon="12.211042581978976"><ele>237.66666666666669</ele><time>2026-04-19T06:47:20.999Z</time></trkpt><trkpt lat="43.14006943014198" lon="12.211007421768882"><ele>237.0</ele><time>2026-04-19T06:47:21.999Z</time></trkpt><trkpt lat="43.1402510900053" lon="12.210981786529214"><ele>237.0</ele><time>2026-04-19T06:47:22.999Z</time></trkpt><trkpt lat="43.1404366558822" lon="12.210972368586711"><ele>237.0</ele><time>2026-04-19T06:47:23.999Z</time></trkpt><trkpt lat="43.14061828558081" lon="12.210979434686156"><ele>237.0</ele><time>2026-04-19T06:47:24.999Z</time></trkpt><trkpt lat="43.140791113788126" lon="12.211016723363834"><ele>237.66666666666669</ele><time>2026-04-19T06:47:25.999Z</time></trkpt><trkpt lat="43.14095650922415" lon="12.211064177591673"><ele>238.33333333333334</ele><time>2026-04-19T06:47:26.999Z</time></trkpt><trkpt lat="43.141117888281386" lon="12.211117235282428"><ele>239.0</ele><time>2026-04-19T06:47:27.999Z</time></trkpt><trkpt lat="43.14127912898943" lon="12.211171366641665"><ele>239.0</ele><time>2026-04-19T06:47:28.999Z</time></trkpt><trkpt lat="43.141433943419436" lon="12.211222659935357"><ele>239.0</ele><time>2026-04-19T06:47:29.999Z</time></trkpt><trkpt lat="43.141586634197246" lon="12.211273285361752"><ele>239.0</ele><time>2026-04-19T06:47:30.999Z</time></trkpt><trkpt lat="43.141736452508944" lon="12.21132410288454"><ele>240.33333333333334</ele><time>2026-04-19T06:47:31.999Z</time></trkpt><trkpt lat="43.14188654519433" lon="12.211375262983493"><ele>241.66666666666669</ele><time>2026-04-19T06:47:32.999Z</time></trkpt><trkpt lat="43.142037654526305" lon="12.21142333819584"><ele>243.0</ele><time>2026-04-19T06:47:33.999Z</time></trkpt><trkpt lat="43.14218880916019" lon="12.211472445054207"><ele>243.0</ele><time>2026-04-19T06:47:34.999Z</time></trkpt><trkpt lat="43.14234132073655" lon="12.211523325001336"><ele>243.0</ele><time>2026-04-19T06:47:35.999Z</time></trkpt><trkpt lat="43.14249646084788" lon="12.211576116594346"><ele>243.0</ele><time>2026-04-19T06:47:36.999Z</time></trkpt><trkpt lat="43.14265330009501" lon="12.211634407250797"><ele>243.0</ele><time>2026-04-19T06:47:37.999Z</time></trkpt><trkpt lat="43.14280900794864" lon="12.211708645933818"><ele>243.0</ele><time>2026-04-19T06:47:38.999Z</time></trkpt><trkpt lat="43.142960388679185" lon="12.211806345468588"><ele>243.0</ele><time>2026-04-19T06:47:39.999Z</time></trkpt><trkpt lat="43.143107393029204" lon="12.211920723450529"><ele>243.0</ele><time>2026-04-19T06:47:40.999Z</time></trkpt><trkpt lat="43.14324915704101" lon="12.212050738991094"><ele>243.0</ele><time>2026-04-19T06:47:41.999Z</time></trkpt><trkpt lat="43.14337907810454" lon="12.212198761371775"><ele>243.0</ele><time>2026-04-19T06:47:42.999Z</time></trkpt><trkpt lat="43.143492090738945" lon="12.212340209139773"><ele>242.0</ele><time>2026-04-19T06:47:43.999Z</time></trkpt><trkpt lat="43.14359559777781" lon="12.212470600423728"><ele>241.0</ele><time>2026-04-19T06:47:44.999Z</time></trkpt><trkpt lat="43.143692519817655" lon="12.212589294710023"><ele>240.0</ele><time>2026-04-19T06:47:45.999Z</time></trkpt><trkpt lat="43.143781832568735" lon="12.212697861893938"><ele>239.0</ele><time>2026-04-19T06:47:46.999Z</time></trkpt><trkpt lat="43.143864436592196" lon="12.212797773180851"><ele>239.0</ele><time>2026-04-19T06:47:47.999Z</time></trkpt><trkpt lat="43.14394110246301" lon="12.212894942856924"><ele>238.99999999999997</ele><time>2026-04-19T06:47:48.999Z</time></trkpt><trkpt lat="43.1440107783371" lon="12.212990056748955"><ele>238.99999999999997</ele><time>2026-04-19T06:47:49.999Z</time></trkpt><trkpt lat="43.14406926142342" lon="12.213095808997403"><ele>239.0</ele><time>2026-04-19T06:47:50.999Z</time></trkpt><trkpt lat="43.14411077828566" lon="12.213190372958719"><ele>239.0</ele><time>2026-04-19T06:47:51.999Z</time></trkpt><trkpt lat="43.14414228827242" lon="12.21331162775502"><ele>239.00000000000003</ele><time>2026-04-19T06:47:53.999Z</time></trkpt><trkpt lat="43.14414545867176" lon="12.213410715302228"><ele>239.0</ele><time>2026-04-19T06:47:55.999Z</time></trkpt><trkpt lat="43.14415014828714" lon="12.213541676496293"><ele>239.0</ele><time>2026-04-19T06:47:57.999Z</time></trkpt><trkpt lat="43.14410824636248" lon="12.213621014611975"><ele>239.0</ele><time>2026-04-19T06:47:58.999Z</time></trkpt><trkpt lat="43.144104090515356" lon="12.213711597005023"><ele>239.00000000000003</ele><time>2026-04-19T06:47:59.999Z</time></trkpt><trkpt lat="43.144125080133826" lon="12.213813694898079"><ele>239.0</ele><time>2026-04-19T06:48:00.999Z</time></trkpt><trkpt lat="43.144161694687156" lon="12.213917144758762"><ele>238.83333333333334</ele><time>2026-04-19T06:48:01.999Z</time></trkpt><trkpt lat="43.144219726632365" lon="12.214014468558682"><ele>238.66666666666669</ele><time>2026-04-19T06:48:02.999Z</time></trkpt><trkpt lat="43.14428240042369" lon="12.214105642126345"><ele>238.5</ele><time>2026-04-19T06:48:03.999Z</time></trkpt><trkpt lat="43.144345586926796" lon="12.214198909426221"><ele>238.33333333333331</ele><time>2026-04-19T06:48:04.999Z</time></trkpt><trkpt lat="43.14438898247852" lon="12.214296150032808"><ele>238.16666666666666</ele><time>2026-04-19T06:48:05.999Z</time></trkpt><trkpt lat="43.14441356146763" lon="12.214389035466787"><ele>238.0</ele><time>2026-04-19T06:48:06.999Z</time></trkpt><trkpt lat="43.14442458405235" lon="12.214481715498943"><ele>238.0</ele><time>2026-04-19T06:48:07.999Z</time></trkpt><trkpt lat="43.14443129156517" lon="12.21458717307961"><ele>238.0</ele><time>2026-04-19T06:48:08.999Z</time></trkpt><trkpt lat="43.144426216792795" lon="12.214698280754783"><ele>238.0</ele><time>2026-04-19T06:48:09.999Z</time></trkpt><trkpt lat="43.14440649045533" lon="12.214821093664801"><ele>238.0</ele><time>2026-04-19T06:48:10.999Z</time></trkpt><trkpt lat="43.14437880732079" lon="12.214953849106097"><ele>238.0</ele><time>2026-04-19T06:48:11.999Z</time></trkpt><trkpt lat="43.14434032438243" lon="12.215095443248389"><ele>238.0</ele><time>2026-04-19T06:48:12.999Z</time></trkpt><trkpt lat="43.14429816733209" lon="12.215248482428297"><ele>238.0</ele><time>2026-04-19T06:48:13.999Z</time></trkpt><trkpt lat="43.14425505560192" lon="12.215409953517886"><ele>238.0</ele><time>2026-04-19T06:48:14.999Z</time></trkpt><trkpt lat="43.1442132108285" lon="12.215566003058864"><ele>238.0</ele><time>2026-04-19T06:48:15.999Z</time></trkpt><trkpt lat="43.1441774055991" lon="12.215704064128657"><ele>238.0</ele><time>2026-04-19T06:48:16.998Z</time></trkpt><trkpt lat="43.144145680266" lon="12.21583095497779"><ele>238.0</ele><time>2026-04-19T06:48:17.998Z</time></trkpt><trkpt lat="43.14411626687614" lon="12.215946331658495"><ele>238.0</ele><time>2026-04-19T06:48:18.998Z</time></trkpt><trkpt lat="43.144089682182425" lon="12.216057100447546"><ele>238.0</ele><time>2026-04-19T06:48:19.998Z</time></trkpt><trkpt lat="43.14406202055172" lon="12.216174380358412"><ele>238.0</ele><time>2026-04-19T06:48:21Z</time></trkpt><trkpt lat="43.14402842523204" lon="12.216300221185278"><ele>237.8</ele><time>2026-04-19T06:48:22Z</time></trkpt><trkpt lat="43.14399189957458" lon="12.21643719178865"><ele>237.60000000000002</ele><time>2026-04-19T06:48:23Z</time></trkpt><trkpt lat="43.14395621099514" lon="12.216578380152805"><ele>237.39999999999998</ele><time>2026-04-19T06:48:24Z</time></trkpt><trkpt lat="43.14391897233221" lon="12.216723340086677"><ele>237.2</ele><time>2026-04-19T06:48:25Z</time></trkpt><trkpt lat="43.14388106656417" lon="12.216870899948804"><ele>237.0</ele><time>2026-04-19T06:48:26Z</time></trkpt><trkpt lat="43.143844453850335" lon="12.217017940315936"><ele>237.0</ele><time>2026-04-19T06:48:27Z</time></trkpt><trkpt lat="43.14380755359317" lon="12.217168373016728"><ele>237.0</ele><time>2026-04-19T06:48:28Z</time></trkpt><trkpt lat="43.14376756959705" lon="12.217321654837498"><ele>237.0</ele><time>2026-04-19T06:48:29Z</time></trkpt><trkpt lat="43.143729335273534" lon="12.217475769276287"><ele>237.0</ele><time>2026-04-19T06:48:30Z</time></trkpt><trkpt lat="43.143694143138426" lon="12.217614146725575"><ele>237.5</ele><time>2026-04-19T06:48:31Z</time></trkpt><trkpt lat="43.143658564143415" lon="12.217759532086554"><ele>238.0</ele><time>2026-04-19T06:48:32Z</time></trkpt><trkpt lat="43.14361943809635" lon="12.217914281664791"><ele>238.5</ele><time>2026-04-19T06:48:33Z</time></trkpt><trkpt lat="43.14358108664794" lon="12.218071521328891"><ele>239.0</ele><time>2026-04-19T06:48:34Z</time></trkpt><trkpt lat="43.14354387475976" lon="12.218228352196915"><ele>239.25</ele><time>2026-04-19T06:48:35Z</time></trkpt><trkpt lat="43.14350579433736" lon="12.21838292919948"><ele>239.5</ele><time>2026-04-19T06:48:36Z</time></trkpt><trkpt lat="43.143468031248815" lon="12.218536996429885"><ele>239.75</ele><time>2026-04-19T06:48:37Z</time></trkpt><trkpt lat="43.14343034039175" lon="12.218686855387237"><ele>240.0</ele><time>2026-04-19T06:48:38Z</time></trkpt><trkpt lat="43.143390819083855" lon="12.218842690193792"><ele>240.25</ele><time>2026-04-19T06:48:39Z</time></trkpt><trkpt lat="43.143349635600735" lon="12.219002909067653"><ele>240.5</ele><time>2026-04-19T06:48:40Z</time></trkpt><trkpt lat="43.143308953927665" lon="12.219164523439128"><ele>240.75</ele><time>2026-04-19T06:48:41Z</time></trkpt><trkpt lat="43.143268468359054" lon="12.219332515212297"><ele>241.0</ele><time>2026-04-19T06:48:42Z</time></trkpt><trkpt lat="43.143225977355286" lon="12.219505321759755"><ele>240.5</ele><time>2026-04-19T06:48:43Z</time></trkpt><trkpt lat="43.14318369759381" lon="12.219673485028071"><ele>240.0</ele><time>2026-04-19T06:48:44Z</time></trkpt><trkpt lat="43.14314177801925" lon="12.219841174826568"><ele>239.5</ele><time>2026-04-19T06:48:45Z</time></trkpt><trkpt lat="43.14310334397079" lon="12.220005450850199"><ele>239.0</ele><time>2026-04-19T06:48:46Z</time></trkpt><trkpt lat="43.14306691438877" lon="12.220166339225413"><ele>239.0</ele><time>2026-04-19T06:48:47Z</time></trkpt><trkpt lat="43.143026004854285" lon="12.220337702127692"><ele>239.0</ele><time>2026-04-19T06:48:48Z</time></trkpt><trkpt lat="43.14298142889086" lon="12.220522692577275"><ele>239.0</ele><time>2026-04-19T06:48:49Z</time></trkpt><trkpt lat="43.142931721317964" lon="12.220720170286885"><ele>239.0</ele><time>2026-04-19T06:48:50Z</time></trkpt><trkpt lat="43.14288173306678" lon="12.220905836654737"><ele>239.0</ele><time>2026-04-19T06:48:51Z</time></trkpt><trkpt lat="43.14284059398027" lon="12.221070987524818"><ele>239.0</ele><time>2026-04-19T06:48:52Z</time></trkpt><trkpt lat="43.14280122318812" lon="12.22123037509222"><ele>239.0</ele><time>2026-04-19T06:48:53Z</time></trkpt><trkpt lat="43.14275943552924" lon="12.22139507993513"><ele>239.0</ele><time>2026-04-19T06:48:54Z</time></trkpt><trkpt lat="43.14271629247427" lon="12.221563892335018"><ele>239.0</ele><time>2026-04-19T06:48:55Z</time></trkpt><trkpt lat="43.14267256440967" lon="12.2217415793735"><ele>239.0</ele><time>2026-04-19T06:48:56Z</time></trkpt><trkpt lat="43.14262636859216" lon="12.221927417686503"><ele>239.0</ele><time>2026-04-19T06:48:57Z</time></trkpt><trkpt lat="43.14257925523461" lon="12.222113259865962"><ele>239.0</ele><time>2026-04-19T06:48:58Z</time></trkpt><trkpt lat="43.14253601902069" lon="12.222282627789468"><ele>238.75</ele><time>2026-04-19T06:48:59Z</time></trkpt><trkpt lat="43.142496085429855" lon="12.2224437775735"><ele>238.5</ele><time>2026-04-19T06:49:00Z</time></trkpt><trkpt lat="43.14245280313131" lon="12.22261616160006"><ele>238.25</ele><time>2026-04-19T06:49:01Z</time></trkpt><trkpt lat="43.14240875847586" lon="12.222798916930188"><ele>238.0</ele><time>2026-04-19T06:49:02Z</time></trkpt><trkpt lat="43.14236352243604" lon="12.222991949653764"><ele>237.5</ele><time>2026-04-19T06:49:03Z</time></trkpt><trkpt lat="43.14231529472077" lon="12.223188169024494"><ele>237.0</ele><time>2026-04-19T06:49:04Z</time></trkpt><trkpt lat="43.14226768465915" lon="12.223384412763965"><ele>236.5</ele><time>2026-04-19T06:49:05Z</time></trkpt><trkpt lat="43.14222217132083" lon="12.223567529345228"><ele>236.0</ele><time>2026-04-19T06:49:06Z</time></trkpt><trkpt lat="43.142178915054444" lon="12.223733734560371"><ele>236.0</ele><time>2026-04-19T06:49:07Z</time></trkpt><trkpt lat="43.14213935797437" lon="12.223883787502203"><ele>236.00000000000003</ele><time>2026-04-19T06:49:08Z</time></trkpt><trkpt lat="43.14210540904755" lon="12.22402216753011"><ele>236.00000000000003</ele><time>2026-04-19T06:49:09Z</time></trkpt><trkpt lat="43.14207477976898" lon="12.224148530716844"><ele>236.0</ele><time>2026-04-19T06:49:10Z</time></trkpt><trkpt lat="43.142047954953625" lon="12.224264679245856"><ele>236.0</ele><time>2026-04-19T06:49:11Z</time></trkpt><trkpt lat="43.14202130007848" lon="12.224367257624184"><ele>235.83333333333334</ele><time>2026-04-19T06:49:12Z</time></trkpt><trkpt lat="43.14199609842103" lon="12.224460572270123"><ele>235.66666666666669</ele><time>2026-04-19T06:49:13Z</time></trkpt><trkpt lat="43.1419664767198" lon="12.224602862228126"><ele>235.5</ele><time>2026-04-19T06:49:15Z</time></trkpt><trkpt lat="43.14203358764123" lon="12.224680614290074"><ele>235.33333333333331</ele><time>2026-04-19T06:49:16Z</time></trkpt><trkpt lat="43.14212127780314" lon="12.22470788159134"><ele>235.16666666666666</ele><time>2026-04-19T06:49:18Z</time></trkpt><trkpt lat="43.14215305348733" lon="12.224609659862411"><ele>235.0</ele><time>2026-04-19T06:49:19.999Z</time></trkpt><trkpt lat="43.142216875715306" lon="12.224578587834776"><ele>234.99999999999997</ele><time>2026-04-19T06:49:31.999Z</time></trkpt><trkpt lat="43.142115945184564" lon="12.224510985517536"><ele>235.0</ele><time>2026-04-19T06:49:57.999Z</time></trkpt><trkpt lat="43.1420798931132" lon="12.224598346300157"><ele>235.0</ele><time>2026-04-19T07:13:11.999Z</time></trkpt><trkpt lat="43.1420035169062" lon="12.224650400579419"><ele>235.0</ele><time>2026-04-19T07:13:15.999Z</time></trkpt><trkpt lat="43.141963710957526" lon="12.224724752857302"><ele>234.99999999999997</ele><time>2026-04-19T07:13:16.999Z</time></trkpt><trkpt lat="43.14191297682645" lon="12.224858163951088"><ele>235.0</ele><time>2026-04-19T07:13:17.999Z</time></trkpt><trkpt lat="43.14186359908098" lon="12.225015737598369"><ele>235.5</ele><time>2026-04-19T07:13:18.999Z</time></trkpt><trkpt lat="43.1418209011109" lon="12.2251761152305"><ele>236.0</ele><time>2026-04-19T07:13:19.999Z</time></trkpt><trkpt lat="43.14178013596646" lon="12.225339652034126"><ele>236.5</ele><time>2026-04-19T07:13:20.999Z</time></trkpt><trkpt lat="43.14173850395081" lon="12.225495761523133"><ele>237.0</ele><time>2026-04-19T07:13:21.999Z</time></trkpt><trkpt lat="43.1417039354367" lon="12.225622068066757"><ele>237.16666666666666</ele><time>2026-04-19T07:13:22.999Z</time></trkpt><trkpt lat="43.14167646114488" lon="12.225727763909438"><ele>237.33333333333331</ele><time>2026-04-19T07:13:23.999Z</time></trkpt><trkpt lat="43.141648319906345" lon="12.225828345266878"><ele>237.5</ele><time>2026-04-19T07:13:24.999Z</time></trkpt><trkpt lat="43.14161875765022" lon="12.225940427689178"><ele>237.66666666666666</ele><time>2026-04-19T07:13:25.999Z</time></trkpt><trkpt lat="43.14159082573429" lon="12.226042437579705"><ele>237.83333333333331</ele><time>2026-04-19T07:13:26.999Z</time></trkpt><trkpt lat="43.141567202092034" lon="12.226125148689672"><ele>238.0</ele><time>2026-04-19T07:13:27.999Z</time></trkpt><trkpt lat="43.14153300961801" lon="12.226213444499983"><ele>238.16666666666666</ele><time>2026-04-19T07:13:28.999Z</time></trkpt><trkpt lat="43.14147663983308" lon="12.226301519466954"><ele>238.33333333333331</ele><time>2026-04-19T07:13:30Z</time></trkpt><trkpt lat="43.14141263924873" lon="12.226400560415513"><ele>238.5</ele><time>2026-04-19T07:13:31Z</time></trkpt><trkpt lat="43.14136438832069" lon="12.22650870411913"><ele>238.66666666666669</ele><time>2026-04-19T07:13:32Z</time></trkpt><trkpt lat="43.141341309653285" lon="12.226609767098523"><ele>238.83333333333334</ele><time>2026-04-19T07:13:33Z</time></trkpt><trkpt lat="43.14133471829785" lon="12.226711318552068"><ele>239.0</ele><time>2026-04-19T07:13:34Z</time></trkpt><trkpt lat="43.141339892030466" lon="12.226825305599531"><ele>238.25</ele><time>2026-04-19T07:13:35Z</time></trkpt><trkpt lat="43.14134271215729" lon="12.226945194124031"><ele>237.5</ele><time>2026-04-19T07:13:36Z</time></trkpt><trkpt lat="43.14132984950662" lon="12.227082319449284"><ele>236.75</ele><time>2026-04-19T07:13:37Z</time></trkpt><trkpt lat="43.14129894400298" lon="12.227243451815495"><ele>236.0</ele><time>2026-04-19T07:13:38Z</time></trkpt><trkpt lat="43.14125168392405" lon="12.227429486459128"><ele>236.0</ele><time>2026-04-19T07:13:39Z</time></trkpt><trkpt lat="43.14119373677931" lon="12.227634447554783"><ele>236.0</ele><time>2026-04-19T07:13:40Z</time></trkpt><trkpt lat="43.14115156825266" lon="12.227795760610396"><ele>236.0</ele><time>2026-04-19T07:13:41Z</time></trkpt><trkpt lat="43.141116891798035" lon="12.227928751547084"><ele>236.0</ele><time>2026-04-19T07:13:42Z</time></trkpt><trkpt lat="43.14109221280004" lon="12.228045041250352"><ele>236.20000000000002</ele><time>2026-04-19T07:13:43Z</time></trkpt><trkpt lat="43.141098725775386" lon="12.228150096274542"><ele>236.40000000000003</ele><time>2026-04-19T07:13:44Z</time></trkpt><trkpt lat="43.14115121999172" lon="12.22825790902263"><ele>236.6</ele><time>2026-04-19T07:13:45Z</time></trkpt><trkpt lat="43.14124346571503" lon="12.228344672400326"><ele>236.8</ele><time>2026-04-19T07:13:46Z</time></trkpt><trkpt lat="43.14136202474673" lon="12.228399783714107"><ele>237.0</ele><time>2026-04-19T07:13:47Z</time></trkpt><trkpt lat="43.141485417443256" lon="12.228468792976075"><ele>237.0</ele><time>2026-04-19T07:13:48Z</time></trkpt><trkpt lat="43.14156779497939" lon="12.228587094910184"><ele>237.0</ele><time>2026-04-19T07:13:49Z</time></trkpt><trkpt lat="43.14157761879648" lon="12.228791012126269"><ele>237.0</ele><time>2026-04-19T07:13:50Z</time></trkpt><trkpt lat="43.14155475812349" lon="12.229022052558046"><ele>237.0</ele><time>2026-04-19T07:13:51Z</time></trkpt><trkpt lat="43.1415151465904" lon="12.229306714900122"><ele>235.5</ele><time>2026-04-19T07:13:52Z</time></trkpt><trkpt lat="43.141453880207806" lon="12.229634004615132"><ele>234.0</ele><time>2026-04-19T07:13:53Z</time></trkpt><trkpt lat="43.14140285765903" lon="12.229979942870969"><ele>234.0</ele><time>2026-04-19T07:13:54Z</time></trkpt><trkpt lat="43.14135608763344" lon="12.230302166637966"><ele>234.0</ele><time>2026-04-19T07:13:55Z</time></trkpt><trkpt lat="43.14131866955905" lon="12.23058366023144"><ele>234.0</ele><time>2026-04-19T07:13:56Z</time></trkpt><trkpt lat="43.14128217800434" lon="12.230915157340652"><ele>235.0</ele><time>2026-04-19T07:13:57Z</time></trkpt><trkpt lat="43.141225321413394" lon="12.231325280450442"><ele>236.0</ele><time>2026-04-19T07:13:58Z</time></trkpt><trkpt lat="43.14113744379016" lon="12.231755907164997"><ele>237.0</ele><time>2026-04-19T07:13:59Z</time></trkpt><trkpt lat="43.14104056618958" lon="12.232222444251445"><ele>238.0</ele><time>2026-04-19T07:14:00Z</time></trkpt><trkpt lat="43.140928150544" lon="12.232731454503636"><ele>237.0</ele><time>2026-04-19T07:14:01Z</time></trkpt><trkpt lat="43.14081087350122" lon="12.233273078071806"><ele>236.0</ele><time>2026-04-19T07:14:02Z</time></trkpt><trkpt lat="43.140694997000786" lon="12.233829909275938"><ele>236.5</ele><time>2026-04-19T07:14:03Z</time></trkpt><trkpt lat="43.14057250737363" lon="12.23439031853479"><ele>237.0</ele><time>2026-04-19T07:14:04Z</time></trkpt><trkpt lat="43.140438262350294" lon="12.234973428279009"><ele>237.0</ele><time>2026-04-19T07:14:05Z</time></trkpt><trkpt lat="43.14029745225589" lon="12.235560425189359"><ele>236.0</ele><time>2026-04-19T07:14:06Z</time></trkpt><trkpt lat="43.140147631078115" lon="12.236151935787557"><ele>235.0</ele><time>2026-04-19T07:14:07Z</time></trkpt><trkpt lat="43.13999364047763" lon="12.236746831545402"><ele>236.0</ele><time>2026-04-19T07:14:08Z</time></trkpt><trkpt lat="43.139839992061155" lon="12.237340596495352"><ele>236.0</ele><time>2026-04-19T07:14:09Z</time></trkpt><trkpt lat="43.139680022030916" lon="12.2379366816721"><ele>238.0</ele><time>2026-04-19T07:14:10Z</time></trkpt><trkpt lat="43.13951812540685" lon="12.238528176946636"><ele>237.0</ele><time>2026-04-19T07:14:11Z</time></trkpt><trkpt lat="43.139357353769036" lon="12.239125661310444"><ele>237.0</ele><time>2026-04-19T07:14:12Z</time></trkpt><trkpt lat="43.13919874169078" lon="12.239721655717528"><ele>236.0</ele><time>2026-04-19T07:14:13Z</time></trkpt><trkpt lat="43.139038465801065" lon="12.240315874674028"><ele>235.5</ele><time>2026-04-19T07:14:14Z</time></trkpt><trkpt lat="43.138892083930436" lon="12.240862413656837"><ele>235.0</ele><time>2026-04-19T07:14:15Z</time></trkpt><trkpt lat="43.13874737450429" lon="12.241398237564212"><ele>235.0</ele><time>2026-04-19T07:14:16Z</time></trkpt><trkpt lat="43.138604484662146" lon="12.241919694364109"><ele>235.0</ele><time>2026-04-19T07:14:17Z</time></trkpt><trkpt lat="43.138466335899736" lon="12.24242725756229"><ele>235.0</ele><time>2026-04-19T07:14:18Z</time></trkpt><trkpt lat="43.138329220942985" lon="12.24292891538836"><ele>235.0</ele><time>2026-04-19T07:14:19Z</time></trkpt><trkpt lat="43.138194751604104" lon="12.243434756919193"><ele>234.5</ele><time>2026-04-19T07:14:20Z</time></trkpt><trkpt lat="43.138050731434824" lon="12.24395948416172"><ele>234.0</ele><time>2026-04-19T07:14:21Z</time></trkpt><trkpt lat="43.137901575665204" lon="12.244509387201642"><ele>233.5</ele><time>2026-04-19T07:14:22Z</time></trkpt><trkpt lat="43.13774947948715" lon="12.245073439770222"><ele>233.0</ele><time>2026-04-19T07:14:23Z</time></trkpt><trkpt lat="43.137595746679" lon="12.245647869595208"><ele>233.0</ele><time>2026-04-19T07:14:24Z</time></trkpt><trkpt lat="43.13743850654618" lon="12.246224688061977"><ele>233.0</ele><time>2026-04-19T07:14:25Z</time></trkpt><trkpt lat="43.13728181986262" lon="12.246797611250082"><ele>232.0</ele><time>2026-04-19T07:14:26Z</time></trkpt><trkpt lat="43.13712550575011" lon="12.247368899801968"><ele>231.0</ele><time>2026-04-19T07:14:27Z</time></trkpt><trkpt lat="43.13696757875294" lon="12.247939664520745"><ele>230.0</ele><time>2026-04-19T07:14:28Z</time></trkpt><trkpt lat="43.13681188559692" lon="12.2485172508202"><ele>229.0</ele><time>2026-04-19T07:14:29Z</time></trkpt><trkpt lat="43.13665131820023" lon="12.249108427780534"><ele>227.0</ele><time>2026-04-19T07:14:30Z</time></trkpt><trkpt lat="43.13648873514935" lon="12.249712949426717"><ele>229.0</ele><time>2026-04-19T07:14:31Z</time></trkpt><trkpt lat="43.136324471599664" lon="12.250314943650102"><ele>230.0</ele><time>2026-04-19T07:14:32Z</time></trkpt><trkpt lat="43.136157500043666" lon="12.250904195743669"><ele>230.0</ele><time>2026-04-19T07:14:33Z</time></trkpt><trkpt lat="43.135988309708274" lon="12.251485265029968"><ele>230.0</ele><time>2026-04-19T07:14:34Z</time></trkpt><trkpt lat="43.135826197364146" lon="12.252067487953564"><ele>232.0</ele><time>2026-04-19T07:14:35Z</time></trkpt><trkpt lat="43.13566588783711" lon="12.252652719208061"><ele>232.0</ele><time>2026-04-19T07:14:36Z</time></trkpt><trkpt lat="43.13550529758868" lon="12.253237297759055"><ele>232.0</ele><time>2026-04-19T07:14:37Z</time></trkpt><trkpt lat="43.13534890440354" lon="12.25382152508905"><ele>233.0</ele><time>2026-04-19T07:14:38Z</time></trkpt><trkpt lat="43.13519305352675" lon="12.254403181412735"><ele>233.0</ele><time>2026-04-19T07:14:39Z</time></trkpt><trkpt lat="43.13504179827403" lon="12.254954983371873"><ele>233.0</ele><time>2026-04-19T07:14:40Z</time></trkpt><trkpt lat="43.13490615039679" lon="12.255454142639666"><ele>235.0</ele><time>2026-04-19T07:14:41Z</time></trkpt><trkpt lat="43.13477298797033" lon="12.25594009540326"><ele>237.0</ele><time>2026-04-19T07:14:42Z</time></trkpt><trkpt lat="43.134643540382804" lon="12.256395064567085"><ele>237.0</ele><time>2026-04-19T07:14:43Z</time></trkpt><trkpt lat="43.13452784868736" lon="12.256800795722551"><ele>237.0</ele><time>2026-04-19T07:14:44Z</time></trkpt><trkpt lat="43.134429480681455" lon="12.257148970384268"><ele>236.0</ele><time>2026-04-19T07:14:45Z</time></trkpt><trkpt lat="43.13434642290428" lon="12.257452422378487"><ele>235.0</ele><time>2026-04-19T07:14:46Z</time></trkpt><trkpt lat="43.13427484167487" lon="12.257710185468982"><ele>234.0</ele><time>2026-04-19T07:14:47Z</time></trkpt><trkpt lat="43.1342011213919" lon="12.25792653313798"><ele>234.0</ele><time>2026-04-19T07:14:48Z</time></trkpt><trkpt lat="43.134089471455844" lon="12.258091035600025"><ele>234.0</ele><time>2026-04-19T07:14:48.999Z</time></trkpt><trkpt lat="43.133939524929744" lon="12.258197459250145"><ele>234.0</ele><time>2026-04-19T07:14:49.999Z</time></trkpt><trkpt lat="43.13375546861281" lon="12.258270115283162"><ele>233.33333333333331</ele><time>2026-04-19T07:14:50.999Z</time></trkpt><trkpt lat="43.13358082054371" lon="12.25826185939734"><ele>232.66666666666666</ele><time>2026-04-19T07:14:51.999Z</time></trkpt><trkpt lat="43.13343632472047" lon="12.258292764668854"><ele>232.0</ele><time>2026-04-19T07:14:52.999Z</time></trkpt><trkpt lat="43.13331317431355" lon="12.258376517727582"><ele>232.66666666666666</ele><time>2026-04-19T07:14:53.999Z</time></trkpt><trkpt lat="43.133208747869034" lon="12.258536387104687"><ele>233.33333333333331</ele><time>2026-04-19T07:14:54.999Z</time></trkpt><trkpt lat="43.13315233117832" lon="12.25874018779517"><ele>234.0</ele><time>2026-04-19T07:14:55.999Z</time></trkpt><trkpt lat="43.13315068852582" lon="12.258982009587989"><ele>234.0</ele><time>2026-04-19T07:14:56.999Z</time></trkpt><trkpt lat="43.1332578102884" lon="12.259222254781163"><ele>234.0</ele><time>2026-04-19T07:14:57.999Z</time></trkpt><trkpt lat="43.13341071811012" lon="12.259498567698042"><ele>233.5</ele><time>2026-04-19T07:14:58.999Z</time></trkpt><trkpt lat="43.133593380749666" lon="12.259823863720689"><ele>233.0</ele><time>2026-04-19T07:14:59.999Z</time></trkpt><trkpt lat="43.133764680272606" lon="12.260173714377677"><ele>233.0</ele><time>2026-04-19T07:15:00.999Z</time></trkpt><trkpt lat="43.13395049251754" lon="12.260549817041968"><ele>233.0</ele><time>2026-04-19T07:15:01.999Z</time></trkpt><trkpt lat="43.134150044612376" lon="12.260956345972742"><ele>233.0</ele><time>2026-04-19T07:15:02.999Z</time></trkpt><trkpt lat="43.13433460872071" lon="12.261291781282258"><ele>233.0</ele><time>2026-04-19T07:15:03.999Z</time></trkpt><trkpt lat="43.1345030841475" lon="12.261604846753551"><ele>233.0</ele><time>2026-04-19T07:15:04.999Z</time></trkpt><trkpt lat="43.13465572483492" lon="12.261892775686993"><ele>233.0</ele><time>2026-04-19T07:15:05.999Z</time></trkpt><trkpt lat="43.134783053838596" lon="12.262139806584297"><ele>233.0</ele><time>2026-04-19T07:15:06.999Z</time></trkpt><trkpt lat="43.134885617880826" lon="12.262338296931974"><ele>233.0</ele><time>2026-04-19T07:15:07.999Z</time></trkpt><trkpt lat="43.13496554407505" lon="12.262507952844576"><ele>233.0</ele><time>2026-04-19T07:15:08.999Z</time></trkpt><trkpt lat="43.13503405292696" lon="12.262658879501112"><ele>233.33333333333334</ele><time>2026-04-19T07:15:09.999Z</time></trkpt><trkpt lat="43.134991995412655" lon="12.26289795545646"><ele>233.66666666666669</ele><time>2026-04-19T07:15:10.999Z</time></trkpt><trkpt lat="43.13500624539322" lon="12.263132058540085"><ele>234.0</ele><time>2026-04-19T07:15:11.999Z</time></trkpt><trkpt lat="43.13509245410553" lon="12.263357600923776"><ele>234.0</ele><time>2026-04-19T07:15:12.999Z</time></trkpt><trkpt lat="43.13522662201464" lon="12.263527240255582"><ele>234.0</ele><time>2026-04-19T07:15:13.999Z</time></trkpt><trkpt lat="43.13538857643921" lon="12.263641556402069"><ele>234.0</ele><time>2026-04-19T07:15:14.999Z</time></trkpt><trkpt lat="43.13557777366705" lon="12.263669148735405"><ele>234.0</ele><time>2026-04-19T07:15:15.999Z</time></trkpt><trkpt lat="43.13571402490397" lon="12.26391580901628"><ele>234.0</ele><time>2026-04-19T07:15:16.999Z</time></trkpt><trkpt lat="43.13585969287286" lon="12.264190331806894"><ele>233.5</ele><time>2026-04-19T07:15:17.999Z</time></trkpt><trkpt lat="43.136028695731085" lon="12.264522222163825"><ele>233.0</ele><time>2026-04-19T07:15:18.999Z</time></trkpt><trkpt lat="43.13621949640951" lon="12.264904810367138"><ele>233.5</ele><time>2026-04-19T07:15:19.999Z</time></trkpt><trkpt lat="43.13642897960822" lon="12.265302221889385"><ele>234.0</ele><time>2026-04-19T07:15:20.999Z</time></trkpt><trkpt lat="43.13665289290219" lon="12.2657308658394"><ele>234.0</ele><time>2026-04-19T07:15:21.999Z</time></trkpt><trkpt lat="43.136875146554026" lon="12.266156814357705"><ele>234.0</ele><time>2026-04-19T07:15:22.999Z</time></trkpt><trkpt lat="43.137099276590554" lon="12.266600021110193"><ele>234.0</ele><time>2026-04-19T07:15:23.999Z</time></trkpt><trkpt lat="43.13732898162141" lon="12.267059173675555"><ele>234.0</ele><time>2026-04-19T07:15:24.999Z</time></trkpt><trkpt lat="43.13755307299903" lon="12.267497792763862"><ele>234.0</ele><time>2026-04-19T07:15:25.999Z</time></trkpt><trkpt lat="43.137760869944756" lon="12.267899842576115"><ele>234.0</ele><time>2026-04-19T07:15:26.999Z</time></trkpt><trkpt lat="43.13796541512004" lon="12.26828113044154"><ele>234.0</ele><time>2026-04-19T07:15:27.999Z</time></trkpt><trkpt lat="43.13818269032039" lon="12.268648485628606"><ele>234.0</ele><time>2026-04-19T07:15:28.999Z</time></trkpt><trkpt lat="43.13841835673128" lon="12.26898235853407"><ele>235.0</ele><time>2026-04-19T07:15:29.999Z</time></trkpt><trkpt lat="43.13866669028165" lon="12.269267555558486"><ele>236.0</ele><time>2026-04-19T07:15:30.999Z</time></trkpt><trkpt lat="43.1388999161748" lon="12.269506307265969"><ele>236.5</ele><time>2026-04-19T07:15:31.999Z</time></trkpt><trkpt lat="43.139118038238685" lon="12.269716851436423"><ele>237.0</ele><time>2026-04-19T07:15:32.999Z</time></trkpt><trkpt lat="43.13930020790345" lon="12.26993079373855"><ele>237.0</ele><time>2026-04-19T07:15:33.999Z</time></trkpt><trkpt lat="43.13942510333113" lon="12.270198122392463"><ele>237.0</ele><time>2026-04-19T07:15:34.999Z</time></trkpt><trkpt lat="43.139493761649504" lon="12.270511450346284"><ele>236.0</ele><time>2026-04-19T07:15:36Z</time></trkpt><trkpt lat="43.13950229880232" lon="12.270849353410142"><ele>235.0</ele><time>2026-04-19T07:15:37Z</time></trkpt><trkpt lat="43.13945049574928" lon="12.27121549526731"><ele>235.5</ele><time>2026-04-19T07:15:38Z</time></trkpt><trkpt lat="43.13937121188797" lon="12.271614760233435"><ele>236.0</ele><time>2026-04-19T07:15:39Z</time></trkpt><trkpt lat="43.139306286036295" lon="12.272050663683196"><ele>237.0</ele><time>2026-04-19T07:15:40Z</time></trkpt><trkpt lat="43.139248516026086" lon="12.272447827673314"><ele>238.0</ele><time>2026-04-19T07:15:41Z</time></trkpt><trkpt lat="43.13919544493477" lon="12.27279030676608"><ele>238.0</ele><time>2026-04-19T07:15:42Z</time></trkpt><trkpt lat="43.13914903154851" lon="12.273103958288836"><ele>238.0</ele><time>2026-04-19T07:15:43Z</time></trkpt><trkpt lat="43.13910558600288" lon="12.273395333869146"><ele>238.0</ele><time>2026-04-19T07:15:44Z</time></trkpt><trkpt lat="43.13906406475592" lon="12.27365098806931"><ele>238.0</ele><time>2026-04-19T07:15:45Z</time></trkpt><trkpt lat="43.13902171205654" lon="12.273905192292085"><ele>238.0</ele><time>2026-04-19T07:15:46Z</time></trkpt><trkpt lat="43.138988935496755" lon="12.274168264999146"><ele>238.0</ele><time>2026-04-19T07:15:47Z</time></trkpt><trkpt lat="43.138991827781076" lon="12.274447397652429"><ele>238.0</ele><time>2026-04-19T07:15:48Z</time></trkpt><trkpt lat="43.13904205058207" lon="12.27471820825422"><ele>238.0</ele><time>2026-04-19T07:15:49Z</time></trkpt><trkpt lat="43.13912097722648" lon="12.274955328382262"><ele>237.66666666666666</ele><time>2026-04-19T07:15:50Z</time></trkpt><trkpt lat="43.1392402100351" lon="12.275165438991179"><ele>237.33333333333331</ele><time>2026-04-19T07:15:51Z</time></trkpt><trkpt lat="43.13940404474107" lon="12.275347408393353"><ele>237.0</ele><time>2026-04-19T07:15:52Z</time></trkpt><trkpt lat="43.139618170521366" lon="12.275556859235433"><ele>237.5</ele><time>2026-04-19T07:15:53Z</time></trkpt><trkpt lat="43.13984256159368" lon="12.27582185791858"><ele>238.0</ele><time>2026-04-19T07:15:54Z</time></trkpt><trkpt lat="43.140079887933815" lon="12.276078250607924"><ele>238.0</ele><time>2026-04-19T07:15:55Z</time></trkpt><trkpt lat="43.14028444913867" lon="12.27628683800784"><ele>238.0</ele><time>2026-04-19T07:15:56Z</time></trkpt><trkpt lat="43.140481565436644" lon="12.27647951029618"><ele>238.0</ele><time>2026-04-19T07:15:57Z</time></trkpt><trkpt lat="43.14071406235177" lon="12.276671220104141"><ele>238.0</ele><time>2026-04-19T07:15:58Z</time></trkpt><trkpt lat="43.140957272966304" lon="12.276925575337652"><ele>238.0</ele><time>2026-04-19T07:15:59Z</time></trkpt><trkpt lat="43.1411665471019" lon="12.277172174287978"><ele>238.0</ele><time>2026-04-19T07:16:00Z</time></trkpt><trkpt lat="43.14136074066475" lon="12.277371215229639"><ele>237.66666666666666</ele><time>2026-04-19T07:16:01Z</time></trkpt><trkpt lat="43.141520889512805" lon="12.277547443776571"><ele>237.33333333333331</ele><time>2026-04-19T07:16:02Z</time></trkpt><trkpt lat="43.14166268136566" lon="12.277709072216512"><ele>237.0</ele><time>2026-04-19T07:16:03Z</time></trkpt><trkpt lat="43.14180429910748" lon="12.27787069314397"><ele>238.5</ele><time>2026-04-19T07:16:04Z</time></trkpt><trkpt lat="43.1419923578697" lon="12.278077162582697"><ele>240.0</ele><time>2026-04-19T07:16:05Z</time></trkpt><trkpt lat="43.14218949594281" lon="12.27835460865743"><ele>239.5</ele><time>2026-04-19T07:16:06Z</time></trkpt><trkpt lat="43.14241051497067" lon="12.278686086687005"><ele>239.0</ele><time>2026-04-19T07:16:07Z</time></trkpt><trkpt lat="43.14266380025055" lon="12.279042991546728"><ele>238.5</ele><time>2026-04-19T07:16:08Z</time></trkpt><trkpt lat="43.14292773129795" lon="12.279384253276435"><ele>238.0</ele><time>2026-04-19T07:16:09Z</time></trkpt><trkpt lat="43.14322738789083" lon="12.279721684195701"><ele>238.5</ele><time>2026-04-19T07:16:10Z</time></trkpt><trkpt lat="43.14355972654283" lon="12.280072170407347"><ele>239.0</ele><time>2026-04-19T07:16:11Z</time></trkpt><trkpt lat="43.14389310926106" lon="12.28045931038405"><ele>238.5</ele><time>2026-04-19T07:16:12Z</time></trkpt><trkpt lat="43.144180344342416" lon="12.280811263354739"><ele>238.0</ele><time>2026-04-19T07:16:13Z</time></trkpt><trkpt lat="43.14441477148601" lon="12.28109486075487"><ele>238.0</ele><time>2026-04-19T07:16:14Z</time></trkpt><trkpt lat="43.14461921196611" lon="12.281341126927533"><ele>238.0</ele><time>2026-04-19T07:16:15Z</time></trkpt><trkpt lat="43.14481002253929" lon="12.281569816442511"><ele>238.0</ele><time>2026-04-19T07:16:16Z</time></trkpt><trkpt lat="43.144980447541236" lon="12.28178783218201"><ele>238.0</ele><time>2026-04-19T07:16:17Z</time></trkpt><trkpt lat="43.1451101409425" lon="12.282020066000996"><ele>238.0</ele><time>2026-04-19T07:16:18Z</time></trkpt><trkpt lat="43.14520405131698" lon="12.282288251515686"><ele>239.0</ele><time>2026-04-19T07:16:19Z</time></trkpt><trkpt lat="43.145251962679865" lon="12.282596276672418"><ele>240.0</ele><time>2026-04-19T07:16:20Z</time></trkpt><trkpt lat="43.14524444959617" lon="12.282927898832469"><ele>240.5</ele><time>2026-04-19T07:16:21Z</time></trkpt><trkpt lat="43.14517758074488" lon="12.283270363058213"><ele>241.0</ele><time>2026-04-19T07:16:22Z</time></trkpt><trkpt lat="43.145044324511424" lon="12.283624274460392"><ele>240.5</ele><time>2026-04-19T07:16:23Z</time></trkpt><trkpt lat="43.14495112331395" lon="12.283932562258036"><ele>240.0</ele><time>2026-04-19T07:16:24Z</time></trkpt><trkpt lat="43.144895817325185" lon="12.28422183282451"><ele>240.0</ele><time>2026-04-19T07:16:25Z</time></trkpt><trkpt lat="43.14488057136058" lon="12.2845240936881"><ele>240.0</ele><time>2026-04-19T07:16:26Z</time></trkpt><trkpt lat="43.144917112374664" lon="12.284841689354067"><ele>240.5</ele><time>2026-04-19T07:16:27Z</time></trkpt><trkpt lat="43.144999489725826" lon="12.285147705666049"><ele>241.0</ele><time>2026-04-19T07:16:28Z</time></trkpt><trkpt lat="43.14513419761315" lon="12.285416178259073"><ele>242.0</ele><time>2026-04-19T07:16:29Z</time></trkpt><trkpt lat="43.145317396971905" lon="12.285637092825116"><ele>243.0</ele><time>2026-04-19T07:16:30Z</time></trkpt><trkpt lat="43.14552944762888" lon="12.285800834389502"><ele>242.5</ele><time>2026-04-19T07:16:31Z</time></trkpt><trkpt lat="43.14576158961011" lon="12.2858822964661"><ele>242.0</ele><time>2026-04-19T07:16:32Z</time></trkpt><trkpt lat="43.146007450417414" lon="12.285897850052562"><ele>242.0</ele><time>2026-04-19T07:16:33Z</time></trkpt><trkpt lat="43.1462800486357" lon="12.2858652657883"><ele>242.0</ele><time>2026-04-19T07:16:34Z</time></trkpt><trkpt lat="43.14658090298135" lon="12.285820630634163"><ele>243.0</ele><time>2026-04-19T07:16:35Z</time></trkpt><trkpt lat="43.14687149541406" lon="12.285765345664569"><ele>244.0</ele><time>2026-04-19T07:16:36Z</time></trkpt><trkpt lat="43.14715759784188" lon="12.285731420631874"><ele>243.5</ele><time>2026-04-19T07:16:37Z</time></trkpt><trkpt lat="43.14745110027653" lon="12.285750557958382"><ele>243.0</ele><time>2026-04-19T07:16:38Z</time></trkpt><trkpt lat="43.147780983986976" lon="12.285802663491642"><ele>243.0</ele><time>2026-04-19T07:16:39Z</time></trkpt><trkpt lat="43.148147610844646" lon="12.285848807209627"><ele>243.0</ele><time>2026-04-19T07:16:40Z</time></trkpt><trkpt lat="43.148519044212385" lon="12.285901803572113"><ele>243.0</ele><time>2026-04-19T07:16:41Z</time></trkpt><trkpt lat="43.14883987093861" lon="12.285950239691097"><ele>243.0</ele><time>2026-04-19T07:16:42Z</time></trkpt><trkpt lat="43.149138986369586" lon="12.285992540160922"><ele>243.5</ele><time>2026-04-19T07:16:43Z</time></trkpt><trkpt lat="43.14944725975558" lon="12.28602645428588"><ele>244.0</ele><time>2026-04-19T07:16:44Z</time></trkpt><trkpt lat="43.14975984544132" lon="12.286074195231917"><ele>244.0</ele><time>2026-04-19T07:16:45Z</time></trkpt><trkpt lat="43.15006948233655" lon="12.2861410948612"><ele>244.0</ele><time>2026-04-19T07:16:46Z</time></trkpt><trkpt lat="43.15037206683275" lon="12.286257595641136"><ele>244.0</ele><time>2026-04-19T07:16:47Z</time></trkpt><trkpt lat="43.150670808188956" lon="12.286435785765486"><ele>244.0</ele><time>2026-04-19T07:16:48Z</time></trkpt><trkpt lat="43.15094599293844" lon="12.286664806911414"><ele>244.0</ele><time>2026-04-19T07:16:49Z</time></trkpt><trkpt lat="43.15120463947977" lon="12.286949237895282"><ele>244.0</ele><time>2026-04-19T07:16:50Z</time></trkpt><trkpt lat="43.15144517616498" lon="12.287270767112602"><ele>245.5</ele><time>2026-04-19T07:16:51Z</time></trkpt><trkpt lat="43.151656635955476" lon="12.287617462115346"><ele>247.0</ele><time>2026-04-19T07:16:52Z</time></trkpt><trkpt lat="43.15183100082859" lon="12.288002421225215"><ele>246.5</ele><time>2026-04-19T07:16:53Z</time></trkpt><trkpt lat="43.151991073920335" lon="12.288455880547193"><ele>246.0</ele><time>2026-04-19T07:16:54Z</time></trkpt><trkpt lat="43.1521678541134" lon="12.288966883054167"><ele>247.5</ele><time>2026-04-19T07:16:55Z</time></trkpt><trkpt lat="43.15237327500322" lon="12.28950158259809"><ele>249.0</ele><time>2026-04-19T07:16:56Z</time></trkpt><trkpt lat="43.15255487897896" lon="12.290052292055194"><ele>247.0</ele><time>2026-04-19T07:16:57Z</time></trkpt><trkpt lat="43.15274453196613" lon="12.290633070296064"><ele>247.0</ele><time>2026-04-19T07:16:58Z</time></trkpt><trkpt lat="43.152956375490334" lon="12.291238315571391"><ele>247.0</ele><time>2026-04-19T07:16:59Z</time></trkpt><trkpt lat="43.153179891933206" lon="12.291840697261541"><ele>250.0</ele><time>2026-04-19T07:17:00Z</time></trkpt><trkpt lat="43.153383990491754" lon="12.292446629512648"><ele>250.0</ele><time>2026-04-19T07:17:01Z</time></trkpt><trkpt lat="43.15360435638812" lon="12.293074757311793"><ele>247.0</ele><time>2026-04-19T07:17:02Z</time></trkpt><trkpt lat="43.153828061760876" lon="12.293714853140735"><ele>252.0</ele><time>2026-04-19T07:17:03Z</time></trkpt><trkpt lat="43.15405774141483" lon="12.294362229381957"><ele>248.0</ele><time>2026-04-19T07:17:04Z</time></trkpt><trkpt lat="43.154269063988984" lon="12.294965572526712"><ele>248.0</ele><time>2026-04-19T07:17:05Z</time></trkpt><trkpt lat="43.15445580004158" lon="12.295513302829542"><ele>248.0</ele><time>2026-04-19T07:17:06Z</time></trkpt><trkpt lat="43.154627871215766" lon="12.296061033927332"><ele>248.5</ele><time>2026-04-19T07:17:07Z</time></trkpt><trkpt lat="43.154788273358896" lon="12.296620091434255"><ele>249.0</ele><time>2026-04-19T07:17:08Z</time></trkpt><trkpt lat="43.154939870400646" lon="12.297177626615172"><ele>249.5</ele><time>2026-04-19T07:17:09Z</time></trkpt><trkpt lat="43.155077503463815" lon="12.297697573739832"><ele>250.0</ele><time>2026-04-19T07:17:10Z</time></trkpt><trkpt lat="43.15520718778479" lon="12.298191128119303"><ele>250.0</ele><time>2026-04-19T07:17:11Z</time></trkpt><trkpt lat="43.15531644744971" lon="12.298709940044057"><ele>250.0</ele><time>2026-04-19T07:17:12Z</time></trkpt><trkpt lat="43.15540964498503" lon="12.299243182483476"><ele>253.0</ele><time>2026-04-19T07:17:13Z</time></trkpt><trkpt lat="43.15549165465095" lon="12.29980241468111"><ele>256.0</ele><time>2026-04-19T07:17:14Z</time></trkpt><trkpt lat="43.15557383667492" lon="12.300329950099886"><ele>254.5</ele><time>2026-04-19T07:17:15Z</time></trkpt><trkpt lat="43.15565866613287" lon="12.300805667811881"><ele>253.0</ele><time>2026-04-19T07:17:16Z</time></trkpt><trkpt lat="43.15577541452213" lon="12.301279051725173"><ele>256.0</ele><time>2026-04-19T07:17:17Z</time></trkpt><trkpt lat="43.15592164887694" lon="12.301748549730188"><ele>259.0</ele><time>2026-04-19T07:17:18Z</time></trkpt><trkpt lat="43.15609557262257" lon="12.302203735152105"><ele>263.5</ele><time>2026-04-19T07:17:19Z</time></trkpt><trkpt lat="43.15628820666066" lon="12.30264576030251"><ele>268.0</ele><time>2026-04-19T07:17:20Z</time></trkpt><trkpt lat="43.156506521590345" lon="12.303067663856211"><ele>262.5</ele><time>2026-04-19T07:17:21Z</time></trkpt><trkpt lat="43.15674860992313" lon="12.303470136441888"><ele>257.0</ele><time>2026-04-19T07:17:22Z</time></trkpt><trkpt lat="43.15700796766818" lon="12.303853637403327"><ele>256.5</ele><time>2026-04-19T07:17:23Z</time></trkpt><trkpt lat="43.15728564564829" lon="12.304228920264903"><ele>256.0</ele><time>2026-04-19T07:17:24Z</time></trkpt><trkpt lat="43.1575254171503" lon="12.304603389507491"><ele>259.5</ele><time>2026-04-19T07:17:25Z</time></trkpt><trkpt lat="43.157726458044536" lon="12.304976889172849"><ele>263.0</ele><time>2026-04-19T07:17:26Z</time></trkpt><trkpt lat="43.15791949992234" lon="12.3053980349919"><ele>259.0</ele><time>2026-04-19T07:17:27Z</time></trkpt><trkpt lat="43.15810367597962" lon="12.305846300783257"><ele>255.0</ele><time>2026-04-19T07:17:28Z</time></trkpt><trkpt lat="43.15827055220945" lon="12.306252028965925"><ele>256.0</ele><time>2026-04-19T07:17:29Z</time></trkpt><trkpt lat="43.15843162877059" lon="12.306628964597822"><ele>257.0</ele><time>2026-04-19T07:17:29.999Z</time></trkpt><trkpt lat="43.15862223239973" lon="12.306998117625893"><ele>258.5</ele><time>2026-04-19T07:17:30.999Z</time></trkpt><trkpt lat="43.15884475198865" lon="12.307339779960763"><ele>260.0</ele><time>2026-04-19T07:17:31.999Z</time></trkpt><trkpt lat="43.15909598146458" lon="12.307641835811687"><ele>258.5</ele><time>2026-04-19T07:17:32.999Z</time></trkpt><trkpt lat="43.159369406015585" lon="12.307893343064205"><ele>257.0</ele><time>2026-04-19T07:17:33.999Z</time></trkpt><trkpt lat="43.15966693033" lon="12.308101179555035"><ele>256.0</ele><time>2026-04-19T07:17:34.999Z</time></trkpt><trkpt lat="43.1599849196163" lon="12.308274358742812"><ele>255.0</ele><time>2026-04-19T07:17:35.999Z</time></trkpt><trkpt lat="43.160293062876114" lon="12.308495881000297"><ele>255.0</ele><time>2026-04-19T07:17:36.999Z</time></trkpt><trkpt lat="43.16059915092529" lon="12.308743852982964"><ele>255.0</ele><time>2026-04-19T07:17:37.999Z</time></trkpt><trkpt lat="43.16086163356925" lon="12.308977129140926"><ele>257.0</ele><time>2026-04-19T07:17:38.999Z</time></trkpt><trkpt lat="43.16111567931167" lon="12.309213808095084"><ele>259.0</ele><time>2026-04-19T07:17:39.999Z</time></trkpt><trkpt lat="43.161369527954434" lon="12.309449660473028"><ele>259.0</ele><time>2026-04-19T07:17:40.999Z</time></trkpt><trkpt lat="43.161617721572235" lon="12.309690121010064"><ele>259.0</ele><time>2026-04-19T07:17:42.001Z</time></trkpt><trkpt lat="43.16184540137399" lon="12.309919762959908"><ele>260.0</ele><time>2026-04-19T07:17:43.001Z</time></trkpt><trkpt lat="43.16204376521367" lon="12.310121924862477"><ele>261.0</ele><time>2026-04-19T07:17:44.001Z</time></trkpt><trkpt lat="43.16223990087221" lon="12.310315127750323"><ele>261.0</ele><time>2026-04-19T07:17:45.001Z</time></trkpt><trkpt lat="43.16246632433829" lon="12.310530527732045"><ele>261.0</ele><time>2026-04-19T07:17:46.001Z</time></trkpt><trkpt lat="43.1627288901389" lon="12.310761050610973"><ele>263.0</ele><time>2026-04-19T07:17:47.001Z</time></trkpt><trkpt lat="43.16298587602967" lon="12.311043023233388"><ele>265.0</ele><time>2026-04-19T07:17:48.001Z</time></trkpt><trkpt lat="43.16321991123723" lon="12.311334814708374"><ele>264.0</ele><time>2026-04-19T07:17:49.001Z</time></trkpt><trkpt lat="43.16341959365052" lon="12.31163946368807"><ele>263.0</ele><time>2026-04-19T07:17:50.001Z</time></trkpt><trkpt lat="43.163592451386066" lon="12.311994861180679"><ele>262.5</ele><time>2026-04-19T07:17:51.001Z</time></trkpt><trkpt lat="43.16372357931646" lon="12.312353294119413"><ele>262.0</ele><time>2026-04-19T07:17:52.001Z</time></trkpt><trkpt lat="43.16387926195131" lon="12.312663199890975"><ele>262.0</ele><time>2026-04-19T07:17:53.001Z</time></trkpt><trkpt lat="43.164083486846465" lon="12.31293003069508"><ele>262.0</ele><time>2026-04-19T07:17:54.001Z</time></trkpt><trkpt lat="43.16429220659469" lon="12.313197310075383"><ele>263.0</ele><time>2026-04-19T07:17:55.001Z</time></trkpt><trkpt lat="43.16448772823382" lon="12.31345926770521"><ele>264.0</ele><time>2026-04-19T07:17:56.001Z</time></trkpt><trkpt lat="43.164834412038566" lon="12.313458041000443"><ele>263.3333333333333</ele><time>2026-04-19T07:17:57.001Z</time></trkpt><trkpt lat="43.16503313562143" lon="12.313593349183344"><ele>262.66666666666663</ele><time>2026-04-19T07:17:58.001Z</time></trkpt><trkpt lat="43.16521195136751" lon="12.313712334096726"><ele>262.0</ele><time>2026-04-19T07:17:59.001Z</time></trkpt><trkpt lat="43.16535430917583" lon="12.313818333913211"><ele>263.0</ele><time>2026-04-19T07:18:00.001Z</time></trkpt><trkpt lat="43.165502941606995" lon="12.313931674307275"><ele>264.0</ele><time>2026-04-19T07:18:01.001Z</time></trkpt><trkpt lat="43.16568723579243" lon="12.31403323195562"><ele>265.0</ele><time>2026-04-19T07:18:02.001Z</time></trkpt><trkpt lat="43.16594067897021" lon="12.314139866049457"><ele>265.0</ele><time>2026-04-19T07:18:03.001Z</time></trkpt><trkpt lat="43.166245436679354" lon="12.314277332016715"><ele>265.0</ele><time>2026-04-19T07:18:04.001Z</time></trkpt><trkpt lat="43.166548104432636" lon="12.314407450334961"><ele>263.0</ele><time>2026-04-19T07:18:05.001Z</time></trkpt><trkpt lat="43.16680578526003" lon="12.314512615202613"><ele>261.0</ele><time>2026-04-19T07:18:06.001Z</time></trkpt><trkpt lat="43.167039902368224" lon="12.314597627515267"><ele>261.0</ele><time>2026-04-19T07:18:07.001Z</time></trkpt><trkpt lat="43.16725591518551" lon="12.31467731808077"><ele>261.0</ele><time>2026-04-19T07:18:08.001Z</time></trkpt><trkpt lat="43.1674594852445" lon="12.314731969027532"><ele>261.0</ele><time>2026-04-19T07:18:09.001Z</time></trkpt><trkpt lat="43.167649745577144" lon="12.314787403514229"><ele>263.0</ele><time>2026-04-19T07:18:10.001Z</time></trkpt><trkpt lat="43.167856598280295" lon="12.314857289496096"><ele>265.0</ele><time>2026-04-19T07:18:11Z</time></trkpt><trkpt lat="43.16808633036404" lon="12.31494404498468"><ele>264.0</ele><time>2026-04-19T07:18:12Z</time></trkpt><trkpt lat="43.168321138959726" lon="12.315042687876836"><ele>263.0</ele><time>2026-04-19T07:18:13Z</time></trkpt><trkpt lat="43.168564227966385" lon="12.315148318251053"><ele>263.0</ele><time>2026-04-19T07:18:14Z</time></trkpt><trkpt lat="43.16883749056878" lon="12.315292258345622"><ele>263.0</ele><time>2026-04-19T07:18:15Z</time></trkpt><trkpt lat="43.1691405907822" lon="12.315459203812637"><ele>264.0</ele><time>2026-04-19T07:18:16Z</time></trkpt><trkpt lat="43.1694325667805" lon="12.315618995335566"><ele>265.0</ele><time>2026-04-19T07:18:17Z</time></trkpt><trkpt lat="43.16975466036776" lon="12.315727252027248"><ele>266.5</ele><time>2026-04-19T07:18:18Z</time></trkpt><trkpt lat="43.17012790269537" lon="12.315798916091058"><ele>268.0</ele><time>2026-04-19T07:18:19Z</time></trkpt><trkpt lat="43.17045308123611" lon="12.315849933146653"><ele>268.0</ele><time>2026-04-19T07:18:20Z</time></trkpt><trkpt lat="43.17075088173905" lon="12.315905155025305"><ele>268.0</ele><time>2026-04-19T07:18:21Z</time></trkpt><trkpt lat="43.17101620866164" lon="12.315951871883337"><ele>268.0</ele><time>2026-04-19T07:18:22Z</time></trkpt><trkpt lat="43.17122815456914" lon="12.315989921194967"><ele>268.0</ele><time>2026-04-19T07:18:23Z</time></trkpt><trkpt lat="43.17141107692131" lon="12.316037784494572"><ele>268.0</ele><time>2026-04-19T07:18:24Z</time></trkpt><trkpt lat="43.17157520356373" lon="12.316111329369708"><ele>267.3333333333333</ele><time>2026-04-19T07:18:25Z</time></trkpt><trkpt lat="43.17170902322287" lon="12.31621760543603"><ele>266.6666666666667</ele><time>2026-04-19T07:18:26Z</time></trkpt><trkpt lat="43.17181909810526" lon="12.316351234870396"><ele>266.0</ele><time>2026-04-19T07:18:27Z</time></trkpt><trkpt lat="43.17192698382998" lon="12.316521080409942"><ele>267.0</ele><time>2026-04-19T07:18:28Z</time></trkpt><trkpt lat="43.17202423277218" lon="12.31671194676547"><ele>268.0</ele><time>2026-04-19T07:18:29Z</time></trkpt><trkpt lat="43.172106906852875" lon="12.316876644576624"><ele>269.0</ele><time>2026-04-19T07:18:30Z</time></trkpt><trkpt lat="43.17217502030954" lon="12.317006880638091"><ele>270.0</ele><time>2026-04-19T07:18:31Z</time></trkpt><trkpt lat="43.17222369187279" lon="12.317096390542595"><ele>270.0</ele><time>2026-04-19T07:18:32Z</time></trkpt><trkpt lat="43.17222974901535" lon="12.317238158504473"><ele>270.0</ele><time>2026-04-19T07:18:34Z</time></trkpt><trkpt lat="43.17213639086807" lon="12.317254653776162"><ele>270.0</ele><time>2026-04-19T07:18:36Z</time></trkpt><trkpt lat="43.172059894991456" lon="12.317156492031874"><ele>270.0</ele><time>2026-04-19T07:18:37Z</time></trkpt><trkpt lat="43.17197875291048" lon="12.317063666402861"><ele>270.0</ele><time>2026-04-19T07:18:38Z</time></trkpt><trkpt lat="43.17189471617139" lon="12.317032463844237"><ele>270.0</ele><time>2026-04-19T07:18:39Z</time></trkpt><trkpt lat="43.17183105253521" lon="12.317009251125764"><ele>270.0</ele><time>2026-04-19T07:18:40Z</time></trkpt><trkpt lat="43.17174767190857" lon="12.31706844560288"><ele>270.0</ele><time>2026-04-19T07:18:42Z</time></trkpt><trkpt lat="43.17175386435192" lon="12.317154830334513"><ele>270.0</ele><time>2026-04-19T07:19:07Z</time></trkpt><trkpt lat="43.17170184705148" lon="12.317206324637555"><ele>270.0</ele><time>2026-04-19T07:19:23Z</time></trkpt><trkpt lat="43.171757785470746" lon="12.317149447806758"><ele>270.0</ele><time>2026-04-19T07:32:53Z</time></trkpt><trkpt lat="43.17171840048389" lon="12.317255481168639"><ele>270.0</ele><time>2026-04-19T07:34:24.998Z</time></trkpt><trkpt lat="43.17168531550586" lon="12.31734509214479"><ele>269.8333333333333</ele><time>2026-04-19T07:34:28Z</time></trkpt><trkpt lat="43.17171730178915" lon="12.317422098062478"><ele>269.6666666666667</ele><time>2026-04-19T07:34:30Z</time></trkpt><trkpt lat="43.171808078685686" lon="12.317454386692903"><ele>269.5</ele><time>2026-04-19T07:34:32Z</time></trkpt><trkpt lat="43.171870875389935" lon="12.317490879322083"><ele>269.33333333333337</ele><time>2026-04-19T07:34:34Z</time></trkpt><trkpt lat="43.17194698547121" lon="12.317537496293108"><ele>269.1666666666667</ele><time>2026-04-19T07:34:36Z</time></trkpt><trkpt lat="43.17200890152986" lon="12.317593433834695"><ele>269.0</ele><time>2026-04-19T07:34:38Z</time></trkpt><trkpt lat="43.172086222743424" lon="12.317588685249135"><ele>269.0</ele><time>2026-04-19T07:34:40Z</time></trkpt><trkpt lat="43.17214302947694" lon="12.317487049609207"><ele>269.0</ele><time>2026-04-19T07:34:42Z</time></trkpt><trkpt lat="43.17218781897768" lon="12.317372937770381"><ele>269.0</ele><time>2026-04-19T07:34:44Z</time></trkpt><trkpt lat="43.17223684234952" lon="12.317303568636575"><ele>269.0</ele><time>2026-04-19T07:34:47Z</time></trkpt><trkpt lat="43.172264322535376" lon="12.317146224866816"><ele>269.0</ele><time>2026-04-19T07:34:56Z</time></trkpt><trkpt lat="43.1722282291464" lon="12.317052354133898"><ele>269.1666666666667</ele><time>2026-04-19T07:34:57Z</time></trkpt><trkpt lat="43.17217797920081" lon="12.316949366546227"><ele>269.33333333333337</ele><time>2026-04-19T07:34:58Z</time></trkpt><trkpt lat="43.17212699415782" lon="12.316856469914615"><ele>269.5</ele><time>2026-04-19T07:34:59Z</time></trkpt><trkpt lat="43.172076977594465" lon="12.316765064483755"><ele>269.6666666666667</ele><time>2026-04-19T07:35:00Z</time></trkpt><trkpt lat="43.17202810764832" lon="12.316669774620607"><ele>269.8333333333333</ele><time>2026-04-19T07:35:01Z</time></trkpt><trkpt lat="43.17197831007611" lon="12.316570584835508"><ele>270.0</ele><time>2026-04-19T07:35:02Z</time></trkpt><trkpt lat="43.171926101341946" lon="12.316468534298133"><ele>269.2</ele><time>2026-04-19T07:35:03Z</time></trkpt><trkpt lat="43.17186855970499" lon="12.316356589004432"><ele>268.4</ele><time>2026-04-19T07:35:04Z</time></trkpt><trkpt lat="43.17179875100162" lon="12.316245939053168"><ele>267.6</ele><time>2026-04-19T07:35:05Z</time></trkpt><trkpt lat="43.17174196457888" lon="12.316144118026793"><ele>266.8</ele><time>2026-04-19T07:35:06Z</time></trkpt><trkpt lat="43.17170959443943" lon="12.31601031878128"><ele>266.0</ele><time>2026-04-19T07:35:07Z</time></trkpt><trkpt lat="43.1717138506651" lon="12.315859029952822"><ele>266.0</ele><time>2026-04-19T07:35:08Z</time></trkpt><trkpt lat="43.17175102974456" lon="12.315708614486214"><ele>266.0</ele><time>2026-04-19T07:35:09Z</time></trkpt><trkpt lat="43.17183674575582" lon="12.315573342820818"><ele>266.0</ele><time>2026-04-19T07:35:10Z</time></trkpt><trkpt lat="43.171966416587196" lon="12.315463136597732"><ele>266.0</ele><time>2026-04-19T07:35:11Z</time></trkpt><trkpt lat="43.17212235931361" lon="12.315359192817791"><ele>265.6666666666667</ele><time>2026-04-19T07:35:12Z</time></trkpt><trkpt lat="43.172330801664636" lon="12.315312604785086"><ele>265.3333333333333</ele><time>2026-04-19T07:35:13Z</time></trkpt><trkpt lat="43.172558177235025" lon="12.31523647218211"><ele>265.0</ele><time>2026-04-19T07:35:14Z</time></trkpt><trkpt lat="43.172812638547605" lon="12.31520523163781"><ele>265.0</ele><time>2026-04-19T07:35:14.999Z</time></trkpt><trkpt lat="43.17308780486182" lon="12.315238663941727"><ele>265.0</ele><time>2026-04-19T07:35:15.999Z</time></trkpt><trkpt lat="43.17335948558684" lon="12.31529517103242"><ele>265.5</ele><time>2026-04-19T07:35:16.999Z</time></trkpt><trkpt lat="43.173631114048725" lon="12.315359251791456"><ele>266.0</ele><time>2026-04-19T07:35:17.999Z</time></trkpt><trkpt lat="43.17386551255252" lon="12.315411056772593"><ele>266.33333333333337</ele><time>2026-04-19T07:35:18.999Z</time></trkpt><trkpt lat="43.17408057259946" lon="12.315470641179447"><ele>266.6666666666667</ele><time>2026-04-19T07:35:19.999Z</time></trkpt><trkpt lat="43.174294892740875" lon="12.315521269967098"><ele>267.0</ele><time>2026-04-19T07:35:20.999Z</time></trkpt><trkpt lat="43.174509903334844" lon="12.315613446055949"><ele>266.5</ele><time>2026-04-19T07:35:21.999Z</time></trkpt><trkpt lat="43.174738448278816" lon="12.315686467243717"><ele>266.0</ele><time>2026-04-19T07:35:22.999Z</time></trkpt><trkpt lat="43.17496158284789" lon="12.31571593926571"><ele>266.0</ele><time>2026-04-19T07:35:23.999Z</time></trkpt><trkpt lat="43.175200166711846" lon="12.31577282257778"><ele>266.0</ele><time>2026-04-19T07:35:24.999Z</time></trkpt><trkpt lat="43.17544544253846" lon="12.31582665285425"><ele>266.5</ele><time>2026-04-19T07:35:25.999Z</time></trkpt><trkpt lat="43.17568993593909" lon="12.315894361704297"><ele>267.0</ele><time>2026-04-19T07:35:26.999Z</time></trkpt><trkpt lat="43.175939953648225" lon="12.315962454348"><ele>267.0</ele><time>2026-04-19T07:35:27.999Z</time></trkpt><trkpt lat="43.17618593012249" lon="12.316033105777315"><ele>267.0</ele><time>2026-04-19T07:35:28.999Z</time></trkpt><trkpt lat="43.17644712495001" lon="12.316103149500718"><ele>268.0</ele><time>2026-04-19T07:35:29.999Z</time></trkpt><trkpt lat="43.176687596284644" lon="12.316161381875382"><ele>269.0</ele><time>2026-04-19T07:35:30.999Z</time></trkpt><trkpt lat="43.176920494916565" lon="12.31623650412476"><ele>269.0</ele><time>2026-04-19T07:35:31.999Z</time></trkpt><trkpt lat="43.17713802008149" lon="12.316294596535865"><ele>269.0</ele><time>2026-04-19T07:35:32.999Z</time></trkpt><trkpt lat="43.177376496320136" lon="12.316354081488962"><ele>268.5</ele><time>2026-04-19T07:35:33.999Z</time></trkpt><trkpt lat="43.177599962481295" lon="12.316409468979101"><ele>268.0</ele><time>2026-04-19T07:35:34.999Z</time></trkpt><trkpt lat="43.1778335443778" lon="12.316479329764148"><ele>268.0</ele><time>2026-04-19T07:35:35.999Z</time></trkpt><trkpt lat="43.1780701088333" lon="12.316553804724936"><ele>268.0</ele><time>2026-04-19T07:35:36.999Z</time></trkpt><trkpt lat="43.178285342825056" lon="12.316595646958003"><ele>268.5</ele><time>2026-04-19T07:35:37.999Z</time></trkpt><trkpt lat="43.178502713573614" lon="12.31663806109522"><ele>269.0</ele><time>2026-04-19T07:35:38.999Z</time></trkpt><trkpt lat="43.178748378687835" lon="12.316713183949384"><ele>269.0</ele><time>2026-04-19T07:35:39.999Z</time></trkpt><trkpt lat="43.17901059174081" lon="12.3167860186587"><ele>269.0</ele><time>2026-04-19T07:35:40.999Z</time></trkpt><trkpt lat="43.17928608708797" lon="12.316861083677875"><ele>270.0</ele><time>2026-04-19T07:35:41.999Z</time></trkpt><trkpt lat="43.17958047823535" lon="12.31693286419619"><ele>271.0</ele><time>2026-04-19T07:35:42.999Z</time></trkpt><trkpt lat="43.17989018990236" lon="12.316956551193027"><ele>274.5</ele><time>2026-04-19T07:35:43.999Z</time></trkpt><trkpt lat="43.1802182757325" lon="12.31691708403219"><ele>278.0</ele><time>2026-04-19T07:35:44.999Z</time></trkpt><trkpt lat="43.180570519697355" lon="12.316863190590128"><ele>282.0</ele><time>2026-04-19T07:35:45.999Z</time></trkpt><trkpt lat="43.18092110839293" lon="12.316890793884681"><ele>286.0</ele><time>2026-04-19T07:35:46.999Z</time></trkpt><trkpt lat="43.18126493340468" lon="12.316914924104315"><ele>284.0</ele><time>2026-04-19T07:35:47.999Z</time></trkpt><trkpt lat="43.18157784247913" lon="12.316965068639163"><ele>282.0</ele><time>2026-04-19T07:35:48.999Z</time></trkpt><trkpt lat="43.18185824362446" lon="12.31700090340122"><ele>282.0</ele><time>2026-04-19T07:35:49.999Z</time></trkpt><trkpt lat="43.182140073375614" lon="12.317038640961599"><ele>282.0</ele><time>2026-04-19T07:35:50.999Z</time></trkpt><trkpt lat="43.18242062540465" lon="12.317061440543434"><ele>282.0</ele><time>2026-04-19T07:35:51.999Z</time></trkpt><trkpt lat="43.18270387393756" lon="12.317019706810921"><ele>282.0</ele><time>2026-04-19T07:35:52.999Z</time></trkpt><trkpt lat="43.182991098602265" lon="12.316896456741317"><ele>281.0</ele><time>2026-04-19T07:35:53.999Z</time></trkpt><trkpt lat="43.183282357370466" lon="12.31671262496744"><ele>280.0</ele><time>2026-04-19T07:35:54.999Z</time></trkpt><trkpt lat="43.18358972902422" lon="12.316518608376875"><ele>286.0</ele><time>2026-04-19T07:35:55.999Z</time></trkpt><trkpt lat="43.183899877300185" lon="12.316402357048004"><ele>292.0</ele><time>2026-04-19T07:35:56.999Z</time></trkpt><trkpt lat="43.1842133034072" lon="12.31635320807361"><ele>292.5</ele><time>2026-04-19T07:35:57.999Z</time></trkpt><trkpt lat="43.18453091824512" lon="12.316358812436171"><ele>293.0</ele><time>2026-04-19T07:35:58.999Z</time></trkpt><trkpt lat="43.18484725627225" lon="12.316410977781404"><ele>288.0</ele><time>2026-04-19T07:35:59.999Z</time></trkpt><trkpt lat="43.18518888104084" lon="12.316536257614942"><ele>283.0</ele><time>2026-04-19T07:36:00.999Z</time></trkpt><trkpt lat="43.18553882615969" lon="12.316680550457892"><ele>282.0</ele><time>2026-04-19T07:36:01.999Z</time></trkpt><trkpt lat="43.185873804793154" lon="12.316800082606253"><ele>281.0</ele><time>2026-04-19T07:36:02.999Z</time></trkpt><trkpt lat="43.1862086189754" lon="12.316913403334189"><ele>281.5</ele><time>2026-04-19T07:36:03.999Z</time></trkpt><trkpt lat="43.18653737353214" lon="12.317032953192053"><ele>282.0</ele><time>2026-04-19T07:36:04.999Z</time></trkpt><trkpt lat="43.18686675377489" lon="12.317151049955807"><ele>281.5</ele><time>2026-04-19T07:36:05.999Z</time></trkpt><trkpt lat="43.187193420786286" lon="12.317269119362301"><ele>281.0</ele><time>2026-04-19T07:36:06.999Z</time></trkpt><trkpt lat="43.18751869067202" lon="12.317390323704831"><ele>281.5</ele><time>2026-04-19T07:36:07.999Z</time></trkpt><trkpt lat="43.18784829617719" lon="12.317533074142823"><ele>282.0</ele><time>2026-04-19T07:36:08.999Z</time></trkpt><trkpt lat="43.188177962237226" lon="12.317694901820754"><ele>282.0</ele><time>2026-04-19T07:36:09.999Z</time></trkpt><trkpt lat="43.18849419581215" lon="12.317857337313635"><ele>282.0</ele><time>2026-04-19T07:36:10.999Z</time></trkpt><trkpt lat="43.188788036828484" lon="12.318012586828155"><ele>283.5</ele><time>2026-04-19T07:36:11.999Z</time></trkpt><trkpt lat="43.18908364237894" lon="12.31816775568004"><ele>285.0</ele><time>2026-04-19T07:36:12.999Z</time></trkpt><trkpt lat="43.18938105008058" lon="12.318325045870168"><ele>285.0</ele><time>2026-04-19T07:36:13.999Z</time></trkpt><trkpt lat="43.18968214928757" lon="12.31848388404866"><ele>285.0</ele><time>2026-04-19T07:36:14.999Z</time></trkpt><trkpt lat="43.189990888024795" lon="12.318643726563398"><ele>285.0</ele><time>2026-04-19T07:36:15.999Z</time></trkpt><trkpt lat="43.19030511895177" lon="12.318811030843069"><ele>285.0</ele><time>2026-04-19T07:36:16.999Z</time></trkpt><trkpt lat="43.190610546843374" lon="12.318975350901475"><ele>286.5</ele><time>2026-04-19T07:36:17.999Z</time></trkpt><trkpt lat="43.190911893258054" lon="12.319133004719058"><ele>288.0</ele><time>2026-04-19T07:36:18.998Z</time></trkpt><trkpt lat="43.1912115053099" lon="12.319284895411311"><ele>287.0</ele><time>2026-04-19T07:36:19.998Z</time></trkpt><trkpt lat="43.191507676271485" lon="12.319443065141733"><ele>286.0</ele><time>2026-04-19T07:36:20.998Z</time></trkpt><trkpt lat="43.1918026980997" lon="12.31960018068516"><ele>287.0</ele><time>2026-04-19T07:36:21.998Z</time></trkpt><trkpt lat="43.192083620876396" lon="12.319749897611299"><ele>288.0</ele><time>2026-04-19T07:36:22.998Z</time></trkpt><trkpt lat="43.1923496889676" lon="12.319893596982645"><ele>288.5</ele><time>2026-04-19T07:36:23.998Z</time></trkpt><trkpt lat="43.192606957595856" lon="12.320033967619635"><ele>289.0</ele><time>2026-04-19T07:36:24.998Z</time></trkpt><trkpt lat="43.19285573006816" lon="12.320166315818328"><ele>289.0</ele><time>2026-04-19T07:36:25.998Z</time></trkpt><trkpt lat="43.193096461225444" lon="12.320281213351498"><ele>289.0</ele><time>2026-04-19T07:36:26.998Z</time></trkpt><trkpt lat="43.19335073782684" lon="12.320365917497224"><ele>291.0</ele><time>2026-04-19T07:36:27.998Z</time></trkpt><trkpt lat="43.193639269126145" lon="12.320429646302054"><ele>293.0</ele><time>2026-04-19T07:36:28.998Z</time></trkpt><trkpt lat="43.19389291892576" lon="12.320464936956256"><ele>293.0</ele><time>2026-04-19T07:36:29.998Z</time></trkpt><trkpt lat="43.194152797376205" lon="12.320460828634138"><ele>293.0</ele><time>2026-04-19T07:36:30.998Z</time></trkpt><trkpt lat="43.194396808908195" lon="12.320430387098467"><ele>293.0</ele><time>2026-04-19T07:36:31.998Z</time></trkpt><trkpt lat="43.19462526934048" lon="12.32041510599661"><ele>293.0</ele><time>2026-04-19T07:36:32.998Z</time></trkpt><trkpt lat="43.194860168916755" lon="12.320389535811982"><ele>294.0</ele><time>2026-04-19T07:36:34Z</time></trkpt><trkpt lat="43.195090061782686" lon="12.320378180282825"><ele>295.0</ele><time>2026-04-19T07:36:35Z</time></trkpt><trkpt lat="43.19532739804294" lon="12.320373903190513"><ele>295.0</ele><time>2026-04-19T07:36:36Z</time></trkpt><trkpt lat="43.19559697380888" lon="12.320349960692424"><ele>295.0</ele><time>2026-04-19T07:36:37Z</time></trkpt><trkpt lat="43.19589058144806" lon="12.32037660941573"><ele>295.0</ele><time>2026-04-19T07:36:38Z</time></trkpt><trkpt lat="43.19616100450119" lon="12.32043472754413"><ele>295.0</ele><time>2026-04-19T07:36:39Z</time></trkpt><trkpt lat="43.19643061408158" lon="12.320457352198986"><ele>296.0</ele><time>2026-04-19T07:36:40Z</time></trkpt><trkpt lat="43.19671321691986" lon="12.320386929974033"><ele>297.0</ele><time>2026-04-19T07:36:41Z</time></trkpt><trkpt lat="43.197006893315134" lon="12.320248167634626"><ele>297.0</ele><time>2026-04-19T07:36:42Z</time></trkpt><trkpt lat="43.197308480801645" lon="12.320051901022275"><ele>297.0</ele><time>2026-04-19T07:36:43Z</time></trkpt><trkpt lat="43.19764122606481" lon="12.319855126153923"><ele>297.0</ele><time>2026-04-19T07:36:44Z</time></trkpt><trkpt lat="43.19799322395456" lon="12.319684203692832"><ele>297.0</ele><time>2026-04-19T07:36:45Z</time></trkpt><trkpt lat="43.19837152821134" lon="12.319551907822374"><ele>298.5</ele><time>2026-04-19T07:36:46Z</time></trkpt><trkpt lat="43.19877356078228" lon="12.319419789280882"><ele>300.0</ele><time>2026-04-19T07:36:47Z</time></trkpt><trkpt lat="43.19916185053598" lon="12.319271297324342"><ele>303.0</ele><time>2026-04-19T07:36:48Z</time></trkpt><trkpt lat="43.1995133411515" lon="12.319149788285655"><ele>306.0</ele><time>2026-04-19T07:36:49Z</time></trkpt><trkpt lat="43.19982850725247" lon="12.31903208189765"><ele>307.5</ele><time>2026-04-19T07:36:50Z</time></trkpt><trkpt lat="43.200151996919246" lon="12.318928310862761"><ele>309.0</ele><time>2026-04-19T07:36:51Z</time></trkpt><trkpt lat="43.200459081162" lon="12.318819263064775"><ele>306.5</ele><time>2026-04-19T07:36:52Z</time></trkpt><trkpt lat="43.20076516081097" lon="12.318710012482311"><ele>304.0</ele><time>2026-04-19T07:36:53Z</time></trkpt><trkpt lat="43.20107462654876" lon="12.318600559058073"><ele>304.0</ele><time>2026-04-19T07:36:54Z</time></trkpt><trkpt lat="43.20139354054296" lon="12.318479706762576"><ele>304.0</ele><time>2026-04-19T07:36:55Z</time></trkpt><trkpt lat="43.2017256127909" lon="12.318346570400227"><ele>306.5</ele><time>2026-04-19T07:36:56Z</time></trkpt><trkpt lat="43.20206638199414" lon="12.31819688610765"><ele>309.0</ele><time>2026-04-19T07:36:57Z</time></trkpt><trkpt lat="43.20241858619423" lon="12.318031501378229"><ele>309.0</ele><time>2026-04-19T07:36:58Z</time></trkpt><trkpt lat="43.202780592375326" lon="12.317859850956944"><ele>309.0</ele><time>2026-04-19T07:36:59Z</time></trkpt><trkpt lat="43.203126573091716" lon="12.31769568023995"><ele>313.5</ele><time>2026-04-19T07:37:00Z</time></trkpt><trkpt lat="43.20342215328782" lon="12.317553979849936"><ele>318.0</ele><time>2026-04-19T07:37:01Z</time></trkpt><trkpt lat="43.203697868800326" lon="12.317423659293178"><ele>318.0</ele><time>2026-04-19T07:37:02Z</time></trkpt><trkpt lat="43.20396140111003" lon="12.317310284448883"><ele>318.0</ele><time>2026-04-19T07:37:03Z</time></trkpt><trkpt lat="43.20420872040445" lon="12.31721902633283"><ele>315.5</ele><time>2026-04-19T07:37:04Z</time></trkpt><trkpt lat="43.20444065072338" lon="12.317160468240091"><ele>313.0</ele><time>2026-04-19T07:37:05Z</time></trkpt><trkpt lat="43.20467362171407" lon="12.317130700696618"><ele>314.0</ele><time>2026-04-19T07:37:06Z</time></trkpt><trkpt lat="43.204903268579066" lon="12.31711479251396"><ele>315.0</ele><time>2026-04-19T07:37:07Z</time></trkpt><trkpt lat="43.20514836830189" lon="12.317126492206052"><ele>315.0</ele><time>2026-04-19T07:37:08Z</time></trkpt><trkpt lat="43.20539926936818" lon="12.31716160369253"><ele>315.0</ele><time>2026-04-19T07:37:09Z</time></trkpt><trkpt lat="43.20564112274081" lon="12.317201898040125"><ele>322.5</ele><time>2026-04-19T07:37:10Z</time></trkpt><trkpt lat="43.205867106933745" lon="12.317249990056418"><ele>330.0</ele><time>2026-04-19T07:37:11Z</time></trkpt><trkpt lat="43.206093825831786" lon="12.317338838852107"><ele>330.0</ele><time>2026-04-19T07:37:12Z</time></trkpt><trkpt lat="43.20632453353525" lon="12.31747735493229"><ele>330.0</ele><time>2026-04-19T07:37:13Z</time></trkpt><trkpt lat="43.20656554121306" lon="12.317668108872633"><ele>326.0</ele><time>2026-04-19T07:37:14Z</time></trkpt><trkpt lat="43.206776931466756" lon="12.317863161762073"><ele>322.0</ele><time>2026-04-19T07:37:15Z</time></trkpt><trkpt lat="43.20699515448554" lon="12.317986685436844"><ele>322.0</ele><time>2026-04-19T07:37:16Z</time></trkpt><trkpt lat="43.20725132617143" lon="12.318040403827466"><ele>322.0</ele><time>2026-04-19T07:37:17Z</time></trkpt><trkpt lat="43.20752933216335" lon="12.318027829344787"><ele>323.0</ele><time>2026-04-19T07:37:18Z</time></trkpt><trkpt lat="43.20780551466525" lon="12.317953275011604"><ele>324.0</ele><time>2026-04-19T07:37:18.999Z</time></trkpt><trkpt lat="43.208097444158966" lon="12.317834803667706"><ele>327.5</ele><time>2026-04-19T07:37:19.999Z</time></trkpt><trkpt lat="43.20838222560741" lon="12.317765892782838"><ele>331.0</ele><time>2026-04-19T07:37:20.999Z</time></trkpt><trkpt lat="43.20864250303067" lon="12.317741547173052"><ele>331.0</ele><time>2026-04-19T07:37:21.999Z</time></trkpt><trkpt lat="43.2089024603931" lon="12.317771603069293"><ele>331.0</ele><time>2026-04-19T07:37:22.999Z</time></trkpt><trkpt lat="43.209160295563535" lon="12.317852256622963"><ele>331.0</ele><time>2026-04-19T07:37:23.999Z</time></trkpt><trkpt lat="43.20942137266703" lon="12.317978448568047"><ele>331.0</ele><time>2026-04-19T07:37:24.999Z</time></trkpt><trkpt lat="43.20969080354113" lon="12.31812389112534"><ele>336.5</ele><time>2026-04-19T07:37:25.999Z</time></trkpt><trkpt lat="43.20994015000414" lon="12.318268559549367"><ele>342.0</ele><time>2026-04-19T07:37:26.999Z</time></trkpt><trkpt lat="43.21018987408062" lon="12.318458725401776"><ele>342.0</ele><time>2026-04-19T07:37:27.999Z</time></trkpt><trkpt lat="43.21043253661768" lon="12.318699200851048"><ele>342.0</ele><time>2026-04-19T07:37:28.999Z</time></trkpt><trkpt lat="43.210656254940936" lon="12.31898068624337"><ele>342.0</ele><time>2026-04-19T07:37:29.999Z</time></trkpt><trkpt lat="43.21085060439282" lon="12.319278905153052"><ele>342.0</ele><time>2026-04-19T07:37:30.999Z</time></trkpt><trkpt lat="43.21102895929491" lon="12.31955893604767"><ele>341.5</ele><time>2026-04-19T07:37:31.999Z</time></trkpt><trkpt lat="43.21125112587346" lon="12.319838782100744"><ele>341.0</ele><time>2026-04-19T07:37:32.999Z</time></trkpt><trkpt lat="43.21151667371381" lon="12.32010480063265"><ele>341.0</ele><time>2026-04-19T07:37:33.999Z</time></trkpt><trkpt lat="43.21181263742388" lon="12.320360029646764"><ele>341.0</ele><time>2026-04-19T07:37:34.999Z</time></trkpt><trkpt lat="43.21209138816399" lon="12.320606141390094"><ele>344.0</ele><time>2026-04-19T07:37:35.999Z</time></trkpt><trkpt lat="43.212335021687174" lon="12.320838073138942"><ele>347.0</ele><time>2026-04-19T07:37:36.999Z</time></trkpt><trkpt lat="43.21258323469745" lon="12.32110753644442"><ele>353.5</ele><time>2026-04-19T07:37:37.999Z</time></trkpt><trkpt lat="43.21281385215117" lon="12.32140408439681"><ele>360.0</ele><time>2026-04-19T07:37:38.999Z</time></trkpt><trkpt lat="43.21300959733957" lon="12.321688016689729"><ele>354.5</ele><time>2026-04-19T07:37:39.999Z</time></trkpt><trkpt lat="43.21318256371903" lon="12.321940296446146"><ele>349.0</ele><time>2026-04-19T07:37:40.999Z</time></trkpt><trkpt lat="43.21334738305278" lon="12.322158152343848"><ele>356.5</ele><time>2026-04-19T07:37:41.999Z</time></trkpt><trkpt lat="43.21352737462354" lon="12.32233620268677"><ele>364.0</ele><time>2026-04-19T07:37:42.999Z</time></trkpt><trkpt lat="43.21374677987538" lon="12.322457071336448"><ele>360.5</ele><time>2026-04-19T07:37:43.999Z</time></trkpt><trkpt lat="43.21398892353241" lon="12.322519706762078"><ele>357.0</ele><time>2026-04-19T07:37:44.999Z</time></trkpt><trkpt lat="43.214223701365356" lon="12.322512211468018"><ele>357.0</ele><time>2026-04-19T07:37:45.999Z</time></trkpt><trkpt lat="43.21442510418211" lon="12.32250952248376"><ele>357.0</ele><time>2026-04-19T07:37:46.999Z</time></trkpt><trkpt lat="43.21459623478963" lon="12.322518657198565"><ele>357.0</ele><time>2026-04-19T07:37:47.999Z</time></trkpt><trkpt lat="43.214752231010124" lon="12.322538988486185"><ele>357.25</ele><time>2026-04-19T07:37:48.999Z</time></trkpt><trkpt lat="43.21489491002844" lon="12.322575888483806"><ele>357.5</ele><time>2026-04-19T07:37:49.999Z</time></trkpt><trkpt lat="43.21501853322922" lon="12.322616609073144"><ele>357.75</ele><time>2026-04-19T07:37:50.999Z</time></trkpt><trkpt lat="43.215125071342406" lon="12.322650114343794"><ele>358.0</ele><time>2026-04-19T07:37:51.999Z</time></trkpt><trkpt lat="43.21522291473379" lon="12.322667412563526"><ele>358.0</ele><time>2026-04-19T07:37:52.999Z</time></trkpt><trkpt lat="43.215306669025736" lon="12.322677486536094"><ele>358.0</ele><time>2026-04-19T07:37:53.999Z</time></trkpt><trkpt lat="43.21537949122621" lon="12.322679875632781"><ele>358.0</ele><time>2026-04-19T07:37:54.999Z</time></trkpt><trkpt lat="43.215485500579106" lon="12.32267765126428"><ele>358.0</ele><time>2026-04-19T07:37:56.999Z</time></trkpt><trkpt lat="43.21557348944508" lon="12.322655144725175"><ele>358.0</ele><time>2026-04-19T07:37:58.999Z</time></trkpt><trkpt lat="43.21577257631724" lon="12.322649629107833"><ele>358.2</ele><time>2026-04-19T07:39:50.999Z</time></trkpt><trkpt lat="43.21585234642736" lon="12.322666492643828"><ele>358.4</ele><time>2026-04-19T07:39:51.999Z</time></trkpt><trkpt lat="43.21594537577106" lon="12.32271730946629"><ele>358.59999999999997</ele><time>2026-04-19T07:39:52.999Z</time></trkpt><trkpt lat="43.21604556121999" lon="12.322804244493488"><ele>358.79999999999995</ele><time>2026-04-19T07:39:53.999Z</time></trkpt><trkpt lat="43.21612369123243" lon="12.322915446712848"><ele>359.0</ele><time>2026-04-19T07:39:54.999Z</time></trkpt><trkpt lat="43.21619806923186" lon="12.323042915081958"><ele>361.0</ele><time>2026-04-19T07:39:55.999Z</time></trkpt><trkpt lat="43.21627978655921" lon="12.323184103796041"><ele>363.0</ele><time>2026-04-19T07:39:56.999Z</time></trkpt><trkpt lat="43.216367413196046" lon="12.323327625502682"><ele>365.0</ele><time>2026-04-19T07:39:57.999Z</time></trkpt><trkpt lat="43.2164588932348" lon="12.323456814548706"><ele>367.0</ele><time>2026-04-19T07:39:58.999Z</time></trkpt><trkpt lat="43.216563158397605" lon="12.32357122969795"><ele>367.0</ele><time>2026-04-19T07:39:59.999Z</time></trkpt><trkpt lat="43.21667419379718" lon="12.323660565122282"><ele>367.0</ele><time>2026-04-19T07:40:00.999Z</time></trkpt><trkpt lat="43.21679993990261" lon="12.323736099060502"><ele>367.0</ele><time>2026-04-19T07:40:01.999Z</time></trkpt><trkpt lat="43.21695544761175" lon="12.32379047755449"><ele>367.0</ele><time>2026-04-19T07:40:02.999Z</time></trkpt><trkpt lat="43.21713597229724" lon="12.323824921235195"><ele>368.5</ele><time>2026-04-19T07:40:03.999Z</time></trkpt><trkpt lat="43.21736047416402" lon="12.32385618118891"><ele>370.0</ele><time>2026-04-19T07:40:04.999Z</time></trkpt><trkpt lat="43.21761377214186" lon="12.323920712149677"><ele>371.5</ele><time>2026-04-19T07:40:05.999Z</time></trkpt><trkpt lat="43.21787233068359" lon="12.324021580736462"><ele>373.0</ele><time>2026-04-19T07:40:06.999Z</time></trkpt><trkpt lat="43.21817230314594" lon="12.324103316451412"><ele>373.0</ele><time>2026-04-19T07:40:07.999Z</time></trkpt><trkpt lat="43.21843514904698" lon="12.324221858332574"><ele>373.0</ele><time>2026-04-19T07:40:08.999Z</time></trkpt><trkpt lat="43.21870799828551" lon="12.324379794836002"><ele>374.5</ele><time>2026-04-19T07:40:09.999Z</time></trkpt><trkpt lat="43.21899029960878" lon="12.324560406283489"><ele>376.0</ele><time>2026-04-19T07:40:10.999Z</time></trkpt><trkpt lat="43.21927957412468" lon="12.324750103264684"><ele>377.0</ele><time>2026-04-19T07:40:11.999Z</time></trkpt><trkpt lat="43.219555157813026" lon="12.32492750021266"><ele>378.0</ele><time>2026-04-19T07:40:12.999Z</time></trkpt><trkpt lat="43.21982973613204" lon="12.325099538044157"><ele>376.0</ele><time>2026-04-19T07:40:13.999Z</time></trkpt><trkpt lat="43.220103512372766" lon="12.3252734234806"><ele>374.0</ele><time>2026-04-19T07:40:14.999Z</time></trkpt><trkpt lat="43.22038319075162" lon="12.325447156660884"><ele>374.5</ele><time>2026-04-19T07:40:15.999Z</time></trkpt><trkpt lat="43.22065652057545" lon="12.325617832629945"><ele>375.0</ele><time>2026-04-19T07:40:16.999Z</time></trkpt><trkpt lat="43.220903911884996" lon="12.3257713075485"><ele>375.0</ele><time>2026-04-19T07:40:17.999Z</time></trkpt><trkpt lat="43.22115325525333" lon="12.32592667316349"><ele>375.0</ele><time>2026-04-19T07:40:18.999Z</time></trkpt><trkpt lat="43.22139654643513" lon="12.326090359825482"><ele>376.5</ele><time>2026-04-19T07:40:19.999Z</time></trkpt><trkpt lat="43.22162452160259" lon="12.326279036242944"><ele>378.0</ele><time>2026-04-19T07:40:20.999Z</time></trkpt><trkpt lat="43.221836750507215" lon="12.32651551697874"><ele>378.0</ele><time>2026-04-19T07:40:21.999Z</time></trkpt><trkpt lat="43.22203575547933" lon="12.326796891821001"><ele>378.0</ele><time>2026-04-19T07:40:22.999Z</time></trkpt><trkpt lat="43.222211758366136" lon="12.32710324860028"><ele>376.5</ele><time>2026-04-19T07:40:23.999Z</time></trkpt><trkpt lat="43.22237053794666" lon="12.327453452697437"><ele>375.0</ele><time>2026-04-19T07:40:24.999Z</time></trkpt><trkpt lat="43.22252963967158" lon="12.327826396262312"><ele>378.5</ele><time>2026-04-19T07:40:25.999Z</time></trkpt><trkpt lat="43.222703384569776" lon="12.328209945560426"><ele>382.0</ele><time>2026-04-19T07:40:26.999Z</time></trkpt><trkpt lat="43.222882547572596" lon="12.328605023049723"><ele>380.0</ele><time>2026-04-19T07:40:27.998Z</time></trkpt><trkpt lat="43.22306327060398" lon="12.329003414447852"><ele>378.0</ele><time>2026-04-19T07:40:28.998Z</time></trkpt><trkpt lat="43.22324240305866" lon="12.329393696760416"><ele>377.5</ele><time>2026-04-19T07:40:29.998Z</time></trkpt><trkpt lat="43.22341823685745" lon="12.3297757904967"><ele>377.0</ele><time>2026-04-19T07:40:30.998Z</time></trkpt><trkpt lat="43.22357823088758" lon="12.330124269624648"><ele>377.0</ele><time>2026-04-19T07:40:31.998Z</time></trkpt><trkpt lat="43.223731218929004" lon="12.330476583165511"><ele>377.0</ele><time>2026-04-19T07:40:32.998Z</time></trkpt><trkpt lat="43.223870536855486" lon="12.330834593925015"><ele>380.5</ele><time>2026-04-19T07:40:33.998Z</time></trkpt><trkpt lat="43.22401292074185" lon="12.331199663059497"><ele>384.0</ele><time>2026-04-19T07:40:34.998Z</time></trkpt><trkpt lat="43.22414509278713" lon="12.33157338616302"><ele>384.0</ele><time>2026-04-19T07:40:35.998Z</time></trkpt><trkpt lat="43.224257411284846" lon="12.331974673764632"><ele>384.0</ele><time>2026-04-19T07:40:36.998Z</time></trkpt><trkpt lat="43.22436568732119" lon="12.332381057734143"><ele>384.0</ele><time>2026-04-19T07:40:37.998Z</time></trkpt><trkpt lat="43.22446770094046" lon="12.332794727411104"><ele>384.0</ele><time>2026-04-19T07:40:38.998Z</time></trkpt><trkpt lat="43.22456860560493" lon="12.333223351559532"><ele>385.0</ele><time>2026-04-19T07:40:39.998Z</time></trkpt><trkpt lat="43.22466740332071" lon="12.33366931437884"><ele>386.0</ele><time>2026-04-19T07:40:40.998Z</time></trkpt><trkpt lat="43.22476797645837" lon="12.334133163426422"><ele>388.0</ele><time>2026-04-19T07:40:41.998Z</time></trkpt><trkpt lat="43.224863053347946" lon="12.334572707337099"><ele>390.0</ele><time>2026-04-19T07:40:42.998Z</time></trkpt><trkpt lat="43.22495067624729" lon="12.33497429493901"><ele>385.0</ele><time>2026-04-19T07:40:43.998Z</time></trkpt><trkpt lat="43.2250332160552" lon="12.335355831527433"><ele>380.0</ele><time>2026-04-19T07:40:45Z</time></trkpt><trkpt lat="43.22510774918136" lon="12.335730923875706"><ele>377.5</ele><time>2026-04-19T07:40:46Z</time></trkpt><trkpt lat="43.225181660007514" lon="12.336121619383736"><ele>375.0</ele><time>2026-04-19T07:40:47Z</time></trkpt><trkpt lat="43.22522485179187" lon="12.336525178250703"><ele>374.0</ele><time>2026-04-19T07:40:48Z</time></trkpt><trkpt lat="43.225240843192395" lon="12.336929765411249"><ele>373.0</ele><time>2026-04-19T07:40:49Z</time></trkpt><trkpt lat="43.225233512925016" lon="12.337293072846908"><ele>372.66666666666663</ele><time>2026-04-19T07:40:50Z</time></trkpt><trkpt lat="43.22520862611048" lon="12.337619901267013"><ele>372.3333333333333</ele><time>2026-04-19T07:40:51Z</time></trkpt><trkpt lat="43.2251980572309" lon="12.337905866255007"><ele>372.0</ele><time>2026-04-19T07:40:52Z</time></trkpt><trkpt lat="43.22519798985676" lon="12.33815020719279"><ele>371.5</ele><time>2026-04-19T07:40:53Z</time></trkpt><trkpt lat="43.22517910067197" lon="12.338368953243863"><ele>371.0</ele><time>2026-04-19T07:40:54Z</time></trkpt><trkpt lat="43.225126208906964" lon="12.338551381622077"><ele>370.5</ele><time>2026-04-19T07:40:55Z</time></trkpt><trkpt lat="43.2250873131502" lon="12.338713258119641"><ele>370.0</ele><time>2026-04-19T07:40:56Z</time></trkpt><trkpt lat="43.22511332857649" lon="12.338884917701574"><ele>368.5</ele><time>2026-04-19T07:40:57Z</time></trkpt><trkpt lat="43.22518007409176" lon="12.339041686747002"><ele>367.0</ele><time>2026-04-19T07:40:58Z</time></trkpt><trkpt lat="43.225242635463566" lon="12.339207856031654"><ele>365.5</ele><time>2026-04-19T07:40:59Z</time></trkpt><trkpt lat="43.22527609368869" lon="12.339397506344502"><ele>364.0</ele><time>2026-04-19T07:41:00Z</time></trkpt><trkpt lat="43.22514169075819" lon="12.339633977954474"><ele>363.3333333333333</ele><time>2026-04-19T07:41:01Z</time></trkpt><trkpt lat="43.22509000430602" lon="12.33991787825962"><ele>362.6666666666667</ele><time>2026-04-19T07:41:02Z</time></trkpt><trkpt lat="43.225072551121954" lon="12.340234014723015"><ele>362.0</ele><time>2026-04-19T07:41:03Z</time></trkpt><trkpt lat="43.22508505245824" lon="12.34059559892662"><ele>362.0</ele><time>2026-04-19T07:41:04Z</time></trkpt><trkpt lat="43.225135452721204" lon="12.34096531695235"><ele>362.0</ele><time>2026-04-19T07:41:05Z</time></trkpt><trkpt lat="43.22519605004915" lon="12.341358918094352"><ele>363.0</ele><time>2026-04-19T07:41:06Z</time></trkpt><trkpt lat="43.22525598656235" lon="12.341766321050795"><ele>364.0</ele><time>2026-04-19T07:41:07Z</time></trkpt><trkpt lat="43.225313026186654" lon="12.342134009594574"><ele>365.5</ele><time>2026-04-19T07:41:08Z</time></trkpt><trkpt lat="43.22536500511018" lon="12.342495168491505"><ele>367.0</ele><time>2026-04-19T07:41:09Z</time></trkpt><trkpt lat="43.22541998816501" lon="12.342859428888797"><ele>367.5</ele><time>2026-04-19T07:41:10Z</time></trkpt><trkpt lat="43.225478404130754" lon="12.343231618251323"><ele>368.0</ele><time>2026-04-19T07:41:11Z</time></trkpt><trkpt lat="43.22554103159558" lon="12.34360621794166"><ele>368.0</ele><time>2026-04-19T07:41:12Z</time></trkpt><trkpt lat="43.22563850237033" lon="12.34398148183653"><ele>368.0</ele><time>2026-04-19T07:41:13Z</time></trkpt><trkpt lat="43.22576985959524" lon="12.344362391239308"><ele>362.5</ele><time>2026-04-19T07:41:14Z</time></trkpt><trkpt lat="43.225948249586615" lon="12.344741040537855"><ele>357.0</ele><time>2026-04-19T07:41:15Z</time></trkpt><trkpt lat="43.22615160368912" lon="12.345092530487435"><ele>357.0</ele><time>2026-04-19T07:41:16Z</time></trkpt><trkpt lat="43.226382473945876" lon="12.345411046306413"><ele>357.0</ele><time>2026-04-19T07:41:17Z</time></trkpt><trkpt lat="43.22663997693502" lon="12.345693557880146"><ele>354.0</ele><time>2026-04-19T07:41:18Z</time></trkpt><trkpt lat="43.22692283064996" lon="12.345942880479848"><ele>351.0</ele><time>2026-04-19T07:41:19Z</time></trkpt><trkpt lat="43.22722426909502" lon="12.346148191366021"><ele>350.0</ele><time>2026-04-19T07:41:20Z</time></trkpt><trkpt lat="43.227550764230514" lon="12.346302601894447"><ele>349.0</ele><time>2026-04-19T07:41:21Z</time></trkpt><trkpt lat="43.22790203282647" lon="12.34644301442194"><ele>355.0</ele><time>2026-04-19T07:41:21.999Z</time></trkpt><trkpt lat="43.22827309901807" lon="12.346590972878072"><ele>361.0</ele><time>2026-04-19T07:41:22.999Z</time></trkpt><trkpt lat="43.22864518156708" lon="12.346743086115028"><ele>362.0</ele><time>2026-04-19T07:41:23.999Z</time></trkpt><trkpt lat="43.22897932037036" lon="12.346889624858031"><ele>363.0</ele><time>2026-04-19T07:41:24.999Z</time></trkpt><trkpt lat="43.22928557891456" lon="12.347021947661315"><ele>363.0</ele><time>2026-04-19T07:41:25.999Z</time></trkpt><trkpt lat="43.22959219572527" lon="12.347157376587367"><ele>363.0</ele><time>2026-04-19T07:41:26.999Z</time></trkpt><trkpt lat="43.22988239511233" lon="12.347334350155585"><ele>359.0</ele><time>2026-04-19T07:41:27.999Z</time></trkpt><trkpt lat="43.23015481560066" lon="12.34755410874869"><ele>355.0</ele><time>2026-04-19T07:41:28.999Z</time></trkpt><trkpt lat="43.23041231044488" lon="12.347815784096987"><ele>356.5</ele><time>2026-04-19T07:41:29.999Z</time></trkpt><trkpt lat="43.23065465328507" lon="12.348125490382193"><ele>358.0</ele><time>2026-04-19T07:41:30.999Z</time></trkpt><trkpt lat="43.230874489741005" lon="12.348497175145692"><ele>348.5</ele><time>2026-04-19T07:41:31.999Z</time></trkpt><trkpt lat="43.2310952086019" lon="12.348914821063516"><ele>339.0</ele><time>2026-04-19T07:41:32.999Z</time></trkpt><trkpt lat="43.231334123299895" lon="12.349379369737408"><ele>348.5</ele><time>2026-04-19T07:41:33.999Z</time></trkpt><trkpt lat="43.23159075809807" lon="12.34986210203385"><ele>358.0</ele><time>2026-04-19T07:41:34.999Z</time></trkpt><trkpt lat="43.23183347122977" lon="12.350333646360866"><ele>351.0</ele><time>2026-04-19T07:41:35.999Z</time></trkpt><trkpt lat="43.23209102927089" lon="12.350835527940236"><ele>344.0</ele><time>2026-04-19T07:41:36.999Z</time></trkpt><trkpt lat="43.23235002410726" lon="12.351343296737333"><ele>339.5</ele><time>2026-04-19T07:41:37.999Z</time></trkpt><trkpt lat="43.232607959457226" lon="12.351836637140655"><ele>335.0</ele><time>2026-04-19T07:41:38.999Z</time></trkpt><trkpt lat="43.23284549401179" lon="12.352275579358786"><ele>335.0</ele><time>2026-04-19T07:41:39.999Z</time></trkpt><trkpt lat="43.23306724233496" lon="12.352681755112313"><ele>335.0</ele><time>2026-04-19T07:41:40.999Z</time></trkpt><trkpt lat="43.233269238795295" lon="12.353054549071572"><ele>336.5</ele><time>2026-04-19T07:41:41.999Z</time></trkpt><trkpt lat="43.233467403038716" lon="12.353411368298074"><ele>338.0</ele><time>2026-04-19T07:41:42.999Z</time></trkpt><trkpt lat="43.233643282700605" lon="12.353745926305978"><ele>334.0</ele><time>2026-04-19T07:41:43.999Z</time></trkpt><trkpt lat="43.23378315616202" lon="12.354069934062444"><ele>330.0</ele><time>2026-04-19T07:41:44.999Z</time></trkpt><trkpt lat="43.23388658412092" lon="12.354381841877759"><ele>330.0</ele><time>2026-04-19T07:41:45.999Z</time></trkpt><trkpt lat="43.233957904384035" lon="12.354635624970529"><ele>330.0</ele><time>2026-04-19T07:41:46.999Z</time></trkpt><trkpt lat="43.23399034708062" lon="12.354818386494198"><ele>330.0</ele><time>2026-04-19T07:41:47.999Z</time></trkpt><trkpt lat="43.23401079228868" lon="12.354976987713068"><ele>331.2</ele><time>2026-04-19T07:41:48.999Z</time></trkpt><trkpt lat="43.234030547739394" lon="12.355107917983053"><ele>332.4</ele><time>2026-04-19T07:41:50.999Z</time></trkpt><trkpt lat="43.234024161361425" lon="12.355221322722047"><ele>333.6</ele><time>2026-04-19T07:41:53.999Z</time></trkpt><trkpt lat="43.23404937936362" lon="12.355325968407488"><ele>334.8</ele><time>2026-04-19T07:45:11Z</time></trkpt><trkpt lat="43.23406763278645" lon="12.355454162815837"><ele>336.0</ele><time>2026-04-19T07:45:12Z</time></trkpt><trkpt lat="43.2340972079486" lon="12.355600796561014"><ele>336.0</ele><time>2026-04-19T07:45:13Z</time></trkpt><trkpt lat="43.23413663189484" lon="12.355758427499369"><ele>336.0</ele><time>2026-04-19T07:45:14Z</time></trkpt><trkpt lat="43.23418023797273" lon="12.355946998241873"><ele>336.0</ele><time>2026-04-19T07:45:15Z</time></trkpt><trkpt lat="43.23423676512875" lon="12.356168975707602"><ele>336.0</ele><time>2026-04-19T07:45:16Z</time></trkpt><trkpt lat="43.23429553629876" lon="12.35638291806793"><ele>331.3333333333333</ele><time>2026-04-19T07:45:17Z</time></trkpt><trkpt lat="43.23437903169313" lon="12.356596495280847"><ele>326.66666666666663</ele><time>2026-04-19T07:45:18Z</time></trkpt><trkpt lat="43.23448313736169" lon="12.356798518108397"><ele>322.0</ele><time>2026-04-19T07:45:19Z</time></trkpt><trkpt lat="43.23461878766616" lon="12.357004110347473"><ele>319.0</ele><time>2026-04-19T07:45:20Z</time></trkpt><trkpt lat="43.2347801427782" lon="12.357237530275535"><ele>316.0</ele><time>2026-04-19T07:45:21Z</time></trkpt><trkpt lat="43.234976853651375" lon="12.3575239660139"><ele>315.0</ele><time>2026-04-19T07:45:22Z</time></trkpt><trkpt lat="43.2351833073198" lon="12.357834114367229"><ele>314.0</ele><time>2026-04-19T07:45:23Z</time></trkpt><trkpt lat="43.2354119060248" lon="12.358168944110474"><ele>314.5</ele><time>2026-04-19T07:45:24Z</time></trkpt><trkpt lat="43.235649540230206" lon="12.358526581472477"><ele>315.0</ele><time>2026-04-19T07:45:25Z</time></trkpt><trkpt lat="43.23589157722752" lon="12.358887831484136"><ele>315.0</ele><time>2026-04-19T07:45:26Z</time></trkpt><trkpt lat="43.236119615545164" lon="12.35924663411669"><ele>315.0</ele><time>2026-04-19T07:45:27Z</time></trkpt><trkpt lat="43.23633383926087" lon="12.359585068293475"><ele>315.0</ele><time>2026-04-19T07:45:28Z</time></trkpt><trkpt lat="43.23656711605645" lon="12.359907081774567"><ele>315.0</ele><time>2026-04-19T07:45:29Z</time></trkpt><trkpt lat="43.23681947873033" lon="12.360214786610996"><ele>316.0</ele><time>2026-04-19T07:45:30Z</time></trkpt><trkpt lat="43.23708843276793" lon="12.360533326181704"><ele>317.0</ele><time>2026-04-19T07:45:31Z</time></trkpt><trkpt lat="43.237341612521995" lon="12.360840446773867"><ele>317.0</ele><time>2026-04-19T07:45:32Z</time></trkpt><trkpt lat="43.237566956749994" lon="12.361119282825475"><ele>317.0</ele><time>2026-04-19T07:45:33Z</time></trkpt><trkpt lat="43.237772375375556" lon="12.36135982664282"><ele>316.0</ele><time>2026-04-19T07:45:34Z</time></trkpt><trkpt lat="43.237968891234694" lon="12.361565286964085"><ele>315.0</ele><time>2026-04-19T07:45:35Z</time></trkpt><trkpt lat="43.23818906016939" lon="12.361725276752702"><ele>315.0</ele><time>2026-04-19T07:45:36Z</time></trkpt><trkpt lat="43.23843082202442" lon="12.361826277020048"><ele>315.0</ele><time>2026-04-19T07:45:37Z</time></trkpt><trkpt lat="43.238707191313395" lon="12.361880587509818"><ele>314.5</ele><time>2026-04-19T07:45:38Z</time></trkpt><trkpt lat="43.23900367681085" lon="12.361920025685285"><ele>314.0</ele><time>2026-04-19T07:45:39Z</time></trkpt><trkpt lat="43.23931448518326" lon="12.361955682722465"><ele>314.0</ele><time>2026-04-19T07:45:40Z</time></trkpt><trkpt lat="43.239598723321166" lon="12.361992654269754"><ele>314.0</ele><time>2026-04-19T07:45:40.999Z</time></trkpt><trkpt lat="43.23983727498091" lon="12.362014315341176"><ele>314.0</ele><time>2026-04-19T07:45:41.999Z</time></trkpt><trkpt lat="43.24005632831857" lon="12.362012579796897"><ele>314.0</ele><time>2026-04-19T07:45:42.999Z</time></trkpt><trkpt lat="43.2402780473939" lon="12.361957084809264"><ele>314.0</ele><time>2026-04-19T07:45:43.999Z</time></trkpt><trkpt lat="43.24049241211592" lon="12.361822310385929"><ele>319.5</ele><time>2026-04-19T07:45:44.999Z</time></trkpt><trkpt lat="43.24069764979661" lon="12.3616197125271"><ele>325.0</ele><time>2026-04-19T07:45:45.999Z</time></trkpt><trkpt lat="43.24088563917328" lon="12.361359647233149"><ele>325.0</ele><time>2026-04-19T07:45:46.999Z</time></trkpt><trkpt lat="43.24107880649547" lon="12.361079177960429"><ele>325.0</ele><time>2026-04-19T07:45:47.999Z</time></trkpt><trkpt lat="43.24125191421211" lon="12.360841513920446"><ele>325.0</ele><time>2026-04-19T07:45:48.999Z</time></trkpt><trkpt lat="43.24142826360781" lon="12.360627606285712"><ele>325.0</ele><time>2026-04-19T07:45:49.999Z</time></trkpt><trkpt lat="43.24160832892585" lon="12.360389237437925"><ele>324.3333333333333</ele><time>2026-04-19T07:45:50.999Z</time></trkpt><trkpt lat="43.24176933834657" lon="12.36018261939587"><ele>323.6666666666667</ele><time>2026-04-19T07:45:51.999Z</time></trkpt><trkpt lat="43.24192039688749" lon="12.35999001414003"><ele>323.0</ele><time>2026-04-19T07:45:52.999Z</time></trkpt><trkpt lat="43.24210550532605" lon="12.359883878314184"><ele>320.6666666666667</ele><time>2026-04-19T07:45:53.999Z</time></trkpt><trkpt lat="43.24230223855706" lon="12.35979248837573"><ele>318.3333333333333</ele><time>2026-04-19T07:45:54.999Z</time></trkpt><trkpt lat="43.24254304403169" lon="12.35978348752118"><ele>316.0</ele><time>2026-04-19T07:45:55.999Z</time></trkpt><trkpt lat="43.24281109772159" lon="12.359825762639906"><ele>316.0</ele><time>2026-04-19T07:45:56.999Z</time></trkpt><trkpt lat="43.243073757386504" lon="12.359936676232751"><ele>316.0</ele><time>2026-04-19T07:45:57.999Z</time></trkpt><trkpt lat="43.24330098891444" lon="12.360051683924599"><ele>309.5</ele><time>2026-04-19T07:45:58.999Z</time></trkpt><trkpt lat="43.243545065405065" lon="12.360123363032955"><ele>303.0</ele><time>2026-04-19T07:45:59.999Z</time></trkpt><trkpt lat="43.24377747059096" lon="12.36014802381421"><ele>301.5</ele><time>2026-04-19T07:46:00.999Z</time></trkpt><trkpt lat="43.244006428884425" lon="12.360112580849217"><ele>300.0</ele><time>2026-04-19T07:46:01.999Z</time></trkpt><trkpt lat="43.2442443050884" lon="12.360022997559668"><ele>300.0</ele><time>2026-04-19T07:46:02.999Z</time></trkpt><trkpt lat="43.24448920415638" lon="12.35986754080003"><ele>300.0</ele><time>2026-04-19T07:46:03.999Z</time></trkpt><trkpt lat="43.24472579960186" lon="12.35972845671241"><ele>293.6666666666667</ele><time>2026-04-19T07:46:04.999Z</time></trkpt><trkpt lat="43.2449252998723" lon="12.359602666607978"><ele>287.33333333333337</ele><time>2026-04-19T07:46:05.999Z</time></trkpt><trkpt lat="43.245103127234174" lon="12.359511159794522"><ele>281.0</ele><time>2026-04-19T07:46:06.999Z</time></trkpt><trkpt lat="43.24528032344367" lon="12.359504375246122"><ele>281.0</ele><time>2026-04-19T07:46:07.999Z</time></trkpt><trkpt lat="43.24540446554823" lon="12.359411494254271"><ele>281.0</ele><time>2026-04-19T07:46:08.999Z</time></trkpt><trkpt lat="43.24560004014664" lon="12.359787601367382"><ele>280.5</ele><time>2026-04-19T07:46:09.999Z</time></trkpt><trkpt lat="43.24570062692524" lon="12.360067627233283"><ele>280.0</ele><time>2026-04-19T07:46:10.999Z</time></trkpt><trkpt lat="43.245809456613564" lon="12.360406148941934"><ele>288.5</ele><time>2026-04-19T07:46:11.999Z</time></trkpt><trkpt lat="43.245966364381346" lon="12.360796639908465"><ele>297.0</ele><time>2026-04-19T07:46:12.999Z</time></trkpt><trkpt lat="43.24613955417697" lon="12.361199725114298"><ele>307.0</ele><time>2026-04-19T07:46:13.999Z</time></trkpt><trkpt lat="43.24631516637884" lon="12.361652939059612"><ele>317.0</ele><time>2026-04-19T07:46:14.999Z</time></trkpt><trkpt lat="43.2464968466045" lon="12.362086928575978"><ele>296.0</ele><time>2026-04-19T07:46:15.999Z</time></trkpt><trkpt lat="43.24668923627325" lon="12.362550137132816"><ele>275.0</ele><time>2026-04-19T07:46:16.999Z</time></trkpt><trkpt lat="43.2468625214284" lon="12.362970448775515"><ele>284.0</ele><time>2026-04-19T07:46:17.999Z</time></trkpt><trkpt lat="43.247021428589" lon="12.363374870016196"><ele>293.0</ele><time>2026-04-19T07:46:18.999Z</time></trkpt><trkpt lat="43.247179081589785" lon="12.363747935539418"><ele>275.0</ele><time>2026-04-19T07:46:19.999Z</time></trkpt><trkpt lat="43.24732456540859" lon="12.364093492997537"><ele>257.0</ele><time>2026-04-19T07:46:20.999Z</time></trkpt><trkpt lat="43.24745770197321" lon="12.3644001643866"><ele>257.0</ele><time>2026-04-19T07:46:21.999Z</time></trkpt><trkpt lat="43.24760610360299" lon="12.36467807438423"><ele>257.0</ele><time>2026-04-19T07:46:22.999Z</time></trkpt><trkpt lat="43.24779249712392" lon="12.364902834747205"><ele>251.5</ele><time>2026-04-19T07:46:23.999Z</time></trkpt><trkpt lat="43.24799325889744" lon="12.365062904740007"><ele>246.0</ele><time>2026-04-19T07:46:24.999Z</time></trkpt><trkpt lat="43.2481774914404" lon="12.365241459854152"><ele>246.0</ele><time>2026-04-19T07:46:25.999Z</time></trkpt><trkpt lat="43.248296522424134" lon="12.365495238345101"><ele>246.0</ele><time>2026-04-19T07:46:26.999Z</time></trkpt><trkpt lat="43.248358508444994" lon="12.365796723458564"><ele>246.0</ele><time>2026-04-19T07:46:27.999Z</time></trkpt><trkpt lat="43.24837312455263" lon="12.366161054123348"><ele>249.5</ele><time>2026-04-19T07:46:28.999Z</time></trkpt><trkpt lat="43.248398958815834" lon="12.36657075983551"><ele>253.0</ele><time>2026-04-19T07:46:29.999Z</time></trkpt><trkpt lat="43.24840686491024" lon="12.366990551410408"><ele>249.5</ele><time>2026-04-19T07:46:30.999Z</time></trkpt><trkpt lat="43.24837246173026" lon="12.36743579748313"><ele>246.0</ele><time>2026-04-19T07:46:31.999Z</time></trkpt><trkpt lat="43.24827195022407" lon="12.367858392721734"><ele>244.5</ele><time>2026-04-19T07:46:32.999Z</time></trkpt><trkpt lat="43.248144803644756" lon="12.36829225137884"><ele>243.0</ele><time>2026-04-19T07:46:33.999Z</time></trkpt><trkpt lat="43.24802999455469" lon="12.3686796801441"><ele>255.0</ele><time>2026-04-19T07:46:34.999Z</time></trkpt><trkpt lat="43.24793327113104" lon="12.369053778793813"><ele>267.0</ele><time>2026-04-19T07:46:35.999Z</time></trkpt><trkpt lat="43.24787600843678" lon="12.369448899673342"><ele>262.0</ele><time>2026-04-19T07:46:36.999Z</time></trkpt><trkpt lat="43.247857977354165" lon="12.369861021686356"><ele>257.0</ele><time>2026-04-19T07:46:37.999Z</time></trkpt><trkpt lat="43.24786599671528" lon="12.370313432429526"><ele>252.5</ele><time>2026-04-19T07:46:38.999Z</time></trkpt><trkpt lat="43.24787806724945" lon="12.370810589672157"><ele>248.0</ele><time>2026-04-19T07:46:39.999Z</time></trkpt><trkpt lat="43.247881599278806" lon="12.371348920415723"><ele>245.5</ele><time>2026-04-19T07:46:40.999Z</time></trkpt><trkpt lat="43.24788780227002" lon="12.371909835421638"><ele>243.0</ele><time>2026-04-19T07:46:41.999Z</time></trkpt><trkpt lat="43.24789684348521" lon="12.372496042938058"><ele>241.5</ele><time>2026-04-19T07:46:42.999Z</time></trkpt><trkpt lat="43.2478983032462" lon="12.373065916190503"><ele>240.0</ele><time>2026-04-19T07:46:43.999Z</time></trkpt><trkpt lat="43.24790323561355" lon="12.37364470031788"><ele>239.5</ele><time>2026-04-19T07:46:44.999Z</time></trkpt><trkpt lat="43.2479078340559" lon="12.374213142120633"><ele>239.0</ele><time>2026-04-19T07:46:45.999Z</time></trkpt><trkpt lat="43.24791384524361" lon="12.374735884989862"><ele>239.0</ele><time>2026-04-19T07:46:46.999Z</time></trkpt><trkpt lat="43.247914337221715" lon="12.375224544607548"><ele>239.0</ele><time>2026-04-19T07:46:47.998Z</time></trkpt><trkpt lat="43.24791657698202" lon="12.375686175489566"><ele>239.0</ele><time>2026-04-19T07:46:48.998Z</time></trkpt><trkpt lat="43.247925834964065" lon="12.376129470724498"><ele>239.0</ele><time>2026-04-19T07:46:49.998Z</time></trkpt><trkpt lat="43.24797767240858" lon="12.376577912509601"><ele>239.0</ele><time>2026-04-19T07:46:50.998Z</time></trkpt><trkpt lat="43.24808373608054" lon="12.377031802811384"><ele>239.0</ele><time>2026-04-19T07:46:51.998Z</time></trkpt><trkpt lat="43.248215792919545" lon="12.377482463521137"><ele>238.5</ele><time>2026-04-19T07:46:52.998Z</time></trkpt><trkpt lat="43.248363444083445" lon="12.377955491882442"><ele>238.0</ele><time>2026-04-19T07:46:53.998Z</time></trkpt><trkpt lat="43.248497135084484" lon="12.378451158480782"><ele>240.0</ele><time>2026-04-19T07:46:54.998Z</time></trkpt><trkpt lat="43.24863181073384" lon="12.378942970599056"><ele>242.0</ele><time>2026-04-19T07:46:55.998Z</time></trkpt><trkpt lat="43.248752066820764" lon="12.3793819231825"><ele>246.0</ele><time>2026-04-19T07:46:56.998Z</time></trkpt><trkpt lat="43.248860148558826" lon="12.37978982828907"><ele>250.0</ele><time>2026-04-19T07:46:57.998Z</time></trkpt><trkpt lat="43.24896326434907" lon="12.380169404427459"><ele>244.5</ele><time>2026-04-19T07:46:58.998Z</time></trkpt><trkpt lat="43.24908474203347" lon="12.380519706112885"><ele>239.0</ele><time>2026-04-19T07:46:59.998Z</time></trkpt><trkpt lat="43.24924157729306" lon="12.38084688058476"><ele>239.0</ele><time>2026-04-19T07:47:00.998Z</time></trkpt><trkpt lat="43.24943283886481" lon="12.38115051775978"><ele>239.0</ele><time>2026-04-19T07:47:01.998Z</time></trkpt><trkpt lat="43.2496647275816" lon="12.381417584761468"><ele>237.0</ele><time>2026-04-19T07:47:03Z</time></trkpt><trkpt lat="43.249922461367866" lon="12.381657366734439"><ele>235.0</ele><time>2026-04-19T07:47:04Z</time></trkpt><trkpt lat="43.25020818083261" lon="12.381850344891356"><ele>235.0</ele><time>2026-04-19T07:47:05Z</time></trkpt><trkpt lat="43.25052277686736" lon="12.3819835115042"><ele>235.0</ele><time>2026-04-19T07:47:06Z</time></trkpt><trkpt lat="43.25086335257316" lon="12.38206866499411"><ele>233.5</ele><time>2026-04-19T07:47:07Z</time></trkpt><trkpt lat="43.25122166948249" lon="12.382110150615192"><ele>232.0</ele><time>2026-04-19T07:47:08Z</time></trkpt><trkpt lat="43.25160034351777" lon="12.382132972014636"><ele>230.5</ele><time>2026-04-19T07:47:09Z</time></trkpt><trkpt lat="43.251995969691286" lon="12.382153727226894"><ele>229.0</ele><time>2026-04-19T07:47:10Z</time></trkpt><trkpt lat="43.25237949782584" lon="12.382172054330594"><ele>236.5</ele><time>2026-04-19T07:47:11Z</time></trkpt><trkpt lat="43.252755001559976" lon="12.382183728253489"><ele>244.0</ele><time>2026-04-19T07:47:12Z</time></trkpt><trkpt lat="43.253105692551216" lon="12.382207728673565"><ele>237.0</ele><time>2026-04-19T07:47:13Z</time></trkpt><trkpt lat="43.25342916839307" lon="12.382231040925163"><ele>230.0</ele><time>2026-04-19T07:47:14Z</time></trkpt><trkpt lat="43.25373015146428" lon="12.382250038976395"><ele>228.0</ele><time>2026-04-19T07:47:15Z</time></trkpt><trkpt lat="43.25401299800742" lon="12.382268490383522"><ele>226.0</ele><time>2026-04-19T07:47:16Z</time></trkpt><trkpt lat="43.25427865145783" lon="12.38228553436977"><ele>226.0</ele><time>2026-04-19T07:47:17Z</time></trkpt><trkpt lat="43.254530776285655" lon="12.382279996970455"><ele>226.0</ele><time>2026-04-19T07:47:18Z</time></trkpt><trkpt lat="43.25479609251983" lon="12.382267796602086"><ele>226.5</ele><time>2026-04-19T07:47:19Z</time></trkpt><trkpt lat="43.25506716053063" lon="12.382157555300818"><ele>227.0</ele><time>2026-04-19T07:47:20Z</time></trkpt><trkpt lat="43.25535329227124" lon="12.382037740311395"><ele>226.5</ele><time>2026-04-19T07:47:21Z</time></trkpt><trkpt lat="43.25565550273329" lon="12.381910313166873"><ele>226.0</ele><time>2026-04-19T07:47:22Z</time></trkpt><trkpt lat="43.25596794426789" lon="12.381781417389158"><ele>226.0</ele><time>2026-04-19T07:47:23Z</time></trkpt><trkpt lat="43.25629473317571" lon="12.38164532299308"><ele>226.0</ele><time>2026-04-19T07:47:24Z</time></trkpt><trkpt lat="43.25660151357469" lon="12.381516940754297"><ele>226.0</ele><time>2026-04-19T07:47:25Z</time></trkpt><trkpt lat="43.256896272282134" lon="12.38139100470726"><ele>226.0</ele><time>2026-04-19T07:47:26Z</time></trkpt><trkpt lat="43.25718577929552" lon="12.381268925425298"><ele>226.0</ele><time>2026-04-19T07:47:27Z</time></trkpt><trkpt lat="43.25747186436685" lon="12.381153638320699"><ele>226.0</ele><time>2026-04-19T07:47:28Z</time></trkpt><trkpt lat="43.257741528058695" lon="12.381066638033932"><ele>226.0</ele><time>2026-04-19T07:47:29Z</time></trkpt><trkpt lat="43.25801194518776" lon="12.381011609444602"><ele>226.0</ele><time>2026-04-19T07:47:30Z</time></trkpt><trkpt lat="43.25828447052123" lon="12.38099891434186"><ele>226.0</ele><time>2026-04-19T07:47:31Z</time></trkpt><trkpt lat="43.258560835245" lon="12.381026269728661"><ele>226.0</ele><time>2026-04-19T07:47:32Z</time></trkpt><trkpt lat="43.25882723532302" lon="12.381144014648337"><ele>226.5</ele><time>2026-04-19T07:47:33Z</time></trkpt><trkpt lat="43.25909762270898" lon="12.381265481285242"><ele>227.0</ele><time>2026-04-19T07:47:34Z</time></trkpt><trkpt lat="43.25935823979291" lon="12.381428444126247"><ele>227.5</ele><time>2026-04-19T07:47:35Z</time></trkpt><trkpt lat="43.25959890998781" lon="12.381562119958984"><ele>228.0</ele><time>2026-04-19T07:47:36Z</time></trkpt><trkpt lat="43.25982620711727" lon="12.381684928593474"><ele>226.66666666666669</ele><time>2026-04-19T07:47:37Z</time></trkpt><trkpt lat="43.26003584574346" lon="12.381801152450281"><ele>225.33333333333334</ele><time>2026-04-19T07:47:38Z</time></trkpt><trkpt lat="43.26023115256554" lon="12.38191230244432"><ele>224.0</ele><time>2026-04-19T07:47:39Z</time></trkpt><trkpt lat="43.26043137105625" lon="12.382045262115618"><ele>224.0</ele><time>2026-04-19T07:47:40Z</time></trkpt><trkpt lat="43.26062437497542" lon="12.382233663274246"><ele>224.0</ele><time>2026-04-19T07:47:41Z</time></trkpt><trkpt lat="43.26081878913596" lon="12.382452022542985"><ele>224.0</ele><time>2026-04-19T07:47:42Z</time></trkpt><trkpt lat="43.261014562447315" lon="12.382690216049935"><ele>224.0</ele><time>2026-04-19T07:47:43Z</time></trkpt><trkpt lat="43.26121226424675" lon="12.38293151722652"><ele>225.0</ele><time>2026-04-19T07:47:44Z</time></trkpt><trkpt lat="43.261412071491" lon="12.383165756865077"><ele>226.0</ele><time>2026-04-19T07:47:44.999Z</time></trkpt><trkpt lat="43.26159091609387" lon="12.383379108871797"><ele>226.5</ele><time>2026-04-19T07:47:45.999Z</time></trkpt><trkpt lat="43.26176021226269" lon="12.38357962016966"><ele>227.0</ele><time>2026-04-19T07:47:46.999Z</time></trkpt><trkpt lat="43.26192624114119" lon="12.38379317059594"><ele>227.0</ele><time>2026-04-19T07:47:47.999Z</time></trkpt><trkpt lat="43.26207313205225" lon="12.384032910635828"><ele>227.0</ele><time>2026-04-19T07:47:48.999Z</time></trkpt><trkpt lat="43.26219248225909" lon="12.384274871542297"><ele>227.0</ele><time>2026-04-19T07:47:49.999Z</time></trkpt><trkpt lat="43.262297293997285" lon="12.384499791880112"><ele>229.0</ele><time>2026-04-19T07:47:50.999Z</time></trkpt><trkpt lat="43.26239339180494" lon="12.384707509364086"><ele>231.0</ele><time>2026-04-19T07:47:51.999Z</time></trkpt><trkpt lat="43.26248191725203" lon="12.384899491292853"><ele>233.0</ele><time>2026-04-19T07:47:52.999Z</time></trkpt><trkpt lat="43.26254744100693" lon="12.385085291137422"><ele>233.0</ele><time>2026-04-19T07:47:53.999Z</time></trkpt><trkpt lat="43.26263169507284" lon="12.385242907050271"><ele>233.0</ele><time>2026-04-19T07:47:54.999Z</time></trkpt><trkpt lat="43.262698419093205" lon="12.38542643811732"><ele>233.0</ele><time>2026-04-19T07:47:55.999Z</time></trkpt><trkpt lat="43.26278130689786" lon="12.385606337060642"><ele>233.0</ele><time>2026-04-19T07:47:56.999Z</time></trkpt><trkpt lat="43.26286135987719" lon="12.38579083204371"><ele>233.0</ele><time>2026-04-19T07:47:57.999Z</time></trkpt><trkpt lat="43.26293733395648" lon="12.385959038842644"><ele>233.0</ele><time>2026-04-19T07:47:58.999Z</time></trkpt><trkpt lat="43.26301653760089" lon="12.386115078328055"><ele>233.0</ele><time>2026-04-19T07:47:59.999Z</time></trkpt><trkpt lat="43.26308921334909" lon="12.386265743663046"><ele>233.0</ele><time>2026-04-19T07:48:00.999Z</time></trkpt><trkpt lat="43.26315451381383" lon="12.386415695704274"><ele>233.0</ele><time>2026-04-19T07:48:01.999Z</time></trkpt><trkpt lat="43.263219625648574" lon="12.386555823725907"><ele>233.0</ele><time>2026-04-19T07:48:02.999Z</time></trkpt><trkpt lat="43.26327843937467" lon="12.386685623548438"><ele>233.0</ele><time>2026-04-19T07:48:03.999Z</time></trkpt><trkpt lat="43.26333673829262" lon="12.386811390637206"><ele>233.0</ele><time>2026-04-19T07:48:04.999Z</time></trkpt><trkpt lat="43.263398813540206" lon="12.386924825008688"><ele>233.0</ele><time>2026-04-19T07:48:05.999Z</time></trkpt><trkpt lat="43.26346565916846" lon="12.38706062153202"><ele>233.25</ele><time>2026-04-19T07:48:06.999Z</time></trkpt><trkpt lat="43.26354411891648" lon="12.387221977381076"><ele>233.5</ele><time>2026-04-19T07:48:07.999Z</time></trkpt><trkpt lat="43.26361848432458" lon="12.387389299987909"><ele>233.75</ele><time>2026-04-19T07:48:08.999Z</time></trkpt><trkpt lat="43.26367820274213" lon="12.387537226488865"><ele>234.0</ele><time>2026-04-19T07:48:09.999Z</time></trkpt><trkpt lat="43.26372518947318" lon="12.387677374796244"><ele>234.0</ele><time>2026-04-19T07:48:10.999Z</time></trkpt><trkpt lat="43.263762611163905" lon="12.387836785650212"><ele>234.0</ele><time>2026-04-19T07:48:11.999Z</time></trkpt><trkpt lat="43.26375561615726" lon="12.388021932374201"><ele>234.0</ele><time>2026-04-19T07:48:12.999Z</time></trkpt><trkpt lat="43.26368858594861" lon="12.388203888551947"><ele>234.0</ele><time>2026-04-19T07:48:13.999Z</time></trkpt><trkpt lat="43.26357715624534" lon="12.388332167483775"><ele>234.66666666666669</ele><time>2026-04-19T07:48:14.999Z</time></trkpt><trkpt lat="43.26342985242402" lon="12.388393999373049"><ele>235.33333333333334</ele><time>2026-04-19T07:48:15.999Z</time></trkpt><trkpt lat="43.263272568105904" lon="12.388386367739361"><ele>236.0</ele><time>2026-04-19T07:48:16.999Z</time></trkpt><trkpt lat="43.26314556921656" lon="12.38827647471652"><ele>234.5</ele><time>2026-04-19T07:48:17.999Z</time></trkpt><trkpt lat="43.26307151210714" lon="12.38810718179057"><ele>233.0</ele><time>2026-04-19T07:48:18.999Z</time></trkpt><trkpt lat="43.26304023422908" lon="12.38793609051737"><ele>231.5</ele><time>2026-04-19T07:48:19.999Z</time></trkpt><trkpt lat="43.26304333134052" lon="12.38774235732653"><ele>230.0</ele><time>2026-04-19T07:48:20.999Z</time></trkpt><trkpt lat="43.26306874650967" lon="12.387557245738844"><ele>231.0</ele><time>2026-04-19T07:48:21.999Z</time></trkpt><trkpt lat="43.26314925111191" lon="12.387367186939212"><ele>232.0</ele><time>2026-04-19T07:48:22.999Z</time></trkpt><trkpt lat="43.26327721997505" lon="12.387221930562923"><ele>233.0</ele><time>2026-04-19T07:48:23.999Z</time></trkpt><trkpt lat="43.26342092718349" lon="12.387138486087462"><ele>233.0</ele><time>2026-04-19T07:48:24.999Z</time></trkpt><trkpt lat="43.263570058580356" lon="12.387065077868884"><ele>233.0</ele><time>2026-04-19T07:48:25.999Z</time></trkpt><trkpt lat="43.2637429536946" lon="12.386994075356258"><ele>233.0</ele><time>2026-04-19T07:48:26.999Z</time></trkpt><trkpt lat="43.26392011489494" lon="12.386921334243349"><ele>233.33333333333334</ele><time>2026-04-19T07:48:27.999Z</time></trkpt><trkpt lat="43.2641073437188" lon="12.386850785714975"><ele>233.66666666666669</ele><time>2026-04-19T07:48:28.999Z</time></trkpt><trkpt lat="43.26430960108947" lon="12.386782518108141"><ele>234.0</ele><time>2026-04-19T07:48:29.999Z</time></trkpt><trkpt lat="43.26451084811316" lon="12.386720765908628"><ele>234.0</ele><time>2026-04-19T07:48:30.999Z</time></trkpt><trkpt lat="43.264717696354275" lon="12.386662096957796"><ele>234.0</ele><time>2026-04-19T07:48:31.999Z</time></trkpt><trkpt lat="43.264929796308614" lon="12.386605128079834"><ele>234.0</ele><time>2026-04-19T07:48:32.999Z</time></trkpt><trkpt lat="43.2651501942579" lon="12.386542866838251"><ele>235.33333333333331</ele><time>2026-04-19T07:48:33.999Z</time></trkpt><trkpt lat="43.265369473330814" lon="12.386483616100097"><ele>236.66666666666666</ele><time>2026-04-19T07:48:34.999Z</time></trkpt><trkpt lat="43.26558966568267" lon="12.38641962153015"><ele>238.0</ele><time>2026-04-19T07:48:35.999Z</time></trkpt><trkpt lat="43.26580944560622" lon="12.386358895623728"><ele>237.0</ele><time>2026-04-19T07:48:36.999Z</time></trkpt><trkpt lat="43.26603230411812" lon="12.386298677424973"><ele>236.0</ele><time>2026-04-19T07:48:37.999Z</time></trkpt><trkpt lat="43.266260893871575" lon="12.386235817502058"><ele>238.5</ele><time>2026-04-19T07:48:38.999Z</time></trkpt><trkpt lat="43.266497573842834" lon="12.386171479272257"><ele>241.0</ele><time>2026-04-19T07:48:39.999Z</time></trkpt><trkpt lat="43.266739395338725" lon="12.386105583310897"><ele>241.0</ele><time>2026-04-19T07:48:40.999Z</time></trkpt><trkpt lat="43.26698477790599" lon="12.38603490489099"><ele>241.0</ele><time>2026-04-19T07:48:41.999Z</time></trkpt><trkpt lat="43.26723440412232" lon="12.385965316962016"><ele>242.5</ele><time>2026-04-19T07:48:42.999Z</time></trkpt><trkpt lat="43.26748879777923" lon="12.385897539403048"><ele>244.0</ele><time>2026-04-19T07:48:43.999Z</time></trkpt><trkpt lat="43.267743099493686" lon="12.385829056247516"><ele>244.0</ele><time>2026-04-19T07:48:44.999Z</time></trkpt><trkpt lat="43.26799666354061" lon="12.385759654719223"><ele>244.0</ele><time>2026-04-19T07:48:45.999Z</time></trkpt><trkpt lat="43.26824881625659" lon="12.385688139364953"><ele>245.0</ele><time>2026-04-19T07:48:46.999Z</time></trkpt><trkpt lat="43.26850234031332" lon="12.385616797812368"><ele>246.0</ele><time>2026-04-19T07:48:47.999Z</time></trkpt><trkpt lat="43.268756416673526" lon="12.385546895378921"><ele>246.0</ele><time>2026-04-19T07:48:48.999Z</time></trkpt><trkpt lat="43.269012705958744" lon="12.385472541925152"><ele>246.0</ele><time>2026-04-19T07:48:49.999Z</time></trkpt><trkpt lat="43.269267934337584" lon="12.385402104626987"><ele>246.0</ele><time>2026-04-19T07:48:50.998Z</time></trkpt><trkpt lat="43.26952168595894" lon="12.385329979679163"><ele>246.0</ele><time>2026-04-19T07:48:51.998Z</time></trkpt><trkpt lat="43.26977291663157" lon="12.38526040542063"><ele>249.0</ele><time>2026-04-19T07:48:52.998Z</time></trkpt><trkpt lat="43.270022387947634" lon="12.385192500980693"><ele>252.0</ele><time>2026-04-19T07:48:53.998Z</time></trkpt><trkpt lat="43.27027552706881" lon="12.385126709432512"><ele>252.0</ele><time>2026-04-19T07:48:54.998Z</time></trkpt><trkpt lat="43.27053134717241" lon="12.385063966756237"><ele>252.0</ele><time>2026-04-19T07:48:55.998Z</time></trkpt><trkpt lat="43.27078770988468" lon="12.384995871186414"><ele>257.0</ele><time>2026-04-19T07:48:56.998Z</time></trkpt><trkpt lat="43.2710441429462" lon="12.384920498833866"><ele>262.0</ele><time>2026-04-19T07:48:57.998Z</time></trkpt><trkpt lat="43.27130171895856" lon="12.384844560556518"><ele>265.0</ele><time>2026-04-19T07:48:58.998Z</time></trkpt><trkpt lat="43.27156162099482" lon="12.384772679511954"><ele>268.0</ele><time>2026-04-19T07:48:59.998Z</time></trkpt><trkpt lat="43.271821707670206" lon="12.384697929000174"><ele>268.5</ele><time>2026-04-19T07:49:00.998Z</time></trkpt><trkpt lat="43.272081862861135" lon="12.384627880544866"><ele>269.0</ele><time>2026-04-19T07:49:01.998Z</time></trkpt><trkpt lat="43.27234688676097" lon="12.384558968585058"><ele>269.0</ele><time>2026-04-19T07:49:02.998Z</time></trkpt><trkpt lat="43.27261994237342" lon="12.384480354347776"><ele>269.0</ele><time>2026-04-19T07:49:03.998Z</time></trkpt><trkpt lat="43.27289207254986" lon="12.384403997972607"><ele>268.5</ele><time>2026-04-19T07:49:04.998Z</time></trkpt><trkpt lat="43.2731645946753" lon="12.384328122672711"><ele>268.0</ele><time>2026-04-19T07:49:05.998Z</time></trkpt><trkpt lat="43.273435039982445" lon="12.384255722327353"><ele>268.0</ele><time>2026-04-19T07:49:06.998Z</time></trkpt><trkpt lat="43.27370830548633" lon="12.384176918156122"><ele>268.0</ele><time>2026-04-19T07:49:08Z</time></trkpt><trkpt lat="43.273980119371494" lon="12.38410297083461"><ele>268.5</ele><time>2026-04-19T07:49:09Z</time></trkpt><trkpt lat="43.27425352071908" lon="12.384029288263632"><ele>269.0</ele><time>2026-04-19T07:49:10Z</time></trkpt><trkpt lat="43.27452637219591" lon="12.383954974902121"><ele>270.0</ele><time>2026-04-19T07:49:11Z</time></trkpt><trkpt lat="43.27479926312307" lon="12.383884153130655"><ele>271.0</ele><time>2026-04-19T07:49:12Z</time></trkpt><trkpt lat="43.27506556881115" lon="12.383807269081215"><ele>269.5</ele><time>2026-04-19T07:49:13Z</time></trkpt><trkpt lat="43.27533259545865" lon="12.383732883524326"><ele>268.0</ele><time>2026-04-19T07:49:14Z</time></trkpt><trkpt lat="43.27560487584478" lon="12.383654998750332"><ele>268.0</ele><time>2026-04-19T07:49:15Z</time></trkpt><trkpt lat="43.27587776959376" lon="12.383577292536454"><ele>268.0</ele><time>2026-04-19T07:49:16Z</time></trkpt><trkpt lat="43.27614583308561" lon="12.383501309279564"><ele>268.0</ele><time>2026-04-19T07:49:17Z</time></trkpt><trkpt lat="43.27641240490676" lon="12.383427026860904"><ele>268.0</ele><time>2026-04-19T07:49:18Z</time></trkpt><trkpt lat="43.27667960021321" lon="12.383354390669597"><ele>268.0</ele><time>2026-04-19T07:49:19Z</time></trkpt><trkpt lat="43.27694761917624" lon="12.383280649645382"><ele>268.0</ele><time>2026-04-19T07:49:20Z</time></trkpt><trkpt lat="43.27721457913852" lon="12.38320684246197"><ele>265.5</ele><time>2026-04-19T07:49:21Z</time></trkpt><trkpt lat="43.27748572939436" lon="12.38313410870199"><ele>263.0</ele><time>2026-04-19T07:49:22Z</time></trkpt><trkpt lat="43.277757881797356" lon="12.38306278664614"><ele>261.0</ele><time>2026-04-19T07:49:23Z</time></trkpt><trkpt lat="43.27802642424651" lon="12.38299043302385"><ele>259.0</ele><time>2026-04-19T07:49:24Z</time></trkpt><trkpt lat="43.27827825433351" lon="12.382923252957085"><ele>259.0</ele><time>2026-04-19T07:49:25Z</time></trkpt><trkpt lat="43.27851552647971" lon="12.38285481205976"><ele>259.0</ele><time>2026-04-19T07:49:26Z</time></trkpt><trkpt lat="43.27875528359753" lon="12.382784833346609"><ele>260.5</ele><time>2026-04-19T07:49:27Z</time></trkpt><trkpt lat="43.279003072761284" lon="12.382702785801323"><ele>262.0</ele><time>2026-04-19T07:49:28Z</time></trkpt><trkpt lat="43.2792590318855" lon="12.382608451613255"><ele>262.0</ele><time>2026-04-19T07:49:29Z</time></trkpt><trkpt lat="43.27952438540595" lon="12.382497660225313"><ele>262.0</ele><time>2026-04-19T07:49:30Z</time></trkpt><trkpt lat="43.27978792477487" lon="12.382372446891285"><ele>263.5</ele><time>2026-04-19T07:49:31Z</time></trkpt><trkpt lat="43.280050321730336" lon="12.382219246092156"><ele>265.0</ele><time>2026-04-19T07:49:32Z</time></trkpt><trkpt lat="43.28031336356721" lon="12.38204776570349"><ele>265.5</ele><time>2026-04-19T07:49:33Z</time></trkpt><trkpt lat="43.28057547392682" lon="12.381858972840133"><ele>266.0</ele><time>2026-04-19T07:49:34Z</time></trkpt><trkpt lat="43.28083320651725" lon="12.381652217813972"><ele>266.0</ele><time>2026-04-19T07:49:35Z</time></trkpt><trkpt lat="43.281084408907816" lon="12.381425437834084"><ele>266.0</ele><time>2026-04-19T07:49:36Z</time></trkpt><trkpt lat="43.281329241206414" lon="12.381177890977169"><ele>265.0</ele><time>2026-04-19T07:49:37Z</time></trkpt><trkpt lat="43.28157035763017" lon="12.380908550604453"><ele>264.0</ele><time>2026-04-19T07:49:38Z</time></trkpt><trkpt lat="43.28180852574473" lon="12.380616934742966"><ele>263.5</ele><time>2026-04-19T07:49:39Z</time></trkpt><trkpt lat="43.28204216961544" lon="12.380307840204615"><ele>263.0</ele><time>2026-04-19T07:49:40Z</time></trkpt><trkpt lat="43.28227248569345" lon="12.37999144983137"><ele>259.5</ele><time>2026-04-19T07:49:41Z</time></trkpt><trkpt lat="43.28250469332241" lon="12.379678976222118"><ele>256.0</ele><time>2026-04-19T07:49:42Z</time></trkpt><trkpt lat="43.282738085080496" lon="12.379367262352615"><ele>256.0</ele><time>2026-04-19T07:49:43Z</time></trkpt><trkpt lat="43.282972263881085" lon="12.37905592959099"><ele>256.0</ele><time>2026-04-19T07:49:44Z</time></trkpt><trkpt lat="43.283203740863804" lon="12.378744315833197"><ele>255.0</ele><time>2026-04-19T07:49:45Z</time></trkpt><trkpt lat="43.283433549398865" lon="12.378436251990468"><ele>254.0</ele><time>2026-04-19T07:49:46Z</time></trkpt><trkpt lat="43.283663781488215" lon="12.378130676806231"><ele>254.0</ele><time>2026-04-19T07:49:47Z</time></trkpt><trkpt lat="43.28389135157552" lon="12.377825186020072"><ele>254.0</ele><time>2026-04-19T07:49:48Z</time></trkpt><trkpt lat="43.28411781220108" lon="12.377519148154658"><ele>254.0</ele><time>2026-04-19T07:49:49Z</time></trkpt><trkpt lat="43.284345201395745" lon="12.377215120065932"><ele>254.0</ele><time>2026-04-19T07:49:50Z</time></trkpt><trkpt lat="43.28457275176434" lon="12.376912654300327"><ele>252.5</ele><time>2026-04-19T07:49:51Z</time></trkpt><trkpt lat="43.28479841176571" lon="12.376610619570657"><ele>251.0</ele><time>2026-04-19T07:49:51.999Z</time></trkpt><trkpt lat="43.28502247258146" lon="12.376312993401632"><ele>249.5</ele><time>2026-04-19T07:49:52.999Z</time></trkpt><trkpt lat="43.28524703363295" lon="12.376011084175456"><ele>248.0</ele><time>2026-04-19T07:49:53.999Z</time></trkpt><trkpt lat="43.285470302840125" lon="12.375713732990418"><ele>249.0</ele><time>2026-04-19T07:49:54.999Z</time></trkpt><trkpt lat="43.28569326377489" lon="12.375416498677673"><ele>250.0</ele><time>2026-04-19T07:49:55.999Z</time></trkpt><trkpt lat="43.28591398339003" lon="12.375117162097872"><ele>250.0</ele><time>2026-04-19T07:49:56.999Z</time></trkpt><trkpt lat="43.28612187505503" lon="12.37483528572721"><ele>250.0</ele><time>2026-04-19T07:49:57.999Z</time></trkpt><trkpt lat="43.28633160090765" lon="12.374555172531363"><ele>249.5</ele><time>2026-04-19T07:49:58.999Z</time></trkpt><trkpt lat="43.28654311529259" lon="12.374272790100665"><ele>249.0</ele><time>2026-04-19T07:49:59.999Z</time></trkpt><trkpt lat="43.28675524716355" lon="12.37398805605371"><ele>249.0</ele><time>2026-04-19T07:50:00.999Z</time></trkpt><trkpt lat="43.286967040546344" lon="12.373701057856131"><ele>249.0</ele><time>2026-04-19T07:50:01.999Z</time></trkpt><trkpt lat="43.2871828411337" lon="12.373413480481627"><ele>248.0</ele><time>2026-04-19T07:50:02.999Z</time></trkpt><trkpt lat="43.28740118774115" lon="12.373122710227776"><ele>247.0</ele><time>2026-04-19T07:50:03.999Z</time></trkpt><trkpt lat="43.287618664479176" lon="12.372829347227414"><ele>246.0</ele><time>2026-04-19T07:50:04.999Z</time></trkpt><trkpt lat="43.28783421273753" lon="12.372535874339498"><ele>245.0</ele><time>2026-04-19T07:50:05.999Z</time></trkpt><trkpt lat="43.28804728626465" lon="12.372246479571974"><ele>244.0</ele><time>2026-04-19T07:50:06.999Z</time></trkpt><trkpt lat="43.288259488040474" lon="12.371960224198894"><ele>243.0</ele><time>2026-04-19T07:50:07.999Z</time></trkpt><trkpt lat="43.288469595982605" lon="12.371681155656669"><ele>243.0</ele><time>2026-04-19T07:50:08.999Z</time></trkpt><trkpt lat="43.2886799016836" lon="12.37140096978867"><ele>243.0</ele><time>2026-04-19T07:50:09.999Z</time></trkpt><trkpt lat="43.28888656070901" lon="12.371120746843506"><ele>243.0</ele><time>2026-04-19T07:50:10.999Z</time></trkpt><trkpt lat="43.289092807957736" lon="12.370842063925489"><ele>243.0</ele><time>2026-04-19T07:50:11.999Z</time></trkpt><trkpt lat="43.28930254398373" lon="12.370568038917952"><ele>243.5</ele><time>2026-04-19T07:50:12.999Z</time></trkpt><trkpt lat="43.28951314952892" lon="12.3702884000956"><ele>244.0</ele><time>2026-04-19T07:50:13.999Z</time></trkpt><trkpt lat="43.28972315233614" lon="12.37000717792558"><ele>242.0</ele><time>2026-04-19T07:50:14.999Z</time></trkpt><trkpt lat="43.289928900252484" lon="12.369728538156654"><ele>240.0</ele><time>2026-04-19T07:50:15.999Z</time></trkpt><trkpt lat="43.290134398451585" lon="12.369450036521872"><ele>238.5</ele><time>2026-04-19T07:50:16.999Z</time></trkpt><trkpt lat="43.29033978978698" lon="12.369175198082212"><ele>237.0</ele><time>2026-04-19T07:50:17.999Z</time></trkpt><trkpt lat="43.29054579691299" lon="12.368898169163199"><ele>238.0</ele><time>2026-04-19T07:50:18.999Z</time></trkpt><trkpt lat="43.290751066676805" lon="12.368622084051509"><ele>239.0</ele><time>2026-04-19T07:50:19.999Z</time></trkpt><trkpt lat="43.29095547700001" lon="12.368347237965398"><ele>239.0</ele><time>2026-04-19T07:50:20.999Z</time></trkpt><trkpt lat="43.291162939571365" lon="12.368069097922728"><ele>239.0</ele><time>2026-04-19T07:50:21.999Z</time></trkpt><trkpt lat="43.29137251783224" lon="12.367787636432388"><ele>240.5</ele><time>2026-04-19T07:50:22.999Z</time></trkpt><trkpt lat="43.29158483855374" lon="12.367501026766256"><ele>242.0</ele><time>2026-04-19T07:50:23.999Z</time></trkpt><trkpt lat="43.29179776506745" lon="12.367213554582326"><ele>242.0</ele><time>2026-04-19T07:50:24.999Z</time></trkpt><trkpt lat="43.29201029161552" lon="12.366928950255547"><ele>242.0</ele><time>2026-04-19T07:50:25.999Z</time></trkpt><trkpt lat="43.29222456081224" lon="12.366643264883837"><ele>244.0</ele><time>2026-04-19T07:50:26.999Z</time></trkpt><trkpt lat="43.29244382629484" lon="12.366352571136519"><ele>246.0</ele><time>2026-04-19T07:50:27.999Z</time></trkpt><trkpt lat="43.29266165409659" lon="12.366062231946401"><ele>246.0</ele><time>2026-04-19T07:50:28.999Z</time></trkpt><trkpt lat="43.292878776402084" lon="12.365767469918374"><ele>246.0</ele><time>2026-04-19T07:50:29.999Z</time></trkpt><trkpt lat="43.29309711714394" lon="12.365471647458772"><ele>245.5</ele><time>2026-04-19T07:50:30.999Z</time></trkpt><trkpt lat="43.29331449107894" lon="12.365177392368615"><ele>245.0</ele><time>2026-04-19T07:50:31.999Z</time></trkpt><trkpt lat="43.293531989858536" lon="12.364887460175654"><ele>245.0</ele><time>2026-04-19T07:50:32.999Z</time></trkpt><trkpt lat="43.29375031553621" lon="12.36459627046836"><ele>245.0</ele><time>2026-04-19T07:50:33.999Z</time></trkpt><trkpt lat="43.293967067313936" lon="12.364306128613432"><ele>247.5</ele><time>2026-04-19T07:50:34.999Z</time></trkpt><trkpt lat="43.29418583174625" lon="12.364014315249149"><ele>250.0</ele><time>2026-04-19T07:50:35.999Z</time></trkpt><trkpt lat="43.29440597457416" lon="12.363716598645071"><ele>253.0</ele><time>2026-04-19T07:50:36.999Z</time></trkpt><trkpt lat="43.294625433205084" lon="12.363415074626644"><ele>256.0</ele><time>2026-04-19T07:50:37.999Z</time></trkpt><trkpt lat="43.29484525109804" lon="12.363112166767745"><ele>261.5</ele><time>2026-04-19T07:50:38.999Z</time></trkpt><trkpt lat="43.29506420834502" lon="12.362813849194714"><ele>267.0</ele><time>2026-04-19T07:50:39.999Z</time></trkpt><trkpt lat="43.29528472269704" lon="12.362520000368567"><ele>267.0</ele><time>2026-04-19T07:50:40.999Z</time></trkpt><trkpt lat="43.295504597319535" lon="12.36222521548561"><ele>267.0</ele><time>2026-04-19T07:50:41.999Z</time></trkpt><trkpt lat="43.29572127122707" lon="12.361933550127079"><ele>270.5</ele><time>2026-04-19T07:50:42.999Z</time></trkpt><trkpt lat="43.295935991803624" lon="12.361641566947375"><ele>274.0</ele><time>2026-04-19T07:50:43.999Z</time></trkpt><trkpt lat="43.296148559948456" lon="12.361355997659565"><ele>274.0</ele><time>2026-04-19T07:50:44.999Z</time></trkpt><trkpt lat="43.296359836576926" lon="12.361076463189411"><ele>274.0</ele><time>2026-04-19T07:50:45.999Z</time></trkpt><trkpt lat="43.29657160629748" lon="12.360794777385497"><ele>274.0</ele><time>2026-04-19T07:50:46.999Z</time></trkpt><trkpt lat="43.2967803390576" lon="12.3605107174876"><ele>274.0</ele><time>2026-04-19T07:50:47.999Z</time></trkpt><trkpt lat="43.2969884504086" lon="12.360234270736639"><ele>274.0</ele><time>2026-04-19T07:50:48.999Z</time></trkpt><trkpt lat="43.29719645516913" lon="12.359952628723528"><ele>274.0</ele><time>2026-04-19T07:50:49.999Z</time></trkpt><trkpt lat="43.297405122511385" lon="12.359671252303523"><ele>274.0</ele><time>2026-04-19T07:50:50.999Z</time></trkpt><trkpt lat="43.29761444024643" lon="12.359387808827897"><ele>274.0</ele><time>2026-04-19T07:50:51.999Z</time></trkpt><trkpt lat="43.29781454559458" lon="12.359113667763511"><ele>273.0</ele><time>2026-04-19T07:50:52.999Z</time></trkpt><trkpt lat="43.297998714628136" lon="12.358866185372381"><ele>272.0</ele><time>2026-04-19T07:50:53.999Z</time></trkpt><trkpt lat="43.29817107901421" lon="12.358630248516201"><ele>274.0</ele><time>2026-04-19T07:50:54.999Z</time></trkpt><trkpt lat="43.29836105671729" lon="12.358392698089851"><ele>276.0</ele><time>2026-04-19T07:50:55.999Z</time></trkpt><trkpt lat="43.298552353762034" lon="12.35813762103837"><ele>275.0</ele><time>2026-04-19T07:50:56.999Z</time></trkpt><trkpt lat="43.29874934283059" lon="12.357872216255197"><ele>274.0</ele><time>2026-04-19T07:50:57.998Z</time></trkpt><trkpt lat="43.29894868727077" lon="12.357602616011764"><ele>275.5</ele><time>2026-04-19T07:50:58.998Z</time></trkpt><trkpt lat="43.29914971796474" lon="12.35733074464541"><ele>277.0</ele><time>2026-04-19T07:50:59.998Z</time></trkpt><trkpt lat="43.29935117153892" lon="12.357063176850472"><ele>277.0</ele><time>2026-04-19T07:51:00.998Z</time></trkpt><trkpt lat="43.299562022740936" lon="12.356807595654066"><ele>277.0</ele><time>2026-04-19T07:51:01.998Z</time></trkpt><trkpt lat="43.29977843720585" lon="12.356561885032875"><ele>278.0</ele><time>2026-04-19T07:51:02.998Z</time></trkpt><trkpt lat="43.29999991293964" lon="12.35633620526865"><ele>279.0</ele><time>2026-04-19T07:51:03.998Z</time></trkpt><trkpt lat="43.30022760064876" lon="12.356122308866015"><ele>279.0</ele><time>2026-04-19T07:51:04.998Z</time></trkpt><trkpt lat="43.30044188162218" lon="12.355942992611988"><ele>279.0</ele><time>2026-04-19T07:51:05.998Z</time></trkpt><trkpt lat="43.30065878764523" lon="12.35576656842753"><ele>283.0</ele><time>2026-04-19T07:51:06.998Z</time></trkpt><trkpt lat="43.3008843520773" lon="12.355598888080214"><ele>287.0</ele><time>2026-04-19T07:51:07.998Z</time></trkpt><trkpt lat="43.3011175574209" lon="12.355437037033147"><ele>287.0</ele><time>2026-04-19T07:51:08.998Z</time></trkpt><trkpt lat="43.30135201821421" lon="12.355276243576087"><ele>287.0</ele><time>2026-04-19T07:51:09.998Z</time></trkpt><trkpt lat="43.301588410628256" lon="12.355115101238443"><ele>287.0</ele><time>2026-04-19T07:51:10.998Z</time></trkpt><trkpt lat="43.301824024028946" lon="12.354949666298413"><ele>287.0</ele><time>2026-04-19T07:51:11.998Z</time></trkpt><trkpt lat="43.30206266277487" lon="12.354784114273972"><ele>283.0</ele><time>2026-04-19T07:51:12.998Z</time></trkpt><trkpt lat="43.302303493298886" lon="12.354618438836749"><ele>279.0</ele><time>2026-04-19T07:51:14Z</time></trkpt><trkpt lat="43.30254690905646" lon="12.354447549913498"><ele>279.0</ele><time>2026-04-19T07:51:15Z</time></trkpt><trkpt lat="43.30280294932044" lon="12.354268897092986"><ele>279.0</ele><time>2026-04-19T07:51:16Z</time></trkpt><trkpt lat="43.30307003651946" lon="12.354084872557712"><ele>282.0</ele><time>2026-04-19T07:51:17Z</time></trkpt><trkpt lat="43.30334349608813" lon="12.353894348430478"><ele>285.0</ele><time>2026-04-19T07:51:18Z</time></trkpt><trkpt lat="43.30361978784638" lon="12.353704509645597"><ele>285.0</ele><time>2026-04-19T07:51:19Z</time></trkpt><trkpt lat="43.30389751569051" lon="12.353516583558031"><ele>285.0</ele><time>2026-04-19T07:51:20Z</time></trkpt><trkpt lat="43.30417797743087" lon="12.353359014614906"><ele>288.0</ele><time>2026-04-19T07:51:21Z</time></trkpt><trkpt lat="43.304450854567676" lon="12.353233576941648"><ele>291.0</ele><time>2026-04-19T07:51:22Z</time></trkpt><trkpt lat="43.30471455803188" lon="12.353133593616683"><ele>292.0</ele><time>2026-04-19T07:51:23Z</time></trkpt><trkpt lat="43.30498621553918" lon="12.353061109325996"><ele>293.0</ele><time>2026-04-19T07:51:24Z</time></trkpt><trkpt lat="43.30526115162309" lon="12.353014031892876"><ele>293.0</ele><time>2026-04-19T07:51:25Z</time></trkpt><trkpt lat="43.305538446083126" lon="12.352992295266944"><ele>293.0</ele><time>2026-04-19T07:51:26Z</time></trkpt><trkpt lat="43.30581547154182" lon="12.352996382106744"><ele>294.5</ele><time>2026-04-19T07:51:27Z</time></trkpt><trkpt lat="43.306091590149045" lon="12.353021903187832"><ele>296.0</ele><time>2026-04-19T07:51:28Z</time></trkpt><trkpt lat="43.30636594059695" lon="12.353059405150496"><ele>294.0</ele><time>2026-04-19T07:51:29Z</time></trkpt><trkpt lat="43.3066198675079" lon="12.353095265634686"><ele>292.0</ele><time>2026-04-19T07:51:30Z</time></trkpt><trkpt lat="43.306863544799974" lon="12.353127587641294"><ele>292.0</ele><time>2026-04-19T07:51:31Z</time></trkpt><trkpt lat="43.307116207762796" lon="12.35315621656192"><ele>292.0</ele><time>2026-04-19T07:51:32Z</time></trkpt><trkpt lat="43.307376301712054" lon="12.353176313292224"><ele>291.0</ele><time>2026-04-19T07:51:33Z</time></trkpt><trkpt lat="43.30763848769944" lon="12.353180489435745"><ele>290.0</ele><time>2026-04-19T07:51:34Z</time></trkpt><trkpt lat="43.30790864272426" lon="12.353164934897492"><ele>293.0</ele><time>2026-04-19T07:51:35Z</time></trkpt><trkpt lat="43.308178708483304" lon="12.353127460145892"><ele>296.0</ele><time>2026-04-19T07:51:36Z</time></trkpt><trkpt lat="43.30845444114315" lon="12.353105319880369"><ele>295.5</ele><time>2026-04-19T07:51:37Z</time></trkpt><trkpt lat="43.30872792401487" lon="12.353013500564426"><ele>295.0</ele><time>2026-04-19T07:51:38Z</time></trkpt><trkpt lat="43.30899757099525" lon="12.35290561203788"><ele>295.0</ele><time>2026-04-19T07:51:39Z</time></trkpt><trkpt lat="43.3092573860991" lon="12.352772196203073"><ele>295.0</ele><time>2026-04-19T07:51:40Z</time></trkpt><trkpt lat="43.30950553276338" lon="12.3526204785258"><ele>296.0</ele><time>2026-04-19T07:51:41Z</time></trkpt><trkpt lat="43.30974605013452" lon="12.352453677705403"><ele>297.0</ele><time>2026-04-19T07:51:42Z</time></trkpt><trkpt lat="43.30996211687523" lon="12.352284253942964"><ele>294.5</ele><time>2026-04-19T07:51:43Z</time></trkpt><trkpt lat="43.31015915245939" lon="12.35210774310613"><ele>292.0</ele><time>2026-04-19T07:51:44Z</time></trkpt><trkpt lat="43.310348675542436" lon="12.351901356364944"><ele>292.0</ele><time>2026-04-19T07:51:45Z</time></trkpt><trkpt lat="43.310540063031155" lon="12.351686544080946"><ele>292.0</ele><time>2026-04-19T07:51:46Z</time></trkpt><trkpt lat="43.31071771298614" lon="12.351433024028431"><ele>289.5</ele><time>2026-04-19T07:51:47Z</time></trkpt><trkpt lat="43.31090586324319" lon="12.35119697606439"><ele>287.0</ele><time>2026-04-19T07:51:48Z</time></trkpt><trkpt lat="43.311073856402174" lon="12.350925321923958"><ele>287.0</ele><time>2026-04-19T07:51:49Z</time></trkpt><trkpt lat="43.31124024431204" lon="12.350644238914061"><ele>287.0</ele><time>2026-04-19T07:51:50Z</time></trkpt><trkpt lat="43.31138004983665" lon="12.350337391963137"><ele>290.5</ele><time>2026-04-19T07:51:51Z</time></trkpt><trkpt lat="43.31152867470678" lon="12.350028387476202"><ele>294.0</ele><time>2026-04-19T07:51:52Z</time></trkpt><trkpt lat="43.311648412403905" lon="12.349710311229755"><ele>295.0</ele><time>2026-04-19T07:51:53Z</time></trkpt><trkpt lat="43.31176281003655" lon="12.349377012191669"><ele>296.0</ele><time>2026-04-19T07:51:54Z</time></trkpt><trkpt lat="43.311873239978574" lon="12.34903715703243"><ele>297.0</ele><time>2026-04-19T07:51:55Z</time></trkpt><trkpt lat="43.31198665457751" lon="12.348684709278341"><ele>298.0</ele><time>2026-04-19T07:51:56Z</time></trkpt><trkpt lat="43.31208435870928" lon="12.34831475364708"><ele>298.0</ele><time>2026-04-19T07:51:56.999Z</time></trkpt><trkpt lat="43.312160781829036" lon="12.347953235739043"><ele>298.0</ele><time>2026-04-19T07:51:57.999Z</time></trkpt><trkpt lat="43.3123166794785" lon="12.34762861177097"><ele>298.0</ele><time>2026-04-19T07:51:58.999Z</time></trkpt><trkpt lat="43.31237741757239" lon="12.3472376178059"><ele>298.0</ele><time>2026-04-19T07:51:59.999Z</time></trkpt><trkpt lat="43.31253263318488" lon="12.346877271717657"><ele>298.0</ele><time>2026-04-19T07:52:00.999Z</time></trkpt><trkpt lat="43.31265343913389" lon="12.346495364816567"><ele>298.0</ele><time>2026-04-19T07:52:01.999Z</time></trkpt><trkpt lat="43.31277628767969" lon="12.346128465847928"><ele>298.0</ele><time>2026-04-19T07:52:02.999Z</time></trkpt><trkpt lat="43.31290005647492" lon="12.345767117585517"><ele>298.0</ele><time>2026-04-19T07:52:03.999Z</time></trkpt><trkpt lat="43.31301572115291" lon="12.345397081554344"><ele>290.5</ele><time>2026-04-19T07:52:04.999Z</time></trkpt><trkpt lat="43.31314489045038" lon="12.345040054554337"><ele>283.0</ele><time>2026-04-19T07:52:05.999Z</time></trkpt><trkpt lat="43.313258048700725" lon="12.344681678047174"><ele>279.5</ele><time>2026-04-19T07:52:06.999Z</time></trkpt><trkpt lat="43.313379371741014" lon="12.34432405659592"><ele>276.0</ele><time>2026-04-19T07:52:07.999Z</time></trkpt><trkpt lat="43.31349403985214" lon="12.343967766452025"><ele>272.5</ele><time>2026-04-19T07:52:08.999Z</time></trkpt><trkpt lat="43.31361758471857" lon="12.343610875443309"><ele>269.0</ele><time>2026-04-19T07:52:09.999Z</time></trkpt><trkpt lat="43.31373070429274" lon="12.343253871897065"><ele>268.0</ele><time>2026-04-19T07:52:10.999Z</time></trkpt><trkpt lat="43.31385207422223" lon="12.342898788806867"><ele>267.0</ele><time>2026-04-19T07:52:11.999Z</time></trkpt><trkpt lat="43.31396789567972" lon="12.342536335835007"><ele>270.5</ele><time>2026-04-19T07:52:12.999Z</time></trkpt><trkpt lat="43.314089853492945" lon="12.342192161390768"><ele>274.0</ele><time>2026-04-19T07:52:13.999Z</time></trkpt><trkpt lat="43.314205348254575" lon="12.341825265826971"><ele>274.0</ele><time>2026-04-19T07:52:14.999Z</time></trkpt><trkpt lat="43.31432376303767" lon="12.341468891057088"><ele>274.0</ele><time>2026-04-19T07:52:15.999Z</time></trkpt><trkpt lat="43.31444016256052" lon="12.341116146675251"><ele>275.0</ele><time>2026-04-19T07:52:16.999Z</time></trkpt><trkpt lat="43.3145496415508" lon="12.340779964860552"><ele>276.0</ele><time>2026-04-19T07:52:17.999Z</time></trkpt><trkpt lat="43.314654766592206" lon="12.34045553965799"><ele>282.5</ele><time>2026-04-19T07:52:18.999Z</time></trkpt><trkpt lat="43.31476202253567" lon="12.340131364825181"><ele>289.0</ele><time>2026-04-19T07:52:19.999Z</time></trkpt><trkpt lat="43.31486738876974" lon="12.339800337770777"><ele>289.0</ele><time>2026-04-19T07:52:20.999Z</time></trkpt><trkpt lat="43.31497993373449" lon="12.339463466747144"><ele>289.0</ele><time>2026-04-19T07:52:21.999Z</time></trkpt><trkpt lat="43.315094622510834" lon="12.33911855794492"><ele>290.5</ele><time>2026-04-19T07:52:22.999Z</time></trkpt><trkpt lat="43.315209401427424" lon="12.338760007379209"><ele>292.0</ele><time>2026-04-19T07:52:23.999Z</time></trkpt><trkpt lat="43.31532734315829" lon="12.338395135832789"><ele>292.5</ele><time>2026-04-19T07:52:24.999Z</time></trkpt><trkpt lat="43.315449495301586" lon="12.338021311684198"><ele>293.0</ele><time>2026-04-19T07:52:25.999Z</time></trkpt><trkpt lat="43.31557561407622" lon="12.337650220438457"><ele>293.0</ele><time>2026-04-19T07:52:26.999Z</time></trkpt><trkpt lat="43.31569981542462" lon="12.337268895929947"><ele>293.0</ele><time>2026-04-19T07:52:27.999Z</time></trkpt><trkpt lat="43.315825207868585" lon="12.336884580695536"><ele>291.5</ele><time>2026-04-19T07:52:28.999Z</time></trkpt><trkpt lat="43.315948704336805" lon="12.336497267720302"><ele>290.0</ele><time>2026-04-19T07:52:29.999Z</time></trkpt><trkpt lat="43.316073432601854" lon="12.336113970493932"><ele>289.0</ele><time>2026-04-19T07:52:30.999Z</time></trkpt><trkpt lat="43.316196055423795" lon="12.335725489914571"><ele>288.0</ele><time>2026-04-19T07:52:31.999Z</time></trkpt><trkpt lat="43.31632362802169" lon="12.33533460617681"><ele>285.5</ele><time>2026-04-19T07:52:32.999Z</time></trkpt><trkpt lat="43.31645562433955" lon="12.334938278116974"><ele>283.0</ele><time>2026-04-19T07:52:33.999Z</time></trkpt><trkpt lat="43.31659749938255" lon="12.33453462526189"><ele>281.5</ele><time>2026-04-19T07:52:34.999Z</time></trkpt><trkpt lat="43.316750772688586" lon="12.334122984189936"><ele>280.0</ele><time>2026-04-19T07:52:35.999Z</time></trkpt><trkpt lat="43.31691178543146" lon="12.333712665513193"><ele>280.0</ele><time>2026-04-19T07:52:36.999Z</time></trkpt><trkpt lat="43.31708385055288" lon="12.333307958490302"><ele>280.0</ele><time>2026-04-19T07:52:37.999Z</time></trkpt><trkpt lat="43.31726370798855" lon="12.33290727605439"><ele>278.0</ele><time>2026-04-19T07:52:38.999Z</time></trkpt><trkpt lat="43.31745274458825" lon="12.332508965199919"><ele>276.0</ele><time>2026-04-19T07:52:39.999Z</time></trkpt><trkpt lat="43.317648060826365" lon="12.33211911193381"><ele>274.5</ele><time>2026-04-19T07:52:40.999Z</time></trkpt><trkpt lat="43.3178367557317" lon="12.331738167307549"><ele>273.0</ele><time>2026-04-19T07:52:41.999Z</time></trkpt><trkpt lat="43.31802180605118" lon="12.331355741532583"><ele>274.0</ele><time>2026-04-19T07:52:42.999Z</time></trkpt><trkpt lat="43.31820920396384" lon="12.330978129385077"><ele>275.0</ele><time>2026-04-19T07:52:43.999Z</time></trkpt><trkpt lat="43.31839781518491" lon="12.330604981641178"><ele>274.0</ele><time>2026-04-19T07:52:44.999Z</time></trkpt><trkpt lat="43.31858715329471" lon="12.33023237477717"><ele>273.0</ele><time>2026-04-19T07:52:45.999Z</time></trkpt><trkpt lat="43.31877364024383" lon="12.329861855654313"><ele>274.0</ele><time>2026-04-19T07:52:46.999Z</time></trkpt><trkpt lat="43.31895984360631" lon="12.329493380359537"><ele>275.0</ele><time>2026-04-19T07:52:47.999Z</time></trkpt><trkpt lat="43.31914199169745" lon="12.329106452665208"><ele>275.0</ele><time>2026-04-19T07:52:48.999Z</time></trkpt><trkpt lat="43.31933139274816" lon="12.32869246921451"><ele>275.0</ele><time>2026-04-19T07:52:49.999Z</time></trkpt><trkpt lat="43.31953667212302" lon="12.328265309284081"><ele>272.0</ele><time>2026-04-19T07:52:50.999Z</time></trkpt><trkpt lat="43.319760854491804" lon="12.327824185504335"><ele>269.0</ele><time>2026-04-19T07:52:51.999Z</time></trkpt><trkpt lat="43.31997760750576" lon="12.32741692573585"><ele>263.5</ele><time>2026-04-19T07:52:52.999Z</time></trkpt><trkpt lat="43.32017934673527" lon="12.327020980491586"><ele>258.0</ele><time>2026-04-19T07:52:53.999Z</time></trkpt><trkpt lat="43.32036856384468" lon="12.326639483010476"><ele>256.0</ele><time>2026-04-19T07:52:54.999Z</time></trkpt><trkpt lat="43.32053480634343" lon="12.326281762361516"><ele>254.0</ele><time>2026-04-19T07:52:55.999Z</time></trkpt><trkpt lat="43.32068525187383" lon="12.325939796667308"><ele>254.0</ele><time>2026-04-19T07:52:56.999Z</time></trkpt><trkpt lat="43.32082631249675" lon="12.325620495917928"><ele>254.0</ele><time>2026-04-19T07:52:57.999Z</time></trkpt><trkpt lat="43.3209619016207" lon="12.325315950061842"><ele>254.0</ele><time>2026-04-19T07:52:58.999Z</time></trkpt><trkpt lat="43.32109567942136" lon="12.32500899803848"><ele>254.0</ele><time>2026-04-19T07:52:59.999Z</time></trkpt><trkpt lat="43.32123336737459" lon="12.324684136364906"><ele>253.0</ele><time>2026-04-19T07:53:00.999Z</time></trkpt><trkpt lat="43.32137160777131" lon="12.324340783445038"><ele>252.0</ele><time>2026-04-19T07:53:01.999Z</time></trkpt><trkpt lat="43.32151008798412" lon="12.323991907786484"><ele>252.0</ele><time>2026-04-19T07:53:02.998Z</time></trkpt><trkpt lat="43.321650357038344" lon="12.323637561734941"><ele>252.0</ele><time>2026-04-19T07:53:03.998Z</time></trkpt><trkpt lat="43.32179336178039" lon="12.323282391831361"><ele>251.0</ele><time>2026-04-19T07:53:04.998Z</time></trkpt><trkpt lat="43.3219369568358" lon="12.322921857286216"><ele>250.0</ele><time>2026-04-19T07:53:05.998Z</time></trkpt><trkpt lat="43.32208336908741" lon="12.32256150331171"><ele>250.0</ele><time>2026-04-19T07:53:06.998Z</time></trkpt><trkpt lat="43.32223364769557" lon="12.322201533935408"><ele>250.0</ele><time>2026-04-19T07:53:07.998Z</time></trkpt><trkpt lat="43.32238943459686" lon="12.321849146174127"><ele>250.0</ele><time>2026-04-19T07:53:08.998Z</time></trkpt><trkpt lat="43.322552222156425" lon="12.321505810844787"><ele>250.0</ele><time>2026-04-19T07:53:09.998Z</time></trkpt><trkpt lat="43.32272196971285" lon="12.321162709733164"><ele>249.5</ele><time>2026-04-19T07:53:10.998Z</time></trkpt><trkpt lat="43.32289833941941" lon="12.320824578637438"><ele>249.0</ele><time>2026-04-19T07:53:11.998Z</time></trkpt><trkpt lat="43.323081267233846" lon="12.320495581625702"><ele>250.0</ele><time>2026-04-19T07:53:12.998Z</time></trkpt><trkpt lat="43.32327373230329" lon="12.320170127818558"><ele>251.0</ele><time>2026-04-19T07:53:13.998Z</time></trkpt><trkpt lat="43.323470598657366" lon="12.319844801710214"><ele>250.5</ele><time>2026-04-19T07:53:14.998Z</time></trkpt><trkpt lat="43.323675371770236" lon="12.319523330714183"><ele>250.0</ele><time>2026-04-19T07:53:15.998Z</time></trkpt><trkpt lat="43.32388367202645" lon="12.319210300329308"><ele>251.5</ele><time>2026-04-19T07:53:16.998Z</time></trkpt><trkpt lat="43.32409996790173" lon="12.318897504163141"><ele>253.0</ele><time>2026-04-19T07:53:17.998Z</time></trkpt><trkpt lat="43.324328106370686" lon="12.318566907911109"><ele>253.0</ele><time>2026-04-19T07:53:18.998Z</time></trkpt><trkpt lat="43.32456374394037" lon="12.31823758902795"><ele>253.0</ele><time>2026-04-19T07:53:20Z</time></trkpt><trkpt lat="43.32482566274299" lon="12.317918295278021"><ele>254.5</ele><time>2026-04-19T07:53:21Z</time></trkpt><trkpt lat="43.32509849814613" lon="12.31761241367321"><ele>256.0</ele><time>2026-04-19T07:53:22Z</time></trkpt><trkpt lat="43.32537376766699" lon="12.317321357848"><ele>256.5</ele><time>2026-04-19T07:53:23Z</time></trkpt><trkpt lat="43.32565255032621" lon="12.31704555357456"><ele>257.0</ele><time>2026-04-19T07:53:24Z</time></trkpt><trkpt lat="43.325933055891404" lon="12.31679027090984"><ele>257.0</ele><time>2026-04-19T07:53:25Z</time></trkpt><trkpt lat="43.32621735621942" lon="12.31654343660825"><ele>257.0</ele><time>2026-04-19T07:53:26Z</time></trkpt><trkpt lat="43.32650068802908" lon="12.316289666063073"><ele>255.5</ele><time>2026-04-19T07:53:27Z</time></trkpt><trkpt lat="43.32679491491052" lon="12.316037563752385"><ele>254.0</ele><time>2026-04-19T07:53:28Z</time></trkpt><trkpt lat="43.327107198188365" lon="12.31579174231295"><ele>251.5</ele><time>2026-04-19T07:53:29Z</time></trkpt><trkpt lat="43.32742492446755" lon="12.315560487250655"><ele>249.0</ele><time>2026-04-19T07:53:30Z</time></trkpt><trkpt lat="43.327744303144634" lon="12.3153512277798"><ele>249.0</ele><time>2026-04-19T07:53:31Z</time></trkpt><trkpt lat="43.32805945559083" lon="12.315157648002558"><ele>249.0</ele><time>2026-04-19T07:53:32Z</time></trkpt><trkpt lat="43.32837064530955" lon="12.314967606199996"><ele>248.5</ele><time>2026-04-19T07:53:33Z</time></trkpt><trkpt lat="43.32868059991452" lon="12.314774239559302"><ele>248.0</ele><time>2026-04-19T07:53:34Z</time></trkpt><trkpt lat="43.3289902746749" lon="12.314584530849272"><ele>247.5</ele><time>2026-04-19T07:53:35Z</time></trkpt><trkpt lat="43.329303047525656" lon="12.314392679047408"><ele>247.0</ele><time>2026-04-19T07:53:36Z</time></trkpt><trkpt lat="43.32961487826968" lon="12.314206542281292"><ele>246.5</ele><time>2026-04-19T07:53:37Z</time></trkpt><trkpt lat="43.329922475018606" lon="12.314021083331372"><ele>246.0</ele><time>2026-04-19T07:53:38Z</time></trkpt><trkpt lat="43.33021892752565" lon="12.313842670905014"><ele>246.5</ele><time>2026-04-19T07:53:39Z</time></trkpt><trkpt lat="43.33049975200845" lon="12.313661715491621"><ele>247.0</ele><time>2026-04-19T07:53:40Z</time></trkpt><trkpt lat="43.33077953592025" lon="12.313478385280625"><ele>247.0</ele><time>2026-04-19T07:53:41Z</time></trkpt><trkpt lat="43.33106488162059" lon="12.313305713199368"><ele>247.0</ele><time>2026-04-19T07:53:42Z</time></trkpt><trkpt lat="43.33134283179439" lon="12.313134429809752"><ele>245.0</ele><time>2026-04-19T07:53:43Z</time></trkpt><trkpt lat="43.33161922091368" lon="12.312955232663422"><ele>243.0</ele><time>2026-04-19T07:53:44Z</time></trkpt><trkpt lat="43.33189479629173" lon="12.312795280766993"><ele>243.0</ele><time>2026-04-19T07:53:45Z</time></trkpt><trkpt lat="43.332162678262456" lon="12.312607592143063"><ele>243.0</ele><time>2026-04-19T07:53:46Z</time></trkpt><trkpt lat="43.33244113737487" lon="12.312434617678365"><ele>243.0</ele><time>2026-04-19T07:53:47Z</time></trkpt><trkpt lat="43.3327206774928" lon="12.312256192549638"><ele>243.0</ele><time>2026-04-19T07:53:48Z</time></trkpt><trkpt lat="43.332995597759286" lon="12.312085220780514"><ele>243.5</ele><time>2026-04-19T07:53:49Z</time></trkpt><trkpt lat="43.33327766773782" lon="12.311910613287576"><ele>244.0</ele><time>2026-04-19T07:53:50Z</time></trkpt><trkpt lat="43.33354793293965" lon="12.311736679808178"><ele>244.0</ele><time>2026-04-19T07:53:51Z</time></trkpt><trkpt lat="43.33382175381871" lon="12.31156287267531"><ele>244.0</ele><time>2026-04-19T07:53:52Z</time></trkpt><trkpt lat="43.33409475751961" lon="12.311389754079283"><ele>245.0</ele><time>2026-04-19T07:53:53Z</time></trkpt><trkpt lat="43.33437079910019" lon="12.31121211303956"><ele>246.0</ele><time>2026-04-19T07:53:54Z</time></trkpt><trkpt lat="43.33464625930705" lon="12.311036843090063"><ele>245.5</ele><time>2026-04-19T07:53:55Z</time></trkpt><trkpt lat="43.33492219890275" lon="12.310861194105671"><ele>245.0</ele><time>2026-04-19T07:53:56Z</time></trkpt><trkpt lat="43.33519725734119" lon="12.310678642304586"><ele>245.5</ele><time>2026-04-19T07:53:57Z</time></trkpt><trkpt lat="43.33546670409923" lon="12.310488896468494"><ele>246.0</ele><time>2026-04-19T07:53:57.999Z</time></trkpt><trkpt lat="43.335728428667935" lon="12.310294944054872"><ele>246.0</ele><time>2026-04-19T07:53:58.999Z</time></trkpt><trkpt lat="43.33598626388614" lon="12.310095780873882"><ele>246.0</ele><time>2026-04-19T07:53:59.999Z</time></trkpt><trkpt lat="43.336244725078366" lon="12.309893323380322"><ele>244.5</ele><time>2026-04-19T07:54:00.999Z</time></trkpt><trkpt lat="43.33650122884623" lon="12.309684455086714"><ele>243.0</ele><time>2026-04-19T07:54:01.999Z</time></trkpt><trkpt lat="43.33675742590164" lon="12.309470764450438"><ele>243.0</ele><time>2026-04-19T07:54:02.999Z</time></trkpt><trkpt lat="43.337011549680476" lon="12.309249788860969"><ele>243.0</ele><time>2026-04-19T07:54:03.999Z</time></trkpt><trkpt lat="43.33726190770557" lon="12.30901765159919"><ele>243.5</ele><time>2026-04-19T07:54:04.999Z</time></trkpt><trkpt lat="43.33751112374301" lon="12.308779172399074"><ele>244.0</ele><time>2026-04-19T07:54:05.999Z</time></trkpt><trkpt lat="43.337762763056276" lon="12.308532393713064"><ele>244.0</ele><time>2026-04-19T07:54:06.999Z</time></trkpt><trkpt lat="43.33801122042014" lon="12.308279530017131"><ele>244.0</ele><time>2026-04-19T07:54:07.999Z</time></trkpt><trkpt lat="43.338257916066766" lon="12.308018265464762"><ele>245.0</ele><time>2026-04-19T07:54:08.999Z</time></trkpt><trkpt lat="43.33850215062204" lon="12.307747359891964"><ele>246.0</ele><time>2026-04-19T07:54:09.999Z</time></trkpt><trkpt lat="43.33874885283405" lon="12.307466711752571"><ele>247.0</ele><time>2026-04-19T07:54:10.999Z</time></trkpt><trkpt lat="43.33899194069902" lon="12.307177487349282"><ele>248.0</ele><time>2026-04-19T07:54:11.999Z</time></trkpt><trkpt lat="43.33923489757941" lon="12.3068803979796"><ele>248.0</ele><time>2026-04-19T07:54:12.999Z</time></trkpt><trkpt lat="43.33947288788195" lon="12.306574438348866"><ele>248.0</ele><time>2026-04-19T07:54:13.999Z</time></trkpt><trkpt lat="43.339705225676944" lon="12.306270311305692"><ele>248.0</ele><time>2026-04-19T07:54:14.999Z</time></trkpt><trkpt lat="43.33993393900287" lon="12.305961055985241"><ele>248.0</ele><time>2026-04-19T07:54:15.999Z</time></trkpt><trkpt lat="43.34015288614052" lon="12.305651515140656"><ele>248.0</ele><time>2026-04-19T07:54:16.999Z</time></trkpt><trkpt lat="43.34036707878838" lon="12.305339460483204"><ele>248.0</ele><time>2026-04-19T07:54:17.999Z</time></trkpt><trkpt lat="43.34056518075086" lon="12.3050414503595"><ele>248.0</ele><time>2026-04-19T07:54:18.999Z</time></trkpt><trkpt lat="43.340748782408205" lon="12.304752475879278"><ele>248.0</ele><time>2026-04-19T07:54:19.999Z</time></trkpt><trkpt lat="43.34093380573979" lon="12.3044579420624"><ele>248.5</ele><time>2026-04-19T07:54:20.999Z</time></trkpt><trkpt lat="43.34111740070673" lon="12.304157078993304"><ele>249.0</ele><time>2026-04-19T07:54:21.999Z</time></trkpt><trkpt lat="43.341298842612616" lon="12.303841347005797"><ele>249.0</ele><time>2026-04-19T07:54:22.999Z</time></trkpt><trkpt lat="43.34147683140124" lon="12.303525111626161"><ele>249.0</ele><time>2026-04-19T07:54:23.999Z</time></trkpt><trkpt lat="43.34165573895395" lon="12.30319761050179"><ele>250.0</ele><time>2026-04-19T07:54:24.999Z</time></trkpt><trkpt lat="43.34183059059239" lon="12.302859544869152"><ele>251.0</ele><time>2026-04-19T07:54:25.999Z</time></trkpt><trkpt lat="43.342002933414705" lon="12.302515606001517"><ele>250.0</ele><time>2026-04-19T07:54:26.999Z</time></trkpt><trkpt lat="43.342176188486135" lon="12.30216814992087"><ele>249.0</ele><time>2026-04-19T07:54:27.999Z</time></trkpt><trkpt lat="43.342348699589735" lon="12.301816989234613"><ele>249.0</ele><time>2026-04-19T07:54:28.999Z</time></trkpt><trkpt lat="43.342516961056425" lon="12.30146169218935"><ele>249.0</ele><time>2026-04-19T07:54:29.999Z</time></trkpt><trkpt lat="43.342686825846215" lon="12.301105337591627"><ele>249.5</ele><time>2026-04-19T07:54:30.999Z</time></trkpt><trkpt lat="43.34285247346449" lon="12.300742231686595"><ele>250.0</ele><time>2026-04-19T07:54:31.999Z</time></trkpt><trkpt lat="43.34301182622101" lon="12.300374822964493"><ele>249.0</ele><time>2026-04-19T07:54:32.999Z</time></trkpt><trkpt lat="43.34316808487948" lon="12.30000664776875"><ele>248.0</ele><time>2026-04-19T07:54:33.999Z</time></trkpt><trkpt lat="43.34332435985929" lon="12.29964017541568"><ele>247.5</ele><time>2026-04-19T07:54:34.999Z</time></trkpt><trkpt lat="43.34355817989877" lon="12.299375897933308"><ele>247.0</ele><time>2026-04-19T07:54:35.999Z</time></trkpt><trkpt lat="43.34372629184236" lon="12.29904344924742"><ele>248.0</ele><time>2026-04-19T07:54:36.999Z</time></trkpt><trkpt lat="43.34389562604727" lon="12.298709783428464"><ele>249.0</ele><time>2026-04-19T07:54:37.999Z</time></trkpt><trkpt lat="43.344067776295404" lon="12.298387451983396"><ele>250.5</ele><time>2026-04-19T07:54:38.999Z</time></trkpt><trkpt lat="43.34424959409023" lon="12.29806881147506"><ele>252.0</ele><time>2026-04-19T07:54:39.999Z</time></trkpt><trkpt lat="43.34443540187317" lon="12.297763489004213"><ele>252.0</ele><time>2026-04-19T07:54:40.999Z</time></trkpt><trkpt lat="43.34462970324579" lon="12.297459572328025"><ele>252.0</ele><time>2026-04-19T07:54:41.999Z</time></trkpt><trkpt lat="43.34482657230518" lon="12.297162249436585"><ele>253.5</ele><time>2026-04-19T07:54:42.999Z</time></trkpt><trkpt lat="43.34502702180494" lon="12.29686926892491"><ele>255.0</ele><time>2026-04-19T07:54:43.999Z</time></trkpt><trkpt lat="43.34522697481476" lon="12.296578268274637"><ele>254.5</ele><time>2026-04-19T07:54:44.999Z</time></trkpt><trkpt lat="43.34542905939595" lon="12.29628083450953"><ele>254.0</ele><time>2026-04-19T07:54:45.999Z</time></trkpt><trkpt lat="43.345630880810056" lon="12.295982757917074"><ele>255.5</ele><time>2026-04-19T07:54:46.999Z</time></trkpt><trkpt lat="43.34583173047751" lon="12.295685986177162"><ele>257.0</ele><time>2026-04-19T07:54:47.999Z</time></trkpt><trkpt lat="43.3460342696337" lon="12.295388073723199"><ele>257.0</ele><time>2026-04-19T07:54:48.999Z</time></trkpt><trkpt lat="43.34624306471137" lon="12.295085164536717"><ele>257.0</ele><time>2026-04-19T07:54:49.999Z</time></trkpt><trkpt lat="43.346449411544235" lon="12.294789201301604"><ele>256.0</ele><time>2026-04-19T07:54:50.999Z</time></trkpt><trkpt lat="43.34665245100579" lon="12.29448804795227"><ele>255.0</ele><time>2026-04-19T07:54:51.999Z</time></trkpt><trkpt lat="43.34685528659224" lon="12.294191537719175"><ele>254.5</ele><time>2026-04-19T07:54:52.999Z</time></trkpt><trkpt lat="43.34705568383947" lon="12.293890393155378"><ele>254.0</ele><time>2026-04-19T07:54:53.999Z</time></trkpt><trkpt lat="43.347247953287834" lon="12.293615466250836"><ele>256.0</ele><time>2026-04-19T07:54:54.999Z</time></trkpt><trkpt lat="43.34742960647888" lon="12.293345367591868"><ele>258.0</ele><time>2026-04-19T07:54:55.999Z</time></trkpt><trkpt lat="43.347612848372336" lon="12.293064399041038"><ele>258.5</ele><time>2026-04-19T07:54:56.999Z</time></trkpt><trkpt lat="43.34779883398192" lon="12.292780065989337"><ele>259.0</ele><time>2026-04-19T07:54:57.999Z</time></trkpt><trkpt lat="43.347994528645444" lon="12.292478423916364"><ele>260.0</ele><time>2026-04-19T07:54:58.999Z</time></trkpt><trkpt lat="43.3481948299226" lon="12.292178114691763"><ele>261.0</ele><time>2026-04-19T07:54:59.999Z</time></trkpt><trkpt lat="43.34839649283654" lon="12.29187839216023"><ele>261.0</ele><time>2026-04-19T07:55:00.999Z</time></trkpt><trkpt lat="43.348601520904936" lon="12.291578150648332"><ele>261.0</ele><time>2026-04-19T07:55:01.999Z</time></trkpt><trkpt lat="43.34880812449279" lon="12.291284547372406"><ele>263.0</ele><time>2026-04-19T07:55:02.999Z</time></trkpt><trkpt lat="43.34900613122664" lon="12.291004841597623"><ele>265.0</ele><time>2026-04-19T07:55:03.998Z</time></trkpt><trkpt lat="43.34919599481181" lon="12.290738732834974"><ele>264.0</ele><time>2026-04-19T07:55:04.998Z</time></trkpt><trkpt lat="43.34938895004655" lon="12.29047056317645"><ele>263.0</ele><time>2026-04-19T07:55:05.998Z</time></trkpt><trkpt lat="43.34958394447992" lon="12.290198249882483"><ele>264.5</ele><time>2026-04-19T07:55:06.998Z</time></trkpt><trkpt lat="43.349778283238926" lon="12.28991999309866"><ele>266.0</ele><time>2026-04-19T07:55:07.998Z</time></trkpt><trkpt lat="43.34996954485206" lon="12.289637173035063"><ele>262.5</ele><time>2026-04-19T07:55:08.998Z</time></trkpt><trkpt lat="43.35015792034234" lon="12.289354140858904"><ele>259.0</ele><time>2026-04-19T07:55:09.998Z</time></trkpt><trkpt lat="43.350350106139864" lon="12.289072150283651"><ele>258.0</ele><time>2026-04-19T07:55:10.998Z</time></trkpt><trkpt lat="43.35054841266676" lon="12.28878330826707"><ele>257.0</ele><time>2026-04-19T07:55:11.998Z</time></trkpt><trkpt lat="43.350749462156735" lon="12.288485848952787"><ele>257.0</ele><time>2026-04-19T07:55:12.998Z</time></trkpt><trkpt lat="43.35094914360307" lon="12.288188046057"><ele>257.0</ele><time>2026-04-19T07:55:13.998Z</time></trkpt><trkpt lat="43.35114866240182" lon="12.287897284425405"><ele>256.0</ele><time>2026-04-19T07:55:14.998Z</time></trkpt><trkpt lat="43.35134481918948" lon="12.28760878689903"><ele>255.0</ele><time>2026-04-19T07:55:15.998Z</time></trkpt><trkpt lat="43.351541784073234" lon="12.287322669926752"><ele>255.0</ele><time>2026-04-19T07:55:16.998Z</time></trkpt><trkpt lat="43.35174066142526" lon="12.287031911026013"><ele>255.0</ele><time>2026-04-19T07:55:17.998Z</time></trkpt><trkpt lat="43.3519393677919" lon="12.286736115221291"><ele>255.0</ele><time>2026-04-19T07:55:18.998Z</time></trkpt><trkpt lat="43.35214226145597" lon="12.286439368550647"><ele>255.0</ele><time>2026-04-19T07:55:19.998Z</time></trkpt><trkpt lat="43.352347917295376" lon="12.286138669860847"><ele>254.5</ele><time>2026-04-19T07:55:20.998Z</time></trkpt><trkpt lat="43.3525554263754" lon="12.285834815596278"><ele>254.0</ele><time>2026-04-19T07:55:21.998Z</time></trkpt><trkpt lat="43.35276144458104" lon="12.285534759169279"><ele>253.5</ele><time>2026-04-19T07:55:22.998Z</time></trkpt><trkpt lat="43.35296818819907" lon="12.285230519701512"><ele>253.0</ele><time>2026-04-19T07:55:23.998Z</time></trkpt><trkpt lat="43.35317453167883" lon="12.284927615378157"><ele>253.5</ele><time>2026-04-19T07:55:24.998Z</time></trkpt><trkpt lat="43.35337864391573" lon="12.284623855569912"><ele>254.0</ele><time>2026-04-19T07:55:26Z</time></trkpt><trkpt lat="43.353577945811004" lon="12.284327374112646"><ele>254.0</ele><time>2026-04-19T07:55:27Z</time></trkpt><trkpt lat="43.35376396725371" lon="12.284058776047203"><ele>254.0</ele><time>2026-04-19T07:55:28Z</time></trkpt><trkpt lat="43.35394464598021" lon="12.283796669879333"><ele>254.0</ele><time>2026-04-19T07:55:29Z</time></trkpt><trkpt lat="43.35412367476013" lon="12.283530188819"><ele>254.0</ele><time>2026-04-19T07:55:30Z</time></trkpt><trkpt lat="43.3543049578841" lon="12.28326237955181"><ele>254.0</ele><time>2026-04-19T07:55:31Z</time></trkpt><trkpt lat="43.35448826473976" lon="12.282993170361117"><ele>254.0</ele><time>2026-04-19T07:55:32Z</time></trkpt><trkpt lat="43.35467619745436" lon="12.28272403133891"><ele>255.5</ele><time>2026-04-19T07:55:33Z</time></trkpt><trkpt lat="43.35486835526009" lon="12.282460689813693"><ele>257.0</ele><time>2026-04-19T07:55:34Z</time></trkpt><trkpt lat="43.35506018793361" lon="12.282205098618274"><ele>257.5</ele><time>2026-04-19T07:55:35Z</time></trkpt><trkpt lat="43.355255195465524" lon="12.281951977024198"><ele>258.0</ele><time>2026-04-19T07:55:36Z</time></trkpt><trkpt lat="43.35544853275088" lon="12.281708464590256"><ele>258.5</ele><time>2026-04-19T07:55:37Z</time></trkpt><trkpt lat="43.355648373669894" lon="12.28147116936382"><ele>259.0</ele><time>2026-04-19T07:55:38Z</time></trkpt><trkpt lat="43.35587732729939" lon="12.281217205648838"><ele>259.0</ele><time>2026-04-19T07:55:39Z</time></trkpt><trkpt lat="43.35612675415103" lon="12.280943838466772"><ele>259.0</ele><time>2026-04-19T07:55:40Z</time></trkpt><trkpt lat="43.35637046499587" lon="12.280683451089182"><ele>261.5</ele><time>2026-04-19T07:55:41Z</time></trkpt><trkpt lat="43.356593807541266" lon="12.280446881545291"><ele>264.0</ele><time>2026-04-19T07:55:42Z</time></trkpt><trkpt lat="43.356820053395694" lon="12.280208588943788"><ele>264.0</ele><time>2026-04-19T07:55:43Z</time></trkpt><trkpt lat="43.35705697718249" lon="12.27995790819184"><ele>264.0</ele><time>2026-04-19T07:55:44Z</time></trkpt><trkpt lat="43.35729388566197" lon="12.279700351411229"><ele>268.5</ele><time>2026-04-19T07:55:45Z</time></trkpt><trkpt lat="43.357538326602054" lon="12.279437046995003"><ele>273.0</ele><time>2026-04-19T07:55:46Z</time></trkpt><trkpt lat="43.35779476850099" lon="12.27915999658532"><ele>273.5</ele><time>2026-04-19T07:55:47Z</time></trkpt><trkpt lat="43.35805452226883" lon="12.278862631358848"><ele>274.0</ele><time>2026-04-19T07:55:48Z</time></trkpt><trkpt lat="43.35830457551885" lon="12.278590560430775"><ele>274.0</ele><time>2026-04-19T07:55:49Z</time></trkpt><trkpt lat="43.35855287539325" lon="12.278328388987754"><ele>274.0</ele><time>2026-04-19T07:55:50Z</time></trkpt><trkpt lat="43.3587994539555" lon="12.278064551492763"><ele>273.5</ele><time>2026-04-19T07:55:51Z</time></trkpt><trkpt lat="43.35904323667043" lon="12.277801221757041"><ele>273.0</ele><time>2026-04-19T07:55:52Z</time></trkpt><trkpt lat="43.359280264704736" lon="12.277527723045381"><ele>273.0</ele><time>2026-04-19T07:55:53Z</time></trkpt><trkpt lat="43.35950923647656" lon="12.27724887283363"><ele>273.0</ele><time>2026-04-19T07:55:54Z</time></trkpt><trkpt lat="43.35973295274016" lon="12.276966903719838"><ele>273.0</ele><time>2026-04-19T07:55:55Z</time></trkpt><trkpt lat="43.35995096066879" lon="12.276688962527086"><ele>273.0</ele><time>2026-04-19T07:55:56Z</time></trkpt><trkpt lat="43.360161818719135" lon="12.276403024191655"><ele>272.0</ele><time>2026-04-19T07:55:57Z</time></trkpt><trkpt lat="43.360362734652035" lon="12.276104708419341"><ele>271.0</ele><time>2026-04-19T07:55:58Z</time></trkpt><trkpt lat="43.360562788232976" lon="12.27579923397549"><ele>269.0</ele><time>2026-04-19T07:55:59Z</time></trkpt><trkpt lat="43.360765156095795" lon="12.275475690531628"><ele>267.0</ele><time>2026-04-19T07:56:00Z</time></trkpt><trkpt lat="43.360978778320415" lon="12.27512290468084"><ele>267.0</ele><time>2026-04-19T07:56:01Z</time></trkpt><trkpt lat="43.36119447830305" lon="12.274764955311849"><ele>267.0</ele><time>2026-04-19T07:56:02Z</time></trkpt><trkpt lat="43.36140336346349" lon="12.27441816329009"><ele>268.0</ele><time>2026-04-19T07:56:03Z</time></trkpt><trkpt lat="43.361599944083764" lon="12.274069593577435"><ele>269.0</ele><time>2026-04-19T07:56:04Z</time></trkpt><trkpt lat="43.36177628184253" lon="12.273712106851866"><ele>269.0</ele><time>2026-04-19T07:56:04.999Z</time></trkpt><trkpt lat="43.36194725665922" lon="12.273341211346752"><ele>269.0</ele><time>2026-04-19T07:56:05.999Z</time></trkpt><trkpt lat="43.36211823893703" lon="12.272972132483817"><ele>268.0</ele><time>2026-04-19T07:56:06.999Z</time></trkpt><trkpt lat="43.36227490815017" lon="12.27259654371044"><ele>267.0</ele><time>2026-04-19T07:56:07.999Z</time></trkpt><trkpt lat="43.36243546313783" lon="12.272230689532492"><ele>267.0</ele><time>2026-04-19T07:56:08.999Z</time></trkpt><trkpt lat="43.36258734673187" lon="12.27188963915004"><ele>267.0</ele><time>2026-04-19T07:56:09.999Z</time></trkpt><trkpt lat="43.36274074923045" lon="12.271551728830085"><ele>269.5</ele><time>2026-04-19T07:56:10.999Z</time></trkpt><trkpt lat="43.362889928883384" lon="12.271219780566"><ele>272.0</ele><time>2026-04-19T07:56:11.999Z</time></trkpt><trkpt lat="43.363050502971475" lon="12.270867562932267"><ele>272.5</ele><time>2026-04-19T07:56:12.999Z</time></trkpt><trkpt lat="43.3632067426407" lon="12.270518350526755"><ele>273.0</ele><time>2026-04-19T07:56:13.999Z</time></trkpt><trkpt lat="43.36336226630084" lon="12.270168071232632"><ele>273.0</ele><time>2026-04-19T07:56:14.999Z</time></trkpt><trkpt lat="43.3635188021619" lon="12.269824411744995"><ele>273.0</ele><time>2026-04-19T07:56:15.999Z</time></trkpt><trkpt lat="43.36367281821554" lon="12.269475041920629"><ele>275.5</ele><time>2026-04-19T07:56:16.999Z</time></trkpt><trkpt lat="43.36382651220847" lon="12.269129833383625"><ele>278.0</ele><time>2026-04-19T07:56:17.999Z</time></trkpt><trkpt lat="43.363982658545545" lon="12.268780015955096"><ele>278.0</ele><time>2026-04-19T07:56:18.999Z</time></trkpt><trkpt lat="43.364140954098836" lon="12.268430672038182"><ele>278.0</ele><time>2026-04-19T07:56:19.999Z</time></trkpt><trkpt lat="43.36429867772119" lon="12.268073814102824"><ele>276.0</ele><time>2026-04-19T07:56:20.999Z</time></trkpt><trkpt lat="43.36446317232049" lon="12.267708772697356"><ele>274.0</ele><time>2026-04-19T07:56:21.999Z</time></trkpt><trkpt lat="43.364629535111476" lon="12.267337392138057"><ele>278.0</ele><time>2026-04-19T07:56:22.999Z</time></trkpt><trkpt lat="43.36479872621239" lon="12.26696787074879"><ele>282.0</ele><time>2026-04-19T07:56:23.999Z</time></trkpt><trkpt lat="43.364973479548404" lon="12.266592719737844"><ele>280.5</ele><time>2026-04-19T07:56:24.999Z</time></trkpt><trkpt lat="43.36515487045641" lon="12.26621854418359"><ele>279.0</ele><time>2026-04-19T07:56:25.999Z</time></trkpt><trkpt lat="43.36534348531608" lon="12.2658490234478"><ele>279.0</ele><time>2026-04-19T07:56:26.999Z</time></trkpt><trkpt lat="43.36554312972999" lon="12.265495761157833"><ele>279.0</ele><time>2026-04-19T07:56:27.999Z</time></trkpt><trkpt lat="43.3657474928136" lon="12.265150504021008"><ele>279.0</ele><time>2026-04-19T07:56:28.999Z</time></trkpt><trkpt lat="43.365953948105805" lon="12.264816685469484"><ele>279.0</ele><time>2026-04-19T07:56:29.999Z</time></trkpt><trkpt lat="43.366166059279436" lon="12.264488151622073"><ele>279.5</ele><time>2026-04-19T07:56:30.999Z</time></trkpt><trkpt lat="43.36637284679231" lon="12.264174652911004"><ele>280.0</ele><time>2026-04-19T07:56:31.999Z</time></trkpt><trkpt lat="43.366570337975375" lon="12.263891591426862"><ele>279.0</ele><time>2026-04-19T07:56:32.999Z</time></trkpt><trkpt lat="43.36677308414779" lon="12.263613385961325"><ele>278.0</ele><time>2026-04-19T07:56:33.999Z</time></trkpt><trkpt lat="43.36698425898085" lon="12.263339771005745"><ele>278.0</ele><time>2026-04-19T07:56:34.999Z</time></trkpt><trkpt lat="43.36720410740302" lon="12.263067407006105"><ele>278.0</ele><time>2026-04-19T07:56:35.999Z</time></trkpt><trkpt lat="43.367431401243984" lon="12.262798743327183"><ele>278.0</ele><time>2026-04-19T07:56:36.999Z</time></trkpt><trkpt lat="43.3676694378914" lon="12.2625326671773"><ele>278.0</ele><time>2026-04-19T07:56:37.999Z</time></trkpt><trkpt lat="43.36791094740393" lon="12.262268005297395"><ele>280.0</ele><time>2026-04-19T07:56:38.999Z</time></trkpt><trkpt lat="43.36815847298949" lon="12.26200921179527"><ele>282.0</ele><time>2026-04-19T07:56:39.999Z</time></trkpt><trkpt lat="43.36840982074638" lon="12.261754392079746"><ele>282.0</ele><time>2026-04-19T07:56:40.999Z</time></trkpt><trkpt lat="43.36866663054441" lon="12.261513427321288"><ele>282.0</ele><time>2026-04-19T07:56:41.999Z</time></trkpt><trkpt lat="43.368929454425746" lon="12.261281862823951"><ele>283.5</ele><time>2026-04-19T07:56:42.999Z</time></trkpt><trkpt lat="43.36918516886811" lon="12.261065931809402"><ele>285.0</ele><time>2026-04-19T07:56:43.999Z</time></trkpt><trkpt lat="43.36942492810323" lon="12.260872157852845"><ele>285.0</ele><time>2026-04-19T07:56:44.999Z</time></trkpt><trkpt lat="43.36966032105185" lon="12.260681493237206"><ele>285.0</ele><time>2026-04-19T07:56:45.999Z</time></trkpt><trkpt lat="43.36990033696171" lon="12.260490691426748"><ele>286.0</ele><time>2026-04-19T07:56:46.999Z</time></trkpt><trkpt lat="43.370147605398735" lon="12.260302496892997"><ele>287.0</ele><time>2026-04-19T07:56:47.999Z</time></trkpt><trkpt lat="43.37039730535312" lon="12.260103078504374"><ele>282.0</ele><time>2026-04-19T07:56:48.999Z</time></trkpt><trkpt lat="43.3706498884879" lon="12.259909004537844"><ele>277.0</ele><time>2026-04-19T07:56:49.999Z</time></trkpt><trkpt lat="43.37090630139351" lon="12.259707347511812"><ele>275.0</ele><time>2026-04-19T07:56:50.999Z</time></trkpt><trkpt lat="43.37116499205497" lon="12.25950229929822"><ele>273.0</ele><time>2026-04-19T07:56:51.999Z</time></trkpt><trkpt lat="43.37142652809224" lon="12.25929634801977"><ele>272.5</ele><time>2026-04-19T07:56:52.999Z</time></trkpt><trkpt lat="43.37168767760121" lon="12.25908699629065"><ele>272.0</ele><time>2026-04-19T07:56:53.999Z</time></trkpt><trkpt lat="43.37195133039499" lon="12.258876745581674"><ele>273.0</ele><time>2026-04-19T07:56:54.999Z</time></trkpt><trkpt lat="43.3722189162162" lon="12.258665545216425"><ele>274.0</ele><time>2026-04-19T07:56:55.999Z</time></trkpt><trkpt lat="43.37248685860752" lon="12.258453871903845"><ele>274.0</ele><time>2026-04-19T07:56:56.999Z</time></trkpt><trkpt lat="43.37275333338224" lon="12.258244731519651"><ele>274.0</ele><time>2026-04-19T07:56:57.999Z</time></trkpt><trkpt lat="43.373022293601444" lon="12.25803505237663"><ele>275.5</ele><time>2026-04-19T07:56:58.999Z</time></trkpt><trkpt lat="43.373292092928956" lon="12.25782511116279"><ele>277.0</ele><time>2026-04-19T07:56:59.999Z</time></trkpt><trkpt lat="43.37356251299643" lon="12.257613745198817"><ele>277.0</ele><time>2026-04-19T07:57:00.999Z</time></trkpt><trkpt lat="43.3738330250576" lon="12.257399188760182"><ele>277.0</ele><time>2026-04-19T07:57:01.999Z</time></trkpt><trkpt lat="43.374104167277494" lon="12.257186674604055"><ele>277.5</ele><time>2026-04-19T07:57:02.999Z</time></trkpt><trkpt lat="43.37437843819309" lon="12.256968039960427"><ele>278.0</ele><time>2026-04-19T07:57:03.999Z</time></trkpt><trkpt lat="43.374654149068235" lon="12.256749952475074"><ele>278.5</ele><time>2026-04-19T07:57:04.999Z</time></trkpt><trkpt lat="43.37493737394617" lon="12.256520346913266"><ele>279.0</ele><time>2026-04-19T07:57:05.999Z</time></trkpt><trkpt lat="43.37522438232736" lon="12.256280132682875"><ele>277.5</ele><time>2026-04-19T07:57:06.999Z</time></trkpt><trkpt lat="43.37551292523204" lon="12.256040983791292"><ele>276.0</ele><time>2026-04-19T07:57:07.999Z</time></trkpt><trkpt lat="43.37580841082396" lon="12.25579642229969"><ele>275.0</ele><time>2026-04-19T07:57:08.999Z</time></trkpt><trkpt lat="43.37610134469773" lon="12.25556299423476"><ele>274.0</ele><time>2026-04-19T07:57:09.999Z</time></trkpt><trkpt lat="43.37639187926115" lon="12.25533435931119"><ele>273.5</ele><time>2026-04-19T07:57:10.998Z</time></trkpt><trkpt lat="43.3766831676962" lon="12.255105405743105"><ele>273.0</ele><time>2026-04-19T07:57:11.998Z</time></trkpt><trkpt lat="43.37697128849877" lon="12.254876215425002"><ele>273.5</ele><time>2026-04-19T07:57:12.998Z</time></trkpt><trkpt lat="43.37725452588027" lon="12.254652686006045"><ele>274.0</ele><time>2026-04-19T07:57:13.998Z</time></trkpt><trkpt lat="43.37753335379856" lon="12.254429683060005"><ele>274.0</ele><time>2026-04-19T07:57:14.998Z</time></trkpt><trkpt lat="43.37781012343458" lon="12.25421017384238"><ele>274.0</ele><time>2026-04-19T07:57:15.998Z</time></trkpt><trkpt lat="43.37808382901719" lon="12.253989727852725"><ele>271.0</ele><time>2026-04-19T07:57:16.998Z</time></trkpt><trkpt lat="43.378357364362124" lon="12.253774656651341"><ele>268.0</ele><time>2026-04-19T07:57:17.998Z</time></trkpt><trkpt lat="43.37863015125183" lon="12.253562625335665"><ele>269.0</ele><time>2026-04-19T07:57:18.998Z</time></trkpt><trkpt lat="43.378900149894264" lon="12.253346395333049"><ele>270.0</ele><time>2026-04-19T07:57:19.998Z</time></trkpt><trkpt lat="43.379171144851156" lon="12.25313269089647"><ele>267.5</ele><time>2026-04-19T07:57:20.998Z</time></trkpt><trkpt lat="43.37944576030919" lon="12.25291970569303"><ele>265.0</ele><time>2026-04-19T07:57:21.998Z</time></trkpt><trkpt lat="43.37972404048422" lon="12.252717505925416"><ele>265.0</ele><time>2026-04-19T07:57:22.998Z</time></trkpt><trkpt lat="43.38000457374541" lon="12.252522634636495"><ele>265.0</ele><time>2026-04-19T07:57:23.998Z</time></trkpt><trkpt lat="43.380286143680465" lon="12.252331755522468"><ele>264.5</ele><time>2026-04-19T07:57:24.998Z</time></trkpt><trkpt lat="43.38056888515452" lon="12.252146696355725"><ele>264.0</ele><time>2026-04-19T07:57:25.998Z</time></trkpt><trkpt lat="43.38085134465464" lon="12.251976762420245"><ele>264.0</ele><time>2026-04-19T07:57:26.998Z</time></trkpt><trkpt lat="43.38113559833195" lon="12.25181396751523"><ele>264.0</ele><time>2026-04-19T07:57:27.998Z</time></trkpt><trkpt lat="43.38142763715771" lon="12.251661029386861"><ele>264.0</ele><time>2026-04-19T07:57:28.998Z</time></trkpt><trkpt lat="43.38172417592366" lon="12.251515381428451"><ele>264.0</ele><time>2026-04-19T07:57:29.998Z</time></trkpt><trkpt lat="43.382020742780476" lon="12.251375807193348"><ele>264.0</ele><time>2026-04-19T07:57:30.998Z</time></trkpt><trkpt lat="43.38231942163032" lon="12.251250316290609"><ele>264.0</ele><time>2026-04-19T07:57:32Z</time></trkpt><trkpt lat="43.38261763795475" lon="12.251133170534874"><ele>264.0</ele><time>2026-04-19T07:57:33Z</time></trkpt><trkpt lat="43.38291460408791" lon="12.251023245328199"><ele>264.0</ele><time>2026-04-19T07:57:34Z</time></trkpt><trkpt lat="43.38321103624922" lon="12.250924185256103"><ele>263.5</ele><time>2026-04-19T07:57:35Z</time></trkpt><trkpt lat="43.38350726158432" lon="12.250837445811834"><ele>263.0</ele><time>2026-04-19T07:57:36Z</time></trkpt><trkpt lat="43.383804106577976" lon="12.250760440970808"><ele>263.0</ele><time>2026-04-19T07:57:37Z</time></trkpt><trkpt lat="43.38410196496525" lon="12.25069541616348"><ele>263.0</ele><time>2026-04-19T07:57:38Z</time></trkpt><trkpt lat="43.38440049220762" lon="12.25063724703437"><ele>263.0</ele><time>2026-04-19T07:57:39Z</time></trkpt><trkpt lat="43.38470068300304" lon="12.25058632211716"><ele>263.0</ele><time>2026-04-19T07:57:40Z</time></trkpt><trkpt lat="43.38500149884108" lon="12.250544252851741"><ele>263.0</ele><time>2026-04-19T07:57:41Z</time></trkpt><trkpt lat="43.38530263799169" lon="12.25051285019164"><ele>263.0</ele><time>2026-04-19T07:57:42Z</time></trkpt><trkpt lat="43.3856050886744" lon="12.250489718566064"><ele>262.5</ele><time>2026-04-19T07:57:43Z</time></trkpt><trkpt lat="43.38590710713476" lon="12.25047166466863"><ele>262.0</ele><time>2026-04-19T07:57:44Z</time></trkpt><trkpt lat="43.386208241339915" lon="12.250454194739525"><ele>261.0</ele><time>2026-04-19T07:57:45Z</time></trkpt><trkpt lat="43.38650914405268" lon="12.250438498449748"><ele>260.0</ele><time>2026-04-19T07:57:46Z</time></trkpt><trkpt lat="43.38681068781605" lon="12.25041880767103"><ele>260.0</ele><time>2026-04-19T07:57:47Z</time></trkpt><trkpt lat="43.38711147972816" lon="12.250400010327272"><ele>260.0</ele><time>2026-04-19T07:57:48Z</time></trkpt><trkpt lat="43.38741222684054" lon="12.250380206099452"><ele>259.5</ele><time>2026-04-19T07:57:49Z</time></trkpt><trkpt lat="43.38770974630239" lon="12.250361421338436"><ele>259.0</ele><time>2026-04-19T07:57:50Z</time></trkpt><trkpt lat="43.38800569732099" lon="12.250341482268617"><ele>260.5</ele><time>2026-04-19T07:57:51Z</time></trkpt><trkpt lat="43.38829788472775" lon="12.250325472266818"><ele>262.0</ele><time>2026-04-19T07:57:52Z</time></trkpt><trkpt lat="43.388589981078624" lon="12.250305977534728"><ele>262.5</ele><time>2026-04-19T07:57:53Z</time></trkpt><trkpt lat="43.388881100072254" lon="12.250285021496856"><ele>263.0</ele><time>2026-04-19T07:57:54Z</time></trkpt><trkpt lat="43.38917132916662" lon="12.25026842878571"><ele>263.0</ele><time>2026-04-19T07:57:55Z</time></trkpt><trkpt lat="43.389463065582014" lon="12.250249727596994"><ele>263.0</ele><time>2026-04-19T07:57:56Z</time></trkpt><trkpt lat="43.38975344469458" lon="12.250231378725337"><ele>264.0</ele><time>2026-04-19T07:57:57Z</time></trkpt><trkpt lat="43.3900443031453" lon="12.250212150469856"><ele>265.0</ele><time>2026-04-19T07:57:58Z</time></trkpt><trkpt lat="43.3903342632325" lon="12.250195892022777"><ele>265.5</ele><time>2026-04-19T07:57:59Z</time></trkpt><trkpt lat="43.39062325776012" lon="12.250179773326371"><ele>266.0</ele><time>2026-04-19T07:58:00Z</time></trkpt><trkpt lat="43.39091165553677" lon="12.250163272989889"><ele>266.0</ele><time>2026-04-19T07:58:01Z</time></trkpt><trkpt lat="43.391197851961756" lon="12.250144602327643"><ele>266.0</ele><time>2026-04-19T07:58:02Z</time></trkpt><trkpt lat="43.39148533967127" lon="12.250125105616107"><ele>266.5</ele><time>2026-04-19T07:58:03Z</time></trkpt><trkpt lat="43.39177181814346" lon="12.25010792943831"><ele>267.0</ele><time>2026-04-19T07:58:04Z</time></trkpt><trkpt lat="43.39206096912797" lon="12.250087581553274"><ele>266.5</ele><time>2026-04-19T07:58:05Z</time></trkpt><trkpt lat="43.39235253960175" lon="12.250072927876195"><ele>266.0</ele><time>2026-04-19T07:58:06Z</time></trkpt><trkpt lat="43.3926479570014" lon="12.250053835556411"><ele>266.0</ele><time>2026-04-19T07:58:06.999Z</time></trkpt><trkpt lat="43.39294691175311" lon="12.250031440775963"><ele>266.0</ele><time>2026-04-19T07:58:07.999Z</time></trkpt><trkpt lat="43.39323330914906" lon="12.250013902891244"><ele>265.5</ele><time>2026-04-19T07:58:08.999Z</time></trkpt><trkpt lat="43.393510479576044" lon="12.249994815852022"><ele>265.0</ele><time>2026-04-19T07:58:09.999Z</time></trkpt><trkpt lat="43.393785988746366" lon="12.249975422757945"><ele>266.5</ele><time>2026-04-19T07:58:10.999Z</time></trkpt><trkpt lat="43.39406009066327" lon="12.249956476390157"><ele>268.0</ele><time>2026-04-19T07:58:11.999Z</time></trkpt><trkpt lat="43.394336436314035" lon="12.249938650389376"><ele>268.0</ele><time>2026-04-19T07:58:12.999Z</time></trkpt><trkpt lat="43.39461634485014" lon="12.249919657638145"><ele>268.0</ele><time>2026-04-19T07:58:13.999Z</time></trkpt><trkpt lat="43.39489878138658" lon="12.249900606677693"><ele>267.5</ele><time>2026-04-19T07:58:14.999Z</time></trkpt><trkpt lat="43.39518329152536" lon="12.249884069683317"><ele>267.0</ele><time>2026-04-19T07:58:15.999Z</time></trkpt><trkpt lat="43.395471029017436" lon="12.249865626470362"><ele>264.5</ele><time>2026-04-19T07:58:16.999Z</time></trkpt><trkpt lat="43.395761149017964" lon="12.249845754909808"><ele>262.0</ele><time>2026-04-19T07:58:17.999Z</time></trkpt><trkpt lat="43.39605082186033" lon="12.249829236650422"><ele>261.5</ele><time>2026-04-19T07:58:18.999Z</time></trkpt><trkpt lat="43.39634275710936" lon="12.249810539233895"><ele>261.0</ele><time>2026-04-19T07:58:19.999Z</time></trkpt><trkpt lat="43.396635432766594" lon="12.249793698396225"><ele>261.0</ele><time>2026-04-19T07:58:20.999Z</time></trkpt><trkpt lat="43.396931134444856" lon="12.249775283066858"><ele>261.0</ele><time>2026-04-19T07:58:21.999Z</time></trkpt><trkpt lat="43.39722717660812" lon="12.249753956051993"><ele>261.0</ele><time>2026-04-19T07:58:22.999Z</time></trkpt><trkpt lat="43.39752125727279" lon="12.249735020397353"><ele>261.0</ele><time>2026-04-19T07:58:23.999Z</time></trkpt><trkpt lat="43.39781951463452" lon="12.249717496559427"><ele>261.0</ele><time>2026-04-19T07:58:24.999Z</time></trkpt><trkpt lat="43.398119432874154" lon="12.249699106592333"><ele>261.0</ele><time>2026-04-19T07:58:25.999Z</time></trkpt><trkpt lat="43.398419531459474" lon="12.249679429712204"><ele>261.0</ele><time>2026-04-19T07:58:26.999Z</time></trkpt><trkpt lat="43.398718935971566" lon="12.249656666704865"><ele>261.0</ele><time>2026-04-19T07:58:27.999Z</time></trkpt><trkpt lat="43.399018765969785" lon="12.249636262173295"><ele>261.0</ele><time>2026-04-19T07:58:28.999Z</time></trkpt><trkpt lat="43.399317440342706" lon="12.249618687688082"><ele>261.0</ele><time>2026-04-19T07:58:29.999Z</time></trkpt><trkpt lat="43.3996122150367" lon="12.249601073779928"><ele>262.0</ele><time>2026-04-19T07:58:30.999Z</time></trkpt><trkpt lat="43.39990664757879" lon="12.249581066642472"><ele>263.0</ele><time>2026-04-19T07:58:31.999Z</time></trkpt><trkpt lat="43.400198532719166" lon="12.249562539958209"><ele>263.0</ele><time>2026-04-19T07:58:32.999Z</time></trkpt><trkpt lat="43.40048908565823" lon="12.249543422923548"><ele>263.0</ele><time>2026-04-19T07:58:33.999Z</time></trkpt><trkpt lat="43.40077776599623" lon="12.249526540529942"><ele>263.0</ele><time>2026-04-19T07:58:34.999Z</time></trkpt><trkpt lat="43.401065093063764" lon="12.24950775781524"><ele>263.0</ele><time>2026-04-19T07:58:35.999Z</time></trkpt><trkpt lat="43.40135284224022" lon="12.249488127327728"><ele>262.5</ele><time>2026-04-19T07:58:36.999Z</time></trkpt><trkpt lat="43.401641120412556" lon="12.249470224721897"><ele>262.0</ele><time>2026-04-19T07:58:37.999Z</time></trkpt><trkpt lat="43.40193151725108" lon="12.249452025522734"><ele>263.5</ele><time>2026-04-19T07:58:38.999Z</time></trkpt><trkpt lat="43.40222162242417" lon="12.249433616145488"><ele>265.0</ele><time>2026-04-19T07:58:39.999Z</time></trkpt><trkpt lat="43.402512375535615" lon="12.249412916909446"><ele>265.0</ele><time>2026-04-19T07:58:40.999Z</time></trkpt><trkpt lat="43.402803197503104" lon="12.249396046232432"><ele>265.0</ele><time>2026-04-19T07:58:41.999Z</time></trkpt><trkpt lat="43.403094990048814" lon="12.249376507088797"><ele>263.5</ele><time>2026-04-19T07:58:42.999Z</time></trkpt><trkpt lat="43.403387893316705" lon="12.24935617093535"><ele>262.0</ele><time>2026-04-19T07:58:43.999Z</time></trkpt><trkpt lat="43.40368032151951" lon="12.249339171372204"><ele>262.5</ele><time>2026-04-19T07:58:44.999Z</time></trkpt><trkpt lat="43.403976122743046" lon="12.249321753842503"><ele>263.0</ele><time>2026-04-19T07:58:45.999Z</time></trkpt><trkpt lat="43.40427616619639" lon="12.249305695951564"><ele>263.0</ele><time>2026-04-19T07:58:46.999Z</time></trkpt><trkpt lat="43.40457751744382" lon="12.249285775614519"><ele>263.0</ele><time>2026-04-19T07:58:47.999Z</time></trkpt><trkpt lat="43.404879133836744" lon="12.249263141819283"><ele>263.5</ele><time>2026-04-19T07:58:48.999Z</time></trkpt><trkpt lat="43.40518140335859" lon="12.249243690633033"><ele>264.0</ele><time>2026-04-19T07:58:49.999Z</time></trkpt><trkpt lat="43.40548419120156" lon="12.249221971416878"><ele>266.5</ele><time>2026-04-19T07:58:50.999Z</time></trkpt><trkpt lat="43.40578848340974" lon="12.249202961902377"><ele>269.0</ele><time>2026-04-19T07:58:51.999Z</time></trkpt><trkpt lat="43.40609399551328" lon="12.249185105263345"><ele>271.5</ele><time>2026-04-19T07:58:52.999Z</time></trkpt><trkpt lat="43.40640365264023" lon="12.249163054110397"><ele>274.0</ele><time>2026-04-19T07:58:53.999Z</time></trkpt><trkpt lat="43.406716547648806" lon="12.249137963381223"><ele>274.0</ele><time>2026-04-19T07:58:54.999Z</time></trkpt><trkpt lat="43.40702969152902" lon="12.249109709600283"><ele>274.0</ele><time>2026-04-19T07:58:55.999Z</time></trkpt><trkpt lat="43.407340522366844" lon="12.24907551076203"><ele>273.5</ele><time>2026-04-19T07:58:56.999Z</time></trkpt><trkpt lat="43.40765016928145" lon="12.249036743833372"><ele>273.0</ele><time>2026-04-19T07:58:57.999Z</time></trkpt><trkpt lat="43.40795862985896" lon="12.248990370088558"><ele>269.0</ele><time>2026-04-19T07:58:58.999Z</time></trkpt><trkpt lat="43.4082679868118" lon="12.248937649102846"><ele>265.0</ele><time>2026-04-19T07:58:59.999Z</time></trkpt><trkpt lat="43.40857439562082" lon="12.248882299543164"><ele>267.5</ele><time>2026-04-19T07:59:00.999Z</time></trkpt><trkpt lat="43.408880113252444" lon="12.248820259923022"><ele>270.0</ele><time>2026-04-19T07:59:01.999Z</time></trkpt><trkpt lat="43.40918485629626" lon="12.24876157759742"><ele>270.0</ele><time>2026-04-19T07:59:02.999Z</time></trkpt><trkpt lat="43.409486159152685" lon="12.248707534935775"><ele>270.0</ele><time>2026-04-19T07:59:03.999Z</time></trkpt><trkpt lat="43.409791428329626" lon="12.24865549998066"><ele>268.0</ele><time>2026-04-19T07:59:04.999Z</time></trkpt><trkpt lat="43.41009327848442" lon="12.24860124001216"><ele>266.0</ele><time>2026-04-19T07:59:05.999Z</time></trkpt><trkpt lat="43.41039284751934" lon="12.248542320152895"><ele>265.0</ele><time>2026-04-19T07:59:06.999Z</time></trkpt><trkpt lat="43.410689395070335" lon="12.24848699532489"><ele>264.0</ele><time>2026-04-19T07:59:07.999Z</time></trkpt><trkpt lat="43.410967126591466" lon="12.248431896486212"><ele>264.0</ele><time>2026-04-19T07:59:08.999Z</time></trkpt><trkpt lat="43.41124275476916" lon="12.24838112045663"><ele>264.0</ele><time>2026-04-19T07:59:09.998Z</time></trkpt><trkpt lat="43.41151791980808" lon="12.248329079632798"><ele>265.0</ele><time>2026-04-19T07:59:10.998Z</time></trkpt><trkpt lat="43.411793447978894" lon="12.248278381903459"><ele>266.0</ele><time>2026-04-19T07:59:11.998Z</time></trkpt><trkpt lat="43.41207026659424" lon="12.24822671399436"><ele>266.0</ele><time>2026-04-19T07:59:12.998Z</time></trkpt><trkpt lat="43.41234943619603" lon="12.248172693498633"><ele>266.0</ele><time>2026-04-19T07:59:13.998Z</time></trkpt><trkpt lat="43.41263397470528" lon="12.248115574431887"><ele>266.0</ele><time>2026-04-19T07:59:14.998Z</time></trkpt><trkpt lat="43.41292183128871" lon="12.24806048425722"><ele>266.0</ele><time>2026-04-19T07:59:15.998Z</time></trkpt><trkpt lat="43.4132123243698" lon="12.2480067353269"><ele>266.0</ele><time>2026-04-19T07:59:16.998Z</time></trkpt><trkpt lat="43.41350244230126" lon="12.247951556065754"><ele>266.0</ele><time>2026-04-19T07:59:17.998Z</time></trkpt><trkpt lat="43.41379494581144" lon="12.247893669522709"><ele>266.5</ele><time>2026-04-19T07:59:18.998Z</time></trkpt><trkpt lat="43.41408780838677" lon="12.247837794279471"><ele>267.0</ele><time>2026-04-19T07:59:19.998Z</time></trkpt><trkpt lat="43.41438188597712" lon="12.24778563452002"><ele>269.5</ele><time>2026-04-19T07:59:20.998Z</time></trkpt><trkpt lat="43.4146774228273" lon="12.247730816901026"><ele>272.0</ele><time>2026-04-19T07:59:21.998Z</time></trkpt><trkpt lat="43.41497506196793" lon="12.247677981392934"><ele>272.0</ele><time>2026-04-19T07:59:22.998Z</time></trkpt><trkpt lat="43.41527584998317" lon="12.247624125361673"><ele>272.0</ele><time>2026-04-19T07:59:23.998Z</time></trkpt><trkpt lat="43.41557318969852" lon="12.247567679073555"><ele>272.5</ele><time>2026-04-19T07:59:24.998Z</time></trkpt><trkpt lat="43.41587025368255" lon="12.24750887805742"><ele>273.0</ele><time>2026-04-19T07:59:25.998Z</time></trkpt><trkpt lat="43.41616614780018" lon="12.247450915458801"><ele>273.5</ele><time>2026-04-19T07:59:26.998Z</time></trkpt><trkpt lat="43.41646129587097" lon="12.247395562749256"><ele>274.0</ele><time>2026-04-19T07:59:27.998Z</time></trkpt><trkpt lat="43.416759646937486" lon="12.24733954014802"><ele>273.0</ele><time>2026-04-19T07:59:28.998Z</time></trkpt><trkpt lat="43.417058613656984" lon="12.247282624649115"><ele>272.0</ele><time>2026-04-19T07:59:29.998Z</time></trkpt><trkpt lat="43.41735561730398" lon="12.24722624327183"><ele>274.5</ele><time>2026-04-19T07:59:30.998Z</time></trkpt><trkpt lat="43.41765216671305" lon="12.247168776551623"><ele>277.0</ele><time>2026-04-19T07:59:31.998Z</time></trkpt><trkpt lat="43.41794650155516" lon="12.247113062979972"><ele>278.0</ele><time>2026-04-19T07:59:32.998Z</time></trkpt><trkpt lat="43.418243075622485" lon="12.247057734319075"><ele>279.0</ele><time>2026-04-19T07:59:33.998Z</time></trkpt><trkpt lat="43.41854023186055" lon="12.247004649331917"><ele>278.0</ele><time>2026-04-19T07:59:34.998Z</time></trkpt><trkpt lat="43.4188395864757" lon="12.24695067768629"><ele>277.0</ele><time>2026-04-19T07:59:35.998Z</time></trkpt><trkpt lat="43.419138171145065" lon="12.246894354256998"><ele>277.0</ele><time>2026-04-19T07:59:36.998Z</time></trkpt><trkpt lat="43.41943658982189" lon="12.2468343548597"><ele>277.0</ele><time>2026-04-19T07:59:38Z</time></trkpt><trkpt lat="43.41973401134504" lon="12.246775408751033"><ele>276.0</ele><time>2026-04-19T07:59:39Z</time></trkpt><trkpt lat="43.4200319815308" lon="12.246716877958923"><ele>275.0</ele><time>2026-04-19T07:59:40Z</time></trkpt><trkpt lat="43.42033065039679" lon="12.24666016865078"><ele>276.0</ele><time>2026-04-19T07:59:41Z</time></trkpt><trkpt lat="43.42062728038194" lon="12.246607743537531"><ele>277.0</ele><time>2026-04-19T07:59:42Z</time></trkpt><trkpt lat="43.4209234746604" lon="12.246552646665469"><ele>277.0</ele><time>2026-04-19T07:59:43Z</time></trkpt><trkpt lat="43.42121794689631" lon="12.246497202366644"><ele>277.0</ele><time>2026-04-19T07:59:44Z</time></trkpt><trkpt lat="43.42151369664828" lon="12.246441979567805"><ele>276.5</ele><time>2026-04-19T07:59:45Z</time></trkpt><trkpt lat="43.42181082975087" lon="12.246385199963756"><ele>276.0</ele><time>2026-04-19T07:59:46Z</time></trkpt><trkpt lat="43.42210997411614" lon="12.246327691378763"><ele>275.0</ele><time>2026-04-19T07:59:47Z</time></trkpt><trkpt lat="43.42241008902477" lon="12.246271542075224"><ele>274.0</ele><time>2026-04-19T07:59:48Z</time></trkpt><trkpt lat="43.4227104485928" lon="12.24621584964997"><ele>274.5</ele><time>2026-04-19T07:59:49Z</time></trkpt><trkpt lat="43.423012055011924" lon="12.246158398579759"><ele>275.0</ele><time>2026-04-19T07:59:50Z</time></trkpt><trkpt lat="43.42331552283191" lon="12.246101844973653"><ele>275.0</ele><time>2026-04-19T07:59:51Z</time></trkpt><trkpt lat="43.42361996140311" lon="12.246047314598336"><ele>275.0</ele><time>2026-04-19T07:59:52Z</time></trkpt><trkpt lat="43.42392205868977" lon="12.245989521845207"><ele>275.5</ele><time>2026-04-19T07:59:53Z</time></trkpt><trkpt lat="43.424225849447254" lon="12.245925661078275"><ele>276.0</ele><time>2026-04-19T07:59:54Z</time></trkpt><trkpt lat="43.424528754832025" lon="12.24587053074658"><ele>275.5</ele><time>2026-04-19T07:59:55Z</time></trkpt><trkpt lat="43.42483067153293" lon="12.245814587954339"><ele>275.0</ele><time>2026-04-19T07:59:56Z</time></trkpt><trkpt lat="43.42513017856031" lon="12.245764358382823"><ele>275.0</ele><time>2026-04-19T07:59:57Z</time></trkpt><trkpt lat="43.42543182522252" lon="12.245707300396639"><ele>275.0</ele><time>2026-04-19T07:59:58Z</time></trkpt><trkpt lat="43.425730901335086" lon="12.245650763691886"><ele>275.5</ele><time>2026-04-19T07:59:59Z</time></trkpt><trkpt lat="43.42602925303125" lon="12.245595062728482"><ele>276.0</ele><time>2026-04-19T08:00:00Z</time></trkpt><trkpt lat="43.426326133278984" lon="12.245539583851519"><ele>276.0</ele><time>2026-04-19T08:00:01Z</time></trkpt><trkpt lat="43.42662120040183" lon="12.245483934622193"><ele>276.0</ele><time>2026-04-19T08:00:02Z</time></trkpt><trkpt lat="43.426916094500996" lon="12.245425890396737"><ele>276.0</ele><time>2026-04-19T08:00:03Z</time></trkpt><trkpt lat="43.427211017191105" lon="12.245370405935228"><ele>276.0</ele><time>2026-04-19T08:00:04Z</time></trkpt><trkpt lat="43.42750456957863" lon="12.245316206236234"><ele>276.0</ele><time>2026-04-19T08:00:05Z</time></trkpt><trkpt lat="43.427797523330945" lon="12.2452635618451"><ele>276.0</ele><time>2026-04-19T08:00:06Z</time></trkpt><trkpt lat="43.42809053750917" lon="12.245208029388634"><ele>277.5</ele><time>2026-04-19T08:00:07Z</time></trkpt><trkpt lat="43.42838302660249" lon="12.245152275226744"><ele>279.0</ele><time>2026-04-19T08:00:08Z</time></trkpt><trkpt lat="43.42867633513807" lon="12.245100042353888"><ele>278.0</ele><time>2026-04-19T08:00:09Z</time></trkpt><trkpt lat="43.42897148908756" lon="12.245042838786082"><ele>277.0</ele><time>2026-04-19T08:00:10Z</time></trkpt><trkpt lat="43.429266819394094" lon="12.244985622103357"><ele>277.0</ele><time>2026-04-19T08:00:11Z</time></trkpt><trkpt lat="43.42956494541321" lon="12.244925546463653"><ele>277.0</ele><time>2026-04-19T08:00:12Z</time></trkpt><trkpt lat="43.42986088286371" lon="12.244867012967836"><ele>275.0</ele><time>2026-04-19T08:00:13Z</time></trkpt><trkpt lat="43.4301580601084" lon="12.244815045335619"><ele>273.0</ele><time>2026-04-19T08:00:13.999Z</time></trkpt><trkpt lat="43.43045947161812" lon="12.244758941167225"><ele>272.5</ele><time>2026-04-19T08:00:14.999Z</time></trkpt><trkpt lat="43.43076335562728" lon="12.244699593926224"><ele>272.0</ele><time>2026-04-19T08:00:15.999Z</time></trkpt><trkpt lat="43.43106930460308" lon="12.244641623607396"><ele>273.0</ele><time>2026-04-19T08:00:16.999Z</time></trkpt><trkpt lat="43.43137557357807" lon="12.244584225703868"><ele>274.0</ele><time>2026-04-19T08:00:17.999Z</time></trkpt><trkpt lat="43.43168230220689" lon="12.244524818673941"><ele>274.0</ele><time>2026-04-19T08:00:18.999Z</time></trkpt><trkpt lat="43.43199142682967" lon="12.244466112993972"><ele>274.0</ele><time>2026-04-19T08:00:19.999Z</time></trkpt><trkpt lat="43.43230757810994" lon="12.244407334788455"><ele>273.0</ele><time>2026-04-19T08:00:20.999Z</time></trkpt><trkpt lat="43.43262952220581" lon="12.244349152775904"><ele>272.0</ele><time>2026-04-19T08:00:21.999Z</time></trkpt><trkpt lat="43.4329512942381" lon="12.24428964951248"><ele>271.5</ele><time>2026-04-19T08:00:22.999Z</time></trkpt><trkpt lat="43.43327439662581" lon="12.244230618732063"><ele>271.0</ele><time>2026-04-19T08:00:23.999Z</time></trkpt><trkpt lat="43.43359843924703" lon="12.244171204534897"><ele>272.5</ele><time>2026-04-19T08:00:24.999Z</time></trkpt><trkpt lat="43.43392388142146" lon="12.244111581842363"><ele>274.0</ele><time>2026-04-19T08:00:25.999Z</time></trkpt><trkpt lat="43.43424521748157" lon="12.24405101561317"><ele>274.0</ele><time>2026-04-19T08:00:26.999Z</time></trkpt><trkpt lat="43.43456499742874" lon="12.243991509425937"><ele>274.0</ele><time>2026-04-19T08:00:27.999Z</time></trkpt><trkpt lat="43.43488259679567" lon="12.243930282718976"><ele>275.0</ele><time>2026-04-19T08:00:28.999Z</time></trkpt><trkpt lat="43.435199387614816" lon="12.24386690406917"><ele>276.0</ele><time>2026-04-19T08:00:29.999Z</time></trkpt><trkpt lat="43.43550913099481" lon="12.24379750998089"><ele>277.0</ele><time>2026-04-19T08:00:30.999Z</time></trkpt><trkpt lat="43.43581540079389" lon="12.243719568002497"><ele>278.0</ele><time>2026-04-19T08:00:31.999Z</time></trkpt><trkpt lat="43.436118904129614" lon="12.243629853473266"><ele>279.0</ele><time>2026-04-19T08:00:32.999Z</time></trkpt><trkpt lat="43.43641685184513" lon="12.24352235552727"><ele>280.0</ele><time>2026-04-19T08:00:33.999Z</time></trkpt><trkpt lat="43.43671224141276" lon="12.243405717333472"><ele>280.0</ele><time>2026-04-19T08:00:34.999Z</time></trkpt><trkpt lat="43.43700170369979" lon="12.243273323208465"><ele>280.0</ele><time>2026-04-19T08:00:35.999Z</time></trkpt><trkpt lat="43.437287590540805" lon="12.243126043935938"><ele>281.5</ele><time>2026-04-19T08:00:36.999Z</time></trkpt><trkpt lat="43.437568023332005" lon="12.242963291644932"><ele>283.0</ele><time>2026-04-19T08:00:37.999Z</time></trkpt><trkpt lat="43.43784329034071" lon="12.242788971109917"><ele>283.0</ele><time>2026-04-19T08:00:38.999Z</time></trkpt><trkpt lat="43.438114530154984" lon="12.242600316586135"><ele>283.0</ele><time>2026-04-19T08:00:39.999Z</time></trkpt><trkpt lat="43.43838414854105" lon="12.242396225292277"><ele>285.5</ele><time>2026-04-19T08:00:40.999Z</time></trkpt><trkpt lat="43.43865022220978" lon="12.242176302875274"><ele>288.0</ele><time>2026-04-19T08:00:41.999Z</time></trkpt><trkpt lat="43.43891545656167" lon="12.241934845187654"><ele>288.0</ele><time>2026-04-19T08:00:42.999Z</time></trkpt><trkpt lat="43.43917458636824" lon="12.241691606580137"><ele>288.0</ele><time>2026-04-19T08:00:43.999Z</time></trkpt><trkpt lat="43.43943057032478" lon="12.241432974254854"><ele>293.0</ele><time>2026-04-19T08:00:44.999Z</time></trkpt><trkpt lat="43.4396847603792" lon="12.241170450532422"><ele>298.0</ele><time>2026-04-19T08:00:45.999Z</time></trkpt><trkpt lat="43.43993687323919" lon="12.240905259360591"><ele>298.0</ele><time>2026-04-19T08:00:46.999Z</time></trkpt><trkpt lat="43.440185999551204" lon="12.240638894370933"><ele>298.0</ele><time>2026-04-19T08:00:47.999Z</time></trkpt><trkpt lat="43.44042966686397" lon="12.240368145826116"><ele>306.5</ele><time>2026-04-19T08:00:48.999Z</time></trkpt><trkpt lat="43.44067181926926" lon="12.240104685328713"><ele>315.0</ele><time>2026-04-19T08:00:49.999Z</time></trkpt><trkpt lat="43.44091652086144" lon="12.239847242135001"><ele>322.0</ele><time>2026-04-19T08:00:50.999Z</time></trkpt><trkpt lat="43.44116124741201" lon="12.239590339055267"><ele>329.0</ele><time>2026-04-19T08:00:51.999Z</time></trkpt><trkpt lat="43.44141088835268" lon="12.239331443443058"><ele>318.5</ele><time>2026-04-19T08:00:52.999Z</time></trkpt><trkpt lat="43.44166501598273" lon="12.239075296861648"><ele>308.0</ele><time>2026-04-19T08:00:53.999Z</time></trkpt><trkpt lat="43.44192610195485" lon="12.238801210259359"><ele>303.5</ele><time>2026-04-19T08:00:54.999Z</time></trkpt><trkpt lat="43.44218708689175" lon="12.238560388142671"><ele>299.0</ele><time>2026-04-19T08:00:55.999Z</time></trkpt><trkpt lat="43.442453439187055" lon="12.2383251668983"><ele>303.0</ele><time>2026-04-19T08:00:56.999Z</time></trkpt><trkpt lat="43.44273143361034" lon="12.238100617970463"><ele>307.0</ele><time>2026-04-19T08:00:57.999Z</time></trkpt><trkpt lat="43.443019694034646" lon="12.237893187372402"><ele>307.5</ele><time>2026-04-19T08:00:58.999Z</time></trkpt><trkpt lat="43.443313196265926" lon="12.237703991233674"><ele>308.0</ele><time>2026-04-19T08:00:59.999Z</time></trkpt><trkpt lat="43.44361193575388" lon="12.23753668440931"><ele>306.5</ele><time>2026-04-19T08:01:00.999Z</time></trkpt><trkpt lat="43.44391678786974" lon="12.237387796586878"><ele>305.0</ele><time>2026-04-19T08:01:01.999Z</time></trkpt><trkpt lat="43.44422834422713" lon="12.237256818106573"><ele>306.0</ele><time>2026-04-19T08:01:02.999Z</time></trkpt><trkpt lat="43.444553310202245" lon="12.237137235160976"><ele>307.0</ele><time>2026-04-19T08:01:03.999Z</time></trkpt><trkpt lat="43.4448826838906" lon="12.237018584738573"><ele>307.0</ele><time>2026-04-19T08:01:04.999Z</time></trkpt><trkpt lat="43.44521450211925" lon="12.236903730864583"><ele>307.0</ele><time>2026-04-19T08:01:05.999Z</time></trkpt><trkpt lat="43.44554311947165" lon="12.236794137729055"><ele>305.0</ele><time>2026-04-19T08:01:06.999Z</time></trkpt><trkpt lat="43.44587059908625" lon="12.236686921816553"><ele>303.0</ele><time>2026-04-19T08:01:07.999Z</time></trkpt><trkpt lat="43.44619132645946" lon="12.236586392569457"><ele>301.0</ele><time>2026-04-19T08:01:08.999Z</time></trkpt><trkpt lat="43.44650411804603" lon="12.236491347538456"><ele>299.0</ele><time>2026-04-19T08:01:09.999Z</time></trkpt><trkpt lat="43.44680965384718" lon="12.236401214166934"><ele>303.5</ele><time>2026-04-19T08:01:10.999Z</time></trkpt><trkpt lat="43.44710919513177" lon="12.236317338441905"><ele>308.0</ele><time>2026-04-19T08:01:11.999Z</time></trkpt><trkpt lat="43.447402177437695" lon="12.236231513939478"><ele>309.5</ele><time>2026-04-19T08:01:12.999Z</time></trkpt><trkpt lat="43.44769067214549" lon="12.236144322973768"><ele>311.0</ele><time>2026-04-19T08:01:13.999Z</time></trkpt><trkpt lat="43.447976565733775" lon="12.236052135239763"><ele>312.0</ele><time>2026-04-19T08:01:14.999Z</time></trkpt><trkpt lat="43.44826231637704" lon="12.235954283618964"><ele>313.0</ele><time>2026-04-19T08:01:15.999Z</time></trkpt><trkpt lat="43.448551428701926" lon="12.235857871962356"><ele>312.5</ele><time>2026-04-19T08:01:16.999Z</time></trkpt><trkpt lat="43.44884292149416" lon="12.235765406806307"><ele>312.0</ele><time>2026-04-19T08:01:17.999Z</time></trkpt><trkpt lat="43.449132098582886" lon="12.235666992256112"><ele>313.0</ele><time>2026-04-19T08:01:18.998Z</time></trkpt><trkpt lat="43.449417694566115" lon="12.235548749167888"><ele>314.0</ele><time>2026-04-19T08:01:19.998Z</time></trkpt><trkpt lat="43.44970180270717" lon="12.235415783338263"><ele>314.0</ele><time>2026-04-19T08:01:20.998Z</time></trkpt><trkpt lat="43.44998340536868" lon="12.235265729957677"><ele>314.0</ele><time>2026-04-19T08:01:21.998Z</time></trkpt><trkpt lat="43.45026022680787" lon="12.235098080721984"><ele>313.5</ele><time>2026-04-19T08:01:22.998Z</time></trkpt><trkpt lat="43.45053092986207" lon="12.234916460619356"><ele>313.0</ele><time>2026-04-19T08:01:23.998Z</time></trkpt><trkpt lat="43.45079711476607" lon="12.23471556880899"><ele>314.5</ele><time>2026-04-19T08:01:24.998Z</time></trkpt><trkpt lat="43.45105927043096" lon="12.234494986600374"><ele>316.0</ele><time>2026-04-19T08:01:25.998Z</time></trkpt><trkpt lat="43.45131366255077" lon="12.234244765778994"><ele>313.0</ele><time>2026-04-19T08:01:26.998Z</time></trkpt><trkpt lat="43.45156439212879" lon="12.233976423753068"><ele>310.0</ele><time>2026-04-19T08:01:27.998Z</time></trkpt><trkpt lat="43.451812287531475" lon="12.233693428697503"><ele>310.0</ele><time>2026-04-19T08:01:28.998Z</time></trkpt><trkpt lat="43.45205426162336" lon="12.23339817953647"><ele>310.0</ele><time>2026-04-19T08:01:29.998Z</time></trkpt><trkpt lat="43.452300325760696" lon="12.233100888713885"><ele>310.5</ele><time>2026-04-19T08:01:30.998Z</time></trkpt><trkpt lat="43.45254729559992" lon="12.232798972369201"><ele>311.0</ele><time>2026-04-19T08:01:31.998Z</time></trkpt><trkpt lat="43.45279620514094" lon="12.23250070931301"><ele>306.0</ele><time>2026-04-19T08:01:32.998Z</time></trkpt><trkpt lat="43.45304478782098" lon="12.232201381379072"><ele>301.0</ele><time>2026-04-19T08:01:33.998Z</time></trkpt><trkpt lat="43.45329107991297" lon="12.231906446024734"><ele>301.0</ele><time>2026-04-19T08:01:34.998Z</time></trkpt><trkpt lat="43.45353253520208" lon="12.231615872903452"><ele>301.0</ele><time>2026-04-19T08:01:35.998Z</time></trkpt><trkpt lat="43.45377091569302" lon="12.231331737427467"><ele>301.0</ele><time>2026-04-19T08:01:36.998Z</time></trkpt><trkpt lat="43.45400478773011" lon="12.231048363313121"><ele>301.0</ele><time>2026-04-19T08:01:37.998Z</time></trkpt><trkpt lat="43.45423411710205" lon="12.23076869955033"><ele>299.5</ele><time>2026-04-19T08:01:38.998Z</time></trkpt><trkpt lat="43.45446114973213" lon="12.230490517639986"><ele>298.0</ele><time>2026-04-19T08:01:39.998Z</time></trkpt><trkpt lat="43.45468819066387" lon="12.230214883332144"><ele>298.0</ele><time>2026-04-19T08:01:40.998Z</time></trkpt><trkpt lat="43.454914496301754" lon="12.229945870699176"><ele>298.0</ele><time>2026-04-19T08:01:41.998Z</time></trkpt><trkpt lat="43.455141838400955" lon="12.2296753471479"><ele>297.5</ele><time>2026-04-19T08:01:42.998Z</time></trkpt><trkpt lat="43.45536826793602" lon="12.229402141534553"><ele>297.0</ele><time>2026-04-19T08:01:44Z</time></trkpt><trkpt lat="43.45559478547306" lon="12.229131141240643"><ele>301.5</ele><time>2026-04-19T08:01:45Z</time></trkpt><trkpt lat="43.45581959118685" lon="12.228862334735334"><ele>306.0</ele><time>2026-04-19T08:01:46Z</time></trkpt><trkpt lat="43.45604507601027" lon="12.228593546686712"><ele>306.0</ele><time>2026-04-19T08:01:47Z</time></trkpt><trkpt lat="43.456271234238784" lon="12.228327685800439"><ele>306.0</ele><time>2026-04-19T08:01:48Z</time></trkpt><trkpt lat="43.45650056096891" lon="12.22807130048549"><ele>308.0</ele><time>2026-04-19T08:01:49Z</time></trkpt><trkpt lat="43.45674218833397" lon="12.227840759525884"><ele>310.0</ele><time>2026-04-19T08:01:50Z</time></trkpt><trkpt lat="43.45699463574229" lon="12.227627063401018"><ele>310.5</ele><time>2026-04-19T08:01:51Z</time></trkpt><trkpt lat="43.45725459666091" lon="12.227434338010111"><ele>311.0</ele><time>2026-04-19T08:01:52Z</time></trkpt><trkpt lat="43.45752233832803" lon="12.227256721655348"><ele>311.0</ele><time>2026-04-19T08:01:53Z</time></trkpt><trkpt lat="43.45779621745621" lon="12.227098885874915"><ele>311.0</ele><time>2026-04-19T08:01:54Z</time></trkpt><trkpt lat="43.458076596846034" lon="12.226957085096815"><ele>309.0</ele><time>2026-04-19T08:01:55Z</time></trkpt><trkpt lat="43.45836447283587" lon="12.226835997724484"><ele>307.0</ele><time>2026-04-19T08:01:56Z</time></trkpt><trkpt lat="43.45865801230732" lon="12.226735870645111"><ele>307.5</ele><time>2026-04-19T08:01:57Z</time></trkpt><trkpt lat="43.458956476308146" lon="12.226652380133338"><ele>308.0</ele><time>2026-04-19T08:01:58Z</time></trkpt><trkpt lat="43.459256946943526" lon="12.226588881970168"><ele>308.0</ele><time>2026-04-19T08:01:59Z</time></trkpt><trkpt lat="43.459559525833406" lon="12.226548093976504"><ele>308.0</ele><time>2026-04-19T08:02:00Z</time></trkpt><trkpt lat="43.45986679133807" lon="12.226532385927758"><ele>306.0</ele><time>2026-04-19T08:02:01Z</time></trkpt><trkpt lat="43.46017327319891" lon="12.226543475403286"><ele>304.0</ele><time>2026-04-19T08:02:02Z</time></trkpt><trkpt lat="43.460479568832554" lon="12.226571747594537"><ele>303.5</ele><time>2026-04-19T08:02:03Z</time></trkpt><trkpt lat="43.460783471627074" lon="12.226621278042028"><ele>303.0</ele><time>2026-04-19T08:02:04Z</time></trkpt><trkpt lat="43.46106981331592" lon="12.22667894495143"><ele>302.5</ele><time>2026-04-19T08:02:05Z</time></trkpt><trkpt lat="43.46134019571526" lon="12.22673454281104"><ele>302.0</ele><time>2026-04-19T08:02:06Z</time></trkpt><trkpt lat="43.4616127914743" lon="12.226782960935472"><ele>302.0</ele><time>2026-04-19T08:02:07Z</time></trkpt><trkpt lat="43.46192217197564" lon="12.226830242002503"><ele>302.0</ele><time>2026-04-19T08:02:08Z</time></trkpt><trkpt lat="43.46225608120198" lon="12.226899132761721"><ele>297.5</ele><time>2026-04-19T08:02:09Z</time></trkpt><trkpt lat="43.462613747545625" lon="12.226969799440338"><ele>293.0</ele><time>2026-04-19T08:02:10Z</time></trkpt><trkpt lat="43.46298683353697" lon="12.227057776850009"><ele>288.0</ele><time>2026-04-19T08:02:11Z</time></trkpt><trkpt lat="43.463366830956765" lon="12.227162640734958"><ele>283.0</ele><time>2026-04-19T08:02:12Z</time></trkpt><trkpt lat="43.463711440017654" lon="12.227251182778682"><ele>281.0</ele><time>2026-04-19T08:02:13Z</time></trkpt><trkpt lat="43.46403337019739" lon="12.227313946100644"><ele>279.0</ele><time>2026-04-19T08:02:14Z</time></trkpt><trkpt lat="43.464325860259834" lon="12.22738193678634"><ele>279.0</ele><time>2026-04-19T08:02:15Z</time></trkpt><trkpt lat="43.46458267109867" lon="12.227445218498262"><ele>279.0</ele><time>2026-04-19T08:02:16Z</time></trkpt><trkpt lat="43.46482676790685" lon="12.227493591609747"><ele>281.0</ele><time>2026-04-19T08:02:17Z</time></trkpt><trkpt lat="43.46505732140859" lon="12.22754461762698"><ele>283.0</ele><time>2026-04-19T08:02:17.999Z</time></trkpt><trkpt lat="43.46527530398626" lon="12.227592832844842"><ele>283.0</ele><time>2026-04-19T08:02:18.999Z</time></trkpt><trkpt lat="43.46548100690969" lon="12.22762830770808"><ele>283.0</ele><time>2026-04-19T08:02:19.999Z</time></trkpt><trkpt lat="43.465673046201545" lon="12.227642473473452"><ele>283.0</ele><time>2026-04-19T08:02:20.999Z</time></trkpt><trkpt lat="43.465862829046614" lon="12.2276949141913"><ele>283.0</ele><time>2026-04-19T08:02:21.999Z</time></trkpt><trkpt lat="43.46605375981186" lon="12.227821452268216"><ele>283.0</ele><time>2026-04-19T08:02:22.999Z</time></trkpt><trkpt lat="43.46624726623045" lon="12.228007397497397"><ele>283.0</ele><time>2026-04-19T08:02:23.999Z</time></trkpt><trkpt lat="43.46644397666598" lon="12.228190272570197"><ele>283.0</ele><time>2026-04-19T08:02:24.999Z</time></trkpt><trkpt lat="43.46662346261075" lon="12.228355012077843"><ele>283.0</ele><time>2026-04-19T08:02:25.999Z</time></trkpt><trkpt lat="43.46680521273166" lon="12.228477519275057"><ele>283.0</ele><time>2026-04-19T08:02:26.999Z</time></trkpt><trkpt lat="43.46698350288049" lon="12.228559847799483"><ele>281.66666666666663</ele><time>2026-04-19T08:02:27.999Z</time></trkpt><trkpt lat="43.46714129773617" lon="12.228692038661833"><ele>280.3333333333333</ele><time>2026-04-19T08:02:28.999Z</time></trkpt><trkpt lat="43.46730955193478" lon="12.228734926314651"><ele>279.0</ele><time>2026-04-19T08:02:29.999Z</time></trkpt><trkpt lat="43.46746456059184" lon="12.228787046528126"><ele>279.0</ele><time>2026-04-19T08:02:30.999Z</time></trkpt><trkpt lat="43.467618703781305" lon="12.228791813195308"><ele>279.0</ele><time>2026-04-19T08:02:31.999Z</time></trkpt><trkpt lat="43.467762691909726" lon="12.228803333754252"><ele>279.0</ele><time>2026-04-19T08:02:32.999Z</time></trkpt><trkpt lat="43.46789712548427" lon="12.22883545042228"><ele>279.0</ele><time>2026-04-19T08:02:33.999Z</time></trkpt><trkpt lat="43.468017607473215" lon="12.228897211856346"><ele>279.0</ele><time>2026-04-19T08:02:34.999Z</time></trkpt><trkpt lat="43.46813994570656" lon="12.228998796856445"><ele>279.0</ele><time>2026-04-19T08:02:35.999Z</time></trkpt><trkpt lat="43.46827567778522" lon="12.229079259148858"><ele>279.0</ele><time>2026-04-19T08:02:36.999Z</time></trkpt><trkpt lat="43.468352435801776" lon="12.229285160551791"><ele>279.0</ele><time>2026-04-19T08:02:37.999Z</time></trkpt><trkpt lat="43.46843193568793" lon="12.229421921079746"><ele>279.0</ele><time>2026-04-19T08:02:38.999Z</time></trkpt><trkpt lat="43.46849635430702" lon="12.229530085139539"><ele>279.0</ele><time>2026-04-19T08:02:39.999Z</time></trkpt><trkpt lat="43.46853706786564" lon="12.229622292427312"><ele>279.0</ele><time>2026-04-19T08:02:40.999Z</time></trkpt><trkpt lat="43.46856674114589" lon="12.229754764473823"><ele>279.0</ele><time>2026-04-19T08:02:42.999Z</time></trkpt><trkpt lat="43.46856006215481" lon="12.229896904221278"><ele>279.3333333333333</ele><time>2026-04-19T08:02:44.999Z</time></trkpt><trkpt lat="43.468562984226594" lon="12.229995545324716"><ele>279.6666666666667</ele><time>2026-04-19T08:02:45.999Z</time></trkpt><trkpt lat="43.46857566252871" lon="12.230113423795988"><ele>280.0</ele><time>2026-04-19T08:02:46.999Z</time></trkpt><trkpt lat="43.468594719078496" lon="12.23023454658407"><ele>280.33333333333337</ele><time>2026-04-19T08:02:47.999Z</time></trkpt><trkpt lat="43.4686361574639" lon="12.230340841182525"><ele>280.6666666666667</ele><time>2026-04-19T08:02:48.999Z</time></trkpt><trkpt lat="43.46869558688597" lon="12.230427415795644"><ele>281.0</ele><time>2026-04-19T08:02:49.999Z</time></trkpt><trkpt lat="43.46877164812097" lon="12.230492788163698"><ele>281.5</ele><time>2026-04-19T08:02:50.999Z</time></trkpt><trkpt lat="43.468860927481025" lon="12.230522322816286"><ele>282.0</ele><time>2026-04-19T08:02:51.999Z</time></trkpt><trkpt lat="43.46896462634492" lon="12.230522671090561"><ele>282.5</ele><time>2026-04-19T08:02:52.999Z</time></trkpt><trkpt lat="43.469091976733964" lon="12.230491043970073"><ele>283.0</ele><time>2026-04-19T08:02:53.999Z</time></trkpt><trkpt lat="43.469229483298065" lon="12.230462181160338"><ele>283.0</ele><time>2026-04-19T08:02:54.999Z</time></trkpt><trkpt lat="43.46938030211961" lon="12.230505059419587"><ele>283.0</ele><time>2026-04-19T08:02:55.999Z</time></trkpt><trkpt lat="43.469547547474804" lon="12.230627705526796"><ele>283.0</ele><time>2026-04-19T08:02:56.999Z</time></trkpt><trkpt lat="43.46973749283466" lon="12.230808532635429"><ele>283.0</ele><time>2026-04-19T08:02:57.999Z</time></trkpt><trkpt lat="43.469929354220525" lon="12.23101011760559"><ele>283.0</ele><time>2026-04-19T08:02:58.999Z</time></trkpt><trkpt lat="43.470113094190694" lon="12.231191052220362"><ele>283.0</ele><time>2026-04-19T08:02:59.999Z</time></trkpt><trkpt lat="43.470275820386455" lon="12.231372698239872"><ele>283.0</ele><time>2026-04-19T08:03:00.999Z</time></trkpt><trkpt lat="43.47043888746998" lon="12.231570205002226"><ele>283.0</ele><time>2026-04-19T08:03:01.999Z</time></trkpt><trkpt lat="43.47061206016516" lon="12.231785244122277"><ele>284.0</ele><time>2026-04-19T08:03:02.999Z</time></trkpt><trkpt lat="43.470787929361734" lon="12.232039382217426"><ele>285.0</ele><time>2026-04-19T08:03:03.999Z</time></trkpt><trkpt lat="43.470963490798134" lon="12.232356776248547"><ele>285.5</ele><time>2026-04-19T08:03:04.999Z</time></trkpt><trkpt lat="43.47113147540381" lon="12.232699637821467"><ele>286.0</ele><time>2026-04-19T08:03:05.999Z</time></trkpt><trkpt lat="43.47129358353797" lon="12.233042575082475"><ele>284.5</ele><time>2026-04-19T08:03:06.999Z</time></trkpt><trkpt lat="43.47142551025864" lon="12.233350939318703"><ele>283.0</ele><time>2026-04-19T08:03:07.999Z</time></trkpt><trkpt lat="43.47155255026036" lon="12.233657303781847"><ele>283.0</ele><time>2026-04-19T08:03:08.999Z</time></trkpt><trkpt lat="43.471665871461724" lon="12.233942301896677"><ele>283.0</ele><time>2026-04-19T08:03:09.999Z</time></trkpt><trkpt lat="43.47177631595244" lon="12.234204526220706"><ele>284.66666666666663</ele><time>2026-04-19T08:03:10.999Z</time></trkpt><trkpt lat="43.47188291060688" lon="12.234448984918979"><ele>286.3333333333333</ele><time>2026-04-19T08:03:11.999Z</time></trkpt><trkpt lat="43.471979077812065" lon="12.234671195591554"><ele>288.0</ele><time>2026-04-19T08:03:12.999Z</time></trkpt><trkpt lat="43.472056290726755" lon="12.234858308473045"><ele>287.6</ele><time>2026-04-19T08:03:13.999Z</time></trkpt><trkpt lat="43.47210782423433" lon="12.235011654434294"><ele>287.20000000000005</ele><time>2026-04-19T08:03:14.999Z</time></trkpt><trkpt lat="43.472126074278606" lon="12.235154097229836"><ele>286.8</ele><time>2026-04-19T08:03:15.999Z</time></trkpt><trkpt lat="43.472112556419034" lon="12.235253373986838"><ele>286.40000000000003</ele><time>2026-04-19T08:03:16.999Z</time></trkpt><trkpt lat="43.4720961894977" lon="12.235350262427223"><ele>286.0</ele><time>2026-04-19T08:03:17.999Z</time></trkpt><trkpt lat="43.472082597368185" lon="12.235470254297143"><ele>285.75</ele><time>2026-04-19T08:03:18.999Z</time></trkpt><trkpt lat="43.472078630123356" lon="12.235631959751615"><ele>285.5</ele><time>2026-04-19T08:03:19.999Z</time></trkpt><trkpt lat="43.47209270535466" lon="12.23579506602374"><ele>285.25</ele><time>2026-04-19T08:03:20.999Z</time></trkpt><trkpt lat="43.47214465328953" lon="12.235946717156711"><ele>285.0</ele><time>2026-04-19T08:03:21.998Z</time></trkpt><trkpt lat="43.47223481535727" lon="12.236068291686978"><ele>285.0</ele><time>2026-04-19T08:03:22.998Z</time></trkpt><trkpt lat="43.47235850301799" lon="12.236145518710622"><ele>285.0</ele><time>2026-04-19T08:03:23.998Z</time></trkpt><trkpt lat="43.47250687535536" lon="12.236192784210733"><ele>285.0</ele><time>2026-04-19T08:03:24.998Z</time></trkpt><trkpt lat="43.472621130096314" lon="12.236270394924734"><ele>285.0</ele><time>2026-04-19T08:03:25.998Z</time></trkpt><trkpt lat="43.472721057658894" lon="12.236364065236511"><ele>285.3333333333333</ele><time>2026-04-19T08:03:26.998Z</time></trkpt><trkpt lat="43.472805549155325" lon="12.236572666167914"><ele>285.66666666666663</ele><time>2026-04-19T08:03:27.998Z</time></trkpt><trkpt lat="43.472911812683506" lon="12.23680424706206"><ele>286.0</ele><time>2026-04-19T08:03:28.998Z</time></trkpt><trkpt lat="43.472993043548456" lon="12.237039818371748"><ele>286.0</ele><time>2026-04-19T08:03:29.998Z</time></trkpt><trkpt lat="43.47307104003666" lon="12.237287252923553"><ele>286.0</ele><time>2026-04-19T08:03:30.998Z</time></trkpt><trkpt lat="43.47314825706477" lon="12.237553865045472"><ele>286.0</ele><time>2026-04-19T08:03:31.998Z</time></trkpt><trkpt lat="43.473202481871766" lon="12.23784727630993"><ele>286.0</ele><time>2026-04-19T08:03:32.998Z</time></trkpt><trkpt lat="43.47321767655101" lon="12.23812714201441"><ele>286.0</ele><time>2026-04-19T08:03:33.998Z</time></trkpt><trkpt lat="43.473218773100314" lon="12.23839907895039"><ele>286.0</ele><time>2026-04-19T08:03:34.998Z</time></trkpt><trkpt lat="43.47320483655575" lon="12.238658857050513"><ele>286.5</ele><time>2026-04-19T08:03:35.998Z</time></trkpt><trkpt lat="43.47317351815434" lon="12.238873408129848"><ele>287.0</ele><time>2026-04-19T08:03:36.998Z</time></trkpt><trkpt lat="43.47314495743001" lon="12.239029897168793"><ele>287.5</ele><time>2026-04-19T08:03:37.998Z</time></trkpt><trkpt lat="43.47310783139522" lon="12.239168562508732"><ele>288.0</ele><time>2026-04-19T08:03:38.998Z</time></trkpt><trkpt lat="43.47297174607634" lon="12.239296151062499"><ele>288.0</ele><time>2026-04-19T08:03:40.998Z</time></trkpt><trkpt lat="43.47289489608555" lon="12.239400534564814"><ele>288.0</ele><time>2026-04-19T08:03:41.998Z</time></trkpt><trkpt lat="43.47288572825238" lon="12.239590373543523"><ele>288.0</ele><time>2026-04-19T08:03:42.998Z</time></trkpt><trkpt lat="43.472898111588734" lon="12.239793762799009"><ele>288.0</ele><time>2026-04-19T08:03:43.998Z</time></trkpt><trkpt lat="43.4729069195413" lon="12.240094640399082"><ele>288.0</ele><time>2026-04-19T08:03:44.998Z</time></trkpt><trkpt lat="43.47282221044905" lon="12.24040047411342"><ele>288.0</ele><time>2026-04-19T08:03:45.998Z</time></trkpt><trkpt lat="43.47273494166769" lon="12.240714722950003"><ele>289.0</ele><time>2026-04-19T08:03:46.998Z</time></trkpt><trkpt lat="43.472641642523776" lon="12.24106577756239"><ele>290.0</ele><time>2026-04-19T08:03:47.998Z</time></trkpt><trkpt lat="43.47256128723974" lon="12.241394248682202"><ele>289.5</ele><time>2026-04-19T08:03:49Z</time></trkpt><trkpt lat="43.47246566853903" lon="12.241762703438829"><ele>289.0</ele><time>2026-04-19T08:03:50Z</time></trkpt><trkpt lat="43.47238079718109" lon="12.242120811831018"><ele>289.5</ele><time>2026-04-19T08:03:51Z</time></trkpt><trkpt lat="43.47229921001169" lon="12.24246684988743"><ele>290.0</ele><time>2026-04-19T08:03:52Z</time></trkpt><trkpt lat="43.47222294345425" lon="12.242773432661108"><ele>290.0</ele><time>2026-04-19T08:03:53Z</time></trkpt><trkpt lat="43.4721692738709" lon="12.243011757458236"><ele>290.0</ele><time>2026-04-19T08:03:54Z</time></trkpt><trkpt lat="43.47210205171488" lon="12.243283462797866"><ele>290.0</ele><time>2026-04-19T08:03:55Z</time></trkpt><trkpt lat="43.472048555655526" lon="12.243506976663122"><ele>290.0</ele><time>2026-04-19T08:03:56Z</time></trkpt><trkpt lat="43.47200173061284" lon="12.243712203102982"><ele>290.0</ele><time>2026-04-19T08:03:57Z</time></trkpt><trkpt lat="43.47196077164104" lon="12.243890090105992"><ele>290.0</ele><time>2026-04-19T08:03:58Z</time></trkpt><trkpt lat="43.47191374202415" lon="12.244064221051792"><ele>290.0</ele><time>2026-04-19T08:03:59Z</time></trkpt><trkpt lat="43.471880502063506" lon="12.24420737322821"><ele>290.2</ele><time>2026-04-19T08:04:00Z</time></trkpt><trkpt lat="43.471855970923954" lon="12.24431837453883"><ele>290.4</ele><time>2026-04-19T08:04:01Z</time></trkpt><trkpt lat="43.47183349714943" lon="12.244441681024163"><ele>290.6</ele><time>2026-04-19T08:04:03Z</time></trkpt><trkpt lat="43.47180653325615" lon="12.244552965752172"><ele>290.8</ele><time>2026-04-19T08:04:09Z</time></trkpt><trkpt lat="43.471966235527354" lon="12.244658095333044"><ele>291.0</ele><time>2026-04-19T08:04:11Z</time></trkpt><trkpt lat="43.472067148471844" lon="12.24466095941476"><ele>291.0</ele><time>2026-04-19T08:04:12Z</time></trkpt><trkpt lat="43.47216689124459" lon="12.24462979674602"><ele>291.0</ele><time>2026-04-19T08:04:13Z</time></trkpt><trkpt lat="43.47224316597529" lon="12.244618585439097"><ele>291.0</ele><time>2026-04-19T08:04:14Z</time></trkpt><trkpt lat="43.47232777333622" lon="12.24461556924773"><ele>291.0</ele><time>2026-04-19T08:04:16Z</time></trkpt><trkpt lat="43.47231591196342" lon="12.244396041367446"><ele>291.0</ele><time>2026-04-19T08:04:17Z</time></trkpt><trkpt lat="43.472350407274575" lon="12.244294585066662"><ele>291.0</ele><time>2026-04-19T08:04:20Z</time></trkpt><trkpt lat="43.472394035529454" lon="12.244196365996896"><ele>291.0</ele><time>2026-04-19T08:04:21.999Z</time></trkpt><trkpt lat="43.47245567892322" lon="12.244176763338084"><ele>291.0</ele><time>2026-04-19T08:04:25.999Z</time></trkpt><trkpt lat="43.47245080725554" lon="12.244090179411522"><ele>291.0</ele><time>2026-04-19T08:04:59.999Z</time></trkpt><trkpt lat="43.472385041587664" lon="12.244079887304478"><ele>291.0</ele><time>2026-04-19T08:05:35.998Z</time></trkpt><trkpt lat="43.47240109881807" lon="12.2441646064335"><ele>291.0</ele><time>2026-04-19T08:19:54.999Z</time></trkpt><trkpt lat="43.47238667850359" lon="12.244253148504212"><ele>291.0</ele><time>2026-04-19T08:20:00.999Z</time></trkpt><trkpt lat="43.47242893486723" lon="12.244170970920594"><ele>291.0</ele><time>2026-04-19T08:21:51Z</time></trkpt><trkpt lat="43.472451212411784" lon="12.244069864047932"><ele>291.0</ele><time>2026-04-19T08:22:57.999Z</time></trkpt><trkpt lat="43.47238544241912" lon="12.244053251761374"><ele>291.0</ele><time>2026-04-19T08:24:12Z</time></trkpt><trkpt lat="43.47227958774262" lon="12.244014904203972"><ele>291.0</ele><time>2026-04-19T08:24:15.999Z</time></trkpt><trkpt lat="43.47221514136448" lon="12.243915366093743"><ele>291.0</ele><time>2026-04-19T08:24:17.999Z</time></trkpt><trkpt lat="43.47216330211518" lon="12.243853048041418"><ele>291.0</ele><time>2026-04-19T08:24:57.999Z</time></trkpt><trkpt lat="43.47209685358217" lon="12.243848369818256"><ele>291.0</ele><time>2026-04-19T08:25:00.999Z</time></trkpt><trkpt lat="43.47197774513411" lon="12.243917937844765"><ele>291.0</ele><time>2026-04-19T08:25:10.999Z</time></trkpt><trkpt lat="43.47192815669985" lon="12.244070990659855"><ele>291.0</ele><time>2026-04-19T08:25:11.999Z</time></trkpt><trkpt lat="43.4718706073044" lon="12.244252277838669"><ele>291.0</ele><time>2026-04-19T08:25:12.999Z</time></trkpt><trkpt lat="43.47182152314755" lon="12.244431144027349"><ele>291.0</ele><time>2026-04-19T08:25:13.999Z</time></trkpt><trkpt lat="43.47177673218198" lon="12.244608386682806"><ele>291.0</ele><time>2026-04-19T08:25:14.999Z</time></trkpt><trkpt lat="43.47173097171926" lon="12.244792918660373"><ele>291.0</ele><time>2026-04-19T08:25:15.999Z</time></trkpt><trkpt lat="43.471686107091884" lon="12.244983583055916"><ele>291.0</ele><time>2026-04-19T08:25:16.998Z</time></trkpt><trkpt lat="43.47163735256459" lon="12.245158989599803"><ele>291.0</ele><time>2026-04-19T08:25:17.998Z</time></trkpt><trkpt lat="43.47159596699896" lon="12.245306938917267"><ele>291.0</ele><time>2026-04-19T08:25:18.998Z</time></trkpt><trkpt lat="43.471527244811085" lon="12.245439260593972"><ele>291.0</ele><time>2026-04-19T08:25:19.998Z</time></trkpt><trkpt lat="43.4714495016004" lon="12.245582415530428"><ele>291.0</ele><time>2026-04-19T08:25:20.998Z</time></trkpt><trkpt lat="43.47130402959431" lon="12.24563170987303"><ele>291.25</ele><time>2026-04-19T08:25:21.998Z</time></trkpt><trkpt lat="43.47119526530813" lon="12.245715183403686"><ele>291.5</ele><time>2026-04-19T08:25:22.998Z</time></trkpt><trkpt lat="43.47111639206358" lon="12.245823830334762"><ele>291.75</ele><time>2026-04-19T08:25:23.998Z</time></trkpt><trkpt lat="43.47106821051494" lon="12.245957310748262"><ele>292.0</ele><time>2026-04-19T08:25:24.998Z</time></trkpt><trkpt lat="43.47105100456803" lon="12.246104861156304"><ele>292.0</ele><time>2026-04-19T08:25:25.998Z</time></trkpt><trkpt lat="43.47106303434038" lon="12.246241701722616"><ele>292.0</ele><time>2026-04-19T08:25:26.998Z</time></trkpt><trkpt lat="43.47109032094518" lon="12.24634404005243"><ele>292.0</ele><time>2026-04-19T08:25:27.998Z</time></trkpt><trkpt lat="43.471118290754596" lon="12.24642433289886"><ele>292.0</ele><time>2026-04-19T08:25:28.998Z</time></trkpt><trkpt lat="43.471169452828825" lon="12.246523852877953"><ele>292.0</ele><time>2026-04-19T08:25:30.998Z</time></trkpt><trkpt lat="43.471212296206104" lon="12.246596019067285"><ele>292.0</ele><time>2026-04-19T08:25:32.998Z</time></trkpt><trkpt lat="43.471171283665875" lon="12.246721251371408"><ele>292.25</ele><time>2026-04-19T08:25:33.998Z</time></trkpt><trkpt lat="43.471186149391826" lon="12.246815041589395"><ele>292.5</ele><time>2026-04-19T08:25:34.998Z</time></trkpt><trkpt lat="43.471186149392366" lon="12.246948924457191"><ele>292.75</ele><time>2026-04-19T08:25:35.998Z</time></trkpt><trkpt lat="43.47108838802715" lon="12.247102748174187"><ele>293.0</ele><time>2026-04-19T08:25:36.998Z</time></trkpt><trkpt lat="43.47103375533375" lon="12.24730012527406"><ele>293.6666666666667</ele><time>2026-04-19T08:25:37.998Z</time></trkpt><trkpt lat="43.47096874901414" lon="12.24751050409848"><ele>294.3333333333333</ele><time>2026-04-19T08:25:38.998Z</time></trkpt><trkpt lat="43.47090703206611" lon="12.247731383456673"><ele>295.0</ele><time>2026-04-19T08:25:39.998Z</time></trkpt><trkpt lat="43.470853971455625" lon="12.247961429129557"><ele>294.3333333333333</ele><time>2026-04-19T08:25:40.998Z</time></trkpt><trkpt lat="43.4708025656756" lon="12.248209241971688"><ele>293.6666666666667</ele><time>2026-04-19T08:25:41.998Z</time></trkpt><trkpt lat="43.4707493289236" lon="12.24847253111437"><ele>293.0</ele><time>2026-04-19T08:25:42.998Z</time></trkpt><trkpt lat="43.470698277881155" lon="12.248750236962554"><ele>293.33333333333337</ele><time>2026-04-19T08:25:43.998Z</time></trkpt><trkpt lat="43.470654705600865" lon="12.249043433841685"><ele>293.6666666666667</ele><time>2026-04-19T08:25:44.998Z</time></trkpt><trkpt lat="43.47062004852014" lon="12.249351149000333"><ele>294.0</ele><time>2026-04-19T08:25:45.998Z</time></trkpt><trkpt lat="43.47058966248376" lon="12.249702364997708"><ele>295.5</ele><time>2026-04-19T08:25:46.998Z</time></trkpt><trkpt lat="43.470572340546845" lon="12.25013889749898"><ele>297.0</ele><time>2026-04-19T08:25:47.998Z</time></trkpt><trkpt lat="43.470564439527855" lon="12.250595276251623"><ele>297.0</ele><time>2026-04-19T08:25:48.998Z</time></trkpt><trkpt lat="43.47056800869844" lon="12.25106874152442"><ele>297.0</ele><time>2026-04-19T08:25:49.998Z</time></trkpt><trkpt lat="43.47058276814138" lon="12.251526434432975"><ele>297.0</ele><time>2026-04-19T08:25:50.998Z</time></trkpt><trkpt lat="43.470596808731436" lon="12.251919153968188"><ele>297.0</ele><time>2026-04-19T08:25:51.998Z</time></trkpt><trkpt lat="43.470605059608914" lon="12.252278740573729"><ele>297.5</ele><time>2026-04-19T08:25:52.998Z</time></trkpt><trkpt lat="43.47061156262326" lon="12.252604130948646"><ele>298.0</ele><time>2026-04-19T08:25:53.998Z</time></trkpt><trkpt lat="43.4706173737989" lon="12.252930023193754"><ele>299.5</ele><time>2026-04-19T08:25:54.998Z</time></trkpt><trkpt lat="43.470639865931034" lon="12.253274154229505"><ele>301.0</ele><time>2026-04-19T08:25:55.998Z</time></trkpt><trkpt lat="43.470687307377666" lon="12.253639977881575"><ele>301.5</ele><time>2026-04-19T08:25:57Z</time></trkpt><trkpt lat="43.47075482443737" lon="12.254019573285616"><ele>302.0</ele><time>2026-04-19T08:25:58Z</time></trkpt><trkpt lat="43.470829916684124" lon="12.254369547657644"><ele>302.0</ele><time>2026-04-19T08:25:59Z</time></trkpt><trkpt lat="43.47088149669165" lon="12.2546494452924"><ele>302.0</ele><time>2026-04-19T08:26:00Z</time></trkpt><trkpt lat="43.47092104842445" lon="12.254871348513442"><ele>302.0</ele><time>2026-04-19T08:26:01Z</time></trkpt><trkpt lat="43.47095064154579" lon="12.255037977828474"><ele>302.75</ele><time>2026-04-19T08:26:02Z</time></trkpt><trkpt lat="43.47097513331925" lon="12.25520389748084"><ele>303.5</ele><time>2026-04-19T08:26:03Z</time></trkpt><trkpt lat="43.47093307502389" lon="12.255398976611989"><ele>304.25</ele><time>2026-04-19T08:26:04Z</time></trkpt><trkpt lat="43.47091509860513" lon="12.255523325462645"><ele>305.0</ele><time>2026-04-19T08:26:05Z</time></trkpt><trkpt lat="43.4709122251437" lon="12.255649408517339"><ele>305.5</ele><time>2026-04-19T08:26:06Z</time></trkpt><trkpt lat="43.47095624722411" lon="12.255762555413188"><ele>306.0</ele><time>2026-04-19T08:26:07Z</time></trkpt><trkpt lat="43.47103731478241" lon="12.255864403848221"><ele>306.5</ele><time>2026-04-19T08:26:08Z</time></trkpt><trkpt lat="43.471130441860545" lon="12.255987635777965"><ele>307.0</ele><time>2026-04-19T08:26:09Z</time></trkpt><trkpt lat="43.47119900454336" lon="12.25618563908196"><ele>307.0</ele><time>2026-04-19T08:26:10Z</time></trkpt><trkpt lat="43.47124220696936" lon="12.25645811471901"><ele>307.0</ele><time>2026-04-19T08:26:11Z</time></trkpt><trkpt lat="43.471290357848396" lon="12.256781111591888"><ele>307.0</ele><time>2026-04-19T08:26:12Z</time></trkpt><trkpt lat="43.471342942733195" lon="12.257161709172271"><ele>308.0</ele><time>2026-04-19T08:26:13Z</time></trkpt><trkpt lat="43.471399474429" lon="12.257503644886231"><ele>309.0</ele><time>2026-04-19T08:26:14Z</time></trkpt><trkpt lat="43.47146882826096" lon="12.25786853462814"><ele>310.5</ele><time>2026-04-19T08:26:15Z</time></trkpt><trkpt lat="43.47153964580433" lon="12.258251274514606"><ele>312.0</ele><time>2026-04-19T08:26:16Z</time></trkpt><trkpt lat="43.4716301153848" lon="12.258602009058306"><ele>312.0</ele><time>2026-04-19T08:26:16.999Z</time></trkpt><trkpt lat="43.471737101183294" lon="12.258907391537061"><ele>312.0</ele><time>2026-04-19T08:26:17.999Z</time></trkpt><trkpt lat="43.471877959557844" lon="12.25921551808872"><ele>313.5</ele><time>2026-04-19T08:26:18.999Z</time></trkpt><trkpt lat="43.4720592540807" lon="12.259518392149957"><ele>315.0</ele><time>2026-04-19T08:26:19.999Z</time></trkpt><trkpt lat="43.47227495685982" lon="12.259819124653571"><ele>317.5</ele><time>2026-04-19T08:26:20.999Z</time></trkpt><trkpt lat="43.47253269870278" lon="12.260136546786162"><ele>320.0</ele><time>2026-04-19T08:26:21.999Z</time></trkpt><trkpt lat="43.47281968158641" lon="12.260508635551782"><ele>321.5</ele><time>2026-04-19T08:26:22.999Z</time></trkpt><trkpt lat="43.47311097369711" lon="12.260898095571422"><ele>323.0</ele><time>2026-04-19T08:26:23.999Z</time></trkpt><trkpt lat="43.473414926593165" lon="12.261302777497987"><ele>324.0</ele><time>2026-04-19T08:26:24.999Z</time></trkpt><trkpt lat="43.47370392469722" lon="12.261684605250101"><ele>325.0</ele><time>2026-04-19T08:26:25.999Z</time></trkpt><trkpt lat="43.47395184726403" lon="12.262011071418144"><ele>329.0</ele><time>2026-04-19T08:26:26.999Z</time></trkpt><trkpt lat="43.47417829228713" lon="12.262301947104962"><ele>333.0</ele><time>2026-04-19T08:26:27.999Z</time></trkpt><trkpt lat="43.4743710032277" lon="12.262558139672947"><ele>333.0</ele><time>2026-04-19T08:26:28.999Z</time></trkpt><trkpt lat="43.47453315703943" lon="12.262774130921548"><ele>333.0</ele><time>2026-04-19T08:26:29.999Z</time></trkpt><trkpt lat="43.47467037992215" lon="12.26295561881789"><ele>333.0</ele><time>2026-04-19T08:26:30.999Z</time></trkpt><trkpt lat="43.47478011622585" lon="12.263119811803382"><ele>333.75</ele><time>2026-04-19T08:26:31.999Z</time></trkpt><trkpt lat="43.47477616335288" lon="12.263268640876722"><ele>334.5</ele><time>2026-04-19T08:26:32.999Z</time></trkpt><trkpt lat="43.474756432767435" lon="12.263466541017713"><ele>335.25</ele><time>2026-04-19T08:26:33.999Z</time></trkpt><trkpt lat="43.47468227219164" lon="12.263682473830308"><ele>336.0</ele><time>2026-04-19T08:26:34.999Z</time></trkpt><trkpt lat="43.47456849478878" lon="12.2638990874666"><ele>336.6666666666667</ele><time>2026-04-19T08:26:35.999Z</time></trkpt><trkpt lat="43.47449559624411" lon="12.26416325286043"><ele>337.33333333333337</ele><time>2026-04-19T08:26:36.999Z</time></trkpt><trkpt lat="43.474485304967004" lon="12.26448256238473"><ele>338.0</ele><time>2026-04-19T08:26:37.999Z</time></trkpt><trkpt lat="43.47451827203787" lon="12.264826264492596"><ele>340.0</ele><time>2026-04-19T08:26:38.999Z</time></trkpt><trkpt lat="43.474579955560344" lon="12.265166172783797"><ele>342.0</ele><time>2026-04-19T08:26:39.999Z</time></trkpt><trkpt lat="43.474688153673114" lon="12.265492566741637"><ele>347.5</ele><time>2026-04-19T08:26:40.999Z</time></trkpt><trkpt lat="43.47483337924148" lon="12.265797126514132"><ele>353.0</ele><time>2026-04-19T08:26:41.999Z</time></trkpt><trkpt lat="43.47496838239329" lon="12.2660412222067"><ele>353.0</ele><time>2026-04-19T08:26:42.999Z</time></trkpt><trkpt lat="43.47506489991049" lon="12.266280555750097"><ele>353.0</ele><time>2026-04-19T08:26:43.999Z</time></trkpt><trkpt lat="43.47509101060674" lon="12.266577317979543"><ele>353.0</ele><time>2026-04-19T08:26:44.999Z</time></trkpt><trkpt lat="43.475058567567544" lon="12.26689740767719"><ele>354.5</ele><time>2026-04-19T08:26:45.999Z</time></trkpt><trkpt lat="43.47499944927641" lon="12.267213625229228"><ele>356.0</ele><time>2026-04-19T08:26:46.999Z</time></trkpt><trkpt lat="43.474977264718525" lon="12.267537523253994"><ele>356.0</ele><time>2026-04-19T08:26:47.999Z</time></trkpt><trkpt lat="43.47502187978919" lon="12.267868322734799"><ele>356.0</ele><time>2026-04-19T08:26:48.999Z</time></trkpt><trkpt lat="43.47513321319" lon="12.268227408889844"><ele>356.5</ele><time>2026-04-19T08:26:49.999Z</time></trkpt><trkpt lat="43.475276416206384" lon="12.268602230624742"><ele>357.0</ele><time>2026-04-19T08:26:50.999Z</time></trkpt><trkpt lat="43.47542009644987" lon="12.26894078878288"><ele>362.6666666666667</ele><time>2026-04-19T08:26:51.999Z</time></trkpt><trkpt lat="43.47554332398024" lon="12.269179306680103"><ele>368.33333333333337</ele><time>2026-04-19T08:26:52.999Z</time></trkpt><trkpt lat="43.47567125968342" lon="12.269364098556325"><ele>374.0</ele><time>2026-04-19T08:26:53.999Z</time></trkpt><trkpt lat="43.475843777602456" lon="12.269503727246134"><ele>374.0</ele><time>2026-04-19T08:26:54.999Z</time></trkpt><trkpt lat="43.476073232182415" lon="12.26957546310196"><ele>374.0</ele><time>2026-04-19T08:26:55.999Z</time></trkpt><trkpt lat="43.47630015452217" lon="12.269600835020578"><ele>375.0</ele><time>2026-04-19T08:26:56.999Z</time></trkpt><trkpt lat="43.47645496286877" lon="12.269625408305012"><ele>376.0</ele><time>2026-04-19T08:26:57.999Z</time></trkpt><trkpt lat="43.476573698771716" lon="12.269639381523495"><ele>377.0</ele><time>2026-04-19T08:26:58.999Z</time></trkpt><trkpt lat="43.47668155471431" lon="12.269588956183501"><ele>378.0</ele><time>2026-04-19T08:26:59.999Z</time></trkpt><trkpt lat="43.47674282392806" lon="12.269432740497125"><ele>378.0</ele><time>2026-04-19T08:27:00.999Z</time></trkpt><trkpt lat="43.47672771487877" lon="12.26924790990886"><ele>378.0</ele><time>2026-04-19T08:27:01.999Z</time></trkpt><trkpt lat="43.4766226702779" lon="12.269105437480388"><ele>378.0</ele><time>2026-04-19T08:27:02.999Z</time></trkpt><trkpt lat="43.476450674411616" lon="12.26903873744763"><ele>376.6666666666667</ele><time>2026-04-19T08:27:03.999Z</time></trkpt><trkpt lat="43.476243730617114" lon="12.269047500227812"><ele>375.33333333333337</ele><time>2026-04-19T08:27:04.999Z</time></trkpt><trkpt lat="43.4760519874706" lon="12.269047427550879"><ele>374.0</ele><time>2026-04-19T08:27:05.999Z</time></trkpt><trkpt lat="43.47588604227234" lon="12.269007466154644"><ele>376.0</ele><time>2026-04-19T08:27:06.999Z</time></trkpt><trkpt lat="43.47576654711642" lon="12.268914503725034"><ele>378.0</ele><time>2026-04-19T08:27:07.999Z</time></trkpt><trkpt lat="43.475692677069986" lon="12.268736013581178"><ele>380.0</ele><time>2026-04-19T08:27:08.999Z</time></trkpt><trkpt lat="43.47563727076775" lon="12.268544892096212"><ele>382.0</ele><time>2026-04-19T08:27:09.999Z</time></trkpt><trkpt lat="43.475598028820194" lon="12.26832401031776"><ele>383.0</ele><time>2026-04-19T08:27:10.999Z</time></trkpt><trkpt lat="43.47555169617468" lon="12.268070464586675"><ele>384.0</ele><time>2026-04-19T08:27:11.999Z</time></trkpt><trkpt lat="43.475534961152206" lon="12.267783175675843"><ele>385.0</ele><time>2026-04-19T08:27:12.999Z</time></trkpt><trkpt lat="43.47558221984731" lon="12.267537835786941"><ele>385.0</ele><time>2026-04-19T08:27:13.999Z</time></trkpt><trkpt lat="43.4756602980837" lon="12.267301667007509"><ele>385.0</ele><time>2026-04-19T08:27:14.999Z</time></trkpt><trkpt lat="43.475772040867035" lon="12.267061407281568"><ele>385.0</ele><time>2026-04-19T08:27:15.999Z</time></trkpt><trkpt lat="43.47585578234979" lon="12.266753935100471"><ele>378.5</ele><time>2026-04-19T08:27:16.999Z</time></trkpt><trkpt lat="43.475989097137166" lon="12.266440428568485"><ele>372.0</ele><time>2026-04-19T08:27:17.999Z</time></trkpt><trkpt lat="43.47606980376884" lon="12.266100271006083"><ele>372.0</ele><time>2026-04-19T08:27:18.999Z</time></trkpt><trkpt lat="43.47608255236431" lon="12.2657262750561"><ele>372.0</ele><time>2026-04-19T08:27:19.999Z</time></trkpt><trkpt lat="43.476032924109575" lon="12.26536090431876"><ele>373.0</ele><time>2026-04-19T08:27:20.999Z</time></trkpt><trkpt lat="43.47593218728688" lon="12.265037512811011"><ele>374.0</ele><time>2026-04-19T08:27:21.999Z</time></trkpt><trkpt lat="43.475864648754396" lon="12.26478012241171"><ele>373.33333333333337</ele><time>2026-04-19T08:27:22.998Z</time></trkpt><trkpt lat="43.475854448214015" lon="12.264491688026592"><ele>372.6666666666667</ele><time>2026-04-19T08:27:23.998Z</time></trkpt><trkpt lat="43.47591771613871" lon="12.26424436622043"><ele>372.0</ele><time>2026-04-19T08:27:24.998Z</time></trkpt><trkpt lat="43.475844158193155" lon="12.263991199815248"><ele>366.0</ele><time>2026-04-19T08:27:25.998Z</time></trkpt><trkpt lat="43.47590078861823" lon="12.263817527752142"><ele>360.0</ele><time>2026-04-19T08:27:26.998Z</time></trkpt><trkpt lat="43.47647317262673" lon="12.264042783481175"><ele>374.5</ele><time>2026-04-19T08:27:27.998Z</time></trkpt><trkpt lat="43.47669876421228" lon="12.2641100091454"><ele>389.0</ele><time>2026-04-19T08:27:28.998Z</time></trkpt><trkpt lat="43.4769400379156" lon="12.264128066846558"><ele>390.0</ele><time>2026-04-19T08:27:29.998Z</time></trkpt><trkpt lat="43.47722524188448" lon="12.264194435752287"><ele>391.0</ele><time>2026-04-19T08:27:30.998Z</time></trkpt><trkpt lat="43.4775751963782" lon="12.264277256489972"><ele>391.0</ele><time>2026-04-19T08:27:31.998Z</time></trkpt><trkpt lat="43.47788124083867" lon="12.264358610427445"><ele>391.0</ele><time>2026-04-19T08:27:32.998Z</time></trkpt><trkpt lat="43.47814344538743" lon="12.264435016251129"><ele>390.0</ele><time>2026-04-19T08:27:33.998Z</time></trkpt><trkpt lat="43.4783485506828" lon="12.264513579241767"><ele>389.0</ele><time>2026-04-19T08:27:34.998Z</time></trkpt><trkpt lat="43.478589570696684" lon="12.264651007738028"><ele>390.0</ele><time>2026-04-19T08:27:35.998Z</time></trkpt><trkpt lat="43.47877152943961" lon="12.264742168299742"><ele>391.0</ele><time>2026-04-19T08:27:36.998Z</time></trkpt><trkpt lat="43.47892159295747" lon="12.264852817193582"><ele>392.0</ele><time>2026-04-19T08:27:37.998Z</time></trkpt><trkpt lat="43.479016286794256" lon="12.264945002524207"><ele>392.0</ele><time>2026-04-19T08:27:38.998Z</time></trkpt><trkpt lat="43.47903727788029" lon="12.265077135202164"><ele>392.0</ele><time>2026-04-19T08:27:39.998Z</time></trkpt><trkpt lat="43.478968872785494" lon="12.265192037572277"><ele>392.0</ele><time>2026-04-19T08:27:40.998Z</time></trkpt><trkpt lat="43.47890045098676" lon="12.265244939083741"><ele>392.0</ele><time>2026-04-19T08:27:41.998Z</time></trkpt><trkpt lat="43.47880492123544" lon="12.265221770620215"><ele>392.0</ele><time>2026-04-19T08:27:42.998Z</time></trkpt><trkpt lat="43.47868521149168" lon="12.26515578453796"><ele>397.0</ele><time>2026-04-19T08:27:43.998Z</time></trkpt><trkpt lat="43.47852766954329" lon="12.265111557269941"><ele>402.0</ele><time>2026-04-19T08:27:44.998Z</time></trkpt><trkpt lat="43.47835801801238" lon="12.265012143424526"><ele>407.0</ele><time>2026-04-19T08:27:45.998Z</time></trkpt><trkpt lat="43.47814033291083" lon="12.264918200055305"><ele>407.0</ele><time>2026-04-19T08:27:46.998Z</time></trkpt><trkpt lat="43.47797042124105" lon="12.264850036463896"><ele>407.0</ele><time>2026-04-19T08:27:47.998Z</time></trkpt><trkpt lat="43.47773272502677" lon="12.264779598644855"><ele>407.0</ele><time>2026-04-19T08:27:48.998Z</time></trkpt><trkpt lat="43.47755202602234" lon="12.26470661165237"><ele>401.66666666666663</ele><time>2026-04-19T08:27:49.998Z</time></trkpt><trkpt lat="43.47738165901578" lon="12.264669790750409"><ele>396.33333333333337</ele><time>2026-04-19T08:27:50.998Z</time></trkpt><trkpt lat="43.47722889999922" lon="12.264662923802982"><ele>391.0</ele><time>2026-04-19T08:27:51.998Z</time></trkpt><trkpt lat="43.477103685059205" lon="12.264669354172662"><ele>390.5</ele><time>2026-04-19T08:27:52.998Z</time></trkpt><trkpt lat="43.47700014877292" lon="12.264763100474832"><ele>390.0</ele><time>2026-04-19T08:27:53.998Z</time></trkpt><trkpt lat="43.47691895227229" lon="12.26489656763693"><ele>389.5</ele><time>2026-04-19T08:27:54.998Z</time></trkpt><trkpt lat="43.476877738294775" lon="12.265106123058706"><ele>389.0</ele><time>2026-04-19T08:27:55.998Z</time></trkpt><trkpt lat="43.47687477190883" lon="12.265355198654763"><ele>394.0</ele><time>2026-04-19T08:27:56.998Z</time></trkpt><trkpt lat="43.47691107873978" lon="12.265646816996433"><ele>399.0</ele><time>2026-04-19T08:27:57.998Z</time></trkpt><trkpt lat="43.47696042064146" lon="12.265974771145588"><ele>399.0</ele><time>2026-04-19T08:27:58.998Z</time></trkpt><trkpt lat="43.47702696936283" lon="12.266333997854394"><ele>399.0</ele><time>2026-04-19T08:27:59.998Z</time></trkpt><trkpt lat="43.477099717114974" lon="12.266664879973998"><ele>411.5</ele><time>2026-04-19T08:28:00.998Z</time></trkpt><trkpt lat="43.47719938333348" lon="12.266944228129331"><ele>424.0</ele><time>2026-04-19T08:28:01.998Z</time></trkpt><trkpt lat="43.47734220392856" lon="12.267223729220795"><ele>419.5</ele><time>2026-04-19T08:28:03Z</time></trkpt><trkpt lat="43.47753231496907" lon="12.267489536288444"><ele>415.0</ele><time>2026-04-19T08:28:04Z</time></trkpt><trkpt lat="43.477754596128015" lon="12.267792299077467"><ele>420.5</ele><time>2026-04-19T08:28:05Z</time></trkpt><trkpt lat="43.47797589183126" lon="12.268086745185398"><ele>426.0</ele><time>2026-04-19T08:28:06Z</time></trkpt><trkpt lat="43.478183509091636" lon="12.268394110410851"><ele>426.0</ele><time>2026-04-19T08:28:07Z</time></trkpt><trkpt lat="43.47837027714349" lon="12.268655037560706"><ele>426.0</ele><time>2026-04-19T08:28:08Z</time></trkpt><trkpt lat="43.47858339634174" lon="12.268902026785103"><ele>427.5</ele><time>2026-04-19T08:28:09Z</time></trkpt><trkpt lat="43.47885338156106" lon="12.269125801395573"><ele>429.0</ele><time>2026-04-19T08:28:10Z</time></trkpt><trkpt lat="43.4791598845995" lon="12.26934743278068"><ele>429.0</ele><time>2026-04-19T08:28:11Z</time></trkpt><trkpt lat="43.4794540167692" lon="12.269631423707514"><ele>429.0</ele><time>2026-04-19T08:28:12Z</time></trkpt><trkpt lat="43.47972565632507" lon="12.269933261155119"><ele>434.0</ele><time>2026-04-19T08:28:13Z</time></trkpt><trkpt lat="43.47993694560494" lon="12.270202359889828"><ele>439.0</ele><time>2026-04-19T08:28:14Z</time></trkpt><trkpt lat="43.480138916673354" lon="12.270423907617536"><ele>434.0</ele><time>2026-04-19T08:28:15Z</time></trkpt><trkpt lat="43.480314197656504" lon="12.270684556390782"><ele>429.0</ele><time>2026-04-19T08:28:16Z</time></trkpt><trkpt lat="43.48044650578064" lon="12.27100424060133"><ele>438.0</ele><time>2026-04-19T08:28:17Z</time></trkpt><trkpt lat="43.48058533069067" lon="12.271372293387659"><ele>447.0</ele><time>2026-04-19T08:28:18Z</time></trkpt><trkpt lat="43.480722375503575" lon="12.271748229376675"><ele>447.0</ele><time>2026-04-19T08:28:19Z</time></trkpt><trkpt lat="43.48082339912189" lon="12.27213318791127"><ele>447.0</ele><time>2026-04-19T08:28:20Z</time></trkpt><trkpt lat="43.48090548702254" lon="12.272490615084369"><ele>447.5</ele><time>2026-04-19T08:28:21Z</time></trkpt><trkpt lat="43.480960545740416" lon="12.272742739654666"><ele>448.0</ele><time>2026-04-19T08:28:21.999Z</time></trkpt><trkpt lat="43.48098086733111" lon="12.272932884441978"><ele>448.5</ele><time>2026-04-19T08:28:22.999Z</time></trkpt><trkpt lat="43.48095328329655" lon="12.27308328344311"><ele>449.0</ele><time>2026-04-19T08:28:23.999Z</time></trkpt><trkpt lat="43.48090455261428" lon="12.273199752219613"><ele>448.0</ele><time>2026-04-19T08:28:24.999Z</time></trkpt><trkpt lat="43.4808226474208" lon="12.273272665384415"><ele>447.0</ele><time>2026-04-19T08:28:25.999Z</time></trkpt><trkpt lat="43.48071987966851" lon="12.273303874588647"><ele>446.0</ele><time>2026-04-19T08:28:26.999Z</time></trkpt><trkpt lat="43.480616508050005" lon="12.273308590224438"><ele>445.0</ele><time>2026-04-19T08:28:27.999Z</time></trkpt><trkpt lat="43.48051862350002" lon="12.273300436110853"><ele>444.0</ele><time>2026-04-19T08:28:28.999Z</time></trkpt><trkpt lat="43.48005914497437" lon="12.272923312014607"><ele>444.0</ele><time>2026-04-19T08:28:29.999Z</time></trkpt><trkpt lat="43.47991422450205" lon="12.272847504683597"><ele>444.0</ele><time>2026-04-19T08:28:30.999Z</time></trkpt><trkpt lat="43.47971449943692" lon="12.27293933891336"><ele>444.0</ele><time>2026-04-19T08:28:31.999Z</time></trkpt><trkpt lat="43.479588125720845" lon="12.273053492858432"><ele>447.0</ele><time>2026-04-19T08:28:32.999Z</time></trkpt><trkpt lat="43.47951073014967" lon="12.27325884733806"><ele>450.0</ele><time>2026-04-19T08:28:33.999Z</time></trkpt><trkpt lat="43.47950198981716" lon="12.273494592745083"><ele>453.0</ele><time>2026-04-19T08:28:34.999Z</time></trkpt><trkpt lat="43.47957510184749" lon="12.2737251161075"><ele>454.0</ele><time>2026-04-19T08:28:35.999Z</time></trkpt><trkpt lat="43.47970870097621" lon="12.273908762644856"><ele>455.0</ele><time>2026-04-19T08:28:36.999Z</time></trkpt><trkpt lat="43.47990508653128" lon="12.274044051512284"><ele>456.0</ele><time>2026-04-19T08:28:37.999Z</time></trkpt><trkpt lat="43.4801413019605" lon="12.274200298453291"><ele>456.0</ele><time>2026-04-19T08:28:38.999Z</time></trkpt><trkpt lat="43.48033940803174" lon="12.274335659146082"><ele>456.0</ele><time>2026-04-19T08:28:39.999Z</time></trkpt><trkpt lat="43.480531669427236" lon="12.274431525192483"><ele>456.0</ele><time>2026-04-19T08:28:40.999Z</time></trkpt><trkpt lat="43.480764467782855" lon="12.274448096355146"><ele>457.5</ele><time>2026-04-19T08:28:41.999Z</time></trkpt><trkpt lat="43.4810198243225" lon="12.27436048812016"><ele>459.0</ele><time>2026-04-19T08:28:42.999Z</time></trkpt><trkpt lat="43.48127757045433" lon="12.274346984843483"><ele>460.5</ele><time>2026-04-19T08:28:43.999Z</time></trkpt><trkpt lat="43.4815123913514" lon="12.274441558991153"><ele>462.0</ele><time>2026-04-19T08:28:44.999Z</time></trkpt><trkpt lat="43.4817777211261" lon="12.274519157964635"><ele>462.0</ele><time>2026-04-19T08:28:45.999Z</time></trkpt><trkpt lat="43.482050023354745" lon="12.274605652976241"><ele>462.0</ele><time>2026-04-19T08:28:46.999Z</time></trkpt><trkpt lat="43.48228355570726" lon="12.274670857625477"><ele>462.0</ele><time>2026-04-19T08:28:47.999Z</time></trkpt><trkpt lat="43.482418931638826" lon="12.274724295189326"><ele>462.0</ele><time>2026-04-19T08:28:48.999Z</time></trkpt><trkpt lat="43.482560584926546" lon="12.274863997376706"><ele>462.0</ele><time>2026-04-19T08:28:49.999Z</time></trkpt><trkpt lat="43.482705908058946" lon="12.27508291246318"><ele>462.0</ele><time>2026-04-19T08:28:50.999Z</time></trkpt><trkpt lat="43.48287535072373" lon="12.275369651979064"><ele>462.0</ele><time>2026-04-19T08:28:51.999Z</time></trkpt><trkpt lat="43.48303460293881" lon="12.275638201669945"><ele>463.66666666666663</ele><time>2026-04-19T08:28:52.999Z</time></trkpt><trkpt lat="43.48313156153774" lon="12.275827517754099"><ele>465.3333333333333</ele><time>2026-04-19T08:28:53.999Z</time></trkpt><trkpt lat="43.48317853128592" lon="12.276041011562805"><ele>467.0</ele><time>2026-04-19T08:28:54.999Z</time></trkpt><trkpt lat="43.48313811253177" lon="12.276217495844483"><ele>467.0</ele><time>2026-04-19T08:28:55.999Z</time></trkpt><trkpt lat="43.48315942615164" lon="12.276394045261664"><ele>467.0</ele><time>2026-04-19T08:28:56.999Z</time></trkpt><trkpt lat="43.48294414078408" lon="12.27651047869009"><ele>467.0</ele><time>2026-04-19T08:28:57.999Z</time></trkpt><trkpt lat="43.48275917739646" lon="12.276562513218797"><ele>469.5</ele><time>2026-04-19T08:28:58.999Z</time></trkpt><trkpt lat="43.48248719478964" lon="12.276497506249783"><ele>472.0</ele><time>2026-04-19T08:28:59.999Z</time></trkpt><trkpt lat="43.48222414253404" lon="12.276468689926007"><ele>468.0</ele><time>2026-04-19T08:29:00.999Z</time></trkpt><trkpt lat="43.48201555421424" lon="12.276478441506493"><ele>464.0</ele><time>2026-04-19T08:29:01.999Z</time></trkpt><trkpt lat="43.48190408146996" lon="12.276580102494785"><ele>460.0</ele><time>2026-04-19T08:29:02.999Z</time></trkpt><trkpt lat="43.48182694611267" lon="12.276734695525342"><ele>460.0</ele><time>2026-04-19T08:29:03.999Z</time></trkpt><trkpt lat="43.4818102632602" lon="12.276982139879792"><ele>460.0</ele><time>2026-04-19T08:29:04.999Z</time></trkpt><trkpt lat="43.481880374687904" lon="12.27722921931913"><ele>460.0</ele><time>2026-04-19T08:29:05.999Z</time></trkpt><trkpt lat="43.482005610305144" lon="12.27742533092236"><ele>467.0</ele><time>2026-04-19T08:29:06.999Z</time></trkpt><trkpt lat="43.48217807799513" lon="12.27764218055159"><ele>474.0</ele><time>2026-04-19T08:29:07.999Z</time></trkpt><trkpt lat="43.48237381987388" lon="12.277774728506406"><ele>474.0</ele><time>2026-04-19T08:29:08.999Z</time></trkpt><trkpt lat="43.482622458866615" lon="12.277770590940097"><ele>474.0</ele><time>2026-04-19T08:29:09.999Z</time></trkpt><trkpt lat="43.482835645820494" lon="12.277830552816157"><ele>472.5</ele><time>2026-04-19T08:29:10.999Z</time></trkpt><trkpt lat="43.483020567499274" lon="12.2779887382969"><ele>471.0</ele><time>2026-04-19T08:29:11.999Z</time></trkpt><trkpt lat="43.483227728293386" lon="12.278179767300218"><ele>471.0</ele><time>2026-04-19T08:29:12.999Z</time></trkpt><trkpt lat="43.48353300529073" lon="12.278459032022154"><ele>471.0</ele><time>2026-04-19T08:29:13.999Z</time></trkpt><trkpt lat="43.483801541264704" lon="12.278688597152943"><ele>470.5</ele><time>2026-04-19T08:29:14.999Z</time></trkpt><trkpt lat="43.48402369400267" lon="12.278906955432353"><ele>470.0</ele><time>2026-04-19T08:29:15.999Z</time></trkpt><trkpt lat="43.484176562279906" lon="12.279085883121015"><ele>472.5</ele><time>2026-04-19T08:29:16.999Z</time></trkpt><trkpt lat="43.48438725951724" lon="12.279251935588993"><ele>475.0</ele><time>2026-04-19T08:29:17.999Z</time></trkpt><trkpt lat="43.4844588556713" lon="12.279677750687114"><ele>479.0</ele><time>2026-04-19T08:29:18.999Z</time></trkpt><trkpt lat="43.48461891823282" lon="12.280045540730441"><ele>483.0</ele><time>2026-04-19T08:29:19.999Z</time></trkpt><trkpt lat="43.48475809778642" lon="12.280365345835566"><ele>484.0</ele><time>2026-04-19T08:29:20.999Z</time></trkpt><trkpt lat="43.48489411506015" lon="12.280649570184295"><ele>485.0</ele><time>2026-04-19T08:29:21.999Z</time></trkpt><trkpt lat="43.484963698870324" lon="12.28087937902587"><ele>486.0</ele><time>2026-04-19T08:29:22.999Z</time></trkpt><trkpt lat="43.4849881334356" lon="12.281064042111973"><ele>486.0</ele><time>2026-04-19T08:29:23.999Z</time></trkpt><trkpt lat="43.484976652951886" lon="12.281322245583084"><ele>486.0</ele><time>2026-04-19T08:29:24.999Z</time></trkpt><trkpt lat="43.48486661144186" lon="12.28156242060911"><ele>486.0</ele><time>2026-04-19T08:29:25.998Z</time></trkpt><trkpt lat="43.48475878756428" lon="12.281768218987045"><ele>485.25</ele><time>2026-04-19T08:29:26.998Z</time></trkpt><trkpt lat="43.484788724444705" lon="12.28190571525376"><ele>484.5</ele><time>2026-04-19T08:29:27.998Z</time></trkpt><trkpt lat="43.484900539564464" lon="12.282080264069293"><ele>483.75</ele><time>2026-04-19T08:29:28.998Z</time></trkpt><trkpt lat="43.485032227383655" lon="12.282216814795984"><ele>483.0</ele><time>2026-04-19T08:29:29.998Z</time></trkpt><trkpt lat="43.48521763100411" lon="12.282309920113063"><ele>488.5</ele><time>2026-04-19T08:29:30.998Z</time></trkpt><trkpt lat="43.48544215042393" lon="12.282464362670813"><ele>494.0</ele><time>2026-04-19T08:29:31.998Z</time></trkpt><trkpt lat="43.48573596740449" lon="12.282684106069905"><ele>494.0</ele><time>2026-04-19T08:29:32.998Z</time></trkpt><trkpt lat="43.485912116769384" lon="12.282771900167935"><ele>494.0</ele><time>2026-04-19T08:29:33.998Z</time></trkpt><trkpt lat="43.48609034002368" lon="12.282886675436355"><ele>494.0</ele><time>2026-04-19T08:29:34.998Z</time></trkpt><trkpt lat="43.48625644590253" lon="12.28299908412597"><ele>493.75</ele><time>2026-04-19T08:29:35.998Z</time></trkpt><trkpt lat="43.48638831378603" lon="12.283069348905672"><ele>493.5</ele><time>2026-04-19T08:29:36.998Z</time></trkpt><trkpt lat="43.48650861177307" lon="12.28314863689605"><ele>493.25</ele><time>2026-04-19T08:29:37.998Z</time></trkpt><trkpt lat="43.48660799353842" lon="12.283219357839807"><ele>493.0</ele><time>2026-04-19T08:29:38.998Z</time></trkpt><trkpt lat="43.48670697149657" lon="12.283281981123727"><ele>491.25</ele><time>2026-04-19T08:29:39.998Z</time></trkpt><trkpt lat="43.486786881903264" lon="12.28333051787955"><ele>489.5</ele><time>2026-04-19T08:29:40.998Z</time></trkpt><trkpt lat="43.48690240162435" lon="12.28340324559288"><ele>487.75</ele><time>2026-04-19T08:29:41.998Z</time></trkpt><trkpt lat="43.48705238738951" lon="12.28349812042684"><ele>486.0</ele><time>2026-04-19T08:29:42.998Z</time></trkpt><trkpt lat="43.48719489609766" lon="12.283597848862875"><ele>486.6</ele><time>2026-04-19T08:29:43.998Z</time></trkpt><trkpt lat="43.4873149958212" lon="12.283687852323103"><ele>487.20000000000005</ele><time>2026-04-19T08:29:44.998Z</time></trkpt><trkpt lat="43.48742000744658" lon="12.283763456568556"><ele>487.79999999999995</ele><time>2026-04-19T08:29:45.998Z</time></trkpt><trkpt lat="43.48750442587036" lon="12.283837407138032"><ele>488.4</ele><time>2026-04-19T08:29:46.998Z</time></trkpt><trkpt lat="43.48757871039358" lon="12.283917300549135"><ele>489.0</ele><time>2026-04-19T08:29:47.998Z</time></trkpt><trkpt lat="43.48770282699258" lon="12.284056923490512"><ele>489.0</ele><time>2026-04-19T08:29:48.998Z</time></trkpt><trkpt lat="43.48783700935786" lon="12.284226592729926"><ele>489.0</ele><time>2026-04-19T08:29:49.998Z</time></trkpt><trkpt lat="43.487980098078246" lon="12.284352425473852"><ele>489.0</ele><time>2026-04-19T08:29:50.998Z</time></trkpt><trkpt lat="43.48815412241922" lon="12.284444782972828"><ele>494.0</ele><time>2026-04-19T08:29:51.998Z</time></trkpt><trkpt lat="43.48828423923074" lon="12.284487908858672"><ele>499.0</ele><time>2026-04-19T08:29:52.998Z</time></trkpt><trkpt lat="43.48844149476016" lon="12.284458415671255"><ele>504.0</ele><time>2026-04-19T08:29:53.998Z</time></trkpt><trkpt lat="43.48860732586999" lon="12.284428847896804"><ele>507.0</ele><time>2026-04-19T08:29:54.998Z</time></trkpt><trkpt lat="43.4887717865478" lon="12.284396925260433"><ele>510.0</ele><time>2026-04-19T08:29:55.998Z</time></trkpt><trkpt lat="43.488960063835236" lon="12.284425816098944"><ele>513.0</ele><time>2026-04-19T08:29:56.998Z</time></trkpt><trkpt lat="43.489165825309314" lon="12.284519983286163"><ele>513.0</ele><time>2026-04-19T08:29:57.998Z</time></trkpt><trkpt lat="43.48935030881008" lon="12.28468740350384"><ele>513.0</ele><time>2026-04-19T08:29:58.998Z</time></trkpt><trkpt lat="43.489516871476425" lon="12.284816242278774"><ele>513.0</ele><time>2026-04-19T08:29:59.998Z</time></trkpt><trkpt lat="43.489663618708384" lon="12.284916525591951"><ele>511.5</ele><time>2026-04-19T08:30:00.998Z</time></trkpt><trkpt lat="43.489798026800756" lon="12.285007998743103"><ele>510.0</ele><time>2026-04-19T08:30:01.998Z</time></trkpt><trkpt lat="43.48991477064977" lon="12.285111147825049"><ele>508.5</ele><time>2026-04-19T08:30:02.998Z</time></trkpt><trkpt lat="43.49001449633541" lon="12.285267371094399"><ele>507.0</ele><time>2026-04-19T08:30:03.998Z</time></trkpt><trkpt lat="43.490066913666304" lon="12.285476729487813"><ele>505.33333333333337</ele><time>2026-04-19T08:30:04.998Z</time></trkpt><trkpt lat="43.49007109149425" lon="12.285701695160466"><ele>503.6666666666667</ele><time>2026-04-19T08:30:05.998Z</time></trkpt><trkpt lat="43.49004126598358" lon="12.285947788168377"><ele>502.0</ele><time>2026-04-19T08:30:06.998Z</time></trkpt><trkpt lat="43.490040794739386" lon="12.286180688482641"><ele>502.0</ele><time>2026-04-19T08:30:07.999Z</time></trkpt><trkpt lat="43.49006962945804" lon="12.286384321699876"><ele>502.0</ele><time>2026-04-19T08:30:09Z</time></trkpt><trkpt lat="43.490124529796496" lon="12.286570551152234"><ele>502.0</ele><time>2026-04-19T08:30:09.999Z</time></trkpt><trkpt lat="43.490211140081264" lon="12.286747296477998"><ele>500.33333333333337</ele><time>2026-04-19T08:30:10.999Z</time></trkpt><trkpt lat="43.49033373133819" lon="12.286899536333685"><ele>498.66666666666663</ele><time>2026-04-19T08:30:12Z</time></trkpt><trkpt lat="43.490497591109495" lon="12.28702595480297"><ele>497.0</ele><time>2026-04-19T08:30:12.999Z</time></trkpt><trkpt lat="43.49066350396855" lon="12.287153386182345"><ele>497.66666666666663</ele><time>2026-04-19T08:30:13.999Z</time></trkpt><trkpt lat="43.4908244386097" lon="12.287293369213709"><ele>498.33333333333337</ele><time>2026-04-19T08:30:15Z</time></trkpt><trkpt lat="43.490983663862" lon="12.28743467650753"><ele>499.0</ele><time>2026-04-19T08:30:15.999Z</time></trkpt><trkpt lat="43.491157523314335" lon="12.287580072538248"><ele>508.0</ele><time>2026-04-19T08:30:16.999Z</time></trkpt><trkpt lat="43.491348299244386" lon="12.28774565011681"><ele>517.0</ele><time>2026-04-19T08:30:18Z</time></trkpt><trkpt lat="43.49155830333129" lon="12.287922224653004"><ele>507.5</ele><time>2026-04-19T08:30:19Z</time></trkpt><trkpt lat="43.491770239437685" lon="12.288101322930087"><ele>498.0</ele><time>2026-04-19T08:30:20Z</time></trkpt><trkpt lat="43.491954056956175" lon="12.288260727522186"><ele>504.0</ele><time>2026-04-19T08:30:21Z</time></trkpt><trkpt lat="43.49212838753266" lon="12.288405546001838"><ele>510.0</ele><time>2026-04-19T08:30:22Z</time></trkpt><trkpt lat="43.492300334313406" lon="12.288547540458822"><ele>516.0</ele><time>2026-04-19T08:30:22.999Z</time></trkpt><trkpt lat="43.49244978878454" lon="12.28868171002909"><ele>516.0</ele><time>2026-04-19T08:30:23.999Z</time></trkpt><trkpt lat="43.4925702125218" lon="12.2888226631524"><ele>516.0</ele><time>2026-04-19T08:30:24.999Z</time></trkpt><trkpt lat="43.492688348107414" lon="12.288984403985424"><ele>516.0</ele><time>2026-04-19T08:30:25.999Z</time></trkpt><trkpt lat="43.49283127020302" lon="12.289198842842287"><ele>515.5</ele><time>2026-04-19T08:30:26.999Z</time></trkpt><trkpt lat="43.492972822913096" lon="12.289483261850487"><ele>515.0</ele><time>2026-04-19T08:30:27.999Z</time></trkpt><trkpt lat="43.49308942392182" lon="12.289771706938259"><ele>515.0</ele><time>2026-04-19T08:30:28.999Z</time></trkpt><trkpt lat="43.49319491228612" lon="12.290006280547376"><ele>515.0</ele><time>2026-04-19T08:30:29.999Z</time></trkpt><trkpt lat="43.4933065471844" lon="12.290211943925618"><ele>515.0</ele><time>2026-04-19T08:30:30.999Z</time></trkpt><trkpt lat="43.493468049631964" lon="12.290427397993293"><ele>519.0</ele><time>2026-04-19T08:30:31.999Z</time></trkpt><trkpt lat="43.493674553588704" lon="12.290632012655845"><ele>523.0</ele><time>2026-04-19T08:30:32.999Z</time></trkpt><trkpt lat="43.49385920700858" lon="12.290845790403448"><ele>523.0</ele><time>2026-04-19T08:30:33.999Z</time></trkpt><trkpt lat="43.49397971024084" lon="12.29109848167883"><ele>523.0</ele><time>2026-04-19T08:30:34.999Z</time></trkpt><trkpt lat="43.49404016564185" lon="12.291368173315368"><ele>523.0</ele><time>2026-04-19T08:30:35.999Z</time></trkpt><trkpt lat="43.49404196570848" lon="12.29163807255331"><ele>520.0</ele><time>2026-04-19T08:30:36.999Z</time></trkpt><trkpt lat="43.49413634513706" lon="12.29187647053213"><ele>517.0</ele><time>2026-04-19T08:30:37.999Z</time></trkpt><trkpt lat="43.49432860734691" lon="12.292124502148301"><ele>518.5</ele><time>2026-04-19T08:30:38.999Z</time></trkpt><trkpt lat="43.49453677992377" lon="12.29237624283816"><ele>520.0</ele><time>2026-04-19T08:30:39.999Z</time></trkpt><trkpt lat="43.4947231034634" lon="12.292585651923483"><ele>520.0</ele><time>2026-04-19T08:30:40.999Z</time></trkpt><trkpt lat="43.49495395206154" lon="12.292749703483597"><ele>520.0</ele><time>2026-04-19T08:30:41.999Z</time></trkpt><trkpt lat="43.495234942404366" lon="12.292885535229297"><ele>518.5</ele><time>2026-04-19T08:30:42.999Z</time></trkpt><trkpt lat="43.49551248057339" lon="12.29301091078676"><ele>517.0</ele><time>2026-04-19T08:30:43.999Z</time></trkpt><trkpt lat="43.495743233514446" lon="12.293136058187555"><ele>517.0</ele><time>2026-04-19T08:30:44.999Z</time></trkpt><trkpt lat="43.49593331168103" lon="12.293277642314287"><ele>517.0</ele><time>2026-04-19T08:30:45.999Z</time></trkpt><trkpt lat="43.4961039733987" lon="12.293456639313511"><ele>517.0</ele><time>2026-04-19T08:30:46.999Z</time></trkpt><trkpt lat="43.49624980551158" lon="12.293637255295929"><ele>521.6666666666667</ele><time>2026-04-19T08:30:47.999Z</time></trkpt><trkpt lat="43.49636887744768" lon="12.293814597356121"><ele>526.3333333333334</ele><time>2026-04-19T08:30:48.999Z</time></trkpt><trkpt lat="43.496444107616014" lon="12.294043216462157"><ele>531.0</ele><time>2026-04-19T08:30:49.999Z</time></trkpt><trkpt lat="43.49647904436674" lon="12.294266281212531"><ele>531.0</ele><time>2026-04-19T08:30:50.999Z</time></trkpt><trkpt lat="43.49644472837073" lon="12.29442880402517"><ele>531.0</ele><time>2026-04-19T08:30:51.999Z</time></trkpt><trkpt lat="43.49635047156477" lon="12.294617481415507"><ele>531.0</ele><time>2026-04-19T08:30:52.999Z</time></trkpt><trkpt lat="43.49622107204125" lon="12.294743906633952"><ele>531.0</ele><time>2026-04-19T08:30:53.999Z</time></trkpt><trkpt lat="43.49608256255021" lon="12.294845929770965"><ele>528.75</ele><time>2026-04-19T08:30:54.999Z</time></trkpt><trkpt lat="43.495959791940706" lon="12.294963664482752"><ele>526.5</ele><time>2026-04-19T08:30:55.999Z</time></trkpt><trkpt lat="43.49588607186111" lon="12.295112564592166"><ele>524.25</ele><time>2026-04-19T08:30:56.999Z</time></trkpt><trkpt lat="43.495869579324456" lon="12.29532160656835"><ele>522.0</ele><time>2026-04-19T08:30:57.999Z</time></trkpt><trkpt lat="43.49592062576756" lon="12.295547011918519"><ele>519.0</ele><time>2026-04-19T08:30:58.999Z</time></trkpt><trkpt lat="43.496053405892894" lon="12.29570232789314"><ele>516.0</ele><time>2026-04-19T08:30:59.999Z</time></trkpt><trkpt lat="43.49623925618313" lon="12.295833660099925"><ele>513.0</ele><time>2026-04-19T08:31:00.999Z</time></trkpt><trkpt lat="43.496447120600266" lon="12.295983058283273"><ele>519.6666666666666</ele><time>2026-04-19T08:31:01.999Z</time></trkpt><trkpt lat="43.49661540123911" lon="12.296133034401764"><ele>526.3333333333333</ele><time>2026-04-19T08:31:02.999Z</time></trkpt><trkpt lat="43.496763886659224" lon="12.296270501787411"><ele>533.0</ele><time>2026-04-19T08:31:03.999Z</time></trkpt><trkpt lat="43.49691325537056" lon="12.296415673518045"><ele>532.3333333333333</ele><time>2026-04-19T08:31:04.999Z</time></trkpt><trkpt lat="43.4970767272598" lon="12.296545795461173"><ele>531.6666666666666</ele><time>2026-04-19T08:31:05.999Z</time></trkpt><trkpt lat="43.49726002622407" lon="12.296658718311088"><ele>531.0</ele><time>2026-04-19T08:31:06.999Z</time></trkpt><trkpt lat="43.49745898500799" lon="12.29674747535067"><ele>531.0</ele><time>2026-04-19T08:31:07.999Z</time></trkpt><trkpt lat="43.4976678391763" lon="12.296810716216083"><ele>531.0</ele><time>2026-04-19T08:31:08.999Z</time></trkpt><trkpt lat="43.49787652789467" lon="12.296836010529665"><ele>531.0</ele><time>2026-04-19T08:31:09.999Z</time></trkpt><trkpt lat="43.498055001427275" lon="12.296810300029673"><ele>533.5</ele><time>2026-04-19T08:31:10.999Z</time></trkpt><trkpt lat="43.498197269889815" lon="12.296798023078255"><ele>536.0</ele><time>2026-04-19T08:31:11.999Z</time></trkpt><trkpt lat="43.49833136275041" lon="12.296870419462579"><ele>538.5</ele><time>2026-04-19T08:31:12.999Z</time></trkpt><trkpt lat="43.498441392840206" lon="12.297023884003774"><ele>541.0</ele><time>2026-04-19T08:31:13.999Z</time></trkpt><trkpt lat="43.498530353033075" lon="12.297188027137029"><ele>538.5</ele><time>2026-04-19T08:31:14.999Z</time></trkpt><trkpt lat="43.49856356170335" lon="12.29737974266571"><ele>536.0</ele><time>2026-04-19T08:31:15.999Z</time></trkpt><trkpt lat="43.49852931059024" lon="12.297545125346112"><ele>533.5</ele><time>2026-04-19T08:31:16.999Z</time></trkpt><trkpt lat="43.498433117267545" lon="12.297684695211407"><ele>531.0</ele><time>2026-04-19T08:31:17.999Z</time></trkpt><trkpt lat="43.49830265325629" lon="12.297758380414084"><ele>531.0</ele><time>2026-04-19T08:31:18.999Z</time></trkpt><trkpt lat="43.49817064209473" lon="12.29786833288538"><ele>531.0</ele><time>2026-04-19T08:31:19.999Z</time></trkpt><trkpt lat="43.498105694320785" lon="12.297970004060058"><ele>531.0</ele><time>2026-04-19T08:31:20.999Z</time></trkpt><trkpt lat="43.49809438288411" lon="12.298151513912753"><ele>531.0</ele><time>2026-04-19T08:31:21.999Z</time></trkpt><trkpt lat="43.49816289487977" lon="12.298351141461731"><ele>531.6666666666666</ele><time>2026-04-19T08:31:22.999Z</time></trkpt><trkpt lat="43.49828026867797" lon="12.298529615368778"><ele>532.3333333333333</ele><time>2026-04-19T08:31:23.999Z</time></trkpt><trkpt lat="43.49838187582506" lon="12.298702325798837"><ele>533.0</ele><time>2026-04-19T08:31:24.999Z</time></trkpt><trkpt lat="43.49844920217228" lon="12.298869346473644"><ele>530.6666666666666</ele><time>2026-04-19T08:31:25.999Z</time></trkpt><trkpt lat="43.49852038113477" lon="12.299044963377407"><ele>528.3333333333334</ele><time>2026-04-19T08:31:26.999Z</time></trkpt><trkpt lat="43.49863888608381" lon="12.299255654256234"><ele>526.0</ele><time>2026-04-19T08:31:27.999Z</time></trkpt><trkpt lat="43.49880306761635" lon="12.299466088503067"><ele>534.0</ele><time>2026-04-19T08:31:28.999Z</time></trkpt><trkpt lat="43.49895086834896" lon="12.299695532957593"><ele>542.0</ele><time>2026-04-19T08:31:29.999Z</time></trkpt><trkpt lat="43.49901160623703" lon="12.300001171618467"><ele>542.0</ele><time>2026-04-19T08:31:30.998Z</time></trkpt><trkpt lat="43.49907359348259" lon="12.300361815679237"><ele>542.0</ele><time>2026-04-19T08:31:31.998Z</time></trkpt><trkpt lat="43.49915231894651" lon="12.300721526347552"><ele>538.0</ele><time>2026-04-19T08:31:32.998Z</time></trkpt><trkpt lat="43.49925991588095" lon="12.301034216285574"><ele>534.0</ele><time>2026-04-19T08:31:33.998Z</time></trkpt><trkpt lat="43.4993401414591" lon="12.301311438334647"><ele>532.0</ele><time>2026-04-19T08:31:34.998Z</time></trkpt><trkpt lat="43.499369987008386" lon="12.301575731667716"><ele>530.0</ele><time>2026-04-19T08:31:35.998Z</time></trkpt><trkpt lat="43.49942421784917" lon="12.30183574743784"><ele>528.0</ele><time>2026-04-19T08:31:36.998Z</time></trkpt><trkpt lat="43.499532037371885" lon="12.302062803022908"><ele>530.3333333333334</ele><time>2026-04-19T08:31:37.998Z</time></trkpt><trkpt lat="43.49967608655255" lon="12.302254677824015"><ele>532.6666666666667</ele><time>2026-04-19T08:31:38.998Z</time></trkpt><trkpt lat="43.49982969664604" lon="12.302412113050366"><ele>535.0</ele><time>2026-04-19T08:31:39.998Z</time></trkpt><trkpt lat="43.49997031591494" lon="12.30253757184541"><ele>535.0</ele><time>2026-04-19T08:31:40.998Z</time></trkpt><trkpt lat="43.50010004589417" lon="12.302641063009569"><ele>535.0</ele><time>2026-04-19T08:31:41.998Z</time></trkpt><trkpt lat="43.50023555547065" lon="12.302707647609013"><ele>535.0</ele><time>2026-04-19T08:31:42.998Z</time></trkpt><trkpt lat="43.50038624414707" lon="12.302704711770344"><ele>535.0</ele><time>2026-04-19T08:31:43.998Z</time></trkpt><trkpt lat="43.50053328495117" lon="12.302617123780145"><ele>536.6666666666667</ele><time>2026-04-19T08:31:44.998Z</time></trkpt><trkpt lat="43.50067546767162" lon="12.30248291883535"><ele>538.3333333333334</ele><time>2026-04-19T08:31:45.998Z</time></trkpt><trkpt lat="43.5008465054315" lon="12.30241581844059"><ele>540.0</ele><time>2026-04-19T08:31:46.998Z</time></trkpt><trkpt lat="43.50101404623178" lon="12.302453099366838"><ele>540.0</ele><time>2026-04-19T08:31:47.998Z</time></trkpt><trkpt lat="43.50115878078493" lon="12.302542187494828"><ele>540.0</ele><time>2026-04-19T08:31:48.998Z</time></trkpt><trkpt lat="43.501303556562554" lon="12.302690458138732"><ele>540.0</ele><time>2026-04-19T08:31:49.998Z</time></trkpt><trkpt lat="43.50148532773009" lon="12.302894260806593"><ele>539.5</ele><time>2026-04-19T08:31:50.998Z</time></trkpt><trkpt lat="43.501784068162635" lon="12.30318246075348"><ele>539.0</ele><time>2026-04-19T08:31:51.998Z</time></trkpt><trkpt lat="43.502051715382805" lon="12.303418994804947"><ele>543.3333333333333</ele><time>2026-04-19T08:31:52.998Z</time></trkpt><trkpt lat="43.50224876197174" lon="12.303591666789618"><ele>547.6666666666666</ele><time>2026-04-19T08:31:53.998Z</time></trkpt><trkpt lat="43.502403301648684" lon="12.303725356332174"><ele>552.0</ele><time>2026-04-19T08:31:54.998Z</time></trkpt><trkpt lat="43.50253765684247" lon="12.303821323553127"><ele>547.6666666666666</ele><time>2026-04-19T08:31:55.998Z</time></trkpt><trkpt lat="43.502708926908156" lon="12.30393470620935"><ele>543.3333333333333</ele><time>2026-04-19T08:31:56.998Z</time></trkpt><trkpt lat="43.50289358810074" lon="12.304041046380314"><ele>539.0</ele><time>2026-04-19T08:31:57.998Z</time></trkpt><trkpt lat="43.50304274034177" lon="12.304141972833962"><ele>539.0</ele><time>2026-04-19T08:31:58.998Z</time></trkpt><trkpt lat="43.503173900786344" lon="12.304216384706855"><ele>539.0</ele><time>2026-04-19T08:31:59.998Z</time></trkpt><trkpt lat="43.50329699323541" lon="12.304305043893232"><ele>539.0</ele><time>2026-04-19T08:32:00.998Z</time></trkpt><trkpt lat="43.50341244585642" lon="12.304370592479122"><ele>539.0</ele><time>2026-04-19T08:32:01.998Z</time></trkpt><trkpt lat="43.50353489855984" lon="12.304470554436449"><ele>539.0</ele><time>2026-04-19T08:32:02.998Z</time></trkpt><trkpt lat="43.50364133529014" lon="12.30460113330829"><ele>539.0</ele><time>2026-04-19T08:32:03.998Z</time></trkpt><trkpt lat="43.50372950296266" lon="12.304755936949016"><ele>539.0</ele><time>2026-04-19T08:32:04.998Z</time></trkpt><trkpt lat="43.50380570885871" lon="12.304904306062488"><ele>539.0</ele><time>2026-04-19T08:32:05.998Z</time></trkpt><trkpt lat="43.50382460641292" lon="12.30508695595032"><ele>539.75</ele><time>2026-04-19T08:32:06.998Z</time></trkpt><trkpt lat="43.50387897152248" lon="12.305249153712357"><ele>540.5</ele><time>2026-04-19T08:32:07.998Z</time></trkpt><trkpt lat="43.503898613768534" lon="12.305420740624825"><ele>541.25</ele><time>2026-04-19T08:32:08.998Z</time></trkpt><trkpt lat="43.50391485754205" lon="12.305590568381618"><ele>542.0</ele><time>2026-04-19T08:32:09.998Z</time></trkpt><trkpt lat="43.503925766256344" lon="12.305761281069826"><ele>542.0</ele><time>2026-04-19T08:32:10.998Z</time></trkpt><trkpt lat="43.50394942696404" lon="12.305930795017614"><ele>542.0</ele><time>2026-04-19T08:32:11.998Z</time></trkpt><trkpt lat="43.50396731648899" lon="12.306077357374047"><ele>542.0</ele><time>2026-04-19T08:32:12.998Z</time></trkpt><trkpt lat="43.5039626937555" lon="12.306228387676857"><ele>542.0</ele><time>2026-04-19T08:32:14Z</time></trkpt><trkpt lat="43.503957840960226" lon="12.306411047709075"><ele>543.25</ele><time>2026-04-19T08:32:15Z</time></trkpt><trkpt lat="43.503979231205854" lon="12.306607184943383"><ele>544.5</ele><time>2026-04-19T08:32:16Z</time></trkpt><trkpt lat="43.504010690506185" lon="12.306788436255701"><ele>545.75</ele><time>2026-04-19T08:32:17Z</time></trkpt><trkpt lat="43.50401877169037" lon="12.306968164374961"><ele>547.0</ele><time>2026-04-19T08:32:18Z</time></trkpt><trkpt lat="43.50403008379483" lon="12.307150863294707"><ele>548.25</ele><time>2026-04-19T08:32:19Z</time></trkpt><trkpt lat="43.504049875210576" lon="12.307338494074969"><ele>549.5</ele><time>2026-04-19T08:32:20Z</time></trkpt><trkpt lat="43.50412528929607" lon="12.307506263478693"><ele>550.75</ele><time>2026-04-19T08:32:21Z</time></trkpt><trkpt lat="43.50423629876039" lon="12.307659346887592"><ele>552.0</ele><time>2026-04-19T08:32:22Z</time></trkpt><trkpt lat="43.50435979898353" lon="12.307803690151315"><ele>552.0</ele><time>2026-04-19T08:32:23Z</time></trkpt><trkpt lat="43.50448659337465" lon="12.307951708909496"><ele>552.0</ele><time>2026-04-19T08:32:24Z</time></trkpt><trkpt lat="43.504614424037676" lon="12.308099729309749"><ele>552.0</ele><time>2026-04-19T08:32:25Z</time></trkpt><trkpt lat="43.504741634869994" lon="12.308258054823732"><ele>554.3333333333334</ele><time>2026-04-19T08:32:26Z</time></trkpt><trkpt lat="43.504872468439984" lon="12.308418895613013"><ele>556.6666666666667</ele><time>2026-04-19T08:32:27Z</time></trkpt><trkpt lat="43.505008417802564" lon="12.308578499109856"><ele>559.0</ele><time>2026-04-19T08:32:28Z</time></trkpt><trkpt lat="43.50514887582331" lon="12.308747730559455"><ele>559.6666666666667</ele><time>2026-04-19T08:32:29Z</time></trkpt><trkpt lat="43.50529095004081" lon="12.308922227512884"><ele>560.3333333333334</ele><time>2026-04-19T08:32:29.999Z</time></trkpt><trkpt lat="43.5054222942165" lon="12.309082502337459"><ele>561.0</ele><time>2026-04-19T08:32:30.999Z</time></trkpt><trkpt lat="43.505532691113984" lon="12.309245471592844"><ele>561.0</ele><time>2026-04-19T08:32:31.999Z</time></trkpt><trkpt lat="43.505594124584114" lon="12.309476617326446"><ele>561.0</ele><time>2026-04-19T08:32:32.999Z</time></trkpt><trkpt lat="43.50560227278477" lon="12.309739717436827"><ele>561.0</ele><time>2026-04-19T08:32:33.999Z</time></trkpt><trkpt lat="43.50559633601062" lon="12.309981639842258"><ele>563.3333333333334</ele><time>2026-04-19T08:32:34.999Z</time></trkpt><trkpt lat="43.50557665654022" lon="12.310164012132539"><ele>565.6666666666667</ele><time>2026-04-19T08:32:35.999Z</time></trkpt><trkpt lat="43.50561970613123" lon="12.310366424425279"><ele>568.0</ele><time>2026-04-19T08:32:36.999Z</time></trkpt><trkpt lat="43.50574261828458" lon="12.310586060992025"><ele>568.0</ele><time>2026-04-19T08:32:37.999Z</time></trkpt><trkpt lat="43.505903626102075" lon="12.310855427881258"><ele>568.0</ele><time>2026-04-19T08:32:38.999Z</time></trkpt><trkpt lat="43.50606351806102" lon="12.311141155656673"><ele>568.0</ele><time>2026-04-19T08:32:39.999Z</time></trkpt><trkpt lat="43.50617337227587" lon="12.311382023634552"><ele>568.0</ele><time>2026-04-19T08:32:40.999Z</time></trkpt><trkpt lat="43.50623077448883" lon="12.31162906855683"><ele>568.0</ele><time>2026-04-19T08:32:41.999Z</time></trkpt><trkpt lat="43.50627646304151" lon="12.31193542776839"><ele>571.5</ele><time>2026-04-19T08:32:42.999Z</time></trkpt><trkpt lat="43.50636230810488" lon="12.312218398507476"><ele>575.0</ele><time>2026-04-19T08:32:43.999Z</time></trkpt><trkpt lat="43.506497215163" lon="12.312474636954954"><ele>575.0</ele><time>2026-04-19T08:32:44.999Z</time></trkpt><trkpt lat="43.506649331567964" lon="12.312739541801937"><ele>575.0</ele><time>2026-04-19T08:32:45.999Z</time></trkpt><trkpt lat="43.50679187283224" lon="12.312987305771738"><ele>573.3333333333333</ele><time>2026-04-19T08:32:46.999Z</time></trkpt><trkpt lat="43.50691637973576" lon="12.313203722598987"><ele>571.6666666666666</ele><time>2026-04-19T08:32:47.999Z</time></trkpt><trkpt lat="43.507012432978556" lon="12.313402340665617"><ele>570.0</ele><time>2026-04-19T08:32:48.999Z</time></trkpt><trkpt lat="43.507078029353636" lon="12.313611376498528"><ele>569.6666666666666</ele><time>2026-04-19T08:32:49.999Z</time></trkpt><trkpt lat="43.50711255188611" lon="12.313835157246634"><ele>569.3333333333333</ele><time>2026-04-19T08:32:50.999Z</time></trkpt><trkpt lat="43.50712600467494" lon="12.314083765961184"><ele>569.0</ele><time>2026-04-19T08:32:51.999Z</time></trkpt><trkpt lat="43.50713630596127" lon="12.314337173787582"><ele>573.6666666666666</ele><time>2026-04-19T08:32:52.999Z</time></trkpt><trkpt lat="43.507143647595406" lon="12.314570694106086"><ele>578.3333333333334</ele><time>2026-04-19T08:32:53.999Z</time></trkpt><trkpt lat="43.50715075831546" lon="12.314796869703342"><ele>583.0</ele><time>2026-04-19T08:32:54.999Z</time></trkpt><trkpt lat="43.50717029844822" lon="12.315010210878008"><ele>584.25</ele><time>2026-04-19T08:32:55.999Z</time></trkpt><trkpt lat="43.50716853396384" lon="12.315219355843649"><ele>585.5</ele><time>2026-04-19T08:32:56.999Z</time></trkpt><trkpt lat="43.50715635110305" lon="12.31541678543207"><ele>586.75</ele><time>2026-04-19T08:32:57.999Z</time></trkpt><trkpt lat="43.50713679033888" lon="12.315589723275474"><ele>588.0</ele><time>2026-04-19T08:32:58.999Z</time></trkpt><trkpt lat="43.50711224707588" lon="12.315741691014663"><ele>588.5</ele><time>2026-04-19T08:32:59.999Z</time></trkpt><trkpt lat="43.50709075829807" lon="12.31589188993782"><ele>589.0</ele><time>2026-04-19T08:33:00.999Z</time></trkpt><trkpt lat="43.50709992399412" lon="12.316063390687017"><ele>589.5</ele><time>2026-04-19T08:33:01.999Z</time></trkpt><trkpt lat="43.50715993620953" lon="12.316243299259758"><ele>590.0</ele><time>2026-04-19T08:33:02.999Z</time></trkpt><trkpt lat="43.5072715829082" lon="12.316395140121278"><ele>590.6666666666666</ele><time>2026-04-19T08:33:03.999Z</time></trkpt><trkpt lat="43.507398955112905" lon="12.31654671195474"><ele>591.3333333333334</ele><time>2026-04-19T08:33:04.999Z</time></trkpt><trkpt lat="43.50746158282967" lon="12.316749091441595"><ele>592.0</ele><time>2026-04-19T08:33:05.999Z</time></trkpt><trkpt lat="43.507520540529214" lon="12.316919419175061"><ele>592.0</ele><time>2026-04-19T08:33:06.999Z</time></trkpt><trkpt lat="43.50755153103059" lon="12.31709515284186"><ele>592.0</ele><time>2026-04-19T08:33:07.999Z</time></trkpt><trkpt lat="43.507564881050556" lon="12.317272573428816"><ele>592.0</ele><time>2026-04-19T08:33:08.999Z</time></trkpt><trkpt lat="43.5075365024049" lon="12.317449034376759"><ele>592.0</ele><time>2026-04-19T08:33:09.999Z</time></trkpt><trkpt lat="43.507449586232916" lon="12.31760539139378"><ele>592.0</ele><time>2026-04-19T08:33:10.999Z</time></trkpt><trkpt lat="43.50731757966337" lon="12.317716222835717"><ele>592.0</ele><time>2026-04-19T08:33:11.999Z</time></trkpt><trkpt lat="43.507152273746115" lon="12.31773807113659"><ele>592.0</ele><time>2026-04-19T08:33:12.999Z</time></trkpt><trkpt lat="43.506996411115935" lon="12.317692999014534"><ele>592.0</ele><time>2026-04-19T08:33:13.999Z</time></trkpt><trkpt lat="43.506859520491076" lon="12.317592866843322"><ele>592.0</ele><time>2026-04-19T08:33:14.999Z</time></trkpt><trkpt lat="43.50672198407729" lon="12.31750998095629"><ele>592.0</ele><time>2026-04-19T08:33:15.999Z</time></trkpt><trkpt lat="43.506576024392984" lon="12.317432610695647"><ele>592.0</ele><time>2026-04-19T08:33:16.999Z</time></trkpt><trkpt lat="43.50639796430066" lon="12.317445641457573"><ele>592.0</ele><time>2026-04-19T08:33:17.999Z</time></trkpt><trkpt lat="43.50622245728681" lon="12.317532860717803"><ele>592.0</ele><time>2026-04-19T08:33:18.999Z</time></trkpt><trkpt lat="43.506076045526534" lon="12.317682335015911"><ele>592.0</ele><time>2026-04-19T08:33:19.999Z</time></trkpt><trkpt lat="43.50597764033047" lon="12.31787680666135"><ele>592.0</ele><time>2026-04-19T08:33:20.999Z</time></trkpt><trkpt lat="43.50594444044293" lon="12.318085473369694"><ele>592.0</ele><time>2026-04-19T08:33:21.999Z</time></trkpt><trkpt lat="43.505882904252424" lon="12.31824571272103"><ele>597.0</ele><time>2026-04-19T08:33:22.999Z</time></trkpt><trkpt lat="43.50577764137694" lon="12.31837184478866"><ele>602.0</ele><time>2026-04-19T08:33:23.999Z</time></trkpt><trkpt lat="43.505617387644755" lon="12.318338221487817"><ele>607.0</ele><time>2026-04-19T08:33:24.999Z</time></trkpt><trkpt lat="43.50544909443412" lon="12.318315143193136"><ele>606.75</ele><time>2026-04-19T08:33:25.999Z</time></trkpt><trkpt lat="43.50527361043065" lon="12.318251912732325"><ele>606.5</ele><time>2026-04-19T08:33:26.999Z</time></trkpt><trkpt lat="43.505129004283305" lon="12.318223495259847"><ele>606.25</ele><time>2026-04-19T08:33:27.999Z</time></trkpt><trkpt lat="43.50501210996686" lon="12.318257426947195"><ele>606.0</ele><time>2026-04-19T08:33:28.999Z</time></trkpt><trkpt lat="43.50490960882998" lon="12.31837043764706"><ele>606.0</ele><time>2026-04-19T08:33:29.999Z</time></trkpt><trkpt lat="43.5048210884873" lon="12.318568434421957"><ele>606.0</ele><time>2026-04-19T08:33:30.999Z</time></trkpt><trkpt lat="43.50477240476685" lon="12.318821189422875"><ele>606.0</ele><time>2026-04-19T08:33:31.999Z</time></trkpt><trkpt lat="43.50475213627357" lon="12.319098695494235"><ele>608.6666666666666</ele><time>2026-04-19T08:33:32.999Z</time></trkpt><trkpt lat="43.504728799747504" lon="12.319378086902764"><ele>611.3333333333333</ele><time>2026-04-19T08:33:33.999Z</time></trkpt><trkpt lat="43.50473235834906" lon="12.319616386977117"><ele>614.0</ele><time>2026-04-19T08:33:34.999Z</time></trkpt><trkpt lat="43.504787442107535" lon="12.319898122876989"><ele>614.5</ele><time>2026-04-19T08:33:35.999Z</time></trkpt><trkpt lat="43.50494385396651" lon="12.320143021197335"><ele>615.0</ele><time>2026-04-19T08:33:36.999Z</time></trkpt><trkpt lat="43.505079205234914" lon="12.320421379926511"><ele>615.3333333333334</ele><time>2026-04-19T08:33:37.999Z</time></trkpt><trkpt lat="43.50511961327116" lon="12.320687956323637"><ele>615.6666666666667</ele><time>2026-04-19T08:33:38.998Z</time></trkpt><trkpt lat="43.50512662749037" lon="12.320925839818637"><ele>616.0</ele><time>2026-04-19T08:33:39.998Z</time></trkpt><trkpt lat="43.50514987021555" lon="12.321184515993822"><ele>614.6666666666667</ele><time>2026-04-19T08:33:40.998Z</time></trkpt><trkpt lat="43.505217454988454" lon="12.321419633661435"><ele>613.3333333333334</ele><time>2026-04-19T08:33:41.998Z</time></trkpt><trkpt lat="43.5053804709355" lon="12.32163398932189"><ele>612.0</ele><time>2026-04-19T08:33:42.998Z</time></trkpt><trkpt lat="43.50560969550451" lon="12.321838217742622"><ele>613.5</ele><time>2026-04-19T08:33:43.998Z</time></trkpt><trkpt lat="43.505904978152046" lon="12.32207669586336"><ele>615.0</ele><time>2026-04-19T08:33:44.998Z</time></trkpt><trkpt lat="43.50617823757689" lon="12.322246945078962"><ele>621.5</ele><time>2026-04-19T08:33:45.998Z</time></trkpt><trkpt lat="43.50642278939025" lon="12.322403438352909"><ele>628.0</ele><time>2026-04-19T08:33:46.998Z</time></trkpt><trkpt lat="43.50664165204649" lon="12.322561045274535"><ele>628.0</ele><time>2026-04-19T08:33:47.998Z</time></trkpt><trkpt lat="43.50685440635436" lon="12.322719948724924"><ele>628.0</ele><time>2026-04-19T08:33:48.998Z</time></trkpt><trkpt lat="43.50702232782057" lon="12.322950486068754"><ele>632.0</ele><time>2026-04-19T08:33:49.998Z</time></trkpt><trkpt lat="43.50719458661326" lon="12.323225171406976"><ele>636.0</ele><time>2026-04-19T08:33:50.998Z</time></trkpt><trkpt lat="43.50735622590257" lon="12.323473957957763"><ele>636.0</ele><time>2026-04-19T08:33:51.998Z</time></trkpt><trkpt lat="43.50748809457432" lon="12.323708442103122"><ele>636.0</ele><time>2026-04-19T08:33:52.998Z</time></trkpt><trkpt lat="43.507611922477864" lon="12.323925381241557"><ele>636.0</ele><time>2026-04-19T08:33:53.998Z</time></trkpt><trkpt lat="43.50773578375873" lon="12.324131672656199"><ele>632.6666666666666</ele><time>2026-04-19T08:33:54.998Z</time></trkpt><trkpt lat="43.507907414126876" lon="12.324310837900775"><ele>629.3333333333333</ele><time>2026-04-19T08:33:55.998Z</time></trkpt><trkpt lat="43.508108297049056" lon="12.32445718643704"><ele>626.0</ele><time>2026-04-19T08:33:56.998Z</time></trkpt><trkpt lat="43.50833899591964" lon="12.324602965492009"><ele>627.6666666666666</ele><time>2026-04-19T08:33:57.998Z</time></trkpt><trkpt lat="43.5085585012353" lon="12.32475718116225"><ele>629.3333333333334</ele><time>2026-04-19T08:33:58.998Z</time></trkpt><trkpt lat="43.50873659598092" lon="12.324883441670156"><ele>631.0</ele><time>2026-04-19T08:33:59.998Z</time></trkpt><trkpt lat="43.50890617076084" lon="12.32503783969588"><ele>632.6666666666667</ele><time>2026-04-19T08:34:00.998Z</time></trkpt><trkpt lat="43.50903179923982" lon="12.325189280492655"><ele>634.3333333333334</ele><time>2026-04-19T08:34:01.998Z</time></trkpt><trkpt lat="43.50916138292473" lon="12.325291115996507"><ele>636.0</ele><time>2026-04-19T08:34:02.998Z</time></trkpt><trkpt lat="43.50920663699326" lon="12.325567548923805"><ele>636.0</ele><time>2026-04-19T08:34:03.998Z</time></trkpt><trkpt lat="43.50929099671133" lon="12.325683059772306"><ele>636.0</ele><time>2026-04-19T08:34:04.998Z</time></trkpt><trkpt lat="43.50943889701565" lon="12.325777923780048"><ele>636.0</ele><time>2026-04-19T08:34:05.998Z</time></trkpt><trkpt lat="43.50960905977121" lon="12.325829140916337"><ele>643.0</ele><time>2026-04-19T08:34:06.998Z</time></trkpt><trkpt lat="43.509831444371756" lon="12.325833119675492"><ele>650.0</ele><time>2026-04-19T08:34:07.998Z</time></trkpt><trkpt lat="43.51006448712834" lon="12.325832984451651"><ele>650.0</ele><time>2026-04-19T08:34:08.998Z</time></trkpt><trkpt lat="43.51027378517291" lon="12.325821705228662"><ele>650.0</ele><time>2026-04-19T08:34:09.998Z</time></trkpt><trkpt lat="43.5104594667296" lon="12.325852165976004"><ele>650.0</ele><time>2026-04-19T08:34:10.998Z</time></trkpt><trkpt lat="43.510543314350976" lon="12.325894906427337"><ele>650.8</ele><time>2026-04-19T08:34:11.998Z</time></trkpt><trkpt lat="43.51060322443906" lon="12.325959680585104"><ele>651.6</ele><time>2026-04-19T08:34:12.998Z</time></trkpt><trkpt lat="43.51064588607047" lon="12.326068002140067"><ele>652.4000000000001</ele><time>2026-04-19T08:34:13.998Z</time></trkpt><trkpt lat="43.5106708245329" lon="12.326233924648381"><ele>653.2</ele><time>2026-04-19T08:34:14.998Z</time></trkpt><trkpt lat="43.510633121881725" lon="12.32642163450141"><ele>654.0</ele><time>2026-04-19T08:34:15.998Z</time></trkpt><trkpt lat="43.510560611757654" lon="12.326601248263827"><ele>655.3333333333334</ele><time>2026-04-19T08:34:16.998Z</time></trkpt><trkpt lat="43.510461603752645" lon="12.326735991954756"><ele>656.6666666666667</ele><time>2026-04-19T08:34:17.998Z</time></trkpt><trkpt lat="43.510357948953484" lon="12.326914167710454"><ele>658.0</ele><time>2026-04-19T08:34:18.998Z</time></trkpt><trkpt lat="43.510199327069635" lon="12.327167124181722"><ele>658.3333333333334</ele><time>2026-04-19T08:34:19.999Z</time></trkpt><trkpt lat="43.51004837290116" lon="12.327414127934727"><ele>658.6666666666666</ele><time>2026-04-19T08:34:20.999Z</time></trkpt><trkpt lat="43.50990312318831" lon="12.327573575936746"><ele>659.0</ele><time>2026-04-19T08:34:21.999Z</time></trkpt><trkpt lat="43.5096972829733" lon="12.32760835548991"><ele>657.0</ele><time>2026-04-19T08:34:22.999Z</time></trkpt><trkpt lat="43.50949773424141" lon="12.32761694114731"><ele>655.0</ele><time>2026-04-19T08:34:23.999Z</time></trkpt><trkpt lat="43.50926721745578" lon="12.327625410423627"><ele>653.0</ele><time>2026-04-19T08:34:24.999Z</time></trkpt><trkpt lat="43.50907669219754" lon="12.327634319649126"><ele>653.0</ele><time>2026-04-19T08:34:25.999Z</time></trkpt><trkpt lat="43.50888951355288" lon="12.327675584645377"><ele>653.0</ele><time>2026-04-19T08:34:26.999Z</time></trkpt><trkpt lat="43.50873396929273" lon="12.327824972671738"><ele>653.0</ele><time>2026-04-19T08:34:27.999Z</time></trkpt><trkpt lat="43.5086308032518" lon="12.328128611531218"><ele>653.6666666666666</ele><time>2026-04-19T08:34:28.999Z</time></trkpt><trkpt lat="43.50861481593806" lon="12.328428695492413"><ele>654.3333333333334</ele><time>2026-04-19T08:34:29.999Z</time></trkpt><trkpt lat="43.50867159735189" lon="12.32873612466836"><ele>655.0</ele><time>2026-04-19T08:34:30.999Z</time></trkpt><trkpt lat="43.508756522337734" lon="12.32901360053016"><ele>658.6666666666667</ele><time>2026-04-19T08:34:31.999Z</time></trkpt><trkpt lat="43.50886619117432" lon="12.329191551496411"><ele>662.3333333333334</ele><time>2026-04-19T08:34:32.999Z</time></trkpt><trkpt lat="43.50903356699957" lon="12.329318475464103"><ele>666.0</ele><time>2026-04-19T08:34:33.999Z</time></trkpt><trkpt lat="43.50923239643351" lon="12.329375937571818"><ele>666.0</ele><time>2026-04-19T08:34:34.999Z</time></trkpt><trkpt lat="43.50943477987599" lon="12.329346482275321"><ele>666.0</ele><time>2026-04-19T08:34:35.999Z</time></trkpt><trkpt lat="43.509612540022644" lon="12.329223507169072"><ele>666.0</ele><time>2026-04-19T08:34:36.999Z</time></trkpt><trkpt lat="43.509780207116705" lon="12.32903563776447"><ele>666.0</ele><time>2026-04-19T08:34:37.999Z</time></trkpt><trkpt lat="43.50993231477169" lon="12.328882197874266"><ele>666.0</ele><time>2026-04-19T08:34:38.999Z</time></trkpt><trkpt lat="43.51009014506131" lon="12.328799547571853"><ele>666.0</ele><time>2026-04-19T08:34:39.999Z</time></trkpt><trkpt lat="43.51020769885404" lon="12.328709749907121"><ele>666.0</ele><time>2026-04-19T08:34:40.999Z</time></trkpt><trkpt lat="43.51031185671479" lon="12.328612883317096"><ele>666.0</ele><time>2026-04-19T08:34:41.999Z</time></trkpt><trkpt lat="43.51040933646359" lon="12.328532764996655"><ele>666.0</ele><time>2026-04-19T08:34:42.999Z</time></trkpt><trkpt lat="43.51056165680905" lon="12.328471555178742"><ele>666.0</ele><time>2026-04-19T08:34:43.999Z</time></trkpt><trkpt lat="43.510705958351586" lon="12.32846940629674"><ele>665.3333333333334</ele><time>2026-04-19T08:34:44.999Z</time></trkpt><trkpt lat="43.51088917007545" lon="12.328510149810047"><ele>664.6666666666667</ele><time>2026-04-19T08:34:45.999Z</time></trkpt><trkpt lat="43.511126682101306" lon="12.328584304499572"><ele>664.0</ele><time>2026-04-19T08:34:46.999Z</time></trkpt><trkpt lat="43.51136068733732" lon="12.32866396755124"><ele>668.3333333333334</ele><time>2026-04-19T08:34:47.999Z</time></trkpt><trkpt lat="43.51156273087362" lon="12.328746264921742"><ele>672.6666666666666</ele><time>2026-04-19T08:34:48.999Z</time></trkpt><trkpt lat="43.511732516723704" lon="12.328802689728771"><ele>677.0</ele><time>2026-04-19T08:34:49.999Z</time></trkpt><trkpt lat="43.51188846684591" lon="12.328846280578448"><ele>677.0</ele><time>2026-04-19T08:34:50.999Z</time></trkpt><trkpt lat="43.51200894103355" lon="12.328887425683824"><ele>677.0</ele><time>2026-04-19T08:34:51.999Z</time></trkpt><trkpt lat="43.512099389463" lon="12.328915422966656"><ele>677.0</ele><time>2026-04-19T08:34:52.999Z</time></trkpt><trkpt lat="43.512222327255834" lon="12.32892925803863"><ele>677.0</ele><time>2026-04-19T08:34:53.999Z</time></trkpt><trkpt lat="43.51233492919202" lon="12.328974965248063"><ele>675.5</ele><time>2026-04-19T08:34:54.999Z</time></trkpt><trkpt lat="43.51245093471839" lon="12.329036505433349"><ele>674.0</ele><time>2026-04-19T08:34:55.999Z</time></trkpt><trkpt lat="43.512552265686445" lon="12.329151921039875"><ele>672.5</ele><time>2026-04-19T08:34:56.999Z</time></trkpt><trkpt lat="43.51262387839692" lon="12.329304518803692"><ele>671.0</ele><time>2026-04-19T08:34:57.999Z</time></trkpt><trkpt lat="43.51266315704491" lon="12.32948865998276"><ele>671.0</ele><time>2026-04-19T08:34:58.999Z</time></trkpt><trkpt lat="43.51265787107696" lon="12.329686718030098"><ele>671.0</ele><time>2026-04-19T08:34:59.999Z</time></trkpt><trkpt lat="43.51263628197261" lon="12.329859465038949"><ele>671.0</ele><time>2026-04-19T08:35:00.999Z</time></trkpt><trkpt lat="43.51260847061222" lon="12.330008361024614"><ele>671.0</ele><time>2026-04-19T08:35:01.999Z</time></trkpt><trkpt lat="43.512588291672934" lon="12.330149983538007"><ele>668.75</ele><time>2026-04-19T08:35:02.999Z</time></trkpt><trkpt lat="43.51260108338093" lon="12.330294656833441"><ele>666.5</ele><time>2026-04-19T08:35:03.999Z</time></trkpt><trkpt lat="43.51267162263183" lon="12.330417054684007"><ele>664.25</ele><time>2026-04-19T08:35:04.999Z</time></trkpt><trkpt lat="43.51280035819335" lon="12.3304879353517"><ele>662.0</ele><time>2026-04-19T08:35:05.999Z</time></trkpt><trkpt lat="43.51300134266956" lon="12.330481790319235"><ele>673.0</ele><time>2026-04-19T08:35:06.999Z</time></trkpt><trkpt lat="43.51328075294078" lon="12.330524267578209"><ele>684.0</ele><time>2026-04-19T08:35:07.999Z</time></trkpt><trkpt lat="43.51347226191765" lon="12.330557770499523"><ele>687.5</ele><time>2026-04-19T08:35:08.999Z</time></trkpt><trkpt lat="43.51361017424545" lon="12.330606993264835"><ele>691.0</ele><time>2026-04-19T08:35:09.999Z</time></trkpt><trkpt lat="43.513703481112536" lon="12.330744189099743"><ele>694.5</ele><time>2026-04-19T08:35:10.999Z</time></trkpt><trkpt lat="43.51378524374192" lon="12.33093522763433"><ele>698.0</ele><time>2026-04-19T08:35:11.999Z</time></trkpt><trkpt lat="43.51375189042555" lon="12.331177018065548"><ele>690.3333333333333</ele><time>2026-04-19T08:35:12.999Z</time></trkpt><trkpt lat="43.51375569071084" lon="12.331449117104809"><ele>682.6666666666666</ele><time>2026-04-19T08:35:13.999Z</time></trkpt><trkpt lat="43.513781878355175" lon="12.33164630157838"><ele>675.0</ele><time>2026-04-19T08:35:14.999Z</time></trkpt><trkpt lat="43.51389767809821" lon="12.331744183798582"><ele>675.0</ele><time>2026-04-19T08:35:15.999Z</time></trkpt><trkpt lat="43.51407936415266" lon="12.331755212276331"><ele>675.0</ele><time>2026-04-19T08:35:16.999Z</time></trkpt><trkpt lat="43.51431141812122" lon="12.33170343496428"><ele>675.0</ele><time>2026-04-19T08:35:17.999Z</time></trkpt><trkpt lat="43.5145092662334" lon="12.331536668625807"><ele>687.6666666666666</ele><time>2026-04-19T08:35:18.999Z</time></trkpt><trkpt lat="43.5146631915022" lon="12.331347658333405"><ele>700.3333333333333</ele><time>2026-04-19T08:35:19.999Z</time></trkpt><trkpt lat="43.5148216902763" lon="12.331247533086827"><ele>713.0</ele><time>2026-04-19T08:35:20.999Z</time></trkpt><trkpt lat="43.51500725917085" lon="12.331149280837876"><ele>713.0</ele><time>2026-04-19T08:35:21.999Z</time></trkpt><trkpt lat="43.51515320814872" lon="12.331383933335506"><ele>713.0</ele><time>2026-04-19T08:35:22.999Z</time></trkpt><trkpt lat="43.51524263603036" lon="12.331713284832544"><ele>707.5</ele><time>2026-04-19T08:35:23.999Z</time></trkpt><trkpt lat="43.51537549923041" lon="12.332109081137585"><ele>702.0</ele><time>2026-04-19T08:35:24.999Z</time></trkpt><trkpt lat="43.515567785065436" lon="12.332483689015943"><ele>702.0</ele><time>2026-04-19T08:35:25.999Z</time></trkpt><trkpt lat="43.51571606835176" lon="12.332757387715578"><ele>702.0</ele><time>2026-04-19T08:35:26.999Z</time></trkpt><trkpt lat="43.51578968630946" lon="12.332909619966218"><ele>702.0</ele><time>2026-04-19T08:35:27.999Z</time></trkpt><trkpt lat="43.515851949481075" lon="12.333127842189352"><ele>698.3333333333334</ele><time>2026-04-19T08:35:28.999Z</time></trkpt><trkpt lat="43.51579229107397" lon="12.333352886530635"><ele>694.6666666666667</ele><time>2026-04-19T08:35:29.999Z</time></trkpt><trkpt lat="43.51566317012207" lon="12.333502348646078"><ele>691.0</ele><time>2026-04-19T08:35:30.999Z</time></trkpt><trkpt lat="43.51548104751401" lon="12.333584818201448"><ele>682.0</ele><time>2026-04-19T08:35:31.999Z</time></trkpt><trkpt lat="43.51535283881879" lon="12.333687505833936"><ele>673.0</ele><time>2026-04-19T08:35:32.999Z</time></trkpt><trkpt lat="43.51527247338415" lon="12.333896874363681"><ele>664.0</ele><time>2026-04-19T08:35:33.999Z</time></trkpt><trkpt lat="43.515282180226535" lon="12.334135612345088"><ele>664.0</ele><time>2026-04-19T08:35:34.999Z</time></trkpt><trkpt lat="43.515381031654236" lon="12.334346922447372"><ele>664.0</ele><time>2026-04-19T08:35:35.999Z</time></trkpt><trkpt lat="43.51554457172722" lon="12.334460124784409"><ele>664.0</ele><time>2026-04-19T08:35:36.999Z</time></trkpt><trkpt lat="43.51579425339572" lon="12.33451309675352"><ele>677.0</ele><time>2026-04-19T08:35:37.999Z</time></trkpt><trkpt lat="43.51608758324652" lon="12.334569338260472"><ele>690.0</ele><time>2026-04-19T08:35:38.998Z</time></trkpt><trkpt lat="43.51637207446887" lon="12.33464987684742"><ele>685.0</ele><time>2026-04-19T08:35:39.998Z</time></trkpt><trkpt lat="43.51672563933292" lon="12.334765830045331"><ele>680.0</ele><time>2026-04-19T08:35:40.998Z</time></trkpt><trkpt lat="43.517045390195975" lon="12.334844430491101"><ele>686.5</ele><time>2026-04-19T08:35:41.998Z</time></trkpt><trkpt lat="43.51729428265669" lon="12.334953441622497"><ele>693.0</ele><time>2026-04-19T08:35:42.998Z</time></trkpt><trkpt lat="43.51754500885495" lon="12.335075394900631"><ele>693.0</ele><time>2026-04-19T08:35:43.998Z</time></trkpt><trkpt lat="43.51772581875453" lon="12.335164837966563"><ele>693.0</ele><time>2026-04-19T08:35:44.998Z</time></trkpt><trkpt lat="43.517880227386456" lon="12.335273338365"><ele>693.0</ele><time>2026-04-19T08:35:45.998Z</time></trkpt><trkpt lat="43.518011424893565" lon="12.335440648854076"><ele>698.0</ele><time>2026-04-19T08:35:46.998Z</time></trkpt><trkpt lat="43.51807148760595" lon="12.335746877944015"><ele>703.0</ele><time>2026-04-19T08:35:47.998Z</time></trkpt><trkpt lat="43.51804950465737" lon="12.336130410975455"><ele>705.5</ele><time>2026-04-19T08:35:48.998Z</time></trkpt><trkpt lat="43.51799862015028" lon="12.336441487998668"><ele>708.0</ele><time>2026-04-19T08:35:49.998Z</time></trkpt><trkpt lat="43.517891480949814" lon="12.336708889072106"><ele>698.0</ele><time>2026-04-19T08:35:50.998Z</time></trkpt><trkpt lat="43.517732612664474" lon="12.336919265751854"><ele>688.0</ele><time>2026-04-19T08:35:51.998Z</time></trkpt><trkpt lat="43.51752831403142" lon="12.337154152581583"><ele>688.5</ele><time>2026-04-19T08:35:52.998Z</time></trkpt><trkpt lat="43.51730689978556" lon="12.33738991206801"><ele>689.0</ele><time>2026-04-19T08:35:53.998Z</time></trkpt><trkpt lat="43.51706894309177" lon="12.337606676581046"><ele>689.0</ele><time>2026-04-19T08:35:54.998Z</time></trkpt><trkpt lat="43.51681686361478" lon="12.337857206107142"><ele>689.0</ele><time>2026-04-19T08:35:55.998Z</time></trkpt><trkpt lat="43.51655384066835" lon="12.33806640179705"><ele>691.5</ele><time>2026-04-19T08:35:56.998Z</time></trkpt><trkpt lat="43.51627299561206" lon="12.338219813181597"><ele>694.0</ele><time>2026-04-19T08:35:57.998Z</time></trkpt><trkpt lat="43.51601008768126" lon="12.33837759138881"><ele>694.0</ele><time>2026-04-19T08:35:58.998Z</time></trkpt><trkpt lat="43.515795669978566" lon="12.338503412622213"><ele>694.0</ele><time>2026-04-19T08:35:59.998Z</time></trkpt><trkpt lat="43.51566729877387" lon="12.338613159462986"><ele>694.0</ele><time>2026-04-19T08:36:00.998Z</time></trkpt><trkpt lat="43.51557637991508" lon="12.33878834825806"><ele>696.3333333333334</ele><time>2026-04-19T08:36:01.998Z</time></trkpt><trkpt lat="43.51554044589589" lon="12.339021407598398"><ele>698.6666666666666</ele><time>2026-04-19T08:36:02.998Z</time></trkpt><trkpt lat="43.515547393731794" lon="12.339271509537761"><ele>701.0</ele><time>2026-04-19T08:36:03.998Z</time></trkpt><trkpt lat="43.51562735944007" lon="12.339462348661346"><ele>701.0</ele><time>2026-04-19T08:36:04.998Z</time></trkpt><trkpt lat="43.51573519112653" lon="12.339582516882453"><ele>701.0</ele><time>2026-04-19T08:36:05.998Z</time></trkpt><trkpt lat="43.515887951516454" lon="12.339666234772297"><ele>701.0</ele><time>2026-04-19T08:36:06.998Z</time></trkpt><trkpt lat="43.516101050356426" lon="12.339800477030284"><ele>704.0</ele><time>2026-04-19T08:36:07.998Z</time></trkpt><trkpt lat="43.51638479425845" lon="12.33994791030692"><ele>707.0</ele><time>2026-04-19T08:36:08.998Z</time></trkpt><trkpt lat="43.51666033826187" lon="12.340134603797704"><ele>707.0</ele><time>2026-04-19T08:36:09.998Z</time></trkpt><trkpt lat="43.516921095787694" lon="12.340274651325899"><ele>707.0</ele><time>2026-04-19T08:36:10.998Z</time></trkpt><trkpt lat="43.51717554026424" lon="12.340383571754924"><ele>714.5</ele><time>2026-04-19T08:36:11.998Z</time></trkpt><trkpt lat="43.517425686242404" lon="12.34040077404329"><ele>722.0</ele><time>2026-04-19T08:36:12.998Z</time></trkpt><trkpt lat="43.5176973568094" lon="12.340348819521022"><ele>726.5</ele><time>2026-04-19T08:36:13.998Z</time></trkpt><trkpt lat="43.51795806224086" lon="12.3402887858482"><ele>731.0</ele><time>2026-04-19T08:36:14.998Z</time></trkpt><trkpt lat="43.518197337626084" lon="12.340337914650373"><ele>731.0</ele><time>2026-04-19T08:36:15.998Z</time></trkpt><trkpt lat="43.51843890424507" lon="12.34044801309064"><ele>731.0</ele><time>2026-04-19T08:36:16.998Z</time></trkpt><trkpt lat="43.51866738053106" lon="12.340596690191585"><ele>726.6666666666666</ele><time>2026-04-19T08:36:17.998Z</time></trkpt><trkpt lat="43.51886014084046" lon="12.340770493909796"><ele>722.3333333333334</ele><time>2026-04-19T08:36:18.998Z</time></trkpt><trkpt lat="43.51899092280982" lon="12.340937712883102"><ele>718.0</ele><time>2026-04-19T08:36:19.998Z</time></trkpt><trkpt lat="43.51905921928969" lon="12.341141021886374"><ele>716.6666666666667</ele><time>2026-04-19T08:36:20.998Z</time></trkpt><trkpt lat="43.51906008829718" lon="12.341407332221616"><ele>715.3333333333334</ele><time>2026-04-19T08:36:21.998Z</time></trkpt><trkpt lat="43.51898437460638" lon="12.34167698905513"><ele>714.0</ele><time>2026-04-19T08:36:22.998Z</time></trkpt><trkpt lat="43.51884398693707" lon="12.341883955769028"><ele>707.0</ele><time>2026-04-19T08:36:23.998Z</time></trkpt><trkpt lat="43.51867334643212" lon="12.342051441820965"><ele>700.0</ele><time>2026-04-19T08:36:24.998Z</time></trkpt><trkpt lat="43.51852467768484" lon="12.342261385582242"><ele>693.0</ele><time>2026-04-19T08:36:25.999Z</time></trkpt><trkpt lat="43.51845363779528" lon="12.342497651679029"><ele>693.0</ele><time>2026-04-19T08:36:26.999Z</time></trkpt><trkpt lat="43.51846075193811" lon="12.342771523855134"><ele>693.0</ele><time>2026-04-19T08:36:27.999Z</time></trkpt><trkpt lat="43.51851751349247" lon="12.343018898012797"><ele>693.0</ele><time>2026-04-19T08:36:28.999Z</time></trkpt><trkpt lat="43.51863060640683" lon="12.343244603967701"><ele>693.0</ele><time>2026-04-19T08:36:29.999Z</time></trkpt><trkpt lat="43.51872371208686" lon="12.343446754427035"><ele>693.0</ele><time>2026-04-19T08:36:30.999Z</time></trkpt><trkpt lat="43.51875364955053" lon="12.343677283049635"><ele>693.0</ele><time>2026-04-19T08:36:31.999Z</time></trkpt><trkpt lat="43.51866287567506" lon="12.343920827089121"><ele>693.0</ele><time>2026-04-19T08:36:32.999Z</time></trkpt><trkpt lat="43.518557957617936" lon="12.344240816566815"><ele>693.0</ele><time>2026-04-19T08:36:33.999Z</time></trkpt><trkpt lat="43.51854201940823" lon="12.344553592307683"><ele>691.5</ele><time>2026-04-19T08:36:34.999Z</time></trkpt><trkpt lat="43.51861790290379" lon="12.344950060589548"><ele>690.0</ele><time>2026-04-19T08:36:35.999Z</time></trkpt><trkpt lat="43.51873434802243" lon="12.34531815027794"><ele>707.5</ele><time>2026-04-19T08:36:36.999Z</time></trkpt><trkpt lat="43.51888018195842" lon="12.345635541927434"><ele>725.0</ele><time>2026-04-19T08:36:37.999Z</time></trkpt><trkpt lat="43.51902246698285" lon="12.345905859617854"><ele>725.0</ele><time>2026-04-19T08:36:38.999Z</time></trkpt><trkpt lat="43.51906075590075" lon="12.34604991205299"><ele>725.0</ele><time>2026-04-19T08:36:39.999Z</time></trkpt><trkpt lat="43.51907397250004" lon="12.34629008736793"><ele>725.0</ele><time>2026-04-19T08:36:40.999Z</time></trkpt><trkpt lat="43.5189893619579" lon="12.34647186349865"><ele>725.0</ele><time>2026-04-19T08:36:41.999Z</time></trkpt><trkpt lat="43.51883300608202" lon="12.34656968125534"><ele>714.0</ele><time>2026-04-19T08:36:42.999Z</time></trkpt><trkpt lat="43.518627883757304" lon="12.346703034706735"><ele>703.0</ele><time>2026-04-19T08:36:43.999Z</time></trkpt><trkpt lat="43.51833653050709" lon="12.346921912818338"><ele>703.0</ele><time>2026-04-19T08:36:44.999Z</time></trkpt><trkpt lat="43.518098762395745" lon="12.347089666008753"><ele>703.0</ele><time>2026-04-19T08:36:45.999Z</time></trkpt><trkpt lat="43.517900501696495" lon="12.34723892073311"><ele>702.0</ele><time>2026-04-19T08:36:46.999Z</time></trkpt><trkpt lat="43.517805118958904" lon="12.347385968869117"><ele>701.0</ele><time>2026-04-19T08:36:47.999Z</time></trkpt><trkpt lat="43.51778205962795" lon="12.347624717718706"><ele>700.0</ele><time>2026-04-19T08:36:48.999Z</time></trkpt><trkpt lat="43.51778558995869" lon="12.347919682608339"><ele>705.6666666666667</ele><time>2026-04-19T08:36:49.999Z</time></trkpt><trkpt lat="43.517753564940655" lon="12.348226816302235"><ele>711.3333333333334</ele><time>2026-04-19T08:36:50.999Z</time></trkpt><trkpt lat="43.51762981010476" lon="12.348476938144364"><ele>717.0</ele><time>2026-04-19T08:36:51.999Z</time></trkpt><trkpt lat="43.51744649068448" lon="12.348642831975056"><ele>717.0</ele><time>2026-04-19T08:36:52.999Z</time></trkpt><trkpt lat="43.51727379716848" lon="12.348746888800523"><ele>717.0</ele><time>2026-04-19T08:36:53.999Z</time></trkpt><trkpt lat="43.517132801061265" lon="12.34873780002748"><ele>717.0</ele><time>2026-04-19T08:36:54.999Z</time></trkpt><trkpt lat="43.51696509002636" lon="12.348655252523132"><ele>720.3333333333334</ele><time>2026-04-19T08:36:55.999Z</time></trkpt><trkpt lat="43.51682763748875" lon="12.348488530096022"><ele>723.6666666666667</ele><time>2026-04-19T08:36:56.999Z</time></trkpt><trkpt lat="43.51668974631474" lon="12.348213597802228"><ele>727.0</ele><time>2026-04-19T08:36:57.999Z</time></trkpt><trkpt lat="43.51662161813908" lon="12.347942596461673"><ele>724.25</ele><time>2026-04-19T08:36:58.999Z</time></trkpt><trkpt lat="43.51656710472336" lon="12.347763951670593"><ele>721.5</ele><time>2026-04-19T08:36:59.999Z</time></trkpt><trkpt lat="43.516417439831926" lon="12.34767128088454"><ele>718.75</ele><time>2026-04-19T08:37:00.999Z</time></trkpt><trkpt lat="43.5162831912145" lon="12.34766452492887"><ele>716.0</ele><time>2026-04-19T08:37:01.999Z</time></trkpt><trkpt lat="43.51612910095933" lon="12.347662532650542"><ele>716.0</ele><time>2026-04-19T08:37:02.999Z</time></trkpt><trkpt lat="43.51597198853476" lon="12.347652860458192"><ele>716.0</ele><time>2026-04-19T08:37:03.999Z</time></trkpt><trkpt lat="43.51572897808675" lon="12.347646293912037"><ele>716.0</ele><time>2026-04-19T08:37:04.999Z</time></trkpt><trkpt lat="43.51545235602495" lon="12.347602458190952"><ele>718.5</ele><time>2026-04-19T08:37:05.999Z</time></trkpt><trkpt lat="43.515205501271986" lon="12.3475272232178"><ele>721.0</ele><time>2026-04-19T08:37:06.999Z</time></trkpt><trkpt lat="43.514985784775426" lon="12.347423582049728"><ele>721.0</ele><time>2026-04-19T08:37:07.999Z</time></trkpt><trkpt lat="43.5147913958216" lon="12.347418081755407"><ele>721.0</ele><time>2026-04-19T08:37:08.999Z</time></trkpt><trkpt lat="43.51454434868218" lon="12.347452790630598"><ele>721.0</ele><time>2026-04-19T08:37:09.999Z</time></trkpt><trkpt lat="43.514326204048174" lon="12.347499797300506"><ele>720.0</ele><time>2026-04-19T08:37:10.999Z</time></trkpt><trkpt lat="43.51416191118803" lon="12.347540175936231"><ele>719.0</ele><time>2026-04-19T08:37:11.999Z</time></trkpt><trkpt lat="43.51403781463175" lon="12.347641393047057"><ele>718.0</ele><time>2026-04-19T08:37:12.999Z</time></trkpt><trkpt lat="43.513971733625006" lon="12.347822004070407"><ele>718.0</ele><time>2026-04-19T08:37:13.999Z</time></trkpt><trkpt lat="43.51399651166481" lon="12.348042847268257"><ele>718.0</ele><time>2026-04-19T08:37:14.999Z</time></trkpt><trkpt lat="43.51407175513153" lon="12.348300593377568"><ele>718.0</ele><time>2026-04-19T08:37:15.999Z</time></trkpt><trkpt lat="43.51412378087275" lon="12.348528704473871"><ele>720.5</ele><time>2026-04-19T08:37:16.999Z</time></trkpt><trkpt lat="43.514090815128924" lon="12.348864667710108"><ele>723.0</ele><time>2026-04-19T08:37:17.999Z</time></trkpt><trkpt lat="43.514067018146825" lon="12.349219784548625"><ele>723.6666666666666</ele><time>2026-04-19T08:37:18.999Z</time></trkpt><trkpt lat="43.51408239133315" lon="12.349545035021034"><ele>724.3333333333333</ele><time>2026-04-19T08:37:19.999Z</time></trkpt><trkpt lat="43.51411888926391" lon="12.349796845261322"><ele>725.0</ele><time>2026-04-19T08:37:20.999Z</time></trkpt><trkpt lat="43.51408420465644" lon="12.349955499652001"><ele>724.6</ele><time>2026-04-19T08:37:21.999Z</time></trkpt><trkpt lat="43.51402577636301" lon="12.350065205474456"><ele>724.2</ele><time>2026-04-19T08:37:22.999Z</time></trkpt><trkpt lat="43.51394247878701" lon="12.350128133958544"><ele>723.8</ele><time>2026-04-19T08:37:23.999Z</time></trkpt><trkpt lat="43.513852681209364" lon="12.3501790315167"><ele>723.4</ele><time>2026-04-19T08:37:24.999Z</time></trkpt><trkpt lat="43.513718649364456" lon="12.350167399239224"><ele>723.0</ele><time>2026-04-19T08:37:25.999Z</time></trkpt><trkpt lat="43.513559511897185" lon="12.350157053974568"><ele>723.0</ele><time>2026-04-19T08:37:26.999Z</time></trkpt><trkpt lat="43.51329826323836" lon="12.35013119843455"><ele>723.0</ele><time>2026-04-19T08:37:27.999Z</time></trkpt><trkpt lat="43.51299895511768" lon="12.350072420759286"><ele>725.0</ele><time>2026-04-19T08:37:28.999Z</time></trkpt><trkpt lat="43.51277284033711" lon="12.349924639530432"><ele>727.0</ele><time>2026-04-19T08:37:29.999Z</time></trkpt><trkpt lat="43.5125915496663" lon="12.349704133129398"><ele>719.0</ele><time>2026-04-19T08:37:30.999Z</time></trkpt><trkpt lat="43.51245392884206" lon="12.349499934285179"><ele>711.0</ele><time>2026-04-19T08:37:31.999Z</time></trkpt><trkpt lat="43.512272700679105" lon="12.349247617602154"><ele>711.3333333333334</ele><time>2026-04-19T08:37:32.999Z</time></trkpt><trkpt lat="43.51205593624113" lon="12.349030758990985"><ele>711.6666666666667</ele><time>2026-04-19T08:37:33.999Z</time></trkpt><trkpt lat="43.511911281353164" lon="12.34889822211344"><ele>712.0</ele><time>2026-04-19T08:37:34.999Z</time></trkpt><trkpt lat="43.51177164939527" lon="12.34876866523602"><ele>712.0</ele><time>2026-04-19T08:37:35.999Z</time></trkpt><trkpt lat="43.511715386713085" lon="12.348651863745394"><ele>712.0</ele><time>2026-04-19T08:37:36.999Z</time></trkpt><trkpt lat="43.51157439136414" lon="12.34882767138791"><ele>712.0</ele><time>2026-04-19T08:37:37.999Z</time></trkpt><trkpt lat="43.51153846320729" lon="12.349014431783285"><ele>712.0</ele><time>2026-04-19T08:37:38.999Z</time></trkpt><trkpt lat="43.51155447330972" lon="12.349232824127826"><ele>713.5</ele><time>2026-04-19T08:37:39.999Z</time></trkpt><trkpt lat="43.51165538471411" lon="12.349517671635466"><ele>715.0</ele><time>2026-04-19T08:37:40.999Z</time></trkpt><trkpt lat="43.51180308834104" lon="12.34975260874113"><ele>715.0</ele><time>2026-04-19T08:37:41.999Z</time></trkpt><trkpt lat="43.51198629722831" lon="12.350069069673637"><ele>715.0</ele><time>2026-04-19T08:37:42.999Z</time></trkpt><trkpt lat="43.512137944522266" lon="12.350334047950163"><ele>723.0</ele><time>2026-04-19T08:37:43.998Z</time></trkpt><trkpt lat="43.51216394379257" lon="12.35059947515803"><ele>731.0</ele><time>2026-04-19T08:37:44.998Z</time></trkpt><trkpt lat="43.51215856892497" lon="12.350907422390737"><ele>739.0</ele><time>2026-04-19T08:37:45.998Z</time></trkpt><trkpt lat="43.5121394111234" lon="12.351240316090074"><ele>738.3333333333334</ele><time>2026-04-19T08:37:46.998Z</time></trkpt><trkpt lat="43.51215086974376" lon="12.351549166279806"><ele>737.6666666666666</ele><time>2026-04-19T08:37:47.998Z</time></trkpt><trkpt lat="43.512187792274254" lon="12.35178271178169"><ele>737.0</ele><time>2026-04-19T08:37:48.998Z</time></trkpt><trkpt lat="43.51232177579236" lon="12.351967973314995"><ele>737.0</ele><time>2026-04-19T08:37:49.998Z</time></trkpt><trkpt lat="43.512538772060616" lon="12.352122772249846"><ele>737.0</ele><time>2026-04-19T08:37:50.998Z</time></trkpt><trkpt lat="43.51268818843767" lon="12.352322558125893"><ele>730.0</ele><time>2026-04-19T08:37:51.998Z</time></trkpt><trkpt lat="43.51281975303931" lon="12.352632836609674"><ele>723.0</ele><time>2026-04-19T08:37:52.998Z</time></trkpt><trkpt lat="43.51291412333782" lon="12.352950823522209"><ele>727.0</ele><time>2026-04-19T08:37:53.998Z</time></trkpt><trkpt lat="43.51302084727959" lon="12.35315923639108"><ele>731.0</ele><time>2026-04-19T08:37:54.998Z</time></trkpt><trkpt lat="43.513169820495065" lon="12.353377521680844"><ele>735.0</ele><time>2026-04-19T08:37:55.998Z</time></trkpt><trkpt lat="43.51337550277884" lon="12.353513245622926"><ele>735.0</ele><time>2026-04-19T08:37:56.998Z</time></trkpt><trkpt lat="43.51365572349015" lon="12.35360514559302"><ele>735.0</ele><time>2026-04-19T08:37:57.998Z</time></trkpt><trkpt lat="43.513943765560754" lon="12.353637915232783"><ele>742.5</ele><time>2026-04-19T08:37:58.998Z</time></trkpt><trkpt lat="43.51423964960417" lon="12.353658708643174"><ele>750.0</ele><time>2026-04-19T08:37:59.998Z</time></trkpt><trkpt lat="43.514487481504474" lon="12.353695057480056"><ele>748.6666666666666</ele><time>2026-04-19T08:38:00.998Z</time></trkpt><trkpt lat="43.514669802862656" lon="12.353706070643542"><ele>747.3333333333333</ele><time>2026-04-19T08:38:01.998Z</time></trkpt><trkpt lat="43.51483147700606" lon="12.353634802091438"><ele>746.0</ele><time>2026-04-19T08:38:02.998Z</time></trkpt><trkpt lat="43.515017846650295" lon="12.353490149569495"><ele>746.0</ele><time>2026-04-19T08:38:03.998Z</time></trkpt><trkpt lat="43.51522989542556" lon="12.353330032331833"><ele>746.0</ele><time>2026-04-19T08:38:04.998Z</time></trkpt><trkpt lat="43.51543281655247" lon="12.353194376925307"><ele>745.6666666666666</ele><time>2026-04-19T08:38:05.998Z</time></trkpt><trkpt lat="43.51562678083673" lon="12.353151403358773"><ele>745.3333333333334</ele><time>2026-04-19T08:38:06.998Z</time></trkpt><trkpt lat="43.515777032355906" lon="12.353155936471635"><ele>745.0</ele><time>2026-04-19T08:38:07.998Z</time></trkpt><trkpt lat="43.515896185559484" lon="12.353241845055841"><ele>745.0</ele><time>2026-04-19T08:38:08.998Z</time></trkpt><trkpt lat="43.516008989184606" lon="12.353374335630628"><ele>745.0</ele><time>2026-04-19T08:38:09.998Z</time></trkpt><trkpt lat="43.51606619768254" lon="12.353577105944698"><ele>745.0</ele><time>2026-04-19T08:38:10.998Z</time></trkpt><trkpt lat="43.51608866920054" lon="12.353811813935065"><ele>740.3333333333334</ele><time>2026-04-19T08:38:11.998Z</time></trkpt><trkpt lat="43.516053284419534" lon="12.354049800306738"><ele>735.6666666666666</ele><time>2026-04-19T08:38:12.998Z</time></trkpt><trkpt lat="43.51600272584577" lon="12.35436117156932"><ele>731.0</ele><time>2026-04-19T08:38:13.998Z</time></trkpt><trkpt lat="43.515947594153786" lon="12.354572112401637"><ele>729.5</ele><time>2026-04-19T08:38:14.998Z</time></trkpt><trkpt lat="43.51597125173091" lon="12.354786117259133"><ele>728.0</ele><time>2026-04-19T08:38:15.998Z</time></trkpt><trkpt lat="43.51599840205635" lon="12.354981013961712"><ele>726.5</ele><time>2026-04-19T08:38:16.998Z</time></trkpt><trkpt lat="43.51600065374257" lon="12.355157604884143"><ele>725.0</ele><time>2026-04-19T08:38:17.998Z</time></trkpt><trkpt lat="43.515994941640216" lon="12.355306705774554"><ele>725.0</ele><time>2026-04-19T08:38:18.998Z</time></trkpt><trkpt lat="43.5159684366532" lon="12.355416636987465"><ele>725.0</ele><time>2026-04-19T08:38:19.998Z</time></trkpt><trkpt lat="43.51590137080053" lon="12.35551466536395"><ele>725.0</ele><time>2026-04-19T08:38:20.998Z</time></trkpt><trkpt lat="43.51583010905472" lon="12.355626689610366"><ele>725.0</ele><time>2026-04-19T08:38:22.998Z</time></trkpt><trkpt lat="43.51580189808167" lon="12.355706476457213"><ele>725.0</ele><time>2026-04-19T08:38:23.998Z</time></trkpt><trkpt lat="43.51575508221827" lon="12.355776018675312"><ele>725.0</ele><time>2026-04-19T08:38:25.998Z</time></trkpt><trkpt lat="43.515701404558925" lon="12.355863974155668"><ele>725.7142857142858</ele><time>2026-04-19T08:38:27.998Z</time></trkpt><trkpt lat="43.51562710593414" lon="12.355837323882355"><ele>726.4285714285714</ele><time>2026-04-19T08:39:06.999Z</time></trkpt><trkpt lat="43.515686692551775" lon="12.355874585929243"><ele>727.1428571428571</ele><time>2026-04-19T08:40:06.998Z</time></trkpt><trkpt lat="43.51572998037274" lon="12.355803994159526"><ele>727.8571428571429</ele><time>2026-04-19T08:40:12.998Z</time></trkpt><trkpt lat="43.515783941594016" lon="12.35573284868998"><ele>728.5714285714286</ele><time>2026-04-19T08:40:19.998Z</time></trkpt><trkpt lat="43.515825802750875" lon="12.355662331826736"><ele>729.2857142857143</ele><time>2026-04-19T08:40:25.998Z</time></trkpt><trkpt lat="43.515868948719984" lon="12.355594508716797"><ele>730.0</ele><time>2026-04-19T08:40:32.998Z</time></trkpt><trkpt lat="43.51584354144923" lon="12.355683544833532"><ele>730.0</ele><time>2026-04-19T08:44:29.999Z</time></trkpt><trkpt lat="43.5158199404132" lon="12.35576644078711"><ele>730.0</ele><time>2026-04-19T08:44:34.999Z</time></trkpt><trkpt lat="43.51578142281664" lon="12.355854515027252"><ele>730.0</ele><time>2026-04-19T08:44:42.999Z</time></trkpt><trkpt lat="43.515756927944814" lon="12.355946018029108"><ele>730.0</ele><time>2026-04-19T08:45:40Z</time></trkpt><trkpt lat="43.51567774374451" lon="12.35599776008698"><ele>730.0</ele><time>2026-04-19T08:47:35.067Z</time></trkpt><trkpt lat="43.51562460976497" lon="12.356071921018453"><ele>730.0</ele><time>2026-04-19T08:47:36.034Z</time></trkpt><trkpt lat="43.51576098006414" lon="12.355641862939692"><ele>730.0</ele><time>2026-04-19T08:49:30.019Z</time></trkpt><trkpt lat="43.51574230092338" lon="12.355954178257285"><ele>730.0</ele><time>2026-04-19T08:49:32.02Z</time></trkpt><trkpt lat="43.51580926181204" lon="12.355956458286746"><ele>730.0</ele><time>2026-04-19T08:49:33.998Z</time></trkpt><trkpt lat="43.51573960830532" lon="12.355900348288598"><ele>730.0</ele><time>2026-04-19T08:49:38.998Z</time></trkpt><trkpt lat="43.51568168429803" lon="12.35585634791675"><ele>730.0</ele><time>2026-04-19T08:50:07Z</time></trkpt><trkpt lat="43.51571255836003" lon="12.355778519989483"><ele>730.0000000000001</ele><time>2026-04-19T08:50:42Z</time></trkpt><trkpt lat="43.51564653414284" lon="12.355794509773817"><ele>730.0</ele><time>2026-04-19T08:51:02Z</time></trkpt><trkpt lat="43.51562630172007" lon="12.355884837223241"><ele>730.0</ele><time>2026-04-19T08:51:14.999Z</time></trkpt><trkpt lat="43.51556944210176" lon="12.355940617261757"><ele>730.0</ele><time>2026-04-19T08:51:23.999Z</time></trkpt><trkpt lat="43.515620384876364" lon="12.355880689791437"><ele>730.0</ele><time>2026-04-19T09:02:06.999Z</time></trkpt><trkpt lat="43.515686719312015" lon="12.35587815182545"><ele>730.0000000000001</ele><time>2026-04-19T09:03:52.999Z</time></trkpt><trkpt lat="43.515747072855326" lon="12.355816014156716"><ele>730.0</ele><time>2026-04-19T09:03:56.999Z</time></trkpt><trkpt lat="43.51580366910147" lon="12.355756812037058"><ele>730.0</ele><time>2026-04-19T09:04:00.999Z</time></trkpt><trkpt lat="43.51584653317389" lon="12.355681544120522"><ele>730.0</ele><time>2026-04-19T09:04:04.999Z</time></trkpt><trkpt lat="43.51589438300982" lon="12.355610293058609"><ele>730.0</ele><time>2026-04-19T09:06:38Z</time></trkpt><trkpt lat="43.515939078337084" lon="12.35548381691874"><ele>730.0</ele><time>2026-04-19T09:06:41Z</time></trkpt><trkpt lat="43.515960260111264" lon="12.355282732240331"><ele>730.0</ele><time>2026-04-19T09:06:43Z</time></trkpt><trkpt lat="43.51597517180257" lon="12.355161667758729"><ele>730.2</ele><time>2026-04-19T09:06:44Z</time></trkpt><trkpt lat="43.515978370346865" lon="12.355020627896101"><ele>730.4</ele><time>2026-04-19T09:06:45Z</time></trkpt><trkpt lat="43.51596143774993" lon="12.354864699815167"><ele>730.5999999999999</ele><time>2026-04-19T09:06:46Z</time></trkpt><trkpt lat="43.51593997064543" lon="12.354734154001315"><ele>730.8</ele><time>2026-04-19T09:06:47Z</time></trkpt><trkpt lat="43.51592871324644" lon="12.354631549017228"><ele>731.0</ele><time>2026-04-19T09:06:48Z</time></trkpt><trkpt lat="43.51592894344304" lon="12.354540481592188"><ele>731.0</ele><time>2026-04-19T09:06:49Z</time></trkpt><trkpt lat="43.51594351135508" lon="12.354444263905155"><ele>731.0</ele><time>2026-04-19T09:06:50Z</time></trkpt><trkpt lat="43.515970988745075" lon="12.354284766246852"><ele>731.0</ele><time>2026-04-19T09:06:51Z</time></trkpt><trkpt lat="43.51602053221555" lon="12.354086103005061"><ele>731.0</ele><time>2026-04-19T09:06:52Z</time></trkpt><trkpt lat="43.5160618805716" lon="12.353900076323038"><ele>733.8</ele><time>2026-04-19T09:06:53Z</time></trkpt><trkpt lat="43.51610327115777" lon="12.353732930903304"><ele>736.5999999999999</ele><time>2026-04-19T09:06:54Z</time></trkpt><trkpt lat="43.516087520593686" lon="12.353613606434138"><ele>739.4</ele><time>2026-04-19T09:06:55Z</time></trkpt><trkpt lat="43.516066995865806" lon="12.353497264649892"><ele>742.2</ele><time>2026-04-19T09:06:56Z</time></trkpt><trkpt lat="43.51600547681409" lon="12.353362844008345"><ele>745.0</ele><time>2026-04-19T09:06:57Z</time></trkpt><trkpt lat="43.51591090474519" lon="12.353253527236765"><ele>745.0</ele><time>2026-04-19T09:06:58Z</time></trkpt><trkpt lat="43.515799841862766" lon="12.3531735088145"><ele>745.0</ele><time>2026-04-19T09:06:59Z</time></trkpt><trkpt lat="43.51567350147306" lon="12.353143504785914"><ele>745.0</ele><time>2026-04-19T09:07:00Z</time></trkpt><trkpt lat="43.515686719312015" lon="12.35587815182545"><ele>742.5</ele><time>2026-04-19T09:03:52.999Z</time></trkpt><trkpt lat="43.515747072855326" lon="12.355816014156716"><ele>740.0</ele><time>2026-04-19T09:03:56.999Z</time></trkpt><trkpt lat="43.51580366910147" lon="12.355756812037058"><ele>737.5</ele><time>2026-04-19T09:04:00.999Z</time></trkpt><trkpt lat="43.51584653317389" lon="12.355681544120522"><ele>735.0</ele><time>2026-04-19T09:04:04.999Z</time></trkpt><trkpt lat="43.51589438300982" lon="12.355610293058609"><ele>732.5</ele><time>2026-04-19T09:06:38Z</time></trkpt><trkpt lat="43.515939078337084" lon="12.35548381691874"><ele>730.0</ele><time>2026-04-19T09:06:41Z</time></trkpt><trkpt lat="43.515960260111264" lon="12.355282732240331"><ele>730.2</ele><time>2026-04-19T09:06:43Z</time></trkpt><trkpt lat="43.51597517180257" lon="12.355161667758729"><ele>730.4</ele><time>2026-04-19T09:06:44Z</time></trkpt><trkpt lat="43.515978370346865" lon="12.355020627896101"><ele>730.5999999999999</ele><time>2026-04-19T09:06:45Z</time></trkpt><trkpt lat="43.51596143774993" lon="12.354864699815167"><ele>730.8</ele><time>2026-04-19T09:06:46Z</time></trkpt><trkpt lat="43.51593997064543" lon="12.354734154001315"><ele>731.0</ele><time>2026-04-19T09:06:47Z</time></trkpt><trkpt lat="43.51592871324644" lon="12.354631549017228"><ele>731.0</ele><time>2026-04-19T09:06:48Z</time></trkpt><trkpt lat="43.51592894344304" lon="12.354540481592188"><ele>731.0</ele><time>2026-04-19T09:06:49Z</time></trkpt><trkpt lat="43.51594351135508" lon="12.354444263905155"><ele>731.0</ele><time>2026-04-19T09:06:50Z</time></trkpt><trkpt lat="43.515970988745075" lon="12.354284766246852"><ele>731.0</ele><time>2026-04-19T09:06:51Z</time></trkpt><trkpt lat="43.51602053221555" lon="12.354086103005061"><ele>731.0</ele><time>2026-04-19T09:06:52Z</time></trkpt><trkpt lat="43.5160618805716" lon="12.353900076323038"><ele>733.8</ele><time>2026-04-19T09:06:53Z</time></trkpt><trkpt lat="43.51610327115777" lon="12.353732930903304"><ele>736.5999999999999</ele><time>2026-04-19T09:06:54Z</time></trkpt><trkpt lat="43.516087520593686" lon="12.353613606434138"><ele>739.4</ele><time>2026-04-19T09:06:55Z</time></trkpt><trkpt lat="43.516066995865806" lon="12.353497264649892"><ele>742.2</ele><time>2026-04-19T09:06:56Z</time></trkpt><trkpt lat="43.51600547681409" lon="12.353362844008345"><ele>745.0</ele><time>2026-04-19T09:06:57Z</time></trkpt><trkpt lat="43.51591090474519" lon="12.353253527236765"><ele>745.0</ele><time>2026-04-19T09:06:58Z</time></trkpt><trkpt lat="43.515799841862766" lon="12.3531735088145"><ele>745.0</ele><time>2026-04-19T09:06:59Z</time></trkpt><trkpt lat="43.51567350147306" lon="12.353143504785914"><ele>745.0</ele><time>2026-04-19T09:07:00Z</time></trkpt><trkpt lat="43.51555159797608" lon="12.353163372417324"><ele>745.0</ele><time>2026-04-19T09:07:01Z</time></trkpt><trkpt lat="43.51541937145393" lon="12.35321229021311"><ele>745.3333333333334</ele><time>2026-04-19T09:07:02Z</time></trkpt><trkpt lat="43.515247970183914" lon="12.353309242716636"><ele>745.6666666666666</ele><time>2026-04-19T09:07:03Z</time></trkpt><trkpt lat="43.51504566053382" lon="12.35342782193069"><ele>746.0</ele><time>2026-04-19T09:07:04Z</time></trkpt><trkpt lat="43.51487435054418" lon="12.35352416258517"><ele>746.0</ele><time>2026-04-19T09:07:05Z</time></trkpt><trkpt lat="43.51472273570079" lon="12.35360552385318"><ele>746.0</ele><time>2026-04-19T09:07:06Z</time></trkpt><trkpt lat="43.51455942075951" lon="12.353654137968475"><ele>746.0</ele><time>2026-04-19T09:07:07Z</time></trkpt><trkpt lat="43.5143576712052" lon="12.353673075586329"><ele>748.0</ele><time>2026-04-19T09:07:08Z</time></trkpt><trkpt lat="43.514111614474835" lon="12.35364226518715"><ele>750.0</ele><time>2026-04-19T09:07:09Z</time></trkpt><trkpt lat="43.513873483114" lon="12.353610621275386"><ele>745.0</ele><time>2026-04-19T09:07:10Z</time></trkpt><trkpt lat="43.51367125491946" lon="12.35357206893028"><ele>740.0</ele><time>2026-04-19T09:07:11Z</time></trkpt><trkpt lat="43.51346130959855" lon="12.353506828851621"><ele>735.0</ele><time>2026-04-19T09:07:12Z</time></trkpt><trkpt lat="43.51326395138727" lon="12.35339894013781"><ele>735.0</ele><time>2026-04-19T09:07:13Z</time></trkpt><trkpt lat="43.513120485812316" lon="12.3532982314915"><ele>735.0</ele><time>2026-04-19T09:07:14Z</time></trkpt><trkpt lat="43.51299247111528" lon="12.353165362141459"><ele>735.0</ele><time>2026-04-19T09:07:15Z</time></trkpt><trkpt lat="43.51289382328762" lon="12.352939445385587"><ele>731.0</ele><time>2026-04-19T09:07:16Z</time></trkpt><trkpt lat="43.5128389099968" lon="12.35266235640205"><ele>727.0</ele><time>2026-04-19T09:07:17Z</time></trkpt><trkpt lat="43.51276027676207" lon="12.352407171022353"><ele>723.0</ele><time>2026-04-19T09:07:18Z</time></trkpt><trkpt lat="43.51265708136391" lon="12.352208811387"><ele>727.6666666666666</ele><time>2026-04-19T09:07:19Z</time></trkpt><trkpt lat="43.5124983467482" lon="12.352019234554028"><ele>732.3333333333333</ele><time>2026-04-19T09:07:20Z</time></trkpt><trkpt lat="43.51234341241643" lon="12.351860070282404"><ele>737.0</ele><time>2026-04-19T09:07:21Z</time></trkpt><trkpt lat="43.512252636438475" lon="12.351639795161535"><ele>737.0</ele><time>2026-04-19T09:07:22Z</time></trkpt><trkpt lat="43.51220946190088" lon="12.351385400646457"><ele>737.0</ele><time>2026-04-19T09:07:23Z</time></trkpt><trkpt lat="43.512204042962246" lon="12.351051361223742"><ele>737.0</ele><time>2026-04-19T09:07:24Z</time></trkpt><trkpt lat="43.51225695881825" lon="12.35074087252568"><ele>733.6666666666666</ele><time>2026-04-19T09:07:25Z</time></trkpt><trkpt lat="43.51223397294277" lon="12.350457293341009"><ele>730.3333333333334</ele><time>2026-04-19T09:07:26Z</time></trkpt><trkpt lat="43.512180897810055" lon="12.350221372583563"><ele>727.0</ele><time>2026-04-19T09:07:27Z</time></trkpt><trkpt lat="43.512072356128414" lon="12.35001107404825"><ele>724.6666666666667</ele><time>2026-04-19T09:07:28Z</time></trkpt><trkpt lat="43.51191943313492" lon="12.349803794060286"><ele>722.3333333333334</ele><time>2026-04-19T09:07:29Z</time></trkpt><trkpt lat="43.51178479056939" lon="12.349580231617999"><ele>720.0</ele><time>2026-04-19T09:07:30Z</time></trkpt><trkpt lat="43.51168443142111" lon="12.349377194415359"><ele>720.0</ele><time>2026-04-19T09:07:31Z</time></trkpt><trkpt lat="43.51161890688227" lon="12.349156770864225"><ele>720.0</ele><time>2026-04-19T09:07:32Z</time></trkpt><trkpt lat="43.51161329072319" lon="12.348922611633446"><ele>720.0</ele><time>2026-04-19T09:07:33Z</time></trkpt><trkpt lat="43.51170991560837" lon="12.34880021770922"><ele>720.0</ele><time>2026-04-19T09:07:35Z</time></trkpt><trkpt lat="43.511818535084686" lon="12.348801964532557"><ele>720.0</ele><time>2026-04-19T09:07:36Z</time></trkpt><trkpt lat="43.51190857106854" lon="12.348920536418023"><ele>720.0</ele><time>2026-04-19T09:07:37Z</time></trkpt><trkpt lat="43.5120568119386" lon="12.349084684831544"><ele>720.0</ele><time>2026-04-19T09:07:38Z</time></trkpt><trkpt lat="43.51223453786847" lon="12.349292439622307"><ele>723.5</ele><time>2026-04-19T09:07:39Z</time></trkpt><trkpt lat="43.51240140848181" lon="12.349490120337894"><ele>727.0</ele><time>2026-04-19T09:07:40Z</time></trkpt><trkpt lat="43.51256866573469" lon="12.349737506225841"><ele>727.0</ele><time>2026-04-19T09:07:41Z</time></trkpt><trkpt lat="43.51270850228088" lon="12.349949398137856"><ele>727.0</ele><time>2026-04-19T09:07:42Z</time></trkpt><trkpt lat="43.5128308597729" lon="12.350074837623144"><ele>727.0</ele><time>2026-04-19T09:07:43Z</time></trkpt><trkpt lat="43.512998091058705" lon="12.350160700974664"><ele>725.6666666666667</ele><time>2026-04-19T09:07:44Z</time></trkpt><trkpt lat="43.513170688377" lon="12.350212523790415"><ele>724.3333333333334</ele><time>2026-04-19T09:07:45Z</time></trkpt><trkpt lat="43.51338753747244" lon="12.350236803456538"><ele>723.0</ele><time>2026-04-19T09:07:46Z</time></trkpt><trkpt lat="43.51362538591908" lon="12.350244317705803"><ele>726.25</ele><time>2026-04-19T09:07:47Z</time></trkpt><trkpt lat="43.5137871680734" lon="12.350236845780895"><ele>729.5</ele><time>2026-04-19T09:07:48Z</time></trkpt><trkpt lat="43.51392853965979" lon="12.350218546139502"><ele>732.75</ele><time>2026-04-19T09:07:49Z</time></trkpt><trkpt lat="43.51401949289775" lon="12.350159849278667"><ele>736.0</ele><time>2026-04-19T09:07:50Z</time></trkpt><trkpt lat="43.51408428465009" lon="12.350046492681674"><ele>736.0</ele><time>2026-04-19T09:07:51Z</time></trkpt><trkpt lat="43.51416484919456" lon="12.349874597535912"><ele>736.0</ele><time>2026-04-19T09:07:52Z</time></trkpt><trkpt lat="43.51416113565153" lon="12.349592295792885"><ele>736.0</ele><time>2026-04-19T09:07:53Z</time></trkpt><trkpt lat="43.514098965811804" lon="12.34925263005351"><ele>732.3333333333334</ele><time>2026-04-19T09:07:53.999Z</time></trkpt><trkpt lat="43.51405634823076" lon="12.348942161544985"><ele>728.6666666666666</ele><time>2026-04-19T09:07:54.999Z</time></trkpt><trkpt lat="43.51406462459609" lon="12.348649603364462"><ele>725.0</ele><time>2026-04-19T09:07:55.999Z</time></trkpt><trkpt lat="43.514094991755535" lon="12.348363726335544"><ele>724.5</ele><time>2026-04-19T09:07:56.999Z</time></trkpt><trkpt lat="43.514081051532045" lon="12.348154609481664"><ele>724.0</ele><time>2026-04-19T09:07:57.999Z</time></trkpt><trkpt lat="43.51405323673313" lon="12.347912706566499"><ele>723.5</ele><time>2026-04-19T09:07:58.999Z</time></trkpt><trkpt lat="43.514056131167024" lon="12.347752121266682"><ele>723.0</ele><time>2026-04-19T09:07:59.999Z</time></trkpt><trkpt lat="43.51411094980006" lon="12.347653432613606"><ele>722.5</ele><time>2026-04-19T09:08:00.999Z</time></trkpt><trkpt lat="43.514176027313304" lon="12.347623069032643"><ele>722.0</ele><time>2026-04-19T09:08:01.999Z</time></trkpt><trkpt lat="43.51432208133454" lon="12.347596905143773"><ele>721.5</ele><time>2026-04-19T09:08:02.999Z</time></trkpt><trkpt lat="43.51455116621813" lon="12.347560440161406"><ele>721.0</ele><time>2026-04-19T09:08:03.999Z</time></trkpt><trkpt lat="43.514777109623324" lon="12.347515164479145"><ele>721.0</ele><time>2026-04-19T09:08:04.999Z</time></trkpt><trkpt lat="43.51500551077795" lon="12.34749634935469"><ele>721.0</ele><time>2026-04-19T09:08:05.999Z</time></trkpt><trkpt lat="43.515202983858934" lon="12.347567071838283"><ele>721.0</ele><time>2026-04-19T09:08:06.999Z</time></trkpt><trkpt lat="43.51542704297666" lon="12.347656649259063"><ele>718.5</ele><time>2026-04-19T09:08:07.999Z</time></trkpt><trkpt lat="43.51567089401531" lon="12.347689012065466"><ele>716.0</ele><time>2026-04-19T09:08:08.999Z</time></trkpt><trkpt lat="43.515884443458354" lon="12.347709694293664"><ele>716.0</ele><time>2026-04-19T09:08:09.999Z</time></trkpt><trkpt lat="43.516071393954334" lon="12.347731355401685"><ele>716.0</ele><time>2026-04-19T09:08:10.999Z</time></trkpt><trkpt lat="43.51624348134788" lon="12.347764130756305"><ele>716.0</ele><time>2026-04-19T09:08:11.999Z</time></trkpt><trkpt lat="43.51638339176572" lon="12.347765943508183"><ele>713.25</ele><time>2026-04-19T09:08:12.999Z</time></trkpt><trkpt lat="43.5165218435079" lon="12.347831325544146"><ele>710.5</ele><time>2026-04-19T09:08:13.999Z</time></trkpt><trkpt lat="43.516614375367936" lon="12.347925291121905"><ele>707.75</ele><time>2026-04-19T09:08:14.999Z</time></trkpt><trkpt lat="43.51666512977762" lon="12.3481056945729"><ele>705.0</ele><time>2026-04-19T09:08:15.999Z</time></trkpt><trkpt lat="43.51675987406541" lon="12.348333020489322"><ele>709.0</ele><time>2026-04-19T09:08:16.999Z</time></trkpt><trkpt lat="43.51687281247105" lon="12.348541511422612"><ele>713.0</ele><time>2026-04-19T09:08:17.999Z</time></trkpt><trkpt lat="43.516984099728646" lon="12.348695158413825"><ele>717.0</ele><time>2026-04-19T09:08:18.999Z</time></trkpt><trkpt lat="43.5171119386434" lon="12.348757534053002"><ele>717.0</ele><time>2026-04-19T09:08:19.999Z</time></trkpt><trkpt lat="43.517259927055235" lon="12.348718169639401"><ele>717.0</ele><time>2026-04-19T09:08:20.999Z</time></trkpt><trkpt lat="43.51742344270664" lon="12.348608428767498"><ele>717.0</ele><time>2026-04-19T09:08:21.999Z</time></trkpt><trkpt lat="43.517605335359264" lon="12.348448569007422"><ele>717.0</ele><time>2026-04-19T09:08:22.999Z</time></trkpt><trkpt lat="43.5177369791367" lon="12.348280970153692"><ele>717.0</ele><time>2026-04-19T09:08:23.999Z</time></trkpt><trkpt lat="43.517819000929315" lon="12.348078936251959"><ele>717.0</ele><time>2026-04-19T09:08:24.999Z</time></trkpt><trkpt lat="43.51786361516107" lon="12.347853132826929"><ele>718.3333333333334</ele><time>2026-04-19T09:08:25.999Z</time></trkpt><trkpt lat="43.517867155918445" lon="12.347593369573858"><ele>719.6666666666667</ele><time>2026-04-19T09:08:26.999Z</time></trkpt><trkpt lat="43.51789962756319" lon="12.347393614417182"><ele>721.0</ele><time>2026-04-19T09:08:27.999Z</time></trkpt><trkpt lat="43.51798514293949" lon="12.347233178880751"><ele>715.0</ele><time>2026-04-19T09:08:28.999Z</time></trkpt><trkpt lat="43.518119039279945" lon="12.347118132260684"><ele>709.0</ele><time>2026-04-19T09:08:29.999Z</time></trkpt><trkpt lat="43.518297685886644" lon="12.346961940092312"><ele>703.0</ele><time>2026-04-19T09:08:30.999Z</time></trkpt><trkpt lat="43.518488061636944" lon="12.346820882082222"><ele>703.0</ele><time>2026-04-19T09:08:31.999Z</time></trkpt><trkpt lat="43.5186963635613" lon="12.346643903484628"><ele>703.0</ele><time>2026-04-19T09:08:33Z</time></trkpt><trkpt lat="43.51888253017432" lon="12.346491325757633"><ele>708.5</ele><time>2026-04-19T09:08:34Z</time></trkpt><trkpt lat="43.519020542604245" lon="12.346378971925006"><ele>714.0</ele><time>2026-04-19T09:08:35Z</time></trkpt><trkpt lat="43.519104795701814" lon="12.346238746941605"><ele>719.5</ele><time>2026-04-19T09:08:36Z</time></trkpt><trkpt lat="43.5191152779321" lon="12.346073424554831"><ele>725.0</ele><time>2026-04-19T09:08:37Z</time></trkpt><trkpt lat="43.519064389421395" lon="12.34581744434894"><ele>725.0</ele><time>2026-04-19T09:08:38Z</time></trkpt><trkpt lat="43.51893676535243" lon="12.345583470206941"><ele>725.0</ele><time>2026-04-19T09:08:39Z</time></trkpt><trkpt lat="43.51881196779519" lon="12.345273969075892"><ele>709.0</ele><time>2026-04-19T09:08:40Z</time></trkpt><trkpt lat="43.51868084957624" lon="12.344930874969542"><ele>693.0</ele><time>2026-04-19T09:08:41Z</time></trkpt><trkpt lat="43.51861131473681" lon="12.344661451884292"><ele>693.0</ele><time>2026-04-19T09:08:42Z</time></trkpt><trkpt lat="43.51858746255758" lon="12.344433462606029"><ele>693.0</ele><time>2026-04-19T09:08:43Z</time></trkpt><trkpt lat="43.51858570653792" lon="12.344194370949968"><ele>693.0</ele><time>2026-04-19T09:08:44Z</time></trkpt><trkpt lat="43.51862176241339" lon="12.343993690803002"><ele>693.6666666666666</ele><time>2026-04-19T09:08:45Z</time></trkpt><trkpt lat="43.51869603433131" lon="12.343748496169827"><ele>694.3333333333333</ele><time>2026-04-19T09:08:46Z</time></trkpt><trkpt lat="43.51876128853312" lon="12.343514132600946"><ele>695.0</ele><time>2026-04-19T09:08:47Z</time></trkpt><trkpt lat="43.518755379262394" lon="12.343293507583816"><ele>695.0</ele><time>2026-04-19T09:08:48Z</time></trkpt><trkpt lat="43.51866195331097" lon="12.34307018010707"><ele>695.0</ele><time>2026-04-19T09:08:49Z</time></trkpt><trkpt lat="43.51853177295793" lon="12.342875454198284"><ele>695.0</ele><time>2026-04-19T09:08:50Z</time></trkpt><trkpt lat="43.51852869232602" lon="12.342636315997746"><ele>694.3333333333333</ele><time>2026-04-19T09:08:51Z</time></trkpt><trkpt lat="43.51854694841086" lon="12.342407135229497"><ele>693.6666666666666</ele><time>2026-04-19T09:08:52Z</time></trkpt><trkpt lat="43.51859225900191" lon="12.342205281210017"><ele>693.0</ele><time>2026-04-19T09:08:53Z</time></trkpt><trkpt lat="43.51871583882722" lon="12.342031719461064"><ele>700.0</ele><time>2026-04-19T09:08:54Z</time></trkpt><trkpt lat="43.518882580783085" lon="12.341782198828668"><ele>707.0</ele><time>2026-04-19T09:08:55Z</time></trkpt><trkpt lat="43.5189919061209" lon="12.341607081886488"><ele>714.0</ele><time>2026-04-19T09:08:56Z</time></trkpt><trkpt lat="43.5190723192607" lon="12.341400920971155"><ele>715.3333333333334</ele><time>2026-04-19T09:08:57Z</time></trkpt><trkpt lat="43.51907213880954" lon="12.34119823847328"><ele>716.6666666666667</ele><time>2026-04-19T09:08:58Z</time></trkpt><trkpt lat="43.51898859476623" lon="12.34096818630846"><ele>718.0</ele><time>2026-04-19T09:08:59Z</time></trkpt><trkpt lat="43.51886606211998" lon="12.34074954483625"><ele>724.5</ele><time>2026-04-19T09:09:00Z</time></trkpt><trkpt lat="43.518648992553686" lon="12.340568252388502"><ele>731.0</ele><time>2026-04-19T09:09:01Z</time></trkpt><trkpt lat="43.51841307831651" lon="12.340412395937701"><ele>731.0</ele><time>2026-04-19T09:09:02Z</time></trkpt><trkpt lat="43.51817410105576" lon="12.340288586999172"><ele>731.0</ele><time>2026-04-19T09:09:03Z</time></trkpt><trkpt lat="43.51790624147886" lon="12.340205944506984"><ele>728.0</ele><time>2026-04-19T09:09:04Z</time></trkpt><trkpt lat="43.51766403141923" lon="12.34019483432678"><ele>725.0</ele><time>2026-04-19T09:09:05Z</time></trkpt><trkpt lat="43.51750011175828" lon="12.340244735216656"><ele>722.0</ele><time>2026-04-19T09:09:06Z</time></trkpt><trkpt lat="43.51730034233705" lon="12.340292600289164"><ele>722.0</ele><time>2026-04-19T09:09:07Z</time></trkpt><trkpt lat="43.517098439332884" lon="12.340244376060394"><ele>722.0</ele><time>2026-04-19T09:09:08Z</time></trkpt><trkpt lat="43.51691188863662" lon="12.340159719235356"><ele>722.0</ele><time>2026-04-19T09:09:09Z</time></trkpt><trkpt lat="43.51671930544818" lon="12.340054331426272"><ele>714.5</ele><time>2026-04-19T09:09:10Z</time></trkpt><trkpt lat="43.5164920993748" lon="12.339929092897195"><ele>707.0</ele><time>2026-04-19T09:09:11Z</time></trkpt><trkpt lat="43.51620936549544" lon="12.339773110090784"><ele>705.0</ele><time>2026-04-19T09:09:12Z</time></trkpt><trkpt lat="43.51600068874107" lon="12.33967154068437"><ele>703.0</ele><time>2026-04-19T09:09:13Z</time></trkpt><trkpt lat="43.51582172885564" lon="12.339549928311959"><ele>701.0</ele><time>2026-04-19T09:09:14Z</time></trkpt><trkpt lat="43.515711278297104" lon="12.339435829795883"><ele>701.0</ele><time>2026-04-19T09:09:15Z</time></trkpt><trkpt lat="43.51565270033963" lon="12.339321851293358"><ele>701.0</ele><time>2026-04-19T09:09:16Z</time></trkpt><trkpt lat="43.51560775910761" lon="12.33911359097695"><ele>701.0</ele><time>2026-04-19T09:09:17Z</time></trkpt><trkpt lat="43.515620125344064" lon="12.338918965238443"><ele>701.0</ele><time>2026-04-19T09:09:18Z</time></trkpt><trkpt lat="43.51569358801073" lon="12.338705454092041"><ele>702.6666666666666</ele><time>2026-04-19T09:09:19Z</time></trkpt><trkpt lat="43.515815878892305" lon="12.338521519616773"><ele>704.3333333333334</ele><time>2026-04-19T09:09:20Z</time></trkpt><trkpt lat="43.51605313749942" lon="12.338385513958764"><ele>706.0</ele><time>2026-04-19T09:09:21Z</time></trkpt><trkpt lat="43.51629013031376" lon="12.338223184826836"><ele>706.0</ele><time>2026-04-19T09:09:22Z</time></trkpt><trkpt lat="43.51651586693978" lon="12.338069752667968"><ele>706.0</ele><time>2026-04-19T09:09:23Z</time></trkpt><trkpt lat="43.516772305324444" lon="12.337893574616102"><ele>706.0</ele><time>2026-04-19T09:09:24Z</time></trkpt><trkpt lat="43.51703426921133" lon="12.337695353133926"><ele>706.0</ele><time>2026-04-19T09:09:25Z</time></trkpt><trkpt lat="43.51723212930398" lon="12.337507580302622"><ele>706.0</ele><time>2026-04-19T09:09:26Z</time></trkpt><trkpt lat="43.517426413257226" lon="12.337274417703027"><ele>706.0</ele><time>2026-04-19T09:09:27Z</time></trkpt><trkpt lat="43.51761170774271" lon="12.337065803919334"><ele>706.6666666666667</ele><time>2026-04-19T09:09:28Z</time></trkpt><trkpt lat="43.5177709274904" lon="12.336889976149218"><ele>707.3333333333334</ele><time>2026-04-19T09:09:29Z</time></trkpt><trkpt lat="43.517914740762514" lon="12.336700034017603"><ele>708.0</ele><time>2026-04-19T09:09:30Z</time></trkpt><trkpt lat="43.518005391721594" lon="12.336484821606401"><ele>705.5</ele><time>2026-04-19T09:09:31Z</time></trkpt><trkpt lat="43.518048448205846" lon="12.336177676317615"><ele>703.0</ele><time>2026-04-19T09:09:32Z</time></trkpt><trkpt lat="43.51804230714797" lon="12.335861659555462"><ele>703.0</ele><time>2026-04-19T09:09:33Z</time></trkpt><trkpt lat="43.51801061451377" lon="12.335578720637944"><ele>703.0</ele><time>2026-04-19T09:09:34Z</time></trkpt><trkpt lat="43.5179345631646" lon="12.33534117661559"><ele>703.0</ele><time>2026-04-19T09:09:35Z</time></trkpt><trkpt lat="43.51779645779724" lon="12.335152813377807"><ele>698.0</ele><time>2026-04-19T09:09:36Z</time></trkpt><trkpt lat="43.51758077067441" lon="12.335012300086623"><ele>693.0</ele><time>2026-04-19T09:09:37Z</time></trkpt><trkpt lat="43.51733969526758" lon="12.334949330127312"><ele>686.5</ele><time>2026-04-19T09:09:38Z</time></trkpt><trkpt lat="43.51704964450684" lon="12.33483305467379"><ele>680.0</ele><time>2026-04-19T09:09:39Z</time></trkpt><trkpt lat="43.516731696351805" lon="12.334690194695979"><ele>685.0</ele><time>2026-04-19T09:09:40Z</time></trkpt><trkpt lat="43.51639486657531" lon="12.33458399099266"><ele>690.0</ele><time>2026-04-19T09:09:41Z</time></trkpt><trkpt lat="43.51610282932709" lon="12.334503557301732"><ele>690.0</ele><time>2026-04-19T09:09:42Z</time></trkpt><trkpt lat="43.515873160863165" lon="12.334449508344758"><ele>690.0</ele><time>2026-04-19T09:09:43Z</time></trkpt><trkpt lat="43.51568131040371" lon="12.334406742098418"><ele>690.0</ele><time>2026-04-19T09:09:44Z</time></trkpt><trkpt lat="43.51553374756817" lon="12.334333150159246"><ele>690.0</ele><time>2026-04-19T09:09:45Z</time></trkpt><trkpt lat="43.51546034160747" lon="12.33428043202847"><ele>690.0</ele><time>2026-04-19T09:09:46Z</time></trkpt><trkpt lat="43.51536439219825" lon="12.33416062102744"><ele>690.0</ele><time>2026-04-19T09:09:47Z</time></trkpt><trkpt lat="43.51530817364718" lon="12.334011942185473"><ele>690.0</ele><time>2026-04-19T09:09:48Z</time></trkpt><trkpt lat="43.515340549432345" lon="12.333827547608067"><ele>690.3333333333334</ele><time>2026-04-19T09:09:49Z</time></trkpt><trkpt lat="43.51540026969077" lon="12.333697824672472"><ele>690.6666666666667</ele><time>2026-04-19T09:09:50Z</time></trkpt><trkpt lat="43.5155657281686" lon="12.333529894150368"><ele>691.0</ele><time>2026-04-19T09:09:51Z</time></trkpt><trkpt lat="43.515730948308274" lon="12.333354350563045"><ele>691.0</ele><time>2026-04-19T09:09:52Z</time></trkpt><trkpt lat="43.51587544802413" lon="12.333199951376463"><ele>691.0</ele><time>2026-04-19T09:09:53Z</time></trkpt><trkpt lat="43.51588075638646" lon="12.333007420917713"><ele>691.0</ele><time>2026-04-19T09:09:54Z</time></trkpt><trkpt lat="43.51580167486796" lon="12.332772875794864"><ele>696.5</ele><time>2026-04-19T09:09:55Z</time></trkpt><trkpt lat="43.51562605672564" lon="12.332519994171678"><ele>702.0</ele><time>2026-04-19T09:09:56Z</time></trkpt><trkpt lat="43.515428093236466" lon="12.332263597829181"><ele>697.6666666666666</ele><time>2026-04-19T09:09:56.999Z</time></trkpt><trkpt lat="43.51530269535535" lon="12.332005935324107"><ele>693.3333333333333</ele><time>2026-04-19T09:09:57.999Z</time></trkpt><trkpt lat="43.515174368417604" lon="12.331756589332478"><ele>689.0</ele><time>2026-04-19T09:09:58.999Z</time></trkpt><trkpt lat="43.51506180054939" lon="12.331551232028767"><ele>689.0</ele><time>2026-04-19T09:09:59.999Z</time></trkpt><trkpt lat="43.51498254620587" lon="12.331400030572423"><ele>689.0</ele><time>2026-04-19T09:10:00.999Z</time></trkpt><trkpt lat="43.514856976001944" lon="12.331264438740126"><ele>689.0</ele><time>2026-04-19T09:10:01.999Z</time></trkpt><trkpt lat="43.51466011387143" lon="12.331276482596733"><ele>684.3333333333333</ele><time>2026-04-19T09:10:02.999Z</time></trkpt><trkpt lat="43.514468824061915" lon="12.331407295886061"><ele>679.6666666666666</ele><time>2026-04-19T09:10:03.999Z</time></trkpt><trkpt lat="43.51428926142998" lon="12.331568025658157"><ele>675.0</ele><time>2026-04-19T09:10:04.999Z</time></trkpt><trkpt lat="43.51414119495758" lon="12.331632181120574"><ele>675.0</ele><time>2026-04-19T09:10:05.999Z</time></trkpt><trkpt lat="43.51399975859111" lon="12.331644222865037"><ele>675.0</ele><time>2026-04-19T09:10:06.999Z</time></trkpt><trkpt lat="43.51389457023604" lon="12.331637471187218"><ele>675.0</ele><time>2026-04-19T09:10:07.999Z</time></trkpt><trkpt lat="43.51375817201067" lon="12.33152717267496"><ele>675.0</ele><time>2026-04-19T09:10:08.999Z</time></trkpt><trkpt lat="43.51372702206605" lon="12.331375137372865"><ele>673.0</ele><time>2026-04-19T09:10:09.999Z</time></trkpt><trkpt lat="43.5137300713572" lon="12.33117296576211"><ele>671.0</ele><time>2026-04-19T09:10:10.999Z</time></trkpt><trkpt lat="43.513720873575224" lon="12.330904467173411"><ele>669.0</ele><time>2026-04-19T09:10:11.999Z</time></trkpt><trkpt lat="43.51364029378932" lon="12.330654727575014"><ele>674.0</ele><time>2026-04-19T09:10:12.999Z</time></trkpt><trkpt lat="43.51350149172324" lon="12.330508108747994"><ele>679.0</ele><time>2026-04-19T09:10:13.999Z</time></trkpt><trkpt lat="43.51331230368574" lon="12.330441299968703"><ele>684.0</ele><time>2026-04-19T09:10:14.999Z</time></trkpt><trkpt lat="43.51309161232584" lon="12.330419143181611"><ele>676.6666666666666</ele><time>2026-04-19T09:10:15.999Z</time></trkpt><trkpt lat="43.512890227240256" lon="12.330408858174941"><ele>669.3333333333333</ele><time>2026-04-19T09:10:16.999Z</time></trkpt><trkpt lat="43.51273911826169" lon="12.330347114735513"><ele>662.0</ele><time>2026-04-19T09:10:17.999Z</time></trkpt><trkpt lat="43.51264223455269" lon="12.330282652972183"><ele>662.0</ele><time>2026-04-19T09:10:18.999Z</time></trkpt><trkpt lat="43.51260863070184" lon="12.330139860936965"><ele>662.0</ele><time>2026-04-19T09:10:19.999Z</time></trkpt><trkpt lat="43.5126168183697" lon="12.329975532541852"><ele>662.0</ele><time>2026-04-19T09:10:20.999Z</time></trkpt><trkpt lat="43.512639162240774" lon="12.329715508723893"><ele>662.0</ele><time>2026-04-19T09:10:21.999Z</time></trkpt><trkpt lat="43.5126419928605" lon="12.329440749275797"><ele>664.3333333333333</ele><time>2026-04-19T09:10:22.999Z</time></trkpt><trkpt lat="43.51257353332675" lon="12.329169729023908"><ele>666.6666666666666</ele><time>2026-04-19T09:10:23.999Z</time></trkpt><trkpt lat="43.51244440352456" lon="12.328968107955307"><ele>669.0</ele><time>2026-04-19T09:10:24.999Z</time></trkpt><trkpt lat="43.51221664926319" lon="12.32881978322079"><ele>673.0</ele><time>2026-04-19T09:10:25.999Z</time></trkpt><trkpt lat="43.51195581780759" lon="12.328784779824147"><ele>677.0</ele><time>2026-04-19T09:10:26.999Z</time></trkpt><trkpt lat="43.511708231335255" lon="12.328720356802373"><ele>677.0</ele><time>2026-04-19T09:10:27.999Z</time></trkpt><trkpt lat="43.51144822768377" lon="12.328641754160978"><ele>677.0</ele><time>2026-04-19T09:10:28.999Z</time></trkpt><trkpt lat="43.51122738008201" lon="12.32857607813444"><ele>672.6666666666666</ele><time>2026-04-19T09:10:29.999Z</time></trkpt><trkpt lat="43.51103072698267" lon="12.328513941692032"><ele>668.3333333333334</ele><time>2026-04-19T09:10:30.999Z</time></trkpt><trkpt lat="43.51082437246906" lon="12.328443608200335"><ele>664.0</ele><time>2026-04-19T09:10:31.999Z</time></trkpt><trkpt lat="43.51063342649085" lon="12.328384011596684"><ele>664.0</ele><time>2026-04-19T09:10:32.999Z</time></trkpt><trkpt lat="43.5104626440072" lon="12.32836973566019"><ele>664.0</ele><time>2026-04-19T09:10:33.999Z</time></trkpt><trkpt lat="43.51032135100439" lon="12.328316567240186"><ele>664.0</ele><time>2026-04-19T09:10:34.999Z</time></trkpt><trkpt lat="43.510117070913054" lon="12.328650292730348"><ele>663.5</ele><time>2026-04-19T09:10:35.999Z</time></trkpt><trkpt lat="43.50991794714136" lon="12.328843295839375"><ele>663.0</ele><time>2026-04-19T09:10:36.999Z</time></trkpt><trkpt lat="43.50971873562872" lon="12.329013641250834"><ele>664.0</ele><time>2026-04-19T09:10:37.999Z</time></trkpt><trkpt lat="43.50952807694245" lon="12.329174574218722"><ele>665.0</ele><time>2026-04-19T09:10:39Z</time></trkpt><trkpt lat="43.50939949924071" lon="12.329276737115288"><ele>666.0</ele><time>2026-04-19T09:10:40Z</time></trkpt><trkpt lat="43.50922469714704" lon="12.329299659832516"><ele>666.0</ele><time>2026-04-19T09:10:41Z</time></trkpt><trkpt lat="43.50906862923271" lon="12.329258261349795"><ele>666.0</ele><time>2026-04-19T09:10:42Z</time></trkpt><trkpt lat="43.50890486783804" lon="12.329138554972793"><ele>666.0</ele><time>2026-04-19T09:10:43Z</time></trkpt><trkpt lat="43.508765804984236" lon="12.328984064082679"><ele>662.3333333333334</ele><time>2026-04-19T09:10:44Z</time></trkpt><trkpt lat="43.50867194435156" lon="12.328711021576478"><ele>658.6666666666667</ele><time>2026-04-19T09:10:45Z</time></trkpt><trkpt lat="43.50862612841709" lon="12.32843320280649"><ele>655.0</ele><time>2026-04-19T09:10:46Z</time></trkpt><trkpt lat="43.50861414935571" lon="12.328181414455667"><ele>654.0</ele><time>2026-04-19T09:10:47Z</time></trkpt><trkpt lat="43.50867933613522" lon="12.327913553680549"><ele>653.0</ele><time>2026-04-19T09:10:48Z</time></trkpt><trkpt lat="43.508869338079535" lon="12.327664932925105"><ele>653.0</ele><time>2026-04-19T09:10:49Z</time></trkpt><trkpt lat="43.50904994324626" lon="12.327564172282996"><ele>653.0</ele><time>2026-04-19T09:10:50Z</time></trkpt><trkpt lat="43.509256734623584" lon="12.327537667700494"><ele>653.0</ele><time>2026-04-19T09:10:51Z</time></trkpt><trkpt lat="43.509457052441256" lon="12.327496858257197"><ele>656.0</ele><time>2026-04-19T09:10:52Z</time></trkpt><trkpt lat="43.509740028784464" lon="12.327550435707185"><ele>659.0</ele><time>2026-04-19T09:10:53Z</time></trkpt><trkpt lat="43.50993044584392" lon="12.327534388435128"><ele>659.0</ele><time>2026-04-19T09:10:54Z</time></trkpt><trkpt lat="43.51007664180325" lon="12.327494713725782"><ele>659.0</ele><time>2026-04-19T09:10:55Z</time></trkpt><trkpt lat="43.51018593956957" lon="12.327328627052937"><ele>659.0</ele><time>2026-04-19T09:10:56Z</time></trkpt><trkpt lat="43.51029614133188" lon="12.327112040636806"><ele>658.6666666666666</ele><time>2026-04-19T09:10:57Z</time></trkpt><trkpt lat="43.51043460261113" lon="12.326833110139301"><ele>658.3333333333334</ele><time>2026-04-19T09:10:58Z</time></trkpt><trkpt lat="43.51054405017267" lon="12.32661215857566"><ele>658.0</ele><time>2026-04-19T09:10:59Z</time></trkpt><trkpt lat="43.51063352109462" lon="12.32644778833692"><ele>657.0</ele><time>2026-04-19T09:11:00Z</time></trkpt><trkpt lat="43.51068988195858" lon="12.326273729365663"><ele>656.0</ele><time>2026-04-19T09:11:01Z</time></trkpt><trkpt lat="43.510673740722524" lon="12.326081514374815"><ele>655.0</ele><time>2026-04-19T09:11:02Z</time></trkpt><trkpt lat="43.510594635227356" lon="12.325910139378635"><ele>654.0</ele><time>2026-04-19T09:11:03Z</time></trkpt><trkpt lat="43.510446655669305" lon="12.325774529292975"><ele>652.6666666666666</ele><time>2026-04-19T09:11:04Z</time></trkpt><trkpt lat="43.5102645509353" lon="12.325745333960661"><ele>651.3333333333333</ele><time>2026-04-19T09:11:05Z</time></trkpt><trkpt lat="43.51007821668569" lon="12.325745157134957"><ele>650.0</ele><time>2026-04-19T09:11:06Z</time></trkpt><trkpt lat="43.509914264984424" lon="12.325755673081193"><ele>650.0</ele><time>2026-04-19T09:11:07Z</time></trkpt><trkpt lat="43.50975715191668" lon="12.325748480671907"><ele>650.0</ele><time>2026-04-19T09:11:08Z</time></trkpt><trkpt lat="43.509603644377066" lon="12.325737058428562"><ele>650.0</ele><time>2026-04-19T09:11:09Z</time></trkpt><trkpt lat="43.509448742105114" lon="12.325647905392037"><ele>649.3333333333333</ele><time>2026-04-19T09:11:11Z</time></trkpt><trkpt lat="43.50929610645954" lon="12.325570239608735"><ele>648.6666666666666</ele><time>2026-04-19T09:11:12Z</time></trkpt><trkpt lat="43.509170607876186" lon="12.325416627511867"><ele>648.0</ele><time>2026-04-19T09:11:13Z</time></trkpt><trkpt lat="43.50904688386215" lon="12.325195239254843"><ele>648.0</ele><time>2026-04-19T09:11:14Z</time></trkpt><trkpt lat="43.50891069520455" lon="12.3249770479661"><ele>648.0</ele><time>2026-04-19T09:11:15Z</time></trkpt><trkpt lat="43.508737727864" lon="12.324799901290667"><ele>648.0</ele><time>2026-04-19T09:11:16Z</time></trkpt><trkpt lat="43.50853918410838" lon="12.324636851303907"><ele>647.3333333333334</ele><time>2026-04-19T09:11:17Z</time></trkpt><trkpt lat="43.50834613829497" lon="12.324519086561796"><ele>646.6666666666667</ele><time>2026-04-19T09:11:18Z</time></trkpt><trkpt lat="43.50816606304509" lon="12.324409555326437"><ele>646.0</ele><time>2026-04-19T09:11:19Z</time></trkpt><trkpt lat="43.50797990530362" lon="12.32429654568791"><ele>642.6666666666667</ele><time>2026-04-19T09:11:20Z</time></trkpt><trkpt lat="43.50781932122415" lon="12.324173451686224"><ele>639.3333333333334</ele><time>2026-04-19T09:11:21Z</time></trkpt><trkpt lat="43.507663684278306" lon="12.324009766437637"><ele>636.0</ele><time>2026-04-19T09:11:22Z</time></trkpt><trkpt lat="43.50750356700156" lon="12.323751415774824"><ele>636.0</ele><time>2026-04-19T09:11:23Z</time></trkpt><trkpt lat="43.50732634844152" lon="12.32345827634"><ele>636.0</ele><time>2026-04-19T09:11:24Z</time></trkpt><trkpt lat="43.50716136391071" lon="12.323156162200606"><ele>632.0</ele><time>2026-04-19T09:11:25Z</time></trkpt><trkpt lat="43.50696007557044" lon="12.322813914941081"><ele>628.0</ele><time>2026-04-19T09:11:26Z</time></trkpt><trkpt lat="43.506770798946725" lon="12.322583552325629"><ele>628.0</ele><time>2026-04-19T09:11:27Z</time></trkpt><trkpt lat="43.50652704724655" lon="12.322394716746349"><ele>628.0</ele><time>2026-04-19T09:11:28Z</time></trkpt><trkpt lat="43.50624734626103" lon="12.322221039943113"><ele>627.5</ele><time>2026-04-19T09:11:29Z</time></trkpt><trkpt lat="43.50598736567856" lon="12.32205213181857"><ele>627.0</ele><time>2026-04-19T09:11:30Z</time></trkpt><trkpt lat="43.50576139506481" lon="12.321898081231899"><ele>627.0</ele><time>2026-04-19T09:11:31Z</time></trkpt><trkpt lat="43.5055601491624" lon="12.32175339950145"><ele>627.0</ele><time>2026-04-19T09:11:32Z</time></trkpt><trkpt lat="43.50538418462187" lon="12.321592035855081"><ele>627.0</ele><time>2026-04-19T09:11:33Z</time></trkpt><trkpt lat="43.50525012036669" lon="12.321407212485912"><ele>623.3333333333334</ele><time>2026-04-19T09:11:34Z</time></trkpt><trkpt lat="43.50515009480717" lon="12.321206040893106"><ele>619.6666666666667</ele><time>2026-04-19T09:11:35Z</time></trkpt><trkpt lat="43.505101649016034" lon="12.320942549202814"><ele>616.0</ele><time>2026-04-19T09:11:36Z</time></trkpt><trkpt lat="43.50510669125063" lon="12.320642163489472"><ele>615.6666666666667</ele><time>2026-04-19T09:11:37Z</time></trkpt><trkpt lat="43.50509074423189" lon="12.320342319158277"><ele>615.3333333333334</ele><time>2026-04-19T09:11:38Z</time></trkpt><trkpt lat="43.504990593715874" lon="12.32006664670832"><ele>615.0</ele><time>2026-04-19T09:11:39Z</time></trkpt><trkpt lat="43.504847399812554" lon="12.319825481230067"><ele>614.6666666666666</ele><time>2026-04-19T09:11:40Z</time></trkpt><trkpt lat="43.50474313095412" lon="12.319578027592486"><ele>614.3333333333333</ele><time>2026-04-19T09:11:41Z</time></trkpt><trkpt lat="43.50472905209414" lon="12.319282957759018"><ele>614.0</ele><time>2026-04-19T09:11:42Z</time></trkpt><trkpt lat="43.5047543752295" lon="12.31896953861092"><ele>611.3333333333333</ele><time>2026-04-19T09:11:43Z</time></trkpt><trkpt lat="43.504838099624365" lon="12.31874140121013"><ele>608.6666666666666</ele><time>2026-04-19T09:11:44Z</time></trkpt><trkpt lat="43.50488190999748" lon="12.318559700925702"><ele>606.0</ele><time>2026-04-19T09:11:45Z</time></trkpt><trkpt lat="43.50495528461719" lon="12.318401088153808"><ele>606.0</ele><time>2026-04-19T09:11:46Z</time></trkpt><trkpt lat="43.50506721356494" lon="12.318313112027118"><ele>606.0</ele><time>2026-04-19T09:11:47Z</time></trkpt><trkpt lat="43.50520546561522" lon="12.318299554663998"><ele>606.0</ele><time>2026-04-19T09:11:48Z</time></trkpt><trkpt lat="43.50537782877092" lon="12.318334012720877"><ele>606.0</ele><time>2026-04-19T09:11:49Z</time></trkpt><trkpt lat="43.505549196909705" lon="12.31836151535395"><ele>606.25</ele><time>2026-04-19T09:11:50Z</time></trkpt><trkpt lat="43.505691544874814" lon="12.318396696881024"><ele>606.5</ele><time>2026-04-19T09:11:51Z</time></trkpt><trkpt lat="43.50581921106683" lon="12.318378243477731"><ele>606.75</ele><time>2026-04-19T09:11:52Z</time></trkpt><trkpt lat="43.505923528251735" lon="12.318272760715052"><ele>607.0</ele><time>2026-04-19T09:11:53Z</time></trkpt><trkpt lat="43.50598883721137" lon="12.318075331978463"><ele>602.0</ele><time>2026-04-19T09:11:53.999Z</time></trkpt><trkpt lat="43.50604533232576" lon="12.317864321901586"><ele>597.0</ele><time>2026-04-19T09:11:54.999Z</time></trkpt><trkpt lat="43.50614528338266" lon="12.317686862339709"><ele>592.0</ele><time>2026-04-19T09:11:55.999Z</time></trkpt><trkpt lat="43.5062934811974" lon="12.317570985548691"><ele>592.0</ele><time>2026-04-19T09:11:56.999Z</time></trkpt><trkpt lat="43.506434272369255" lon="12.317514677986972"><ele>592.0</ele><time>2026-04-19T09:11:57.999Z</time></trkpt><trkpt lat="43.50659906674253" lon="12.31750734911609"><ele>592.0</ele><time>2026-04-19T09:11:58.999Z</time></trkpt><trkpt lat="43.506759819206295" lon="12.317579429873842"><ele>592.0</ele><time>2026-04-19T09:11:59.999Z</time></trkpt><trkpt lat="43.50690558160499" lon="12.317664791330253"><ele>592.0</ele><time>2026-04-19T09:12:00.999Z</time></trkpt><trkpt lat="43.50702569749398" lon="12.31776635680986"><ele>592.0</ele><time>2026-04-19T09:12:01.999Z</time></trkpt><trkpt lat="43.50715567500366" lon="12.31779619624052"><ele>592.0</ele><time>2026-04-19T09:12:02.999Z</time></trkpt><trkpt lat="43.50729537358102" lon="12.317762439788487"><ele>592.0</ele><time>2026-04-19T09:12:03.999Z</time></trkpt><trkpt lat="43.507432745544406" lon="12.317662790188297"><ele>592.0</ele><time>2026-04-19T09:12:04.999Z</time></trkpt><trkpt lat="43.507540514044244" lon="12.317509743844317"><ele>592.0</ele><time>2026-04-19T09:12:05.999Z</time></trkpt><trkpt lat="43.50759659556797" lon="12.31730055124786"><ele>592.0</ele><time>2026-04-19T09:12:06.999Z</time></trkpt><trkpt lat="43.507585664128165" lon="12.31704805193129"><ele>592.0</ele><time>2026-04-19T09:12:07.999Z</time></trkpt><trkpt lat="43.50752242102816" lon="12.316790254593245"><ele>592.0</ele><time>2026-04-19T09:12:08.999Z</time></trkpt><trkpt lat="43.50743809111641" lon="12.316569380444"><ele>591.5</ele><time>2026-04-19T09:12:09.999Z</time></trkpt><trkpt lat="43.50733998607541" lon="12.316399162764037"><ele>591.0</ele><time>2026-04-19T09:12:10.999Z</time></trkpt><trkpt lat="43.507241931396955" lon="12.316245525612242"><ele>590.5</ele><time>2026-04-19T09:12:11.999Z</time></trkpt><trkpt lat="43.50715596791288" lon="12.316096670369577"><ele>590.0</ele><time>2026-04-19T09:12:12.999Z</time></trkpt><trkpt lat="43.5071239185764" lon="12.315932065574092"><ele>590.0</ele><time>2026-04-19T09:12:13.999Z</time></trkpt><trkpt lat="43.50714476955093" lon="12.31572029219256"><ele>590.0</ele><time>2026-04-19T09:12:14.999Z</time></trkpt><trkpt lat="43.50718755565415" lon="12.31539377893504"><ele>590.0</ele><time>2026-04-19T09:12:15.999Z</time></trkpt><trkpt lat="43.50717814790347" lon="12.315023486767233"><ele>586.5</ele><time>2026-04-19T09:12:16.999Z</time></trkpt><trkpt lat="43.50716464083486" lon="12.314621477186542"><ele>583.0</ele><time>2026-04-19T09:12:17.999Z</time></trkpt><trkpt lat="43.507166956144" lon="12.31426452113345"><ele>583.0</ele><time>2026-04-19T09:12:18.999Z</time></trkpt><trkpt lat="43.50714242522906" lon="12.313956498813678"><ele>583.0</ele><time>2026-04-19T09:12:19.999Z</time></trkpt><trkpt lat="43.50712242406969" lon="12.313679797731453"><ele>583.0</ele><time>2026-04-19T09:12:20.999Z</time></trkpt><trkpt lat="43.50706654031842" lon="12.313418596890063"><ele>580.3333333333334</ele><time>2026-04-19T09:12:21.999Z</time></trkpt><trkpt lat="43.506947371691275" lon="12.313153702688151"><ele>577.6666666666666</ele><time>2026-04-19T09:12:22.999Z</time></trkpt><trkpt lat="43.50680992150864" lon="12.312922398787444"><ele>575.0</ele><time>2026-04-19T09:12:23.999Z</time></trkpt><trkpt lat="43.5066742453353" lon="12.312709635872084"><ele>575.0</ele><time>2026-04-19T09:12:24.999Z</time></trkpt><trkpt lat="43.50651801576466" lon="12.312474377658884"><ele>575.0</ele><time>2026-04-19T09:12:25.999Z</time></trkpt><trkpt lat="43.506399311660225" lon="12.312206242276181"><ele>576.3333333333333</ele><time>2026-04-19T09:12:26.999Z</time></trkpt><trkpt lat="43.50630283399176" lon="12.311950674709964"><ele>577.6666666666666</ele><time>2026-04-19T09:12:27.999Z</time></trkpt><trkpt lat="43.50626675475984" lon="12.311649811010398"><ele>579.0</ele><time>2026-04-19T09:12:28.999Z</time></trkpt><trkpt lat="43.50619350009515" lon="12.311333765614146"><ele>575.3333333333334</ele><time>2026-04-19T09:12:29.999Z</time></trkpt><trkpt lat="43.50608911995137" lon="12.311145800624065"><ele>571.6666666666667</ele><time>2026-04-19T09:12:30.999Z</time></trkpt><trkpt lat="43.50597773002428" lon="12.310941153220632"><ele>568.0</ele><time>2026-04-19T09:12:31.999Z</time></trkpt><trkpt lat="43.50589050542023" lon="12.310772932797777"><ele>568.0</ele><time>2026-04-19T09:12:32.999Z</time></trkpt><trkpt lat="43.505785107179136" lon="12.310590437603398"><ele>568.0</ele><time>2026-04-19T09:12:33.999Z</time></trkpt><trkpt lat="43.50569610344956" lon="12.310418373096722"><ele>568.0</ele><time>2026-04-19T09:12:34.999Z</time></trkpt><trkpt lat="43.50564013062155" lon="12.310260893636205"><ele>568.5</ele><time>2026-04-19T09:12:35.999Z</time></trkpt><trkpt lat="43.50560966316868" lon="12.310122499646194"><ele>569.0</ele><time>2026-04-19T09:12:36.999Z</time></trkpt><trkpt lat="43.505620403037405" lon="12.309991114322221"><ele>569.5</ele><time>2026-04-19T09:12:37.999Z</time></trkpt><trkpt lat="43.50563238170833" lon="12.30980226983158"><ele>570.0</ele><time>2026-04-19T09:12:38.999Z</time></trkpt><trkpt lat="43.505625567420246" lon="12.309588047797083"><ele>567.75</ele><time>2026-04-19T09:12:39.999Z</time></trkpt><trkpt lat="43.50561850171676" lon="12.309367804016004"><ele>565.5</ele><time>2026-04-19T09:12:40.999Z</time></trkpt><trkpt lat="43.505559108771116" lon="12.30919307061496"><ele>563.25</ele><time>2026-04-19T09:12:41.999Z</time></trkpt><trkpt lat="43.50550162280477" lon="12.309045806948745"><ele>561.0</ele><time>2026-04-19T09:12:42.999Z</time></trkpt><trkpt lat="43.505397212703556" lon="12.30890904180123"><ele>560.5</ele><time>2026-04-19T09:12:43.999Z</time></trkpt><trkpt lat="43.50529508080223" lon="12.308771951829748"><ele>560.0</ele><time>2026-04-19T09:12:45Z</time></trkpt><trkpt lat="43.505175626281876" lon="12.308643379287087"><ele>559.5</ele><time>2026-04-19T09:12:46Z</time></trkpt><trkpt lat="43.50506398873534" lon="12.308529018829077"><ele>559.0</ele><time>2026-04-19T09:12:47Z</time></trkpt><trkpt lat="43.50496040794133" lon="12.308402366253434"><ele>559.0</ele><time>2026-04-19T09:12:48Z</time></trkpt><trkpt lat="43.50484744852795" lon="12.308267097784348"><ele>559.0</ele><time>2026-04-19T09:12:49Z</time></trkpt><trkpt lat="43.504755299059816" lon="12.308162765052739"><ele>559.0</ele><time>2026-04-19T09:12:50Z</time></trkpt><trkpt lat="43.50466682050089" lon="12.308054923695286"><ele>559.0</ele><time>2026-04-19T09:12:51Z</time></trkpt><trkpt lat="43.504581359186936" lon="12.307948108080241"><ele>557.6</ele><time>2026-04-19T09:12:52Z</time></trkpt><trkpt lat="43.50449957431248" lon="12.307862095946948"><ele>556.2</ele><time>2026-04-19T09:12:53Z</time></trkpt><trkpt lat="43.50441996818441" lon="12.307769675309308"><ele>554.8000000000001</ele><time>2026-04-19T09:12:54Z</time></trkpt><trkpt lat="43.50435488285277" lon="12.307685649453834"><ele>553.4</ele><time>2026-04-19T09:12:55Z</time></trkpt><trkpt lat="43.504290439970454" lon="12.307586623683333"><ele>552.0</ele><time>2026-04-19T09:12:56Z</time></trkpt><trkpt lat="43.504215322658965" lon="12.30747729010973"><ele>552.0</ele><time>2026-04-19T09:12:57Z</time></trkpt><trkpt lat="43.504144950378716" lon="12.30736375485906"><ele>552.0</ele><time>2026-04-19T09:12:58Z</time></trkpt><trkpt lat="43.504082685237265" lon="12.307231939871105"><ele>552.0</ele><time>2026-04-19T09:12:59Z</time></trkpt><trkpt lat="43.5040613819525" lon="12.307068911764034"><ele>552.0</ele><time>2026-04-19T09:13:00Z</time></trkpt><trkpt lat="43.50404679967176" lon="12.306900858630195"><ele>550.75</ele><time>2026-04-19T09:13:01Z</time></trkpt><trkpt lat="43.50403251251759" lon="12.306705634377693"><ele>549.5</ele><time>2026-04-19T09:13:02Z</time></trkpt><trkpt lat="43.50402125412385" lon="12.30649806127189"><ele>548.25</ele><time>2026-04-19T09:13:03Z</time></trkpt><trkpt lat="43.50400907799309" lon="12.306296350282135"><ele>547.0</ele><time>2026-04-19T09:13:04Z</time></trkpt><trkpt lat="43.503988454973" lon="12.30608188829031"><ele>545.75</ele><time>2026-04-19T09:13:05Z</time></trkpt><trkpt lat="43.50397874845475" lon="12.305867278060047"><ele>544.5</ele><time>2026-04-19T09:13:06Z</time></trkpt><trkpt lat="43.50395857698685" lon="12.305652471886988"><ele>543.25</ele><time>2026-04-19T09:13:07Z</time></trkpt><trkpt lat="43.50393394103257" lon="12.305468474181362"><ele>542.0</ele><time>2026-04-19T09:13:08Z</time></trkpt><trkpt lat="43.5039126215051" lon="12.305300176356821"><ele>542.0</ele><time>2026-04-19T09:13:09Z</time></trkpt><trkpt lat="43.50389289347064" lon="12.305149107314797"><ele>542.0</ele><time>2026-04-19T09:13:10Z</time></trkpt><trkpt lat="43.503870445310355" lon="12.305000753356346"><ele>542.0</ele><time>2026-04-19T09:13:11Z</time></trkpt><trkpt lat="43.50382889635856" lon="12.304840288046488"><ele>542.0</ele><time>2026-04-19T09:13:12Z</time></trkpt><trkpt lat="43.50376392982723" lon="12.304675817071178"><ele>541.25</ele><time>2026-04-19T09:13:13Z</time></trkpt><trkpt lat="43.50367526180642" lon="12.304522937955824"><ele>540.5</ele><time>2026-04-19T09:13:14Z</time></trkpt><trkpt lat="43.50356951793827" lon="12.304387265695771"><ele>539.75</ele><time>2026-04-19T09:13:15Z</time></trkpt><trkpt lat="43.503446417454036" lon="12.304275471051152"><ele>539.0</ele><time>2026-04-19T09:13:16Z</time></trkpt><trkpt lat="43.503312282311924" lon="12.304190693288138"><ele>539.0</ele><time>2026-04-19T09:13:17Z</time></trkpt><trkpt lat="43.503172313307815" lon="12.304126281860125"><ele>539.0</ele><time>2026-04-19T09:13:18Z</time></trkpt><trkpt lat="43.50303387980588" lon="12.304060732347866"><ele>539.0</ele><time>2026-04-19T09:13:19Z</time></trkpt><trkpt lat="43.502874906107934" lon="12.303976637301375"><ele>543.3333333333333</ele><time>2026-04-19T09:13:20Z</time></trkpt><trkpt lat="43.50269275941924" lon="12.303861154360295"><ele>547.6666666666666</ele><time>2026-04-19T09:13:21Z</time></trkpt><trkpt lat="43.50248495415866" lon="12.303738317639779"><ele>552.0</ele><time>2026-04-19T09:13:22Z</time></trkpt><trkpt lat="43.50226947106106" lon="12.303576783553002"><ele>545.5</ele><time>2026-04-19T09:13:23Z</time></trkpt><trkpt lat="43.50207256291451" lon="12.303386562078714"><ele>539.0</ele><time>2026-04-19T09:13:24Z</time></trkpt><trkpt lat="43.50185989453755" lon="12.303201119299919"><ele>546.0</ele><time>2026-04-19T09:13:25Z</time></trkpt><trkpt lat="43.501651773971915" lon="12.30301106809899"><ele>553.0</ele><time>2026-04-19T09:13:26Z</time></trkpt><trkpt lat="43.501473782225744" lon="12.302833634754089"><ele>553.0</ele><time>2026-04-19T09:13:27Z</time></trkpt><trkpt lat="43.50132617529985" lon="12.302653401994696"><ele>553.0</ele><time>2026-04-19T09:13:28Z</time></trkpt><trkpt lat="43.50118283757836" lon="12.302485449946584"><ele>553.0</ele><time>2026-04-19T09:13:29Z</time></trkpt><trkpt lat="43.501024505711605" lon="12.302371362738878"><ele>548.6666666666667</ele><time>2026-04-19T09:13:30Z</time></trkpt><trkpt lat="43.50083974551492" lon="12.302346256026231"><ele>544.3333333333334</ele><time>2026-04-19T09:13:31Z</time></trkpt><trkpt lat="43.500652956988105" lon="12.302403543796492"><ele>540.0</ele><time>2026-04-19T09:13:32Z</time></trkpt><trkpt lat="43.500487940397676" lon="12.302527818830779"><ele>538.3333333333334</ele><time>2026-04-19T09:13:33Z</time></trkpt><trkpt lat="43.50033979596221" lon="12.30264463830342"><ele>536.6666666666667</ele><time>2026-04-19T09:13:34Z</time></trkpt><trkpt lat="43.50018180226363" lon="12.30260275388119"><ele>535.0</ele><time>2026-04-19T09:13:35Z</time></trkpt><trkpt lat="43.50006156674555" lon="12.302514085132916"><ele>535.0</ele><time>2026-04-19T09:13:36Z</time></trkpt><trkpt lat="43.499921476611675" lon="12.302392974665235"><ele>535.0</ele><time>2026-04-19T09:13:37Z</time></trkpt><trkpt lat="43.4998163127326" lon="12.302295714924766"><ele>535.0</ele><time>2026-04-19T09:13:38Z</time></trkpt><trkpt lat="43.49956992790554" lon="12.30198257884214"><ele>534.6666666666667</ele><time>2026-04-19T09:13:39Z</time></trkpt><trkpt lat="43.499476475647704" lon="12.301791145786105"><ele>534.3333333333334</ele><time>2026-04-19T09:13:40Z</time></trkpt><trkpt lat="43.49941670522105" lon="12.301606003256556"><ele>534.0</ele><time>2026-04-19T09:13:41Z</time></trkpt><trkpt lat="43.49936719639065" lon="12.301358307407078"><ele>534.0</ele><time>2026-04-19T09:13:42Z</time></trkpt><trkpt lat="43.49930009037252" lon="12.301054769511243"><ele>534.0</ele><time>2026-04-19T09:13:43Z</time></trkpt><trkpt lat="43.49916444442987" lon="12.300578337005945"><ele>538.0</ele><time>2026-04-19T09:13:44Z</time></trkpt><trkpt lat="43.49907273740065" lon="12.300170936054416"><ele>542.0</ele><time>2026-04-19T09:13:45Z</time></trkpt><trkpt lat="43.49901212715674" lon="12.299910872691264"><ele>544.3333333333333</ele><time>2026-04-19T09:13:46Z</time></trkpt><trkpt lat="43.49896637107946" lon="12.299644308971136"><ele>546.6666666666666</ele><time>2026-04-19T09:13:47Z</time></trkpt><trkpt lat="43.498836096157376" lon="12.299409928527952"><ele>549.0</ele><time>2026-04-19T09:13:48Z</time></trkpt><trkpt lat="43.498667183103315" lon="12.299195120944372"><ele>541.0</ele><time>2026-04-19T09:13:49Z</time></trkpt><trkpt lat="43.49850699220981" lon="12.298911167450624"><ele>533.0</ele><time>2026-04-19T09:13:50Z</time></trkpt><trkpt lat="43.49835929048779" lon="12.298570729394307"><ele>533.0</ele><time>2026-04-19T09:13:51Z</time></trkpt><trkpt lat="43.49822531687638" lon="12.298290251708917"><ele>533.0</ele><time>2026-04-19T09:13:52Z</time></trkpt><trkpt lat="43.498173327087315" lon="12.29817324433774"><ele>533.0</ele><time>2026-04-19T09:13:53Z</time></trkpt><trkpt lat="43.49814255922631" lon="12.298073747301645"><ele>533.0</ele><time>2026-04-19T09:13:54Z</time></trkpt><trkpt lat="43.49814986162197" lon="12.297970738031726"><ele>532.5</ele><time>2026-04-19T09:13:55Z</time></trkpt><trkpt lat="43.49819408873488" lon="12.297853041987858"><ele>532.0</ele><time>2026-04-19T09:13:56Z</time></trkpt><trkpt lat="43.4983426669831" lon="12.297780212905046"><ele>531.5</ele><time>2026-04-19T09:13:57Z</time></trkpt><trkpt lat="43.49847254718659" lon="12.297680285146338"><ele>531.0</ele><time>2026-04-19T09:13:58Z</time></trkpt><trkpt lat="43.49858466476876" lon="12.297540991632246"><ele>531.0</ele><time>2026-04-19T09:13:59Z</time></trkpt><trkpt lat="43.49862443524873" lon="12.297353249460087"><ele>531.0</ele><time>2026-04-19T09:14:00Z</time></trkpt><trkpt lat="43.498559552182456" lon="12.297133396406887"><ele>531.0</ele><time>2026-04-19T09:14:01Z</time></trkpt><trkpt lat="43.49844476815964" lon="12.29692259765007"><ele>531.0</ele><time>2026-04-19T09:14:02Z</time></trkpt><trkpt lat="43.498295187184276" lon="12.296805382143488"><ele>531.0</ele><time>2026-04-19T09:14:03Z</time></trkpt><trkpt lat="43.49811069597329" lon="12.296747813630985"><ele>531.0</ele><time>2026-04-19T09:14:03.999Z</time></trkpt><trkpt lat="43.497903398874" lon="12.296786598312032"><ele>531.0</ele><time>2026-04-19T09:14:04.999Z</time></trkpt><trkpt lat="43.49765463409547" lon="12.296739431988044"><ele>531.0</ele><time>2026-04-19T09:14:05.999Z</time></trkpt><trkpt lat="43.49740802098685" lon="12.296654509104366"><ele>531.0</ele><time>2026-04-19T09:14:06.999Z</time></trkpt><trkpt lat="43.497159083591995" lon="12.296540217975602"><ele>531.0</ele><time>2026-04-19T09:14:07.999Z</time></trkpt><trkpt lat="43.49698193790913" lon="12.296412764127226"><ele>532.0</ele><time>2026-04-19T09:14:08.999Z</time></trkpt><trkpt lat="43.49678899986501" lon="12.296237599064648"><ele>533.0</ele><time>2026-04-19T09:14:09.999Z</time></trkpt><trkpt lat="43.496548544026524" lon="12.296020664390007"><ele>533.0</ele><time>2026-04-19T09:14:10.999Z</time></trkpt><trkpt lat="43.49634246497336" lon="12.29583518069048"><ele>533.0</ele><time>2026-04-19T09:14:11.999Z</time></trkpt><trkpt lat="43.49617669572924" lon="12.295714750772111"><ele>533.0</ele><time>2026-04-19T09:14:12.999Z</time></trkpt><trkpt lat="43.49607156252586" lon="12.295614653397056"><ele>530.25</ele><time>2026-04-19T09:14:13.999Z</time></trkpt><trkpt lat="43.4959701378567" lon="12.295476826624228"><ele>527.5</ele><time>2026-04-19T09:14:14.999Z</time></trkpt><trkpt lat="43.495923052114264" lon="12.295387335338084"><ele>524.75</ele><time>2026-04-19T09:14:15.999Z</time></trkpt><trkpt lat="43.49587240445375" lon="12.295255377694739"><ele>522.0</ele><time>2026-04-19T09:14:16.999Z</time></trkpt><trkpt lat="43.49594188799598" lon="12.295075218398829"><ele>522.0</ele><time>2026-04-19T09:14:17.999Z</time></trkpt><trkpt lat="43.49603695483625" lon="12.294911325961412"><ele>522.0</ele><time>2026-04-19T09:14:18.999Z</time></trkpt><trkpt lat="43.49619391406549" lon="12.294813311359732"><ele>522.0</ele><time>2026-04-19T09:14:19.999Z</time></trkpt><trkpt lat="43.49635433811624" lon="12.294709775624396"><ele>525.0</ele><time>2026-04-19T09:14:20.999Z</time></trkpt><trkpt lat="43.49647714566335" lon="12.294537495029852"><ele>528.0</ele><time>2026-04-19T09:14:21.999Z</time></trkpt><trkpt lat="43.496538815064376" lon="12.294306783153669"><ele>531.0</ele><time>2026-04-19T09:14:22.999Z</time></trkpt><trkpt lat="43.49650520406182" lon="12.294044385949757"><ele>531.6666666666666</ele><time>2026-04-19T09:14:23.999Z</time></trkpt><trkpt lat="43.496411030524875" lon="12.2938132636466"><ele>532.3333333333333</ele><time>2026-04-19T09:14:24.999Z</time></trkpt><trkpt lat="43.49624117730791" lon="12.293548715844564"><ele>533.0</ele><time>2026-04-19T09:14:25.999Z</time></trkpt><trkpt lat="43.49605320582162" lon="12.29331335327131"><ele>531.0</ele><time>2026-04-19T09:14:26.999Z</time></trkpt><trkpt lat="43.49582867606716" lon="12.293124347621808"><ele>529.0</ele><time>2026-04-19T09:14:27.999Z</time></trkpt><trkpt lat="43.495550735019094" lon="12.292925176198132"><ele>524.5</ele><time>2026-04-19T09:14:28.999Z</time></trkpt><trkpt lat="43.495230587431436" lon="12.292778448088916"><ele>520.0</ele><time>2026-04-19T09:14:29.999Z</time></trkpt><trkpt lat="43.49498773514088" lon="12.292665890189992"><ele>520.0</ele><time>2026-04-19T09:14:30.999Z</time></trkpt><trkpt lat="43.49475601657847" lon="12.292523074833637"><ele>520.0</ele><time>2026-04-19T09:14:31.999Z</time></trkpt><trkpt lat="43.494591105369594" lon="12.292321856002257"><ele>518.5</ele><time>2026-04-19T09:14:32.999Z</time></trkpt><trkpt lat="43.494407908942804" lon="12.29209298263289"><ele>517.0</ele><time>2026-04-19T09:14:33.999Z</time></trkpt><trkpt lat="43.49423128005844" lon="12.291877043234914"><ele>517.0</ele><time>2026-04-19T09:14:34.999Z</time></trkpt><trkpt lat="43.4941374613201" lon="12.291702047712196"><ele>517.0</ele><time>2026-04-19T09:14:35.999Z</time></trkpt><trkpt lat="43.49406405428401" lon="12.291468017924913"><ele>517.0</ele><time>2026-04-19T09:14:36.999Z</time></trkpt><trkpt lat="43.49401976181155" lon="12.291184572509758"><ele>516.3333333333334</ele><time>2026-04-19T09:14:37.999Z</time></trkpt><trkpt lat="43.49395072263043" lon="12.290894515809459"><ele>515.6666666666666</ele><time>2026-04-19T09:14:38.999Z</time></trkpt><trkpt lat="43.49380620602251" lon="12.290678176228488"><ele>515.0</ele><time>2026-04-19T09:14:39.999Z</time></trkpt><trkpt lat="43.49360122585014" lon="12.29048476144835"><ele>515.0</ele><time>2026-04-19T09:14:40.999Z</time></trkpt><trkpt lat="43.4934027940273" lon="12.290290402591932"><ele>515.0</ele><time>2026-04-19T09:14:41.999Z</time></trkpt><trkpt lat="43.493264727039296" lon="12.290004375810115"><ele>517.5</ele><time>2026-04-19T09:14:42.999Z</time></trkpt><trkpt lat="43.49307546077654" lon="12.28966710234161"><ele>520.0</ele><time>2026-04-19T09:14:43.999Z</time></trkpt><trkpt lat="43.49288495942587" lon="12.289244060491175"><ele>518.0</ele><time>2026-04-19T09:14:44.999Z</time></trkpt><trkpt lat="43.49270558572599" lon="12.288888132608287"><ele>516.0</ele><time>2026-04-19T09:14:45.999Z</time></trkpt><trkpt lat="43.49251674683034" lon="12.288607539893484"><ele>516.0</ele><time>2026-04-19T09:14:46.999Z</time></trkpt><trkpt lat="43.49228773736101" lon="12.288423703867533"><ele>516.0</ele><time>2026-04-19T09:14:47.999Z</time></trkpt><trkpt lat="43.49203641300487" lon="12.288207782439672"><ele>516.5</ele><time>2026-04-19T09:14:48.999Z</time></trkpt><trkpt lat="43.49172685233347" lon="12.287966367982648"><ele>517.0</ele><time>2026-04-19T09:14:50Z</time></trkpt><trkpt lat="43.4913614726164" lon="12.287664960311249"><ele>515.5</ele><time>2026-04-19T09:14:51Z</time></trkpt><trkpt lat="43.49103970920063" lon="12.287412678518393"><ele>514.0</ele><time>2026-04-19T09:14:52Z</time></trkpt><trkpt lat="43.49077670544894" lon="12.287183939051195"><ele>514.0</ele><time>2026-04-19T09:14:53Z</time></trkpt><trkpt lat="43.490576378107384" lon="12.287014497087268"><ele>514.0</ele><time>2026-04-19T09:14:54Z</time></trkpt><trkpt lat="43.49043506725814" lon="12.286922717875518"><ele>514.0</ele><time>2026-04-19T09:14:55Z</time></trkpt><trkpt lat="43.4902770053551" lon="12.286741862889292"><ele>510.0</ele><time>2026-04-19T09:14:56Z</time></trkpt><trkpt lat="43.49018265152638" lon="12.286583365043548"><ele>506.0</ele><time>2026-04-19T09:14:57Z</time></trkpt><trkpt lat="43.49011576594326" lon="12.286355441717827"><ele>502.0</ele><time>2026-04-19T09:14:58Z</time></trkpt><trkpt lat="43.49007658936899" lon="12.286055095542599"><ele>502.0</ele><time>2026-04-19T09:14:59Z</time></trkpt><trkpt lat="43.490080070461175" lon="12.285725328665047"><ele>502.0</ele><time>2026-04-19T09:15:00Z</time></trkpt><trkpt lat="43.490094979984995" lon="12.285420900488184"><ele>503.6666666666667</ele><time>2026-04-19T09:15:01Z</time></trkpt><trkpt lat="43.49004674072891" lon="12.285180952870133"><ele>505.33333333333337</ele><time>2026-04-19T09:15:02Z</time></trkpt><trkpt lat="43.48992264616264" lon="12.284999762065762"><ele>507.0</ele><time>2026-04-19T09:15:03Z</time></trkpt><trkpt lat="43.48974430031826" lon="12.284882907166383"><ele>510.0</ele><time>2026-04-19T09:15:04Z</time></trkpt><trkpt lat="43.48949287159815" lon="12.2847453854406"><ele>513.0</ele><time>2026-04-19T09:15:05Z</time></trkpt><trkpt lat="43.489252640565375" lon="12.284577647540809"><ele>513.0</ele><time>2026-04-19T09:15:06Z</time></trkpt><trkpt lat="43.489017178791336" lon="12.284386697737546"><ele>513.0</ele><time>2026-04-19T09:15:07Z</time></trkpt><trkpt lat="43.48882517265281" lon="12.28427859969089"><ele>510.0</ele><time>2026-04-19T09:15:08Z</time></trkpt><trkpt lat="43.488629662657424" lon="12.28434115614565"><ele>507.0</ele><time>2026-04-19T09:15:09Z</time></trkpt><trkpt lat="43.488384454945354" lon="12.284391050801288"><ele>504.0</ele><time>2026-04-19T09:15:10Z</time></trkpt><trkpt lat="43.48814828444" lon="12.284338415256476"><ele>496.5</ele><time>2026-04-19T09:15:11Z</time></trkpt><trkpt lat="43.487920967241195" lon="12.284212960922433"><ele>489.0</ele><time>2026-04-19T09:15:12Z</time></trkpt><trkpt lat="43.48773338357191" lon="12.284024331241516"><ele>496.5</ele><time>2026-04-19T09:15:13Z</time></trkpt><trkpt lat="43.48749479574412" lon="12.283763791300922"><ele>504.0</ele><time>2026-04-19T09:15:14Z</time></trkpt><trkpt lat="43.48725764202822" lon="12.283571391127788"><ele>495.0</ele><time>2026-04-19T09:15:15Z</time></trkpt><trkpt lat="43.48704129734899" lon="12.283384351036561"><ele>486.0</ele><time>2026-04-19T09:15:16Z</time></trkpt><trkpt lat="43.48686991767989" lon="12.283257803240943"><ele>486.0</ele><time>2026-04-19T09:15:17Z</time></trkpt><trkpt lat="43.48667568153541" lon="12.283173618306702"><ele>486.0</ele><time>2026-04-19T09:15:18Z</time></trkpt><trkpt lat="43.48651468435909" lon="12.283080464177996"><ele>486.0</ele><time>2026-04-19T09:15:19Z</time></trkpt><trkpt lat="43.48631535953849" lon="12.282949290079108"><ele>490.0</ele><time>2026-04-19T09:15:20Z</time></trkpt><trkpt lat="43.486095764375584" lon="12.282813283402852"><ele>494.0</ele><time>2026-04-19T09:15:21Z</time></trkpt><trkpt lat="43.48577425223984" lon="12.282586927270616"><ele>494.0</ele><time>2026-04-19T09:15:22Z</time></trkpt><trkpt lat="43.485542135080216" lon="12.282422598352328"><ele>494.0</ele><time>2026-04-19T09:15:23Z</time></trkpt><trkpt lat="43.485356011539" lon="12.282304672899471"><ele>493.0</ele><time>2026-04-19T09:15:24Z</time></trkpt><trkpt lat="43.48517035032671" lon="12.282166333989116"><ele>492.0</ele><time>2026-04-19T09:15:25Z</time></trkpt><trkpt lat="43.48501887170024" lon="12.282036590277304"><ele>491.0</ele><time>2026-04-19T09:15:26Z</time></trkpt><trkpt lat="43.48489577817752" lon="12.281937158953538"><ele>491.0</ele><time>2026-04-19T09:15:27Z</time></trkpt><trkpt lat="43.48476276531443" lon="12.281863952765354"><ele>491.0</ele><time>2026-04-19T09:15:28Z</time></trkpt><trkpt lat="43.484714263391695" lon="12.281715486794251"><ele>491.0</ele><time>2026-04-19T09:15:29Z</time></trkpt><trkpt lat="43.48472512269741" lon="12.281509063552502"><ele>491.0</ele><time>2026-04-19T09:15:30Z</time></trkpt><trkpt lat="43.48470438758006" lon="12.28133225443254"><ele>488.5</ele><time>2026-04-19T09:15:31Z</time></trkpt><trkpt lat="43.48500251201989" lon="12.281078152053377"><ele>486.0</ele><time>2026-04-19T09:15:32Z</time></trkpt><trkpt lat="43.48497394617953" lon="12.280793334860483"><ele>484.5</ele><time>2026-04-19T09:15:33Z</time></trkpt><trkpt lat="43.48486521729143" lon="12.280462501987909"><ele>483.0</ele><time>2026-04-19T09:15:34Z</time></trkpt><trkpt lat="43.48470795634547" lon="12.280153710198698"><ele>479.0</ele><time>2026-04-19T09:15:35Z</time></trkpt><trkpt lat="43.48457713386457" lon="12.279812627944159"><ele>475.0</ele><time>2026-04-19T09:15:36Z</time></trkpt><trkpt lat="43.484426163623496" lon="12.27946310730328"><ele>475.0</ele><time>2026-04-19T09:15:37Z</time></trkpt><trkpt lat="43.48429684312894" lon="12.27914731471233"><ele>475.0</ele><time>2026-04-19T09:15:38Z</time></trkpt><trkpt lat="43.48417243140397" lon="12.278939762719492"><ele>473.0</ele><time>2026-04-19T09:15:39Z</time></trkpt><trkpt lat="43.483928805671276" lon="12.27872185302996"><ele>471.0</ele><time>2026-04-19T09:15:40Z</time></trkpt><trkpt lat="43.48368448394768" lon="12.278514562694038"><ele>471.0</ele><time>2026-04-19T09:15:41Z</time></trkpt><trkpt lat="43.48342730801603" lon="12.278255639955246"><ele>471.0</ele><time>2026-04-19T09:15:42Z</time></trkpt><trkpt lat="43.48317518474955" lon="12.278008662337635"><ele>470.5</ele><time>2026-04-19T09:15:43Z</time></trkpt><trkpt lat="43.4829574522482" lon="12.277829251601519"><ele>470.0</ele><time>2026-04-19T09:15:44Z</time></trkpt><trkpt lat="43.48274000412244" lon="12.277684789051202"><ele>471.3333333333333</ele><time>2026-04-19T09:15:45Z</time></trkpt><trkpt lat="43.482518641845445" lon="12.277665463536561"><ele>472.66666666666663</ele><time>2026-04-19T09:15:46Z</time></trkpt><trkpt lat="43.4823192662988" lon="12.277639653040437"><ele>474.0</ele><time>2026-04-19T09:15:47Z</time></trkpt><trkpt lat="43.482136427110945" lon="12.277559352252254"><ele>469.33333333333337</ele><time>2026-04-19T09:15:48Z</time></trkpt><trkpt lat="43.48199527816973" lon="12.277352741032061"><ele>464.6666666666667</ele><time>2026-04-19T09:15:49Z</time></trkpt><trkpt lat="43.481879539435376" lon="12.277151415665982"><ele>460.0</ele><time>2026-04-19T09:15:50Z</time></trkpt><trkpt lat="43.48184534340974" lon="12.277006519851804"><ele>460.0</ele><time>2026-04-19T09:15:51Z</time></trkpt><trkpt lat="43.48183610555947" lon="12.276836581342517"><ele>460.0</ele><time>2026-04-19T09:15:52Z</time></trkpt><trkpt lat="43.481887078398984" lon="12.276687187889495"><ele>460.0</ele><time>2026-04-19T09:15:53Z</time></trkpt><trkpt lat="43.48192437686809" lon="12.27656112268496"><ele>460.0</ele><time>2026-04-19T09:15:54Z</time></trkpt><trkpt lat="43.4820318344137" lon="12.276466868500991"><ele>458.5</ele><time>2026-04-19T09:15:55Z</time></trkpt><trkpt lat="43.48215136511038" lon="12.276434403849603"><ele>457.0</ele><time>2026-04-19T09:15:56Z</time></trkpt><trkpt lat="43.48225374684276" lon="12.27646803154371"><ele>455.5</ele><time>2026-04-19T09:15:57Z</time></trkpt><trkpt lat="43.48236921395997" lon="12.276503346313937"><ele>454.0</ele><time>2026-04-19T09:15:58Z</time></trkpt><trkpt lat="43.48249223227968" lon="12.276482257255086"><ele>457.33333333333337</ele><time>2026-04-19T09:15:59Z</time></trkpt><trkpt lat="43.48267405543139" lon="12.276475521310308"><ele>460.66666666666663</ele><time>2026-04-19T09:16:00Z</time></trkpt><trkpt lat="43.48285772226488" lon="12.276495857034964"><ele>464.0</ele><time>2026-04-19T09:16:01Z</time></trkpt><trkpt lat="43.48303909215102" lon="12.276482549699638"><ele>465.0</ele><time>2026-04-19T09:16:02Z</time></trkpt><trkpt lat="43.483156361168255" lon="12.2763787756319"><ele>466.0</ele><time>2026-04-19T09:16:03Z</time></trkpt><trkpt lat="43.483299563708314" lon="12.27604623976337"><ele>467.0</ele><time>2026-04-19T09:16:04Z</time></trkpt><trkpt lat="43.48323398726594" lon="12.275764823964966"><ele>467.0</ele><time>2026-04-19T09:16:05Z</time></trkpt><trkpt lat="43.48313843067492" lon="12.275670945992477"><ele>467.0</ele><time>2026-04-19T09:16:06Z</time></trkpt><trkpt lat="43.48297445756834" lon="12.275447880259618"><ele>467.0</ele><time>2026-04-19T09:16:07Z</time></trkpt><trkpt lat="43.48278925459021" lon="12.275184069406837"><ele>467.5</ele><time>2026-04-19T09:16:08Z</time></trkpt><trkpt lat="43.482593363511015" lon="12.274823942957239"><ele>468.0</ele><time>2026-04-19T09:16:09Z</time></trkpt><trkpt lat="43.48242298510088" lon="12.274597279667107"><ele>468.0</ele><time>2026-04-19T09:16:10Z</time></trkpt><trkpt lat="43.482215662381435" lon="12.274536104528947"><ele>468.0</ele><time>2026-04-19T09:16:11Z</time></trkpt><trkpt lat="43.48198723628153" lon="12.274490760684827"><ele>468.0</ele><time>2026-04-19T09:16:12Z</time></trkpt><trkpt lat="43.48170754096134" lon="12.274428348530359"><ele>465.0</ele><time>2026-04-19T09:16:13Z</time></trkpt><trkpt lat="43.48138556385645" lon="12.274305297771429"><ele>462.0</ele><time>2026-04-19T09:16:14Z</time></trkpt><trkpt lat="43.48113111097625" lon="12.274232985775702"><ele>460.5</ele><time>2026-04-19T09:16:15Z</time></trkpt><trkpt lat="43.480916465209766" lon="12.274292280995308"><ele>459.0</ele><time>2026-04-19T09:16:16Z</time></trkpt><trkpt lat="43.48066650599605" lon="12.274367603129567"><ele>459.0</ele><time>2026-04-19T09:16:16.999Z</time></trkpt><trkpt lat="43.48044355724762" lon="12.274308812106094"><ele>459.0</ele><time>2026-04-19T09:16:17.999Z</time></trkpt><trkpt lat="43.48022791187791" lon="12.274196197283684"><ele>459.0</ele><time>2026-04-19T09:16:18.999Z</time></trkpt><trkpt lat="43.48001773790085" lon="12.27404272862696"><ele>459.0</ele><time>2026-04-19T09:16:19.999Z</time></trkpt><trkpt lat="43.47980583997288" lon="12.273882351074839"><ele>459.0</ele><time>2026-04-19T09:16:20.999Z</time></trkpt><trkpt lat="43.47968739818404" lon="12.273762156445642"><ele>459.0</ele><time>2026-04-19T09:16:21.999Z</time></trkpt><trkpt lat="43.4795980093694" lon="12.273614683227997"><ele>459.0</ele><time>2026-04-19T09:16:22.999Z</time></trkpt><trkpt lat="43.47956547326193" lon="12.273512385734822"><ele>459.0</ele><time>2026-04-19T09:16:23.999Z</time></trkpt><trkpt lat="43.479548921360895" lon="12.273349693178835"><ele>459.0</ele><time>2026-04-19T09:16:24.999Z</time></trkpt><trkpt lat="43.479587806062725" lon="12.273238141081904"><ele>459.0</ele><time>2026-04-19T09:16:25.999Z</time></trkpt><trkpt lat="43.47965123610764" lon="12.273122806319703"><ele>459.0</ele><time>2026-04-19T09:16:26.999Z</time></trkpt><trkpt lat="43.479802086964334" lon="12.272985114881958"><ele>459.0</ele><time>2026-04-19T09:16:27.999Z</time></trkpt><trkpt lat="43.47999448945274" lon="12.27298080727796"><ele>459.0</ele><time>2026-04-19T09:16:28.999Z</time></trkpt><trkpt lat="43.48013390219098" lon="12.273058531245285"><ele>459.0</ele><time>2026-04-19T09:16:29.999Z</time></trkpt><trkpt lat="43.48029701093957" lon="12.273179389632798"><ele>459.0</ele><time>2026-04-19T09:16:30.999Z</time></trkpt><trkpt lat="43.4804476354381" lon="12.273278657448198"><ele>458.66666666666663</ele><time>2026-04-19T09:16:31.999Z</time></trkpt><trkpt lat="43.48064108992563" lon="12.273348622563224"><ele>458.3333333333333</ele><time>2026-04-19T09:16:32.999Z</time></trkpt><trkpt lat="43.4808210765154" lon="12.273302971583332"><ele>458.0</ele><time>2026-04-19T09:16:33.999Z</time></trkpt><trkpt lat="43.480960147757195" lon="12.273187030504712"><ele>455.0</ele><time>2026-04-19T09:16:34.999Z</time></trkpt><trkpt lat="43.481039698188205" lon="12.273034923332991"><ele>452.0</ele><time>2026-04-19T09:16:35.999Z</time></trkpt><trkpt lat="43.48105727192402" lon="12.27281825596498"><ele>449.0</ele><time>2026-04-19T09:16:36.999Z</time></trkpt><trkpt lat="43.48100947669892" lon="12.272566777686837"><ele>448.0</ele><time>2026-04-19T09:16:37.999Z</time></trkpt><trkpt lat="43.48093018697714" lon="12.27218687594774"><ele>447.0</ele><time>2026-04-19T09:16:38.999Z</time></trkpt><trkpt lat="43.48084094000276" lon="12.27185647986996"><ele>447.0</ele><time>2026-04-19T09:16:39.999Z</time></trkpt><trkpt lat="43.480742943041385" lon="12.271528461301582"><ele>447.0</ele><time>2026-04-19T09:16:40.999Z</time></trkpt><trkpt lat="43.480626897949364" lon="12.271198732078203"><ele>450.0</ele><time>2026-04-19T09:16:41.999Z</time></trkpt><trkpt lat="43.48049228172285" lon="12.270900390992518"><ele>453.0</ele><time>2026-04-19T09:16:42.999Z</time></trkpt><trkpt lat="43.48037234496022" lon="12.270623832179236"><ele>446.0</ele><time>2026-04-19T09:16:43.999Z</time></trkpt><trkpt lat="43.48023794437481" lon="12.270366196025897"><ele>439.0</ele><time>2026-04-19T09:16:44.999Z</time></trkpt><trkpt lat="43.48006437929191" lon="12.27017254282442"><ele>439.0</ele><time>2026-04-19T09:16:45.999Z</time></trkpt><trkpt lat="43.47985631493037" lon="12.269946690912338"><ele>439.0</ele><time>2026-04-19T09:16:46.999Z</time></trkpt><trkpt lat="43.47961717571866" lon="12.269681697201717"><ele>434.0</ele><time>2026-04-19T09:16:47.999Z</time></trkpt><trkpt lat="43.47938258421465" lon="12.269391892407716"><ele>429.0</ele><time>2026-04-19T09:16:48.999Z</time></trkpt><trkpt lat="43.47912947650846" lon="12.269146060506968"><ele>429.5</ele><time>2026-04-19T09:16:49.999Z</time></trkpt><trkpt lat="43.478853022743756" lon="12.268932744609188"><ele>430.0</ele><time>2026-04-19T09:16:50.999Z</time></trkpt><trkpt lat="43.4785912915571" lon="12.268738017310625"><ele>428.0</ele><time>2026-04-19T09:16:51.999Z</time></trkpt><trkpt lat="43.47835809289107" lon="12.268494466190734"><ele>426.0</ele><time>2026-04-19T09:16:52.999Z</time></trkpt><trkpt lat="43.47814763645576" lon="12.268183340076279"><ele>428.0</ele><time>2026-04-19T09:16:53.999Z</time></trkpt><trkpt lat="43.477946263522355" lon="12.267937176701473"><ele>430.0</ele><time>2026-04-19T09:16:54.999Z</time></trkpt><trkpt lat="43.477777549916595" lon="12.26767427373245"><ele>428.0</ele><time>2026-04-19T09:16:56Z</time></trkpt><trkpt lat="43.477612071093375" lon="12.26744463599799"><ele>426.0</ele><time>2026-04-19T09:16:57Z</time></trkpt><trkpt lat="43.477463820905655" lon="12.267254610660569"><ele>424.0</ele><time>2026-04-19T09:16:58Z</time></trkpt><trkpt lat="43.477316752036565" lon="12.267032412105024"><ele>424.0</ele><time>2026-04-19T09:16:59Z</time></trkpt><trkpt lat="43.477219707736865" lon="12.26679019592627"><ele>424.0</ele><time>2026-04-19T09:17:00Z</time></trkpt><trkpt lat="43.47714528607981" lon="12.266554393532152"><ele>424.0</ele><time>2026-04-19T09:17:01Z</time></trkpt><trkpt lat="43.47708170029711" lon="12.266293739153964"><ele>411.5</ele><time>2026-04-19T09:17:02Z</time></trkpt><trkpt lat="43.477017724484895" lon="12.2659445437109"><ele>399.0</ele><time>2026-04-19T09:17:03Z</time></trkpt><trkpt lat="43.47697542211911" lon="12.265674094521279"><ele>399.66666666666663</ele><time>2026-04-19T09:17:04Z</time></trkpt><trkpt lat="43.4769436462098" lon="12.265411659610345"><ele>400.3333333333333</ele><time>2026-04-19T09:17:05Z</time></trkpt><trkpt lat="43.47693934688223" lon="12.265201663044834"><ele>401.0</ele><time>2026-04-19T09:17:06Z</time></trkpt><trkpt lat="43.47696545813346" lon="12.265048765993802"><ele>401.0</ele><time>2026-04-19T09:17:07Z</time></trkpt><trkpt lat="43.47704409416158" lon="12.26488113792026"><ele>401.0</ele><time>2026-04-19T09:17:08Z</time></trkpt><trkpt lat="43.477133726616465" lon="12.264776409585542"><ele>401.0</ele><time>2026-04-19T09:17:09Z</time></trkpt><trkpt lat="43.47723555637567" lon="12.264746933966977"><ele>401.0</ele><time>2026-04-19T09:17:10Z</time></trkpt><trkpt lat="43.47734271538377" lon="12.26476718863154"><ele>404.3333333333333</ele><time>2026-04-19T09:17:11Z</time></trkpt><trkpt lat="43.47752100093821" lon="12.2647958332111"><ele>407.66666666666663</ele><time>2026-04-19T09:17:12Z</time></trkpt><trkpt lat="43.477745270647574" lon="12.264851053745069"><ele>411.0</ele><time>2026-04-19T09:17:13Z</time></trkpt><trkpt lat="43.47792708249429" lon="12.264907785719389"><ele>409.66666666666663</ele><time>2026-04-19T09:17:14Z</time></trkpt><trkpt lat="43.47811778630414" lon="12.264979045876688"><ele>408.3333333333333</ele><time>2026-04-19T09:17:15Z</time></trkpt><trkpt lat="43.47830564150051" lon="12.265051316437985"><ele>407.0</ele><time>2026-04-19T09:17:16Z</time></trkpt><trkpt lat="43.47845343926404" lon="12.265108629751767"><ele>407.0</ele><time>2026-04-19T09:17:17Z</time></trkpt><trkpt lat="43.47861885687527" lon="12.265157087692796"><ele>407.0</ele><time>2026-04-19T09:17:18Z</time></trkpt><trkpt lat="43.478761721946526" lon="12.26522661666543"><ele>407.0</ele><time>2026-04-19T09:17:19Z</time></trkpt><trkpt lat="43.47887569968998" lon="12.26527816006213"><ele>407.0</ele><time>2026-04-19T09:17:20Z</time></trkpt><trkpt lat="43.47896210930875" lon="12.265302694226305"><ele>403.25</ele><time>2026-04-19T09:17:21Z</time></trkpt><trkpt lat="43.47906005158097" lon="12.26511184294996"><ele>399.5</ele><time>2026-04-19T09:17:23Z</time></trkpt><trkpt lat="43.47904498395582" lon="12.264952622229714"><ele>395.75</ele><time>2026-04-19T09:17:24Z</time></trkpt><trkpt lat="43.47896477116485" lon="12.264831833440516"><ele>392.0</ele><time>2026-04-19T09:17:25Z</time></trkpt><trkpt lat="43.47883958524175" lon="12.26472194113088"><ele>391.0</ele><time>2026-04-19T09:17:26Z</time></trkpt><trkpt lat="43.47866340730764" lon="12.2646161942954"><ele>390.0</ele><time>2026-04-19T09:17:27Z</time></trkpt><trkpt lat="43.478470685808084" lon="12.264503212342968"><ele>389.0</ele><time>2026-04-19T09:17:28Z</time></trkpt><trkpt lat="43.47831632895171" lon="12.26442224917695"><ele>389.0</ele><time>2026-04-19T09:17:29Z</time></trkpt><trkpt lat="43.478153164241206" lon="12.264340069779964"><ele>389.0</ele><time>2026-04-19T09:17:30Z</time></trkpt><trkpt lat="43.47796516522595" lon="12.264282422330592"><ele>389.0</ele><time>2026-04-19T09:17:31Z</time></trkpt><trkpt lat="43.4777333365862" lon="12.264226979101329"><ele>389.66666666666663</ele><time>2026-04-19T09:17:32Z</time></trkpt><trkpt lat="43.47752782926443" lon="12.264189745763899"><ele>390.33333333333337</ele><time>2026-04-19T09:17:33Z</time></trkpt><trkpt lat="43.47733165571275" lon="12.264149421023104"><ele>391.0</ele><time>2026-04-19T09:17:34Z</time></trkpt><trkpt lat="43.477237149787065" lon="12.264115875816785"><ele>391.00000000000006</ele><time>2026-04-19T09:17:35Z</time></trkpt><trkpt lat="43.47714888518322" lon="12.264090480470445"><ele>391.0</ele><time>2026-04-19T09:17:36Z</time></trkpt><trkpt lat="43.47703634131984" lon="12.264057633482663"><ele>391.0</ele><time>2026-04-19T09:17:38Z</time></trkpt><trkpt lat="43.47696573824763" lon="12.264062756442394"><ele>391.0</ele><time>2026-04-19T09:17:41Z</time></trkpt><trkpt lat="43.477009349710634" lon="12.264135861039287"><ele>391.00000000000006</ele><time>2026-04-19T09:20:13Z</time></trkpt><trkpt lat="43.47710085009698" lon="12.264151939868627"><ele>391.0</ele><time>2026-04-19T09:20:19Z</time></trkpt><trkpt lat="43.47736455887087" lon="12.264165047861109"><ele>391.0</ele><time>2026-04-19T09:20:22Z</time></trkpt><trkpt lat="43.477497172071104" lon="12.264191277147159"><ele>391.0</ele><time>2026-04-19T09:20:23Z</time></trkpt><trkpt lat="43.47766158376545" lon="12.264231435230792"><ele>391.0</ele><time>2026-04-19T09:20:24Z</time></trkpt><trkpt lat="43.477798797502366" lon="12.264331390447405"><ele>391.0</ele><time>2026-04-19T09:20:25Z</time></trkpt><trkpt lat="43.47792619765488" lon="12.264360292055686"><ele>391.0</ele><time>2026-04-19T09:20:26Z</time></trkpt><trkpt lat="43.478046627497726" lon="12.264387144290506"><ele>391.0</ele><time>2026-04-19T09:20:27Z</time></trkpt><trkpt lat="43.47811525473576" lon="12.264407715304579"><ele>391.0</ele><time>2026-04-19T09:20:28Z</time></trkpt><trkpt lat="43.47822087401379" lon="12.264448946169273"><ele>391.0</ele><time>2026-04-19T09:20:29Z</time></trkpt><trkpt lat="43.478322063930015" lon="12.264499081322791"><ele>390.6</ele><time>2026-04-19T09:20:29.999Z</time></trkpt><trkpt lat="43.47843087126166" lon="12.264558928834346"><ele>390.20000000000005</ele><time>2026-04-19T09:20:30.999Z</time></trkpt><trkpt lat="43.47853467803994" lon="12.264619154719698"><ele>389.79999999999995</ele><time>2026-04-19T09:20:31.999Z</time></trkpt><trkpt lat="43.47860068182875" lon="12.264657455591927"><ele>389.4</ele><time>2026-04-19T09:20:32.999Z</time></trkpt><trkpt lat="43.47870259518263" lon="12.264716689007345"><ele>389.0</ele><time>2026-04-19T09:20:33.999Z</time></trkpt><trkpt lat="43.47880747286961" lon="12.264779314032912"><ele>389.6</ele><time>2026-04-19T09:20:34.999Z</time></trkpt><trkpt lat="43.478896442033715" lon="12.264842460262399"><ele>390.2</ele><time>2026-04-19T09:20:35.999Z</time></trkpt><trkpt lat="43.47897110672058" lon="12.26492357278478"><ele>390.8</ele><time>2026-04-19T09:20:36.999Z</time></trkpt><trkpt lat="43.478995231030325" lon="12.26501687869163"><ele>391.40000000000003</ele><time>2026-04-19T09:20:37.999Z</time></trkpt><trkpt lat="43.478966067826626" lon="12.265149923618331"><ele>392.0</ele><time>2026-04-19T09:20:38.999Z</time></trkpt><trkpt lat="43.478895872107266" lon="12.265227415291514"><ele>392.0</ele><time>2026-04-19T09:20:39.999Z</time></trkpt><trkpt lat="43.47880941678323" lon="12.265221779686211"><ele>392.0</ele><time>2026-04-19T09:20:40.999Z</time></trkpt><trkpt lat="43.47869750804612" lon="12.265166818844524"><ele>392.0</ele><time>2026-04-19T09:20:41.999Z</time></trkpt><trkpt lat="43.478458932431394" lon="12.265062800246952"><ele>399.5</ele><time>2026-04-19T09:20:43.999Z</time></trkpt><trkpt lat="43.47816196832966" lon="12.264948553965304"><ele>407.0</ele><time>2026-04-19T09:20:44.999Z</time></trkpt><trkpt lat="43.4778773854964" lon="12.264844479818292"><ele>399.0</ele><time>2026-04-19T09:20:45.999Z</time></trkpt><trkpt lat="43.47756318244239" lon="12.264758912043563"><ele>391.0</ele><time>2026-04-19T09:20:46.999Z</time></trkpt><trkpt lat="43.47732753910705" lon="12.264716124231743"><ele>391.0</ele><time>2026-04-19T09:20:47.999Z</time></trkpt><trkpt lat="43.47722349234609" lon="12.264711880562633"><ele>391.0</ele><time>2026-04-19T09:20:48.999Z</time></trkpt><trkpt lat="43.47708281771641" lon="12.264711391261347"><ele>391.0</ele><time>2026-04-19T09:20:49.999Z</time></trkpt><trkpt lat="43.47695896340855" lon="12.264778319076282"><ele>391.0</ele><time>2026-04-19T09:20:50.999Z</time></trkpt><trkpt lat="43.47690852800311" lon="12.264973571727344"><ele>393.6666666666667</ele><time>2026-04-19T09:20:51.999Z</time></trkpt><trkpt lat="43.47688413151767" lon="12.265181554652747"><ele>396.33333333333337</ele><time>2026-04-19T09:20:52.999Z</time></trkpt><trkpt lat="43.476892048654314" lon="12.265435129745399"><ele>399.0</ele><time>2026-04-19T09:20:53.999Z</time></trkpt><trkpt lat="43.476913992972754" lon="12.26571282809033"><ele>399.0</ele><time>2026-04-19T09:20:54.999Z</time></trkpt><trkpt lat="43.47694646291564" lon="12.265993023128937"><ele>399.0</ele><time>2026-04-19T09:20:55.999Z</time></trkpt><trkpt lat="43.477002883198374" lon="12.266364986808512"><ele>399.5</ele><time>2026-04-19T09:20:56.999Z</time></trkpt><trkpt lat="43.47710042477471" lon="12.266718580733347"><ele>400.0</ele><time>2026-04-19T09:20:57.999Z</time></trkpt><trkpt lat="43.47722759277429" lon="12.267023869509389"><ele>407.5</ele><time>2026-04-19T09:20:58.999Z</time></trkpt><trkpt lat="43.47739930075722" lon="12.267334178034162"><ele>415.0</ele><time>2026-04-19T09:20:59.999Z</time></trkpt><trkpt lat="43.47760305131007" lon="12.267636263476927"><ele>415.0</ele><time>2026-04-19T09:21:00.999Z</time></trkpt><trkpt lat="43.47787328092899" lon="12.2679827119076"><ele>415.0</ele><time>2026-04-19T09:21:01.999Z</time></trkpt><trkpt lat="43.47813311554938" lon="12.268341884239303"><ele>420.5</ele><time>2026-04-19T09:21:02.999Z</time></trkpt><trkpt lat="43.478356202627445" lon="12.268644575031951"><ele>426.0</ele><time>2026-04-19T09:21:03.999Z</time></trkpt><trkpt lat="43.47859027245718" lon="12.268901824169413"><ele>427.5</ele><time>2026-04-19T09:21:04.999Z</time></trkpt><trkpt lat="43.478859073130344" lon="12.269135538054087"><ele>429.0</ele><time>2026-04-19T09:21:05.999Z</time></trkpt><trkpt lat="43.47918411672377" lon="12.269435051028132"><ele>429.0</ele><time>2026-04-19T09:21:06.999Z</time></trkpt><trkpt lat="43.47948017172006" lon="12.269694590910696"><ele>429.0</ele><time>2026-04-19T09:21:08Z</time></trkpt><trkpt lat="43.47973576651125" lon="12.269955859490528"><ele>434.0</ele><time>2026-04-19T09:21:09Z</time></trkpt><trkpt lat="43.47997234671547" lon="12.270238166734268"><ele>439.0</ele><time>2026-04-19T09:21:10Z</time></trkpt><trkpt lat="43.48018729883145" lon="12.270485413632535"><ele>434.0</ele><time>2026-04-19T09:21:11Z</time></trkpt><trkpt lat="43.48034892329154" lon="12.2707574700135"><ele>429.0</ele><time>2026-04-19T09:21:12Z</time></trkpt><trkpt lat="43.480473486630466" lon="12.271076645525243"><ele>438.0</ele><time>2026-04-19T09:21:13Z</time></trkpt><trkpt lat="43.48061442508015" lon="12.271448985955633"><ele>447.0</ele><time>2026-04-19T09:21:14Z</time></trkpt><trkpt lat="43.48074812613548" lon="12.27183241417601"><ele>447.0</ele><time>2026-04-19T09:21:15Z</time></trkpt><trkpt lat="43.48085161789174" lon="12.272253303769382"><ele>447.0</ele><time>2026-04-19T09:21:16Z</time></trkpt><trkpt lat="43.48093644180894" lon="12.272628845025823"><ele>447.5</ele><time>2026-04-19T09:21:17Z</time></trkpt><trkpt lat="43.48097214284254" lon="12.272830956508384"><ele>448.0</ele><time>2026-04-19T09:21:18Z</time></trkpt><trkpt lat="43.480976666130985" lon="12.273050848995743"><ele>448.5</ele><time>2026-04-19T09:21:19Z</time></trkpt><trkpt lat="43.48091523241386" lon="12.273166890445468"><ele>449.0</ele><time>2026-04-19T09:21:20Z</time></trkpt><trkpt lat="43.48086343884529" lon="12.27324213872835"><ele>451.25</ele><time>2026-04-19T09:21:21Z</time></trkpt><trkpt lat="43.48075852303682" lon="12.273296505456399"><ele>453.5</ele><time>2026-04-19T09:21:22Z</time></trkpt><trkpt lat="43.48062234772599" lon="12.273307853110838"><ele>455.75</ele><time>2026-04-19T09:21:23Z</time></trkpt><trkpt lat="43.48048550543521" lon="12.273300435854145"><ele>458.0</ele><time>2026-04-19T09:21:24Z</time></trkpt><trkpt lat="43.48041887522002" lon="12.27320929972911"><ele>451.0</ele><time>2026-04-19T09:21:25Z</time></trkpt><trkpt lat="43.48023071498738" lon="12.273081776843943"><ele>444.0</ele><time>2026-04-19T09:21:26Z</time></trkpt><trkpt lat="43.47999783272676" lon="12.272950997363534"><ele>444.0</ele><time>2026-04-19T09:21:27Z</time></trkpt><trkpt lat="43.479685212545895" lon="12.273024309820737"><ele>444.0</ele><time>2026-04-19T09:21:28Z</time></trkpt><trkpt lat="43.47954346490268" lon="12.273213631584666"><ele>447.0</ele><time>2026-04-19T09:21:29Z</time></trkpt><trkpt lat="43.47950157275823" lon="12.273455411426403"><ele>450.0</ele><time>2026-04-19T09:21:30Z</time></trkpt><trkpt lat="43.47956217515918" lon="12.273677629243169"><ele>453.0</ele><time>2026-04-19T09:21:31Z</time></trkpt><trkpt lat="43.47968523940217" lon="12.273866121649485"><ele>454.5</ele><time>2026-04-19T09:21:32Z</time></trkpt><trkpt lat="43.47989195375101" lon="12.274043083014295"><ele>456.0</ele><time>2026-04-19T09:21:33Z</time></trkpt><trkpt lat="43.48013053493731" lon="12.27419871082246"><ele>456.0</ele><time>2026-04-19T09:21:34Z</time></trkpt><trkpt lat="43.48032925302831" lon="12.27435681229334"><ele>456.0</ele><time>2026-04-19T09:21:35Z</time></trkpt><trkpt lat="43.48054906037764" lon="12.274432590093351"><ele>457.5</ele><time>2026-04-19T09:21:36Z</time></trkpt><trkpt lat="43.48079972641952" lon="12.274457878652164"><ele>459.0</ele><time>2026-04-19T09:21:37Z</time></trkpt><trkpt lat="43.48107294880046" lon="12.274373476852555"><ele>460.5</ele><time>2026-04-19T09:21:38Z</time></trkpt><trkpt lat="43.48132109257559" lon="12.274370557749926"><ele>462.0</ele><time>2026-04-19T09:21:39Z</time></trkpt><trkpt lat="43.48156467887681" lon="12.274460305772292"><ele>462.0</ele><time>2026-04-19T09:21:40Z</time></trkpt><trkpt lat="43.48184298488329" lon="12.274544466777426"><ele>462.0</ele><time>2026-04-19T09:21:41Z</time></trkpt><trkpt lat="43.482095700638716" lon="12.274619401253204"><ele>462.0</ele><time>2026-04-19T09:21:42Z</time></trkpt><trkpt lat="43.48230054007129" lon="12.274693717152122"><ele>462.0</ele><time>2026-04-19T09:21:43Z</time></trkpt><trkpt lat="43.48250066017389" lon="12.274785266906427"><ele>462.0</ele><time>2026-04-19T09:21:44Z</time></trkpt><trkpt lat="43.48263493862555" lon="12.274962570881875"><ele>462.0</ele><time>2026-04-19T09:21:45Z</time></trkpt><trkpt lat="43.482772924493425" lon="12.275196929083407"><ele>462.0</ele><time>2026-04-19T09:21:46Z</time></trkpt><trkpt lat="43.48292519885616" lon="12.275460637555069"><ele>467.0</ele><time>2026-04-19T09:21:47Z</time></trkpt><trkpt lat="43.48329657523699" lon="12.275941534322461"><ele>467.0</ele><time>2026-04-19T09:21:49Z</time></trkpt><trkpt lat="43.48335204912757" lon="12.276182223399305"><ele>467.0</ele><time>2026-04-19T09:21:50Z</time></trkpt><trkpt lat="43.483234029484315" lon="12.276307267580403"><ele>467.0</ele><time>2026-04-19T09:21:51Z</time></trkpt><trkpt lat="43.483083786959995" lon="12.276480807450943"><ele>469.5</ele><time>2026-04-19T09:21:52Z</time></trkpt><trkpt lat="43.482856853788256" lon="12.27643546613355"><ele>472.0</ele><time>2026-04-19T09:21:53Z</time></trkpt><trkpt lat="43.48258430222143" lon="12.276449762003084"><ele>472.0</ele><time>2026-04-19T09:21:54Z</time></trkpt><trkpt lat="43.48231363029866" lon="12.276459623348094"><ele>472.0</ele><time>2026-04-19T09:21:55Z</time></trkpt><trkpt lat="43.48209376266011" lon="12.276493957979268"><ele>468.0</ele><time>2026-04-19T09:21:56Z</time></trkpt><trkpt lat="43.48193629093799" lon="12.276594415210775"><ele>464.0</ele><time>2026-04-19T09:21:57Z</time></trkpt><trkpt lat="43.481841692679986" lon="12.276743239165619"><ele>460.0</ele><time>2026-04-19T09:21:58Z</time></trkpt><trkpt lat="43.48180496181172" lon="12.27698777428446"><ele>460.0</ele><time>2026-04-19T09:21:59Z</time></trkpt><trkpt lat="43.481890056740156" lon="12.277235148428874"><ele>460.0</ele><time>2026-04-19T09:22:00Z</time></trkpt><trkpt lat="43.48204530778422" lon="12.277421150312392"><ele>460.0</ele><time>2026-04-19T09:22:01Z</time></trkpt><trkpt lat="43.482226011940135" lon="12.27762789426184"><ele>467.0</ele><time>2026-04-19T09:22:02Z</time></trkpt><trkpt lat="43.48244762337407" lon="12.27779618449384"><ele>474.0</ele><time>2026-04-19T09:22:03Z</time></trkpt><trkpt lat="43.48269552781164" lon="12.277800500155204"><ele>474.0</ele><time>2026-04-19T09:22:04Z</time></trkpt><trkpt lat="43.48291182877599" lon="12.277890768080656"><ele>474.0</ele><time>2026-04-19T09:22:05Z</time></trkpt><trkpt lat="43.483138197709" lon="12.278097208767534"><ele>472.5</ele><time>2026-04-19T09:22:06Z</time></trkpt><trkpt lat="43.48340327523698" lon="12.278341119486404"><ele>471.0</ele><time>2026-04-19T09:22:07Z</time></trkpt><trkpt lat="43.48374339863775" lon="12.27865026062015"><ele>470.5</ele><time>2026-04-19T09:22:08Z</time></trkpt><trkpt lat="43.48400028882462" lon="12.278884617723717"><ele>470.0</ele><time>2026-04-19T09:22:09Z</time></trkpt><trkpt lat="43.484168783856454" lon="12.279075546030118"><ele>472.5</ele><time>2026-04-19T09:22:10Z</time></trkpt><trkpt lat="43.484366162946685" lon="12.279244349586824"><ele>475.0</ele><time>2026-04-19T09:22:11Z</time></trkpt><trkpt lat="43.48446288024255" lon="12.279539196385883"><ele>479.0</ele><time>2026-04-19T09:22:12Z</time></trkpt><trkpt lat="43.48461202322614" lon="12.279946892411527"><ele>483.0</ele><time>2026-04-19T09:22:13Z</time></trkpt><trkpt lat="43.484765820398245" lon="12.280323885026984"><ele>484.0</ele><time>2026-04-19T09:22:14Z</time></trkpt><trkpt lat="43.48488241885112" lon="12.280622007320387"><ele>485.0</ele><time>2026-04-19T09:22:15Z</time></trkpt><trkpt lat="43.48498964760325" lon="12.280854777511532"><ele>486.0</ele><time>2026-04-19T09:22:16Z</time></trkpt><trkpt lat="43.485014401978376" lon="12.281087407086886"><ele>486.0</ele><time>2026-04-19T09:22:17Z</time></trkpt><trkpt lat="43.48497317804645" lon="12.281307656839044"><ele>486.0</ele><time>2026-04-19T09:22:18Z</time></trkpt><trkpt lat="43.484876447290254" lon="12.281596630636324"><ele>486.0</ele><time>2026-04-19T09:22:19Z</time></trkpt><trkpt lat="43.48478027133407" lon="12.281793308232265"><ele>487.66666666666663</ele><time>2026-04-19T09:22:20Z</time></trkpt><trkpt lat="43.484796040473164" lon="12.281943564605012"><ele>489.3333333333333</ele><time>2026-04-19T09:22:21Z</time></trkpt><trkpt lat="43.484925738673944" lon="12.28206183819173"><ele>491.0</ele><time>2026-04-19T09:22:22Z</time></trkpt><trkpt lat="43.48513607197885" lon="12.282196289974033"><ele>492.5</ele><time>2026-04-19T09:22:23Z</time></trkpt><trkpt lat="43.4853821063216" lon="12.282380073434746"><ele>494.0</ele><time>2026-04-19T09:22:24Z</time></trkpt><trkpt lat="43.485648351784086" lon="12.282555816684697"><ele>494.0</ele><time>2026-04-19T09:22:25Z</time></trkpt><trkpt lat="43.48596353115262" lon="12.282778698637895"><ele>494.0</ele><time>2026-04-19T09:22:26Z</time></trkpt><trkpt lat="43.48621094217157" lon="12.282947077357509"><ele>493.66666666666663</ele><time>2026-04-19T09:22:27Z</time></trkpt><trkpt lat="43.48638587784064" lon="12.283084172424234"><ele>493.33333333333337</ele><time>2026-04-19T09:22:28Z</time></trkpt><trkpt lat="43.48655386709603" lon="12.28321008952039"><ele>493.0</ele><time>2026-04-19T09:22:29Z</time></trkpt><trkpt lat="43.486664089275465" lon="12.2832830050049"><ele>490.6666666666667</ele><time>2026-04-19T09:22:30Z</time></trkpt><trkpt lat="43.486772256094355" lon="12.283359134388485"><ele>488.33333333333337</ele><time>2026-04-19T09:22:31Z</time></trkpt><trkpt lat="43.48691804069283" lon="12.283447003243422"><ele>486.0</ele><time>2026-04-19T09:22:32Z</time></trkpt><trkpt lat="43.48713546782833" lon="12.283602876505167"><ele>487.5</ele><time>2026-04-19T09:22:33Z</time></trkpt><trkpt lat="43.48740910940326" lon="12.283815231808585"><ele>489.0</ele><time>2026-04-19T09:22:34Z</time></trkpt><trkpt lat="43.48762703276355" lon="12.28396265023852"><ele>489.0</ele><time>2026-04-19T09:22:35Z</time></trkpt><trkpt lat="43.48780510673243" lon="12.284170308099096"><ele>489.0</ele><time>2026-04-19T09:22:36Z</time></trkpt><trkpt lat="43.48793307243693" lon="12.28433780202556"><ele>489.0</ele><time>2026-04-19T09:22:37Z</time></trkpt><trkpt lat="43.48808304963319" lon="12.284419080645808"><ele>494.0</ele><time>2026-04-19T09:22:38Z</time></trkpt><trkpt lat="43.48828908033162" lon="12.284461265622978"><ele>499.0</ele><time>2026-04-19T09:22:38.999Z</time></trkpt><trkpt lat="43.48850656588122" lon="12.284442331543087"><ele>504.0</ele><time>2026-04-19T09:22:39.999Z</time></trkpt><trkpt lat="43.48877461844301" lon="12.284422749180031"><ele>508.5</ele><time>2026-04-19T09:22:40.999Z</time></trkpt><trkpt lat="43.48905205273348" lon="12.2844008314736"><ele>513.0</ele><time>2026-04-19T09:22:41.999Z</time></trkpt><trkpt lat="43.48928552776188" lon="12.284569578001337"><ele>510.0</ele><time>2026-04-19T09:22:42.999Z</time></trkpt><trkpt lat="43.48954408071756" lon="12.28481053878369"><ele>507.0</ele><time>2026-04-19T09:22:43.999Z</time></trkpt><trkpt lat="43.48974838144398" lon="12.284961356942057"><ele>507.0</ele><time>2026-04-19T09:22:44.999Z</time></trkpt><trkpt lat="43.48993685667627" lon="12.285097736896493"><ele>507.0</ele><time>2026-04-19T09:22:45.999Z</time></trkpt><trkpt lat="43.49002571848542" lon="12.285259450049935"><ele>507.0</ele><time>2026-04-19T09:22:46.999Z</time></trkpt><trkpt lat="43.49005801173431" lon="12.285452324039255"><ele>505.33333333333337</ele><time>2026-04-19T09:22:47.999Z</time></trkpt><trkpt lat="43.49004758561359" lon="12.285703902674783"><ele>503.6666666666667</ele><time>2026-04-19T09:22:48.999Z</time></trkpt><trkpt lat="43.49004254999414" lon="12.28602084937918"><ele>502.0</ele><time>2026-04-19T09:22:49.999Z</time></trkpt><trkpt lat="43.49005810547621" lon="12.286376067354547"><ele>500.33333333333337</ele><time>2026-04-19T09:22:50.999Z</time></trkpt><trkpt lat="43.4901535274213" lon="12.286667376767335"><ele>498.66666666666663</ele><time>2026-04-19T09:22:51.999Z</time></trkpt><trkpt lat="43.49029916680256" lon="12.286864481220341"><ele>497.0</ele><time>2026-04-19T09:22:52.999Z</time></trkpt><trkpt lat="43.490509597266744" lon="12.287046082936943"><ele>498.0</ele><time>2026-04-19T09:22:53.999Z</time></trkpt><trkpt lat="43.490745110024676" lon="12.287213663918239"><ele>499.0</ele><time>2026-04-19T09:22:54.999Z</time></trkpt><trkpt lat="43.49102158663383" lon="12.28746051425617"><ele>508.0</ele><time>2026-04-19T09:22:55.999Z</time></trkpt><trkpt lat="43.4913155568514" lon="12.287733670029892"><ele>517.0</ele><time>2026-04-19T09:22:56.999Z</time></trkpt><trkpt lat="43.49167769426509" lon="12.288054353124052"><ele>516.5</ele><time>2026-04-19T09:22:57.999Z</time></trkpt><trkpt lat="43.4919718819712" lon="12.288304460549437"><ele>516.0</ele><time>2026-04-19T09:22:58.999Z</time></trkpt><trkpt lat="43.492210592266176" lon="12.28850910955362"><ele>516.0</ele><time>2026-04-19T09:22:59.999Z</time></trkpt><trkpt lat="43.49245711276092" lon="12.288707776992196"><ele>516.0</ele><time>2026-04-19T09:23:00.999Z</time></trkpt><trkpt lat="43.492678842699235" lon="12.28894080415342"><ele>518.0</ele><time>2026-04-19T09:23:01.999Z</time></trkpt><trkpt lat="43.49286841967868" lon="12.289278398671005"><ele>520.0</ele><time>2026-04-19T09:23:02.999Z</time></trkpt><trkpt lat="43.49305534481357" lon="12.28968802674475"><ele>517.5</ele><time>2026-04-19T09:23:03.999Z</time></trkpt><trkpt lat="43.493225250843516" lon="12.290013106930553"><ele>515.0</ele><time>2026-04-19T09:23:04.999Z</time></trkpt><trkpt lat="43.49338052969981" lon="12.290320307873861"><ele>519.0</ele><time>2026-04-19T09:23:05.999Z</time></trkpt><trkpt lat="43.49357118719496" lon="12.290592683713491"><ele>523.0</ele><time>2026-04-19T09:23:06.999Z</time></trkpt><trkpt lat="43.49375654234255" lon="12.29072687589214"><ele>523.0</ele><time>2026-04-19T09:23:07.999Z</time></trkpt><trkpt lat="43.49394188386689" lon="12.290918601245831"><ele>523.0</ele><time>2026-04-19T09:23:08.999Z</time></trkpt><trkpt lat="43.494085069039485" lon="12.291156314676284"><ele>521.0</ele><time>2026-04-19T09:23:09.999Z</time></trkpt><trkpt lat="43.49411026060884" lon="12.291475963580979"><ele>519.0</ele><time>2026-04-19T09:23:10.999Z</time></trkpt><trkpt lat="43.494129633035456" lon="12.291733102812326"><ele>517.0</ele><time>2026-04-19T09:23:11.999Z</time></trkpt><trkpt lat="43.49426519025276" lon="12.291999936311944"><ele>518.5</ele><time>2026-04-19T09:23:12.999Z</time></trkpt><trkpt lat="43.49446956639068" lon="12.292268767768725"><ele>520.0</ele><time>2026-04-19T09:23:14Z</time></trkpt><trkpt lat="43.49467346916781" lon="12.292507898754286"><ele>520.0</ele><time>2026-04-19T09:23:15Z</time></trkpt><trkpt lat="43.49488075947836" lon="12.292703308445738"><ele>520.0</ele><time>2026-04-19T09:23:16Z</time></trkpt><trkpt lat="43.49515600170238" lon="12.292839097086361"><ele>518.5</ele><time>2026-04-19T09:23:17Z</time></trkpt><trkpt lat="43.4954570460504" lon="12.29298125686825"><ele>517.0</ele><time>2026-04-19T09:23:18Z</time></trkpt><trkpt lat="43.495706254715415" lon="12.293107126213892"><ele>517.0</ele><time>2026-04-19T09:23:19Z</time></trkpt><trkpt lat="43.49593365014533" lon="12.293284639614546"><ele>517.0</ele><time>2026-04-19T09:23:20Z</time></trkpt><trkpt lat="43.49612156507445" lon="12.293482861583193"><ele>521.6666666666667</ele><time>2026-04-19T09:23:21Z</time></trkpt><trkpt lat="43.49628900903834" lon="12.293716777073914"><ele>526.3333333333334</ele><time>2026-04-19T09:23:22Z</time></trkpt><trkpt lat="43.4964013395123" lon="12.293917045453481"><ele>531.0</ele><time>2026-04-19T09:23:23Z</time></trkpt><trkpt lat="43.49646334906696" lon="12.294125406165481"><ele>531.0</ele><time>2026-04-19T09:23:24Z</time></trkpt><trkpt lat="43.49648340048645" lon="12.294297862394828"><ele>531.0</ele><time>2026-04-19T09:23:25Z</time></trkpt><trkpt lat="43.49643207062462" lon="12.294480659700051"><ele>531.0</ele><time>2026-04-19T09:23:26Z</time></trkpt><trkpt lat="43.49635113279551" lon="12.294616261770198"><ele>531.0</ele><time>2026-04-19T09:23:27Z</time></trkpt><trkpt lat="43.49623647223847" lon="12.294729456419255"><ele>528.0</ele><time>2026-04-19T09:23:28Z</time></trkpt><trkpt lat="43.49606494454195" lon="12.294859790101567"><ele>525.0</ele><time>2026-04-19T09:23:29Z</time></trkpt><trkpt lat="43.49591196616375" lon="12.294988759724326"><ele>522.0</ele><time>2026-04-19T09:23:30Z</time></trkpt><trkpt lat="43.49584949581732" lon="12.29518621683877"><ele>522.0</ele><time>2026-04-19T09:23:31Z</time></trkpt><trkpt lat="43.49588834522125" lon="12.295450415944917"><ele>522.0</ele><time>2026-04-19T09:23:32Z</time></trkpt><trkpt lat="43.49602939982481" lon="12.29565306714785"><ele>522.0</ele><time>2026-04-19T09:23:33Z</time></trkpt><trkpt lat="43.496187599323115" lon="12.295785504056102"><ele>527.5</ele><time>2026-04-19T09:23:34Z</time></trkpt><trkpt lat="43.49638998645615" lon="12.295929832215926"><ele>533.0</ele><time>2026-04-19T09:23:35Z</time></trkpt><trkpt lat="43.49668914099091" lon="12.296219170765715"><ele>532.0</ele><time>2026-04-19T09:23:36Z</time></trkpt><trkpt lat="43.496925726089245" lon="12.296466072339129"><ele>531.0</ele><time>2026-04-19T09:23:37Z</time></trkpt><trkpt lat="43.49714608403007" lon="12.296646126699972"><ele>531.0</ele><time>2026-04-19T09:23:38Z</time></trkpt><trkpt lat="43.49739752438247" lon="12.296761439290357"><ele>531.0</ele><time>2026-04-19T09:23:39Z</time></trkpt><trkpt lat="43.49764564478442" lon="12.296827883992027"><ele>531.0</ele><time>2026-04-19T09:23:40Z</time></trkpt><trkpt lat="43.49786928339314" lon="12.296841281103942"><ele>531.0</ele><time>2026-04-19T09:23:41Z</time></trkpt><trkpt lat="43.49810179150681" lon="12.296860669290856"><ele>534.3333333333334</ele><time>2026-04-19T09:23:42Z</time></trkpt><trkpt lat="43.498294161650925" lon="12.296849157429698"><ele>537.6666666666667</ele><time>2026-04-19T09:23:43Z</time></trkpt><trkpt lat="43.498403722125765" lon="12.29694562232165"><ele>541.0</ele><time>2026-04-19T09:23:44Z</time></trkpt><trkpt lat="43.498500976457976" lon="12.29712221604738"><ele>538.5</ele><time>2026-04-19T09:23:45Z</time></trkpt><trkpt lat="43.49854849899321" lon="12.29729132898482"><ele>536.0</ele><time>2026-04-19T09:23:46Z</time></trkpt><trkpt lat="43.49855255008395" lon="12.297484006723415"><ele>533.5</ele><time>2026-04-19T09:23:47Z</time></trkpt><trkpt lat="43.49847944566972" lon="12.297627901940098"><ele>531.0</ele><time>2026-04-19T09:23:48Z</time></trkpt><trkpt lat="43.498366296426624" lon="12.297718504394245"><ele>531.0</ele><time>2026-04-19T09:23:49Z</time></trkpt><trkpt lat="43.4982323484057" lon="12.297818867131175"><ele>531.0</ele><time>2026-04-19T09:23:50Z</time></trkpt><trkpt lat="43.49814927939394" lon="12.297871403497721"><ele>531.0</ele><time>2026-04-19T09:23:51Z</time></trkpt><trkpt lat="43.498108067025164" lon="12.297999144197599"><ele>531.0</ele><time>2026-04-19T09:23:52Z</time></trkpt><trkpt lat="43.49812517088859" lon="12.298139719790097"><ele>531.0</ele><time>2026-04-19T09:23:53Z</time></trkpt><trkpt lat="43.498187451762654" lon="12.298289919518698"><ele>531.5</ele><time>2026-04-19T09:23:54Z</time></trkpt><trkpt lat="43.49824217995354" lon="12.298446333607316"><ele>532.0</ele><time>2026-04-19T09:23:55Z</time></trkpt><trkpt lat="43.49832126048526" lon="12.298605918261979"><ele>532.5</ele><time>2026-04-19T09:23:56Z</time></trkpt><trkpt lat="43.49841016494165" lon="12.298806328490574"><ele>533.0</ele><time>2026-04-19T09:23:57Z</time></trkpt><trkpt lat="43.49852010451095" lon="12.299031796734793"><ele>529.5</ele><time>2026-04-19T09:23:58Z</time></trkpt><trkpt lat="43.49868267978073" lon="12.299339655598974"><ele>526.0</ele><time>2026-04-19T09:23:59Z</time></trkpt><trkpt lat="43.498871529687456" lon="12.299585547368013"><ele>534.0</ele><time>2026-04-19T09:24:00Z</time></trkpt><trkpt lat="43.49898519224398" lon="12.299859907184825"><ele>542.0</ele><time>2026-04-19T09:24:01Z</time></trkpt><trkpt lat="43.499041107399364" lon="12.30020591430726"><ele>542.0</ele><time>2026-04-19T09:24:02Z</time></trkpt><trkpt lat="43.499123371466624" lon="12.300557814123993"><ele>542.0</ele><time>2026-04-19T09:24:03Z</time></trkpt><trkpt lat="43.499250491262266" lon="12.300954606917976"><ele>539.3333333333333</ele><time>2026-04-19T09:24:04Z</time></trkpt><trkpt lat="43.499333738065175" lon="12.301284054544467"><ele>536.6666666666666</ele><time>2026-04-19T09:24:05Z</time></trkpt><trkpt lat="43.49937714056789" lon="12.301542611616853"><ele>534.0</ele><time>2026-04-19T09:24:06Z</time></trkpt><trkpt lat="43.49942903440842" lon="12.30182827767259"><ele>534.3333333333334</ele><time>2026-04-19T09:24:07Z</time></trkpt><trkpt lat="43.4995215877374" lon="12.30206082234023"><ele>534.6666666666667</ele><time>2026-04-19T09:24:08Z</time></trkpt><trkpt lat="43.49968481348261" lon="12.302281104700741"><ele>535.0</ele><time>2026-04-19T09:24:09Z</time></trkpt><trkpt lat="43.49988219709403" lon="12.302475138251793"><ele>535.0</ele><time>2026-04-19T09:24:10Z</time></trkpt><trkpt lat="43.500026595246496" lon="12.302595814473483"><ele>535.0</ele><time>2026-04-19T09:24:11Z</time></trkpt><trkpt lat="43.500183398999546" lon="12.302720323188638"><ele>535.0</ele><time>2026-04-19T09:24:12Z</time></trkpt><trkpt lat="43.50032731684937" lon="12.30274028107361"><ele>536.6666666666667</ele><time>2026-04-19T09:24:13Z</time></trkpt><trkpt lat="43.50045905160133" lon="12.302685003090247"><ele>538.3333333333334</ele><time>2026-04-19T09:24:14Z</time></trkpt><trkpt lat="43.50061727163109" lon="12.302585325250607"><ele>540.0</ele><time>2026-04-19T09:24:15Z</time></trkpt><trkpt lat="43.50080576355107" lon="12.30246998104744"><ele>540.0</ele><time>2026-04-19T09:24:16Z</time></trkpt><trkpt lat="43.50098968784864" lon="12.30245636898991"><ele>540.0</ele><time>2026-04-19T09:24:17Z</time></trkpt><trkpt lat="43.501180174389866" lon="12.302536439692888"><ele>540.0</ele><time>2026-04-19T09:24:18Z</time></trkpt><trkpt lat="43.50134603632426" lon="12.302738017905394"><ele>539.5</ele><time>2026-04-19T09:24:19Z</time></trkpt><trkpt lat="43.50156993218047" lon="12.302956516229303"><ele>539.0</ele><time>2026-04-19T09:24:20Z</time></trkpt><trkpt lat="43.501880279370695" lon="12.30324799187226"><ele>545.5</ele><time>2026-04-19T09:24:21Z</time></trkpt><trkpt lat="43.50215469626998" lon="12.303538438195307"><ele>552.0</ele><time>2026-04-19T09:24:22Z</time></trkpt><trkpt lat="43.502399744797856" lon="12.303772557293101"><ele>552.0</ele><time>2026-04-19T09:24:23Z</time></trkpt><trkpt lat="43.50258758849011" lon="12.303895752239768"><ele>552.0</ele><time>2026-04-19T09:24:24Z</time></trkpt><trkpt lat="43.50283487680334" lon="12.304014751808175"><ele>545.5</ele><time>2026-04-19T09:24:25Z</time></trkpt><trkpt lat="43.50305390329671" lon="12.304130872193344"><ele>539.0</ele><time>2026-04-19T09:24:26Z</time></trkpt><trkpt lat="43.50325685246673" lon="12.30424204563308"><ele>539.0</ele><time>2026-04-19T09:24:27Z</time></trkpt><trkpt lat="43.50344008544546" lon="12.304369888057424"><ele>539.0</ele><time>2026-04-19T09:24:28Z</time></trkpt><trkpt lat="43.5035879521504" lon="12.304524580050053"><ele>539.0</ele><time>2026-04-19T09:24:29Z</time></trkpt><trkpt lat="43.503703209614265" lon="12.304707587133251"><ele>539.75</ele><time>2026-04-19T09:24:30Z</time></trkpt><trkpt lat="43.503775777820486" lon="12.304906099497746"><ele>540.5</ele><time>2026-04-19T09:24:31Z</time></trkpt><trkpt lat="43.50381794549518" lon="12.305101392873178"><ele>541.25</ele><time>2026-04-19T09:24:32Z</time></trkpt><trkpt lat="43.50384714003454" lon="12.305268242373272"><ele>542.0</ele><time>2026-04-19T09:24:33Z</time></trkpt><trkpt lat="43.50385949222769" lon="12.30540489985798"><ele>542.0</ele><time>2026-04-19T09:24:34Z</time></trkpt><trkpt lat="43.503864851325" lon="12.305526096318648"><ele>542.0</ele><time>2026-04-19T09:24:35Z</time></trkpt><trkpt lat="43.50387931236909" lon="12.305648709878838"><ele>542.0</ele><time>2026-04-19T09:24:36Z</time></trkpt><trkpt lat="43.50390388265062" lon="12.305804390162551"><ele>542.0</ele><time>2026-04-19T09:24:37Z</time></trkpt><trkpt lat="43.503928482930974" lon="12.30598496702651"><ele>542.0</ele><time>2026-04-19T09:24:38Z</time></trkpt><trkpt lat="43.50394493521583" lon="12.306178210968607"><ele>542.0</ele><time>2026-04-19T09:24:39Z</time></trkpt><trkpt lat="43.50395303786097" lon="12.306392905880868"><ele>542.0</ele><time>2026-04-19T09:24:40Z</time></trkpt><trkpt lat="43.50396540573428" lon="12.306628910855517"><ele>542.0</ele><time>2026-04-19T09:24:41Z</time></trkpt><trkpt lat="43.50398222234911" lon="12.306863752656094"><ele>543.6666666666666</ele><time>2026-04-19T09:24:41.999Z</time></trkpt><trkpt lat="43.504003470550124" lon="12.307098242282402"><ele>545.3333333333334</ele><time>2026-04-19T09:24:42.999Z</time></trkpt><trkpt lat="43.50404518824246" lon="12.307331826244711"><ele>547.0</ele><time>2026-04-19T09:24:43.999Z</time></trkpt><trkpt lat="43.50415890427721" lon="12.307568644181499"><ele>549.5</ele><time>2026-04-19T09:24:44.999Z</time></trkpt><trkpt lat="43.50433892037086" lon="12.307787609384672"><ele>552.0</ele><time>2026-04-19T09:24:45.999Z</time></trkpt><trkpt lat="43.50456051754882" lon="12.30802299308135"><ele>555.5</ele><time>2026-04-19T09:24:46.999Z</time></trkpt><trkpt lat="43.50480546865866" lon="12.308301498923816"><ele>559.0</ele><time>2026-04-19T09:24:47.999Z</time></trkpt><trkpt lat="43.50505703682195" lon="12.308601362349599"><ele>559.0</ele><time>2026-04-19T09:24:48.999Z</time></trkpt><trkpt lat="43.50527778256032" lon="12.308861002658192"><ele>559.0</ele><time>2026-04-19T09:24:49.999Z</time></trkpt><trkpt lat="43.50542040273773" lon="12.309072899652964"><ele>559.6666666666667</ele><time>2026-04-19T09:24:50.999Z</time></trkpt><trkpt lat="43.505523465165375" lon="12.309247066596798"><ele>560.3333333333334</ele><time>2026-04-19T09:24:51.999Z</time></trkpt><trkpt lat="43.50560048457347" lon="12.309476377155514"><ele>561.0</ele><time>2026-04-19T09:24:52.999Z</time></trkpt><trkpt lat="43.505600938641706" lon="12.309782137179026"><ele>565.5</ele><time>2026-04-19T09:24:53.999Z</time></trkpt><trkpt lat="43.50559074099993" lon="12.310061633696101"><ele>570.0</ele><time>2026-04-19T09:24:54.999Z</time></trkpt><trkpt lat="43.50565331813896" lon="12.31040743147484"><ele>569.0</ele><time>2026-04-19T09:24:55.999Z</time></trkpt><trkpt lat="43.50579145138954" lon="12.310683008948091"><ele>568.0</ele><time>2026-04-19T09:24:56.999Z</time></trkpt><trkpt lat="43.50592594829735" lon="12.310931311113542"><ele>568.0</ele><time>2026-04-19T09:24:57.999Z</time></trkpt><trkpt lat="43.50612675336837" lon="12.311270733634283"><ele>568.0</ele><time>2026-04-19T09:24:58.999Z</time></trkpt><trkpt lat="43.506226472662796" lon="12.311573618730804"><ele>573.5</ele><time>2026-04-19T09:24:59.999Z</time></trkpt><trkpt lat="43.506264533677204" lon="12.311876113998032"><ele>579.0</ele><time>2026-04-19T09:25:00.999Z</time></trkpt><trkpt lat="43.50635812591227" lon="12.312207501397848"><ele>577.0</ele><time>2026-04-19T09:25:01.999Z</time></trkpt><trkpt lat="43.50647347450504" lon="12.312485155565128"><ele>575.0</ele><time>2026-04-19T09:25:02.999Z</time></trkpt><trkpt lat="43.50663251604628" lon="12.312772553465592"><ele>572.5</ele><time>2026-04-19T09:25:03.999Z</time></trkpt><trkpt lat="43.50683284199756" lon="12.31314524898409"><ele>570.0</ele><time>2026-04-19T09:25:04.999Z</time></trkpt><trkpt lat="43.506990491856186" lon="12.313408382670904"><ele>569.6666666666666</ele><time>2026-04-19T09:25:05.999Z</time></trkpt><trkpt lat="43.50708799380135" lon="12.313661655530295"><ele>569.3333333333333</ele><time>2026-04-19T09:25:06.999Z</time></trkpt><trkpt lat="43.507117818665876" lon="12.313913379594009"><ele>569.0</ele><time>2026-04-19T09:25:07.999Z</time></trkpt><trkpt lat="43.507132685151646" lon="12.314242724846851"><ele>576.0</ele><time>2026-04-19T09:25:08.999Z</time></trkpt><trkpt lat="43.5071452008679" lon="12.314620100160976"><ele>583.0</ele><time>2026-04-19T09:25:09.999Z</time></trkpt><trkpt lat="43.507156856487406" lon="12.315041364057349"><ele>585.5</ele><time>2026-04-19T09:25:10.999Z</time></trkpt><trkpt lat="43.507168930455684" lon="12.315408126001735"><ele>588.0</ele><time>2026-04-19T09:25:11.999Z</time></trkpt><trkpt lat="43.50711175685004" lon="12.315713854532893"><ele>588.6666666666666</ele><time>2026-04-19T09:25:12.999Z</time></trkpt><trkpt lat="43.50710297991214" lon="12.3159510366559"><ele>589.3333333333333</ele><time>2026-04-19T09:25:13.999Z</time></trkpt><trkpt lat="43.50711407627937" lon="12.31615440868564"><ele>590.0</ele><time>2026-04-19T09:25:14.999Z</time></trkpt><trkpt lat="43.507226009710756" lon="12.316342539686516"><ele>590.6666666666666</ele><time>2026-04-19T09:25:15.999Z</time></trkpt><trkpt lat="43.507386568741815" lon="12.31655388047288"><ele>591.3333333333334</ele><time>2026-04-19T09:25:16.999Z</time></trkpt><trkpt lat="43.50747612495944" lon="12.316792663224804"><ele>592.0</ele><time>2026-04-19T09:25:17.999Z</time></trkpt><trkpt lat="43.507541124969336" lon="12.317079180755627"><ele>592.0</ele><time>2026-04-19T09:25:18.999Z</time></trkpt><trkpt lat="43.507552378316475" lon="12.317327103193957"><ele>592.0</ele><time>2026-04-19T09:25:20Z</time></trkpt><trkpt lat="43.50752515488093" lon="12.317457311714866"><ele>592.0</ele><time>2026-04-19T09:25:21Z</time></trkpt><trkpt lat="43.50742496431092" lon="12.317605359878982"><ele>592.0</ele><time>2026-04-19T09:25:22Z</time></trkpt><trkpt lat="43.50728625907899" lon="12.317703675059338"><ele>592.0</ele><time>2026-04-19T09:25:23Z</time></trkpt><trkpt lat="43.50710208042291" lon="12.317732672772236"><ele>592.0</ele><time>2026-04-19T09:25:24Z</time></trkpt><trkpt lat="43.50693482358956" lon="12.317642242738257"><ele>592.0</ele><time>2026-04-19T09:25:25Z</time></trkpt><trkpt lat="43.50673767311863" lon="12.317524512110515"><ele>592.0</ele><time>2026-04-19T09:25:26Z</time></trkpt><trkpt lat="43.506552825060176" lon="12.31743820417407"><ele>592.0</ele><time>2026-04-19T09:25:27Z</time></trkpt><trkpt lat="43.506349610126115" lon="12.317480866355599"><ele>592.0</ele><time>2026-04-19T09:25:28Z</time></trkpt><trkpt lat="43.50614926121628" lon="12.317604205844683"><ele>592.0</ele><time>2026-04-19T09:25:29Z</time></trkpt><trkpt lat="43.50601106169276" lon="12.317811147009545"><ele>592.0</ele><time>2026-04-19T09:25:30Z</time></trkpt><trkpt lat="43.50594413149763" lon="12.318088991620044"><ele>592.0</ele><time>2026-04-19T09:25:31Z</time></trkpt><trkpt lat="43.50585945627502" lon="12.318298859331971"><ele>595.5</ele><time>2026-04-19T09:25:32Z</time></trkpt><trkpt lat="43.50575482397174" lon="12.318379175557917"><ele>599.0</ele><time>2026-04-19T09:25:33Z</time></trkpt><trkpt lat="43.50569351551796" lon="12.318342302887329"><ele>602.5</ele><time>2026-04-19T09:25:34Z</time></trkpt><trkpt lat="43.505502808759864" lon="12.318313491385974"><ele>606.0</ele><time>2026-04-19T09:25:35Z</time></trkpt><trkpt lat="43.50525698281893" lon="12.318266344512809"><ele>606.0</ele><time>2026-04-19T09:25:36Z</time></trkpt><trkpt lat="43.50507931315826" lon="12.318272904891652"><ele>606.0</ele><time>2026-04-19T09:25:37Z</time></trkpt><trkpt lat="43.50492829439819" lon="12.318377703252276"><ele>606.0</ele><time>2026-04-19T09:25:38Z</time></trkpt><trkpt lat="43.50482193643392" lon="12.318570036477395"><ele>606.0</ele><time>2026-04-19T09:25:39Z</time></trkpt><trkpt lat="43.5047577311267" lon="12.318854014279164"><ele>606.0</ele><time>2026-04-19T09:25:40Z</time></trkpt><trkpt lat="43.50475740375036" lon="12.319254431792984"><ele>608.6666666666666</ele><time>2026-04-19T09:25:41Z</time></trkpt><trkpt lat="43.50475093815106" lon="12.31954450833256"><ele>611.3333333333333</ele><time>2026-04-19T09:25:42Z</time></trkpt><trkpt lat="43.50477794533136" lon="12.319834004476801"><ele>614.0</ele><time>2026-04-19T09:25:43Z</time></trkpt><trkpt lat="43.50490622871222" lon="12.320063851798723"><ele>614.5</ele><time>2026-04-19T09:25:44Z</time></trkpt><trkpt lat="43.505071694652706" lon="12.320343939807662"><ele>615.0</ele><time>2026-04-19T09:25:45Z</time></trkpt><trkpt lat="43.50511392176421" lon="12.320624702555554"><ele>615.3333333333334</ele><time>2026-04-19T09:25:46Z</time></trkpt><trkpt lat="43.50512668514878" lon="12.32092743347145"><ele>615.6666666666667</ele><time>2026-04-19T09:25:47Z</time></trkpt><trkpt lat="43.50517780936015" lon="12.321215369021676"><ele>616.0</ele><time>2026-04-19T09:25:48Z</time></trkpt><trkpt lat="43.50524977064629" lon="12.321400811275645"><ele>621.5</ele><time>2026-04-19T09:25:49Z</time></trkpt><trkpt lat="43.50543081737382" lon="12.321646616641294"><ele>627.0</ele><time>2026-04-19T09:25:50Z</time></trkpt><trkpt lat="43.505670490735596" lon="12.321872229353271"><ele>627.0</ele><time>2026-04-19T09:25:51Z</time></trkpt><trkpt lat="43.505924402378206" lon="12.322058378239564"><ele>627.0</ele><time>2026-04-19T09:25:52Z</time></trkpt><trkpt lat="43.506264637274015" lon="12.322300407602759"><ele>627.5</ele><time>2026-04-19T09:25:53Z</time></trkpt><trkpt lat="43.506548394974004" lon="12.322474663187606"><ele>628.0</ele><time>2026-04-19T09:25:54Z</time></trkpt><trkpt lat="43.50677642359417" lon="12.322633382137516"><ele>628.0</ele><time>2026-04-19T09:25:55Z</time></trkpt><trkpt lat="43.506973170729495" lon="12.322872916968704"><ele>628.0</ele><time>2026-04-19T09:25:56Z</time></trkpt><trkpt lat="43.50715128572821" lon="12.323155738508905"><ele>632.0</ele><time>2026-04-19T09:25:57Z</time></trkpt><trkpt lat="43.50735641973035" lon="12.323468911237494"><ele>636.0</ele><time>2026-04-19T09:25:58Z</time></trkpt><trkpt lat="43.507562986740425" lon="12.32382232847763"><ele>631.0</ele><time>2026-04-19T09:25:59Z</time></trkpt><trkpt lat="43.50772827474849" lon="12.324108194619116"><ele>626.0</ele><time>2026-04-19T09:26:00Z</time></trkpt><trkpt lat="43.50791253432369" lon="12.324336614062583"><ele>636.0</ele><time>2026-04-19T09:26:01Z</time></trkpt><trkpt lat="43.508117600688436" lon="12.324498980047892"><ele>646.0</ele><time>2026-04-19T09:26:02Z</time></trkpt><trkpt lat="43.508385460712724" lon="12.32463771360152"><ele>647.0</ele><time>2026-04-19T09:26:03Z</time></trkpt><trkpt lat="43.5086845463406" lon="12.324834370411345"><ele>648.0</ele><time>2026-04-19T09:26:04Z</time></trkpt><trkpt lat="43.50892520719488" lon="12.32505470818819"><ele>648.0</ele><time>2026-04-19T09:26:05Z</time></trkpt><trkpt lat="43.50909203496031" lon="12.325338628791037"><ele>648.0</ele><time>2026-04-19T09:26:06Z</time></trkpt><trkpt lat="43.50923691002425" lon="12.325562374470811"><ele>648.6666666666666</ele><time>2026-04-19T09:26:07Z</time></trkpt><trkpt lat="43.509379811301386" lon="12.325740299555813"><ele>649.3333333333333</ele><time>2026-04-19T09:26:08Z</time></trkpt><trkpt lat="43.509580057515194" lon="12.325834208653214"><ele>650.0</ele><time>2026-04-19T09:26:09Z</time></trkpt><trkpt lat="43.50983595864238" lon="12.325864142291312"><ele>650.0</ele><time>2026-04-19T09:26:10Z</time></trkpt><trkpt lat="43.51010896275135" lon="12.325850458968478"><ele>650.0</ele><time>2026-04-19T09:26:11Z</time></trkpt><trkpt lat="43.51036798010678" lon="12.32583768314146"><ele>651.0</ele><time>2026-04-19T09:26:12Z</time></trkpt><trkpt lat="43.51053820785118" lon="12.32593680469511"><ele>652.0</ele><time>2026-04-19T09:26:13Z</time></trkpt><trkpt lat="43.51061855205742" lon="12.326018238013907"><ele>653.0</ele><time>2026-04-19T09:26:14Z</time></trkpt><trkpt lat="43.510625440246045" lon="12.326163485848515"><ele>654.0</ele><time>2026-04-19T09:26:15Z</time></trkpt><trkpt lat="43.51060031803153" lon="12.326360654398554"><ele>655.3333333333334</ele><time>2026-04-19T09:26:16Z</time></trkpt><trkpt lat="43.51051702606658" lon="12.326558026717096"><ele>656.6666666666667</ele><time>2026-04-19T09:26:17Z</time></trkpt><trkpt lat="43.510374856987674" lon="12.326809967623097"><ele>658.0</ele><time>2026-04-19T09:26:18Z</time></trkpt><trkpt lat="43.51019737659409" lon="12.327133042333022"><ele>658.3333333333334</ele><time>2026-04-19T09:26:19Z</time></trkpt><trkpt lat="43.510060044629576" lon="12.327363103776634"><ele>658.6666666666666</ele><time>2026-04-19T09:26:20Z</time></trkpt><trkpt lat="43.50990732209898" lon="12.327497846345663"><ele>659.0</ele><time>2026-04-19T09:26:21Z</time></trkpt><trkpt lat="43.5097597493287" lon="12.327532404358315"><ele>656.0</ele><time>2026-04-19T09:26:22Z</time></trkpt><trkpt lat="43.50953956081301" lon="12.327556724482829"><ele>653.0</ele><time>2026-04-19T09:26:23Z</time></trkpt><trkpt lat="43.50926738439058" lon="12.32761530139208"><ele>653.0</ele><time>2026-04-19T09:26:24Z</time></trkpt><trkpt lat="43.50904684779039" lon="12.327625628823252"><ele>653.0</ele><time>2026-04-19T09:26:25Z</time></trkpt><trkpt lat="43.50885095112915" lon="12.327703429991676"><ele>653.0</ele><time>2026-04-19T09:26:26Z</time></trkpt><trkpt lat="43.50870644369033" lon="12.32789471621035"><ele>653.6666666666666</ele><time>2026-04-19T09:26:27Z</time></trkpt><trkpt lat="43.50862909942026" lon="12.32816456235974"><ele>654.3333333333334</ele><time>2026-04-19T09:26:28Z</time></trkpt><trkpt lat="43.50863334152777" lon="12.328475586313594"><ele>655.0</ele><time>2026-04-19T09:26:29Z</time></trkpt><trkpt lat="43.50872091252891" lon="12.328832536866631"><ele>658.6666666666667</ele><time>2026-04-19T09:26:30Z</time></trkpt><trkpt lat="43.50883038779707" lon="12.32909350191943"><ele>662.3333333333334</ele><time>2026-04-19T09:26:31Z</time></trkpt><trkpt lat="43.508953878672095" lon="12.329259246020014"><ele>666.0</ele><time>2026-04-19T09:26:32Z</time></trkpt><trkpt lat="43.509136488604035" lon="12.329350395478953"><ele>666.0</ele><time>2026-04-19T09:26:33Z</time></trkpt><trkpt lat="43.50933786775721" lon="12.329381717013984"><ele>666.0</ele><time>2026-04-19T09:26:34Z</time></trkpt><trkpt lat="43.509569637112044" lon="12.32929156480754"><ele>666.0</ele><time>2026-04-19T09:26:35Z</time></trkpt><trkpt lat="43.50979604310804" lon="12.329043510944413"><ele>666.0</ele><time>2026-04-19T09:26:36Z</time></trkpt><trkpt lat="43.5100072648756" lon="12.32884787360846"><ele>666.0</ele><time>2026-04-19T09:26:37Z</time></trkpt><trkpt lat="43.510262190866186" lon="12.328624914000223"><ele>665.3333333333334</ele><time>2026-04-19T09:26:38Z</time></trkpt><trkpt lat="43.51045453874301" lon="12.328468920884744"><ele>664.6666666666667</ele><time>2026-04-19T09:26:39Z</time></trkpt><trkpt lat="43.51060807215692" lon="12.328404929988436"><ele>664.0</ele><time>2026-04-19T09:26:40Z</time></trkpt><trkpt lat="43.51083114985707" lon="12.328351373269681"><ele>664.0</ele><time>2026-04-19T09:26:41Z</time></trkpt><trkpt lat="43.51108177904032" lon="12.328433482383435"><ele>664.0</ele><time>2026-04-19T09:26:42Z</time></trkpt><trkpt lat="43.51141495253176" lon="12.328599770421063"><ele>670.5</ele><time>2026-04-19T09:26:43Z</time></trkpt><trkpt lat="43.51179118830571" lon="12.328754546285975"><ele>677.0</ele><time>2026-04-19T09:26:44Z</time></trkpt><trkpt lat="43.512040911355975" lon="12.328840829446976"><ele>675.0</ele><time>2026-04-19T09:26:45Z</time></trkpt><trkpt lat="43.51227886135507" lon="12.32890963138861"><ele>673.0</ele><time>2026-04-19T09:26:46Z</time></trkpt><trkpt lat="43.51243896622504" lon="12.32897149424691"><ele>671.0</ele><time>2026-04-19T09:26:47Z</time></trkpt><trkpt lat="43.51258591316006" lon="12.329085183952536"><ele>671.0</ele><time>2026-04-19T09:26:48Z</time></trkpt><trkpt lat="43.51266459404526" lon="12.329283126744821"><ele>671.0</ele><time>2026-04-19T09:26:49Z</time></trkpt><trkpt lat="43.51269373871799" lon="12.329476892712723"><ele>671.0</ele><time>2026-04-19T09:26:50Z</time></trkpt><trkpt lat="43.51260525989049" lon="12.329725460630058"><ele>668.0</ele><time>2026-04-19T09:26:51Z</time></trkpt><trkpt lat="43.51258955714766" lon="12.329968293820372"><ele>665.0</ele><time>2026-04-19T09:26:51.999Z</time></trkpt><trkpt lat="43.51260183599558" lon="12.330201685920281"><ele>662.0</ele><time>2026-04-19T09:26:52.999Z</time></trkpt><trkpt lat="43.51265841418414" lon="12.330381670603854"><ele>662.0</ele><time>2026-04-19T09:26:53.999Z</time></trkpt><trkpt lat="43.51278611939725" lon="12.330442723261294"><ele>662.0</ele><time>2026-04-19T09:26:54.999Z</time></trkpt><trkpt lat="43.51296445797808" lon="12.330469031166725"><ele>662.0</ele><time>2026-04-19T09:26:55.999Z</time></trkpt><trkpt lat="43.51314117364291" lon="12.330489007402672"><ele>665.5</ele><time>2026-04-19T09:26:56.999Z</time></trkpt><trkpt lat="43.51342485549678" lon="12.330518393466392"><ele>669.0</ele><time>2026-04-19T09:26:57.999Z</time></trkpt><trkpt lat="43.51359002437786" lon="12.33065682793293"><ele>669.0</ele><time>2026-04-19T09:26:58.999Z</time></trkpt><trkpt lat="43.51366594775185" lon="12.330788133970731"><ele>669.0</ele><time>2026-04-19T09:26:59.999Z</time></trkpt><trkpt lat="43.51369722458268" lon="12.330976276113725"><ele>669.0</ele><time>2026-04-19T09:27:00.999Z</time></trkpt><trkpt lat="43.5136977437178" lon="12.331214954996659"><ele>669.0</ele><time>2026-04-19T09:27:01.999Z</time></trkpt><trkpt lat="43.5137119592619" lon="12.331441411734811"><ele>670.5</ele><time>2026-04-19T09:27:02.999Z</time></trkpt><trkpt lat="43.513727432597406" lon="12.33157594636142"><ele>672.0</ele><time>2026-04-19T09:27:03.999Z</time></trkpt><trkpt lat="43.513846670492505" lon="12.331716102697"><ele>673.5</ele><time>2026-04-19T09:27:05.999Z</time></trkpt><trkpt lat="43.51393651867193" lon="12.331761985394909"><ele>675.0</ele><time>2026-04-19T09:27:06.999Z</time></trkpt><trkpt lat="43.51405461883499" lon="12.331769109658756"><ele>675.0</ele><time>2026-04-19T09:27:07.999Z</time></trkpt><trkpt lat="43.51425135198644" lon="12.331720444279142"><ele>675.0</ele><time>2026-04-19T09:27:08.999Z</time></trkpt><trkpt lat="43.514488181636864" lon="12.331580015083494"><ele>679.6666666666666</ele><time>2026-04-19T09:27:09.999Z</time></trkpt><trkpt lat="43.51467452687984" lon="12.331459121604185"><ele>684.3333333333333</ele><time>2026-04-19T09:27:10.999Z</time></trkpt><trkpt lat="43.514823121864275" lon="12.331420672991976"><ele>689.0</ele><time>2026-04-19T09:27:11.999Z</time></trkpt><trkpt lat="43.51498718922183" lon="12.331525538999006"><ele>689.0</ele><time>2026-04-19T09:27:12.999Z</time></trkpt><trkpt lat="43.515117733745626" lon="12.331722839827336"><ele>689.0</ele><time>2026-04-19T09:27:13.999Z</time></trkpt><trkpt lat="43.51526223831562" lon="12.332007479294525"><ele>689.0</ele><time>2026-04-19T09:27:14.999Z</time></trkpt><trkpt lat="43.51545073305375" lon="12.332354777297459"><ele>695.5</ele><time>2026-04-19T09:27:15.999Z</time></trkpt><trkpt lat="43.51561950266163" lon="12.332622214191115"><ele>702.0</ele><time>2026-04-19T09:27:16.999Z</time></trkpt><trkpt lat="43.515759382389675" lon="12.332847517358205"><ele>702.0</ele><time>2026-04-19T09:27:17.999Z</time></trkpt><trkpt lat="43.51582471067915" lon="12.333051588178778"><ele>702.0</ele><time>2026-04-19T09:27:18.999Z</time></trkpt><trkpt lat="43.515808966337545" lon="12.333200979058383"><ele>702.0</ele><time>2026-04-19T09:27:19.999Z</time></trkpt><trkpt lat="43.515729512684196" lon="12.33333955883488"><ele>702.0</ele><time>2026-04-19T09:27:20.999Z</time></trkpt><trkpt lat="43.51558341268896" lon="12.33346054762278"><ele>698.3333333333334</ele><time>2026-04-19T09:27:21.999Z</time></trkpt><trkpt lat="43.5154186064391" lon="12.333627791987414"><ele>694.6666666666667</ele><time>2026-04-19T09:27:22.999Z</time></trkpt><trkpt lat="43.515308332778496" lon="12.33383634695223"><ele>691.0</ele><time>2026-04-19T09:27:23.999Z</time></trkpt><trkpt lat="43.51528320600706" lon="12.334052915590782"><ele>690.6666666666667</ele><time>2026-04-19T09:27:24.999Z</time></trkpt><trkpt lat="43.5153625450149" lon="12.334272786203686"><ele>690.3333333333334</ele><time>2026-04-19T09:27:26.001Z</time></trkpt><trkpt lat="43.51551819838172" lon="12.334440374383218"><ele>690.0</ele><time>2026-04-19T09:27:27.001Z</time></trkpt><trkpt lat="43.51571809745193" lon="12.334504804182032"><ele>690.0</ele><time>2026-04-19T09:27:28.001Z</time></trkpt><trkpt lat="43.51601105459421" lon="12.334574062548366"><ele>690.0</ele><time>2026-04-19T09:27:29.001Z</time></trkpt><trkpt lat="43.51632678025364" lon="12.334665793341204"><ele>685.0</ele><time>2026-04-19T09:27:30.001Z</time></trkpt><trkpt lat="43.51664009972892" lon="12.334769626470234"><ele>680.0</ele><time>2026-04-19T09:27:31.001Z</time></trkpt><trkpt lat="43.517035447340305" lon="12.334904190496623"><ele>686.5</ele><time>2026-04-19T09:27:32.001Z</time></trkpt><trkpt lat="43.51734120225192" lon="12.335003321686589"><ele>693.0</ele><time>2026-04-19T09:27:33.001Z</time></trkpt><trkpt lat="43.51752514955685" lon="12.335085733158609"><ele>693.0</ele><time>2026-04-19T09:27:34.001Z</time></trkpt><trkpt lat="43.517757062057726" lon="12.335196311276652"><ele>693.0</ele><time>2026-04-19T09:27:35.001Z</time></trkpt><trkpt lat="43.51787285310712" lon="12.335345645516979"><ele>693.0</ele><time>2026-04-19T09:27:36.001Z</time></trkpt><trkpt lat="43.51789281929071" lon="12.335445115794629"><ele>698.0</ele><time>2026-04-19T09:27:37.001Z</time></trkpt><trkpt lat="43.51798417795478" lon="12.335748170779054"><ele>703.0</ele><time>2026-04-19T09:27:38.001Z</time></trkpt><trkpt lat="43.51799390596034" lon="12.33611603583558"><ele>705.5</ele><time>2026-04-19T09:27:39.001Z</time></trkpt><trkpt lat="43.517910917964294" lon="12.336502378848799"><ele>708.0</ele><time>2026-04-19T09:27:40.001Z</time></trkpt><trkpt lat="43.51775771306005" lon="12.336795087834941"><ele>707.0</ele><time>2026-04-19T09:27:41Z</time></trkpt><trkpt lat="43.5175729042834" lon="12.337023107094463"><ele>706.0</ele><time>2026-04-19T09:27:42Z</time></trkpt><trkpt lat="43.517331032262305" lon="12.337295950369796"><ele>697.5</ele><time>2026-04-19T09:27:43Z</time></trkpt><trkpt lat="43.51705146967428" lon="12.337603513461982"><ele>689.0</ele><time>2026-04-19T09:27:44Z</time></trkpt><trkpt lat="43.51679548973487" lon="12.337808091946412"><ele>689.0</ele><time>2026-04-19T09:27:45Z</time></trkpt><trkpt lat="43.51651903752675" lon="12.338007215854775"><ele>689.0</ele><time>2026-04-19T09:27:46Z</time></trkpt><trkpt lat="43.51621868571248" lon="12.338242039787202"><ele>690.6666666666666</ele><time>2026-04-19T09:27:47Z</time></trkpt><trkpt lat="43.515976681106835" lon="12.338401726886637"><ele>692.3333333333334</ele><time>2026-04-19T09:27:48Z</time></trkpt><trkpt lat="43.515852551899876" lon="12.338464952689277"><ele>694.0</ele><time>2026-04-19T09:27:49Z</time></trkpt><trkpt lat="43.51567687882387" lon="12.338620218684836"><ele>694.0</ele><time>2026-04-19T09:27:50Z</time></trkpt><trkpt lat="43.51558001110665" lon="12.338827150631714"><ele>694.0</ele><time>2026-04-19T09:27:51Z</time></trkpt><trkpt lat="43.51554590915133" lon="12.339099654455621"><ele>694.0</ele><time>2026-04-19T09:27:52Z</time></trkpt><trkpt lat="43.515601513050065" lon="12.339365085463635"><ele>696.3333333333334</ele><time>2026-04-19T09:27:53Z</time></trkpt><trkpt lat="43.515737542817604" lon="12.339582600403018"><ele>698.6666666666666</ele><time>2026-04-19T09:27:54Z</time></trkpt><trkpt lat="43.51591878578355" lon="12.33973240394915"><ele>701.0</ele><time>2026-04-19T09:27:55Z</time></trkpt><trkpt lat="43.51614064343473" lon="12.33982422450409"><ele>704.0</ele><time>2026-04-19T09:27:56Z</time></trkpt><trkpt lat="43.516437431844956" lon="12.339982781785865"><ele>707.0</ele><time>2026-04-19T09:27:57Z</time></trkpt><trkpt lat="43.516775648420555" lon="12.340184782916719"><ele>707.0</ele><time>2026-04-19T09:27:58Z</time></trkpt><trkpt lat="43.51700252075325" lon="12.340297702140342"><ele>707.0</ele><time>2026-04-19T09:27:59Z</time></trkpt><trkpt lat="43.51726454394849" lon="12.34039291799008"><ele>714.5</ele><time>2026-04-19T09:28:00Z</time></trkpt><trkpt lat="43.51753548046285" lon="12.340407172794086"><ele>722.0</ele><time>2026-04-19T09:28:01Z</time></trkpt><trkpt lat="43.51784031990496" lon="12.340369669688211"><ele>726.5</ele><time>2026-04-19T09:28:02Z</time></trkpt><trkpt lat="43.51813128179631" lon="12.340344833564087"><ele>731.0</ele><time>2026-04-19T09:28:03Z</time></trkpt><trkpt lat="43.51834545867358" lon="12.340452027830633"><ele>724.5</ele><time>2026-04-19T09:28:04Z</time></trkpt><trkpt lat="43.518580501449705" lon="12.340598524862333"><ele>718.0</ele><time>2026-04-19T09:28:05Z</time></trkpt><trkpt lat="43.5187757746662" lon="12.340772054597377"><ele>718.0</ele><time>2026-04-19T09:28:06Z</time></trkpt><trkpt lat="43.51892246132984" lon="12.34094593306229"><ele>718.0</ele><time>2026-04-19T09:28:07Z</time></trkpt><trkpt lat="43.51899564026829" lon="12.341120988804057"><ele>718.0</ele><time>2026-04-19T09:28:08Z</time></trkpt><trkpt lat="43.519012245384786" lon="12.341323541560607"><ele>716.6666666666667</ele><time>2026-04-19T09:28:09Z</time></trkpt><trkpt lat="43.51896480405655" lon="12.34157330131698"><ele>715.3333333333334</ele><time>2026-04-19T09:28:10Z</time></trkpt><trkpt lat="43.51884501482125" lon="12.34177207184243"><ele>714.0</ele><time>2026-04-19T09:28:11Z</time></trkpt><trkpt lat="43.518679083765775" lon="12.342019070326161"><ele>707.0</ele><time>2026-04-19T09:28:12Z</time></trkpt><trkpt lat="43.5185496798276" lon="12.34226026844396"><ele>700.0</ele><time>2026-04-19T09:28:13Z</time></trkpt><trkpt lat="43.518475868089034" lon="12.342462566308173"><ele>693.0</ele><time>2026-04-19T09:28:14Z</time></trkpt><trkpt lat="43.518481173537545" lon="12.342736540357942"><ele>693.0</ele><time>2026-04-19T09:28:15Z</time></trkpt><trkpt lat="43.51853532465711" lon="12.342989975968486"><ele>693.0</ele><time>2026-04-19T09:28:16Z</time></trkpt><trkpt lat="43.518637310291766" lon="12.343209930720787"><ele>693.0</ele><time>2026-04-19T09:28:17Z</time></trkpt><trkpt lat="43.51872108836903" lon="12.343432520163416"><ele>693.6666666666666</ele><time>2026-04-19T09:28:18Z</time></trkpt><trkpt lat="43.518705877332785" lon="12.343634874074832"><ele>694.3333333333333</ele><time>2026-04-19T09:28:19Z</time></trkpt><trkpt lat="43.51867829764551" lon="12.343757731459283"><ele>695.0</ele><time>2026-04-19T09:28:20Z</time></trkpt><trkpt lat="43.51904333203204" lon="12.344009728639643"><ele>712.5</ele><time>2026-04-19T09:28:21Z</time></trkpt><trkpt lat="43.51891762927351" lon="12.344368624571056"><ele>730.0</ele><time>2026-04-19T09:28:22Z</time></trkpt><trkpt lat="43.51890274020599" lon="12.344782927991584"><ele>732.0</ele><time>2026-04-19T09:28:23Z</time></trkpt><trkpt lat="43.51876626323886" lon="12.34529043147665"><ele>734.0</ele><time>2026-04-19T09:28:24Z</time></trkpt><trkpt lat="43.51889958858131" lon="12.345618674631877"><ele>731.0</ele><time>2026-04-19T09:28:25Z</time></trkpt><trkpt lat="43.51901067687175" lon="12.345902163079973"><ele>728.0</ele><time>2026-04-19T09:28:26Z</time></trkpt><trkpt lat="43.519047677744744" lon="12.346108581539378"><ele>725.0</ele><time>2026-04-19T09:28:27Z</time></trkpt><trkpt lat="43.51901762936647" lon="12.346298858744605"><ele>725.6666666666666</ele><time>2026-04-19T09:28:28Z</time></trkpt><trkpt lat="43.518987931513074" lon="12.346395608235044"><ele>726.3333333333334</ele><time>2026-04-19T09:28:29Z</time></trkpt><trkpt lat="43.518786414900866" lon="12.346497655057778"><ele>727.0</ele><time>2026-04-19T09:28:30Z</time></trkpt><trkpt lat="43.51853445237401" lon="12.346708757721602"><ele>715.0</ele><time>2026-04-19T09:28:31Z</time></trkpt><trkpt lat="43.518258459613506" lon="12.346966366565368"><ele>703.0</ele><time>2026-04-19T09:28:32Z</time></trkpt><trkpt lat="43.51802156591419" lon="12.347125918255523"><ele>702.0</ele><time>2026-04-19T09:28:33Z</time></trkpt><trkpt lat="43.517906535642396" lon="12.347250519175228"><ele>701.0</ele><time>2026-04-19T09:28:34Z</time></trkpt><trkpt lat="43.51779366940609" lon="12.34744485903823"><ele>700.0</ele><time>2026-04-19T09:28:35Z</time></trkpt><trkpt lat="43.5178075150383" lon="12.347704435049712"><ele>700.0</ele><time>2026-04-19T09:28:36Z</time></trkpt><trkpt lat="43.517796871888514" lon="12.347961387641046"><ele>700.0</ele><time>2026-04-19T09:28:37Z</time></trkpt><trkpt lat="43.51768372423766" lon="12.348238406351687"><ele>700.0</ele><time>2026-04-19T09:28:38Z</time></trkpt><trkpt lat="43.51751599405892" lon="12.348442623862805"><ele>705.6666666666667</ele><time>2026-04-19T09:28:39Z</time></trkpt><trkpt lat="43.51732772071708" lon="12.348585313263937"><ele>711.3333333333334</ele><time>2026-04-19T09:28:40Z</time></trkpt><trkpt lat="43.517175113697974" lon="12.348662096385464"><ele>717.0</ele><time>2026-04-19T09:28:41Z</time></trkpt><trkpt lat="43.517050389748675" lon="12.348651616970464"><ele>720.3333333333334</ele><time>2026-04-19T09:28:42Z</time></trkpt><trkpt lat="43.51692806315948" lon="12.348521240350392"><ele>723.6666666666667</ele><time>2026-04-19T09:28:43Z</time></trkpt><trkpt lat="43.51676901700398" lon="12.34827323229349"><ele>727.0</ele><time>2026-04-19T09:28:44Z</time></trkpt><trkpt lat="43.51665721025258" lon="12.34799927957536"><ele>719.6666666666667</ele><time>2026-04-19T09:28:45Z</time></trkpt><trkpt lat="43.51653951820707" lon="12.347793771126177"><ele>712.3333333333334</ele><time>2026-04-19T09:28:46Z</time></trkpt><trkpt lat="43.516419347496864" lon="12.347715517700436"><ele>705.0</ele><time>2026-04-19T09:28:47Z</time></trkpt><trkpt lat="43.51627043370527" lon="12.347682848670713"><ele>710.5</ele><time>2026-04-19T09:28:48Z</time></trkpt><trkpt lat="43.51598539430081" lon="12.347668559653386"><ele>716.0</ele><time>2026-04-19T09:28:49Z</time></trkpt><trkpt lat="43.51565023572602" lon="12.347640466021435"><ele>718.5</ele><time>2026-04-19T09:28:50Z</time></trkpt><trkpt lat="43.51537048617862" lon="12.347601253936585"><ele>721.0</ele><time>2026-04-19T09:28:51Z</time></trkpt><trkpt lat="43.515111456237946" lon="12.347487434818333"><ele>721.0</ele><time>2026-04-19T09:28:52Z</time></trkpt><trkpt lat="43.514907401246866" lon="12.347416984291215"><ele>721.0</ele><time>2026-04-19T09:28:53Z</time></trkpt><trkpt lat="43.51469223837674" lon="12.34744620809406"><ele>721.0</ele><time>2026-04-19T09:28:53.999Z</time></trkpt><trkpt lat="43.51444067593018" lon="12.347499767028795"><ele>720.0</ele><time>2026-04-19T09:28:54.999Z</time></trkpt><trkpt lat="43.514231138306975" lon="12.347546410019909"><ele>719.0</ele><time>2026-04-19T09:28:55.999Z</time></trkpt><trkpt lat="43.51410673670585" lon="12.347582513747646"><ele>718.0</ele><time>2026-04-19T09:28:56.999Z</time></trkpt><trkpt lat="43.5140018289786" lon="12.347697366043894"><ele>718.0</ele><time>2026-04-19T09:28:57.999Z</time></trkpt><trkpt lat="43.51398382391664" lon="12.347889196563733"><ele>718.0</ele><time>2026-04-19T09:28:58.999Z</time></trkpt><trkpt lat="43.51403954313435" lon="12.348184520946614"><ele>718.0</ele><time>2026-04-19T09:28:59.999Z</time></trkpt><trkpt lat="43.51410948990048" lon="12.348411097929587"><ele>720.5</ele><time>2026-04-19T09:29:00.999Z</time></trkpt><trkpt lat="43.51410327190117" lon="12.34875203739363"><ele>723.0</ele><time>2026-04-19T09:29:01.999Z</time></trkpt><trkpt lat="43.51406950195754" lon="12.349104384688047"><ele>724.0</ele><time>2026-04-19T09:29:02.999Z</time></trkpt><trkpt lat="43.5140952941355" lon="12.349529956026068"><ele>725.0</ele><time>2026-04-19T09:29:03.999Z</time></trkpt><trkpt lat="43.51410670655345" lon="12.349804029841925"><ele>724.5</ele><time>2026-04-19T09:29:04.999Z</time></trkpt><trkpt lat="43.514068427691704" lon="12.349982671261383"><ele>724.0</ele><time>2026-04-19T09:29:05.999Z</time></trkpt><trkpt lat="43.51402692426237" lon="12.350111346693213"><ele>723.5</ele><time>2026-04-19T09:29:06.999Z</time></trkpt><trkpt lat="43.51388069514929" lon="12.35021121911727"><ele>723.0</ele><time>2026-04-19T09:29:07.999Z</time></trkpt><trkpt lat="43.51366914313432" lon="12.350243186663622"><ele>723.0</ele><time>2026-04-19T09:29:08.999Z</time></trkpt><trkpt lat="43.51344792530477" lon="12.350211705275257"><ele>723.0</ele><time>2026-04-19T09:29:09.999Z</time></trkpt><trkpt lat="43.51321384992219" lon="12.350122844124582"><ele>723.0</ele><time>2026-04-19T09:29:10.999Z</time></trkpt><trkpt lat="43.5129442670787" lon="12.350050527381633"><ele>723.0</ele><time>2026-04-19T09:29:11.999Z</time></trkpt><trkpt lat="43.51274770670982" lon="12.34990445797068"><ele>717.0</ele><time>2026-04-19T09:29:12.999Z</time></trkpt><trkpt lat="43.512590495955195" lon="12.349702658810394"><ele>711.0</ele><time>2026-04-19T09:29:13.999Z</time></trkpt><trkpt lat="43.512391156420726" lon="12.349405276049357"><ele>711.0</ele><time>2026-04-19T09:29:14.999Z</time></trkpt><trkpt lat="43.51218182849887" lon="12.349145003756831"><ele>711.0</ele><time>2026-04-19T09:29:15.999Z</time></trkpt><trkpt lat="43.51198932703689" lon="12.348949868443372"><ele>711.25</ele><time>2026-04-19T09:29:16.999Z</time></trkpt><trkpt lat="43.51184285366128" lon="12.348815413369099"><ele>711.5</ele><time>2026-04-19T09:29:17.999Z</time></trkpt><trkpt lat="43.511764193279745" lon="12.348746902910271"><ele>711.75</ele><time>2026-04-19T09:29:18.999Z</time></trkpt><trkpt lat="43.5116248425199" lon="12.348718231465785"><ele>712.0</ele><time>2026-04-19T09:29:19.999Z</time></trkpt><trkpt lat="43.511567612913744" lon="12.348889507879402"><ele>714.6666666666667</ele><time>2026-04-19T09:29:20.999Z</time></trkpt><trkpt lat="43.51155145994041" lon="12.349118013946313"><ele>717.3333333333334</ele><time>2026-04-19T09:29:21.999Z</time></trkpt><trkpt lat="43.51160729286614" lon="12.349351639225418"><ele>720.0</ele><time>2026-04-19T09:29:22.999Z</time></trkpt><trkpt lat="43.51174706206028" lon="12.349704311340119"><ele>717.5</ele><time>2026-04-19T09:29:23.999Z</time></trkpt><trkpt lat="43.51193505717452" lon="12.349966697320383"><ele>715.0</ele><time>2026-04-19T09:29:24.999Z</time></trkpt><trkpt lat="43.512071913970445" lon="12.350198560449327"><ele>719.0</ele><time>2026-04-19T09:29:25.999Z</time></trkpt><trkpt lat="43.51214803714398" lon="12.35045270807878"><ele>723.0</ele><time>2026-04-19T09:29:26.999Z</time></trkpt><trkpt lat="43.51216345064597" lon="12.350749518634226"><ele>727.0</ele><time>2026-04-19T09:29:27.999Z</time></trkpt><trkpt lat="43.512146583533614" lon="12.351114975667858"><ele>730.3333333333334</ele><time>2026-04-19T09:29:28.999Z</time></trkpt><trkpt lat="43.51212820559666" lon="12.351452314534985"><ele>733.6666666666666</ele><time>2026-04-19T09:29:29.999Z</time></trkpt><trkpt lat="43.512142357265006" lon="12.351712956516632"><ele>737.0</ele><time>2026-04-19T09:29:30.999Z</time></trkpt><trkpt lat="43.512268277738464" lon="12.351918253955585"><ele>737.0</ele><time>2026-04-19T09:29:32Z</time></trkpt><trkpt lat="43.51248042075955" lon="12.352096541993046"><ele>737.0</ele><time>2026-04-19T09:29:33Z</time></trkpt><trkpt lat="43.51268353115035" lon="12.352302578849404"><ele>730.0</ele><time>2026-04-19T09:29:34Z</time></trkpt><trkpt lat="43.512805396817264" lon="12.352593286053521"><ele>723.0</ele><time>2026-04-19T09:29:35Z</time></trkpt><trkpt lat="43.512899381480175" lon="12.352910109333324"><ele>727.0</ele><time>2026-04-19T09:29:36Z</time></trkpt><trkpt lat="43.51299826431077" lon="12.353112538177335"><ele>731.0</ele><time>2026-04-19T09:29:37Z</time></trkpt><trkpt lat="43.513112762531435" lon="12.353325099307042"><ele>735.0</ele><time>2026-04-19T09:29:38Z</time></trkpt><trkpt lat="43.51333593872249" lon="12.3534510434117"><ele>735.0</ele><time>2026-04-19T09:29:39Z</time></trkpt><trkpt lat="43.513601773851015" lon="12.35356320854569"><ele>735.0</ele><time>2026-04-19T09:29:40Z</time></trkpt><trkpt lat="43.5138782391884" lon="12.353649017581498"><ele>742.5</ele><time>2026-04-19T09:29:41Z</time></trkpt><trkpt lat="43.514211443638466" lon="12.353694471764339"><ele>750.0</ele><time>2026-04-19T09:29:42Z</time></trkpt><trkpt lat="43.51449764215807" lon="12.353720357990891"><ele>748.6666666666666</ele><time>2026-04-19T09:29:43Z</time></trkpt><trkpt lat="43.514707525756556" lon="12.353699078944512"><ele>747.3333333333333</ele><time>2026-04-19T09:29:44Z</time></trkpt><trkpt lat="43.51489828100608" lon="12.35360024198296"><ele>746.0</ele><time>2026-04-19T09:29:45Z</time></trkpt><trkpt lat="43.5151277728807" lon="12.35345091020844"><ele>746.0</ele><time>2026-04-19T09:29:46Z</time></trkpt><trkpt lat="43.515342356444314" lon="12.35327224050332"><ele>746.0</ele><time>2026-04-19T09:29:47Z</time></trkpt><trkpt lat="43.5155446722964" lon="12.353169554796319"><ele>745.6666666666666</ele><time>2026-04-19T09:29:48Z</time></trkpt><trkpt lat="43.51569737867059" lon="12.353131708267165"><ele>745.3333333333334</ele><time>2026-04-19T09:29:49Z</time></trkpt><trkpt lat="43.51585314647883" lon="12.353198911578813"><ele>745.0</ele><time>2026-04-19T09:29:50Z</time></trkpt><trkpt lat="43.51597298233173" lon="12.35331922196598"><ele>745.0</ele><time>2026-04-19T09:29:51Z</time></trkpt><trkpt lat="43.516049169947465" lon="12.353502736397468"><ele>745.0</ele><time>2026-04-19T09:29:52Z</time></trkpt><trkpt lat="43.51608813624771" lon="12.353726884117119"><ele>745.0</ele><time>2026-04-19T09:29:53Z</time></trkpt><trkpt lat="43.51606713544448" lon="12.353962067971647"><ele>740.3333333333334</ele><time>2026-04-19T09:29:54Z</time></trkpt><trkpt lat="43.516010712500965" lon="12.354238907511144"><ele>735.6666666666666</ele><time>2026-04-19T09:29:55Z</time></trkpt><trkpt lat="43.51599318372615" lon="12.354462885927717"><ele>731.0</ele><time>2026-04-19T09:29:56Z</time></trkpt><trkpt lat="43.51596599940952" lon="12.354665379459385"><ele>729.8</ele><time>2026-04-19T09:29:57Z</time></trkpt><trkpt lat="43.51597910625327" lon="12.354872000933927"><ele>728.5999999999999</ele><time>2026-04-19T09:29:58Z</time></trkpt><trkpt lat="43.515985551449404" lon="12.355020069697357"><ele>727.4</ele><time>2026-04-19T09:29:59Z</time></trkpt><trkpt lat="43.515999877113735" lon="12.355145146061048"><ele>726.2</ele><time>2026-04-19T09:30:00Z</time></trkpt><trkpt lat="43.51599282780348" lon="12.35523589893426"><ele>725.0</ele><time>2026-04-19T09:30:01Z</time></trkpt><trkpt lat="43.51598703753279" lon="12.355369202774146"><ele>725.0</ele><time>2026-04-19T09:30:02Z</time></trkpt><trkpt lat="43.515921522650856" lon="12.3554845731121"><ele>725.0</ele><time>2026-04-19T09:30:04Z</time></trkpt><trkpt lat="43.51586554544975" lon="12.355587609967348"><ele>725.0</ele><time>2026-04-19T09:30:06Z</time></trkpt><trkpt lat="43.51583047207237" lon="12.35566150880769"><ele>725.0</ele><time>2026-04-19T09:30:07Z</time></trkpt><trkpt lat="43.515774408736085" lon="12.35574625962442"><ele>725.0</ele><time>2026-04-19T09:30:09Z</time></trkpt><trkpt lat="43.51572060514878" lon="12.355693728348017"><ele>725.0</ele><time>2026-04-19T09:31:58Z</time></trkpt><trkpt lat="43.51577097340992" lon="12.355774049111862"><ele>725.8333333333333</ele><time>2026-04-19T09:33:36.999Z</time></trkpt><trkpt lat="43.51571919829368" lon="12.355845068904877"><ele>726.6666666666666</ele><time>2026-04-19T09:45:23Z</time></trkpt><trkpt lat="43.515790493325994" lon="12.35587219947131"><ele>727.5</ele><time>2026-04-19T09:45:30Z</time></trkpt><trkpt lat="43.51575496604398" lon="12.355760825753121"><ele>728.3333333333334</ele><time>2026-04-19T09:45:40Z</time></trkpt><trkpt lat="43.51568655299667" lon="12.35576822474719"><ele>729.1666666666667</ele><time>2026-04-19T09:48:57Z</time></trkpt><trkpt lat="43.515754361505344" lon="12.355761826800205"><ele>730.0</ele><time>2026-04-19T10:02:19Z</time></trkpt><trkpt lat="43.5158346182695" lon="12.355760377842097"><ele>730.0</ele><time>2026-04-19T10:02:26Z</time></trkpt><trkpt lat="43.515882995144615" lon="12.355670152629381"><ele>730.0</ele><time>2026-04-19T10:02:55.999Z</time></trkpt><trkpt lat="43.51593235323536" lon="12.35558579944724"><ele>730.0</ele><time>2026-04-19T10:02:57.999Z</time></trkpt><trkpt lat="43.51597998601205" lon="12.35547452608111"><ele>730.0</ele><time>2026-04-19T10:03:00.999Z</time></trkpt><trkpt lat="43.516007227584865" lon="12.3553628115363"><ele>730.0</ele><time>2026-04-19T10:03:02.999Z</time></trkpt><trkpt lat="43.51601969127347" lon="12.355231605939878"><ele>730.0</ele><time>2026-04-19T10:03:05Z</time></trkpt><trkpt lat="43.51603476979899" lon="12.355141097668715"><ele>730.2</ele><time>2026-04-19T10:03:06Z</time></trkpt><trkpt lat="43.51603573245667" lon="12.355053488369391"><ele>730.4</ele><time>2026-04-19T10:03:07Z</time></trkpt><trkpt lat="43.51600427912814" lon="12.354900507965494"><ele>730.5999999999999</ele><time>2026-04-19T10:03:09Z</time></trkpt><trkpt lat="43.51599269992301" lon="12.354778968276163"><ele>730.8</ele><time>2026-04-19T10:03:10Z</time></trkpt><trkpt lat="43.515992442087764" lon="12.354637594645007"><ele>731.0</ele><time>2026-04-19T10:03:11Z</time></trkpt><trkpt lat="43.51600236176536" lon="12.354465168636784"><ele>731.0</ele><time>2026-04-19T10:03:12Z</time></trkpt><trkpt lat="43.51604599572649" lon="12.354310572892489"><ele>731.0</ele><time>2026-04-19T10:03:13Z</time></trkpt><trkpt lat="43.516077506245246" lon="12.354180344631471"><ele>731.0</ele><time>2026-04-19T10:03:14Z</time></trkpt><trkpt lat="43.51610125030646" lon="12.354045784806369"><ele>731.0</ele><time>2026-04-19T10:03:15Z</time></trkpt><trkpt lat="43.516126868676515" lon="12.353892040225979"><ele>731.0</ele><time>2026-04-19T10:03:16Z</time></trkpt><trkpt lat="43.51608699598172" lon="12.353736361268911"><ele>734.5</ele><time>2026-04-19T10:03:17Z</time></trkpt><trkpt lat="43.51605347775131" lon="12.353578599346967"><ele>738.0</ele><time>2026-04-19T10:03:18Z</time></trkpt><trkpt lat="43.51604622516292" lon="12.353336943528266"><ele>741.5</ele><time>2026-04-19T10:03:19Z</time></trkpt><trkpt lat="43.51596433937781" lon="12.353207834044658"><ele>745.0</ele><time>2026-04-19T10:03:20Z</time></trkpt><trkpt lat="43.51584388486727" lon="12.353100931975193"><ele>745.0</ele><time>2026-04-19T10:03:21Z</time></trkpt><trkpt lat="43.51564497968843" lon="12.353131896270044"><ele>745.0</ele><time>2026-04-19T10:03:22Z</time></trkpt><trkpt lat="43.51546254927629" lon="12.353148851449935"><ele>745.0</ele><time>2026-04-19T10:03:23Z</time></trkpt><trkpt lat="43.51531367852643" lon="12.353207226114616"><ele>745.2</ele><time>2026-04-19T10:03:24Z</time></trkpt><trkpt lat="43.51519716406091" lon="12.35329519010057"><ele>745.4</ele><time>2026-04-19T10:03:25Z</time></trkpt><trkpt lat="43.515094640582284" lon="12.35335220986812"><ele>745.5999999999999</ele><time>2026-04-19T10:03:26Z</time></trkpt><trkpt lat="43.51501185582689" lon="12.353409898710144"><ele>745.8</ele><time>2026-04-19T10:03:27Z</time></trkpt><trkpt lat="43.51493447663202" lon="12.353438724551872"><ele>746.0</ele><time>2026-04-19T10:03:28Z</time></trkpt><trkpt lat="43.514853799774" lon="12.353489512067007"><ele>746.0</ele><time>2026-04-19T10:03:29Z</time></trkpt><trkpt lat="43.51476078064435" lon="12.353540229092157"><ele>746.0</ele><time>2026-04-19T10:03:30Z</time></trkpt><trkpt lat="43.514641372863686" lon="12.353599425529925"><ele>746.0</ele><time>2026-04-19T10:03:31Z</time></trkpt><trkpt lat="43.51449705392821" lon="12.353619758770922"><ele>746.0</ele><time>2026-04-19T10:03:32Z</time></trkpt><trkpt lat="43.5143695171905" lon="12.353611855741525"><ele>747.0</ele><time>2026-04-19T10:03:33Z</time></trkpt><trkpt lat="43.51423869924531" lon="12.353596299220932"><ele>748.0</ele><time>2026-04-19T10:03:34Z</time></trkpt><trkpt lat="43.51410614046595" lon="12.35357754356833"><ele>749.0</ele><time>2026-04-19T10:03:35Z</time></trkpt><trkpt lat="43.51397173745498" lon="12.35356285899355"><ele>750.0</ele><time>2026-04-19T10:03:36Z</time></trkpt><trkpt lat="43.513839965901184" lon="12.353549521784469"><ele>746.25</ele><time>2026-04-19T10:03:37Z</time></trkpt><trkpt lat="43.51371389495526" lon="12.353528331934251"><ele>742.5</ele><time>2026-04-19T10:03:38Z</time></trkpt><trkpt lat="43.51358895856526" lon="12.353485812524143"><ele>738.75</ele><time>2026-04-19T10:03:39Z</time></trkpt><trkpt lat="43.51347699479377" lon="12.353437303038023"><ele>735.0</ele><time>2026-04-19T10:03:40Z</time></trkpt><trkpt lat="43.51334694780448" lon="12.353372056661007"><ele>735.0</ele><time>2026-04-19T10:03:41Z</time></trkpt><trkpt lat="43.51319297640149" lon="12.353283036410764"><ele>735.0</ele><time>2026-04-19T10:03:42Z</time></trkpt><trkpt lat="43.51307238075661" lon="12.353167939937864"><ele>735.0</ele><time>2026-04-19T10:03:43Z</time></trkpt><trkpt lat="43.51296442673425" lon="12.35300483487032"><ele>731.0</ele><time>2026-04-19T10:03:44Z</time></trkpt><trkpt lat="43.5128996613942" lon="12.35278640411253"><ele>727.0</ele><time>2026-04-19T10:03:45Z</time></trkpt><trkpt lat="43.51283281498939" lon="12.352566309047965"><ele>723.0</ele><time>2026-04-19T10:03:46Z</time></trkpt><trkpt lat="43.51273439737187" lon="12.352302759143805"><ele>727.6666666666666</ele><time>2026-04-19T10:03:47Z</time></trkpt><trkpt lat="43.512595101092955" lon="12.352119958376187"><ele>732.3333333333333</ele><time>2026-04-19T10:03:48Z</time></trkpt><trkpt lat="43.51245048195822" lon="12.351982201900997"><ele>737.0</ele><time>2026-04-19T10:03:49Z</time></trkpt><trkpt lat="43.51232060504403" lon="12.351834450573648"><ele>737.0</ele><time>2026-04-19T10:03:50Z</time></trkpt><trkpt lat="43.51221254607729" lon="12.351674077496758"><ele>737.0</ele><time>2026-04-19T10:03:51Z</time></trkpt><trkpt lat="43.5121603953048" lon="12.351472944302474"><ele>737.0</ele><time>2026-04-19T10:03:52Z</time></trkpt><trkpt lat="43.512171540066504" lon="12.351274799887944"><ele>737.6666666666666</ele><time>2026-04-19T10:03:53Z</time></trkpt><trkpt lat="43.512186027976114" lon="12.351007228243073"><ele>738.3333333333334</ele><time>2026-04-19T10:03:54Z</time></trkpt><trkpt lat="43.51219674935334" lon="12.350705430686965"><ele>739.0</ele><time>2026-04-19T10:03:55Z</time></trkpt><trkpt lat="43.5121626480246" lon="12.350440429042656"><ele>735.0</ele><time>2026-04-19T10:03:56Z</time></trkpt><trkpt lat="43.51211332269022" lon="12.350188842951368"><ele>731.0</ele><time>2026-04-19T10:03:57Z</time></trkpt><trkpt lat="43.51203561432345" lon="12.34994171949096"><ele>727.0</ele><time>2026-04-19T10:03:58Z</time></trkpt><trkpt lat="43.511901920071246" lon="12.349740134087396"><ele>724.6666666666667</ele><time>2026-04-19T10:03:59Z</time></trkpt><trkpt lat="43.511772876861045" lon="12.349554448630634"><ele>722.3333333333334</ele><time>2026-04-19T10:04:00Z</time></trkpt><trkpt lat="43.51168683981689" lon="12.349361623173557"><ele>720.0</ele><time>2026-04-19T10:04:01Z</time></trkpt><trkpt lat="43.51163464082483" lon="12.349191369866055"><ele>720.0</ele><time>2026-04-19T10:04:02Z</time></trkpt><trkpt lat="43.51160920342665" lon="12.349036333439305"><ele>720.0</ele><time>2026-04-19T10:04:03Z</time></trkpt><trkpt lat="43.51164109034822" lon="12.34892433562954"><ele>720.0</ele><time>2026-04-19T10:04:04Z</time></trkpt><trkpt lat="43.51170666731478" lon="12.348808846175112"><ele>720.0</ele><time>2026-04-19T10:04:05Z</time></trkpt><trkpt lat="43.51179712676742" lon="12.348797288555197"><ele>720.0</ele><time>2026-04-19T10:04:06Z</time></trkpt><trkpt lat="43.511895591861915" lon="12.348914731382393"><ele>720.0</ele><time>2026-04-19T10:04:07Z</time></trkpt><trkpt lat="43.51200845299549" lon="12.349063693547754"><ele>720.0</ele><time>2026-04-19T10:04:08Z</time></trkpt><trkpt lat="43.51219410069304" lon="12.34924515989271"><ele>720.0</ele><time>2026-04-19T10:04:09Z</time></trkpt><trkpt lat="43.512355374941365" lon="12.349416562342252"><ele>722.3333333333334</ele><time>2026-04-19T10:04:10Z</time></trkpt><trkpt lat="43.51249702287126" lon="12.349631534578009"><ele>724.6666666666667</ele><time>2026-04-19T10:04:11Z</time></trkpt><trkpt lat="43.51265900284431" lon="12.349861721182892"><ele>727.0</ele><time>2026-04-19T10:04:12Z</time></trkpt><trkpt lat="43.51281501955127" lon="12.350017519470049"><ele>725.6666666666667</ele><time>2026-04-19T10:04:13Z</time></trkpt><trkpt lat="43.512966881197" lon="12.350120897860972"><ele>724.3333333333334</ele><time>2026-04-19T10:04:14Z</time></trkpt><trkpt lat="43.51316199993302" lon="12.350189538279096"><ele>723.0</ele><time>2026-04-19T10:04:15Z</time></trkpt><trkpt lat="43.513370878784144" lon="12.350198532484013"><ele>723.0</ele><time>2026-04-19T10:04:16Z</time></trkpt><trkpt lat="43.51359558427192" lon="12.350231495741662"><ele>723.0</ele><time>2026-04-19T10:04:17Z</time></trkpt><trkpt lat="43.51380054155824" lon="12.350260669502529"><ele>723.0</ele><time>2026-04-19T10:04:18Z</time></trkpt><trkpt lat="43.51392605078967" lon="12.350258231082313"><ele>723.5</ele><time>2026-04-19T10:04:19Z</time></trkpt><trkpt lat="43.51405702908949" lon="12.35019739203993"><ele>724.0</ele><time>2026-04-19T10:04:20Z</time></trkpt><trkpt lat="43.51413264064292" lon="12.350094647642706"><ele>724.5</ele><time>2026-04-19T10:04:21Z</time></trkpt><trkpt lat="43.51418981135371" lon="12.349898036781008"><ele>725.0</ele><time>2026-04-19T10:04:22Z</time></trkpt><trkpt lat="43.51420763766581" lon="12.349660968730579"><ele>725.0</ele><time>2026-04-19T10:04:23Z</time></trkpt><trkpt lat="43.51415627080054" lon="12.349380125667285"><ele>725.0</ele><time>2026-04-19T10:04:24Z</time></trkpt><trkpt lat="43.51412064675026" lon="12.349097681351067"><ele>725.0</ele><time>2026-04-19T10:04:25Z</time></trkpt><trkpt lat="43.51412748867961" lon="12.348805982079952"><ele>724.3333333333333</ele><time>2026-04-19T10:04:26Z</time></trkpt><trkpt lat="43.514148364253344" lon="12.348489369891606"><ele>723.6666666666666</ele><time>2026-04-19T10:04:27Z</time></trkpt><trkpt lat="43.514136804236166" lon="12.348199736806672"><ele>723.0</ele><time>2026-04-19T10:04:28Z</time></trkpt><trkpt lat="43.51407898358067" lon="12.348004256228318"><ele>721.75</ele><time>2026-04-19T10:04:29Z</time></trkpt><trkpt lat="43.51404038738231" lon="12.347793225917691"><ele>720.5</ele><time>2026-04-19T10:04:30Z</time></trkpt><trkpt lat="43.514069823108215" lon="12.347661822425458"><ele>719.25</ele><time>2026-04-19T10:04:31Z</time></trkpt><trkpt lat="43.514192306965484" lon="12.347600565276569"><ele>718.0</ele><time>2026-04-19T10:04:32Z</time></trkpt><trkpt lat="43.514299919106165" lon="12.347597222606552"><ele>718.0</ele><time>2026-04-19T10:04:33Z</time></trkpt><trkpt lat="43.51445572424122" lon="12.347574081577488"><ele>718.0</ele><time>2026-04-19T10:04:34Z</time></trkpt><trkpt lat="43.51465282662419" lon="12.347545148826445"><ele>718.0</ele><time>2026-04-19T10:04:35Z</time></trkpt><trkpt lat="43.51486058212813" lon="12.34751176910035"><ele>719.5</ele><time>2026-04-19T10:04:36Z</time></trkpt><trkpt lat="43.51507196398629" lon="12.347522120990092"><ele>721.0</ele><time>2026-04-19T10:04:37Z</time></trkpt><trkpt lat="43.51531139809767" lon="12.347621005387936"><ele>718.5</ele><time>2026-04-19T10:04:38Z</time></trkpt><trkpt lat="43.515625199013925" lon="12.347693294034208"><ele>716.0</ele><time>2026-04-19T10:04:39Z</time></trkpt><trkpt lat="43.515909734414166" lon="12.347703645708757"><ele>716.0</ele><time>2026-04-19T10:04:40Z</time></trkpt><trkpt lat="43.51616681400516" lon="12.34773245601979"><ele>716.0</ele><time>2026-04-19T10:04:40.999Z</time></trkpt><trkpt lat="43.51636829913304" lon="12.347771673946427"><ele>713.25</ele><time>2026-04-19T10:04:41.999Z</time></trkpt><trkpt lat="43.516512561313036" lon="12.347827437337113"><ele>710.5</ele><time>2026-04-19T10:04:42.999Z</time></trkpt><trkpt lat="43.516599667176386" lon="12.347912496101944"><ele>707.75</ele><time>2026-04-19T10:04:43.999Z</time></trkpt><trkpt lat="43.516668266864755" lon="12.348112716647277"><ele>705.0</ele><time>2026-04-19T10:04:44.999Z</time></trkpt><trkpt lat="43.516766411392695" lon="12.348345103031518"><ele>709.0</ele><time>2026-04-19T10:04:45.999Z</time></trkpt><trkpt lat="43.516921194415865" lon="12.348561263347158"><ele>713.0</ele><time>2026-04-19T10:04:46.999Z</time></trkpt><trkpt lat="43.51705127680417" lon="12.348731612186606"><ele>717.0</ele><time>2026-04-19T10:04:47.999Z</time></trkpt><trkpt lat="43.51718416124434" lon="12.348781631640382"><ele>717.0</ele><time>2026-04-19T10:04:48.999Z</time></trkpt><trkpt lat="43.517333671373194" lon="12.348728251674912"><ele>717.0</ele><time>2026-04-19T10:04:49.999Z</time></trkpt><trkpt lat="43.51748069301157" lon="12.348613508371503"><ele>717.0</ele><time>2026-04-19T10:04:50.999Z</time></trkpt><trkpt lat="43.51765876439521" lon="12.348461933618749"><ele>717.0</ele><time>2026-04-19T10:04:51.999Z</time></trkpt><trkpt lat="43.51779915410108" lon="12.348236397007454"><ele>717.0</ele><time>2026-04-19T10:04:52.999Z</time></trkpt><trkpt lat="43.51788667374083" lon="12.34794692218812"><ele>717.0</ele><time>2026-04-19T10:04:53.999Z</time></trkpt><trkpt lat="43.51791851972739" lon="12.347639573042798"><ele>718.3333333333334</ele><time>2026-04-19T10:04:54.999Z</time></trkpt><trkpt lat="43.517954885298884" lon="12.347404897780578"><ele>719.6666666666667</ele><time>2026-04-19T10:04:55.999Z</time></trkpt><trkpt lat="43.51802722371876" lon="12.347207239459294"><ele>721.0</ele><time>2026-04-19T10:04:56.999Z</time></trkpt><trkpt lat="43.51818117819719" lon="12.347074197657262"><ele>715.0</ele><time>2026-04-19T10:04:57.999Z</time></trkpt><trkpt lat="43.51835976352735" lon="12.346926577719037"><ele>709.0</ele><time>2026-04-19T10:04:58.999Z</time></trkpt><trkpt lat="43.5185513140629" lon="12.3467586429526"><ele>703.0</ele><time>2026-04-19T10:04:59.999Z</time></trkpt><trkpt lat="43.51872157827822" lon="12.346626843492912"><ele>710.3333333333334</ele><time>2026-04-19T10:05:00.999Z</time></trkpt><trkpt lat="43.51887469959445" lon="12.346507580397839"><ele>717.6666666666666</ele><time>2026-04-19T10:05:01.999Z</time></trkpt><trkpt lat="43.519007412558764" lon="12.346415606068733"><ele>725.0</ele><time>2026-04-19T10:05:02.999Z</time></trkpt><trkpt lat="43.519089615366276" lon="12.346282217581981"><ele>725.0</ele><time>2026-04-19T10:05:03.999Z</time></trkpt><trkpt lat="43.519119890953576" lon="12.346062362867396"><ele>725.0</ele><time>2026-04-19T10:05:04.999Z</time></trkpt><trkpt lat="43.51906628915303" lon="12.345831341446463"><ele>725.0</ele><time>2026-04-19T10:05:05.999Z</time></trkpt><trkpt lat="43.51895738088302" lon="12.345607982065655"><ele>729.5</ele><time>2026-04-19T10:05:06.999Z</time></trkpt><trkpt lat="43.51883823544894" lon="12.345361892171415"><ele>734.0</ele><time>2026-04-19T10:05:07.999Z</time></trkpt><trkpt lat="43.51873257474293" lon="12.34506692710119"><ele>720.3333333333333</ele><time>2026-04-19T10:05:08.999Z</time></trkpt><trkpt lat="43.51863561331128" lon="12.344795194706712"><ele>706.6666666666666</ele><time>2026-04-19T10:05:10Z</time></trkpt><trkpt lat="43.51860019732599" lon="12.344533430646683"><ele>693.0</ele><time>2026-04-19T10:05:11Z</time></trkpt><trkpt lat="43.518583964828544" lon="12.344321994509338"><ele>693.0</ele><time>2026-04-19T10:05:12Z</time></trkpt><trkpt lat="43.518593375800705" lon="12.34411061033804"><ele>693.0</ele><time>2026-04-19T10:05:13Z</time></trkpt><trkpt lat="43.51865700660274" lon="12.343873671847827"><ele>693.0</ele><time>2026-04-19T10:05:14Z</time></trkpt><trkpt lat="43.51873232323834" lon="12.343628744689642"><ele>693.0</ele><time>2026-04-19T10:05:15Z</time></trkpt><trkpt lat="43.518801805049115" lon="12.34341189321225"><ele>693.0</ele><time>2026-04-19T10:05:16Z</time></trkpt><trkpt lat="43.518737162626614" lon="12.343197704936873"><ele>693.0</ele><time>2026-04-19T10:05:17Z</time></trkpt><trkpt lat="43.5186300732642" lon="12.342992915469924"><ele>693.0</ele><time>2026-04-19T10:05:18Z</time></trkpt><trkpt lat="43.51853524031285" lon="12.34280548787934"><ele>693.0</ele><time>2026-04-19T10:05:19Z</time></trkpt><trkpt lat="43.51852869928002" lon="12.342571593481992"><ele>693.0</ele><time>2026-04-19T10:05:20Z</time></trkpt><trkpt lat="43.51855068370067" lon="12.34238231467679"><ele>691.0</ele><time>2026-04-19T10:05:21Z</time></trkpt><trkpt lat="43.5186246083743" lon="12.342150191810651"><ele>689.0</ele><time>2026-04-19T10:05:22Z</time></trkpt><trkpt lat="43.518765728480226" lon="12.341957061450044"><ele>687.0</ele><time>2026-04-19T10:05:23Z</time></trkpt><trkpt lat="43.51890981069895" lon="12.34177280671686"><ele>696.0</ele><time>2026-04-19T10:05:24Z</time></trkpt><trkpt lat="43.51902527536803" lon="12.341593072490193"><ele>705.0</ele><time>2026-04-19T10:05:25Z</time></trkpt><trkpt lat="43.51908433111685" lon="12.341429462978756"><ele>714.0</ele><time>2026-04-19T10:05:26Z</time></trkpt><trkpt lat="43.51909168898474" lon="12.341210886609574"><ele>715.3333333333334</ele><time>2026-04-19T10:05:27Z</time></trkpt><trkpt lat="43.51901860071677" lon="12.340992351179027"><ele>716.6666666666667</ele><time>2026-04-19T10:05:28Z</time></trkpt><trkpt lat="43.51890386993909" lon="12.340799153449508"><ele>718.0</ele><time>2026-04-19T10:05:29Z</time></trkpt><trkpt lat="43.51872660026267" lon="12.34064722286401"><ele>724.5</ele><time>2026-04-19T10:05:30Z</time></trkpt><trkpt lat="43.51850400321752" lon="12.340479958336454"><ele>731.0</ele><time>2026-04-19T10:05:31Z</time></trkpt><trkpt lat="43.518278342536526" lon="12.340351482387451"><ele>731.0</ele><time>2026-04-19T10:05:32Z</time></trkpt><trkpt lat="43.518051173591395" lon="12.340258148432218"><ele>731.0</ele><time>2026-04-19T10:05:33Z</time></trkpt><trkpt lat="43.517809781850154" lon="12.340204688338236"><ele>726.5</ele><time>2026-04-19T10:05:34Z</time></trkpt><trkpt lat="43.51754556152298" lon="12.340232446036248"><ele>722.0</ele><time>2026-04-19T10:05:35Z</time></trkpt><trkpt lat="43.5172935354064" lon="12.340295604139936"><ele>722.0</ele><time>2026-04-19T10:05:36Z</time></trkpt><trkpt lat="43.51708412076699" lon="12.340240237941863"><ele>722.0</ele><time>2026-04-19T10:05:37Z</time></trkpt><trkpt lat="43.51690574056255" lon="12.340156355610715"><ele>722.0</ele><time>2026-04-19T10:05:38Z</time></trkpt><trkpt lat="43.5167031313739" lon="12.340045481204452"><ele>714.5</ele><time>2026-04-19T10:05:39Z</time></trkpt><trkpt lat="43.51647175897973" lon="12.33993095304125"><ele>707.0</ele><time>2026-04-19T10:05:40Z</time></trkpt><trkpt lat="43.51625449372595" lon="12.339801498568924"><ele>705.0</ele><time>2026-04-19T10:05:41Z</time></trkpt><trkpt lat="43.516059651851315" lon="12.339706354900727"><ele>703.0</ele><time>2026-04-19T10:05:42Z</time></trkpt><trkpt lat="43.51590399997011" lon="12.339610969884797"><ele>701.0</ele><time>2026-04-19T10:05:43Z</time></trkpt><trkpt lat="43.51576875058439" lon="12.339510214482177"><ele>701.0</ele><time>2026-04-19T10:05:44Z</time></trkpt><trkpt lat="43.51567366832156" lon="12.339355689471454"><ele>701.0</ele><time>2026-04-19T10:05:45Z</time></trkpt><trkpt lat="43.51559363065063" lon="12.339164032425394"><ele>701.0</ele><time>2026-04-19T10:05:46Z</time></trkpt><trkpt lat="43.51561997891849" lon="12.33892118157003"><ele>698.6666666666666</ele><time>2026-04-19T10:05:47Z</time></trkpt><trkpt lat="43.51568015949969" lon="12.33869914178788"><ele>696.3333333333334</ele><time>2026-04-19T10:05:48Z</time></trkpt><trkpt lat="43.515835343890906" lon="12.338532786939236"><ele>694.0</ele><time>2026-04-19T10:05:49Z</time></trkpt><trkpt lat="43.516009818815185" lon="12.33839112749344"><ele>700.0</ele><time>2026-04-19T10:05:50Z</time></trkpt><trkpt lat="43.516251305105484" lon="12.338259985554132"><ele>706.0</ele><time>2026-04-19T10:05:51Z</time></trkpt><trkpt lat="43.51646025219237" lon="12.338119378933916"><ele>697.5</ele><time>2026-04-19T10:05:52Z</time></trkpt><trkpt lat="43.51668037169883" lon="12.337973092044244"><ele>689.0</ele><time>2026-04-19T10:05:53Z</time></trkpt><trkpt lat="43.516938128734324" lon="12.33778940983448"><ele>697.5</ele><time>2026-04-19T10:05:54Z</time></trkpt><trkpt lat="43.51720368346078" lon="12.337577642163838"><ele>706.0</ele><time>2026-04-19T10:05:55Z</time></trkpt><trkpt lat="43.517446800804706" lon="12.337284500425898"><ele>697.0</ele><time>2026-04-19T10:05:56Z</time></trkpt><trkpt lat="43.5176697449527" lon="12.337030774073472"><ele>688.0</ele><time>2026-04-19T10:05:57Z</time></trkpt><trkpt lat="43.51783462934967" lon="12.336835987203091"><ele>693.0</ele><time>2026-04-19T10:05:58Z</time></trkpt><trkpt lat="43.51796802521598" lon="12.336615647258837"><ele>698.0</ele><time>2026-04-19T10:05:59Z</time></trkpt><trkpt lat="43.518041024996904" lon="12.336371471005462"><ele>703.0</ele><time>2026-04-19T10:06:00Z</time></trkpt><trkpt lat="43.518070011117146" lon="12.336066644335602"><ele>703.0</ele><time>2026-04-19T10:06:01Z</time></trkpt><trkpt lat="43.51805388152784" lon="12.335750004016806"><ele>703.0</ele><time>2026-04-19T10:06:02Z</time></trkpt><trkpt lat="43.51801333341709" lon="12.335462878373912"><ele>703.0</ele><time>2026-04-19T10:06:03Z</time></trkpt><trkpt lat="43.51790671654714" lon="12.33522812313505"><ele>699.6666666666667</ele><time>2026-04-19T10:06:04Z</time></trkpt><trkpt lat="43.51774215784622" lon="12.335076224896977"><ele>696.3333333333334</ele><time>2026-04-19T10:06:05Z</time></trkpt><trkpt lat="43.517506190212494" lon="12.33497200975545"><ele>693.0</ele><time>2026-04-19T10:06:06Z</time></trkpt><trkpt lat="43.51723908159481" lon="12.33487153288608"><ele>686.5</ele><time>2026-04-19T10:06:07Z</time></trkpt><trkpt lat="43.51696799477486" lon="12.334764696079704"><ele>680.0</ele><time>2026-04-19T10:06:08Z</time></trkpt><trkpt lat="43.51664467087007" lon="12.334657213497334"><ele>685.0</ele><time>2026-04-19T10:06:09Z</time></trkpt><trkpt lat="43.51628020722994" lon="12.33454874762206"><ele>690.0</ele><time>2026-04-19T10:06:10Z</time></trkpt><trkpt lat="43.51597544123658" lon="12.33448175001745"><ele>690.0</ele><time>2026-04-19T10:06:11Z</time></trkpt><trkpt lat="43.515696942605395" lon="12.334417661438744"><ele>690.0</ele><time>2026-04-19T10:06:12Z</time></trkpt><trkpt lat="43.51552175217134" lon="12.334327408571616"><ele>683.5</ele><time>2026-04-19T10:06:13Z</time></trkpt><trkpt lat="43.5153969234802" lon="12.334235589662601"><ele>677.0</ele><time>2026-04-19T10:06:14Z</time></trkpt><trkpt lat="43.5153345375472" lon="12.334091965213405"><ele>670.5</ele><time>2026-04-19T10:06:15Z</time></trkpt><trkpt lat="43.515332999810774" lon="12.333979457480918"><ele>664.0</ele><time>2026-04-19T10:06:16Z</time></trkpt><trkpt lat="43.51537373794443" lon="12.333761197191052"><ele>673.0</ele><time>2026-04-19T10:06:17Z</time></trkpt><trkpt lat="43.51550710643528" lon="12.333579678039571"><ele>682.0</ele><time>2026-04-19T10:06:18Z</time></trkpt><trkpt lat="43.51567562924783" lon="12.333433889006637"><ele>691.0</ele><time>2026-04-19T10:06:19Z</time></trkpt><trkpt lat="43.51580424905934" lon="12.333271514779035"><ele>691.0</ele><time>2026-04-19T10:06:20Z</time></trkpt><trkpt lat="43.51587889244515" lon="12.33311944556539"><ele>691.0</ele><time>2026-04-19T10:06:21Z</time></trkpt><trkpt lat="43.51587294725618" lon="12.332897521217307"><ele>691.0</ele><time>2026-04-19T10:06:22Z</time></trkpt><trkpt lat="43.515786618586226" lon="12.332680148614882"><ele>696.5</ele><time>2026-04-19T10:06:23Z</time></trkpt><trkpt lat="43.51561834273024" lon="12.332489043342239"><ele>702.0</ele><time>2026-04-19T10:06:24Z</time></trkpt><trkpt lat="43.51540767945871" lon="12.332219559971954"><ele>695.5</ele><time>2026-04-19T10:06:25Z</time></trkpt><trkpt lat="43.51523923901071" lon="12.331894371333327"><ele>689.0</ele><time>2026-04-19T10:06:26Z</time></trkpt><trkpt lat="43.51510103318805" lon="12.331610621260772"><ele>689.0</ele><time>2026-04-19T10:06:27Z</time></trkpt><trkpt lat="43.514996985156635" lon="12.331390750141338"><ele>689.0</ele><time>2026-04-19T10:06:28Z</time></trkpt><trkpt lat="43.514892441500734" lon="12.331252178170613"><ele>689.0</ele><time>2026-04-19T10:06:29Z</time></trkpt><trkpt lat="43.51471303932944" lon="12.331213959546641"><ele>693.5</ele><time>2026-04-19T10:06:30Z</time></trkpt><trkpt lat="43.51449449170105" lon="12.33137642465826"><ele>698.0</ele><time>2026-04-19T10:06:31Z</time></trkpt><trkpt lat="43.51430871780421" lon="12.331530515546355"><ele>690.3333333333333</ele><time>2026-04-19T10:06:32Z</time></trkpt><trkpt lat="43.514121049566675" lon="12.331659003811149"><ele>682.6666666666666</ele><time>2026-04-19T10:06:33Z</time></trkpt><trkpt lat="43.513955238596644" lon="12.331641909424008"><ele>675.0</ele><time>2026-04-19T10:06:34Z</time></trkpt><trkpt lat="43.513820601693226" lon="12.331596943421465"><ele>675.0</ele><time>2026-04-19T10:06:35Z</time></trkpt><trkpt lat="43.513754327186746" lon="12.331479665602963"><ele>675.0</ele><time>2026-04-19T10:06:36Z</time></trkpt><trkpt lat="43.513725926556226" lon="12.331264866667757"><ele>675.0</ele><time>2026-04-19T10:06:37Z</time></trkpt><trkpt lat="43.51372550677623" lon="12.331004400926572"><ele>673.0</ele><time>2026-04-19T10:06:38Z</time></trkpt><trkpt lat="43.51370182162637" lon="12.330764137891618"><ele>671.0</ele><time>2026-04-19T10:06:39Z</time></trkpt><trkpt lat="43.51359787707896" lon="12.330577396938827"><ele>669.0</ele><time>2026-04-19T10:06:40Z</time></trkpt><trkpt lat="43.513407316833316" lon="12.330441904959459"><ele>666.6666666666666</ele><time>2026-04-19T10:06:40.999Z</time></trkpt><trkpt lat="43.51317272261161" lon="12.330447610143645"><ele>664.3333333333333</ele><time>2026-04-19T10:06:41.999Z</time></trkpt><trkpt lat="43.51297949783564" lon="12.33042160551873"><ele>662.0</ele><time>2026-04-19T10:06:42.999Z</time></trkpt><trkpt lat="43.512818611336186" lon="12.330384865773096"><ele>662.0</ele><time>2026-04-19T10:06:43.999Z</time></trkpt><trkpt lat="43.5126758414471" lon="12.330303852264377"><ele>662.0</ele><time>2026-04-19T10:06:44.999Z</time></trkpt><trkpt lat="43.512620840613536" lon="12.33016427622216"><ele>662.0</ele><time>2026-04-19T10:06:45.999Z</time></trkpt><trkpt lat="43.512623711348425" lon="12.329946508560628"><ele>662.0</ele><time>2026-04-19T10:06:46.999Z</time></trkpt><trkpt lat="43.51262755659569" lon="12.329666178088178"><ele>665.0</ele><time>2026-04-19T10:06:47.999Z</time></trkpt><trkpt lat="43.51266571424683" lon="12.329396921971561"><ele>668.0</ele><time>2026-04-19T10:06:48.999Z</time></trkpt><trkpt lat="43.51261116082684" lon="12.329145749400983"><ele>671.0</ele><time>2026-04-19T10:06:49.999Z</time></trkpt><trkpt lat="43.512465382414184" lon="12.328929496405888"><ele>670.0</ele><time>2026-04-19T10:06:50.999Z</time></trkpt><trkpt lat="43.51226437219158" lon="12.328800758098819"><ele>669.0</ele><time>2026-04-19T10:06:51.999Z</time></trkpt><trkpt lat="43.51203522898423" lon="12.328769444785728"><ele>673.0</ele><time>2026-04-19T10:06:52.999Z</time></trkpt><trkpt lat="43.51177922656932" lon="12.328724027721291"><ele>677.0</ele><time>2026-04-19T10:06:53.999Z</time></trkpt><trkpt lat="43.51154034574071" lon="12.328660830300235"><ele>677.0</ele><time>2026-04-19T10:06:54.999Z</time></trkpt><trkpt lat="43.51134053968813" lon="12.32860576767174"><ele>677.0</ele><time>2026-04-19T10:06:55.999Z</time></trkpt><trkpt lat="43.511135407719884" lon="12.328545941431154"><ele>677.0</ele><time>2026-04-19T10:06:56.999Z</time></trkpt><trkpt lat="43.5109590086899" lon="12.328493097586836"><ele>672.6666666666666</ele><time>2026-04-19T10:06:57.999Z</time></trkpt><trkpt lat="43.510802211717404" lon="12.328449088715663"><ele>668.3333333333334</ele><time>2026-04-19T10:06:58.999Z</time></trkpt><trkpt lat="43.51063729098532" lon="12.328397930082849"><ele>664.0</ele><time>2026-04-19T10:06:59.999Z</time></trkpt><trkpt lat="43.510478422023745" lon="12.328397750816093"><ele>664.6666666666667</ele><time>2026-04-19T10:07:00.999Z</time></trkpt><trkpt lat="43.51028817877018" lon="12.328505816689098"><ele>665.3333333333334</ele><time>2026-04-19T10:07:01.999Z</time></trkpt><trkpt lat="43.51012151820162" lon="12.328676983470432"><ele>666.0</ele><time>2026-04-19T10:07:02.999Z</time></trkpt><trkpt lat="43.50990949616537" lon="12.328879378205933"><ele>666.0</ele><time>2026-04-19T10:07:03.999Z</time></trkpt><trkpt lat="43.50971135056989" lon="12.329035327993733"><ele>666.0</ele><time>2026-04-19T10:07:04.999Z</time></trkpt><trkpt lat="43.50953670627185" lon="12.329156608160547"><ele>666.0</ele><time>2026-04-19T10:07:05.999Z</time></trkpt><trkpt lat="43.50935512987846" lon="12.329257064184185"><ele>666.0</ele><time>2026-04-19T10:07:06.999Z</time></trkpt><trkpt lat="43.50920680307325" lon="12.32926170345962"><ele>666.0</ele><time>2026-04-19T10:07:07.999Z</time></trkpt><trkpt lat="43.50902417225362" lon="12.329193489197426"><ele>666.0</ele><time>2026-04-19T10:07:08.999Z</time></trkpt><trkpt lat="43.50887616628537" lon="12.32908381556219"><ele>666.3333333333334</ele><time>2026-04-19T10:07:09.999Z</time></trkpt><trkpt lat="43.50877547530866" lon="12.328880783055348"><ele>666.6666666666667</ele><time>2026-04-19T10:07:10.999Z</time></trkpt><trkpt lat="43.50870267539259" lon="12.32861968290137"><ele>667.0</ele><time>2026-04-19T10:07:11.999Z</time></trkpt><trkpt lat="43.50866890456422" lon="12.328346520857767"><ele>663.0</ele><time>2026-04-19T10:07:12.999Z</time></trkpt><trkpt lat="43.50871421167321" lon="12.328071491126101"><ele>659.0</ele><time>2026-04-19T10:07:13.999Z</time></trkpt><trkpt lat="43.5088183680457" lon="12.327840740322268"><ele>655.0</ele><time>2026-04-19T10:07:14.999Z</time></trkpt><trkpt lat="43.5089830920277" lon="12.327702752758814"><ele>654.0</ele><time>2026-04-19T10:07:16Z</time></trkpt><trkpt lat="43.50919758148649" lon="12.327650470963023"><ele>653.0</ele><time>2026-04-19T10:07:17Z</time></trkpt><trkpt lat="43.50945434270901" lon="12.327613932171117"><ele>655.0</ele><time>2026-04-19T10:07:18Z</time></trkpt><trkpt lat="43.50968212194354" lon="12.327583594373177"><ele>657.0</ele><time>2026-04-19T10:07:19Z</time></trkpt><trkpt lat="43.50986869292315" lon="12.32756251649243"><ele>659.0</ele><time>2026-04-19T10:07:20Z</time></trkpt><trkpt lat="43.510030286215404" lon="12.327500969162077"><ele>659.0</ele><time>2026-04-19T10:07:21Z</time></trkpt><trkpt lat="43.51017692944058" lon="12.327329883862499"><ele>659.0</ele><time>2026-04-19T10:07:22Z</time></trkpt><trkpt lat="43.51030494682096" lon="12.327068801150164"><ele>659.0</ele><time>2026-04-19T10:07:23Z</time></trkpt><trkpt lat="43.51044093050505" lon="12.326787963078294"><ele>658.6666666666666</ele><time>2026-04-19T10:07:24Z</time></trkpt><trkpt lat="43.51057415741459" lon="12.326547286577261"><ele>658.3333333333334</ele><time>2026-04-19T10:07:25Z</time></trkpt><trkpt lat="43.510669773049074" lon="12.326360369339694"><ele>658.0</ele><time>2026-04-19T10:07:26Z</time></trkpt><trkpt lat="43.51070168618863" lon="12.326170292058398"><ele>656.6666666666667</ele><time>2026-04-19T10:07:27Z</time></trkpt><trkpt lat="43.51065081202224" lon="12.325980854360669"><ele>655.3333333333334</ele><time>2026-04-19T10:07:28Z</time></trkpt><trkpt lat="43.51052712843639" lon="12.325831498820149"><ele>654.0</ele><time>2026-04-19T10:07:29Z</time></trkpt><trkpt lat="43.51034670381182" lon="12.325748361095044"><ele>652.0</ele><time>2026-04-19T10:07:30Z</time></trkpt><trkpt lat="43.510126935676" lon="12.325739948707136"><ele>650.0</ele><time>2026-04-19T10:07:31Z</time></trkpt><trkpt lat="43.509882976710664" lon="12.325762178881318"><ele>650.0</ele><time>2026-04-19T10:07:32Z</time></trkpt><trkpt lat="43.509666943142705" lon="12.325763159104916"><ele>650.0</ele><time>2026-04-19T10:07:33Z</time></trkpt><trkpt lat="43.509487387984514" lon="12.325719763470426"><ele>650.0</ele><time>2026-04-19T10:07:34Z</time></trkpt><trkpt lat="43.509336320111494" lon="12.325608185733387"><ele>649.3333333333333</ele><time>2026-04-19T10:07:35Z</time></trkpt><trkpt lat="43.50917894230958" lon="12.32544960796568"><ele>648.6666666666666</ele><time>2026-04-19T10:07:36Z</time></trkpt><trkpt lat="43.50905737919388" lon="12.325221645122665"><ele>648.0</ele><time>2026-04-19T10:07:37Z</time></trkpt><trkpt lat="43.50894102110609" lon="12.324997882702029"><ele>648.0</ele><time>2026-04-19T10:07:38Z</time></trkpt><trkpt lat="43.508759889069665" lon="12.324797344646361"><ele>648.0</ele><time>2026-04-19T10:07:39Z</time></trkpt><trkpt lat="43.50850536044748" lon="12.324629017757067"><ele>647.0</ele><time>2026-04-19T10:07:40Z</time></trkpt><trkpt lat="43.508207752074284" lon="12.324442244643656"><ele>646.0</ele><time>2026-04-19T10:07:41Z</time></trkpt><trkpt lat="43.50795593639188" lon="12.324269855321102"><ele>641.0</ele><time>2026-04-19T10:07:42Z</time></trkpt><trkpt lat="43.50776831398695" lon="12.32407405794108"><ele>636.0</ele><time>2026-04-19T10:07:43Z</time></trkpt><trkpt lat="43.507589721953664" lon="12.32379066567876"><ele>636.0</ele><time>2026-04-19T10:07:44Z</time></trkpt><trkpt lat="43.50740241144293" lon="12.323456106441606"><ele>636.0</ele><time>2026-04-19T10:07:45Z</time></trkpt><trkpt lat="43.5072215025961" lon="12.323147148292168"><ele>632.0</ele><time>2026-04-19T10:07:46Z</time></trkpt><trkpt lat="43.50705704650441" lon="12.322884406118359"><ele>628.0</ele><time>2026-04-19T10:07:47Z</time></trkpt><trkpt lat="43.506880103739164" lon="12.32263867229672"><ele>628.0</ele><time>2026-04-19T10:07:48Z</time></trkpt><trkpt lat="43.5066533160288" lon="12.322428306145957"><ele>628.0</ele><time>2026-04-19T10:07:49Z</time></trkpt><trkpt lat="43.506368734383884" lon="12.322256812324282"><ele>627.5</ele><time>2026-04-19T10:07:50Z</time></trkpt><trkpt lat="43.50608698769467" lon="12.322095385652604"><ele>627.0</ele><time>2026-04-19T10:07:51Z</time></trkpt><trkpt lat="43.50585925061922" lon="12.321930157454341"><ele>627.0</ele><time>2026-04-19T10:07:52Z</time></trkpt><trkpt lat="43.505653643823784" lon="12.32177340800821"><ele>627.0</ele><time>2026-04-19T10:07:53Z</time></trkpt><trkpt lat="43.50546941582935" lon="12.321617518747354"><ele>623.3333333333334</ele><time>2026-04-19T10:07:54Z</time></trkpt><trkpt lat="43.50531252750613" lon="12.321438336534811"><ele>619.6666666666667</ele><time>2026-04-19T10:07:55Z</time></trkpt><trkpt lat="43.5052166272118" lon="12.321247218228333"><ele>616.0</ele><time>2026-04-19T10:07:56Z</time></trkpt><trkpt lat="43.50517078038249" lon="12.321011323499983"><ele>616.0</ele><time>2026-04-19T10:07:57Z</time></trkpt><trkpt lat="43.505152606763545" lon="12.320720520487347"><ele>616.0</ele><time>2026-04-19T10:07:58Z</time></trkpt><trkpt lat="43.5051582960826" lon="12.320401476183568"><ele>616.0</ele><time>2026-04-19T10:07:59Z</time></trkpt><trkpt lat="43.505063869818436" lon="12.320146341186167"><ele>615.6666666666667</ele><time>2026-04-19T10:08:00Z</time></trkpt><trkpt lat="43.50492788399007" lon="12.319926837798187"><ele>615.3333333333334</ele><time>2026-04-19T10:08:01Z</time></trkpt><trkpt lat="43.50481901952169" lon="12.319695850319544"><ele>615.0</ele><time>2026-04-19T10:08:02Z</time></trkpt><trkpt lat="43.50480419254185" lon="12.319416437597502"><ele>614.5</ele><time>2026-04-19T10:08:03Z</time></trkpt><trkpt lat="43.50481764777892" lon="12.319027031697129"><ele>614.0</ele><time>2026-04-19T10:08:04Z</time></trkpt><trkpt lat="43.50484075603587" lon="12.318720088686959"><ele>612.0</ele><time>2026-04-19T10:08:05Z</time></trkpt><trkpt lat="43.50487923211136" lon="12.31856893536964"><ele>610.0</ele><time>2026-04-19T10:08:06Z</time></trkpt><trkpt lat="43.50493181897062" lon="12.318434481096501"><ele>608.0</ele><time>2026-04-19T10:08:07Z</time></trkpt><trkpt lat="43.505004198770465" lon="12.318361843877398"><ele>606.0</ele><time>2026-04-19T10:08:08Z</time></trkpt><trkpt lat="43.50516140522079" lon="12.318297391272516"><ele>606.0</ele><time>2026-04-19T10:08:09Z</time></trkpt><trkpt lat="43.50532112445695" lon="12.318320797742388"><ele>606.0</ele><time>2026-04-19T10:08:10Z</time></trkpt><trkpt lat="43.505519490432945" lon="12.318362423954687"><ele>606.0</ele><time>2026-04-19T10:08:11Z</time></trkpt><trkpt lat="43.50572824873028" lon="12.31838788138889"><ele>606.25</ele><time>2026-04-19T10:08:12Z</time></trkpt><trkpt lat="43.505866525729544" lon="12.318351020047373"><ele>606.5</ele><time>2026-04-19T10:08:13Z</time></trkpt><trkpt lat="43.505968275631666" lon="12.318241948305978"><ele>606.75</ele><time>2026-04-19T10:08:14Z</time></trkpt><trkpt lat="43.50603634969725" lon="12.318026990130216"><ele>607.0</ele><time>2026-04-19T10:08:15Z</time></trkpt><trkpt lat="43.50606083503932" lon="12.317823945993313"><ele>602.0</ele><time>2026-04-19T10:08:16Z</time></trkpt><trkpt lat="43.506171254307205" lon="12.317655498284166"><ele>597.0</ele><time>2026-04-19T10:08:17Z</time></trkpt><trkpt lat="43.50633562212592" lon="12.317548176268987"><ele>592.0</ele><time>2026-04-19T10:08:18Z</time></trkpt><trkpt lat="43.506491337014246" lon="12.317505240698141"><ele>592.0</ele><time>2026-04-19T10:08:19Z</time></trkpt><trkpt lat="43.506658125354264" lon="12.317530786718416"><ele>592.0</ele><time>2026-04-19T10:08:20Z</time></trkpt><trkpt lat="43.506814608025536" lon="12.317614111755143"><ele>592.0</ele><time>2026-04-19T10:08:21Z</time></trkpt><trkpt lat="43.5069639074288" lon="12.31771200430839"><ele>592.0</ele><time>2026-04-19T10:08:22Z</time></trkpt><trkpt lat="43.507117070618" lon="12.317775624819838"><ele>592.0</ele><time>2026-04-19T10:08:23Z</time></trkpt><trkpt lat="43.507264324039525" lon="12.31779883826788"><ele>592.0</ele><time>2026-04-19T10:08:24Z</time></trkpt><trkpt lat="43.507428645974656" lon="12.317731646583958"><ele>592.0</ele><time>2026-04-19T10:08:25Z</time></trkpt><trkpt lat="43.50755221245241" lon="12.317576019988168"><ele>592.0</ele><time>2026-04-19T10:08:26Z</time></trkpt><trkpt lat="43.50763174121382" lon="12.317368313443954"><ele>592.0</ele><time>2026-04-19T10:08:27Z</time></trkpt><trkpt lat="43.5076360706928" lon="12.317124162658272"><ele>592.0</ele><time>2026-04-19T10:08:28Z</time></trkpt><trkpt lat="43.50756232985355" lon="12.316837515493074"><ele>592.0</ele><time>2026-04-19T10:08:29Z</time></trkpt><trkpt lat="43.50745200648357" lon="12.316581925340785"><ele>592.0</ele><time>2026-04-19T10:08:30Z</time></trkpt><trkpt lat="43.50731612440384" lon="12.316335805212423"><ele>591.3333333333334</ele><time>2026-04-19T10:08:31Z</time></trkpt><trkpt lat="43.50717689117219" lon="12.31611722182947"><ele>590.6666666666666</ele><time>2026-04-19T10:08:32Z</time></trkpt><trkpt lat="43.50710932639726" lon="12.31591876651529"><ele>590.0</ele><time>2026-04-19T10:08:33Z</time></trkpt><trkpt lat="43.50715576215451" lon="12.315643090247882"><ele>589.0</ele><time>2026-04-19T10:08:34Z</time></trkpt><trkpt lat="43.50721466894431" lon="12.315316371744565"><ele>588.0</ele><time>2026-04-19T10:08:35Z</time></trkpt><trkpt lat="43.507238339428795" lon="12.314992122803929"><ele>585.5</ele><time>2026-04-19T10:08:36Z</time></trkpt><trkpt lat="43.50720368832849" lon="12.314603787506124"><ele>583.0</ele><time>2026-04-19T10:08:37Z</time></trkpt><trkpt lat="43.50718719706626" lon="12.314107928267413"><ele>576.0</ele><time>2026-04-19T10:08:38Z</time></trkpt><trkpt lat="43.50718060233682" lon="12.313806974865871"><ele>569.0</ele><time>2026-04-19T10:08:39Z</time></trkpt><trkpt lat="43.50712442214558" lon="12.313480158681434"><ele>569.5</ele><time>2026-04-19T10:08:40Z</time></trkpt><trkpt lat="43.50701738514766" lon="12.313192281529707"><ele>570.0</ele><time>2026-04-19T10:08:41Z</time></trkpt><trkpt lat="43.50684375305199" lon="12.312934477169037"><ele>572.5</ele><time>2026-04-19T10:08:42Z</time></trkpt><trkpt lat="43.506665696976015" lon="12.312634099664555"><ele>575.0</ele><time>2026-04-19T10:08:43Z</time></trkpt><trkpt lat="43.50651581014816" lon="12.31238641300568"><ele>576.3333333333333</ele><time>2026-04-19T10:08:44Z</time></trkpt><trkpt lat="43.506369684244554" lon="12.312171899749366"><ele>577.6666666666666</ele><time>2026-04-19T10:08:45Z</time></trkpt><trkpt lat="43.50630989323939" lon="12.311929337006978"><ele>579.0</ele><time>2026-04-19T10:08:46Z</time></trkpt><trkpt lat="43.50626909615357" lon="12.311667521239995"><ele>573.5</ele><time>2026-04-19T10:08:47Z</time></trkpt><trkpt lat="43.5062002392036" lon="12.311353801304637"><ele>568.0</ele><time>2026-04-19T10:08:48Z</time></trkpt><trkpt lat="43.506079241009324" lon="12.311032192940456"><ele>568.0</ele><time>2026-04-19T10:08:49Z</time></trkpt><trkpt lat="43.505936460186255" lon="12.310767362037417"><ele>568.0</ele><time>2026-04-19T10:08:50Z</time></trkpt><trkpt lat="43.50578821788289" lon="12.310530042858492"><ele>568.6666666666667</ele><time>2026-04-19T10:08:50.999Z</time></trkpt><trkpt lat="43.50566511063221" lon="12.31036045249202"><ele>569.3333333333334</ele><time>2026-04-19T10:08:51.999Z</time></trkpt><trkpt lat="43.5056263969359" lon="12.310164897065214"><ele>570.0</ele><time>2026-04-19T10:08:52.999Z</time></trkpt><trkpt lat="43.5056248519917" lon="12.30994205004914"><ele>567.0</ele><time>2026-04-19T10:08:53.999Z</time></trkpt><trkpt lat="43.50563905257599" lon="12.309623729226175"><ele>564.0</ele><time>2026-04-19T10:08:54.999Z</time></trkpt><trkpt lat="43.505588818725606" lon="12.309341228648348"><ele>561.0</ele><time>2026-04-19T10:08:55.999Z</time></trkpt><trkpt lat="43.50552394921795" lon="12.309071195595973"><ele>560.3333333333334</ele><time>2026-04-19T10:08:56.999Z</time></trkpt><trkpt lat="43.50536770325081" lon="12.30885884188831"><ele>559.6666666666667</ele><time>2026-04-19T10:08:57.999Z</time></trkpt><trkpt lat="43.505191496993504" lon="12.308663075878524"><ele>559.0</ele><time>2026-04-19T10:08:58.999Z</time></trkpt><trkpt lat="43.50502316869363" lon="12.308492709627501"><ele>559.0</ele><time>2026-04-19T10:08:59.999Z</time></trkpt><trkpt lat="43.50489255482274" lon="12.308351935663286"><ele>559.0</ele><time>2026-04-19T10:09:00.999Z</time></trkpt><trkpt lat="43.504771494547" lon="12.308201543576246"><ele>559.0</ele><time>2026-04-19T10:09:01.999Z</time></trkpt><trkpt lat="43.5046556275557" lon="12.308061896799153"><ele>556.6666666666667</ele><time>2026-04-19T10:09:02.999Z</time></trkpt><trkpt lat="43.50454607262757" lon="12.307920028547587"><ele>554.3333333333334</ele><time>2026-04-19T10:09:03.999Z</time></trkpt><trkpt lat="43.504427456072754" lon="12.307772188987007"><ele>552.0</ele><time>2026-04-19T10:09:04.999Z</time></trkpt><trkpt lat="43.5043110843258" lon="12.307623740160933"><ele>552.0</ele><time>2026-04-19T10:09:05.999Z</time></trkpt><trkpt lat="43.50420210341791" lon="12.30747632345879"><ele>552.0</ele><time>2026-04-19T10:09:06.999Z</time></trkpt><trkpt lat="43.50410849154494" lon="12.30734020816224"><ele>552.0</ele><time>2026-04-19T10:09:07.999Z</time></trkpt><trkpt lat="43.504069989587784" lon="12.30716645761563"><ele>552.0</ele><time>2026-04-19T10:09:08.999Z</time></trkpt><trkpt lat="43.50405113352867" lon="12.306974563802594"><ele>550.75</ele><time>2026-04-19T10:09:09.999Z</time></trkpt><trkpt lat="43.50403820343427" lon="12.306783406145966"><ele>549.5</ele><time>2026-04-19T10:09:10.999Z</time></trkpt><trkpt lat="43.50401773722994" lon="12.306583018764151"><ele>548.25</ele><time>2026-04-19T10:09:11.999Z</time></trkpt><trkpt lat="43.50401256579438" lon="12.30637492175087"><ele>547.0</ele><time>2026-04-19T10:09:12.999Z</time></trkpt><trkpt lat="43.504007393528596" lon="12.306159993648992"><ele>545.75</ele><time>2026-04-19T10:09:13.999Z</time></trkpt><trkpt lat="43.50398714357928" lon="12.305931259781884"><ele>544.5</ele><time>2026-04-19T10:09:14.999Z</time></trkpt><trkpt lat="43.50395573207309" lon="12.305721447079708"><ele>543.25</ele><time>2026-04-19T10:09:15.999Z</time></trkpt><trkpt lat="43.50392916001425" lon="12.305554728126916"><ele>542.0</ele><time>2026-04-19T10:09:16.999Z</time></trkpt><trkpt lat="43.50390983092581" lon="12.30531953511671"><ele>542.0</ele><time>2026-04-19T10:09:17.999Z</time></trkpt><trkpt lat="43.50386812319468" lon="12.305091225077874"><ele>542.0</ele><time>2026-04-19T10:09:18.999Z</time></trkpt><trkpt lat="43.503848723335736" lon="12.304905733189514"><ele>542.0</ele><time>2026-04-19T10:09:19.999Z</time></trkpt><trkpt lat="43.50379691899864" lon="12.304702545113043"><ele>541.0</ele><time>2026-04-19T10:09:20.999Z</time></trkpt><trkpt lat="43.503693762183296" lon="12.304523738237572"><ele>540.0</ele><time>2026-04-19T10:09:22Z</time></trkpt><trkpt lat="43.50355926080885" lon="12.304355300474812"><ele>539.0</ele><time>2026-04-19T10:09:23Z</time></trkpt><trkpt lat="43.503397727395075" lon="12.304206559267946"><ele>539.0</ele><time>2026-04-19T10:09:24Z</time></trkpt><trkpt lat="43.50321217172231" lon="12.304101629974673"><ele>539.0</ele><time>2026-04-19T10:09:25Z</time></trkpt><trkpt lat="43.50301452464991" lon="12.304017652868751"><ele>539.0</ele><time>2026-04-19T10:09:26Z</time></trkpt><trkpt lat="43.502819991123225" lon="12.30392659610205"><ele>545.5</ele><time>2026-04-19T10:09:27Z</time></trkpt><trkpt lat="43.50259505583073" lon="12.303819869298914"><ele>552.0</ele><time>2026-04-19T10:09:28Z</time></trkpt><trkpt lat="43.50237460356339" lon="12.30363431615034"><ele>552.0</ele><time>2026-04-19T10:09:29Z</time></trkpt><trkpt lat="43.50213696170872" lon="12.303437134419918"><ele>552.0</ele><time>2026-04-19T10:09:30Z</time></trkpt><trkpt lat="43.501879701394905" lon="12.303195705848603"><ele>552.5</ele><time>2026-04-19T10:09:31Z</time></trkpt><trkpt lat="43.501630908091265" lon="12.30296959494797"><ele>553.0</ele><time>2026-04-19T10:09:32Z</time></trkpt><trkpt lat="43.501425364393306" lon="12.302765815285928"><ele>553.0</ele><time>2026-04-19T10:09:33Z</time></trkpt><trkpt lat="43.501254567942965" lon="12.302561302468627"><ele>553.0</ele><time>2026-04-19T10:09:34Z</time></trkpt><trkpt lat="43.50108892364947" lon="12.302391297184592"><ele>553.0</ele><time>2026-04-19T10:09:35Z</time></trkpt><trkpt lat="43.500901596726905" lon="12.302311194784236"><ele>548.6666666666667</ele><time>2026-04-19T10:09:36Z</time></trkpt><trkpt lat="43.50071434695099" lon="12.30232998271804"><ele>544.3333333333334</ele><time>2026-04-19T10:09:37Z</time></trkpt><trkpt lat="43.50052186672994" lon="12.302449425206623"><ele>540.0</ele><time>2026-04-19T10:09:38Z</time></trkpt><trkpt lat="43.5003503404265" lon="12.30258965265689"><ele>538.3333333333334</ele><time>2026-04-19T10:09:39Z</time></trkpt><trkpt lat="43.50017176772313" lon="12.302620289320272"><ele>536.6666666666667</ele><time>2026-04-19T10:09:40Z</time></trkpt><trkpt lat="43.500047892531576" lon="12.3025216132401"><ele>535.0</ele><time>2026-04-19T10:09:41Z</time></trkpt><trkpt lat="43.499906488604104" lon="12.30237959759306"><ele>531.5</ele><time>2026-04-19T10:09:42Z</time></trkpt><trkpt lat="43.499640276362435" lon="12.302089000471902"><ele>528.0</ele><time>2026-04-19T10:09:43Z</time></trkpt><trkpt lat="43.49950490944264" lon="12.301855932315497"><ele>528.0</ele><time>2026-04-19T10:09:44Z</time></trkpt><trkpt lat="43.499413615510726" lon="12.301585752415313"><ele>528.0</ele><time>2026-04-19T10:09:45Z</time></trkpt><trkpt lat="43.499345429461265" lon="12.301252275620046"><ele>531.0</ele><time>2026-04-19T10:09:46Z</time></trkpt><trkpt lat="43.49927582041827" lon="12.300899809467069"><ele>534.0</ele><time>2026-04-19T10:09:47Z</time></trkpt><trkpt lat="43.49917383230317" lon="12.300565105081082"><ele>538.0</ele><time>2026-04-19T10:09:48Z</time></trkpt><trkpt lat="43.49907570218129" lon="12.300254071899378"><ele>542.0</ele><time>2026-04-19T10:09:49Z</time></trkpt><trkpt lat="43.49904212971927" lon="12.299977257980691"><ele>544.3333333333333</ele><time>2026-04-19T10:09:50Z</time></trkpt><trkpt lat="43.498992934958" lon="12.29970945675156"><ele>546.6666666666666</ele><time>2026-04-19T10:09:51Z</time></trkpt><trkpt lat="43.4988778616088" lon="12.299448736837675"><ele>549.0</ele><time>2026-04-19T10:09:52Z</time></trkpt><trkpt lat="43.498700080861965" lon="12.299240177100184"><ele>541.0</ele><time>2026-04-19T10:09:53Z</time></trkpt><trkpt lat="43.49853911122966" lon="12.299007760691202"><ele>533.0</ele><time>2026-04-19T10:09:54Z</time></trkpt><trkpt lat="43.49841391396703" lon="12.298707069986555"><ele>533.0</ele><time>2026-04-19T10:09:55Z</time></trkpt><trkpt lat="43.49832097736097" lon="12.298446632244103"><ele>533.0</ele><time>2026-04-19T10:09:56Z</time></trkpt><trkpt lat="43.498213092911726" lon="12.29823264069434"><ele>533.0</ele><time>2026-04-19T10:09:57Z</time></trkpt><trkpt lat="43.498151239901425" lon="12.298102815614833"><ele>532.5</ele><time>2026-04-19T10:09:58Z</time></trkpt><trkpt lat="43.49813621578509" lon="12.297984872849236"><ele>532.0</ele><time>2026-04-19T10:09:59Z</time></trkpt><trkpt lat="43.498218369687265" lon="12.297851400800834"><ele>531.5</ele><time>2026-04-19T10:10:00Z</time></trkpt><trkpt lat="43.49835731780627" lon="12.297771858392357"><ele>531.0</ele><time>2026-04-19T10:10:01Z</time></trkpt><trkpt lat="43.49850512884854" lon="12.29765964782041"><ele>531.0</ele><time>2026-04-19T10:10:02Z</time></trkpt><trkpt lat="43.49861764842091" lon="12.297556526264936"><ele>531.0</ele><time>2026-04-19T10:10:03Z</time></trkpt><trkpt lat="43.49864118665755" lon="12.297356091641687"><ele>531.0</ele><time>2026-04-19T10:10:04Z</time></trkpt><trkpt lat="43.49859089964727" lon="12.297129949639446"><ele>534.3333333333334</ele><time>2026-04-19T10:10:05Z</time></trkpt><trkpt lat="43.49846502903234" lon="12.296925532541438"><ele>537.6666666666667</ele><time>2026-04-19T10:10:06Z</time></trkpt><trkpt lat="43.49828416023795" lon="12.296781281374166"><ele>541.0</ele><time>2026-04-19T10:10:07Z</time></trkpt><trkpt lat="43.49810673359049" lon="12.296731448987897"><ele>536.0</ele><time>2026-04-19T10:10:08Z</time></trkpt><trkpt lat="43.49789144741187" lon="12.296776097917881"><ele>531.0</ele><time>2026-04-19T10:10:09Z</time></trkpt><trkpt lat="43.49765487367537" lon="12.296739498135704"><ele>531.0</ele><time>2026-04-19T10:10:10Z</time></trkpt><trkpt lat="43.49737586298862" lon="12.296642589436377"><ele>531.0</ele><time>2026-04-19T10:10:11Z</time></trkpt><trkpt lat="43.49713757345785" lon="12.296526263889314"><ele>532.0</ele><time>2026-04-19T10:10:12Z</time></trkpt><trkpt lat="43.49693418690629" lon="12.296368374749022"><ele>533.0</ele><time>2026-04-19T10:10:13Z</time></trkpt><trkpt lat="43.49672046929557" lon="12.29619009374268"><ele>533.0</ele><time>2026-04-19T10:10:14Z</time></trkpt><trkpt lat="43.496487103390365" lon="12.295965768211618"><ele>533.0</ele><time>2026-04-19T10:10:15Z</time></trkpt><trkpt lat="43.49628338306167" lon="12.295773581951044"><ele>529.3333333333333</ele><time>2026-04-19T10:10:16Z</time></trkpt><trkpt lat="43.49610712488063" lon="12.29563425290719"><ele>525.6666666666666</ele><time>2026-04-19T10:10:17Z</time></trkpt><trkpt lat="43.49599240345918" lon="12.295504504838007"><ele>522.0</ele><time>2026-04-19T10:10:18Z</time></trkpt><trkpt lat="43.495924678713166" lon="12.29539007270695"><ele>522.0</ele><time>2026-04-19T10:10:19Z</time></trkpt><trkpt lat="43.49591639179448" lon="12.29525006619377"><ele>522.0</ele><time>2026-04-19T10:10:20Z</time></trkpt><trkpt lat="43.49593420908411" lon="12.295063844888016"><ele>522.0</ele><time>2026-04-19T10:10:21Z</time></trkpt><trkpt lat="43.496068279581685" lon="12.29488951406345"><ele>522.0</ele><time>2026-04-19T10:10:22Z</time></trkpt><trkpt lat="43.49621504274135" lon="12.29479751674539"><ele>525.0</ele><time>2026-04-19T10:10:23Z</time></trkpt><trkpt lat="43.496382564546295" lon="12.29470545166276"><ele>528.0</ele><time>2026-04-19T10:10:24Z</time></trkpt><trkpt lat="43.496497492473736" lon="12.294579877507461"><ele>531.0</ele><time>2026-04-19T10:10:25Z</time></trkpt><trkpt lat="43.49655124936013" lon="12.294328261828966"><ele>531.0</ele><time>2026-04-19T10:10:26Z</time></trkpt><trkpt lat="43.496539964062244" lon="12.294075409112923"><ele>531.0</ele><time>2026-04-19T10:10:27Z</time></trkpt><trkpt lat="43.49645576450735" lon="12.293843592802268"><ele>531.0</ele><time>2026-04-19T10:10:28Z</time></trkpt><trkpt lat="43.49632041119343" lon="12.293638040203069"><ele>526.3333333333334</ele><time>2026-04-19T10:10:29Z</time></trkpt><trkpt lat="43.49617207388504" lon="12.293443947124299"><ele>521.6666666666667</ele><time>2026-04-19T10:10:30Z</time></trkpt><trkpt lat="43.49603719305352" lon="12.293279861163349"><ele>517.0</ele><time>2026-04-19T10:10:31Z</time></trkpt><trkpt lat="43.49586625899864" lon="12.29314342061782"><ele>518.5</ele><time>2026-04-19T10:10:32Z</time></trkpt><trkpt lat="43.49565562029478" lon="12.293026468609014"><ele>520.0</ele><time>2026-04-19T10:10:33Z</time></trkpt><trkpt lat="43.49533086503338" lon="12.292862043348396"><ele>520.0</ele><time>2026-04-19T10:10:34Z</time></trkpt><trkpt lat="43.49503181402895" lon="12.292692719282929"><ele>520.0</ele><time>2026-04-19T10:10:35Z</time></trkpt><trkpt lat="43.49481699836872" lon="12.2925558541303"><ele>520.0</ele><time>2026-04-19T10:10:36Z</time></trkpt><trkpt lat="43.494614807320836" lon="12.29234965297414"><ele>520.0</ele><time>2026-04-19T10:10:37Z</time></trkpt><trkpt lat="43.494413330399894" lon="12.292126064396125"><ele>519.0</ele><time>2026-04-19T10:10:38Z</time></trkpt><trkpt lat="43.494232543290636" lon="12.291889524501364"><ele>518.0</ele><time>2026-04-19T10:10:39Z</time></trkpt><trkpt lat="43.49412923660192" lon="12.29167893253323"><ele>517.0</ele><time>2026-04-19T10:10:40Z</time></trkpt><trkpt lat="43.49406497148994" lon="12.291471557002343"><ele>519.0</ele><time>2026-04-19T10:10:41Z</time></trkpt><trkpt lat="43.49403099564003" lon="12.29119958410327"><ele>521.0</ele><time>2026-04-19T10:10:42Z</time></trkpt><trkpt lat="43.493982600910364" lon="12.290916330073584"><ele>523.0</ele><time>2026-04-19T10:10:43Z</time></trkpt><trkpt lat="43.49383879825512" lon="12.290702376453343"><ele>519.0</ele><time>2026-04-19T10:10:44Z</time></trkpt><trkpt lat="43.493645860158246" lon="12.290521241030447"><ele>515.0</ele><time>2026-04-19T10:10:45Z</time></trkpt><trkpt lat="43.49344691770379" lon="12.290342902127723"><ele>515.0</ele><time>2026-04-19T10:10:46Z</time></trkpt><trkpt lat="43.49329056096425" lon="12.290054878653672"><ele>515.0</ele><time>2026-04-19T10:10:47Z</time></trkpt><trkpt lat="43.493147697871954" lon="12.289719219980377"><ele>517.5</ele><time>2026-04-19T10:10:48Z</time></trkpt><trkpt lat="43.492958259177605" lon="12.289307886664897"><ele>520.0</ele><time>2026-04-19T10:10:49Z</time></trkpt><trkpt lat="43.492785773327064" lon="12.289010343232105"><ele>518.0</ele><time>2026-04-19T10:10:50Z</time></trkpt><trkpt lat="43.49263961497328" lon="12.288754268003547"><ele>516.0</ele><time>2026-04-19T10:10:51Z</time></trkpt><trkpt lat="43.492421330980015" lon="12.288517128555396"><ele>516.0</ele><time>2026-04-19T10:10:52Z</time></trkpt><trkpt lat="43.49215992778906" lon="12.288324494173555"><ele>516.0</ele><time>2026-04-19T10:10:53Z</time></trkpt><trkpt lat="43.491848243638444" lon="12.288082346677825"><ele>516.5</ele><time>2026-04-19T10:10:54Z</time></trkpt><trkpt lat="43.49156261611686" lon="12.287838071960357"><ele>517.0</ele><time>2026-04-19T10:10:54.999Z</time></trkpt><trkpt lat="43.491353904812506" lon="12.287695770161337"><ele>508.0</ele><time>2026-04-19T10:10:55.999Z</time></trkpt><trkpt lat="43.491137459479695" lon="12.287477286505291"><ele>499.0</ele><time>2026-04-19T10:10:56.999Z</time></trkpt><trkpt lat="43.49095461946602" lon="12.287302059346441"><ele>504.0</ele><time>2026-04-19T10:10:57.999Z</time></trkpt><trkpt lat="43.490762915343026" lon="12.287160053205282"><ele>509.0</ele><time>2026-04-19T10:10:58.999Z</time></trkpt><trkpt lat="43.490623697979366" lon="12.287034110527598"><ele>514.0</ele><time>2026-04-19T10:10:59.999Z</time></trkpt><trkpt lat="43.49048345832021" lon="12.28690744723935"><ele>508.33333333333337</ele><time>2026-04-19T10:11:00.999Z</time></trkpt><trkpt lat="43.49032211343122" lon="12.286803002390885"><ele>502.66666666666663</ele><time>2026-04-19T10:11:01.999Z</time></trkpt><trkpt lat="43.49020330118544" lon="12.286656937154245"><ele>497.0</ele><time>2026-04-19T10:11:02.999Z</time></trkpt><trkpt lat="43.490130861210616" lon="12.286459305377765"><ele>498.66666666666663</ele><time>2026-04-19T10:11:03.999Z</time></trkpt><trkpt lat="43.49008347915771" lon="12.286204208555564"><ele>500.33333333333337</ele><time>2026-04-19T10:11:04.999Z</time></trkpt><trkpt lat="43.49006213390512" lon="12.285920686570611"><ele>502.0</ele><time>2026-04-19T10:11:05.999Z</time></trkpt><trkpt lat="43.490085969608586" lon="12.285651390521872"><ele>503.6666666666667</ele><time>2026-04-19T10:11:06.999Z</time></trkpt><trkpt lat="43.49011516285125" lon="12.285431127794968"><ele>505.33333333333337</ele><time>2026-04-19T10:11:07.999Z</time></trkpt><trkpt lat="43.49007132318907" lon="12.28520899105987"><ele>507.0</ele><time>2026-04-19T10:11:08.999Z</time></trkpt><trkpt lat="43.48996498703232" lon="12.285019906379038"><ele>507.0</ele><time>2026-04-19T10:11:09.999Z</time></trkpt><trkpt lat="43.489774996208446" lon="12.284884072869707"><ele>507.0</ele><time>2026-04-19T10:11:10.999Z</time></trkpt><trkpt lat="43.48951763410591" lon="12.284752800646794"><ele>509.0</ele><time>2026-04-19T10:11:11.999Z</time></trkpt><trkpt lat="43.48931041818652" lon="12.284623681279564"><ele>511.0</ele><time>2026-04-19T10:11:12.999Z</time></trkpt><trkpt lat="43.48913208903051" lon="12.284474649722213"><ele>513.0</ele><time>2026-04-19T10:11:13.999Z</time></trkpt><trkpt lat="43.48897532944072" lon="12.284348971187606"><ele>513.0</ele><time>2026-04-19T10:11:14.999Z</time></trkpt><trkpt lat="43.48880767395124" lon="12.284307891352544"><ele>513.0</ele><time>2026-04-19T10:11:15.999Z</time></trkpt><trkpt lat="43.4885963564449" lon="12.284349950723062"><ele>513.0</ele><time>2026-04-19T10:11:16.999Z</time></trkpt><trkpt lat="43.488393839183736" lon="12.284390325080418"><ele>510.0</ele><time>2026-04-19T10:11:17.999Z</time></trkpt><trkpt lat="43.48819140817844" lon="12.284356021522985"><ele>507.0</ele><time>2026-04-19T10:11:18.999Z</time></trkpt><trkpt lat="43.48797714269269" lon="12.28426950143309"><ele>504.0</ele><time>2026-04-19T10:11:19.999Z</time></trkpt><trkpt lat="43.487768526231356" lon="12.284092605738165"><ele>504.0</ele><time>2026-04-19T10:11:20.999Z</time></trkpt><trkpt lat="43.487585648178744" lon="12.283855323293654"><ele>504.0</ele><time>2026-04-19T10:11:21.999Z</time></trkpt><trkpt lat="43.48739793419137" lon="12.283633992458668"><ele>504.0</ele><time>2026-04-19T10:11:22.999Z</time></trkpt><trkpt lat="43.487128396542836" lon="12.283496266318847"><ele>504.0</ele><time>2026-04-19T10:11:23.999Z</time></trkpt><trkpt lat="43.486782261603075" lon="12.28328796765313"><ele>499.0</ele><time>2026-04-19T10:11:24.999Z</time></trkpt><trkpt lat="43.48645287107944" lon="12.283036086947654"><ele>494.0</ele><time>2026-04-19T10:11:25.999Z</time></trkpt><trkpt lat="43.48617157788485" lon="12.28284401688869"><ele>494.0</ele><time>2026-04-19T10:11:26.999Z</time></trkpt><trkpt lat="43.485906830484936" lon="12.282674281378615"><ele>494.0</ele><time>2026-04-19T10:11:28Z</time></trkpt><trkpt lat="43.485675778816116" lon="12.282515581607637"><ele>494.0</ele><time>2026-04-19T10:11:29Z</time></trkpt><trkpt lat="43.48549678318028" lon="12.282399214869471"><ele>494.0</ele><time>2026-04-19T10:11:30Z</time></trkpt><trkpt lat="43.485307322917464" lon="12.282259501017606"><ele>494.0</ele><time>2026-04-19T10:11:31Z</time></trkpt><trkpt lat="43.485167823200044" lon="12.282162836548345"><ele>493.4</ele><time>2026-04-19T10:11:32Z</time></trkpt><trkpt lat="43.48505768950621" lon="12.28207194825529"><ele>492.79999999999995</ele><time>2026-04-19T10:11:33Z</time></trkpt><trkpt lat="43.48497300877041" lon="12.282004708589449"><ele>492.20000000000005</ele><time>2026-04-19T10:11:34Z</time></trkpt><trkpt lat="43.48487442890881" lon="12.2819130122186"><ele>491.6</ele><time>2026-04-19T10:11:35Z</time></trkpt><trkpt lat="43.48481150634014" lon="12.2818082640428"><ele>491.0</ele><time>2026-04-19T10:11:36Z</time></trkpt><trkpt lat="43.484803890663905" lon="12.281647876222658"><ele>489.3333333333333</ele><time>2026-04-19T10:11:37Z</time></trkpt><trkpt lat="43.48487466184084" lon="12.281426403125623"><ele>487.66666666666663</ele><time>2026-04-19T10:11:38Z</time></trkpt><trkpt lat="43.48499011188496" lon="12.281253459717867"><ele>486.0</ele><time>2026-04-19T10:11:39Z</time></trkpt><trkpt lat="43.48503417838679" lon="12.281029693051122"><ele>486.0</ele><time>2026-04-19T10:11:40Z</time></trkpt><trkpt lat="43.48500470413381" lon="12.280767813891604"><ele>486.0</ele><time>2026-04-19T10:11:41Z</time></trkpt><trkpt lat="43.48490204216082" lon="12.280472436705349"><ele>486.0</ele><time>2026-04-19T10:11:42Z</time></trkpt><trkpt lat="43.484748808446675" lon="12.280195067856205"><ele>484.5</ele><time>2026-04-19T10:11:43Z</time></trkpt><trkpt lat="43.48461661710191" lon="12.279912220151937"><ele>483.0</ele><time>2026-04-19T10:11:44Z</time></trkpt><trkpt lat="43.48449103771173" lon="12.279596343084474"><ele>480.33333333333337</ele><time>2026-04-19T10:11:45Z</time></trkpt><trkpt lat="43.48437468004123" lon="12.279334920668147"><ele>477.6666666666667</ele><time>2026-04-19T10:11:46Z</time></trkpt><trkpt lat="43.48429103543872" lon="12.27915577341243"><ele>475.0</ele><time>2026-04-19T10:11:47Z</time></trkpt><trkpt lat="43.48417432819456" lon="12.278952982835499"><ele>473.0</ele><time>2026-04-19T10:11:48Z</time></trkpt><trkpt lat="43.48399075517811" lon="12.278795250289093"><ele>471.0</ele><time>2026-04-19T10:11:49Z</time></trkpt><trkpt lat="43.48375672786589" lon="12.27862090740766"><ele>471.0</ele><time>2026-04-19T10:11:50Z</time></trkpt><trkpt lat="43.483437109429644" lon="12.278351044542527"><ele>471.0</ele><time>2026-04-19T10:11:51Z</time></trkpt><trkpt lat="43.48323942126345" lon="12.278131769429674"><ele>470.5</ele><time>2026-04-19T10:11:52Z</time></trkpt><trkpt lat="43.483038425184176" lon="12.277933775508368"><ele>470.0</ele><time>2026-04-19T10:11:53Z</time></trkpt><trkpt lat="43.48286315950282" lon="12.277776509762507"><ele>471.3333333333333</ele><time>2026-04-19T10:11:54Z</time></trkpt><trkpt lat="43.48271935182689" lon="12.277664586843333"><ele>472.66666666666663</ele><time>2026-04-19T10:11:55Z</time></trkpt><trkpt lat="43.48251962775025" lon="12.27762951237933"><ele>474.0</ele><time>2026-04-19T10:11:56Z</time></trkpt><trkpt lat="43.48231412292671" lon="12.277646822542147"><ele>474.0</ele><time>2026-04-19T10:11:57Z</time></trkpt><trkpt lat="43.48211314386977" lon="12.277565223436174"><ele>474.0</ele><time>2026-04-19T10:11:58Z</time></trkpt><trkpt lat="43.481983031612984" lon="12.277325422581045"><ele>474.0</ele><time>2026-04-19T10:11:59Z</time></trkpt><trkpt lat="43.48188204587669" lon="12.27712850650198"><ele>470.5</ele><time>2026-04-19T10:12:00Z</time></trkpt><trkpt lat="43.4818220120812" lon="12.277000947818351"><ele>467.0</ele><time>2026-04-19T10:12:01Z</time></trkpt><trkpt lat="43.481853706078915" lon="12.276809439494954"><ele>463.5</ele><time>2026-04-19T10:12:02Z</time></trkpt><trkpt lat="43.481881742616366" lon="12.276654458440433"><ele>460.0</ele><time>2026-04-19T10:12:03Z</time></trkpt><trkpt lat="43.48205623853422" lon="12.276496068553055"><ele>458.0</ele><time>2026-04-19T10:12:04Z</time></trkpt><trkpt lat="43.482231823761055" lon="12.276394255738726"><ele>456.0</ele><time>2026-04-19T10:12:05Z</time></trkpt><trkpt lat="43.482449990426986" lon="12.276482523214773"><ele>454.0</ele><time>2026-04-19T10:12:06Z</time></trkpt><trkpt lat="43.48275855983037" lon="12.276514184344645"><ele>457.33333333333337</ele><time>2026-04-19T10:12:07Z</time></trkpt><trkpt lat="43.48296630576293" lon="12.276522628874684"><ele>460.66666666666663</ele><time>2026-04-19T10:12:08Z</time></trkpt><trkpt lat="43.48312287437215" lon="12.276429401158591"><ele>464.0</ele><time>2026-04-19T10:12:09Z</time></trkpt><trkpt lat="43.483217047400586" lon="12.276252568600098"><ele>465.0</ele><time>2026-04-19T10:12:10Z</time></trkpt><trkpt lat="43.483263947250755" lon="12.275991972884498"><ele>466.0</ele><time>2026-04-19T10:12:11Z</time></trkpt><trkpt lat="43.483209179230855" lon="12.275760151894781"><ele>467.0</ele><time>2026-04-19T10:12:12Z</time></trkpt><trkpt lat="43.483064097990514" lon="12.275540196172567"><ele>464.5</ele><time>2026-04-19T10:12:13Z</time></trkpt><trkpt lat="43.48290450714729" lon="12.275346398200373"><ele>462.0</ele><time>2026-04-19T10:12:14Z</time></trkpt><trkpt lat="43.48271334253739" lon="12.275055341877124"><ele>465.0</ele><time>2026-04-19T10:12:15Z</time></trkpt><trkpt lat="43.482532862170196" lon="12.274737575952157"><ele>468.0</ele><time>2026-04-19T10:12:16Z</time></trkpt><trkpt lat="43.48237564857133" lon="12.27461861218288"><ele>468.0</ele><time>2026-04-19T10:12:17Z</time></trkpt><trkpt lat="43.48213612134313" lon="12.274550214514479"><ele>468.0</ele><time>2026-04-19T10:12:18Z</time></trkpt><trkpt lat="43.48186867799433" lon="12.274537347567579"><ele>465.0</ele><time>2026-04-19T10:12:19Z</time></trkpt><trkpt lat="43.48154294854904" lon="12.274415061294736"><ele>462.0</ele><time>2026-04-19T10:12:20Z</time></trkpt><trkpt lat="43.48126841804387" lon="12.274284171536529"><ele>460.5</ele><time>2026-04-19T10:12:21Z</time></trkpt><trkpt lat="43.48101871089502" lon="12.274296812227808"><ele>459.0</ele><time>2026-04-19T10:12:22Z</time></trkpt><trkpt lat="43.48077441076997" lon="12.274343066832175"><ele>459.0</ele><time>2026-04-19T10:12:23Z</time></trkpt><trkpt lat="43.48055438784101" lon="12.274345256403532"><ele>459.0</ele><time>2026-04-19T10:12:24Z</time></trkpt><trkpt lat="43.48036097671931" lon="12.274270847487022"><ele>459.0</ele><time>2026-04-19T10:12:25Z</time></trkpt><trkpt lat="43.480126299871834" lon="12.27412486531281"><ele>459.0</ele><time>2026-04-19T10:12:26Z</time></trkpt><trkpt lat="43.47989486756712" lon="12.273886678775929"><ele>459.0</ele><time>2026-04-19T10:12:27Z</time></trkpt><trkpt lat="43.47968774186539" lon="12.273762536626224"><ele>459.0</ele><time>2026-04-19T10:12:28Z</time></trkpt><trkpt lat="43.47960687115674" lon="12.273651027320728"><ele>459.0</ele><time>2026-04-19T10:12:29Z</time></trkpt><trkpt lat="43.47954978874295" lon="12.273519300397863"><ele>459.0</ele><time>2026-04-19T10:12:30Z</time></trkpt><trkpt lat="43.479546001411315" lon="12.273380220004677"><ele>459.0</ele><time>2026-04-19T10:12:31Z</time></trkpt><trkpt lat="43.47957850010159" lon="12.273258924035215"><ele>459.0</ele><time>2026-04-19T10:12:32Z</time></trkpt><trkpt lat="43.47964276971624" lon="12.27312373160274"><ele>459.0</ele><time>2026-04-19T10:12:33Z</time></trkpt><trkpt lat="43.47973824736367" lon="12.273035401717298"><ele>459.0</ele><time>2026-04-19T10:12:34Z</time></trkpt><trkpt lat="43.479883630341035" lon="12.272982968166469"><ele>459.0</ele><time>2026-04-19T10:12:35Z</time></trkpt><trkpt lat="43.48002262119738" lon="12.27300422802358"><ele>459.0</ele><time>2026-04-19T10:12:36Z</time></trkpt><trkpt lat="43.48024852634866" lon="12.27314729137537"><ele>458.5</ele><time>2026-04-19T10:12:37Z</time></trkpt><trkpt lat="43.48048395079341" lon="12.273300724148148"><ele>458.0</ele><time>2026-04-19T10:12:38Z</time></trkpt><trkpt lat="43.480714160219435" lon="12.273346166516744"><ele>458.0</ele><time>2026-04-19T10:12:39Z</time></trkpt><trkpt lat="43.48090705151297" lon="12.273243322286511"><ele>458.0</ele><time>2026-04-19T10:12:40Z</time></trkpt><trkpt lat="43.48100767787232" lon="12.27309787616501"><ele>458.0</ele><time>2026-04-19T10:12:41Z</time></trkpt><trkpt lat="43.48106489029877" lon="12.272923170106697"><ele>455.0</ele><time>2026-04-19T10:12:42Z</time></trkpt><trkpt lat="43.481046251945244" lon="12.272662319793271"><ele>452.0</ele><time>2026-04-19T10:12:43Z</time></trkpt><trkpt lat="43.48100709034795" lon="12.272443215101871"><ele>449.0</ele><time>2026-04-19T10:12:44Z</time></trkpt><trkpt lat="43.48093083301469" lon="12.272153461451587"><ele>448.0</ele><time>2026-04-19T10:12:45Z</time></trkpt><trkpt lat="43.48083899201927" lon="12.271841781621468"><ele>447.0</ele><time>2026-04-19T10:12:46Z</time></trkpt><trkpt lat="43.480726798523115" lon="12.271512070608349"><ele>450.0</ele><time>2026-04-19T10:12:47Z</time></trkpt><trkpt lat="43.48062943591041" lon="12.271208247635926"><ele>453.0</ele><time>2026-04-19T10:12:48Z</time></trkpt><trkpt lat="43.480507816230094" lon="12.270921691888807"><ele>446.0</ele><time>2026-04-19T10:12:49Z</time></trkpt><trkpt lat="43.480360280132665" lon="12.270626224266808"><ele>439.0</ele><time>2026-04-19T10:12:50Z</time></trkpt><trkpt lat="43.48018904866909" lon="12.270347642684348"><ele>439.0</ele><time>2026-04-19T10:12:51Z</time></trkpt><trkpt lat="43.47992924318935" lon="12.270073217791476"><ele>439.0</ele><time>2026-04-19T10:12:52Z</time></trkpt><trkpt lat="43.47963675790997" lon="12.269781568811375"><ele>434.0</ele><time>2026-04-19T10:12:53Z</time></trkpt><trkpt lat="43.47937122879246" lon="12.269466104181417"><ele>429.0</ele><time>2026-04-19T10:12:54Z</time></trkpt><trkpt lat="43.479106748992464" lon="12.26918589057389"><ele>429.5</ele><time>2026-04-19T10:12:55Z</time></trkpt><trkpt lat="43.47882074125559" lon="12.268930742800213"><ele>430.0</ele><time>2026-04-19T10:12:56Z</time></trkpt><trkpt lat="43.47858513973597" lon="12.268740785491383"><ele>428.0</ele><time>2026-04-19T10:12:57Z</time></trkpt><trkpt lat="43.47837110427444" lon="12.268490968574344"><ele>426.0</ele><time>2026-04-19T10:12:58Z</time></trkpt><trkpt lat="43.47816587396385" lon="12.268208616792336"><ele>428.0</ele><time>2026-04-19T10:12:59Z</time></trkpt><trkpt lat="43.47794501387107" lon="12.26791241053449"><ele>430.0</ele><time>2026-04-19T10:13:00Z</time></trkpt><trkpt lat="43.477756714205945" lon="12.267626471534014"><ele>428.0</ele><time>2026-04-19T10:13:01Z</time></trkpt><trkpt lat="43.47759798792669" lon="12.267430169393963"><ele>426.0</ele><time>2026-04-19T10:13:01.999Z</time></trkpt><trkpt lat="43.47743094250552" lon="12.267200286755584"><ele>424.0</ele><time>2026-04-19T10:13:02.999Z</time></trkpt><trkpt lat="43.47731795842955" lon="12.267009056772824"><ele>424.0</ele><time>2026-04-19T10:13:03.999Z</time></trkpt><trkpt lat="43.477215489946595" lon="12.266825038260743"><ele>424.0</ele><time>2026-04-19T10:13:04.999Z</time></trkpt><trkpt lat="43.477156196555995" lon="12.26659049039525"><ele>424.0</ele><time>2026-04-19T10:13:05.999Z</time></trkpt><trkpt lat="43.47709388373747" lon="12.266369259386813"><ele>415.6666666666667</ele><time>2026-04-19T10:13:06.999Z</time></trkpt><trkpt lat="43.47703995173517" lon="12.266109493221068"><ele>407.33333333333337</ele><time>2026-04-19T10:13:07.999Z</time></trkpt><trkpt lat="43.47700565080455" lon="12.265868688431144"><ele>399.0</ele><time>2026-04-19T10:13:08.999Z</time></trkpt><trkpt lat="43.47698169361051" lon="12.26564512041955"><ele>399.5</ele><time>2026-04-19T10:13:09.999Z</time></trkpt><trkpt lat="43.476958588256046" lon="12.265436996219046"><ele>400.0</ele><time>2026-04-19T10:13:10.999Z</time></trkpt><trkpt lat="43.47693565286652" lon="12.265243051657974"><ele>400.5</ele><time>2026-04-19T10:13:11.999Z</time></trkpt><trkpt lat="43.47694948919237" lon="12.265049237374976"><ele>401.0</ele><time>2026-04-19T10:13:12.999Z</time></trkpt><trkpt lat="43.477021615745954" lon="12.264896569958413"><ele>403.5</ele><time>2026-04-19T10:13:13.999Z</time></trkpt><trkpt lat="43.47710822713561" lon="12.264789865659854"><ele>406.0</ele><time>2026-04-19T10:13:14.999Z</time></trkpt><trkpt lat="43.47720894286728" lon="12.264746596694765"><ele>408.5</ele><time>2026-04-19T10:13:15.999Z</time></trkpt><trkpt lat="43.47733177956549" lon="12.264766223828826"><ele>411.0</ele><time>2026-04-19T10:13:16.999Z</time></trkpt><trkpt lat="43.47748756142737" lon="12.26478955970004"><ele>411.0</ele><time>2026-04-19T10:13:17.999Z</time></trkpt><trkpt lat="43.47766411584469" lon="12.264829782617644"><ele>411.0</ele><time>2026-04-19T10:13:18.999Z</time></trkpt><trkpt lat="43.477868452153615" lon="12.264888591988978"><ele>411.0</ele><time>2026-04-19T10:13:19.999Z</time></trkpt><trkpt lat="43.47806731704499" lon="12.264959630136778"><ele>409.66666666666663</ele><time>2026-04-19T10:13:20.999Z</time></trkpt><trkpt lat="43.47827578967461" lon="12.265018436605455"><ele>408.3333333333333</ele><time>2026-04-19T10:13:21.999Z</time></trkpt><trkpt lat="43.47843657229703" lon="12.265084507283897"><ele>407.0</ele><time>2026-04-19T10:13:22.999Z</time></trkpt><trkpt lat="43.47852677555472" lon="12.265138837639569"><ele>407.0</ele><time>2026-04-19T10:13:23.999Z</time></trkpt><trkpt lat="43.47867168404437" lon="12.26519805453371"><ele>407.0</ele><time>2026-04-19T10:13:24.999Z</time></trkpt><trkpt lat="43.47878302963069" lon="12.265239962999699"><ele>407.0</ele><time>2026-04-19T10:13:25.999Z</time></trkpt><trkpt lat="43.47889006180385" lon="12.2652646149994"><ele>407.0</ele><time>2026-04-19T10:13:26.999Z</time></trkpt><trkpt lat="43.478955135631246" lon="12.265272010856235"><ele>407.0</ele><time>2026-04-19T10:13:27.999Z</time></trkpt><trkpt lat="43.47902309877279" lon="12.265195809899964"><ele>403.25</ele><time>2026-04-19T10:13:28.999Z</time></trkpt><trkpt lat="43.47905582291004" lon="12.26504955335773"><ele>399.5</ele><time>2026-04-19T10:13:29.999Z</time></trkpt><trkpt lat="43.479035598097866" lon="12.264877584130954"><ele>395.75</ele><time>2026-04-19T10:13:30.999Z</time></trkpt><trkpt lat="43.47894094860865" lon="12.26475079892362"><ele>392.0</ele><time>2026-04-19T10:13:31.999Z</time></trkpt><trkpt lat="43.47880930994342" lon="12.26468447695043"><ele>391.0</ele><time>2026-04-19T10:13:32.999Z</time></trkpt><trkpt lat="43.478668447635975" lon="12.264615049564993"><ele>390.0</ele><time>2026-04-19T10:13:34Z</time></trkpt><trkpt lat="43.478512360283574" lon="12.264527871273746"><ele>389.0</ele><time>2026-04-19T10:13:35Z</time></trkpt><trkpt lat="43.47836456199603" lon="12.264436498941073"><ele>389.0</ele><time>2026-04-19T10:13:36Z</time></trkpt><trkpt lat="43.47821065182195" lon="12.26435800526082"><ele>389.0</ele><time>2026-04-19T10:13:37Z</time></trkpt><trkpt lat="43.4780353190211" lon="12.264305848423065"><ele>389.0</ele><time>2026-04-19T10:13:38Z</time></trkpt><trkpt lat="43.47783195137323" lon="12.264266138102037"><ele>390.0</ele><time>2026-04-19T10:13:39Z</time></trkpt><trkpt lat="43.477610252965576" lon="12.264219771422374"><ele>391.0</ele><time>2026-04-19T10:13:40Z</time></trkpt><trkpt lat="43.477363047386774" lon="12.26416090012446"><ele>390.0</ele><time>2026-04-19T10:13:41Z</time></trkpt><trkpt lat="43.47710000223121" lon="12.264089560540011"><ele>389.0</ele><time>2026-04-19T10:13:42Z</time></trkpt><trkpt lat="43.476842801596995" lon="12.264035628554582"><ele>389.0</ele><time>2026-04-19T10:13:43Z</time></trkpt><trkpt lat="43.47660289172221" lon="12.264030673982177"><ele>389.0</ele><time>2026-04-19T10:13:44Z</time></trkpt><trkpt lat="43.47638736023215" lon="12.264066365391338"><ele>383.3333333333333</ele><time>2026-04-19T10:13:45Z</time></trkpt><trkpt lat="43.476206500163016" lon="12.264115996593016"><ele>377.66666666666663</ele><time>2026-04-19T10:13:46Z</time></trkpt><trkpt lat="43.476052007592685" lon="12.264205838576338"><ele>372.0</ele><time>2026-04-19T10:13:47Z</time></trkpt><trkpt lat="43.475944460881166" lon="12.264373492695325"><ele>372.0</ele><time>2026-04-19T10:13:48Z</time></trkpt><trkpt lat="43.47589625006677" lon="12.264640252052892"><ele>372.0</ele><time>2026-04-19T10:13:49Z</time></trkpt><trkpt lat="43.47591618280075" lon="12.264929259416464"><ele>372.0</ele><time>2026-04-19T10:13:50Z</time></trkpt><trkpt lat="43.47600345892231" lon="12.265233786490057"><ele>372.0</ele><time>2026-04-19T10:13:51Z</time></trkpt><trkpt lat="43.47605948718233" lon="12.265549187182087"><ele>372.0</ele><time>2026-04-19T10:13:52Z</time></trkpt><trkpt lat="43.4760804084366" lon="12.265846521098007"><ele>372.0</ele><time>2026-04-19T10:13:53Z</time></trkpt><trkpt lat="43.47607238062811" lon="12.266106293586478"><ele>372.0</ele><time>2026-04-19T10:13:54Z</time></trkpt><trkpt lat="43.47602727697688" lon="12.266402037270455"><ele>372.0</ele><time>2026-04-19T10:13:55Z</time></trkpt><trkpt lat="43.4759454057071" lon="12.266707319640272"><ele>375.0</ele><time>2026-04-19T10:13:56Z</time></trkpt><trkpt lat="43.47584426207838" lon="12.26702381480408"><ele>378.0</ele><time>2026-04-19T10:13:57Z</time></trkpt><trkpt lat="43.4757356660041" lon="12.267326339921128"><ele>380.33333333333337</ele><time>2026-04-19T10:13:58Z</time></trkpt><trkpt lat="43.475631483613576" lon="12.267570096574309"><ele>382.6666666666667</ele><time>2026-04-19T10:13:59Z</time></trkpt><trkpt lat="43.47557080281025" lon="12.267761052821216"><ele>385.0</ele><time>2026-04-19T10:14:00Z</time></trkpt><trkpt lat="43.47552580026901" lon="12.267999264167415"><ele>384.0</ele><time>2026-04-19T10:14:01Z</time></trkpt><trkpt lat="43.475548781366435" lon="12.268254053920643"><ele>383.0</ele><time>2026-04-19T10:14:02Z</time></trkpt><trkpt lat="43.47564129892426" lon="12.26854553996221"><ele>382.0</ele><time>2026-04-19T10:14:03Z</time></trkpt><trkpt lat="43.475742847920245" lon="12.268794451629683"><ele>379.3333333333333</ele><time>2026-04-19T10:14:04Z</time></trkpt><trkpt lat="43.47586955551895" lon="12.268981404034163"><ele>376.6666666666667</ele><time>2026-04-19T10:14:05Z</time></trkpt><trkpt lat="43.47604817092349" lon="12.269112214586242"><ele>374.0</ele><time>2026-04-19T10:14:06Z</time></trkpt><trkpt lat="43.47626305828495" lon="12.269154612989851"><ele>375.33333333333337</ele><time>2026-04-19T10:14:07Z</time></trkpt><trkpt lat="43.4765003273114" lon="12.26911779848599"><ele>376.6666666666667</ele><time>2026-04-19T10:14:08Z</time></trkpt><trkpt lat="43.47667286126045" lon="12.269197715920782"><ele>378.0</ele><time>2026-04-19T10:14:09Z</time></trkpt><trkpt lat="43.47673577983938" lon="12.269404747959916"><ele>378.0</ele><time>2026-04-19T10:14:11Z</time></trkpt><trkpt lat="43.47667680565378" lon="12.269523831743575"><ele>378.0</ele><time>2026-04-19T10:14:12Z</time></trkpt><trkpt lat="43.476597882133916" lon="12.269596389941626"><ele>378.0</ele><time>2026-04-19T10:14:13Z</time></trkpt><trkpt lat="43.47646873425039" lon="12.269566900493594"><ele>378.0</ele><time>2026-04-19T10:14:14Z</time></trkpt><trkpt lat="43.47624127928176" lon="12.26951583269478"><ele>376.6666666666667</ele><time>2026-04-19T10:14:15Z</time></trkpt><trkpt lat="43.476010312002416" lon="12.269462643380512"><ele>375.33333333333337</ele><time>2026-04-19T10:14:16Z</time></trkpt><trkpt lat="43.47584099461084" lon="12.269398848879174"><ele>374.0</ele><time>2026-04-19T10:14:17Z</time></trkpt><trkpt lat="43.47571331781338" lon="12.269295633188356"><ele>374.0</ele><time>2026-04-19T10:14:18Z</time></trkpt><trkpt lat="43.47557014651466" lon="12.26907986766877"><ele>374.0</ele><time>2026-04-19T10:14:19Z</time></trkpt><trkpt lat="43.47540684787618" lon="12.268744113259373"><ele>365.5</ele><time>2026-04-19T10:14:20Z</time></trkpt><trkpt lat="43.47525936296282" lon="12.268371229136891"><ele>357.0</ele><time>2026-04-19T10:14:21Z</time></trkpt><trkpt lat="43.475156247080626" lon="12.268055852989685"><ele>356.6666666666667</ele><time>2026-04-19T10:14:22Z</time></trkpt><trkpt lat="43.475063710951936" lon="12.26775247233527"><ele>356.33333333333337</ele><time>2026-04-19T10:14:23Z</time></trkpt><trkpt lat="43.47503732217381" lon="12.267511168345095"><ele>356.0</ele><time>2026-04-19T10:14:24Z</time></trkpt><trkpt lat="43.47504607871961" lon="12.26723154422377"><ele>356.0</ele><time>2026-04-19T10:14:25Z</time></trkpt><trkpt lat="43.47508245104102" lon="12.266919473204547"><ele>356.0</ele><time>2026-04-19T10:14:26Z</time></trkpt><trkpt lat="43.47511689249985" lon="12.266630989934539"><ele>356.0</ele><time>2026-04-19T10:14:27Z</time></trkpt><trkpt lat="43.47510371396756" lon="12.266341676272205"><ele>355.6666666666667</ele><time>2026-04-19T10:14:28Z</time></trkpt><trkpt lat="43.47505372587341" lon="12.266049578692089"><ele>355.3333333333333</ele><time>2026-04-19T10:14:29Z</time></trkpt><trkpt lat="43.47495083111559" lon="12.265790125193883"><ele>355.0</ele><time>2026-04-19T10:14:30Z</time></trkpt><trkpt lat="43.47482158541598" lon="12.265549416432577"><ele>355.0</ele><time>2026-04-19T10:14:31Z</time></trkpt><trkpt lat="43.47468196553749" lon="12.265283405901753"><ele>355.0</ele><time>2026-04-19T10:14:32Z</time></trkpt><trkpt lat="43.47462084636399" lon="12.264965147073635"><ele>349.3333333333333</ele><time>2026-04-19T10:14:33Z</time></trkpt><trkpt lat="43.47458564647063" lon="12.26468094848215"><ele>343.6666666666667</ele><time>2026-04-19T10:14:34Z</time></trkpt><trkpt lat="43.4745576357698" lon="12.264388408503711"><ele>338.0</ele><time>2026-04-19T10:14:35Z</time></trkpt><trkpt lat="43.474593840078676" lon="12.264083696762379"><ele>340.33333333333337</ele><time>2026-04-19T10:14:36Z</time></trkpt><trkpt lat="43.474670242709834" lon="12.263802105661894"><ele>342.6666666666667</ele><time>2026-04-19T10:14:37Z</time></trkpt><trkpt lat="43.47474436846221" lon="12.263575532028954"><ele>345.0</ele><time>2026-04-19T10:14:38Z</time></trkpt><trkpt lat="43.47483278238312" lon="12.263383100754535"><ele>345.0</ele><time>2026-04-19T10:14:39Z</time></trkpt><trkpt lat="43.4748620696565" lon="12.263194962393523"><ele>345.0</ele><time>2026-04-19T10:14:40Z</time></trkpt><trkpt lat="43.4748091970037" lon="12.262980651117182"><ele>345.0</ele><time>2026-04-19T10:14:41Z</time></trkpt><trkpt lat="43.47467857114165" lon="12.262804790981683"><ele>341.0</ele><time>2026-04-19T10:14:42Z</time></trkpt><trkpt lat="43.4745323450274" lon="12.262649591058983"><ele>337.0</ele><time>2026-04-19T10:14:43Z</time></trkpt><trkpt lat="43.47437109820944" lon="12.26243654564546"><ele>333.0</ele><time>2026-04-19T10:14:44Z</time></trkpt><trkpt lat="43.47421040132448" lon="12.262219327035272"><ele>330.3333333333333</ele><time>2026-04-19T10:14:45Z</time></trkpt><trkpt lat="43.4740670320489" lon="12.262034525621978"><ele>327.66666666666663</ele><time>2026-04-19T10:14:46Z</time></trkpt><trkpt lat="43.47394093703352" lon="12.261867749539624"><ele>325.0</ele><time>2026-04-19T10:14:47Z</time></trkpt><trkpt lat="43.47383469722219" lon="12.261720502778424"><ele>324.5</ele><time>2026-04-19T10:14:48Z</time></trkpt><trkpt lat="43.473738730059985" lon="12.261568498923372"><ele>324.0</ele><time>2026-04-19T10:14:49Z</time></trkpt><trkpt lat="43.473639955988254" lon="12.261446128050103"><ele>323.5</ele><time>2026-04-19T10:14:50Z</time></trkpt><trkpt lat="43.47351698225308" lon="12.261285935697485"><ele>323.0</ele><time>2026-04-19T10:14:51Z</time></trkpt><trkpt lat="43.47339780903015" lon="12.261110885824765"><ele>323.0</ele><time>2026-04-19T10:14:52Z</time></trkpt><trkpt lat="43.47327813012155" lon="12.260930558793746"><ele>323.0</ele><time>2026-04-19T10:14:53Z</time></trkpt><trkpt lat="43.47314946852575" lon="12.260753888824423"><ele>323.0</ele><time>2026-04-19T10:14:54Z</time></trkpt><trkpt lat="43.4730113019897" lon="12.260579707001334"><ele>322.0</ele><time>2026-04-19T10:14:55Z</time></trkpt><trkpt lat="43.47289068892649" lon="12.260417317273967"><ele>321.0</ele><time>2026-04-19T10:14:56Z</time></trkpt><trkpt lat="43.47278438451633" lon="12.26027296186803"><ele>320.0</ele><time>2026-04-19T10:14:57Z</time></trkpt><trkpt lat="43.47267962243057" lon="12.26013666102841"><ele>320.0</ele><time>2026-04-19T10:14:58Z</time></trkpt><trkpt lat="43.47258637482411" lon="12.260005718801263"><ele>320.0</ele><time>2026-04-19T10:14:59Z</time></trkpt><trkpt lat="43.47249094572304" lon="12.259884428007632"><ele>320.0</ele><time>2026-04-19T10:15:00Z</time></trkpt><trkpt lat="43.472393402628455" lon="12.25970675890563"><ele>320.0</ele><time>2026-04-19T10:15:01Z</time></trkpt><trkpt lat="43.47229392509548" lon="12.259569607805854"><ele>320.25</ele><time>2026-04-19T10:15:02Z</time></trkpt><trkpt lat="43.47219036306839" lon="12.259427591663739"><ele>320.5</ele><time>2026-04-19T10:15:03Z</time></trkpt><trkpt lat="43.47208910716596" lon="12.259279024171546"><ele>320.75</ele><time>2026-04-19T10:15:04Z</time></trkpt><trkpt lat="43.47199643044898" lon="12.259124924113053"><ele>321.0</ele><time>2026-04-19T10:15:05Z</time></trkpt><trkpt lat="43.471909389221324" lon="12.258950499483543"><ele>318.75</ele><time>2026-04-19T10:15:06Z</time></trkpt><trkpt lat="43.471837234302896" lon="12.258767856533478"><ele>316.5</ele><time>2026-04-19T10:15:07Z</time></trkpt><trkpt lat="43.471768319046944" lon="12.25859645160907"><ele>314.25</ele><time>2026-04-19T10:15:08Z</time></trkpt><trkpt lat="43.471709016849125" lon="12.258422023292725"><ele>312.0</ele><time>2026-04-19T10:15:09Z</time></trkpt><trkpt lat="43.47165678325584" lon="12.25823199527297"><ele>311.25</ele><time>2026-04-19T10:15:10Z</time></trkpt><trkpt lat="43.47161129584119" lon="12.258031928380692"><ele>310.5</ele><time>2026-04-19T10:15:11Z</time></trkpt><trkpt lat="43.471572561018" lon="12.257825713591886"><ele>309.75</ele><time>2026-04-19T10:15:11.999Z</time></trkpt><trkpt lat="43.47154066218667" lon="12.25763700616213"><ele>309.0</ele><time>2026-04-19T10:15:12.999Z</time></trkpt><trkpt lat="43.471512930225884" lon="12.257465278023693"><ele>309.0</ele><time>2026-04-19T10:15:13.999Z</time></trkpt><trkpt lat="43.4714845494732" lon="12.257307420344326"><ele>309.0</ele><time>2026-04-19T10:15:14.999Z</time></trkpt><trkpt lat="43.47145752664808" lon="12.257159510366625"><ele>309.0</ele><time>2026-04-19T10:15:15.999Z</time></trkpt><trkpt lat="43.47142930722173" lon="12.25702136468993"><ele>309.0</ele><time>2026-04-19T10:15:16.999Z</time></trkpt><trkpt lat="43.47140394982289" lon="12.256890864175519"><ele>309.0</ele><time>2026-04-19T10:15:17.999Z</time></trkpt><trkpt lat="43.47138382131619" lon="12.256764187773861"><ele>308.8</ele><time>2026-04-19T10:15:18.999Z</time></trkpt><trkpt lat="43.471362656426315" lon="12.25664468904036"><ele>308.59999999999997</ele><time>2026-04-19T10:15:19.999Z</time></trkpt><trkpt lat="43.47134293257631" lon="12.2565298326788"><ele>308.4</ele><time>2026-04-19T10:15:20.999Z</time></trkpt><trkpt lat="43.47131971300498" lon="12.25640337097013"><ele>308.2</ele><time>2026-04-19T10:15:21.999Z</time></trkpt><trkpt lat="43.47129641933924" lon="12.256265886522808"><ele>308.0</ele><time>2026-04-19T10:15:22.999Z</time></trkpt><trkpt lat="43.47127082396574" lon="12.256118591644457"><ele>307.8</ele><time>2026-04-19T10:15:23.999Z</time></trkpt><trkpt lat="43.47124629653096" lon="12.255981279395426"><ele>307.6</ele><time>2026-04-19T10:15:24.999Z</time></trkpt><trkpt lat="43.47123395586836" lon="12.255853529212466"><ele>307.4</ele><time>2026-04-19T10:15:25.999Z</time></trkpt><trkpt lat="43.471212518348274" lon="12.255736308895939"><ele>307.2</ele><time>2026-04-19T10:15:26.999Z</time></trkpt><trkpt lat="43.471264788087325" lon="12.255591288887457"><ele>307.0</ele><time>2026-04-19T10:15:27.999Z</time></trkpt><trkpt lat="43.471262394800625" lon="12.255453574688923"><ele>306.5</ele><time>2026-04-19T10:15:28.999Z</time></trkpt><trkpt lat="43.471214234230494" lon="12.255318969770316"><ele>306.0</ele><time>2026-04-19T10:15:29.999Z</time></trkpt><trkpt lat="43.47113818558778" lon="12.25520727281749"><ele>305.5</ele><time>2026-04-19T10:15:30.999Z</time></trkpt><trkpt lat="43.4710330829575" lon="12.255153625668374"><ele>305.0</ele><time>2026-04-19T10:15:31.999Z</time></trkpt><trkpt lat="43.47101804623563" lon="12.254975415999452"><ele>305.0</ele><time>2026-04-19T10:15:32.999Z</time></trkpt><trkpt lat="43.47099921238672" lon="12.254845431428375"><ele>305.0</ele><time>2026-04-19T10:15:33.999Z</time></trkpt><trkpt lat="43.470977435437625" lon="12.254708336069275"><ele>305.0</ele><time>2026-04-19T10:15:34.999Z</time></trkpt><trkpt lat="43.47095108097088" lon="12.254567626073696"><ele>305.0</ele><time>2026-04-19T10:15:35.999Z</time></trkpt><trkpt lat="43.470925369790685" lon="12.254427268087753"><ele>305.0</ele><time>2026-04-19T10:15:36.999Z</time></trkpt><trkpt lat="43.47090182096714" lon="12.254291891619552"><ele>304.4</ele><time>2026-04-19T10:15:37.999Z</time></trkpt><trkpt lat="43.47087949794554" lon="12.254166969493347"><ele>303.8</ele><time>2026-04-19T10:15:38.999Z</time></trkpt><trkpt lat="43.47085673721675" lon="12.254049569546128"><ele>303.2</ele><time>2026-04-19T10:15:40Z</time></trkpt><trkpt lat="43.47083451713411" lon="12.253924840649935"><ele>302.6</ele><time>2026-04-19T10:15:41Z</time></trkpt><trkpt lat="43.470815172757504" lon="12.253794268046732"><ele>302.0</ele><time>2026-04-19T10:15:42Z</time></trkpt><trkpt lat="43.47079638884542" lon="12.253664763125428"><ele>301.8</ele><time>2026-04-19T10:15:43Z</time></trkpt><trkpt lat="43.47077535719009" lon="12.253549366333921"><ele>301.6</ele><time>2026-04-19T10:15:44Z</time></trkpt><trkpt lat="43.47075551956399" lon="12.253430821693835"><ele>301.40000000000003</ele><time>2026-04-19T10:15:45Z</time></trkpt><trkpt lat="43.470734310014706" lon="12.253293926624726"><ele>301.2</ele><time>2026-04-19T10:15:46Z</time></trkpt><trkpt lat="43.470719034373545" lon="12.253145364515985"><ele>301.0</ele><time>2026-04-19T10:15:47Z</time></trkpt><trkpt lat="43.47071102180236" lon="12.252978689012481"><ele>300.25</ele><time>2026-04-19T10:15:48Z</time></trkpt><trkpt lat="43.47070400088848" lon="12.252793954870016"><ele>299.5</ele><time>2026-04-19T10:15:49Z</time></trkpt><trkpt lat="43.47069992648277" lon="12.25258754137936"><ele>298.75</ele><time>2026-04-19T10:15:50Z</time></trkpt><trkpt lat="43.4706991720513" lon="12.252380707918384"><ele>298.0</ele><time>2026-04-19T10:15:51Z</time></trkpt><trkpt lat="43.47069634952339" lon="12.252170480353653"><ele>297.66666666666663</ele><time>2026-04-19T10:15:52Z</time></trkpt><trkpt lat="43.47069184180266" lon="12.251952450679601"><ele>297.3333333333333</ele><time>2026-04-19T10:15:53Z</time></trkpt><trkpt lat="43.47068615034217" lon="12.251729459847924"><ele>297.0</ele><time>2026-04-19T10:15:54Z</time></trkpt><trkpt lat="43.47068024217107" lon="12.251505387234722"><ele>296.6666666666667</ele><time>2026-04-19T10:15:55Z</time></trkpt><trkpt lat="43.470672488300536" lon="12.251279606002447"><ele>296.33333333333337</ele><time>2026-04-19T10:15:56Z</time></trkpt><trkpt lat="43.470667603074375" lon="12.25105186517959"><ele>296.0</ele><time>2026-04-19T10:15:57Z</time></trkpt><trkpt lat="43.47066432640273" lon="12.25082493861832"><ele>296.33333333333337</ele><time>2026-04-19T10:15:58Z</time></trkpt><trkpt lat="43.470665890448636" lon="12.250603003402835"><ele>296.6666666666667</ele><time>2026-04-19T10:15:59Z</time></trkpt><trkpt lat="43.47066648201894" lon="12.250379937462018"><ele>297.0</ele><time>2026-04-19T10:16:00Z</time></trkpt><trkpt lat="43.470669627104144" lon="12.25015521888103"><ele>297.0</ele><time>2026-04-19T10:16:01Z</time></trkpt><trkpt lat="43.4706792527883" lon="12.249928212121219"><ele>297.0</ele><time>2026-04-19T10:16:02Z</time></trkpt><trkpt lat="43.4706954773622" lon="12.249706627570623"><ele>297.0</ele><time>2026-04-19T10:16:03Z</time></trkpt><trkpt lat="43.47071419934092" lon="12.249483782360205"><ele>296.0</ele><time>2026-04-19T10:16:04Z</time></trkpt><trkpt lat="43.4707347075719" lon="12.249263916280075"><ele>295.0</ele><time>2026-04-19T10:16:05Z</time></trkpt><trkpt lat="43.4707585814767" lon="12.249043265328458"><ele>294.0</ele><time>2026-04-19T10:16:06Z</time></trkpt><trkpt lat="43.47078883201207" lon="12.248842697769327"><ele>293.75</ele><time>2026-04-19T10:16:07Z</time></trkpt><trkpt lat="43.470822643846844" lon="12.24866514045382"><ele>293.5</ele><time>2026-04-19T10:16:08Z</time></trkpt><trkpt lat="43.4708547735744" lon="12.248496616288012"><ele>293.25</ele><time>2026-04-19T10:16:09Z</time></trkpt><trkpt lat="43.4708874945511" lon="12.248318464270882"><ele>293.0</ele><time>2026-04-19T10:16:10Z</time></trkpt><trkpt lat="43.47092393867033" lon="12.2481285199119"><ele>293.5</ele><time>2026-04-19T10:16:11Z</time></trkpt><trkpt lat="43.470964774398524" lon="12.247945811645527"><ele>294.0</ele><time>2026-04-19T10:16:12Z</time></trkpt><trkpt lat="43.471004629975425" lon="12.247779670931102"><ele>294.5</ele><time>2026-04-19T10:16:13Z</time></trkpt><trkpt lat="43.47104645734163" lon="12.247622540962707"><ele>295.0</ele><time>2026-04-19T10:16:14Z</time></trkpt><trkpt lat="43.471086067142785" lon="12.247469626628119"><ele>295.0</ele><time>2026-04-19T10:16:15Z</time></trkpt><trkpt lat="43.47112431926889" lon="12.247325404749882"><ele>295.0</ele><time>2026-04-19T10:16:16Z</time></trkpt><trkpt lat="43.47116718754809" lon="12.24719279136133"><ele>295.0</ele><time>2026-04-19T10:16:17Z</time></trkpt><trkpt lat="43.471210324607846" lon="12.24705067052229"><ele>295.0</ele><time>2026-04-19T10:16:18Z</time></trkpt><trkpt lat="43.471254967708184" lon="12.246922560981359"><ele>295.0</ele><time>2026-04-19T10:16:19Z</time></trkpt><trkpt lat="43.471303798973906" lon="12.246811244638163"><ele>294.6</ele><time>2026-04-19T10:16:20Z</time></trkpt><trkpt lat="43.47136944643601" lon="12.246727654662765"><ele>294.2</ele><time>2026-04-19T10:16:21Z</time></trkpt><trkpt lat="43.47145008036248" lon="12.246675181303303"><ele>293.8</ele><time>2026-04-19T10:16:22Z</time></trkpt><trkpt lat="43.47154180726469" lon="12.24662900858829"><ele>293.4</ele><time>2026-04-19T10:16:23Z</time></trkpt><trkpt lat="43.47163065878427" lon="12.246574269562085"><ele>293.0</ele><time>2026-04-19T10:16:24Z</time></trkpt><trkpt lat="43.471715623067126" lon="12.24649764236929"><ele>293.25</ele><time>2026-04-19T10:16:25Z</time></trkpt><trkpt lat="43.471785150670634" lon="12.246385055603167"><ele>293.5</ele><time>2026-04-19T10:16:26Z</time></trkpt><trkpt lat="43.47182632133089" lon="12.246242176752947"><ele>293.75</ele><time>2026-04-19T10:16:27Z</time></trkpt><trkpt lat="43.47183211810958" lon="12.246076217027705"><ele>294.0</ele><time>2026-04-19T10:16:28Z</time></trkpt><trkpt lat="43.47180165840591" lon="12.24589915235977"><ele>294.0</ele><time>2026-04-19T10:16:29Z</time></trkpt><trkpt lat="43.4717195460034" lon="12.245741888459612"><ele>294.0</ele><time>2026-04-19T10:16:30Z</time></trkpt><trkpt lat="43.47166217783561" lon="12.245550887503121"><ele>294.0</ele><time>2026-04-19T10:16:31Z</time></trkpt><trkpt lat="43.47163718142758" lon="12.245356756892285"><ele>294.0</ele><time>2026-04-19T10:16:32Z</time></trkpt><trkpt lat="43.47169194354108" lon="12.245162014032358"><ele>293.25</ele><time>2026-04-19T10:16:33Z</time></trkpt><trkpt lat="43.47174453892" lon="12.245002073447404"><ele>292.5</ele><time>2026-04-19T10:16:34Z</time></trkpt><trkpt lat="43.47179727208658" lon="12.244862643123158"><ele>291.75</ele><time>2026-04-19T10:16:35Z</time></trkpt><trkpt lat="43.471841274023184" lon="12.244728634004094"><ele>291.0</ele><time>2026-04-19T10:16:36Z</time></trkpt><trkpt lat="43.47187274839179" lon="12.244591957524936"><ele>291.0</ele><time>2026-04-19T10:16:37Z</time></trkpt><trkpt lat="43.471905832499665" lon="12.244444767651425"><ele>291.0</ele><time>2026-04-19T10:16:38Z</time></trkpt><trkpt lat="43.471948552644996" lon="12.24429471247153"><ele>291.0</ele><time>2026-04-19T10:16:39Z</time></trkpt><trkpt lat="43.47198972449583" lon="12.244139076088594"><ele>291.0</ele><time>2026-04-19T10:16:40Z</time></trkpt><trkpt lat="43.47203028632484" lon="12.243978440094995"><ele>291.0</ele><time>2026-04-19T10:16:41Z</time></trkpt><trkpt lat="43.47207122935398" lon="12.243811267771111"><ele>291.0</ele><time>2026-04-19T10:16:42Z</time></trkpt><trkpt lat="43.47211295342311" lon="12.243638369377237"><ele>291.0</ele><time>2026-04-19T10:16:43Z</time></trkpt><trkpt lat="43.47215324054119" lon="12.243455473979743"><ele>291.0</ele><time>2026-04-19T10:16:44Z</time></trkpt><trkpt lat="43.47219728212968" lon="12.243262336362697"><ele>290.6666666666667</ele><time>2026-04-19T10:16:45Z</time></trkpt><trkpt lat="43.47224514350446" lon="12.243057120343762"><ele>290.33333333333337</ele><time>2026-04-19T10:16:46Z</time></trkpt><trkpt lat="43.47229544955211" lon="12.242839358289213"><ele>290.0</ele><time>2026-04-19T10:16:47Z</time></trkpt><trkpt lat="43.47235570796254" lon="12.24258190655662"><ele>290.0</ele><time>2026-04-19T10:16:48Z</time></trkpt><trkpt lat="43.47242223403916" lon="12.242319857398423"><ele>290.0</ele><time>2026-04-19T10:16:49Z</time></trkpt><trkpt lat="43.47247624049388" lon="12.24208240740129"><ele>290.0</ele><time>2026-04-19T10:16:50Z</time></trkpt><trkpt lat="43.47253975885583" lon="12.241831227002491"><ele>290.0</ele><time>2026-04-19T10:16:51Z</time></trkpt><trkpt lat="43.472599474927144" lon="12.241576079293605"><ele>290.0</ele><time>2026-04-19T10:16:52Z</time></trkpt><trkpt lat="43.47265656642114" lon="12.24135260557491"><ele>290.0</ele><time>2026-04-19T10:16:53Z</time></trkpt><trkpt lat="43.4727083135453" lon="12.24115851628966"><ele>290.0</ele><time>2026-04-19T10:16:54Z</time></trkpt><trkpt lat="43.472750927481435" lon="12.24099743527701"><ele>290.0</ele><time>2026-04-19T10:16:55Z</time></trkpt><trkpt lat="43.47278401720493" lon="12.240858448010972"><ele>290.0</ele><time>2026-04-19T10:16:56Z</time></trkpt><trkpt lat="43.472815440832576" lon="12.240726970766856"><ele>290.0</ele><time>2026-04-19T10:16:57Z</time></trkpt><trkpt lat="43.47284498532265" lon="12.24060232960679"><ele>290.0</ele><time>2026-04-19T10:16:58Z</time></trkpt><trkpt lat="43.47287381907739" lon="12.240484726499021"><ele>289.6</ele><time>2026-04-19T10:16:59Z</time></trkpt><trkpt lat="43.472903768452085" lon="12.240380076261863"><ele>289.2</ele><time>2026-04-19T10:17:00Z</time></trkpt><trkpt lat="43.472931628891416" lon="12.240280163786018"><ele>288.8</ele><time>2026-04-19T10:17:01Z</time></trkpt><trkpt lat="43.47295670844957" lon="12.240190874702048"><ele>288.4</ele><time>2026-04-19T10:17:02Z</time></trkpt><trkpt lat="43.472991959544856" lon="12.240037468854904"><ele>288.0</ele><time>2026-04-19T10:17:04Z</time></trkpt><trkpt lat="43.4730474704448" lon="12.239903736629264"><ele>288.0</ele><time>2026-04-19T10:17:06Z</time></trkpt><trkpt lat="43.47311156446399" lon="12.239779452118542"><ele>288.0</ele><time>2026-04-19T10:17:08Z</time></trkpt><trkpt lat="43.473195194277885" lon="12.239698821364556"><ele>288.0</ele><time>2026-04-19T10:17:10Z</time></trkpt><trkpt lat="43.473245961611376" lon="12.239539229071356"><ele>288.0</ele><time>2026-04-19T10:17:12Z</time></trkpt><trkpt lat="43.47324620700725" lon="12.239426634142875"><ele>288.0</ele><time>2026-04-19T10:17:13Z</time></trkpt><trkpt lat="43.473202519972105" lon="12.239312466045329"><ele>288.0</ele><time>2026-04-19T10:17:14Z</time></trkpt><trkpt lat="43.473145980139144" lon="12.239228724921313"><ele>288.0</ele><time>2026-04-19T10:17:15Z</time></trkpt><trkpt lat="43.47320171255608" lon="12.239071590173628"><ele>288.0</ele><time>2026-04-19T10:17:16Z</time></trkpt><trkpt lat="43.473210863964255" lon="12.238951842405802"><ele>288.0</ele><time>2026-04-19T10:17:17Z</time></trkpt><trkpt lat="43.47324529844197" lon="12.238800710117065"><ele>288.0</ele><time>2026-04-19T10:17:18Z</time></trkpt><trkpt lat="43.473263252380676" lon="12.238631796245262"><ele>288.0</ele><time>2026-04-19T10:17:19Z</time></trkpt><trkpt lat="43.473273320821924" lon="12.238464625161797"><ele>288.0</ele><time>2026-04-19T10:17:20Z</time></trkpt><trkpt lat="43.47328328870101" lon="12.238272199816306"><ele>288.0</ele><time>2026-04-19T10:17:21Z</time></trkpt><trkpt lat="43.47328359343206" lon="12.238093191788579"><ele>288.0</ele><time>2026-04-19T10:17:22Z</time></trkpt><trkpt lat="43.4732638751742" lon="12.237935053575146"><ele>287.5</ele><time>2026-04-19T10:17:23Z</time></trkpt><trkpt lat="43.47324695181164" lon="12.237773885536955"><ele>287.0</ele><time>2026-04-19T10:17:24Z</time></trkpt><trkpt lat="43.473205283661066" lon="12.23760258026384"><ele>286.5</ele><time>2026-04-19T10:17:25Z</time></trkpt><trkpt lat="43.47315613697637" lon="12.237386433242579"><ele>286.0</ele><time>2026-04-19T10:17:25.999Z</time></trkpt><trkpt lat="43.473109940590085" lon="12.237206561917477"><ele>286.0</ele><time>2026-04-19T10:17:26.999Z</time></trkpt><trkpt lat="43.47306036241005" lon="12.237055738572474"><ele>286.0</ele><time>2026-04-19T10:17:27.999Z</time></trkpt><trkpt lat="43.473010379605654" lon="12.236901419667417"><ele>286.0</ele><time>2026-04-19T10:17:28.999Z</time></trkpt><trkpt lat="43.47295473186492" lon="12.23676324169881"><ele>286.0</ele><time>2026-04-19T10:17:29.999Z</time></trkpt><trkpt lat="43.4728987348829" lon="12.236637132248825"><ele>286.0</ele><time>2026-04-19T10:17:30.999Z</time></trkpt><trkpt lat="43.47285165069534" lon="12.236529437811095"><ele>286.0</ele><time>2026-04-19T10:17:31.999Z</time></trkpt><trkpt lat="43.47281782041641" lon="12.236439485216906"><ele>286.0</ele><time>2026-04-19T10:17:32.999Z</time></trkpt><trkpt lat="43.47277591168605" lon="12.236341050703164"><ele>286.0</ele><time>2026-04-19T10:17:33.999Z</time></trkpt><trkpt lat="43.47275040511007" lon="12.236256630598689"><ele>286.0</ele><time>2026-04-19T10:17:34.999Z</time></trkpt><trkpt lat="43.472742111100224" lon="12.236093583029021"><ele>286.0</ele><time>2026-04-19T10:17:36.999Z</time></trkpt><trkpt lat="43.47275416173924" lon="12.235920699346451"><ele>286.0</ele><time>2026-04-19T10:17:38.999Z</time></trkpt><trkpt lat="43.47277983166879" lon="12.235828139822656"><ele>286.0</ele><time>2026-04-19T10:17:39.999Z</time></trkpt><trkpt lat="43.472796734336065" lon="12.235660439129886"><ele>286.0</ele><time>2026-04-19T10:17:41.999Z</time></trkpt><trkpt lat="43.47278863891409" lon="12.235569301241792"><ele>286.0</ele><time>2026-04-19T10:17:42.999Z</time></trkpt><trkpt lat="43.47274850275155" lon="12.235427329407306"><ele>286.0</ele><time>2026-04-19T10:17:44.999Z</time></trkpt><trkpt lat="43.47271731012458" lon="12.23528770225153"><ele>286.0</ele><time>2026-04-19T10:17:47.001Z</time></trkpt><trkpt lat="43.47265237936614" lon="12.235286492646546"><ele>286.0</ele><time>2026-04-19T10:17:48.001Z</time></trkpt><trkpt lat="43.472545965344246" lon="12.235200518623397"><ele>286.0</ele><time>2026-04-19T10:17:50.001Z</time></trkpt><trkpt lat="43.47246599315845" lon="12.2351790642193"><ele>286.0</ele><time>2026-04-19T10:17:51.001Z</time></trkpt><trkpt lat="43.47238554765476" lon="12.235156267569035"><ele>286.0</ele><time>2026-04-19T10:17:52.001Z</time></trkpt><trkpt lat="43.472305787097945" lon="12.235114494309016"><ele>286.0</ele><time>2026-04-19T10:17:53.001Z</time></trkpt><trkpt lat="43.472241600024674" lon="12.235049260925813"><ele>286.0</ele><time>2026-04-19T10:17:54.001Z</time></trkpt><trkpt lat="43.47218204548671" lon="12.234959010926032"><ele>286.0</ele><time>2026-04-19T10:17:55.001Z</time></trkpt><trkpt lat="43.47213595108807" lon="12.234829664354411"><ele>286.0</ele><time>2026-04-19T10:17:56.001Z</time></trkpt><trkpt lat="43.47210309569535" lon="12.234711170617881"><ele>286.0</ele><time>2026-04-19T10:17:57Z</time></trkpt><trkpt lat="43.4720563079007" lon="12.234606328547152"><ele>286.0</ele><time>2026-04-19T10:17:58Z</time></trkpt><trkpt lat="43.47201107388886" lon="12.234507434594684"><ele>286.3333333333333</ele><time>2026-04-19T10:17:59Z</time></trkpt><trkpt lat="43.471978429039204" lon="12.234429866469586"><ele>286.66666666666663</ele><time>2026-04-19T10:18:00Z</time></trkpt><trkpt lat="43.471935362415536" lon="12.234313213538888"><ele>287.0</ele><time>2026-04-19T10:18:02Z</time></trkpt><trkpt lat="43.47188967370765" lon="12.234205174568975"><ele>287.3333333333333</ele><time>2026-04-19T10:18:04Z</time></trkpt><trkpt lat="43.47183839786633" lon="12.234082496340804"><ele>287.6666666666667</ele><time>2026-04-19T10:18:06Z</time></trkpt><trkpt lat="43.47180666807748" lon="12.234004684064423"><ele>288.0</ele><time>2026-04-19T10:18:07Z</time></trkpt><trkpt lat="43.47176552627115" lon="12.233899083963486"><ele>286.75</ele><time>2026-04-19T10:18:08Z</time></trkpt><trkpt lat="43.47170845983002" lon="12.23377135575949"><ele>285.5</ele><time>2026-04-19T10:18:09Z</time></trkpt><trkpt lat="43.47164877056711" lon="12.233629873129232"><ele>284.25</ele><time>2026-04-19T10:18:10Z</time></trkpt><trkpt lat="43.47155974116239" lon="12.233422658994415"><ele>283.0</ele><time>2026-04-19T10:18:11Z</time></trkpt><trkpt lat="43.471428564470074" lon="12.233146960350606"><ele>283.0</ele><time>2026-04-19T10:18:12Z</time></trkpt><trkpt lat="43.47129916114866" lon="12.232847508673862"><ele>283.0</ele><time>2026-04-19T10:18:13Z</time></trkpt><trkpt lat="43.471151692600294" lon="12.232532740189907"><ele>284.0</ele><time>2026-04-19T10:18:14Z</time></trkpt><trkpt lat="43.470992530073325" lon="12.232231665396293"><ele>285.0</ele><time>2026-04-19T10:18:15Z</time></trkpt><trkpt lat="43.47083555070971" lon="12.231966229742474"><ele>285.0</ele><time>2026-04-19T10:18:16Z</time></trkpt><trkpt lat="43.470682547856214" lon="12.231752830986794"><ele>285.0</ele><time>2026-04-19T10:18:17Z</time></trkpt><trkpt lat="43.47053711261342" lon="12.231562198950968"><ele>285.0</ele><time>2026-04-19T10:18:18Z</time></trkpt><trkpt lat="43.47039507250961" lon="12.231390638018796"><ele>284.3333333333333</ele><time>2026-04-19T10:18:19Z</time></trkpt><trkpt lat="43.470248383274125" lon="12.231225477682662"><ele>283.66666666666663</ele><time>2026-04-19T10:18:20Z</time></trkpt><trkpt lat="43.4701049358825" lon="12.231072861796461"><ele>283.0</ele><time>2026-04-19T10:18:21Z</time></trkpt><trkpt lat="43.469970856014925" lon="12.230940023315547"><ele>283.0</ele><time>2026-04-19T10:18:22Z</time></trkpt><trkpt lat="43.469848972668025" lon="12.230816453116324"><ele>283.0</ele><time>2026-04-19T10:18:23Z</time></trkpt><trkpt lat="43.46973323291072" lon="12.230700769361896"><ele>283.0</ele><time>2026-04-19T10:18:24Z</time></trkpt><trkpt lat="43.46962625473521" lon="12.230589980393658"><ele>283.0</ele><time>2026-04-19T10:18:25Z</time></trkpt><trkpt lat="43.46953333703702" lon="12.23048777006875"><ele>283.0</ele><time>2026-04-19T10:18:26Z</time></trkpt><trkpt lat="43.469447214638116" lon="12.230409633863301"><ele>283.0</ele><time>2026-04-19T10:18:27Z</time></trkpt><trkpt lat="43.46938849788345" lon="12.230324519412434"><ele>283.0</ele><time>2026-04-19T10:18:28Z</time></trkpt><trkpt lat="43.469339716100336" lon="12.23024423032528"><ele>283.0</ele><time>2026-04-19T10:18:29Z</time></trkpt><trkpt lat="43.469282314343296" lon="12.230127165458017"><ele>283.0</ele><time>2026-04-19T10:18:31Z</time></trkpt><trkpt lat="43.46925267342875" lon="12.230015386479725"><ele>283.0</ele><time>2026-04-19T10:18:33Z</time></trkpt><trkpt lat="43.4692955388711" lon="12.229934905563697"><ele>283.0</ele><time>2026-04-19T10:19:05Z</time></trkpt><trkpt lat="43.46925622758198" lon="12.229844455652454"><ele>283.0</ele><time>2026-04-19T10:19:15Z</time></trkpt><trkpt lat="43.46919780947386" lon="12.229769633861048"><ele>283.0</ele><time>2026-04-19T10:19:16Z</time></trkpt><trkpt lat="43.46912718869255" lon="12.229701076791818"><ele>283.0</ele><time>2026-04-19T10:19:17Z</time></trkpt><trkpt lat="43.46904178736217" lon="12.229641976746143"><ele>283.0</ele><time>2026-04-19T10:19:18Z</time></trkpt><trkpt lat="43.468926528829996" lon="12.229600038140239"><ele>282.75</ele><time>2026-04-19T10:19:19Z</time></trkpt><trkpt lat="43.468791460171026" lon="12.229581661525579"><ele>282.5</ele><time>2026-04-19T10:19:20Z</time></trkpt><trkpt lat="43.46865816746852" lon="12.229534300165488"><ele>282.25</ele><time>2026-04-19T10:19:21Z</time></trkpt><trkpt lat="43.46854056876055" lon="12.229431632443335"><ele>282.0</ele><time>2026-04-19T10:19:22Z</time></trkpt><trkpt lat="43.46843465354426" lon="12.229284945237305"><ele>281.0</ele><time>2026-04-19T10:19:22.999Z</time></trkpt><trkpt lat="43.46832232248155" lon="12.229102782855746"><ele>280.0</ele><time>2026-04-19T10:19:23.999Z</time></trkpt><trkpt lat="43.46820684088192" lon="12.228900374707468"><ele>279.0</ele><time>2026-04-19T10:19:24.999Z</time></trkpt><trkpt lat="43.46809250289917" lon="12.228698952286875"><ele>279.0</ele><time>2026-04-19T10:19:25.999Z</time></trkpt><trkpt lat="43.46798103317258" lon="12.228487295416388"><ele>279.0</ele><time>2026-04-19T10:19:26.999Z</time></trkpt><trkpt lat="43.467871231324146" lon="12.228260126399695"><ele>279.0</ele><time>2026-04-19T10:19:27.999Z</time></trkpt><trkpt lat="43.46776749228056" lon="12.228039413685508"><ele>280.0</ele><time>2026-04-19T10:19:28.999Z</time></trkpt><trkpt lat="43.46768532401755" lon="12.22783844431898"><ele>281.0</ele><time>2026-04-19T10:19:29.999Z</time></trkpt><trkpt lat="43.4676144987626" lon="12.227659683135313"><ele>282.0</ele><time>2026-04-19T10:19:30.999Z</time></trkpt><trkpt lat="43.46755060595093" lon="12.227486132979124"><ele>282.0</ele><time>2026-04-19T10:19:31.999Z</time></trkpt><trkpt lat="43.467491191148206" lon="12.227311359813626"><ele>282.0</ele><time>2026-04-19T10:19:32.999Z</time></trkpt><trkpt lat="43.46744618522865" lon="12.22714701185617"><ele>282.0</ele><time>2026-04-19T10:19:33.999Z</time></trkpt><trkpt lat="43.467409262507545" lon="12.226991883176824"><ele>282.0</ele><time>2026-04-19T10:19:34.999Z</time></trkpt><trkpt lat="43.46736074488785" lon="12.2268484406375"><ele>281.75</ele><time>2026-04-19T10:19:35.999Z</time></trkpt><trkpt lat="43.46731296432628" lon="12.226716317394835"><ele>281.5</ele><time>2026-04-19T10:19:36.999Z</time></trkpt><trkpt lat="43.46727906892554" lon="12.226584204276415"><ele>281.25</ele><time>2026-04-19T10:19:37.999Z</time></trkpt><trkpt lat="43.46736049377784" lon="12.22641092639682"><ele>281.0</ele><time>2026-04-19T10:19:38.999Z</time></trkpt><trkpt lat="43.467441316798705" lon="12.226266417024734"><ele>280.25</ele><time>2026-04-19T10:19:39.999Z</time></trkpt><trkpt lat="43.46756006901042" lon="12.226170635347286"><ele>279.5</ele><time>2026-04-19T10:19:40.999Z</time></trkpt><trkpt lat="43.46770153148523" lon="12.226150794225296"><ele>278.75</ele><time>2026-04-19T10:19:41.999Z</time></trkpt><trkpt lat="43.46783018594521" lon="12.226235180499014"><ele>278.0</ele><time>2026-04-19T10:19:42.999Z</time></trkpt><trkpt lat="43.46793587023897" lon="12.226361522945668"><ele>278.75</ele><time>2026-04-19T10:19:43.999Z</time></trkpt><trkpt lat="43.46799382517468" lon="12.2265386075064"><ele>279.5</ele><time>2026-04-19T10:19:44.999Z</time></trkpt><trkpt lat="43.46799949671053" lon="12.226721707661662"><ele>280.25</ele><time>2026-04-19T10:19:45.999Z</time></trkpt><trkpt lat="43.46796851707051" lon="12.226879304990623"><ele>281.0</ele><time>2026-04-19T10:19:46.999Z</time></trkpt><trkpt lat="43.46789110795191" lon="12.226992165140675"><ele>281.0</ele><time>2026-04-19T10:19:47.999Z</time></trkpt><trkpt lat="43.467787547270554" lon="12.227109226279957"><ele>281.0</ele><time>2026-04-19T10:19:48.999Z</time></trkpt><trkpt lat="43.46763121760139" lon="12.227156157863355"><ele>281.0</ele><time>2026-04-19T10:19:49.999Z</time></trkpt><trkpt lat="43.467459056549444" lon="12.227216208831573"><ele>281.0</ele><time>2026-04-19T10:19:50.999Z</time></trkpt><trkpt lat="43.467215421824505" lon="12.227293217587485"><ele>281.0</ele><time>2026-04-19T10:19:52Z</time></trkpt><trkpt lat="43.46691394512762" lon="12.22733452210833"><ele>282.0</ele><time>2026-04-19T10:19:53Z</time></trkpt><trkpt lat="43.466751875914504" lon="12.227475430625484"><ele>283.0</ele><time>2026-04-19T10:19:54Z</time></trkpt><trkpt lat="43.466388245171785" lon="12.22755039980749"><ele>283.0</ele><time>2026-04-19T10:19:55Z</time></trkpt><trkpt lat="43.466038446546534" lon="12.227567318202999"><ele>283.0</ele><time>2026-04-19T10:19:56Z</time></trkpt><trkpt lat="43.46570471718499" lon="12.227560658092235"><ele>283.0</ele><time>2026-04-19T10:19:57Z</time></trkpt><trkpt lat="43.46544786672062" lon="12.227529380717892"><ele>283.0</ele><time>2026-04-19T10:19:58Z</time></trkpt><trkpt lat="43.46523672950468" lon="12.227486756030945"><ele>283.0</ele><time>2026-04-19T10:19:59Z</time></trkpt><trkpt lat="43.465035513757016" lon="12.227441419311253"><ele>283.0</ele><time>2026-04-19T10:20:00Z</time></trkpt><trkpt lat="43.46479432817866" lon="12.227403144790868"><ele>283.0</ele><time>2026-04-19T10:20:01Z</time></trkpt><trkpt lat="43.46455174826473" lon="12.227353713609133"><ele>281.5</ele><time>2026-04-19T10:20:02Z</time></trkpt><trkpt lat="43.46429993440152" lon="12.22729293882786"><ele>280.0</ele><time>2026-04-19T10:20:03Z</time></trkpt><trkpt lat="43.464046794734394" lon="12.22719135635438"><ele>280.0</ele><time>2026-04-19T10:20:04Z</time></trkpt><trkpt lat="43.46380622702296" lon="12.2271261334153"><ele>280.0</ele><time>2026-04-19T10:20:05Z</time></trkpt><trkpt lat="43.463560463181196" lon="12.227065454875152"><ele>281.5</ele><time>2026-04-19T10:20:06Z</time></trkpt><trkpt lat="43.463313586067855" lon="12.22700561285776"><ele>283.0</ele><time>2026-04-19T10:20:07Z</time></trkpt><trkpt lat="43.463056965571944" lon="12.226952677982215"><ele>288.0</ele><time>2026-04-19T10:20:08Z</time></trkpt><trkpt lat="43.462806859453764" lon="12.22690203044181"><ele>293.0</ele><time>2026-04-19T10:20:09Z</time></trkpt><trkpt lat="43.462549968846474" lon="12.226853014634163"><ele>293.0</ele><time>2026-04-19T10:20:10Z</time></trkpt><trkpt lat="43.462260960011996" lon="12.226799583808795"><ele>293.0</ele><time>2026-04-19T10:20:11Z</time></trkpt><trkpt lat="43.461955567841194" lon="12.226732980705897"><ele>297.5</ele><time>2026-04-19T10:20:12Z</time></trkpt><trkpt lat="43.46158697360114" lon="12.226674094479272"><ele>302.0</ele><time>2026-04-19T10:20:13Z</time></trkpt><trkpt lat="43.46118987158477" lon="12.226589092661516"><ele>302.5</ele><time>2026-04-19T10:20:14Z</time></trkpt><trkpt lat="43.46075746975079" lon="12.226491302996486"><ele>303.0</ele><time>2026-04-19T10:20:15Z</time></trkpt><trkpt lat="43.46036029915462" lon="12.226419973363338"><ele>309.5</ele><time>2026-04-19T10:20:16Z</time></trkpt><trkpt lat="43.45998764654952" lon="12.226409065654607"><ele>316.0</ele><time>2026-04-19T10:20:17Z</time></trkpt><trkpt lat="43.4596242576159" lon="12.22642446104746"><ele>319.0</ele><time>2026-04-19T10:20:18Z</time></trkpt><trkpt lat="43.45924193596896" lon="12.226462094178224"><ele>322.0</ele><time>2026-04-19T10:20:19Z</time></trkpt><trkpt lat="43.45886749552543" lon="12.22653513776964"><ele>314.5</ele><time>2026-04-19T10:20:20Z</time></trkpt><trkpt lat="43.45850591496202" lon="12.226646112258377"><ele>307.0</ele><time>2026-04-19T10:20:21Z</time></trkpt><trkpt lat="43.45816084091392" lon="12.226770384250917"><ele>309.0</ele><time>2026-04-19T10:20:22Z</time></trkpt><trkpt lat="43.45783101669023" lon="12.226940760986363"><ele>311.0</ele><time>2026-04-19T10:20:23Z</time></trkpt><trkpt lat="43.457518391184436" lon="12.227117153388013"><ele>311.0</ele><time>2026-04-19T10:20:24Z</time></trkpt><trkpt lat="43.45723685053683" lon="12.227296624876011"><ele>311.0</ele><time>2026-04-19T10:20:25Z</time></trkpt><trkpt lat="43.45694895092543" lon="12.227504684211922"><ele>310.5</ele><time>2026-04-19T10:20:26Z</time></trkpt><trkpt lat="43.456685139063055" lon="12.227724649162667"><ele>310.0</ele><time>2026-04-19T10:20:27Z</time></trkpt><trkpt lat="43.45644297491173" lon="12.227957521277629"><ele>308.0</ele><time>2026-04-19T10:20:28Z</time></trkpt><trkpt lat="43.45620759875036" lon="12.228184942796105"><ele>306.0</ele><time>2026-04-19T10:20:29Z</time></trkpt><trkpt lat="43.455996918393396" lon="12.228446005866607"><ele>306.0</ele><time>2026-04-19T10:20:30Z</time></trkpt><trkpt lat="43.45576617564556" lon="12.22865468771058"><ele>306.0</ele><time>2026-04-19T10:20:31Z</time></trkpt><trkpt lat="43.455545072754724" lon="12.228925748866045"><ele>305.5</ele><time>2026-04-19T10:20:32Z</time></trkpt><trkpt lat="43.455325751919744" lon="12.229195449258562"><ele>305.0</ele><time>2026-04-19T10:20:33Z</time></trkpt><trkpt lat="43.45510339169787" lon="12.229471081944533"><ele>305.0</ele><time>2026-04-19T10:20:34Z</time></trkpt><trkpt lat="43.45487256075533" lon="12.229751406506443"><ele>305.0</ele><time>2026-04-19T10:20:35Z</time></trkpt><trkpt lat="43.45462240534318" lon="12.230048561599398"><ele>303.0</ele><time>2026-04-19T10:20:36Z</time></trkpt><trkpt lat="43.454369600576015" lon="12.230352625130127"><ele>301.0</ele><time>2026-04-19T10:20:37Z</time></trkpt><trkpt lat="43.45411631827" lon="12.23065994956374"><ele>301.0</ele><time>2026-04-19T10:20:38Z</time></trkpt><trkpt lat="43.453856735585525" lon="12.23096253025399"><ele>301.0</ele><time>2026-04-19T10:20:39Z</time></trkpt><trkpt lat="43.453593943427514" lon="12.231279507547567"><ele>301.0</ele><time>2026-04-19T10:20:40Z</time></trkpt><trkpt lat="43.453327492051145" lon="12.231619546430021"><ele>301.0</ele><time>2026-04-19T10:20:41Z</time></trkpt><trkpt lat="43.453064592409824" lon="12.231948136435905"><ele>306.0</ele><time>2026-04-19T10:20:42Z</time></trkpt><trkpt lat="43.45280196740346" lon="12.232256681798873"><ele>311.0</ele><time>2026-04-19T10:20:43Z</time></trkpt><trkpt lat="43.452542170304696" lon="12.232568711999823"><ele>311.0</ele><time>2026-04-19T10:20:44Z</time></trkpt><trkpt lat="43.45229135850594" lon="12.2328744593294"><ele>311.0</ele><time>2026-04-19T10:20:45Z</time></trkpt><trkpt lat="43.452048486969076" lon="12.233183447206926"><ele>310.5</ele><time>2026-04-19T10:20:46Z</time></trkpt><trkpt lat="43.45180548116123" lon="12.23348343410396"><ele>310.0</ele><time>2026-04-19T10:20:47Z</time></trkpt><trkpt lat="43.45155892943435" lon="12.233773188140493"><ele>307.0</ele><time>2026-04-19T10:20:48Z</time></trkpt><trkpt lat="43.45130778091748" lon="12.234062790689682"><ele>304.0</ele><time>2026-04-19T10:20:49Z</time></trkpt><trkpt lat="43.45105111067677" lon="12.234319595188696"><ele>310.0</ele><time>2026-04-19T10:20:50Z</time></trkpt><trkpt lat="43.450771214073384" lon="12.234555467069248"><ele>316.0</ele><time>2026-04-19T10:20:51Z</time></trkpt><trkpt lat="43.45048943675216" lon="12.234775806938263"><ele>315.0</ele><time>2026-04-19T10:20:52Z</time></trkpt><trkpt lat="43.45019802406467" lon="12.234975232082666"><ele>314.0</ele><time>2026-04-19T10:20:53Z</time></trkpt><trkpt lat="43.44990145178644" lon="12.23514744709599"><ele>318.0</ele><time>2026-04-19T10:20:54Z</time></trkpt><trkpt lat="43.4496020190094" lon="12.235293040880162"><ele>322.0</ele><time>2026-04-19T10:20:55Z</time></trkpt><trkpt lat="43.44929588418119" lon="12.235423616420205"><ele>322.0</ele><time>2026-04-19T10:20:56Z</time></trkpt><trkpt lat="43.44898595267886" lon="12.235537373348771"><ele>322.0</ele><time>2026-04-19T10:20:57Z</time></trkpt><trkpt lat="43.44867729709921" lon="12.235641968537953"><ele>317.5</ele><time>2026-04-19T10:20:58Z</time></trkpt><trkpt lat="43.448369621052194" lon="12.235735827653494"><ele>313.0</ele><time>2026-04-19T10:20:59Z</time></trkpt><trkpt lat="43.4480650742704" lon="12.235833147220282"><ele>312.0</ele><time>2026-04-19T10:21:00Z</time></trkpt><trkpt lat="43.44775681516276" lon="12.235930337776828"><ele>311.0</ele><time>2026-04-19T10:21:01Z</time></trkpt><trkpt lat="43.44745084460714" lon="12.236030217466345"><ele>311.0</ele><time>2026-04-19T10:21:02Z</time></trkpt><trkpt lat="43.44714238605015" lon="12.236134266240688"><ele>311.0</ele><time>2026-04-19T10:21:03Z</time></trkpt><trkpt lat="43.446834197207394" lon="12.236232178186626"><ele>309.5</ele><time>2026-04-19T10:21:04Z</time></trkpt><trkpt lat="43.44652595494347" lon="12.236329083201811"><ele>308.0</ele><time>2026-04-19T10:21:05Z</time></trkpt><trkpt lat="43.4462106130936" lon="12.23642975223426"><ele>305.5</ele><time>2026-04-19T10:21:06Z</time></trkpt><trkpt lat="43.445893656839395" lon="12.236533575029961"><ele>303.0</ele><time>2026-04-19T10:21:07Z</time></trkpt><trkpt lat="43.44557847435241" lon="12.236632572766368"><ele>305.0</ele><time>2026-04-19T10:21:08Z</time></trkpt><trkpt lat="43.445256734649384" lon="12.236737290444202"><ele>307.0</ele><time>2026-04-19T10:21:09Z</time></trkpt><trkpt lat="43.44494943379685" lon="12.236835570258897"><ele>307.0</ele><time>2026-04-19T10:21:10Z</time></trkpt><trkpt lat="43.44463756805304" lon="12.236937617697032"><ele>307.0</ele><time>2026-04-19T10:21:11Z</time></trkpt><trkpt lat="43.44432646989395" lon="12.237046367999243"><ele>311.0</ele><time>2026-04-19T10:21:12Z</time></trkpt><trkpt lat="43.44401836593623" lon="12.237166169807791"><ele>315.0</ele><time>2026-04-19T10:21:13Z</time></trkpt><trkpt lat="43.4437100847154" lon="12.237297709144409"><ele>311.5</ele><time>2026-04-19T10:21:14Z</time></trkpt><trkpt lat="43.443402451301225" lon="12.237443150562898"><ele>308.0</ele><time>2026-04-19T10:21:15Z</time></trkpt><trkpt lat="43.443097638279944" lon="12.237598600863066"><ele>307.5</ele><time>2026-04-19T10:21:16Z</time></trkpt><trkpt lat="43.44279489826094" lon="12.23777413312276"><ele>307.0</ele><time>2026-04-19T10:21:17Z</time></trkpt><trkpt lat="43.44249909948097" lon="12.237959645965933"><ele>307.5</ele><time>2026-04-19T10:21:18Z</time></trkpt><trkpt lat="43.44220964598928" lon="12.2381604332411"><ele>308.0</ele><time>2026-04-19T10:21:19Z</time></trkpt><trkpt lat="43.4419285545932" lon="12.238379342726304"><ele>308.0</ele><time>2026-04-19T10:21:20Z</time></trkpt><trkpt lat="43.441653448184866" lon="12.23859952578582"><ele>308.0</ele><time>2026-04-19T10:21:21Z</time></trkpt><trkpt lat="43.441387382312634" lon="12.238839676946053"><ele>318.5</ele><time>2026-04-19T10:21:22Z</time></trkpt><trkpt lat="43.44112560345328" lon="12.239090366579042"><ele>329.0</ele><time>2026-04-19T10:21:23Z</time></trkpt><trkpt lat="43.440871334916366" lon="12.239353394358488"><ele>329.0</ele><time>2026-04-19T10:21:24Z</time></trkpt><trkpt lat="43.44061765081114" lon="12.23962681660085"><ele>329.0</ele><time>2026-04-19T10:21:25Z</time></trkpt><trkpt lat="43.44036626381754" lon="12.239898678963623"><ele>323.5</ele><time>2026-04-19T10:21:26Z</time></trkpt><trkpt lat="43.44011385327789" lon="12.240169586862175"><ele>318.0</ele><time>2026-04-19T10:21:27Z</time></trkpt><trkpt lat="43.43986551852966" lon="12.24044241694571"><ele>308.5</ele><time>2026-04-19T10:21:28Z</time></trkpt><trkpt lat="43.43962561341866" lon="12.240697912709628"><ele>299.0</ele><time>2026-04-19T10:21:29Z</time></trkpt><trkpt lat="43.43938424704142" lon="12.240987602434872"><ele>299.0</ele><time>2026-04-19T10:21:30Z</time></trkpt><trkpt lat="43.43915087179124" lon="12.241251830834177"><ele>299.0</ele><time>2026-04-19T10:21:31Z</time></trkpt><trkpt lat="43.43880579304764" lon="12.241618479303792"><ele>293.5</ele><time>2026-04-19T10:21:32Z</time></trkpt><trkpt lat="43.43857493502873" lon="12.241872085414657"><ele>288.0</ele><time>2026-04-19T10:21:32.999Z</time></trkpt><trkpt lat="43.43833047194452" lon="12.242093043946996"><ele>285.5</ele><time>2026-04-19T10:21:33.999Z</time></trkpt><trkpt lat="43.43808574152375" lon="12.242318071756301"><ele>283.0</ele><time>2026-04-19T10:21:34.999Z</time></trkpt><trkpt lat="43.43781860226015" lon="12.242543701790533"><ele>283.0</ele><time>2026-04-19T10:21:35.999Z</time></trkpt><trkpt lat="43.437540959117484" lon="12.242739917974395"><ele>283.0</ele><time>2026-04-19T10:21:36.999Z</time></trkpt><trkpt lat="43.43725809362115" lon="12.242917304574084"><ele>283.0</ele><time>2026-04-19T10:21:37.999Z</time></trkpt><trkpt lat="43.43696129562211" lon="12.243086655408822"><ele>283.0</ele><time>2026-04-19T10:21:38.999Z</time></trkpt><trkpt lat="43.436655591823055" lon="12.243240196363558"><ele>281.5</ele><time>2026-04-19T10:21:39.999Z</time></trkpt><trkpt lat="43.43634584059361" lon="12.243382334043632"><ele>280.0</ele><time>2026-04-19T10:21:40.999Z</time></trkpt><trkpt lat="43.436034032449555" lon="12.243493905217639"><ele>279.0</ele><time>2026-04-19T10:21:41.999Z</time></trkpt><trkpt lat="43.43571687149141" lon="12.243589591022873"><ele>278.0</ele><time>2026-04-19T10:21:42.999Z</time></trkpt><trkpt lat="43.435392019650706" lon="12.24366700496485"><ele>277.0</ele><time>2026-04-19T10:21:43.999Z</time></trkpt><trkpt lat="43.43507104004404" lon="12.243737378838722"><ele>276.0</ele><time>2026-04-19T10:21:44.999Z</time></trkpt><trkpt lat="43.43475215324587" lon="12.243802495846731"><ele>273.5</ele><time>2026-04-19T10:21:45.999Z</time></trkpt><trkpt lat="43.43442875595267" lon="12.243863476373066"><ele>271.0</ele><time>2026-04-19T10:21:46.999Z</time></trkpt><trkpt lat="43.43409978384239" lon="12.243897590959838"><ele>271.0</ele><time>2026-04-19T10:21:47.999Z</time></trkpt><trkpt lat="43.433793685595994" lon="12.24399065620151"><ele>271.0</ele><time>2026-04-19T10:21:48.999Z</time></trkpt><trkpt lat="43.43347469431563" lon="12.244057375951911"><ele>271.0</ele><time>2026-04-19T10:21:49.999Z</time></trkpt><trkpt lat="43.43316719026944" lon="12.244105885525327"><ele>271.0</ele><time>2026-04-19T10:21:50.999Z</time></trkpt><trkpt lat="43.43283570271681" lon="12.244165567019731"><ele>271.5</ele><time>2026-04-19T10:21:51.999Z</time></trkpt><trkpt lat="43.43251175580235" lon="12.244229980877845"><ele>272.0</ele><time>2026-04-19T10:21:52.999Z</time></trkpt><trkpt lat="43.43218503972127" lon="12.244285551811547"><ele>273.0</ele><time>2026-04-19T10:21:53.999Z</time></trkpt><trkpt lat="43.43186638882185" lon="12.24433840122487"><ele>274.0</ele><time>2026-04-19T10:21:54.999Z</time></trkpt><trkpt lat="43.43154541950208" lon="12.244392911456282"><ele>273.0</ele><time>2026-04-19T10:21:55.999Z</time></trkpt><trkpt lat="43.4312234875897" lon="12.244447770858196"><ele>272.0</ele><time>2026-04-19T10:21:56.999Z</time></trkpt><trkpt lat="43.43089996292579" lon="12.244511305697275"><ele>272.0</ele><time>2026-04-19T10:21:58Z</time></trkpt><trkpt lat="43.430576820592954" lon="12.244573179075159"><ele>272.0</ele><time>2026-04-19T10:21:59Z</time></trkpt><trkpt lat="43.43025283529931" lon="12.2446097690029"><ele>272.5</ele><time>2026-04-19T10:22:00Z</time></trkpt><trkpt lat="43.42993287427337" lon="12.24466198603821"><ele>273.0</ele><time>2026-04-19T10:22:01Z</time></trkpt><trkpt lat="43.42961313151421" lon="12.244707520709103"><ele>273.5</ele><time>2026-04-19T10:22:02Z</time></trkpt><trkpt lat="43.42929905866728" lon="12.244764655807924"><ele>274.0</ele><time>2026-04-19T10:22:03Z</time></trkpt><trkpt lat="43.42897855055188" lon="12.244828407842213"><ele>276.5</ele><time>2026-04-19T10:22:04Z</time></trkpt><trkpt lat="43.42865863632287" lon="12.244878903682613"><ele>279.0</ele><time>2026-04-19T10:22:05Z</time></trkpt><trkpt lat="43.42833534784519" lon="12.244947331971515"><ele>279.0</ele><time>2026-04-19T10:22:06Z</time></trkpt><trkpt lat="43.42801480491228" lon="12.245012011756497"><ele>279.0</ele><time>2026-04-19T10:22:07Z</time></trkpt><trkpt lat="43.42769516139612" lon="12.245071933462588"><ele>277.5</ele><time>2026-04-19T10:22:08Z</time></trkpt><trkpt lat="43.42738236904672" lon="12.245138414718634"><ele>276.0</ele><time>2026-04-19T10:22:09Z</time></trkpt><trkpt lat="43.42706383380503" lon="12.245214636300672"><ele>276.0</ele><time>2026-04-19T10:22:10Z</time></trkpt><trkpt lat="43.42675331594677" lon="12.245276780617704"><ele>276.0</ele><time>2026-04-19T10:22:11Z</time></trkpt><trkpt lat="43.426420132898784" lon="12.24534619771497"><ele>276.5</ele><time>2026-04-19T10:22:12Z</time></trkpt><trkpt lat="43.426103075292176" lon="12.245392341397343"><ele>277.0</ele><time>2026-04-19T10:22:13Z</time></trkpt><trkpt lat="43.42578593658736" lon="12.245448011159294"><ele>275.5</ele><time>2026-04-19T10:22:14Z</time></trkpt><trkpt lat="43.42546615110353" lon="12.245509722530668"><ele>274.0</ele><time>2026-04-19T10:22:15Z</time></trkpt><trkpt lat="43.42514417469594" lon="12.245556665529532"><ele>274.0</ele><time>2026-04-19T10:22:16Z</time></trkpt><trkpt lat="43.42483174262059" lon="12.245619625715188"><ele>274.0</ele><time>2026-04-19T10:22:17Z</time></trkpt><trkpt lat="43.424500800294396" lon="12.245697582656193"><ele>275.0</ele><time>2026-04-19T10:22:18Z</time></trkpt><trkpt lat="43.42417171738729" lon="12.245745210349119"><ele>276.0</ele><time>2026-04-19T10:22:19Z</time></trkpt><trkpt lat="43.42384658446563" lon="12.245805199436356"><ele>275.5</ele><time>2026-04-19T10:22:20Z</time></trkpt><trkpt lat="43.423524132503154" lon="12.245871026259984"><ele>275.0</ele><time>2026-04-19T10:22:21Z</time></trkpt><trkpt lat="43.42320085133044" lon="12.2459365357742"><ele>274.5</ele><time>2026-04-19T10:22:22Z</time></trkpt><trkpt lat="43.42287768647558" lon="12.245994158528708"><ele>274.0</ele><time>2026-04-19T10:22:23Z</time></trkpt><trkpt lat="43.4225554540383" lon="12.246056411541081"><ele>274.0</ele><time>2026-04-19T10:22:24Z</time></trkpt><trkpt lat="43.4222333595465" lon="12.24611561799976"><ele>274.0</ele><time>2026-04-19T10:22:25Z</time></trkpt><trkpt lat="43.421914233455354" lon="12.246170989138712"><ele>275.0</ele><time>2026-04-19T10:22:26Z</time></trkpt><trkpt lat="43.421594762264185" lon="12.246228372711716"><ele>276.0</ele><time>2026-04-19T10:22:27Z</time></trkpt><trkpt lat="43.421276916532676" lon="12.246289612189566"><ele>276.5</ele><time>2026-04-19T10:22:28Z</time></trkpt><trkpt lat="43.420960723801144" lon="12.246348016039862"><ele>277.0</ele><time>2026-04-19T10:22:29Z</time></trkpt><trkpt lat="43.420648107292614" lon="12.246408692312478"><ele>276.0</ele><time>2026-04-19T10:22:30Z</time></trkpt><trkpt lat="43.42033473359149" lon="12.246473137934945"><ele>275.0</ele><time>2026-04-19T10:22:31Z</time></trkpt><trkpt lat="43.420013472435826" lon="12.246532026980868"><ele>275.0</ele><time>2026-04-19T10:22:32Z</time></trkpt><trkpt lat="43.4196986737907" lon="12.246592517446992"><ele>275.0</ele><time>2026-04-19T10:22:33Z</time></trkpt><trkpt lat="43.41938290197889" lon="12.24665507101115"><ele>276.0</ele><time>2026-04-19T10:22:34Z</time></trkpt><trkpt lat="43.41906580417687" lon="12.246709245854042"><ele>277.0</ele><time>2026-04-19T10:22:35Z</time></trkpt><trkpt lat="43.41874984328865" lon="12.2467670057571"><ele>278.0</ele><time>2026-04-19T10:22:36Z</time></trkpt><trkpt lat="43.418433685714334" lon="12.24683124119736"><ele>279.0</ele><time>2026-04-19T10:22:37Z</time></trkpt><trkpt lat="43.418115858097565" lon="12.246895254123729"><ele>278.0</ele><time>2026-04-19T10:22:38Z</time></trkpt><trkpt lat="43.41779326675125" lon="12.246953934434845"><ele>277.0</ele><time>2026-04-19T10:22:39Z</time></trkpt><trkpt lat="43.4174706290187" lon="12.247016198811226"><ele>274.5</ele><time>2026-04-19T10:22:40Z</time></trkpt><trkpt lat="43.4171479261816" lon="12.247079941108336"><ele>272.0</ele><time>2026-04-19T10:22:41Z</time></trkpt><trkpt lat="43.41682731964681" lon="12.247137771506969"><ele>272.0</ele><time>2026-04-19T10:22:42Z</time></trkpt><trkpt lat="43.416504855637484" lon="12.24719704893279"><ele>272.0</ele><time>2026-04-19T10:22:43Z</time></trkpt><trkpt lat="43.41618120374275" lon="12.247255574325074"><ele>272.5</ele><time>2026-04-19T10:22:44Z</time></trkpt><trkpt lat="43.415859990082126" lon="12.247317279109085"><ele>273.0</ele><time>2026-04-19T10:22:45Z</time></trkpt><trkpt lat="43.41554534087175" lon="12.24737836778069"><ele>272.5</ele><time>2026-04-19T10:22:46Z</time></trkpt><trkpt lat="43.41522701454813" lon="12.247436711027644"><ele>272.0</ele><time>2026-04-19T10:22:47Z</time></trkpt><trkpt lat="43.414909125826114" lon="12.247497510282031"><ele>269.5</ele><time>2026-04-19T10:22:48Z</time></trkpt><trkpt lat="43.41459167797266" lon="12.247561114304304"><ele>267.0</ele><time>2026-04-19T10:22:49Z</time></trkpt><trkpt lat="43.4142706571398" lon="12.247625889362832"><ele>267.0</ele><time>2026-04-19T10:22:50Z</time></trkpt><trkpt lat="43.41394880787338" lon="12.247684364273088"><ele>267.0</ele><time>2026-04-19T10:22:51Z</time></trkpt><trkpt lat="43.41362715930968" lon="12.247739839198362"><ele>266.5</ele><time>2026-04-19T10:22:52Z</time></trkpt><trkpt lat="43.41330353365583" lon="12.247803120554355"><ele>266.0</ele><time>2026-04-19T10:22:53Z</time></trkpt><trkpt lat="43.412979062476815" lon="12.247863188991976"><ele>266.0</ele><time>2026-04-19T10:22:54Z</time></trkpt><trkpt lat="43.412657483899736" lon="12.247924988200047"><ele>266.0</ele><time>2026-04-19T10:22:55Z</time></trkpt><trkpt lat="43.412340212950376" lon="12.247990205770465"><ele>266.0</ele><time>2026-04-19T10:22:56Z</time></trkpt><trkpt lat="43.41202383088378" lon="12.24805571179125"><ele>266.0</ele><time>2026-04-19T10:22:57Z</time></trkpt><trkpt lat="43.411709912643495" lon="12.248113055257651"><ele>266.0</ele><time>2026-04-19T10:22:58Z</time></trkpt><trkpt lat="43.41139600875666" lon="12.248169303475736"><ele>266.0</ele><time>2026-04-19T10:22:59Z</time></trkpt><trkpt lat="43.41108523712473" lon="12.24822611164333"><ele>266.0</ele><time>2026-04-19T10:23:00Z</time></trkpt><trkpt lat="43.41077429978904" lon="12.248287534491535"><ele>266.0</ele><time>2026-04-19T10:23:01Z</time></trkpt><trkpt lat="43.410464726173274" lon="12.248344070608473"><ele>266.0</ele><time>2026-04-19T10:23:02Z</time></trkpt><trkpt lat="43.410152830781726" lon="12.248401574048977"><ele>266.0</ele><time>2026-04-19T10:23:03Z</time></trkpt><trkpt lat="43.40984264007009" lon="12.248461692182186"><ele>268.0</ele><time>2026-04-19T10:23:04Z</time></trkpt><trkpt lat="43.409533345867715" lon="12.248525738684048"><ele>270.0</ele><time>2026-04-19T10:23:05Z</time></trkpt><trkpt lat="43.40921970680703" lon="12.248589154962266"><ele>270.0</ele><time>2026-04-19T10:23:06Z</time></trkpt><trkpt lat="43.408900703388326" lon="12.248650306833483"><ele>270.0</ele><time>2026-04-19T10:23:07Z</time></trkpt><trkpt lat="43.40857266465341" lon="12.248709494635689"><ele>269.0</ele><time>2026-04-19T10:23:08Z</time></trkpt><trkpt lat="43.40824324687194" lon="12.248772642174622"><ele>268.0</ele><time>2026-04-19T10:23:09Z</time></trkpt><trkpt lat="43.40791062897133" lon="12.248834968997642"><ele>268.0</ele><time>2026-04-19T10:23:10Z</time></trkpt><trkpt lat="43.40757899835962" lon="12.248888870923563"><ele>268.0</ele><time>2026-04-19T10:23:11Z</time></trkpt><trkpt lat="43.407251650143905" lon="12.248927466953827"><ele>270.5</ele><time>2026-04-19T10:23:12Z</time></trkpt><trkpt lat="43.40692442041976" lon="12.248958528263422"><ele>273.0</ele><time>2026-04-19T10:23:13Z</time></trkpt><trkpt lat="43.406601782622396" lon="12.248979801755238"><ele>271.0</ele><time>2026-04-19T10:23:14Z</time></trkpt><trkpt lat="43.40627849576547" lon="12.248997758445675"><ele>269.0</ele><time>2026-04-19T10:23:15Z</time></trkpt><trkpt lat="43.40594755125305" lon="12.249017814791225"><ele>269.0</ele><time>2026-04-19T10:23:16Z</time></trkpt><trkpt lat="43.40562337469814" lon="12.249038881826825"><ele>269.0</ele><time>2026-04-19T10:23:17Z</time></trkpt><trkpt lat="43.4052949224025" lon="12.24906150674114"><ele>266.5</ele><time>2026-04-19T10:23:18Z</time></trkpt><trkpt lat="43.40496329120973" lon="12.24908357912384"><ele>264.0</ele><time>2026-04-19T10:23:19Z</time></trkpt><trkpt lat="43.404632328236396" lon="12.249104819749512"><ele>263.5</ele><time>2026-04-19T10:23:20Z</time></trkpt><trkpt lat="43.40429935346525" lon="12.249126052112526"><ele>263.0</ele><time>2026-04-19T10:23:21Z</time></trkpt><trkpt lat="43.403961740002345" lon="12.249147160779525"><ele>262.5</ele><time>2026-04-19T10:23:22Z</time></trkpt><trkpt lat="43.40361877496612" lon="12.249167367248594"><ele>262.0</ele><time>2026-04-19T10:23:23Z</time></trkpt><trkpt lat="43.40326746176126" lon="12.249189795689997"><ele>263.5</ele><time>2026-04-19T10:23:24Z</time></trkpt><trkpt lat="43.40291719888967" lon="12.24921016854657"><ele>265.0</ele><time>2026-04-19T10:23:25Z</time></trkpt><trkpt lat="43.40256522033226" lon="12.249230023127266"><ele>265.0</ele><time>2026-04-19T10:23:26Z</time></trkpt><trkpt lat="43.402215712214904" lon="12.249250177756316"><ele>265.0</ele><time>2026-04-19T10:23:27Z</time></trkpt><trkpt lat="43.401860181925244" lon="12.249276721303508"><ele>264.0</ele><time>2026-04-19T10:23:28Z</time></trkpt><trkpt lat="43.40150501581972" lon="12.249298437792458"><ele>263.0</ele><time>2026-04-19T10:23:29Z</time></trkpt><trkpt lat="43.40114836942323" lon="12.249319726686391"><ele>263.0</ele><time>2026-04-19T10:23:30Z</time></trkpt><trkpt lat="43.40079061197767" lon="12.24934405987327"><ele>263.0</ele><time>2026-04-19T10:23:31Z</time></trkpt><trkpt lat="43.400433673778146" lon="12.249366207831816"><ele>263.0</ele><time>2026-04-19T10:23:32Z</time></trkpt><trkpt lat="43.40008049123145" lon="12.249389409556388"><ele>263.0</ele><time>2026-04-19T10:23:33Z</time></trkpt><trkpt lat="43.399729997317834" lon="12.249410514968808"><ele>262.0</ele><time>2026-04-19T10:23:34Z</time></trkpt><trkpt lat="43.39938286986106" lon="12.24943165021578"><ele>261.0</ele><time>2026-04-19T10:23:35Z</time></trkpt><trkpt lat="43.39903033012657" lon="12.24945236674397"><ele>261.0</ele><time>2026-04-19T10:23:36Z</time></trkpt><trkpt lat="43.39867227771602" lon="12.249475111034549"><ele>261.0</ele><time>2026-04-19T10:23:37Z</time></trkpt><trkpt lat="43.39831289014657" lon="12.249498694586714"><ele>261.0</ele><time>2026-04-19T10:23:38Z</time></trkpt><trkpt lat="43.397948079908495" lon="12.249524984046241"><ele>261.0</ele><time>2026-04-19T10:23:38.999Z</time></trkpt><trkpt lat="43.3975558167914" lon="12.249549266630966"><ele>260.5</ele><time>2026-04-19T10:23:39.999Z</time></trkpt><trkpt lat="43.3971317117729" lon="12.249579874542892"><ele>260.0</ele><time>2026-04-19T10:23:40.999Z</time></trkpt><trkpt lat="43.396680938818804" lon="12.249608071898932"><ele>260.0</ele><time>2026-04-19T10:23:41.999Z</time></trkpt><trkpt lat="43.39620895665387" lon="12.24963728225453"><ele>260.0</ele><time>2026-04-19T10:23:42.999Z</time></trkpt><trkpt lat="43.39571383067292" lon="12.249669969403508"><ele>261.0</ele><time>2026-04-19T10:23:43.999Z</time></trkpt><trkpt lat="43.395203406088" lon="12.249699739774664"><ele>261.0</ele><time>2026-04-19T10:23:44.999Z</time></trkpt><trkpt lat="43.39468213046617" lon="12.249729031056173"><ele>264.0</ele><time>2026-04-19T10:23:45.999Z</time></trkpt><trkpt lat="43.394143079303305" lon="12.249762421566114"><ele>265.0</ele><time>2026-04-19T10:23:46.999Z</time></trkpt><trkpt lat="43.39359467312464" lon="12.249790359764894"><ele>265.0</ele><time>2026-04-19T10:23:47.999Z</time></trkpt><trkpt lat="43.393048235771644" lon="12.249807136726492"><ele>266.0</ele><time>2026-04-19T10:23:48.999Z</time></trkpt><trkpt lat="43.39248038710756" lon="12.249861867731742"><ele>267.0</ele><time>2026-04-19T10:23:49.999Z</time></trkpt><trkpt lat="43.39190909205291" lon="12.249905878279264"><ele>266.0</ele><time>2026-04-19T10:23:50.999Z</time></trkpt><trkpt lat="43.39133390840196" lon="12.249944893137727"><ele>266.0</ele><time>2026-04-19T10:23:51.999Z</time></trkpt><trkpt lat="43.39075063764394" lon="12.24998741136409"><ele>265.0</ele><time>2026-04-19T10:23:52.999Z</time></trkpt><trkpt lat="43.39017113176052" lon="12.25002327816619"><ele>263.0</ele><time>2026-04-19T10:23:53.999Z</time></trkpt><trkpt lat="43.389583138310606" lon="12.250057266178564"><ele>263.0</ele><time>2026-04-19T10:23:54.999Z</time></trkpt><trkpt lat="43.38899452597548" lon="12.250088029442322"><ele>262.0</ele><time>2026-04-19T10:23:55.999Z</time></trkpt><trkpt lat="43.38841088839372" lon="12.25012044393607"><ele>259.0</ele><time>2026-04-19T10:23:56.999Z</time></trkpt><trkpt lat="43.387898030720365" lon="12.250143027740126"><ele>259.0</ele><time>2026-04-19T10:23:57.999Z</time></trkpt><trkpt lat="43.387430955500726" lon="12.250165602389746"><ele>259.5</ele><time>2026-04-19T10:23:58.999Z</time></trkpt><trkpt lat="43.38701042967555" lon="12.250190398610014"><ele>260.0</ele><time>2026-04-19T10:23:59.999Z</time></trkpt><trkpt lat="43.38660981679797" lon="12.250220884679932"><ele>261.0</ele><time>2026-04-19T10:24:00.999Z</time></trkpt><trkpt lat="43.38624781141723" lon="12.250235136141827"><ele>262.0</ele><time>2026-04-19T10:24:01.999Z</time></trkpt><trkpt lat="43.38588936131793" lon="12.250256126719247"><ele>262.0</ele><time>2026-04-19T10:24:02.999Z</time></trkpt><trkpt lat="43.385521809185775" lon="12.250280213940936"><ele>262.0</ele><time>2026-04-19T10:24:04Z</time></trkpt><trkpt lat="43.38514341167229" lon="12.25030714178499"><ele>262.5</ele><time>2026-04-19T10:24:05Z</time></trkpt><trkpt lat="43.38476848936119" lon="12.250350233574158"><ele>263.0</ele><time>2026-04-19T10:24:06Z</time></trkpt><trkpt lat="43.384396820586545" lon="12.250410129016565"><ele>263.0</ele><time>2026-04-19T10:24:07Z</time></trkpt><trkpt lat="43.38402293707871" lon="12.250484567288456"><ele>263.0</ele><time>2026-04-19T10:24:08Z</time></trkpt><trkpt lat="43.383655075126974" lon="12.250578240217934"><ele>263.0</ele><time>2026-04-19T10:24:09Z</time></trkpt><trkpt lat="43.383292381977945" lon="12.250679787887883"><ele>263.0</ele><time>2026-04-19T10:24:10Z</time></trkpt><trkpt lat="43.38295703927865" lon="12.25078602390956"><ele>263.5</ele><time>2026-04-19T10:24:11Z</time></trkpt><trkpt lat="43.38262798747035" lon="12.250904910951387"><ele>264.0</ele><time>2026-04-19T10:24:12Z</time></trkpt><trkpt lat="43.38228411690825" lon="12.251050580766185"><ele>264.0</ele><time>2026-04-19T10:24:13Z</time></trkpt><trkpt lat="43.381919234135076" lon="12.251230238272871"><ele>264.0</ele><time>2026-04-19T10:24:14Z</time></trkpt><trkpt lat="43.381536738899904" lon="12.251421783781648"><ele>264.0</ele><time>2026-04-19T10:24:15Z</time></trkpt><trkpt lat="43.381161095019564" lon="12.251617412491923"><ele>264.0</ele><time>2026-04-19T10:24:16Z</time></trkpt><trkpt lat="43.380794603378156" lon="12.251824508550937"><ele>264.0</ele><time>2026-04-19T10:24:17Z</time></trkpt><trkpt lat="43.38043960871059" lon="12.252045847949432"><ele>264.0</ele><time>2026-04-19T10:24:18Z</time></trkpt><trkpt lat="43.380090610770274" lon="12.252281604893943"><ele>264.5</ele><time>2026-04-19T10:24:19Z</time></trkpt><trkpt lat="43.379741759483544" lon="12.252534761959735"><ele>265.0</ele><time>2026-04-19T10:24:20Z</time></trkpt><trkpt lat="43.37939546539919" lon="12.252796021996343"><ele>265.0</ele><time>2026-04-19T10:24:21Z</time></trkpt><trkpt lat="43.37904712013075" lon="12.253060294773446"><ele>265.0</ele><time>2026-04-19T10:24:22Z</time></trkpt><trkpt lat="43.37869808307281" lon="12.253324156817637"><ele>266.5</ele><time>2026-04-19T10:24:23Z</time></trkpt><trkpt lat="43.37835676702532" lon="12.253584709252722"><ele>268.0</ele><time>2026-04-19T10:24:24Z</time></trkpt><trkpt lat="43.378020060231016" lon="12.253851497825922"><ele>271.0</ele><time>2026-04-19T10:24:25Z</time></trkpt><trkpt lat="43.37768466528732" lon="12.254113986121245"><ele>274.0</ele><time>2026-04-19T10:24:26Z</time></trkpt><trkpt lat="43.37735556676534" lon="12.254372932621465"><ele>273.5</ele><time>2026-04-19T10:24:27Z</time></trkpt><trkpt lat="43.37703113791699" lon="12.25462702235038"><ele>273.0</ele><time>2026-04-19T10:24:28Z</time></trkpt><trkpt lat="43.37671725927767" lon="12.254876649664004"><ele>273.0</ele><time>2026-04-19T10:24:29Z</time></trkpt><trkpt lat="43.376434286945134" lon="12.25509985209882"><ele>273.0</ele><time>2026-04-19T10:24:30Z</time></trkpt><trkpt lat="43.37614176770903" lon="12.255333823687753"><ele>273.5</ele><time>2026-04-19T10:24:31Z</time></trkpt><trkpt lat="43.37585137281835" lon="12.255560275967765"><ele>274.0</ele><time>2026-04-19T10:24:32Z</time></trkpt><trkpt lat="43.37557888379849" lon="12.25577678461809"><ele>275.0</ele><time>2026-04-19T10:24:33Z</time></trkpt><trkpt lat="43.3753251097465" lon="12.255972840242974"><ele>276.0</ele><time>2026-04-19T10:24:34Z</time></trkpt><trkpt lat="43.375069947651276" lon="12.256177460661355"><ele>276.0</ele><time>2026-04-19T10:24:35Z</time></trkpt><trkpt lat="43.3748153021247" lon="12.256377165784363"><ele>276.0</ele><time>2026-04-19T10:24:36Z</time></trkpt><trkpt lat="43.37456179164485" lon="12.256577690388262"><ele>277.0</ele><time>2026-04-19T10:24:37Z</time></trkpt><trkpt lat="43.37430733636856" lon="12.256785260776905"><ele>278.0</ele><time>2026-04-19T10:24:38Z</time></trkpt><trkpt lat="43.37405035468511" lon="12.256984824384311"><ele>278.0</ele><time>2026-04-19T10:24:39Z</time></trkpt><trkpt lat="43.37379503362576" lon="12.257181562647194"><ele>278.0</ele><time>2026-04-19T10:24:40Z</time></trkpt><trkpt lat="43.37354006034029" lon="12.257382325326558"><ele>277.5</ele><time>2026-04-19T10:24:41Z</time></trkpt><trkpt lat="43.373299371845015" lon="12.257574888180836"><ele>277.0</ele><time>2026-04-19T10:24:42Z</time></trkpt><trkpt lat="43.37307387049083" lon="12.257753020455366"><ele>275.5</ele><time>2026-04-19T10:24:43Z</time></trkpt><trkpt lat="43.37284112542779" lon="12.257939431682221"><ele>274.0</ele><time>2026-04-19T10:24:44Z</time></trkpt><trkpt lat="43.37260447368541" lon="12.258125676507857"><ele>274.0</ele><time>2026-04-19T10:24:45Z</time></trkpt><trkpt lat="43.372362474193174" lon="12.258317543131582"><ele>274.0</ele><time>2026-04-19T10:24:46Z</time></trkpt><trkpt lat="43.372118846637754" lon="12.258509865691876"><ele>273.0</ele><time>2026-04-19T10:24:47Z</time></trkpt><trkpt lat="43.37187029294321" lon="12.258705593410426"><ele>272.0</ele><time>2026-04-19T10:24:48Z</time></trkpt><trkpt lat="43.37162084353886" lon="12.258901571914633"><ele>271.5</ele><time>2026-04-19T10:24:49Z</time></trkpt><trkpt lat="43.371372194372825" lon="12.259091013446527"><ele>271.0</ele><time>2026-04-19T10:24:50Z</time></trkpt><trkpt lat="43.3711236456587" lon="12.25928643009829"><ele>272.0</ele><time>2026-04-19T10:24:51Z</time></trkpt><trkpt lat="43.37088195175162" lon="12.259477146911994"><ele>273.0</ele><time>2026-04-19T10:24:52Z</time></trkpt><trkpt lat="43.370652582508136" lon="12.259657212933549"><ele>280.0</ele><time>2026-04-19T10:24:53Z</time></trkpt><trkpt lat="43.370417622706945" lon="12.259841306706155"><ele>287.0</ele><time>2026-04-19T10:24:54Z</time></trkpt><trkpt lat="43.370183579289865" lon="12.260026241508143"><ele>287.0</ele><time>2026-04-19T10:24:55Z</time></trkpt><trkpt lat="43.36994926072332" lon="12.260209646413948"><ele>287.0</ele><time>2026-04-19T10:24:56Z</time></trkpt><trkpt lat="43.36971625397323" lon="12.260391369331842"><ele>286.5</ele><time>2026-04-19T10:24:57Z</time></trkpt><trkpt lat="43.369477898464936" lon="12.260581134911693"><ele>286.0</ele><time>2026-04-19T10:24:58Z</time></trkpt><trkpt lat="43.369240719652126" lon="12.260771851739623"><ele>285.5</ele><time>2026-04-19T10:24:59Z</time></trkpt><trkpt lat="43.369005991481444" lon="12.260970777667511"><ele>285.0</ele><time>2026-04-19T10:25:00Z</time></trkpt><trkpt lat="43.36876847038595" lon="12.261174906999639"><ele>283.5</ele><time>2026-04-19T10:25:01Z</time></trkpt><trkpt lat="43.36853534015965" lon="12.261387067916887"><ele>282.0</ele><time>2026-04-19T10:25:02Z</time></trkpt><trkpt lat="43.36832561684029" lon="12.261589292130436"><ele>282.0</ele><time>2026-04-19T10:25:03Z</time></trkpt><trkpt lat="43.36813038382529" lon="12.261786449654858"><ele>282.0</ele><time>2026-04-19T10:25:04Z</time></trkpt><trkpt lat="43.36794543907736" lon="12.261977461417276"><ele>280.0</ele><time>2026-04-19T10:25:05Z</time></trkpt><trkpt lat="43.3677566724061" lon="12.26217497982901"><ele>278.0</ele><time>2026-04-19T10:25:06Z</time></trkpt><trkpt lat="43.3675643268593" lon="12.262382186710843"><ele>278.0</ele><time>2026-04-19T10:25:07Z</time></trkpt><trkpt lat="43.36737320423808" lon="12.262606382260131"><ele>278.0</ele><time>2026-04-19T10:25:08Z</time></trkpt><trkpt lat="43.36718244438316" lon="12.262832673304155"><ele>278.0</ele><time>2026-04-19T10:25:09Z</time></trkpt><trkpt lat="43.36699717039766" lon="12.263058743056686"><ele>278.0</ele><time>2026-04-19T10:25:10Z</time></trkpt><trkpt lat="43.36681515983109" lon="12.263294261434933"><ele>278.0</ele><time>2026-04-19T10:25:11Z</time></trkpt><trkpt lat="43.36663240528378" lon="12.263537314391188"><ele>278.0</ele><time>2026-04-19T10:25:12Z</time></trkpt><trkpt lat="43.36645039820385" lon="12.263785166824464"><ele>277.5</ele><time>2026-04-19T10:25:13Z</time></trkpt><trkpt lat="43.366271363430634" lon="12.2640399367234"><ele>277.0</ele><time>2026-04-19T10:25:14Z</time></trkpt><trkpt lat="43.36609659124564" lon="12.264304061294336"><ele>277.0</ele><time>2026-04-19T10:25:15Z</time></trkpt><trkpt lat="43.36593456063114" lon="12.26455836330268"><ele>277.0</ele><time>2026-04-19T10:25:16Z</time></trkpt><trkpt lat="43.36577570209521" lon="12.264809122261184"><ele>277.0</ele><time>2026-04-19T10:25:17Z</time></trkpt><trkpt lat="43.365618137069774" lon="12.265068252472792"><ele>277.0</ele><time>2026-04-19T10:25:18Z</time></trkpt><trkpt lat="43.365464283588345" lon="12.26533870593482"><ele>278.0</ele><time>2026-04-19T10:25:19Z</time></trkpt><trkpt lat="43.365309131656076" lon="12.265612735046819"><ele>279.0</ele><time>2026-04-19T10:25:20Z</time></trkpt><trkpt lat="43.36515935130886" lon="12.265889919341149"><ele>279.0</ele><time>2026-04-19T10:25:21Z</time></trkpt><trkpt lat="43.36502368364378" lon="12.266155504921256"><ele>279.0</ele><time>2026-04-19T10:25:22Z</time></trkpt><trkpt lat="43.36488985814232" lon="12.266423516153775"><ele>280.5</ele><time>2026-04-19T10:25:23Z</time></trkpt><trkpt lat="43.364756186789975" lon="12.266695013151532"><ele>282.0</ele><time>2026-04-19T10:25:24Z</time></trkpt><trkpt lat="43.364624043107156" lon="12.266979170981532"><ele>278.0</ele><time>2026-04-19T10:25:25Z</time></trkpt><trkpt lat="43.36448951330502" lon="12.267280725472398"><ele>274.0</ele><time>2026-04-19T10:25:26Z</time></trkpt><trkpt lat="43.364354706928985" lon="12.26758920075505"><ele>274.0</ele><time>2026-04-19T10:25:27Z</time></trkpt><trkpt lat="43.3642208762502" lon="12.267896920663194"><ele>274.0</ele><time>2026-04-19T10:25:28Z</time></trkpt><trkpt lat="43.364090331516195" lon="12.268214516697"><ele>273.5</ele><time>2026-04-19T10:25:29Z</time></trkpt><trkpt lat="43.36395286182" lon="12.268533480980127"><ele>273.0</ele><time>2026-04-19T10:25:30Z</time></trkpt><trkpt lat="43.363807580075985" lon="12.268870698541361"><ele>276.0</ele><time>2026-04-19T10:25:31Z</time></trkpt><trkpt lat="43.36365549048963" lon="12.269215879743019"><ele>279.0</ele><time>2026-04-19T10:25:32Z</time></trkpt><trkpt lat="43.36349597283053" lon="12.269558693471314"><ele>276.0</ele><time>2026-04-19T10:25:33Z</time></trkpt><trkpt lat="43.363335999036714" lon="12.269908386566327"><ele>273.0</ele><time>2026-04-19T10:25:34Z</time></trkpt><trkpt lat="43.36317518619977" lon="12.270261551009023"><ele>272.5</ele><time>2026-04-19T10:25:35Z</time></trkpt><trkpt lat="43.36301263268006" lon="12.270602318273792"><ele>272.0</ele><time>2026-04-19T10:25:36Z</time></trkpt><trkpt lat="43.36285927379657" lon="12.27092169431175"><ele>272.0</ele><time>2026-04-19T10:25:37Z</time></trkpt><trkpt lat="43.362718375051294" lon="12.27123263243165"><ele>272.0</ele><time>2026-04-19T10:25:38Z</time></trkpt><trkpt lat="43.36257893009757" lon="12.271541599689558"><ele>269.5</ele><time>2026-04-19T10:25:39Z</time></trkpt><trkpt lat="43.362441128444836" lon="12.271850086240828"><ele>267.0</ele><time>2026-04-19T10:25:40Z</time></trkpt><trkpt lat="43.36230405500812" lon="12.272157131387614"><ele>265.0</ele><time>2026-04-19T10:25:41Z</time></trkpt><trkpt lat="43.362166528267984" lon="12.272465229511726"><ele>263.0</ele><time>2026-04-19T10:25:42Z</time></trkpt><trkpt lat="43.362025724719125" lon="12.272773130919518"><ele>263.0</ele><time>2026-04-19T10:25:43Z</time></trkpt><trkpt lat="43.361884918681575" lon="12.273086958544738"><ele>263.0</ele><time>2026-04-19T10:25:43.999Z</time></trkpt><trkpt lat="43.361740604810215" lon="12.273406256164009"><ele>266.0</ele><time>2026-04-19T10:25:44.999Z</time></trkpt><trkpt lat="43.361589767753834" lon="12.273723994873084"><ele>269.0</ele><time>2026-04-19T10:25:45.999Z</time></trkpt><trkpt lat="43.36143139098468" lon="12.274037771924222"><ele>268.0</ele><time>2026-04-19T10:25:46.999Z</time></trkpt><trkpt lat="43.36126687837871" lon="12.274348582261204"><ele>267.0</ele><time>2026-04-19T10:25:47.999Z</time></trkpt><trkpt lat="43.36109757716019" lon="12.274656678567675"><ele>267.0</ele><time>2026-04-19T10:25:48.999Z</time></trkpt><trkpt lat="43.3609217670627" lon="12.274960677497273"><ele>267.0</ele><time>2026-04-19T10:25:49.999Z</time></trkpt><trkpt lat="43.36074145591541" lon="12.275258640018446"><ele>267.0</ele><time>2026-04-19T10:25:50.999Z</time></trkpt><trkpt lat="43.3605589012028" lon="12.275552882364043"><ele>267.0</ele><time>2026-04-19T10:25:51.999Z</time></trkpt><trkpt lat="43.3603723843125" lon="12.275840798953718"><ele>268.5</ele><time>2026-04-19T10:25:52.999Z</time></trkpt><trkpt lat="43.3601820602401" lon="12.276120582882124"><ele>270.0</ele><time>2026-04-19T10:25:53.999Z</time></trkpt><trkpt lat="43.35999152017247" lon="12.276390578182138"><ele>270.0</ele><time>2026-04-19T10:25:54.999Z</time></trkpt><trkpt lat="43.35979476469604" lon="12.276649528277513"><ele>270.0</ele><time>2026-04-19T10:25:55.999Z</time></trkpt><trkpt lat="43.35959635033949" lon="12.276906477226525"><ele>270.0</ele><time>2026-04-19T10:25:56.999Z</time></trkpt><trkpt lat="43.359395649560504" lon="12.277157850108475"><ele>270.0</ele><time>2026-04-19T10:25:57.999Z</time></trkpt><trkpt lat="43.3591908545406" lon="12.277399594798606"><ele>271.0</ele><time>2026-04-19T10:25:58.999Z</time></trkpt><trkpt lat="43.35898503793663" lon="12.27763760727314"><ele>272.0</ele><time>2026-04-19T10:25:59.999Z</time></trkpt><trkpt lat="43.358777719093446" lon="12.277872358118099"><ele>273.0</ele><time>2026-04-19T10:26:00.999Z</time></trkpt><trkpt lat="43.35856778229834" lon="12.278101898847044"><ele>274.0</ele><time>2026-04-19T10:26:01.999Z</time></trkpt><trkpt lat="43.358353100858594" lon="12.278329098793497"><ele>274.0</ele><time>2026-04-19T10:26:02.999Z</time></trkpt><trkpt lat="43.35813546001677" lon="12.27855326705371"><ele>274.0</ele><time>2026-04-19T10:26:03.999Z</time></trkpt><trkpt lat="43.357916098265335" lon="12.27878288329194"><ele>273.5</ele><time>2026-04-19T10:26:04.999Z</time></trkpt><trkpt lat="43.35769792554318" lon="12.279016399510171"><ele>273.0</ele><time>2026-04-19T10:26:05.999Z</time></trkpt><trkpt lat="43.35748080620952" lon="12.27925291138684"><ele>273.0</ele><time>2026-04-19T10:26:06.999Z</time></trkpt><trkpt lat="43.357262935678314" lon="12.279485476689828"><ele>273.0</ele><time>2026-04-19T10:26:07.999Z</time></trkpt><trkpt lat="43.357046011813786" lon="12.279720985191117"><ele>268.5</ele><time>2026-04-19T10:26:08.999Z</time></trkpt><trkpt lat="43.356829458672074" lon="12.279951650455732"><ele>264.0</ele><time>2026-04-19T10:26:10Z</time></trkpt><trkpt lat="43.35661207454838" lon="12.280184261135625"><ele>264.0</ele><time>2026-04-19T10:26:11Z</time></trkpt><trkpt lat="43.35639699933297" lon="12.280407419241152"><ele>264.0</ele><time>2026-04-19T10:26:12Z</time></trkpt><trkpt lat="43.356190051472915" lon="12.280617839313287"><ele>261.5</ele><time>2026-04-19T10:26:13Z</time></trkpt><trkpt lat="43.355983064191705" lon="12.280840808292107"><ele>259.0</ele><time>2026-04-19T10:26:14Z</time></trkpt><trkpt lat="43.35578000242487" lon="12.281067537218421"><ele>259.0</ele><time>2026-04-19T10:26:15Z</time></trkpt><trkpt lat="43.35557908422746" lon="12.281300542415817"><ele>259.0</ele><time>2026-04-19T10:26:16Z</time></trkpt><trkpt lat="43.355377588895834" lon="12.28154143556313"><ele>258.5</ele><time>2026-04-19T10:26:17Z</time></trkpt><trkpt lat="43.35517871174701" lon="12.281789168467007"><ele>258.0</ele><time>2026-04-19T10:26:18Z</time></trkpt><trkpt lat="43.354978613691344" lon="12.282041449644565"><ele>257.5</ele><time>2026-04-19T10:26:19Z</time></trkpt><trkpt lat="43.354779031139095" lon="12.282303855561228"><ele>257.0</ele><time>2026-04-19T10:26:20Z</time></trkpt><trkpt lat="43.35458359739108" lon="12.282575480346551"><ele>255.5</ele><time>2026-04-19T10:26:21Z</time></trkpt><trkpt lat="43.35439198045584" lon="12.282855493225563"><ele>254.0</ele><time>2026-04-19T10:26:22Z</time></trkpt><trkpt lat="43.35420139940019" lon="12.283135658275805"><ele>254.0</ele><time>2026-04-19T10:26:23Z</time></trkpt><trkpt lat="43.354009820567896" lon="12.283414365432213"><ele>254.0</ele><time>2026-04-19T10:26:24Z</time></trkpt><trkpt lat="43.353822035623025" lon="12.283693577507098"><ele>254.0</ele><time>2026-04-19T10:26:25Z</time></trkpt><trkpt lat="43.35363542348672" lon="12.28396759694228"><ele>254.0</ele><time>2026-04-19T10:26:26Z</time></trkpt><trkpt lat="43.353447603185124" lon="12.284241258054877"><ele>254.0</ele><time>2026-04-19T10:26:27Z</time></trkpt><trkpt lat="43.35326000813787" lon="12.284514572123626"><ele>254.0</ele><time>2026-04-19T10:26:28Z</time></trkpt><trkpt lat="43.35307138841345" lon="12.28478728996761"><ele>253.5</ele><time>2026-04-19T10:26:29Z</time></trkpt><trkpt lat="43.35288509020827" lon="12.285065233910874"><ele>253.0</ele><time>2026-04-19T10:26:30Z</time></trkpt><trkpt lat="43.35269961645694" lon="12.285341135600904"><ele>253.5</ele><time>2026-04-19T10:26:31Z</time></trkpt><trkpt lat="43.352514407454215" lon="12.285613996886989"><ele>254.0</ele><time>2026-04-19T10:26:32Z</time></trkpt><trkpt lat="43.35232854273945" lon="12.28588612486134"><ele>254.5</ele><time>2026-04-19T10:26:33Z</time></trkpt><trkpt lat="43.352143543006484" lon="12.286158824403948"><ele>255.0</ele><time>2026-04-19T10:26:34Z</time></trkpt><trkpt lat="43.35195697431987" lon="12.2864321126598"><ele>255.0</ele><time>2026-04-19T10:26:35Z</time></trkpt><trkpt lat="43.35176920962157" lon="12.286705335692435"><ele>255.0</ele><time>2026-04-19T10:26:36Z</time></trkpt><trkpt lat="43.351579525036236" lon="12.286980142814862"><ele>255.0</ele><time>2026-04-19T10:26:37Z</time></trkpt><trkpt lat="43.35139243308379" lon="12.287257527824549"><ele>255.0</ele><time>2026-04-19T10:26:38Z</time></trkpt><trkpt lat="43.351203507882786" lon="12.287536669198316"><ele>254.5</ele><time>2026-04-19T10:26:39Z</time></trkpt><trkpt lat="43.351014519636905" lon="12.287813164695548"><ele>254.0</ele><time>2026-04-19T10:26:40Z</time></trkpt><trkpt lat="43.3508239508333" lon="12.288090542705751"><ele>255.0</ele><time>2026-04-19T10:26:41Z</time></trkpt><trkpt lat="43.350635055249" lon="12.288368139158367"><ele>256.0</ele><time>2026-04-19T10:26:42Z</time></trkpt><trkpt lat="43.35044694198053" lon="12.28864466582211"><ele>256.0</ele><time>2026-04-19T10:26:43Z</time></trkpt><trkpt lat="43.35025974576092" lon="12.28891883688179"><ele>256.0</ele><time>2026-04-19T10:26:44Z</time></trkpt><trkpt lat="43.350071870665865" lon="12.289193333716844"><ele>257.0</ele><time>2026-04-19T10:26:45Z</time></trkpt><trkpt lat="43.34988152452629" lon="12.289471522125384"><ele>258.0</ele><time>2026-04-19T10:26:46Z</time></trkpt><trkpt lat="43.34969339256569" lon="12.28974845165355"><ele>260.5</ele><time>2026-04-19T10:26:47Z</time></trkpt><trkpt lat="43.34950487575253" lon="12.290023374567234"><ele>263.0</ele><time>2026-04-19T10:26:48Z</time></trkpt><trkpt lat="43.34931614124134" lon="12.290300256133753"><ele>263.0</ele><time>2026-04-19T10:26:49Z</time></trkpt><trkpt lat="43.34912846378871" lon="12.29057670107392"><ele>263.0</ele><time>2026-04-19T10:26:50Z</time></trkpt><trkpt lat="43.348940201190345" lon="12.290852553160663"><ele>264.0</ele><time>2026-04-19T10:26:51Z</time></trkpt><trkpt lat="43.34875108583522" lon="12.291125759556827"><ele>265.0</ele><time>2026-04-19T10:26:52Z</time></trkpt><trkpt lat="43.34856450083487" lon="12.291403184007683"><ele>263.0</ele><time>2026-04-19T10:26:53Z</time></trkpt><trkpt lat="43.34837595369511" lon="12.291684828774581"><ele>261.0</ele><time>2026-04-19T10:26:54Z</time></trkpt><trkpt lat="43.34818211930208" lon="12.291970685999026"><ele>261.0</ele><time>2026-04-19T10:26:55Z</time></trkpt><trkpt lat="43.3479866565885" lon="12.292241307050872"><ele>261.0</ele><time>2026-04-19T10:26:56Z</time></trkpt><trkpt lat="43.34779806849815" lon="12.29252266521094"><ele>260.0</ele><time>2026-04-19T10:26:57Z</time></trkpt><trkpt lat="43.347604638723844" lon="12.292808385940425"><ele>259.0</ele><time>2026-04-19T10:26:58Z</time></trkpt><trkpt lat="43.347410037596475" lon="12.293095331300266"><ele>258.5</ele><time>2026-04-19T10:26:59Z</time></trkpt><trkpt lat="43.347213040303075" lon="12.29338476868182"><ele>258.0</ele><time>2026-04-19T10:27:00Z</time></trkpt><trkpt lat="43.34701477553679" lon="12.293674386284776"><ele>256.5</ele><time>2026-04-19T10:27:01Z</time></trkpt><trkpt lat="43.346814548776" lon="12.29396755142666"><ele>255.0</ele><time>2026-04-19T10:27:02Z</time></trkpt><trkpt lat="43.346611840880534" lon="12.294262527386655"><ele>255.0</ele><time>2026-04-19T10:27:03Z</time></trkpt><trkpt lat="43.34640788942738" lon="12.294558822879216"><ele>255.0</ele><time>2026-04-19T10:27:04Z</time></trkpt><trkpt lat="43.34620433995575" lon="12.29485994665192"><ele>256.0</ele><time>2026-04-19T10:27:05Z</time></trkpt><trkpt lat="43.345998689978835" lon="12.295162086408597"><ele>257.0</ele><time>2026-04-19T10:27:06Z</time></trkpt><trkpt lat="43.34579621094488" lon="12.295461610967472"><ele>258.5</ele><time>2026-04-19T10:27:07Z</time></trkpt><trkpt lat="43.34559651194636" lon="12.295752371713009"><ele>260.0</ele><time>2026-04-19T10:27:08Z</time></trkpt><trkpt lat="43.34540991570154" lon="12.296029715013328"><ele>257.5</ele><time>2026-04-19T10:27:09Z</time></trkpt><trkpt lat="43.34522239334355" lon="12.29630984628629"><ele>255.0</ele><time>2026-04-19T10:27:10Z</time></trkpt><trkpt lat="43.345034810643966" lon="12.2965904099429"><ele>255.0</ele><time>2026-04-19T10:27:11Z</time></trkpt><trkpt lat="43.34484881849166" lon="12.296882552765512"><ele>255.0</ele><time>2026-04-19T10:27:12Z</time></trkpt><trkpt lat="43.34465365103657" lon="12.297199064566191"><ele>253.5</ele><time>2026-04-19T10:27:13Z</time></trkpt><trkpt lat="43.344448330224466" lon="12.297520873570923"><ele>252.0</ele><time>2026-04-19T10:27:14Z</time></trkpt><trkpt lat="43.34424801144896" lon="12.297842994567048"><ele>250.5</ele><time>2026-04-19T10:27:15Z</time></trkpt><trkpt lat="43.34405602429015" lon="12.298176838601579"><ele>249.0</ele><time>2026-04-19T10:27:16Z</time></trkpt><trkpt lat="43.343867925907595" lon="12.298514186639295"><ele>248.5</ele><time>2026-04-19T10:27:17Z</time></trkpt><trkpt lat="43.34368122097429" lon="12.298859719928798"><ele>248.0</ele><time>2026-04-19T10:27:18Z</time></trkpt><trkpt lat="43.34349733735583" lon="12.299215722548958"><ele>248.0</ele><time>2026-04-19T10:27:19Z</time></trkpt><trkpt lat="43.343309842706375" lon="12.299583449569706"><ele>248.0</ele><time>2026-04-19T10:27:20Z</time></trkpt><trkpt lat="43.34311974078299" lon="12.299949534788489"><ele>249.0</ele><time>2026-04-19T10:27:21Z</time></trkpt><trkpt lat="43.34293185359914" lon="12.300313110201785"><ele>250.0</ele><time>2026-04-19T10:27:22Z</time></trkpt><trkpt lat="43.34275012117327" lon="12.300677427376046"><ele>250.0</ele><time>2026-04-19T10:27:23Z</time></trkpt><trkpt lat="43.3425732079519" lon="12.301043069674945"><ele>250.0</ele><time>2026-04-19T10:27:24Z</time></trkpt><trkpt lat="43.34240215121661" lon="12.301406408432872"><ele>249.5</ele><time>2026-04-19T10:27:25Z</time></trkpt><trkpt lat="43.342235287511514" lon="12.301762533298254"><ele>249.0</ele><time>2026-04-19T10:27:26Z</time></trkpt><trkpt lat="43.34207855405239" lon="12.302110403653277"><ele>250.0</ele><time>2026-04-19T10:27:27Z</time></trkpt><trkpt lat="43.341876535534716" lon="12.302429962155438"><ele>251.0</ele><time>2026-04-19T10:27:28Z</time></trkpt><trkpt lat="43.34171902497907" lon="12.302753416459975"><ele>251.5</ele><time>2026-04-19T10:27:29Z</time></trkpt><trkpt lat="43.341536854845955" lon="12.303099044426466"><ele>252.0</ele><time>2026-04-19T10:27:30Z</time></trkpt><trkpt lat="43.341352791889676" lon="12.303435476815139"><ele>252.0</ele><time>2026-04-19T10:27:31Z</time></trkpt><trkpt lat="43.34116388009238" lon="12.303773688285867"><ele>252.0</ele><time>2026-04-19T10:27:32Z</time></trkpt><trkpt lat="43.340962679633456" lon="12.304107494726432"><ele>251.0</ele><time>2026-04-19T10:27:33Z</time></trkpt><trkpt lat="43.340739393421956" lon="12.304445510030698"><ele>250.0</ele><time>2026-04-19T10:27:34Z</time></trkpt><trkpt lat="43.34054294359562" lon="12.304784534543042"><ele>250.0</ele><time>2026-04-19T10:27:35Z</time></trkpt><trkpt lat="43.34033222145028" lon="12.305113839774464"><ele>250.0</ele><time>2026-04-19T10:27:36Z</time></trkpt><trkpt lat="43.34012001830441" lon="12.305436999623863"><ele>249.0</ele><time>2026-04-19T10:27:37Z</time></trkpt><trkpt lat="43.339902862266044" lon="12.30575962973528"><ele>248.0</ele><time>2026-04-19T10:27:38Z</time></trkpt><trkpt lat="43.339682801629536" lon="12.30606961537551"><ele>248.0</ele><time>2026-04-19T10:27:39Z</time></trkpt><trkpt lat="43.33945033820286" lon="12.306380383051769"><ele>248.0</ele><time>2026-04-19T10:27:40Z</time></trkpt><trkpt lat="43.339208411293235" lon="12.306684004044337"><ele>248.0</ele><time>2026-04-19T10:27:41Z</time></trkpt><trkpt lat="43.33896433657598" lon="12.306986839973842"><ele>248.0</ele><time>2026-04-19T10:27:42Z</time></trkpt><trkpt lat="43.338719956009164" lon="12.30727662284471"><ele>247.0</ele><time>2026-04-19T10:27:43Z</time></trkpt><trkpt lat="43.33847123593955" lon="12.307555233453561"><ele>246.0</ele><time>2026-04-19T10:27:44Z</time></trkpt><trkpt lat="43.338217690183484" lon="12.307837455408462"><ele>245.0</ele><time>2026-04-19T10:27:45Z</time></trkpt><trkpt lat="43.33795694122377" lon="12.308109888159985"><ele>244.0</ele><time>2026-04-19T10:27:46Z</time></trkpt><trkpt lat="43.33769375412911" lon="12.308382545237572"><ele>244.0</ele><time>2026-04-19T10:27:47Z</time></trkpt><trkpt lat="43.33743099522708" lon="12.308645717810087"><ele>244.0</ele><time>2026-04-19T10:27:47.999Z</time></trkpt><trkpt lat="43.33716326527018" lon="12.308895886320856"><ele>243.5</ele><time>2026-04-19T10:27:48.999Z</time></trkpt><trkpt lat="43.33689057365995" lon="12.309134582002171"><ele>243.0</ele><time>2026-04-19T10:27:49.999Z</time></trkpt><trkpt lat="43.33661414517635" lon="12.309361813222134"><ele>244.0</ele><time>2026-04-19T10:27:50.999Z</time></trkpt><trkpt lat="43.336343516097" lon="12.309588719976679"><ele>245.0</ele><time>2026-04-19T10:27:51.999Z</time></trkpt><trkpt lat="43.33607016808259" lon="12.309811311055096"><ele>245.5</ele><time>2026-04-19T10:27:52.999Z</time></trkpt><trkpt lat="43.33580277941304" lon="12.310025927206704"><ele>246.0</ele><time>2026-04-19T10:27:53.999Z</time></trkpt><trkpt lat="43.33553097820941" lon="12.310223737813553"><ele>245.5</ele><time>2026-04-19T10:27:54.999Z</time></trkpt><trkpt lat="43.335256174589034" lon="12.310415083596808"><ele>245.0</ele><time>2026-04-19T10:27:55.999Z</time></trkpt><trkpt lat="43.33498593443763" lon="12.310595677447365"><ele>245.5</ele><time>2026-04-19T10:27:56.999Z</time></trkpt><trkpt lat="43.334715759221694" lon="12.310776694799529"><ele>246.0</ele><time>2026-04-19T10:27:57.999Z</time></trkpt><trkpt lat="43.334441864301354" lon="12.310950366621517"><ele>246.0</ele><time>2026-04-19T10:27:58.999Z</time></trkpt><trkpt lat="43.33416730998557" lon="12.311124394064418"><ele>246.0</ele><time>2026-04-19T10:27:59.999Z</time></trkpt><trkpt lat="43.33390056840061" lon="12.311286732226524"><ele>245.0</ele><time>2026-04-19T10:28:00.999Z</time></trkpt><trkpt lat="43.33362904160812" lon="12.311459241538541"><ele>244.0</ele><time>2026-04-19T10:28:01.999Z</time></trkpt><trkpt lat="43.33335841232798" lon="12.311631739358445"><ele>244.0</ele><time>2026-04-19T10:28:02.999Z</time></trkpt><trkpt lat="43.33308455559892" lon="12.311810356477023"><ele>244.0</ele><time>2026-04-19T10:28:03.999Z</time></trkpt><trkpt lat="43.33280723861043" lon="12.311988239480561"><ele>243.5</ele><time>2026-04-19T10:28:04.999Z</time></trkpt><trkpt lat="43.33252774368967" lon="12.312162053477232"><ele>243.0</ele><time>2026-04-19T10:28:05.999Z</time></trkpt><trkpt lat="43.33224672911442" lon="12.31233838374723"><ele>243.0</ele><time>2026-04-19T10:28:06.999Z</time></trkpt><trkpt lat="43.331970181166405" lon="12.312513999011912"><ele>243.0</ele><time>2026-04-19T10:28:07.999Z</time></trkpt><trkpt lat="43.33169120839351" lon="12.312691520663163"><ele>243.0</ele><time>2026-04-19T10:28:08.999Z</time></trkpt><trkpt lat="43.33141432331375" lon="12.312868098787106"><ele>243.0</ele><time>2026-04-19T10:28:09.999Z</time></trkpt><trkpt lat="43.33113903307167" lon="12.313043047512805"><ele>245.0</ele><time>2026-04-19T10:28:10.999Z</time></trkpt><trkpt lat="43.33086499600988" lon="12.313217707743007"><ele>247.0</ele><time>2026-04-19T10:28:11.999Z</time></trkpt><trkpt lat="43.33059294960701" lon="12.313389263138513"><ele>245.5</ele><time>2026-04-19T10:28:12.999Z</time></trkpt><trkpt lat="43.33032352305745" lon="12.313560009015367"><ele>244.0</ele><time>2026-04-19T10:28:13.999Z</time></trkpt><trkpt lat="43.33005260617" lon="12.313734320582846"><ele>244.0</ele><time>2026-04-19T10:28:15.001Z</time></trkpt><trkpt lat="43.32978573008602" lon="12.313903153085306"><ele>244.0</ele><time>2026-04-19T10:28:16.001Z</time></trkpt><trkpt lat="43.32951901774324" lon="12.314074212328226"><ele>245.5</ele><time>2026-04-19T10:28:17Z</time></trkpt><trkpt lat="43.329248343283645" lon="12.314248636161057"><ele>247.0</ele><time>2026-04-19T10:28:18Z</time></trkpt><trkpt lat="43.32897295227328" lon="12.314424801362833"><ele>247.5</ele><time>2026-04-19T10:28:19.001Z</time></trkpt><trkpt lat="43.32872093953138" lon="12.314585801275916"><ele>248.0</ele><time>2026-04-19T10:28:20Z</time></trkpt><trkpt lat="43.32847077828362" lon="12.314740635076976"><ele>248.0</ele><time>2026-04-19T10:28:21Z</time></trkpt><trkpt lat="43.32821413112001" lon="12.314897837734597"><ele>248.0</ele><time>2026-04-19T10:28:22.001Z</time></trkpt><trkpt lat="43.32795377905777" lon="12.315061761179443"><ele>248.5</ele><time>2026-04-19T10:28:23Z</time></trkpt><trkpt lat="43.32769492910697" lon="12.315229593596259"><ele>249.0</ele><time>2026-04-19T10:28:24Z</time></trkpt><trkpt lat="43.32743110921135" lon="12.315405157759653"><ele>251.5</ele><time>2026-04-19T10:28:25.001Z</time></trkpt><trkpt lat="43.327165139672324" lon="12.315586317914734"><ele>254.0</ele><time>2026-04-19T10:28:26Z</time></trkpt><trkpt lat="43.326892478866995" lon="12.315785162674251"><ele>254.0</ele><time>2026-04-19T10:28:27Z</time></trkpt><trkpt lat="43.32661864407911" lon="12.315994732759872"><ele>254.0</ele><time>2026-04-19T10:28:28Z</time></trkpt><trkpt lat="43.326347101407315" lon="12.316220807240047"><ele>255.5</ele><time>2026-04-19T10:28:29Z</time></trkpt><trkpt lat="43.326079388075264" lon="12.316452251536742"><ele>257.0</ele><time>2026-04-19T10:28:30Z</time></trkpt><trkpt lat="43.325814353420725" lon="12.31669431822917"><ele>257.0</ele><time>2026-04-19T10:28:31Z</time></trkpt><trkpt lat="43.325555729279074" lon="12.316945205894012"><ele>257.0</ele><time>2026-04-19T10:28:32Z</time></trkpt><trkpt lat="43.32530673379728" lon="12.317199960520272"><ele>256.5</ele><time>2026-04-19T10:28:33Z</time></trkpt><trkpt lat="43.32507258456413" lon="12.317471125311426"><ele>256.0</ele><time>2026-04-19T10:28:34Z</time></trkpt><trkpt lat="43.32484163522559" lon="12.317755983575726"><ele>254.5</ele><time>2026-04-19T10:28:35Z</time></trkpt><trkpt lat="43.324608436961505" lon="12.318036816762865"><ele>253.0</ele><time>2026-04-19T10:28:36Z</time></trkpt><trkpt lat="43.324378808510566" lon="12.318323189623008"><ele>253.0</ele><time>2026-04-19T10:28:37Z</time></trkpt><trkpt lat="43.32415292220056" lon="12.318617575365863"><ele>253.0</ele><time>2026-04-19T10:28:38Z</time></trkpt><trkpt lat="43.323932784710586" lon="12.31891561266926"><ele>251.5</ele><time>2026-04-19T10:28:39Z</time></trkpt><trkpt lat="43.32372346418506" lon="12.319220892921361"><ele>250.0</ele><time>2026-04-19T10:28:40Z</time></trkpt><trkpt lat="43.32351730072006" lon="12.319533215926155"><ele>250.5</ele><time>2026-04-19T10:28:41Z</time></trkpt><trkpt lat="43.32330547750822" lon="12.319867732910367"><ele>251.0</ele><time>2026-04-19T10:28:42Z</time></trkpt><trkpt lat="43.32308606189993" lon="12.320238713137103"><ele>250.0</ele><time>2026-04-19T10:28:43Z</time></trkpt><trkpt lat="43.32287384761763" lon="12.320620486113759"><ele>249.0</ele><time>2026-04-19T10:28:44Z</time></trkpt><trkpt lat="43.32266965833197" lon="12.32100570450698"><ele>249.5</ele><time>2026-04-19T10:28:45Z</time></trkpt><trkpt lat="43.32247320109435" lon="12.321402410971336"><ele>250.0</ele><time>2026-04-19T10:28:46Z</time></trkpt><trkpt lat="43.32227278070087" lon="12.321822430854125"><ele>250.0</ele><time>2026-04-19T10:28:47Z</time></trkpt><trkpt lat="43.32207229837302" lon="12.322273628849826"><ele>250.0</ele><time>2026-04-19T10:28:48Z</time></trkpt><trkpt lat="43.321866768575966" lon="12.322770988576632"><ele>251.0</ele><time>2026-04-19T10:28:49Z</time></trkpt><trkpt lat="43.32165939596373" lon="12.323303240478197"><ele>252.0</ele><time>2026-04-19T10:28:50Z</time></trkpt><trkpt lat="43.321436248980135" lon="12.323863300890448"><ele>252.0</ele><time>2026-04-19T10:28:51Z</time></trkpt><trkpt lat="43.321201008438116" lon="12.324448244640433"><ele>254.0</ele><time>2026-04-19T10:28:52Z</time></trkpt><trkpt lat="43.32097423201413" lon="12.325012144019626"><ele>254.0</ele><time>2026-04-19T10:28:53Z</time></trkpt><trkpt lat="43.320751233662946" lon="12.325517835238596"><ele>254.0</ele><time>2026-04-19T10:28:54Z</time></trkpt><trkpt lat="43.32053256906649" lon="12.325993031205075"><ele>256.0</ele><time>2026-04-19T10:28:55Z</time></trkpt><trkpt lat="43.32031621860135" lon="12.326431985581454"><ele>258.0</ele><time>2026-04-19T10:28:56Z</time></trkpt><trkpt lat="43.320096285482414" lon="12.326916565747213"><ele>263.5</ele><time>2026-04-19T10:28:57Z</time></trkpt><trkpt lat="43.3198578859511" lon="12.327398294961842"><ele>269.0</ele><time>2026-04-19T10:28:58Z</time></trkpt><trkpt lat="43.319634081806534" lon="12.327860037276977"><ele>272.0</ele><time>2026-04-19T10:28:59Z</time></trkpt><trkpt lat="43.31942543473387" lon="12.328264964344813"><ele>275.0</ele><time>2026-04-19T10:29:00Z</time></trkpt><trkpt lat="43.319226335729596" lon="12.328659902866717"><ele>275.0</ele><time>2026-04-19T10:29:01Z</time></trkpt><trkpt lat="43.31903351675761" lon="12.329032162745587"><ele>275.0</ele><time>2026-04-19T10:29:02Z</time></trkpt><trkpt lat="43.31883434457175" lon="12.329409520916473"><ele>274.0</ele><time>2026-04-19T10:29:03Z</time></trkpt><trkpt lat="43.31864147425126" lon="12.329828225590287"><ele>273.0</ele><time>2026-04-19T10:29:04Z</time></trkpt><trkpt lat="43.31844440204781" lon="12.330235096988833"><ele>273.0</ele><time>2026-04-19T10:29:05Z</time></trkpt><trkpt lat="43.31823528088338" lon="12.330658067905288"><ele>273.0</ele><time>2026-04-19T10:29:06Z</time></trkpt><trkpt lat="43.31803988773928" lon="12.331052824200189"><ele>272.0</ele><time>2026-04-19T10:29:07Z</time></trkpt><trkpt lat="43.31784400834991" lon="12.331458044204753"><ele>271.0</ele><time>2026-04-19T10:29:08Z</time></trkpt><trkpt lat="43.317647988775875" lon="12.33185558729578"><ele>273.5</ele><time>2026-04-19T10:29:09Z</time></trkpt><trkpt lat="43.31745354883114" lon="12.332248018978389"><ele>276.0</ele><time>2026-04-19T10:29:10Z</time></trkpt><trkpt lat="43.31726809918246" lon="12.332639690775995"><ele>276.0</ele><time>2026-04-19T10:29:11Z</time></trkpt><trkpt lat="43.31708552898046" lon="12.333033646046644"><ele>276.0</ele><time>2026-04-19T10:29:12Z</time></trkpt><trkpt lat="43.316913352041745" lon="12.333428111971603"><ele>278.0</ele><time>2026-04-19T10:29:13Z</time></trkpt><trkpt lat="43.31675239766349" lon="12.333827200595595"><ele>280.0</ele><time>2026-04-19T10:29:14Z</time></trkpt><trkpt lat="43.31659509984522" lon="12.334229513971968"><ele>280.0</ele><time>2026-04-19T10:29:15Z</time></trkpt><trkpt lat="43.31644381375958" lon="12.334642293448404"><ele>280.0</ele><time>2026-04-19T10:29:16Z</time></trkpt><trkpt lat="43.31629572250716" lon="12.335064464652712"><ele>282.0</ele><time>2026-04-19T10:29:17Z</time></trkpt><trkpt lat="43.31615393502214" lon="12.33549001480651"><ele>284.0</ele><time>2026-04-19T10:29:18Z</time></trkpt><trkpt lat="43.31600825409941" lon="12.335914229615625"><ele>286.0</ele><time>2026-04-19T10:29:19Z</time></trkpt><trkpt lat="43.31586659393922" lon="12.336335625143263"><ele>288.0</ele><time>2026-04-19T10:29:20Z</time></trkpt><trkpt lat="43.31572618453976" lon="12.336757320752346"><ele>289.0</ele><time>2026-04-19T10:29:21Z</time></trkpt><trkpt lat="43.31558864646156" lon="12.337178374747879"><ele>290.0</ele><time>2026-04-19T10:29:22Z</time></trkpt><trkpt lat="43.315458123412526" lon="12.337578247521622"><ele>291.0</ele><time>2026-04-19T10:29:23Z</time></trkpt><trkpt lat="43.31533802183613" lon="12.337947168472034"><ele>292.0</ele><time>2026-04-19T10:29:24Z</time></trkpt><trkpt lat="43.31522102611998" lon="12.338312175012206"><ele>292.0</ele><time>2026-04-19T10:29:25Z</time></trkpt><trkpt lat="43.31509477084765" lon="12.338685117005252"><ele>292.0</ele><time>2026-04-19T10:29:26Z</time></trkpt><trkpt lat="43.31497187491099" lon="12.339062561180793"><ele>290.5</ele><time>2026-04-19T10:29:27Z</time></trkpt><trkpt lat="43.31484994197476" lon="12.339450821410761"><ele>289.0</ele><time>2026-04-19T10:29:28Z</time></trkpt><trkpt lat="43.31471990353523" lon="12.339845603767804"><ele>282.5</ele><time>2026-04-19T10:29:29Z</time></trkpt><trkpt lat="43.31458416399717" lon="12.340246283721394"><ele>276.0</ele><time>2026-04-19T10:29:30Z</time></trkpt><trkpt lat="43.314449428403" lon="12.340651871092513"><ele>276.0</ele><time>2026-04-19T10:29:31Z</time></trkpt><trkpt lat="43.314318879474364" lon="12.341057325460682"><ele>276.0</ele><time>2026-04-19T10:29:32Z</time></trkpt><trkpt lat="43.31418323120221" lon="12.341475206280247"><ele>275.0</ele><time>2026-04-19T10:29:33Z</time></trkpt><trkpt lat="43.314047860874155" lon="12.34189522225921"><ele>274.0</ele><time>2026-04-19T10:29:34Z</time></trkpt><trkpt lat="43.31390996944439" lon="12.342317475440527"><ele>271.5</ele><time>2026-04-19T10:29:35Z</time></trkpt><trkpt lat="43.31377178146421" lon="12.342743101551276"><ele>269.0</ele><time>2026-04-19T10:29:36Z</time></trkpt><trkpt lat="43.31363107695418" lon="12.343166993170046"><ele>269.0</ele><time>2026-04-19T10:29:37Z</time></trkpt><trkpt lat="43.31349449362523" lon="12.34358431589292"><ele>269.0</ele><time>2026-04-19T10:29:38Z</time></trkpt><trkpt lat="43.31336099986684" lon="12.344003984353492"><ele>272.5</ele><time>2026-04-19T10:29:39Z</time></trkpt><trkpt lat="43.313227288885756" lon="12.344446290616373"><ele>276.0</ele><time>2026-04-19T10:29:40Z</time></trkpt><trkpt lat="43.31308750914407" lon="12.34491002480939"><ele>285.0</ele><time>2026-04-19T10:29:41Z</time></trkpt><trkpt lat="43.31294100127422" lon="12.345378034153713"><ele>294.0</ele><time>2026-04-19T10:29:42Z</time></trkpt><trkpt lat="43.312788949073855" lon="12.345849704846952"><ele>296.0</ele><time>2026-04-19T10:29:43Z</time></trkpt><trkpt lat="43.312630011484174" lon="12.346330111614467"><ele>298.0</ele><time>2026-04-19T10:29:44Z</time></trkpt><trkpt lat="43.312480660598226" lon="12.34677918751752"><ele>298.0</ele><time>2026-04-19T10:29:45Z</time></trkpt><trkpt lat="43.31233876047625" lon="12.34721171946817"><ele>298.0</ele><time>2026-04-19T10:29:46Z</time></trkpt><trkpt lat="43.31219592081852" lon="12.347650149223004"><ele>298.0</ele><time>2026-04-19T10:29:47Z</time></trkpt><trkpt lat="43.312044521495174" lon="12.348091012176539"><ele>298.0</ele><time>2026-04-19T10:29:47.999Z</time></trkpt><trkpt lat="43.3118872470254" lon="12.348535699399811"><ele>297.0</ele><time>2026-04-19T10:29:48.999Z</time></trkpt><trkpt lat="43.31174440023576" lon="12.3489968652632"><ele>296.0</ele><time>2026-04-19T10:29:49.999Z</time></trkpt><trkpt lat="43.31160009411497" lon="12.34944853610276"><ele>295.0</ele><time>2026-04-19T10:29:50.999Z</time></trkpt><trkpt lat="43.31147238780397" lon="12.34991103325564"><ele>294.0</ele><time>2026-04-19T10:29:51.999Z</time></trkpt><trkpt lat="43.311295141895485" lon="12.350331887931066"><ele>290.5</ele><time>2026-04-19T10:29:52.999Z</time></trkpt><trkpt lat="43.31110306196355" lon="12.3507169212388"><ele>287.0</ele><time>2026-04-19T10:29:53.999Z</time></trkpt><trkpt lat="43.310881265108875" lon="12.351075683856205"><ele>289.5</ele><time>2026-04-19T10:29:54.999Z</time></trkpt><trkpt lat="43.31065552789383" lon="12.351381986565668"><ele>292.0</ele><time>2026-04-19T10:29:55.999Z</time></trkpt><trkpt lat="43.31039447261629" lon="12.351694704396888"><ele>292.0</ele><time>2026-04-19T10:29:56.999Z</time></trkpt><trkpt lat="43.310132762521484" lon="12.351966641436094"><ele>292.0</ele><time>2026-04-19T10:29:57.999Z</time></trkpt><trkpt lat="43.30987312086977" lon="12.352198975280633"><ele>293.5</ele><time>2026-04-19T10:29:58.999Z</time></trkpt><trkpt lat="43.309589579436576" lon="12.352430718183223"><ele>295.0</ele><time>2026-04-19T10:29:59.999Z</time></trkpt><trkpt lat="43.30927314070272" lon="12.352599155085464"><ele>295.0</ele><time>2026-04-19T10:30:00.999Z</time></trkpt><trkpt lat="43.30895262151718" lon="12.352755511670967"><ele>295.0</ele><time>2026-04-19T10:30:01.999Z</time></trkpt><trkpt lat="43.30863106892752" lon="12.35288145539066"><ele>294.0</ele><time>2026-04-19T10:30:02.999Z</time></trkpt><trkpt lat="43.308301837920155" lon="12.35297971341835"><ele>293.0</ele><time>2026-04-19T10:30:03.999Z</time></trkpt><trkpt lat="43.307967164087664" lon="12.353031078105236"><ele>291.5</ele><time>2026-04-19T10:30:04.999Z</time></trkpt><trkpt lat="43.30763189341396" lon="12.353046700937462"><ele>290.0</ele><time>2026-04-19T10:30:05.999Z</time></trkpt><trkpt lat="43.30729246537918" lon="12.353038088727075"><ele>288.0</ele><time>2026-04-19T10:30:06.999Z</time></trkpt><trkpt lat="43.306955196272774" lon="12.352988198618576"><ele>286.0</ele><time>2026-04-19T10:30:07.999Z</time></trkpt><trkpt lat="43.306623866436745" lon="12.352919025999226"><ele>287.5</ele><time>2026-04-19T10:30:08.999Z</time></trkpt><trkpt lat="43.306293339145384" lon="12.352865654493343"><ele>289.0</ele><time>2026-04-19T10:30:09.999Z</time></trkpt><trkpt lat="43.30598522333516" lon="12.352835327075198"><ele>289.0</ele><time>2026-04-19T10:30:10.999Z</time></trkpt><trkpt lat="43.30567450508306" lon="12.352815495004636"><ele>289.0</ele><time>2026-04-19T10:30:11.999Z</time></trkpt><trkpt lat="43.30536301474651" lon="12.352819384667246"><ele>290.0</ele><time>2026-04-19T10:30:12.999Z</time></trkpt><trkpt lat="43.305050365489805" lon="12.352870255435633"><ele>291.0</ele><time>2026-04-19T10:30:13.999Z</time></trkpt><trkpt lat="43.304740242951056" lon="12.352955042160168"><ele>291.0</ele><time>2026-04-19T10:30:14.999Z</time></trkpt><trkpt lat="43.30442649612747" lon="12.353073662203212"><ele>291.0</ele><time>2026-04-19T10:30:15.999Z</time></trkpt><trkpt lat="43.30411757118785" lon="12.353226818632672"><ele>288.0</ele><time>2026-04-19T10:30:16.999Z</time></trkpt><trkpt lat="43.30381705817679" lon="12.353419035684244"><ele>285.0</ele><time>2026-04-19T10:30:17.999Z</time></trkpt><trkpt lat="43.303514360017985" lon="12.35363835195296"><ele>285.0</ele><time>2026-04-19T10:30:18.999Z</time></trkpt><trkpt lat="43.303206114731886" lon="12.353857720434805"><ele>285.0</ele><time>2026-04-19T10:30:19.999Z</time></trkpt><trkpt lat="43.30289832570176" lon="12.354070535532188"><ele>282.0</ele><time>2026-04-19T10:30:21Z</time></trkpt><trkpt lat="43.30258428117287" lon="12.354256181150022"><ele>279.0</ele><time>2026-04-19T10:30:22Z</time></trkpt><trkpt lat="43.302274549028134" lon="12.354446078905433"><ele>277.0</ele><time>2026-04-19T10:30:23Z</time></trkpt><trkpt lat="43.30197227556034" lon="12.354667236459804"><ele>275.0</ele><time>2026-04-19T10:30:24Z</time></trkpt><trkpt lat="43.30165956346177" lon="12.354880488983781"><ele>281.0</ele><time>2026-04-19T10:30:25Z</time></trkpt><trkpt lat="43.30135078781521" lon="12.355095434662454"><ele>287.0</ele><time>2026-04-19T10:30:26Z</time></trkpt><trkpt lat="43.30104435956565" lon="12.355308431548476"><ele>287.0</ele><time>2026-04-19T10:30:27Z</time></trkpt><trkpt lat="43.30074369439247" lon="12.355521620292198"><ele>287.0</ele><time>2026-04-19T10:30:28Z</time></trkpt><trkpt lat="43.300452431981036" lon="12.35574681054425"><ele>283.0</ele><time>2026-04-19T10:30:29Z</time></trkpt><trkpt lat="43.30016920128418" lon="12.35599066805004"><ele>279.0</ele><time>2026-04-19T10:30:30Z</time></trkpt><trkpt lat="43.29989559223064" lon="12.356253442224391"><ele>278.0</ele><time>2026-04-19T10:30:31Z</time></trkpt><trkpt lat="43.29963477910414" lon="12.356538481585236"><ele>277.0</ele><time>2026-04-19T10:30:32Z</time></trkpt><trkpt lat="43.29938235139289" lon="12.356835956106156"><ele>277.0</ele><time>2026-04-19T10:30:33Z</time></trkpt><trkpt lat="43.29913695044712" lon="12.35715363267193"><ele>277.0</ele><time>2026-04-19T10:30:34Z</time></trkpt><trkpt lat="43.298894107334874" lon="12.357477984299452"><ele>276.5</ele><time>2026-04-19T10:30:35Z</time></trkpt><trkpt lat="43.29862409329934" lon="12.357718804326394"><ele>276.0</ele><time>2026-04-19T10:30:36Z</time></trkpt><trkpt lat="43.2983879425146" lon="12.3580400343794"><ele>276.0</ele><time>2026-04-19T10:30:37Z</time></trkpt><trkpt lat="43.298154840038194" lon="12.358361815459169"><ele>276.0</ele><time>2026-04-19T10:30:38Z</time></trkpt><trkpt lat="43.29791787494072" lon="12.358682896504948"><ele>275.0</ele><time>2026-04-19T10:30:39Z</time></trkpt><trkpt lat="43.29768202263894" lon="12.359002298400004"><ele>274.0</ele><time>2026-04-19T10:30:40Z</time></trkpt><trkpt lat="43.29744787280547" lon="12.359315820779504"><ele>274.0</ele><time>2026-04-19T10:30:41Z</time></trkpt><trkpt lat="43.2972193728985" lon="12.359636403353681"><ele>274.0</ele><time>2026-04-19T10:30:42Z</time></trkpt><trkpt lat="43.29699287957594" lon="12.359946987677112"><ele>274.0</ele><time>2026-04-19T10:30:43Z</time></trkpt><trkpt lat="43.29675957117369" lon="12.360257509490669"><ele>274.0</ele><time>2026-04-19T10:30:44Z</time></trkpt><trkpt lat="43.29653128270119" lon="12.360564904436037"><ele>274.0</ele><time>2026-04-19T10:30:45Z</time></trkpt><trkpt lat="43.29630696495527" lon="12.360857037764774"><ele>274.0</ele><time>2026-04-19T10:30:46Z</time></trkpt><trkpt lat="43.29607911530933" lon="12.361153566080036"><ele>275.0</ele><time>2026-04-19T10:30:47Z</time></trkpt><trkpt lat="43.295855159274616" lon="12.361448105299175"><ele>276.0</ele><time>2026-04-19T10:30:48Z</time></trkpt><trkpt lat="43.29562597944122" lon="12.361749481725333"><ele>272.5</ele><time>2026-04-19T10:30:49Z</time></trkpt><trkpt lat="43.29539915751892" lon="12.362051497145334"><ele>269.0</ele><time>2026-04-19T10:30:50Z</time></trkpt><trkpt lat="43.29516192074591" lon="12.362372398725837"><ele>268.0</ele><time>2026-04-19T10:30:51Z</time></trkpt><trkpt lat="43.2949239044149" lon="12.362685747758423"><ele>267.0</ele><time>2026-04-19T10:30:52Z</time></trkpt><trkpt lat="43.29469031588696" lon="12.363005868373625"><ele>261.5</ele><time>2026-04-19T10:30:53Z</time></trkpt><trkpt lat="43.29444980667963" lon="12.363332220637796"><ele>256.0</ele><time>2026-04-19T10:30:54Z</time></trkpt><trkpt lat="43.294221493036645" lon="12.363646016571199"><ele>253.0</ele><time>2026-04-19T10:30:55Z</time></trkpt><trkpt lat="43.293984824165065" lon="12.363971641004952"><ele>250.0</ele><time>2026-04-19T10:30:56Z</time></trkpt><trkpt lat="43.293752524584725" lon="12.364294349567935"><ele>247.5</ele><time>2026-04-19T10:30:57Z</time></trkpt><trkpt lat="43.29351143251574" lon="12.364614876887588"><ele>245.0</ele><time>2026-04-19T10:30:58Z</time></trkpt><trkpt lat="43.293278395151944" lon="12.364932877342943"><ele>245.5</ele><time>2026-04-19T10:30:59Z</time></trkpt><trkpt lat="43.29304250151711" lon="12.365249744616285"><ele>246.0</ele><time>2026-04-19T10:31:00Z</time></trkpt><trkpt lat="43.29280615607213" lon="12.365562817156503"><ele>246.0</ele><time>2026-04-19T10:31:01Z</time></trkpt><trkpt lat="43.29257240079678" lon="12.365879944724558"><ele>246.0</ele><time>2026-04-19T10:31:02Z</time></trkpt><trkpt lat="43.29233959342024" lon="12.366194045929323"><ele>244.0</ele><time>2026-04-19T10:31:03Z</time></trkpt><trkpt lat="43.29210621223099" lon="12.366511469924655"><ele>242.0</ele><time>2026-04-19T10:31:04Z</time></trkpt><trkpt lat="43.29187117485845" lon="12.366828128958147"><ele>242.0</ele><time>2026-04-19T10:31:05Z</time></trkpt><trkpt lat="43.291630491438056" lon="12.367138649552901"><ele>242.0</ele><time>2026-04-19T10:31:06Z</time></trkpt><trkpt lat="43.29141331291715" lon="12.367493802171126"><ele>240.5</ele><time>2026-04-19T10:31:07Z</time></trkpt><trkpt lat="43.29118789893739" lon="12.367839823163798"><ele>239.0</ele><time>2026-04-19T10:31:08Z</time></trkpt><trkpt lat="43.29096772350763" lon="12.368155313372075"><ele>239.0</ele><time>2026-04-19T10:31:09Z</time></trkpt><trkpt lat="43.29074716324738" lon="12.368438767871902"><ele>239.0</ele><time>2026-04-19T10:31:10Z</time></trkpt><trkpt lat="43.29050960938068" lon="12.368747036223185"><ele>238.0</ele><time>2026-04-19T10:31:11Z</time></trkpt><trkpt lat="43.290277415664875" lon="12.369055184330168"><ele>237.0</ele><time>2026-04-19T10:31:12Z</time></trkpt><trkpt lat="43.29003961291912" lon="12.369367061937869"><ele>237.0</ele><time>2026-04-19T10:31:13Z</time></trkpt><trkpt lat="43.28980679022795" lon="12.369668223201872"><ele>237.0</ele><time>2026-04-19T10:31:14Z</time></trkpt><trkpt lat="43.28958756073396" lon="12.36997876070481"><ele>240.0</ele><time>2026-04-19T10:31:15Z</time></trkpt><trkpt lat="43.28935928477653" lon="12.370277827063617"><ele>243.0</ele><time>2026-04-19T10:31:16Z</time></trkpt><trkpt lat="43.28912836067732" lon="12.370590863441677"><ele>242.0</ele><time>2026-04-19T10:31:17Z</time></trkpt><trkpt lat="43.28889567438492" lon="12.370895192679777"><ele>241.0</ele><time>2026-04-19T10:31:18Z</time></trkpt><trkpt lat="43.28867337798875" lon="12.371196007922146"><ele>242.0</ele><time>2026-04-19T10:31:19Z</time></trkpt><trkpt lat="43.288445613977295" lon="12.371506011511823"><ele>243.0</ele><time>2026-04-19T10:31:20Z</time></trkpt><trkpt lat="43.28821801859686" lon="12.371814961770573"><ele>242.0</ele><time>2026-04-19T10:31:21Z</time></trkpt><trkpt lat="43.28798527012072" lon="12.372136416936979"><ele>241.0</ele><time>2026-04-19T10:31:22Z</time></trkpt><trkpt lat="43.287744878672875" lon="12.372445514592583"><ele>243.0</ele><time>2026-04-19T10:31:23Z</time></trkpt><trkpt lat="43.2875098211919" lon="12.37277174791073"><ele>245.0</ele><time>2026-04-19T10:31:24Z</time></trkpt><trkpt lat="43.28727409085691" lon="12.373103307286204"><ele>247.0</ele><time>2026-04-19T10:31:25Z</time></trkpt><trkpt lat="43.28703840482938" lon="12.373427717484395"><ele>249.0</ele><time>2026-04-19T10:31:26Z</time></trkpt><trkpt lat="43.28676550129128" lon="12.373711455349811"><ele>249.0</ele><time>2026-04-19T10:31:27Z</time></trkpt><trkpt lat="43.2865253481714" lon="12.374054367052741"><ele>249.0</ele><time>2026-04-19T10:31:28Z</time></trkpt><trkpt lat="43.28628513138632" lon="12.37439651560339"><ele>249.5</ele><time>2026-04-19T10:31:29Z</time></trkpt><trkpt lat="43.28603430602435" lon="12.374727463955912"><ele>250.0</ele><time>2026-04-19T10:31:30Z</time></trkpt><trkpt lat="43.285787206508516" lon="12.375064408822853"><ele>249.0</ele><time>2026-04-19T10:31:31Z</time></trkpt><trkpt lat="43.28554167212225" lon="12.37539731767932"><ele>248.0</ele><time>2026-04-19T10:31:32Z</time></trkpt><trkpt lat="43.28529868238109" lon="12.37573966052402"><ele>248.0</ele><time>2026-04-19T10:31:33Z</time></trkpt><trkpt lat="43.285044623688485" lon="12.376074187642308"><ele>248.0</ele><time>2026-04-19T10:31:34Z</time></trkpt><trkpt lat="43.28479921976547" lon="12.376410359636052"><ele>249.0</ele><time>2026-04-19T10:31:35Z</time></trkpt><trkpt lat="43.284552482666975" lon="12.376748441435542"><ele>250.0</ele><time>2026-04-19T10:31:36Z</time></trkpt><trkpt lat="43.28431007926582" lon="12.377078555100724"><ele>249.0</ele><time>2026-04-19T10:31:37Z</time></trkpt><trkpt lat="43.28407105746839" lon="12.377403786502354"><ele>248.0</ele><time>2026-04-19T10:31:38Z</time></trkpt><trkpt lat="43.28382633805672" lon="12.377729493491605"><ele>251.0</ele><time>2026-04-19T10:31:39Z</time></trkpt><trkpt lat="43.28358550368991" lon="12.378054868415267"><ele>254.0</ele><time>2026-04-19T10:31:40Z</time></trkpt><trkpt lat="43.28334218232133" lon="12.378374877747419"><ele>254.0</ele><time>2026-04-19T10:31:41Z</time></trkpt><trkpt lat="43.28309824850229" lon="12.378689722480363"><ele>254.0</ele><time>2026-04-19T10:31:42Z</time></trkpt><trkpt lat="43.28285215369937" lon="12.3789994881146"><ele>255.0</ele><time>2026-04-19T10:31:43Z</time></trkpt><trkpt lat="43.282608948949196" lon="12.379312150357663"><ele>256.0</ele><time>2026-04-19T10:31:44Z</time></trkpt><trkpt lat="43.28237295820618" lon="12.37962273379674"><ele>256.5</ele><time>2026-04-19T10:31:45Z</time></trkpt><trkpt lat="43.28213688496823" lon="12.379937761278757"><ele>257.0</ele><time>2026-04-19T10:31:46Z</time></trkpt><trkpt lat="43.281896659637866" lon="12.380251895045978"><ele>259.0</ele><time>2026-04-19T10:31:47Z</time></trkpt><trkpt lat="43.281657560200735" lon="12.380557425702408"><ele>261.0</ele><time>2026-04-19T10:31:48Z</time></trkpt><trkpt lat="43.28141856994364" lon="12.380861424851627"><ele>261.0</ele><time>2026-04-19T10:31:49Z</time></trkpt><trkpt lat="43.281168031729315" lon="12.381148906714238"><ele>261.0</ele><time>2026-04-19T10:31:50Z</time></trkpt><trkpt lat="43.28089279879239" lon="12.381392235182865"><ele>260.0</ele><time>2026-04-19T10:31:51Z</time></trkpt><trkpt lat="43.28061629647692" lon="12.381621628994049"><ele>259.0</ele><time>2026-04-19T10:31:52Z</time></trkpt><trkpt lat="43.28033207416372" lon="12.381839606785936"><ele>259.0</ele><time>2026-04-19T10:31:53Z</time></trkpt><trkpt lat="43.280039056454804" lon="12.382035040669036"><ele>259.0</ele><time>2026-04-19T10:31:54Z</time></trkpt><trkpt lat="43.27973998691811" lon="12.382203108087493"><ele>260.5</ele><time>2026-04-19T10:31:55Z</time></trkpt><trkpt lat="43.2794351488741" lon="12.382357406762411"><ele>262.0</ele><time>2026-04-19T10:31:56Z</time></trkpt><trkpt lat="43.27911548033902" lon="12.382489783360011"><ele>260.5</ele><time>2026-04-19T10:31:57Z</time></trkpt><trkpt lat="43.27879412140328" lon="12.382592628998237"><ele>259.0</ele><time>2026-04-19T10:31:58Z</time></trkpt><trkpt lat="43.2784730646575" lon="12.382675475626122"><ele>259.0</ele><time>2026-04-19T10:31:59Z</time></trkpt><trkpt lat="43.27815313345157" lon="12.38275563461117"><ele>259.0</ele><time>2026-04-19T10:32:00Z</time></trkpt><trkpt lat="43.277831811516215" lon="12.382836716550985"><ele>259.0</ele><time>2026-04-19T10:32:01Z</time></trkpt><trkpt lat="43.27751199326955" lon="12.38292630610298"><ele>259.0</ele><time>2026-04-19T10:32:01.999Z</time></trkpt><trkpt lat="43.27719395218022" lon="12.383015490030079"><ele>263.5</ele><time>2026-04-19T10:32:02.999Z</time></trkpt><trkpt lat="43.27687502384547" lon="12.383104650408614"><ele>268.0</ele><time>2026-04-19T10:32:03.999Z</time></trkpt><trkpt lat="43.27654971906857" lon="12.383200121658946"><ele>268.0</ele><time>2026-04-19T10:32:04.999Z</time></trkpt><trkpt lat="43.27622621935185" lon="12.383283327899195"><ele>268.0</ele><time>2026-04-19T10:32:05.999Z</time></trkpt><trkpt lat="43.27590335925701" lon="12.383377262208143"><ele>267.0</ele><time>2026-04-19T10:32:06.999Z</time></trkpt><trkpt lat="43.2755781672779" lon="12.383467095321755"><ele>266.0</ele><time>2026-04-19T10:32:07.999Z</time></trkpt><trkpt lat="43.275249844164286" lon="12.383559223352336"><ele>266.0</ele><time>2026-04-19T10:32:08.999Z</time></trkpt><trkpt lat="43.274921720064626" lon="12.383649398954308"><ele>266.0</ele><time>2026-04-19T10:32:09.999Z</time></trkpt><trkpt lat="43.2745958026496" lon="12.383737551840088"><ele>267.5</ele><time>2026-04-19T10:32:10.999Z</time></trkpt><trkpt lat="43.274272821901995" lon="12.383829172524514"><ele>269.0</ele><time>2026-04-19T10:32:11.999Z</time></trkpt><trkpt lat="43.273951453806426" lon="12.383917722157719"><ele>268.5</ele><time>2026-04-19T10:32:12.999Z</time></trkpt><trkpt lat="43.273627997018885" lon="12.384001628725308"><ele>268.0</ele><time>2026-04-19T10:32:13.999Z</time></trkpt><trkpt lat="43.27330440895062" lon="12.384091987232935"><ele>268.5</ele><time>2026-04-19T10:32:14.999Z</time></trkpt><trkpt lat="43.27298047947259" lon="12.384182863765394"><ele>269.0</ele><time>2026-04-19T10:32:15.999Z</time></trkpt><trkpt lat="43.27265178085109" lon="12.384274375397398"><ele>269.0</ele><time>2026-04-19T10:32:16.999Z</time></trkpt><trkpt lat="43.27233144121242" lon="12.384356966547793"><ele>269.0</ele><time>2026-04-19T10:32:17.999Z</time></trkpt><trkpt lat="43.27201895751709" lon="12.384435865194453"><ele>267.0</ele><time>2026-04-19T10:32:18.999Z</time></trkpt><trkpt lat="43.271702324629985" lon="12.3845228076748"><ele>265.0</ele><time>2026-04-19T10:32:19.999Z</time></trkpt><trkpt lat="43.271389428531954" lon="12.384613362674736"><ele>263.5</ele><time>2026-04-19T10:32:20.999Z</time></trkpt><trkpt lat="43.27107419473636" lon="12.384702367091506"><ele>262.0</ele><time>2026-04-19T10:32:21.999Z</time></trkpt><trkpt lat="43.2707605363884" lon="12.384791581537307"><ele>257.0</ele><time>2026-04-19T10:32:22.999Z</time></trkpt><trkpt lat="43.2704439519403" lon="12.384882576270668"><ele>252.0</ele><time>2026-04-19T10:32:23.999Z</time></trkpt><trkpt lat="43.27013493711953" lon="12.384969073808934"><ele>252.0</ele><time>2026-04-19T10:32:24.999Z</time></trkpt><trkpt lat="43.26983004642421" lon="12.385053832012607"><ele>252.0</ele><time>2026-04-19T10:32:25.999Z</time></trkpt><trkpt lat="43.2695213192516" lon="12.385136558337358"><ele>249.0</ele><time>2026-04-19T10:32:27.001Z</time></trkpt><trkpt lat="43.26921314956317" lon="12.385221469819198"><ele>246.0</ele><time>2026-04-19T10:32:28.001Z</time></trkpt><trkpt lat="43.26889143847744" lon="12.385307542825013"><ele>242.5</ele><time>2026-04-19T10:32:29.001Z</time></trkpt><trkpt lat="43.26854722828422" lon="12.385404648706615"><ele>239.0</ele><time>2026-04-19T10:32:30.001Z</time></trkpt><trkpt lat="43.26820136638299" lon="12.385497537841031"><ele>241.5</ele><time>2026-04-19T10:32:31.001Z</time></trkpt><trkpt lat="43.26786565814405" lon="12.385586951415894"><ele>244.0</ele><time>2026-04-19T10:32:32Z</time></trkpt><trkpt lat="43.26753462091947" lon="12.385678633276488"><ele>242.5</ele><time>2026-04-19T10:32:33Z</time></trkpt><trkpt lat="43.267203851286624" lon="12.385772135277833"><ele>241.0</ele><time>2026-04-19T10:32:34Z</time></trkpt><trkpt lat="43.26687260446641" lon="12.385862543230052"><ele>241.0</ele><time>2026-04-19T10:32:35Z</time></trkpt><trkpt lat="43.26653880171821" lon="12.38595786102312"><ele>241.0</ele><time>2026-04-19T10:32:36Z</time></trkpt><trkpt lat="43.26620045109793" lon="12.386053646066088"><ele>238.5</ele><time>2026-04-19T10:32:37Z</time></trkpt><trkpt lat="43.265858183072716" lon="12.386146179942246"><ele>236.0</ele><time>2026-04-19T10:32:38Z</time></trkpt><trkpt lat="43.265525208699344" lon="12.386236910673952"><ele>235.0</ele><time>2026-04-19T10:32:39Z</time></trkpt><trkpt lat="43.26522250257299" lon="12.386318215681477"><ele>234.0</ele><time>2026-04-19T10:32:40Z</time></trkpt><trkpt lat="43.264945199617074" lon="12.386394071398584"><ele>234.0</ele><time>2026-04-19T10:32:41Z</time></trkpt><trkpt lat="43.26468387652855" lon="12.386466815140015"><ele>234.0</ele><time>2026-04-19T10:32:42Z</time></trkpt><trkpt lat="43.26443079849303" lon="12.386531393863137"><ele>234.0</ele><time>2026-04-19T10:32:43Z</time></trkpt><trkpt lat="43.26419887342552" lon="12.386589330801252"><ele>234.0</ele><time>2026-04-19T10:32:44Z</time></trkpt><trkpt lat="43.26397410085149" lon="12.386649261380734"><ele>233.66666666666669</ele><time>2026-04-19T10:32:45Z</time></trkpt><trkpt lat="43.26376126942275" lon="12.386717931171411"><ele>233.33333333333334</ele><time>2026-04-19T10:32:46Z</time></trkpt><trkpt lat="43.263544174688" lon="12.38680517275995"><ele>233.0</ele><time>2026-04-19T10:32:47Z</time></trkpt><trkpt lat="43.263347001946805" lon="12.386895927399776"><ele>233.0</ele><time>2026-04-19T10:32:48Z</time></trkpt><trkpt lat="43.263162976060066" lon="12.386984718373462"><ele>233.0</ele><time>2026-04-19T10:32:49Z</time></trkpt><trkpt lat="43.26300101577146" lon="12.387057943004068"><ele>233.0</ele><time>2026-04-19T10:32:50Z</time></trkpt><trkpt lat="43.26285455977353" lon="12.387102715891865"><ele>233.0</ele><time>2026-04-19T10:32:51Z</time></trkpt><trkpt lat="43.262711341964845" lon="12.387085706477873"><ele>233.0</ele><time>2026-04-19T10:32:52Z</time></trkpt><trkpt lat="43.26255919482724" lon="12.387005385652024"><ele>233.0</ele><time>2026-04-19T10:32:53Z</time></trkpt><trkpt lat="43.26240617760307" lon="12.386856257568649"><ele>231.66666666666669</ele><time>2026-04-19T10:32:54Z</time></trkpt><trkpt lat="43.26226455936661" lon="12.386703529853204"><ele>230.33333333333331</ele><time>2026-04-19T10:32:55Z</time></trkpt><trkpt lat="43.26221208091035" lon="12.386434578956889"><ele>229.0</ele><time>2026-04-19T10:32:56Z</time></trkpt><trkpt lat="43.26217497421024" lon="12.386221929028146"><ele>229.0</ele><time>2026-04-19T10:32:57Z</time></trkpt><trkpt lat="43.26218068373825" lon="12.386015687800558"><ele>229.0</ele><time>2026-04-19T10:32:58Z</time></trkpt><trkpt lat="43.26226925085078" lon="12.385844472423868"><ele>229.0</ele><time>2026-04-19T10:32:59Z</time></trkpt><trkpt lat="43.262387735336134" lon="12.385720112442575"><ele>229.79999999999998</ele><time>2026-04-19T10:33:00Z</time></trkpt><trkpt lat="43.26249811211884" lon="12.385633006535299"><ele>230.59999999999997</ele><time>2026-04-19T10:33:01Z</time></trkpt><trkpt lat="43.26258817004095" lon="12.385577262999073"><ele>231.4</ele><time>2026-04-19T10:33:02Z</time></trkpt><trkpt lat="43.26264350237672" lon="12.385525685958202"><ele>232.2</ele><time>2026-04-19T10:33:03Z</time></trkpt><trkpt lat="43.26272452536541" lon="12.385443504153006"><ele>233.0</ele><time>2026-04-19T10:33:05Z</time></trkpt><trkpt lat="43.26268663358118" lon="12.385206004952952"><ele>233.0</ele><time>2026-04-19T10:33:07Z</time></trkpt><trkpt lat="43.26262942680297" lon="12.385091085617415"><ele>233.0</ele><time>2026-04-19T10:33:08Z</time></trkpt><trkpt lat="43.26256717734304" lon="12.384971381792232"><ele>233.0</ele><time>2026-04-19T10:33:09Z</time></trkpt><trkpt lat="43.262502392016195" lon="12.384830377706916"><ele>233.0</ele><time>2026-04-19T10:33:10Z</time></trkpt><trkpt lat="43.26243401211842" lon="12.384667131090108"><ele>232.75</ele><time>2026-04-19T10:33:11Z</time></trkpt><trkpt lat="43.262368721211864" lon="12.384518341875955"><ele>232.5</ele><time>2026-04-19T10:33:12Z</time></trkpt><trkpt lat="43.26230396109519" lon="12.38436870363967"><ele>232.25</ele><time>2026-04-19T10:33:13Z</time></trkpt><trkpt lat="43.262233048186395" lon="12.384208972004345"><ele>232.0</ele><time>2026-04-19T10:33:14Z</time></trkpt><trkpt lat="43.26215572456257" lon="12.384045562908366"><ele>230.33333333333331</ele><time>2026-04-19T10:33:15Z</time></trkpt><trkpt lat="43.26206448026725" lon="12.383884383456698"><ele>228.66666666666669</ele><time>2026-04-19T10:33:16Z</time></trkpt><trkpt lat="43.261967177249616" lon="12.383726319781747"><ele>227.0</ele><time>2026-04-19T10:33:17Z</time></trkpt><trkpt lat="43.2618574768574" lon="12.383577865131018"><ele>227.0</ele><time>2026-04-19T10:33:18Z</time></trkpt><trkpt lat="43.26174266076728" lon="12.383440724472006"><ele>227.0</ele><time>2026-04-19T10:33:19Z</time></trkpt><trkpt lat="43.26162306279468" lon="12.38330518321711"><ele>227.0</ele><time>2026-04-19T10:33:20Z</time></trkpt><trkpt lat="43.26150228342405" lon="12.383159512171318"><ele>226.0</ele><time>2026-04-19T10:33:21Z</time></trkpt><trkpt lat="43.26137636546146" lon="12.38301239602419"><ele>225.0</ele><time>2026-04-19T10:33:22Z</time></trkpt><trkpt lat="43.26124190302214" lon="12.38285642356311"><ele>224.0</ele><time>2026-04-19T10:33:23Z</time></trkpt><trkpt lat="43.26109334841482" lon="12.382684902352022"><ele>224.0</ele><time>2026-04-19T10:33:24Z</time></trkpt><trkpt lat="43.26093952096032" lon="12.3825050059923"><ele>224.0</ele><time>2026-04-19T10:33:25Z</time></trkpt><trkpt lat="43.260790127710145" lon="12.382331389511616"><ele>224.0</ele><time>2026-04-19T10:33:26Z</time></trkpt><trkpt lat="43.26063597816528" lon="12.382153109935565"><ele>224.0</ele><time>2026-04-19T10:33:27Z</time></trkpt><trkpt lat="43.26047722046052" lon="12.38198972633407"><ele>224.0</ele><time>2026-04-19T10:33:28Z</time></trkpt><trkpt lat="43.26029815010617" lon="12.38185270919039"><ele>224.0</ele><time>2026-04-19T10:33:29Z</time></trkpt><trkpt lat="43.26009671647354" lon="12.381740978843219"><ele>224.0</ele><time>2026-04-19T10:33:30Z</time></trkpt><trkpt lat="43.25988604234696" lon="12.381638551529651"><ele>224.0</ele><time>2026-04-19T10:33:31Z</time></trkpt><trkpt lat="43.25966993584603" lon="12.381532707120753"><ele>225.5</ele><time>2026-04-19T10:33:32Z</time></trkpt><trkpt lat="43.259463172876345" lon="12.381407529832103"><ele>227.0</ele><time>2026-04-19T10:33:33Z</time></trkpt><trkpt lat="43.25925227811569" lon="12.38128642919443"><ele>227.0</ele><time>2026-04-19T10:33:34Z</time></trkpt><trkpt lat="43.259041927318435" lon="12.38116572636328"><ele>227.0</ele><time>2026-04-19T10:33:35Z</time></trkpt><trkpt lat="43.25882746313141" lon="12.381049317175204"><ele>226.5</ele><time>2026-04-19T10:33:36Z</time></trkpt><trkpt lat="43.25859741039136" lon="12.380950689482159"><ele>226.0</ele><time>2026-04-19T10:33:37Z</time></trkpt><trkpt lat="43.258344790395405" lon="12.380898263325502"><ele>226.0</ele><time>2026-04-19T10:33:38Z</time></trkpt><trkpt lat="43.258084113705294" lon="12.380908168453916"><ele>226.0</ele><time>2026-04-19T10:33:39Z</time></trkpt><trkpt lat="43.257813273296726" lon="12.380971532693593"><ele>226.0</ele><time>2026-04-19T10:33:40Z</time></trkpt><trkpt lat="43.25752594556157" lon="12.381073673175132"><ele>226.0</ele><time>2026-04-19T10:33:41Z</time></trkpt><trkpt lat="43.25723947203904" lon="12.381197625308403"><ele>226.0</ele><time>2026-04-19T10:33:42Z</time></trkpt><trkpt lat="43.25697140822987" lon="12.381325707912689"><ele>226.0</ele><time>2026-04-19T10:33:43Z</time></trkpt><trkpt lat="43.256697755816994" lon="12.381437153765471"><ele>226.0</ele><time>2026-04-19T10:33:44Z</time></trkpt><trkpt lat="43.25645029577521" lon="12.381538458689418"><ele>226.0</ele><time>2026-04-19T10:33:45Z</time></trkpt><trkpt lat="43.25619672201339" lon="12.381642809635345"><ele>226.0</ele><time>2026-04-19T10:33:46Z</time></trkpt><trkpt lat="43.25594910117184" lon="12.381751190409158"><ele>226.0</ele><time>2026-04-19T10:33:47Z</time></trkpt><trkpt lat="43.25571720294357" lon="12.381851521549645"><ele>226.33333333333331</ele><time>2026-04-19T10:33:48Z</time></trkpt><trkpt lat="43.25550197914423" lon="12.381922993753054"><ele>226.66666666666669</ele><time>2026-04-19T10:33:49Z</time></trkpt><trkpt lat="43.25532256628676" lon="12.381994550672019"><ele>227.0</ele><time>2026-04-19T10:33:50Z</time></trkpt><trkpt lat="43.255149560652455" lon="12.382059115431478"><ele>227.0</ele><time>2026-04-19T10:33:51Z</time></trkpt><trkpt lat="43.25496229500236" lon="12.382139872889285"><ele>227.0</ele><time>2026-04-19T10:33:52Z</time></trkpt><trkpt lat="43.254743243958465" lon="12.382227200753398"><ele>227.0</ele><time>2026-04-19T10:33:53Z</time></trkpt><trkpt lat="43.25448837346629" lon="12.382270819540834"><ele>226.5</ele><time>2026-04-19T10:33:54Z</time></trkpt><trkpt lat="43.25420979987326" lon="12.38224858341962"><ele>226.0</ele><time>2026-04-19T10:33:55Z</time></trkpt><trkpt lat="43.25391708274673" lon="12.382220725763217"><ele>228.0</ele><time>2026-04-19T10:33:56Z</time></trkpt><trkpt lat="43.25361937218783" lon="12.382203561627739"><ele>230.0</ele><time>2026-04-19T10:33:57Z</time></trkpt><trkpt lat="43.253308041883194" lon="12.382185799951355"><ele>229.0</ele><time>2026-04-19T10:33:58Z</time></trkpt><trkpt lat="43.252978558525065" lon="12.382164867975428"><ele>228.0</ele><time>2026-04-19T10:33:59Z</time></trkpt><trkpt lat="43.25264770695843" lon="12.382139414353551"><ele>228.0</ele><time>2026-04-19T10:34:00Z</time></trkpt><trkpt lat="43.252321718114686" lon="12.38212275144667"><ele>228.0</ele><time>2026-04-19T10:34:01Z</time></trkpt><trkpt lat="43.2519752358606" lon="12.382108152982935"><ele>228.5</ele><time>2026-04-19T10:34:02Z</time></trkpt><trkpt lat="43.25162309443293" lon="12.382087989165589"><ele>229.0</ele><time>2026-04-19T10:34:02.999Z</time></trkpt><trkpt lat="43.251289992836206" lon="12.38208509206462"><ele>230.5</ele><time>2026-04-19T10:34:03.999Z</time></trkpt><trkpt lat="43.25097995960002" lon="12.382047989801983"><ele>232.0</ele><time>2026-04-19T10:34:04.999Z</time></trkpt><trkpt lat="43.2506797818857" lon="12.381988326612538"><ele>233.5</ele><time>2026-04-19T10:34:05.999Z</time></trkpt><trkpt lat="43.25038276122571" lon="12.381892348361694"><ele>235.0</ele><time>2026-04-19T10:34:06.999Z</time></trkpt><trkpt lat="43.25009854077782" lon="12.381738845131547"><ele>235.0</ele><time>2026-04-19T10:34:07.999Z</time></trkpt><trkpt lat="43.249828398101066" lon="12.381526920765694"><ele>235.0</ele><time>2026-04-19T10:34:08.999Z</time></trkpt><trkpt lat="43.24958199156787" lon="12.38126625189274"><ele>237.0</ele><time>2026-04-19T10:34:09.999Z</time></trkpt><trkpt lat="43.24935684777957" lon="12.380960287822518"><ele>239.0</ele><time>2026-04-19T10:34:10.999Z</time></trkpt><trkpt lat="43.249170076713824" lon="12.38062022782587"><ele>236.5</ele><time>2026-04-19T10:34:11.999Z</time></trkpt><trkpt lat="43.24901570615771" lon="12.380230261689118"><ele>234.0</ele><time>2026-04-19T10:34:12.999Z</time></trkpt><trkpt lat="43.24890007616485" lon="12.379800861361224"><ele>238.0</ele><time>2026-04-19T10:34:13.999Z</time></trkpt><trkpt lat="43.24878417529202" lon="12.379362223634292"><ele>242.0</ele><time>2026-04-19T10:34:14.999Z</time></trkpt><trkpt lat="43.24865846905934" lon="12.378920583916592"><ele>240.0</ele><time>2026-04-19T10:34:15.999Z</time></trkpt><trkpt lat="43.24854129025356" lon="12.37846279456205"><ele>238.0</ele><time>2026-04-19T10:34:16.999Z</time></trkpt><trkpt lat="43.24841678266681" lon="12.378003621403929"><ele>237.0</ele><time>2026-04-19T10:34:17.999Z</time></trkpt><trkpt lat="43.24828492535252" lon="12.377551784589787"><ele>236.0</ele><time>2026-04-19T10:34:18.999Z</time></trkpt><trkpt lat="43.24815653307524" lon="12.377113692886878"><ele>237.5</ele><time>2026-04-19T10:34:19.999Z</time></trkpt><trkpt lat="43.24804076158269" lon="12.376680379579186"><ele>239.0</ele><time>2026-04-19T10:34:20.999Z</time></trkpt><trkpt lat="43.24796929586915" lon="12.376229540500207"><ele>239.0</ele><time>2026-04-19T10:34:21.999Z</time></trkpt><trkpt lat="43.24792525360529" lon="12.375772171903579"><ele>239.0</ele><time>2026-04-19T10:34:22.999Z</time></trkpt><trkpt lat="43.24784894208636" lon="12.375324969665892"><ele>239.0</ele><time>2026-04-19T10:34:23.999Z</time></trkpt><trkpt lat="43.24794129738493" lon="12.374815358465604"><ele>239.0</ele><time>2026-04-19T10:34:24.999Z</time></trkpt><trkpt lat="43.2479379367093" lon="12.37433623122356"><ele>239.0</ele><time>2026-04-19T10:34:25.999Z</time></trkpt><trkpt lat="43.24793284257137" lon="12.373856883306042"><ele>239.0</ele><time>2026-04-19T10:34:26.999Z</time></trkpt><trkpt lat="43.247929892436986" lon="12.373382005544299"><ele>241.0</ele><time>2026-04-19T10:34:27.999Z</time></trkpt><trkpt lat="43.24792574738292" lon="12.372907362936154"><ele>243.0</ele><time>2026-04-19T10:34:28.999Z</time></trkpt><trkpt lat="43.24792487908454" lon="12.372438368746158"><ele>243.0</ele><time>2026-04-19T10:34:29.999Z</time></trkpt><trkpt lat="43.24791941014866" lon="12.371969039704885"><ele>243.0</ele><time>2026-04-19T10:34:30.999Z</time></trkpt><trkpt lat="43.247917977090715" lon="12.37150939395925"><ele>245.5</ele><time>2026-04-19T10:34:31.999Z</time></trkpt><trkpt lat="43.24792246179755" lon="12.37105280457651"><ele>248.0</ele><time>2026-04-19T10:34:33Z</time></trkpt><trkpt lat="43.247922483229466" lon="12.370594720039067"><ele>252.5</ele><time>2026-04-19T10:34:34Z</time></trkpt><trkpt lat="43.24791460031048" lon="12.370147348626906"><ele>257.0</ele><time>2026-04-19T10:34:35Z</time></trkpt><trkpt lat="43.24791721075208" lon="12.369727732377816"><ele>262.0</ele><time>2026-04-19T10:34:36Z</time></trkpt><trkpt lat="43.24788439226118" lon="12.369287973078238"><ele>267.0</ele><time>2026-04-19T10:34:37Z</time></trkpt><trkpt lat="43.247897498170886" lon="12.36888081755668"><ele>269.0</ele><time>2026-04-19T10:34:38Z</time></trkpt><trkpt lat="43.24794809597865" lon="12.368458576153683"><ele>271.0</ele><time>2026-04-19T10:34:39Z</time></trkpt><trkpt lat="43.248083053580714" lon="12.368116847312647"><ele>258.5</ele><time>2026-04-19T10:34:40Z</time></trkpt><trkpt lat="43.24819932862659" lon="12.36777059891458"><ele>246.0</ele><time>2026-04-19T10:34:41Z</time></trkpt><trkpt lat="43.248285802874385" lon="12.367431501180027"><ele>249.5</ele><time>2026-04-19T10:34:42Z</time></trkpt><trkpt lat="43.24835256173361" lon="12.367096243032183"><ele>253.0</ele><time>2026-04-19T10:34:43Z</time></trkpt><trkpt lat="43.248408931470486" lon="12.366764769049528"><ele>253.0</ele><time>2026-04-19T10:34:44Z</time></trkpt><trkpt lat="43.248420320783" lon="12.366403104819492"><ele>253.0</ele><time>2026-04-19T10:34:45Z</time></trkpt><trkpt lat="43.24841330237639" lon="12.366038058701205"><ele>252.33333333333331</ele><time>2026-04-19T10:34:46Z</time></trkpt><trkpt lat="43.248403308511485" lon="12.365739671035582"><ele>251.66666666666669</ele><time>2026-04-19T10:34:47Z</time></trkpt><trkpt lat="43.248394164284626" lon="12.365473492794361"><ele>251.0</ele><time>2026-04-19T10:34:48Z</time></trkpt><trkpt lat="43.248340635046944" lon="12.36522764395953"><ele>249.33333333333334</ele><time>2026-04-19T10:34:49Z</time></trkpt><trkpt lat="43.248215584106106" lon="12.36502057213986"><ele>247.66666666666669</ele><time>2026-04-19T10:34:50Z</time></trkpt><trkpt lat="43.248080153008296" lon="12.3647848708419"><ele>246.0</ele><time>2026-04-19T10:34:51Z</time></trkpt><trkpt lat="43.2479102383619" lon="12.364626294579514"><ele>251.5</ele><time>2026-04-19T10:34:52Z</time></trkpt><trkpt lat="43.24772183620101" lon="12.364424274976036"><ele>257.0</ele><time>2026-04-19T10:34:53Z</time></trkpt><trkpt lat="43.247582106115985" lon="12.364114728464607"><ele>255.0</ele><time>2026-04-19T10:34:54Z</time></trkpt><trkpt lat="43.24734321937811" lon="12.363833966538673"><ele>253.0</ele><time>2026-04-19T10:34:55Z</time></trkpt><trkpt lat="43.2471907652986" lon="12.363467578532932"><ele>264.0</ele><time>2026-04-19T10:34:56Z</time></trkpt><trkpt lat="43.24705003502547" lon="12.363118781442694"><ele>275.0</ele><time>2026-04-19T10:34:57Z</time></trkpt><trkpt lat="43.24690392035305" lon="12.362759605202415"><ele>275.0</ele><time>2026-04-19T10:34:58Z</time></trkpt><trkpt lat="43.24675063939068" lon="12.362388981698958"><ele>275.0</ele><time>2026-04-19T10:34:59Z</time></trkpt><trkpt lat="43.24659018662758" lon="12.362019383209047"><ele>286.0</ele><time>2026-04-19T10:35:00Z</time></trkpt><trkpt lat="43.246433097493544" lon="12.361643244322455"><ele>297.0</ele><time>2026-04-19T10:35:01Z</time></trkpt><trkpt lat="43.2462936821682" lon="12.361272046028061"><ele>297.0</ele><time>2026-04-19T10:35:02Z</time></trkpt><trkpt lat="43.24613823150288" lon="12.360885966942877"><ele>297.0</ele><time>2026-04-19T10:35:03Z</time></trkpt><trkpt lat="43.24599747170059" lon="12.360543664334878"><ele>288.5</ele><time>2026-04-19T10:35:04Z</time></trkpt><trkpt lat="43.2458553150718" lon="12.360219789535728"><ele>280.0</ele><time>2026-04-19T10:35:05Z</time></trkpt><trkpt lat="43.24575298659906" lon="12.359968021432872"><ele>280.0</ele><time>2026-04-19T10:35:06Z</time></trkpt><trkpt lat="43.24565495373988" lon="12.359720630002432"><ele>280.0</ele><time>2026-04-19T10:35:07Z</time></trkpt><trkpt lat="43.24555521747937" lon="12.359550439273884"><ele>280.0</ele><time>2026-04-19T10:35:08Z</time></trkpt><trkpt lat="43.24543436429629" lon="12.359474531735895"><ele>280.3333333333333</ele><time>2026-04-19T10:35:09Z</time></trkpt><trkpt lat="43.24523300353226" lon="12.359439689740888"><ele>280.6666666666667</ele><time>2026-04-19T10:35:10Z</time></trkpt><trkpt lat="43.24506669058244" lon="12.359492362538646"><ele>281.0</ele><time>2026-04-19T10:35:11Z</time></trkpt><trkpt lat="43.24490986420673" lon="12.359604701836297"><ele>287.33333333333337</ele><time>2026-04-19T10:35:12Z</time></trkpt><trkpt lat="43.24471993308105" lon="12.35974455084933"><ele>293.6666666666667</ele><time>2026-04-19T10:35:13Z</time></trkpt><trkpt lat="43.2445049325095" lon="12.359868454990838"><ele>300.0</ele><time>2026-04-19T10:35:14Z</time></trkpt><trkpt lat="43.24430884656698" lon="12.359962739084667"><ele>300.0</ele><time>2026-04-19T10:35:15Z</time></trkpt><trkpt lat="43.24414453356127" lon="12.360030338858348"><ele>300.0</ele><time>2026-04-19T10:35:16Z</time></trkpt><trkpt lat="43.24397711382598" lon="12.360089174116263"><ele>300.0</ele><time>2026-04-19T10:35:17Z</time></trkpt><trkpt lat="43.24379736384157" lon="12.360100760851125"><ele>301.0</ele><time>2026-04-19T10:35:18Z</time></trkpt><trkpt lat="43.24363345124747" lon="12.360079260396073"><ele>302.0</ele><time>2026-04-19T10:35:19Z</time></trkpt><trkpt lat="43.24345373212606" lon="12.36003295106364"><ele>303.0</ele><time>2026-04-19T10:35:20Z</time></trkpt><trkpt lat="43.24328320902767" lon="12.359952003163711"><ele>307.3333333333333</ele><time>2026-04-19T10:35:21Z</time></trkpt><trkpt lat="43.243105701220074" lon="12.359885675554567"><ele>311.66666666666663</ele><time>2026-04-19T10:35:22Z</time></trkpt><trkpt lat="43.242930957313824" lon="12.359817955129548"><ele>316.0</ele><time>2026-04-19T10:35:23Z</time></trkpt><trkpt lat="43.24276640913738" lon="12.359765829171893"><ele>316.0</ele><time>2026-04-19T10:35:24Z</time></trkpt><trkpt lat="43.24259351124553" lon="12.359743461309623"><ele>316.0</ele><time>2026-04-19T10:35:25Z</time></trkpt><trkpt lat="43.24241285560048" lon="12.359749054901853"><ele>316.0</ele><time>2026-04-19T10:35:26Z</time></trkpt><trkpt lat="43.24224521571379" lon="12.359789881128727"><ele>318.3333333333333</ele><time>2026-04-19T10:35:27Z</time></trkpt><trkpt lat="43.24207010807007" lon="12.359851869642409"><ele>320.6666666666667</ele><time>2026-04-19T10:35:28Z</time></trkpt><trkpt lat="43.24194879289077" lon="12.359945090515483"><ele>323.0</ele><time>2026-04-19T10:35:29Z</time></trkpt><trkpt lat="43.241831622672" lon="12.360060838850826"><ele>323.0</ele><time>2026-04-19T10:35:30Z</time></trkpt><trkpt lat="43.24170449783808" lon="12.360149814922247"><ele>323.0</ele><time>2026-04-19T10:35:31Z</time></trkpt><trkpt lat="43.24158726461197" lon="12.360331891860602"><ele>323.0</ele><time>2026-04-19T10:35:32Z</time></trkpt><trkpt lat="43.2414656744106" lon="12.360497562544385"><ele>323.6666666666667</ele><time>2026-04-19T10:35:33Z</time></trkpt><trkpt lat="43.241340375022276" lon="12.360680560754304"><ele>324.3333333333333</ele><time>2026-04-19T10:35:34Z</time></trkpt><trkpt lat="43.241209243693845" lon="12.360856481458347"><ele>325.0</ele><time>2026-04-19T10:35:35Z</time></trkpt><trkpt lat="43.24106749746844" lon="12.361048926688316"><ele>325.0</ele><time>2026-04-19T10:35:36Z</time></trkpt><trkpt lat="43.240919997402415" lon="12.36125516773065"><ele>325.0</ele><time>2026-04-19T10:35:37Z</time></trkpt><trkpt lat="43.24076870541608" lon="12.361464838881188"><ele>325.0</ele><time>2026-04-19T10:35:38Z</time></trkpt><trkpt lat="43.24061906966714" lon="12.361684889002646"><ele>321.3333333333333</ele><time>2026-04-19T10:35:39Z</time></trkpt><trkpt lat="43.24042736426348" lon="12.361827849868273"><ele>317.6666666666667</ele><time>2026-04-19T10:35:40Z</time></trkpt><trkpt lat="43.240214468727785" lon="12.36192654650083"><ele>314.0</ele><time>2026-04-19T10:35:41Z</time></trkpt><trkpt lat="43.239988750407264" lon="12.361953700827657"><ele>314.0</ele><time>2026-04-19T10:35:42Z</time></trkpt><trkpt lat="43.23976553501194" lon="12.361941716356396"><ele>314.0</ele><time>2026-04-19T10:35:43Z</time></trkpt><trkpt lat="43.239561908691165" lon="12.361899774419236"><ele>314.0</ele><time>2026-04-19T10:35:44Z</time></trkpt><trkpt lat="43.23936546101103" lon="12.361869956827123"><ele>314.0</ele><time>2026-04-19T10:35:45Z</time></trkpt><trkpt lat="43.23916430892586" lon="12.361849219718533"><ele>314.0</ele><time>2026-04-19T10:35:46Z</time></trkpt><trkpt lat="43.238956621135095" lon="12.361829163481866"><ele>314.0</ele><time>2026-04-19T10:35:47Z</time></trkpt><trkpt lat="43.23874417398609" lon="12.361804146035132"><ele>314.5</ele><time>2026-04-19T10:35:48Z</time></trkpt><trkpt lat="43.238523607552104" lon="12.361769238573327"><ele>315.0</ele><time>2026-04-19T10:35:49Z</time></trkpt><trkpt lat="43.238300301562035" lon="12.361695530143397"><ele>309.5</ele><time>2026-04-19T10:35:50Z</time></trkpt><trkpt lat="43.23809254877694" lon="12.361569356917697"><ele>304.0</ele><time>2026-04-19T10:35:51Z</time></trkpt><trkpt lat="43.23789490855844" lon="12.36137855881345"><ele>310.5</ele><time>2026-04-19T10:35:52Z</time></trkpt><trkpt lat="43.237703843143116" lon="12.361128674765656"><ele>317.0</ele><time>2026-04-19T10:35:53Z</time></trkpt><trkpt lat="43.23749384615986" lon="12.360861248316604"><ele>316.0</ele><time>2026-04-19T10:35:54Z</time></trkpt><trkpt lat="43.23726381457261" lon="12.360581359390109"><ele>315.0</ele><time>2026-04-19T10:35:55Z</time></trkpt><trkpt lat="43.23704941102333" lon="12.360326179380316"><ele>315.0</ele><time>2026-04-19T10:35:56Z</time></trkpt><trkpt lat="43.23686238328579" lon="12.360104098157995"><ele>315.0</ele><time>2026-04-19T10:35:57Z</time></trkpt><trkpt lat="43.23669129069211" lon="12.359902590705724"><ele>315.0</ele><time>2026-04-19T10:35:58Z</time></trkpt><trkpt lat="43.236534615247415" lon="12.35970265763082"><ele>315.0</ele><time>2026-04-19T10:35:59Z</time></trkpt><trkpt lat="43.2363731222808" lon="12.359466018101687"><ele>315.0</ele><time>2026-04-19T10:36:00Z</time></trkpt><trkpt lat="43.23622518853046" lon="12.359227435428435"><ele>315.0</ele><time>2026-04-19T10:36:01Z</time></trkpt><trkpt lat="43.23608301595243" lon="12.359015959285825"><ele>315.0</ele><time>2026-04-19T10:36:02Z</time></trkpt><trkpt lat="43.23594087521909" lon="12.358804289481629"><ele>314.6666666666667</ele><time>2026-04-19T10:36:03Z</time></trkpt><trkpt lat="43.23579768280288" lon="12.358600963907305"><ele>314.33333333333337</ele><time>2026-04-19T10:36:04Z</time></trkpt><trkpt lat="43.235671945388596" lon="12.358416052257722"><ele>314.0</ele><time>2026-04-19T10:36:05Z</time></trkpt><trkpt lat="43.235549639216316" lon="12.358234990571319"><ele>314.0</ele><time>2026-04-19T10:36:06Z</time></trkpt><trkpt lat="43.23542567062451" lon="12.358054646272013"><ele>314.0</ele><time>2026-04-19T10:36:07Z</time></trkpt><trkpt lat="43.23530906349758" lon="12.357875663742538"><ele>314.0</ele><time>2026-04-19T10:36:08Z</time></trkpt><trkpt lat="43.235193390394954" lon="12.357697631842134"><ele>319.6666666666667</ele><time>2026-04-19T10:36:09Z</time></trkpt><trkpt lat="43.235075126374944" lon="12.357522268622837"><ele>325.3333333333333</ele><time>2026-04-19T10:36:09.999Z</time></trkpt><trkpt lat="43.23495983253964" lon="12.3573462468434"><ele>331.0</ele><time>2026-04-19T10:36:10.999Z</time></trkpt><trkpt lat="43.23484106652667" lon="12.357167514349884"><ele>328.0</ele><time>2026-04-19T10:36:11.999Z</time></trkpt><trkpt lat="43.23471624865732" lon="12.356976590149348"><ele>325.0</ele><time>2026-04-19T10:36:12.999Z</time></trkpt><trkpt lat="43.23458864589508" lon="12.356779370971703"><ele>322.0</ele><time>2026-04-19T10:36:13.999Z</time></trkpt><trkpt lat="43.23447468856867" lon="12.356582366816747"><ele>326.66666666666663</ele><time>2026-04-19T10:36:14.999Z</time></trkpt><trkpt lat="43.234383657797366" lon="12.356364072799696"><ele>331.3333333333333</ele><time>2026-04-19T10:36:15.999Z</time></trkpt><trkpt lat="43.2343205606423" lon="12.356128715466694"><ele>336.0</ele><time>2026-04-19T10:36:16.999Z</time></trkpt><trkpt lat="43.234266574290274" lon="12.355879424997566"><ele>336.0</ele><time>2026-04-19T10:36:17.999Z</time></trkpt><trkpt lat="43.234212413748836" lon="12.355630087347333"><ele>336.0</ele><time>2026-04-19T10:36:18.999Z</time></trkpt><trkpt lat="43.234173966351285" lon="12.355390062094854"><ele>336.0</ele><time>2026-04-19T10:36:19.999Z</time></trkpt><trkpt lat="43.23414054795234" lon="12.35516428229567"><ele>339.3333333333333</ele><time>2026-04-19T10:36:20.999Z</time></trkpt><trkpt lat="43.23409470333332" lon="12.354943441730594"><ele>342.66666666666663</ele><time>2026-04-19T10:36:21.999Z</time></trkpt><trkpt lat="43.23404412552719" lon="12.35472129727846"><ele>346.0</ele><time>2026-04-19T10:36:22.999Z</time></trkpt><trkpt lat="43.23398873192808" lon="12.354502872028085"><ele>343.3333333333333</ele><time>2026-04-19T10:36:23.999Z</time></trkpt><trkpt lat="43.233925919211124" lon="12.354287186737157"><ele>340.6666666666667</ele><time>2026-04-19T10:36:24.999Z</time></trkpt><trkpt lat="43.233857152808305" lon="12.354065673098997"><ele>338.0</ele><time>2026-04-19T10:36:25.999Z</time></trkpt><trkpt lat="43.23376821169704" lon="12.353850294757306"><ele>338.0</ele><time>2026-04-19T10:36:26.999Z</time></trkpt><trkpt lat="43.233654872646945" lon="12.353631588592764"><ele>338.0</ele><time>2026-04-19T10:36:27.999Z</time></trkpt><trkpt lat="43.233522589447794" lon="12.35339424979692"><ele>338.0</ele><time>2026-04-19T10:36:28.999Z</time></trkpt><trkpt lat="43.2333798728656" lon="12.353141824128002"><ele>336.5</ele><time>2026-04-19T10:36:29.999Z</time></trkpt><trkpt lat="43.23324249480236" lon="12.352881261277547"><ele>335.0</ele><time>2026-04-19T10:36:30.999Z</time></trkpt><trkpt lat="43.233100150193586" lon="12.352620091670799"><ele>335.0</ele><time>2026-04-19T10:36:31.999Z</time></trkpt><trkpt lat="43.23294660295995" lon="12.352339167181325"><ele>335.0</ele><time>2026-04-19T10:36:32.999Z</time></trkpt><trkpt lat="43.23278634962356" lon="12.35205170844359"><ele>344.5</ele><time>2026-04-19T10:36:33.999Z</time></trkpt><trkpt lat="43.23264182006734" lon="12.351777653069325"><ele>354.0</ele><time>2026-04-19T10:36:34.999Z</time></trkpt><trkpt lat="43.23251219804983" lon="12.351546262557466"><ele>350.6666666666667</ele><time>2026-04-19T10:36:35.999Z</time></trkpt><trkpt lat="43.232399706575116" lon="12.351332282305904"><ele>347.33333333333337</ele><time>2026-04-19T10:36:36.999Z</time></trkpt><trkpt lat="43.23228197449337" lon="12.35110575482354"><ele>344.0</ele><time>2026-04-19T10:36:37.999Z</time></trkpt><trkpt lat="43.23215920775012" lon="12.350860921209254"><ele>344.0</ele><time>2026-04-19T10:36:39Z</time></trkpt><trkpt lat="43.232039061309976" lon="12.350633599606436"><ele>344.0</ele><time>2026-04-19T10:36:40Z</time></trkpt><trkpt lat="43.231930574915644" lon="12.350432073889033"><ele>344.0</ele><time>2026-04-19T10:36:41Z</time></trkpt><trkpt lat="43.23183130824079" lon="12.350241363292508"><ele>348.6666666666667</ele><time>2026-04-19T10:36:42Z</time></trkpt><trkpt lat="43.23172242077762" lon="12.35003144738575"><ele>353.3333333333333</ele><time>2026-04-19T10:36:43Z</time></trkpt><trkpt lat="43.23160800028517" lon="12.349814395584227"><ele>358.0</ele><time>2026-04-19T10:36:44Z</time></trkpt><trkpt lat="43.23150180630544" lon="12.349610819632547"><ele>351.66666666666663</ele><time>2026-04-19T10:36:45Z</time></trkpt><trkpt lat="43.231407114860275" lon="12.349422821375317"><ele>345.3333333333333</ele><time>2026-04-19T10:36:46Z</time></trkpt><trkpt lat="43.23131522537548" lon="12.34924877579326"><ele>339.0</ele><time>2026-04-19T10:36:47Z</time></trkpt><trkpt lat="43.23122705109547" lon="12.349080143126354"><ele>339.0</ele><time>2026-04-19T10:36:48Z</time></trkpt><trkpt lat="43.23114437265296" lon="12.348932237800632"><ele>339.0</ele><time>2026-04-19T10:36:49Z</time></trkpt><trkpt lat="43.23106825760902" lon="12.348786480745147"><ele>339.0</ele><time>2026-04-19T10:36:50Z</time></trkpt><trkpt lat="43.23098772923212" lon="12.348638715720552"><ele>339.0</ele><time>2026-04-19T10:36:51Z</time></trkpt><trkpt lat="43.23089222548135" lon="12.348466187279417"><ele>344.3333333333333</ele><time>2026-04-19T10:36:52Z</time></trkpt><trkpt lat="43.2307791809425" lon="12.34827955079756"><ele>349.66666666666663</ele><time>2026-04-19T10:36:53Z</time></trkpt><trkpt lat="43.23064418250233" lon="12.348076535688646"><ele>355.0</ele><time>2026-04-19T10:36:54Z</time></trkpt><trkpt lat="43.23050264258765" lon="12.347889736814455"><ele>355.0</ele><time>2026-04-19T10:36:55Z</time></trkpt><trkpt lat="43.23035388680156" lon="12.347720679552507"><ele>355.0</ele><time>2026-04-19T10:36:56Z</time></trkpt><trkpt lat="43.23020191702868" lon="12.347564799195364"><ele>355.0</ele><time>2026-04-19T10:36:57Z</time></trkpt><trkpt lat="43.23005100872251" lon="12.347444450324941"><ele>355.0</ele><time>2026-04-19T10:36:58Z</time></trkpt><trkpt lat="43.229877886563955" lon="12.34729528739967"><ele>355.0</ele><time>2026-04-19T10:36:59Z</time></trkpt><trkpt lat="43.22962828062475" lon="12.347204991170072"><ele>359.0</ele><time>2026-04-19T10:37:00Z</time></trkpt><trkpt lat="43.229332747791965" lon="12.34706421429578"><ele>363.0</ele><time>2026-04-19T10:37:01Z</time></trkpt><trkpt lat="43.229010797402495" lon="12.34692640699102"><ele>362.0</ele><time>2026-04-19T10:37:02Z</time></trkpt><trkpt lat="43.22870735719584" lon="12.346799444377027"><ele>361.0</ele><time>2026-04-19T10:37:03Z</time></trkpt><trkpt lat="43.228434012835166" lon="12.346678860582363"><ele>361.0</ele><time>2026-04-19T10:37:04Z</time></trkpt><trkpt lat="43.228166969203" lon="12.346559366868252"><ele>361.0</ele><time>2026-04-19T10:37:05Z</time></trkpt><trkpt lat="43.22790619376599" lon="12.346447532235223"><ele>362.0</ele><time>2026-04-19T10:37:06Z</time></trkpt><trkpt lat="43.227691227966794" lon="12.346312959670728"><ele>363.0</ele><time>2026-04-19T10:37:07Z</time></trkpt><trkpt lat="43.227499146223124" lon="12.346231443922976"><ele>364.0</ele><time>2026-04-19T10:37:08Z</time></trkpt><trkpt lat="43.22732679317525" lon="12.346158358163713"><ele>359.66666666666663</ele><time>2026-04-19T10:37:09Z</time></trkpt><trkpt lat="43.22714964694004" lon="12.34606462670958"><ele>355.3333333333333</ele><time>2026-04-19T10:37:10Z</time></trkpt><trkpt lat="43.22696650133001" lon="12.34593667705399"><ele>351.0</ele><time>2026-04-19T10:37:11Z</time></trkpt><trkpt lat="43.226791346749714" lon="12.345792196629297"><ele>351.0</ele><time>2026-04-19T10:37:12Z</time></trkpt><trkpt lat="43.22661579266491" lon="12.345633028760272"><ele>351.0</ele><time>2026-04-19T10:37:13Z</time></trkpt><trkpt lat="43.226448138673526" lon="12.345452923175191"><ele>351.0</ele><time>2026-04-19T10:37:14Z</time></trkpt><trkpt lat="43.226300956492956" lon="12.345267475462041"><ele>352.3333333333333</ele><time>2026-04-19T10:37:15Z</time></trkpt><trkpt lat="43.2261691105131" lon="12.3450741240768"><ele>353.66666666666663</ele><time>2026-04-19T10:37:16Z</time></trkpt><trkpt lat="43.22604152141488" lon="12.344895874086149"><ele>355.0</ele><time>2026-04-19T10:37:17Z</time></trkpt><trkpt lat="43.22593591464445" lon="12.344685723556031"><ele>355.0</ele><time>2026-04-19T10:37:18Z</time></trkpt><trkpt lat="43.22582692260212" lon="12.344443164055162"><ele>355.0</ele><time>2026-04-19T10:37:19Z</time></trkpt><trkpt lat="43.22571672804416" lon="12.344163141343227"><ele>355.0</ele><time>2026-04-19T10:37:20Z</time></trkpt><trkpt lat="43.22562110703655" lon="12.343855641392532"><ele>361.5</ele><time>2026-04-19T10:37:21Z</time></trkpt><trkpt lat="43.22554989166334" lon="12.34352116081483"><ele>368.0</ele><time>2026-04-19T10:37:22Z</time></trkpt><trkpt lat="43.225507216442686" lon="12.343197480417029"><ele>367.5</ele><time>2026-04-19T10:37:23Z</time></trkpt><trkpt lat="43.22546276690194" lon="12.34288212961341"><ele>367.0</ele><time>2026-04-19T10:37:24Z</time></trkpt><trkpt lat="43.225413197515515" lon="12.342553194371778"><ele>367.0</ele><time>2026-04-19T10:37:25Z</time></trkpt><trkpt lat="43.22537181148473" lon="12.342226700262263"><ele>367.0</ele><time>2026-04-19T10:37:26Z</time></trkpt><trkpt lat="43.22532940015848" lon="12.34194064554003"><ele>366.0</ele><time>2026-04-19T10:37:27Z</time></trkpt><trkpt lat="43.22529460802788" lon="12.341700922578692"><ele>365.0</ele><time>2026-04-19T10:37:28Z</time></trkpt><trkpt lat="43.22526664934582" lon="12.341490497282889"><ele>364.0</ele><time>2026-04-19T10:37:29Z</time></trkpt><trkpt lat="43.22523623409531" lon="12.341286830511367"><ele>363.3333333333333</ele><time>2026-04-19T10:37:30Z</time></trkpt><trkpt lat="43.22518733345379" lon="12.341049124143675"><ele>362.6666666666667</ele><time>2026-04-19T10:37:31Z</time></trkpt><trkpt lat="43.225139216418576" lon="12.34077313777865"><ele>362.0</ele><time>2026-04-19T10:37:32Z</time></trkpt><trkpt lat="43.22512083237174" lon="12.34050794313364"><ele>361.5</ele><time>2026-04-19T10:37:33Z</time></trkpt><trkpt lat="43.22511574102808" lon="12.34030798965933"><ele>361.0</ele><time>2026-04-19T10:37:34Z</time></trkpt><trkpt lat="43.22511919084432" lon="12.340145614763602"><ele>360.5</ele><time>2026-04-19T10:37:35Z</time></trkpt><trkpt lat="43.22513441943883" lon="12.33999152024459"><ele>360.0</ele><time>2026-04-19T10:37:36Z</time></trkpt><trkpt lat="43.22515942328131" lon="12.339846242894085"><ele>360.0</ele><time>2026-04-19T10:37:37Z</time></trkpt><trkpt lat="43.22518689181315" lon="12.339718367642377"><ele>360.0</ele><time>2026-04-19T10:37:38Z</time></trkpt><trkpt lat="43.22522119530167" lon="12.339604327419998"><ele>360.0</ele><time>2026-04-19T10:37:39Z</time></trkpt><trkpt lat="43.225254317537285" lon="12.339497659106874"><ele>360.0</ele><time>2026-04-19T10:37:40Z</time></trkpt><trkpt lat="43.22528566879441" lon="12.339394128624509"><ele>360.0</ele><time>2026-04-19T10:37:41Z</time></trkpt><trkpt lat="43.22531070491625" lon="12.339293063530619"><ele>360.0</ele><time>2026-04-19T10:37:42Z</time></trkpt><trkpt lat="43.22531516722771" lon="12.339197321593792"><ele>360.8</ele><time>2026-04-19T10:37:43Z</time></trkpt><trkpt lat="43.225361180323986" lon="12.339034504561585"><ele>361.6</ele><time>2026-04-19T10:37:45Z</time></trkpt><trkpt lat="43.225434190001714" lon="12.338963203669216"><ele>362.4</ele><time>2026-04-19T10:37:46Z</time></trkpt><trkpt lat="43.22546022829911" lon="12.33886525476824"><ele>363.2</ele><time>2026-04-19T10:37:47Z</time></trkpt><trkpt lat="43.22546197284536" lon="12.338754360325437"><ele>364.0</ele><time>2026-04-19T10:37:48Z</time></trkpt><trkpt lat="43.225432887667544" lon="12.338645698526184"><ele>365.2</ele><time>2026-04-19T10:37:49Z</time></trkpt><trkpt lat="43.22538407279621" lon="12.338550705484751"><ele>366.4</ele><time>2026-04-19T10:37:50Z</time></trkpt><trkpt lat="43.22531597594362" lon="12.338469399525858"><ele>367.6</ele><time>2026-04-19T10:37:51Z</time></trkpt><trkpt lat="43.22524319599532" lon="12.338427082051608"><ele>368.8</ele><time>2026-04-19T10:37:52Z</time></trkpt><trkpt lat="43.225227213688804" lon="12.338225826946067"><ele>370.0</ele><time>2026-04-19T10:37:53Z</time></trkpt><trkpt lat="43.22521089386889" lon="12.338033326676683"><ele>370.66666666666663</ele><time>2026-04-19T10:37:54Z</time></trkpt><trkpt lat="43.22521968533777" lon="12.337775309401316"><ele>371.3333333333333</ele><time>2026-04-19T10:37:55Z</time></trkpt><trkpt lat="43.22525065350964" lon="12.337477898435784"><ele>372.0</ele><time>2026-04-19T10:37:56Z</time></trkpt><trkpt lat="43.225264148898916" lon="12.337171126938049"><ele>372.5</ele><time>2026-04-19T10:37:57Z</time></trkpt><trkpt lat="43.225266898996196" lon="12.336793801419178"><ele>373.0</ele><time>2026-04-19T10:37:58Z</time></trkpt><trkpt lat="43.22526366225959" lon="12.336405475611409"><ele>374.0</ele><time>2026-04-19T10:37:59Z</time></trkpt><trkpt lat="43.22521423040081" lon="12.336018048718548"><ele>375.0</ele><time>2026-04-19T10:38:00Z</time></trkpt><trkpt lat="43.22512827451237" lon="12.335624738971944"><ele>377.5</ele><time>2026-04-19T10:38:01Z</time></trkpt><trkpt lat="43.22503998898478" lon="12.335206173705469"><ele>380.0</ele><time>2026-04-19T10:38:02Z</time></trkpt><trkpt lat="43.224945062177376" lon="12.33475939801124"><ele>383.0</ele><time>2026-04-19T10:38:03Z</time></trkpt><trkpt lat="43.22484658535818" lon="12.334276332924857"><ele>386.0</ele><time>2026-04-19T10:38:04Z</time></trkpt><trkpt lat="43.22474459549128" lon="12.333782293608767"><ele>386.0</ele><time>2026-04-19T10:38:05Z</time></trkpt><trkpt lat="43.22464413330318" lon="12.333293259397326"><ele>386.0</ele><time>2026-04-19T10:38:06Z</time></trkpt><trkpt lat="43.22455204332771" lon="12.33285724575429"><ele>385.0</ele><time>2026-04-19T10:38:07Z</time></trkpt><trkpt lat="43.22446161328255" lon="12.33246677555208"><ele>384.0</ele><time>2026-04-19T10:38:08Z</time></trkpt><trkpt lat="43.22436058229072" lon="12.332101038855471"><ele>384.0</ele><time>2026-04-19T10:38:09Z</time></trkpt><trkpt lat="43.22423286396517" lon="12.33168702335593"><ele>384.0</ele><time>2026-04-19T10:38:10Z</time></trkpt><trkpt lat="43.22411251111582" lon="12.331323891983011"><ele>384.0</ele><time>2026-04-19T10:38:11Z</time></trkpt><trkpt lat="43.22399232451442" lon="12.330987425813591"><ele>384.0</ele><time>2026-04-19T10:38:12Z</time></trkpt><trkpt lat="43.22386926486277" lon="12.330660481629721"><ele>380.5</ele><time>2026-04-19T10:38:13Z</time></trkpt><trkpt lat="43.223694833666094" lon="12.330294119851505"><ele>377.0</ele><time>2026-04-19T10:38:14Z</time></trkpt><trkpt lat="43.22352682737559" lon="12.329941202340425"><ele>377.5</ele><time>2026-04-19T10:38:15Z</time></trkpt><trkpt lat="43.22335097461238" lon="12.329578872312712"><ele>378.0</ele><time>2026-04-19T10:38:15.999Z</time></trkpt><trkpt lat="43.22318079628732" lon="12.329205338396031"><ele>380.0</ele><time>2026-04-19T10:38:16.999Z</time></trkpt><trkpt lat="43.22300743068739" lon="12.328824978800073"><ele>382.0</ele><time>2026-04-19T10:38:17.999Z</time></trkpt><trkpt lat="43.222828160631266" lon="12.328452804157076"><ele>382.0</ele><time>2026-04-19T10:38:18.999Z</time></trkpt><trkpt lat="43.22265667431522" lon="12.328071219695667"><ele>382.0</ele><time>2026-04-19T10:38:19.999Z</time></trkpt><trkpt lat="43.22249344930578" lon="12.327695024350513"><ele>380.0</ele><time>2026-04-19T10:38:20.999Z</time></trkpt><trkpt lat="43.22233268990827" lon="12.327334293067352"><ele>378.0</ele><time>2026-04-19T10:38:21.999Z</time></trkpt><trkpt lat="43.22223512050821" lon="12.327062981197875"><ele>378.0</ele><time>2026-04-19T10:38:22.999Z</time></trkpt><trkpt lat="43.2221065652452" lon="12.326783380467734"><ele>378.0</ele><time>2026-04-19T10:38:23.999Z</time></trkpt><trkpt lat="43.22198680097192" lon="12.326578572134913"><ele>378.0</ele><time>2026-04-19T10:38:24.999Z</time></trkpt><trkpt lat="43.221834858388185" lon="12.326395436669848"><ele>379.0</ele><time>2026-04-19T10:38:25.999Z</time></trkpt><trkpt lat="43.22169258814772" lon="12.326166662960537"><ele>380.0</ele><time>2026-04-19T10:38:26.999Z</time></trkpt><trkpt lat="43.221526838534025" lon="12.325907893198059"><ele>377.5</ele><time>2026-04-19T10:38:27.999Z</time></trkpt><trkpt lat="43.22117350867281" lon="12.325848551020968"><ele>375.0</ele><time>2026-04-19T10:38:28.999Z</time></trkpt><trkpt lat="43.220879284689104" lon="12.32569841046933"><ele>374.5</ele><time>2026-04-19T10:38:29.999Z</time></trkpt><trkpt lat="43.22056185192246" lon="12.32550333491094"><ele>374.0</ele><time>2026-04-19T10:38:30.999Z</time></trkpt><trkpt lat="43.22021511384093" lon="12.32528970803141"><ele>374.0</ele><time>2026-04-19T10:38:31.999Z</time></trkpt><trkpt lat="43.219876079186385" lon="12.325072758754638"><ele>374.0</ele><time>2026-04-19T10:38:32.999Z</time></trkpt><trkpt lat="43.219586080004696" lon="12.32487420774735"><ele>375.0</ele><time>2026-04-19T10:38:33.999Z</time></trkpt><trkpt lat="43.219319291662906" lon="12.32469383938619"><ele>376.0</ele><time>2026-04-19T10:38:34.999Z</time></trkpt><trkpt lat="43.21907952777501" lon="12.324542834702335"><ele>375.0</ele><time>2026-04-19T10:38:35.999Z</time></trkpt><trkpt lat="43.218877063927515" lon="12.32441229704359"><ele>374.0</ele><time>2026-04-19T10:38:36.999Z</time></trkpt><trkpt lat="43.21869214091922" lon="12.324297954127278"><ele>373.0</ele><time>2026-04-19T10:38:37.999Z</time></trkpt><trkpt lat="43.21851963123467" lon="12.324196956973026"><ele>373.0</ele><time>2026-04-19T10:38:38.999Z</time></trkpt><trkpt lat="43.218339805172064" lon="12.324111540350845"><ele>373.0</ele><time>2026-04-19T10:38:39.999Z</time></trkpt><trkpt lat="43.21816300654" lon="12.32404659603254"><ele>373.0</ele><time>2026-04-19T10:38:40.999Z</time></trkpt><trkpt lat="43.21799676472197" lon="12.323997052980623"><ele>373.5</ele><time>2026-04-19T10:38:41.999Z</time></trkpt><trkpt lat="43.217836537381835" lon="12.323961919256156"><ele>374.0</ele><time>2026-04-19T10:38:42.999Z</time></trkpt><trkpt lat="43.2176914213308" lon="12.32392820928136"><ele>374.5</ele><time>2026-04-19T10:38:43.999Z</time></trkpt><trkpt lat="43.217568489001074" lon="12.323880887758035"><ele>375.0</ele><time>2026-04-19T10:38:45Z</time></trkpt><trkpt lat="43.21745489090068" lon="12.323856905714843"><ele>374.0</ele><time>2026-04-19T10:38:46.001Z</time></trkpt><trkpt lat="43.21736127176917" lon="12.323835783951973"><ele>373.0</ele><time>2026-04-19T10:38:47Z</time></trkpt><trkpt lat="43.21728800955133" lon="12.32379660426578"><ele>372.0</ele><time>2026-04-19T10:38:48Z</time></trkpt><trkpt lat="43.21721396627047" lon="12.323760386334373"><ele>371.0</ele><time>2026-04-19T10:38:49Z</time></trkpt><trkpt lat="43.217085892359584" lon="12.323716286337966"><ele>370.0</ele><time>2026-04-19T10:38:51Z</time></trkpt><trkpt lat="43.21698770912929" lon="12.323704574550913"><ele>370.5</ele><time>2026-04-19T10:38:53Z</time></trkpt><trkpt lat="43.21681144529706" lon="12.323684603430424"><ele>371.0</ele><time>2026-04-19T10:41:06Z</time></trkpt><trkpt lat="43.216705598462646" lon="12.32360907983224"><ele>371.5</ele><time>2026-04-19T10:41:07Z</time></trkpt><trkpt lat="43.21659338247828" lon="12.323510370215896"><ele>372.0</ele><time>2026-04-19T10:41:08Z</time></trkpt><trkpt lat="43.216483634254224" lon="12.323391196145604"><ele>372.0</ele><time>2026-04-19T10:41:09Z</time></trkpt><trkpt lat="43.216377829893986" lon="12.323244795067245"><ele>372.0</ele><time>2026-04-19T10:41:10Z</time></trkpt><trkpt lat="43.21627857680735" lon="12.323075780081194"><ele>372.0</ele><time>2026-04-19T10:41:11Z</time></trkpt><trkpt lat="43.21618436486714" lon="12.322901451140265"><ele>368.75</ele><time>2026-04-19T10:41:12Z</time></trkpt><trkpt lat="43.21609340446304" lon="12.322759057089563"><ele>365.5</ele><time>2026-04-19T10:41:13Z</time></trkpt><trkpt lat="43.216001344683946" lon="12.322637696500303"><ele>362.25</ele><time>2026-04-19T10:41:14Z</time></trkpt><trkpt lat="43.2158735314192" lon="12.322565890521147"><ele>359.0</ele><time>2026-04-19T10:41:15Z</time></trkpt><trkpt lat="43.21568396011137" lon="12.322572988936411"><ele>358.5</ele><time>2026-04-19T10:41:16Z</time></trkpt><trkpt lat="43.21545514754121" lon="12.322605965473329"><ele>358.0</ele><time>2026-04-19T10:41:17Z</time></trkpt><trkpt lat="43.215199185878895" lon="12.322613579144175"><ele>358.0</ele><time>2026-04-19T10:41:18Z</time></trkpt><trkpt lat="43.21495140950763" lon="12.32255603087399"><ele>358.0</ele><time>2026-04-19T10:41:19Z</time></trkpt><trkpt lat="43.21466410112703" lon="12.322493445038507"><ele>357.5</ele><time>2026-04-19T10:41:20Z</time></trkpt><trkpt lat="43.214365192114464" lon="12.322459133881217"><ele>357.0</ele><time>2026-04-19T10:41:21Z</time></trkpt><trkpt lat="43.214081629163466" lon="12.322462492119929"><ele>360.5</ele><time>2026-04-19T10:41:22Z</time></trkpt><trkpt lat="43.21382217033108" lon="12.322449321355332"><ele>364.0</ele><time>2026-04-19T10:41:23Z</time></trkpt><trkpt lat="43.213604342998146" lon="12.322338356456463"><ele>362.66666666666663</ele><time>2026-04-19T10:41:24Z</time></trkpt><trkpt lat="43.21342846653834" lon="12.322188300034485"><ele>361.3333333333333</ele><time>2026-04-19T10:41:25Z</time></trkpt><trkpt lat="43.2132598287427" lon="12.32197815065159"><ele>360.0</ele><time>2026-04-19T10:41:26Z</time></trkpt><trkpt lat="43.213061212178495" lon="12.321698814971635"><ele>360.0</ele><time>2026-04-19T10:41:27Z</time></trkpt><trkpt lat="43.21286580714978" lon="12.321420036584595"><ele>360.0</ele><time>2026-04-19T10:41:28Z</time></trkpt><trkpt lat="43.212637705617304" lon="12.321096460154445"><ele>356.5</ele><time>2026-04-19T10:41:29Z</time></trkpt><trkpt lat="43.212403757443525" lon="12.320853187606975"><ele>353.0</ele><time>2026-04-19T10:41:30Z</time></trkpt><trkpt lat="43.212115645941395" lon="12.320601210826004"><ele>347.0</ele><time>2026-04-19T10:41:31Z</time></trkpt><trkpt lat="43.21183826644949" lon="12.320358649631844"><ele>341.0</ele><time>2026-04-19T10:41:32Z</time></trkpt><trkpt lat="43.211587255027524" lon="12.320143280568049"><ele>341.5</ele><time>2026-04-19T10:41:33Z</time></trkpt><trkpt lat="43.211360267340844" lon="12.319935049500884"><ele>342.0</ele><time>2026-04-19T10:41:34Z</time></trkpt><trkpt lat="43.21114706662247" lon="12.31967574673222"><ele>342.0</ele><time>2026-04-19T10:41:35Z</time></trkpt><trkpt lat="43.210930330010875" lon="12.319354693369196"><ele>342.0</ele><time>2026-04-19T10:41:36Z</time></trkpt><trkpt lat="43.21072397511101" lon="12.319006536856318"><ele>342.0</ele><time>2026-04-19T10:41:37Z</time></trkpt><trkpt lat="43.21051574423303" lon="12.318703097393437"><ele>342.0</ele><time>2026-04-19T10:41:38Z</time></trkpt><trkpt lat="43.2103014232416" lon="12.318466446118087"><ele>342.0</ele><time>2026-04-19T10:41:39Z</time></trkpt><trkpt lat="43.210057730637274" lon="12.318269015850857"><ele>342.0</ele><time>2026-04-19T10:41:40Z</time></trkpt><trkpt lat="43.20980503774327" lon="12.318098029361849"><ele>336.5</ele><time>2026-04-19T10:41:41Z</time></trkpt><trkpt lat="43.20957316069362" lon="12.317884985643767"><ele>331.0</ele><time>2026-04-19T10:41:42Z</time></trkpt><trkpt lat="43.20930590780969" lon="12.31784514219991"><ele>331.0</ele><time>2026-04-19T10:41:43Z</time></trkpt><trkpt lat="43.20909101313645" lon="12.317753167771366"><ele>331.0</ele><time>2026-04-19T10:41:44Z</time></trkpt><trkpt lat="43.20887560722671" lon="12.317692957971733"><ele>331.0</ele><time>2026-04-19T10:41:45Z</time></trkpt><trkpt lat="43.20861533368577" lon="12.31769004454266"><ele>331.0</ele><time>2026-04-19T10:41:46Z</time></trkpt><trkpt lat="43.20836144402091" lon="12.317645055090582"><ele>331.0</ele><time>2026-04-19T10:41:47Z</time></trkpt><trkpt lat="43.20807336003275" lon="12.317733432891234"><ele>327.5</ele><time>2026-04-19T10:41:48Z</time></trkpt><trkpt lat="43.20781402490847" lon="12.317852335657216"><ele>324.0</ele><time>2026-04-19T10:41:49Z</time></trkpt><trkpt lat="43.207565015127095" lon="12.31796074587319"><ele>323.0</ele><time>2026-04-19T10:41:50Z</time></trkpt><trkpt lat="43.20731222347038" lon="12.317999696172807"><ele>322.0</ele><time>2026-04-19T10:41:51Z</time></trkpt><trkpt lat="43.207048375819184" lon="12.317964104729013"><ele>322.0</ele><time>2026-04-19T10:41:52Z</time></trkpt><trkpt lat="43.20678945702918" lon="12.317862572750345"><ele>322.0</ele><time>2026-04-19T10:41:53Z</time></trkpt><trkpt lat="43.20652582900498" lon="12.317685715277568"><ele>326.0</ele><time>2026-04-19T10:41:54Z</time></trkpt><trkpt lat="43.206279044439626" lon="12.317476353817693"><ele>330.0</ele><time>2026-04-19T10:41:55Z</time></trkpt><trkpt lat="43.20604315791772" lon="12.31728816461881"><ele>323.5</ele><time>2026-04-19T10:41:56Z</time></trkpt><trkpt lat="43.20578697446348" lon="12.317179402639203"><ele>317.0</ele><time>2026-04-19T10:41:57Z</time></trkpt><trkpt lat="43.20550582397084" lon="12.317120501323728"><ele>316.0</ele><time>2026-04-19T10:41:58Z</time></trkpt><trkpt lat="43.20520483241552" lon="12.317101774497305"><ele>315.0</ele><time>2026-04-19T10:41:59Z</time></trkpt><trkpt lat="43.204894870857075" lon="12.317093633818665"><ele>314.0</ele><time>2026-04-19T10:42:00Z</time></trkpt><trkpt lat="43.204578183569325" lon="12.31709744253365"><ele>313.0</ele><time>2026-04-19T10:42:01Z</time></trkpt><trkpt lat="43.204273559192515" lon="12.317157590917954"><ele>315.5</ele><time>2026-04-19T10:42:02Z</time></trkpt><trkpt lat="43.203961392713516" lon="12.317271133916611"><ele>318.0</ele><time>2026-04-19T10:42:03Z</time></trkpt><trkpt lat="43.203633092864216" lon="12.31741554671078"><ele>318.0</ele><time>2026-04-19T10:42:04Z</time></trkpt><trkpt lat="43.20330008736189" lon="12.317588011336492"><ele>318.0</ele><time>2026-04-19T10:42:05Z</time></trkpt><trkpt lat="43.20296720933192" lon="12.31776241848369"><ele>314.5</ele><time>2026-04-19T10:42:06Z</time></trkpt><trkpt lat="43.202623888220565" lon="12.31792808853589"><ele>311.0</ele><time>2026-04-19T10:42:07Z</time></trkpt><trkpt lat="43.202282407828825" lon="12.318083837053175"><ele>311.0</ele><time>2026-04-19T10:42:08Z</time></trkpt><trkpt lat="43.20194302036528" lon="12.318235445778672"><ele>311.0</ele><time>2026-04-19T10:42:09Z</time></trkpt><trkpt lat="43.20162890630695" lon="12.31836664680155"><ele>307.5</ele><time>2026-04-19T10:42:10Z</time></trkpt><trkpt lat="43.20133159385173" lon="12.318481206572697"><ele>304.0</ele><time>2026-04-19T10:42:11Z</time></trkpt><trkpt lat="43.20102104089742" lon="12.318588968964308"><ele>304.0</ele><time>2026-04-19T10:42:12Z</time></trkpt><trkpt lat="43.200711169001046" lon="12.318698108007528"><ele>304.0</ele><time>2026-04-19T10:42:13Z</time></trkpt><trkpt lat="43.200400426042776" lon="12.318809169355493"><ele>305.0</ele><time>2026-04-19T10:42:14Z</time></trkpt><trkpt lat="43.20008955133204" lon="12.31891901479778"><ele>306.0</ele><time>2026-04-19T10:42:15Z</time></trkpt><trkpt lat="43.1997771993474" lon="12.319026085882536"><ele>306.0</ele><time>2026-04-19T10:42:16Z</time></trkpt><trkpt lat="43.1994654770755" lon="12.319130352887647"><ele>306.0</ele><time>2026-04-19T10:42:17Z</time></trkpt><trkpt lat="43.19915448904477" lon="12.319240974056694"><ele>303.0</ele><time>2026-04-19T10:42:18Z</time></trkpt><trkpt lat="43.19885003572762" lon="12.319347235283889"><ele>300.0</ele><time>2026-04-19T10:42:19Z</time></trkpt><trkpt lat="43.19856814965985" lon="12.319447344619249"><ele>300.0</ele><time>2026-04-19T10:42:20Z</time></trkpt><trkpt lat="43.1982883797506" lon="12.319545529675137"><ele>300.0</ele><time>2026-04-19T10:42:21Z</time></trkpt><trkpt lat="43.19799864173626" lon="12.319654383189024"><ele>303.0</ele><time>2026-04-19T10:42:22Z</time></trkpt><trkpt lat="43.197704283970786" lon="12.31978084849734"><ele>306.0</ele><time>2026-04-19T10:42:23Z</time></trkpt><trkpt lat="43.19741972649157" lon="12.31994349950012"><ele>301.5</ele><time>2026-04-19T10:42:24Z</time></trkpt><trkpt lat="43.197152800409725" lon="12.32012133088033"><ele>297.0</ele><time>2026-04-19T10:42:25Z</time></trkpt><trkpt lat="43.196895460920594" lon="12.320274516858467"><ele>297.0</ele><time>2026-04-19T10:42:25.999Z</time></trkpt><trkpt lat="43.19664520536065" lon="12.320390499372259"><ele>297.0</ele><time>2026-04-19T10:42:26.999Z</time></trkpt><trkpt lat="43.196380956971794" lon="12.320445411489217"><ele>296.0</ele><time>2026-04-19T10:42:27.999Z</time></trkpt><trkpt lat="43.196100359746495" lon="12.320420723057158"><ele>295.0</ele><time>2026-04-19T10:42:28.999Z</time></trkpt><trkpt lat="43.195807840145484" lon="12.320361810583575"><ele>295.0</ele><time>2026-04-19T10:42:29.999Z</time></trkpt><trkpt lat="43.19551841989603" lon="12.320326440536611"><ele>295.0</ele><time>2026-04-19T10:42:30.999Z</time></trkpt><trkpt lat="43.195229338171984" lon="12.320325156466694"><ele>295.0</ele><time>2026-04-19T10:42:31.999Z</time></trkpt><trkpt lat="43.194942290241656" lon="12.320338121473416"><ele>295.0</ele><time>2026-04-19T10:42:32.999Z</time></trkpt><trkpt lat="43.19465223768835" lon="12.320357782707866"><ele>294.0</ele><time>2026-04-19T10:42:33.999Z</time></trkpt><trkpt lat="43.19435963771006" lon="12.320382705300648"><ele>293.0</ele><time>2026-04-19T10:42:34.999Z</time></trkpt><trkpt lat="43.194064076877325" lon="12.320405189104386"><ele>293.0</ele><time>2026-04-19T10:42:35.999Z</time></trkpt><trkpt lat="43.1937681163855" lon="12.320406090215332"><ele>293.0</ele><time>2026-04-19T10:42:36.999Z</time></trkpt><trkpt lat="43.19346515745372" lon="12.32037181205734"><ele>291.0</ele><time>2026-04-19T10:42:37.999Z</time></trkpt><trkpt lat="43.19316647251594" lon="12.320278351395004"><ele>289.0</ele><time>2026-04-19T10:42:38.999Z</time></trkpt><trkpt lat="43.1928752046233" lon="12.320141442590387"><ele>289.0</ele><time>2026-04-19T10:42:39.999Z</time></trkpt><trkpt lat="43.192590479133145" lon="12.319973109623474"><ele>289.0</ele><time>2026-04-19T10:42:40.999Z</time></trkpt><trkpt lat="43.1922894151784" lon="12.319805353727102"><ele>287.5</ele><time>2026-04-19T10:42:41.999Z</time></trkpt><trkpt lat="43.191972201414465" lon="12.31963407332402"><ele>286.0</ele><time>2026-04-19T10:42:42.999Z</time></trkpt><trkpt lat="43.19164557975993" lon="12.319461206094125"><ele>287.0</ele><time>2026-04-19T10:42:43.999Z</time></trkpt><trkpt lat="43.191321560239956" lon="12.31928290784137"><ele>288.0</ele><time>2026-04-19T10:42:44.999Z</time></trkpt><trkpt lat="43.19099420539432" lon="12.319105357892397"><ele>287.5</ele><time>2026-04-19T10:42:45.999Z</time></trkpt><trkpt lat="43.1906684557529" lon="12.318931315644427"><ele>287.0</ele><time>2026-04-19T10:42:46.999Z</time></trkpt><trkpt lat="43.19034278950708" lon="12.318759341870814"><ele>286.0</ele><time>2026-04-19T10:42:47.999Z</time></trkpt><trkpt lat="43.19001523630255" lon="12.318589532936265"><ele>285.0</ele><time>2026-04-19T10:42:48.999Z</time></trkpt><trkpt lat="43.18968682908356" lon="12.318419368222072"><ele>285.0</ele><time>2026-04-19T10:42:49.999Z</time></trkpt><trkpt lat="43.18936333808647" lon="12.31824993978525"><ele>285.0</ele><time>2026-04-19T10:42:50.999Z</time></trkpt><trkpt lat="43.189039515175544" lon="12.318083069282734"><ele>283.5</ele><time>2026-04-19T10:42:51.999Z</time></trkpt><trkpt lat="43.188717329590695" lon="12.317913972169787"><ele>282.0</ele><time>2026-04-19T10:42:52.999Z</time></trkpt><trkpt lat="43.18839817592547" lon="12.317740103663501"><ele>283.0</ele><time>2026-04-19T10:42:53.999Z</time></trkpt><trkpt lat="43.18808150494775" lon="12.317576018307978"><ele>284.0</ele><time>2026-04-19T10:42:54.999Z</time></trkpt><trkpt lat="43.18776054687462" lon="12.317426161199245"><ele>284.0</ele><time>2026-04-19T10:42:55.999Z</time></trkpt><trkpt lat="43.187437944708456" lon="12.317289971519635"><ele>284.0</ele><time>2026-04-19T10:42:57Z</time></trkpt><trkpt lat="43.187113445284204" lon="12.317168348656246"><ele>283.0</ele><time>2026-04-19T10:42:58Z</time></trkpt><trkpt lat="43.18678769704733" lon="12.31705170419361"><ele>282.0</ele><time>2026-04-19T10:42:59Z</time></trkpt><trkpt lat="43.186459924709965" lon="12.316935862265407"><ele>281.5</ele><time>2026-04-19T10:43:00Z</time></trkpt><trkpt lat="43.186133914521385" lon="12.316816939642843"><ele>281.0</ele><time>2026-04-19T10:43:01Z</time></trkpt><trkpt lat="43.185810222371515" lon="12.316699339147329"><ele>282.0</ele><time>2026-04-19T10:43:02Z</time></trkpt><trkpt lat="43.1854917863616" lon="12.316582732401104"><ele>283.0</ele><time>2026-04-19T10:43:03Z</time></trkpt><trkpt lat="43.1851827050056" lon="12.316464915685476"><ele>288.0</ele><time>2026-04-19T10:43:04Z</time></trkpt><trkpt lat="43.18488006695357" lon="12.316354878393811"><ele>293.0</ele><time>2026-04-19T10:43:05Z</time></trkpt><trkpt lat="43.18457701270377" lon="12.316279105072601"><ele>293.0</ele><time>2026-04-19T10:43:06Z</time></trkpt><trkpt lat="43.18427730674673" lon="12.31626992268578"><ele>293.0</ele><time>2026-04-19T10:43:07Z</time></trkpt><trkpt lat="43.18397742203312" lon="12.31631039149809"><ele>286.5</ele><time>2026-04-19T10:43:08Z</time></trkpt><trkpt lat="43.18368113976875" lon="12.316427343248014"><ele>280.0</ele><time>2026-04-19T10:43:09Z</time></trkpt><trkpt lat="43.18339303173776" lon="12.316597966153816"><ele>281.0</ele><time>2026-04-19T10:43:10Z</time></trkpt><trkpt lat="43.183104407011975" lon="12.316765570279063"><ele>282.0</ele><time>2026-04-19T10:43:11Z</time></trkpt><trkpt lat="43.18282528363455" lon="12.316909648930691"><ele>282.0</ele><time>2026-04-19T10:43:12Z</time></trkpt><trkpt lat="43.18253053546218" lon="12.31699112089227"><ele>282.0</ele><time>2026-04-19T10:43:13Z</time></trkpt><trkpt lat="43.182217634202175" lon="12.31699328494493"><ele>282.0</ele><time>2026-04-19T10:43:14Z</time></trkpt><trkpt lat="43.18189173333617" lon="12.316964028929457"><ele>282.0</ele><time>2026-04-19T10:43:15Z</time></trkpt><trkpt lat="43.18157578041922" lon="12.316909118287503"><ele>284.0</ele><time>2026-04-19T10:43:16Z</time></trkpt><trkpt lat="43.18126123265542" lon="12.31686822152001"><ele>286.0</ele><time>2026-04-19T10:43:17Z</time></trkpt><trkpt lat="43.180949167050045" lon="12.316828070755221"><ele>282.0</ele><time>2026-04-19T10:43:18Z</time></trkpt><trkpt lat="43.18063424186847" lon="12.31680310326692"><ele>278.0</ele><time>2026-04-19T10:43:19Z</time></trkpt><trkpt lat="43.18032179336873" lon="12.316834606387967"><ele>278.0</ele><time>2026-04-19T10:43:20Z</time></trkpt><trkpt lat="43.1800140847333" lon="12.316899146803797"><ele>278.0</ele><time>2026-04-19T10:43:21Z</time></trkpt><trkpt lat="43.1796982704584" lon="12.316914176291116"><ele>274.5</ele><time>2026-04-19T10:43:22Z</time></trkpt><trkpt lat="43.17937104027114" lon="12.316843881887579"><ele>271.0</ele><time>2026-04-19T10:43:23Z</time></trkpt><trkpt lat="43.17904385177115" lon="12.316746532452104"><ele>270.0</ele><time>2026-04-19T10:43:24Z</time></trkpt><trkpt lat="43.17872221997496" lon="12.31665022075995"><ele>269.0</ele><time>2026-04-19T10:43:25Z</time></trkpt><trkpt lat="43.17840814985928" lon="12.316563741234733"><ele>268.5</ele><time>2026-04-19T10:43:26Z</time></trkpt><trkpt lat="43.17809591756989" lon="12.316479537037313"><ele>268.0</ele><time>2026-04-19T10:43:27Z</time></trkpt><trkpt lat="43.17777731293111" lon="12.316388129892182"><ele>268.0</ele><time>2026-04-19T10:43:28Z</time></trkpt><trkpt lat="43.17745510213932" lon="12.316299388479974"><ele>268.0</ele><time>2026-04-19T10:43:29Z</time></trkpt><trkpt lat="43.177136761108535" lon="12.316215625576868"><ele>268.5</ele><time>2026-04-19T10:43:30Z</time></trkpt><trkpt lat="43.17682087166956" lon="12.316136435300573"><ele>269.0</ele><time>2026-04-19T10:43:31Z</time></trkpt><trkpt lat="43.1765072492437" lon="12.31605552375462"><ele>268.0</ele><time>2026-04-19T10:43:32Z</time></trkpt><trkpt lat="43.17619845360003" lon="12.315972200260594"><ele>267.0</ele><time>2026-04-19T10:43:33Z</time></trkpt><trkpt lat="43.17589028762142" lon="12.315888996694365"><ele>266.5</ele><time>2026-04-19T10:43:34Z</time></trkpt><trkpt lat="43.17558058066275" lon="12.315808300707081"><ele>266.0</ele><time>2026-04-19T10:43:35Z</time></trkpt><trkpt lat="43.17528136739533" lon="12.315727478727686"><ele>266.0</ele><time>2026-04-19T10:43:36Z</time></trkpt><trkpt lat="43.17499773201345" lon="12.315647540854032"><ele>266.0</ele><time>2026-04-19T10:43:37Z</time></trkpt><trkpt lat="43.17472665489029" lon="12.315574275772493"><ele>266.5</ele><time>2026-04-19T10:43:38Z</time></trkpt><trkpt lat="43.174465759537874" lon="12.315506914218302"><ele>267.0</ele><time>2026-04-19T10:43:39Z</time></trkpt><trkpt lat="43.174214752361266" lon="12.31544185860991"><ele>266.5</ele><time>2026-04-19T10:43:40Z</time></trkpt><trkpt lat="43.17398383492591" lon="12.315381280896332"><ele>266.0</ele><time>2026-04-19T10:43:41Z</time></trkpt><trkpt lat="43.17375791501094" lon="12.315322324478922"><ele>266.0</ele><time>2026-04-19T10:43:42Z</time></trkpt><trkpt lat="43.173545974577834" lon="12.31526954584097"><ele>266.0</ele><time>2026-04-19T10:43:43Z</time></trkpt><trkpt lat="43.173350604797655" lon="12.315223178369633"><ele>266.0</ele><time>2026-04-19T10:43:44Z</time></trkpt><trkpt lat="43.17316422058674" lon="12.315182701331025"><ele>265.6666666666667</ele><time>2026-04-19T10:43:45Z</time></trkpt><trkpt lat="43.17297327604498" lon="12.315157841589684"><ele>265.3333333333333</ele><time>2026-04-19T10:43:46Z</time></trkpt><trkpt lat="43.17278549339018" lon="12.315157428112947"><ele>265.0</ele><time>2026-04-19T10:43:47Z</time></trkpt><trkpt lat="43.17261077982787" lon="12.315179042149651"><ele>265.0</ele><time>2026-04-19T10:43:48Z</time></trkpt><trkpt lat="43.17245169380134" lon="12.315212535864084"><ele>265.0</ele><time>2026-04-19T10:43:49Z</time></trkpt><trkpt lat="43.172305765238214" lon="12.315257907010281"><ele>265.0</ele><time>2026-04-19T10:43:50Z</time></trkpt><trkpt lat="43.172170958473636" lon="12.315307373741888"><ele>264.6</ele><time>2026-04-19T10:43:51Z</time></trkpt><trkpt lat="43.172050306741156" lon="12.315363937932295"><ele>264.2</ele><time>2026-04-19T10:43:52Z</time></trkpt><trkpt lat="43.1719495271582" lon="12.31541451265774"><ele>263.8</ele><time>2026-04-19T10:43:53Z</time></trkpt><trkpt lat="43.17186662304555" lon="12.315452444689841"><ele>263.4</ele><time>2026-04-19T10:43:54Z</time></trkpt><trkpt lat="43.17179345202188" lon="12.315484241111458"><ele>263.0</ele><time>2026-04-19T10:43:55Z</time></trkpt><trkpt lat="43.171729660422216" lon="12.315520387591068"><ele>263.0</ele><time>2026-04-19T10:43:56Z</time></trkpt><trkpt lat="43.17166339983692" lon="12.315554313569722"><ele>263.0</ele><time>2026-04-19T10:43:57Z</time></trkpt><trkpt lat="43.17159528780188" lon="12.315584582746508"><ele>263.0</ele><time>2026-04-19T10:43:58Z</time></trkpt><trkpt lat="43.17153084468407" lon="12.315611410795666"><ele>263.0</ele><time>2026-04-19T10:43:59Z</time></trkpt><trkpt lat="43.17146697273104" lon="12.315639905731343"><ele>263.0</ele><time>2026-04-19T10:44:00Z</time></trkpt><trkpt lat="43.17139835419224" lon="12.315666338869901"><ele>263.0</ele><time>2026-04-19T10:44:01Z</time></trkpt><trkpt lat="43.17132809131068" lon="12.31568948099315"><ele>263.0</ele><time>2026-04-19T10:44:02Z</time></trkpt><trkpt lat="43.17125807025728" lon="12.315704424839561"><ele>263.83333333333337</ele><time>2026-04-19T10:44:03Z</time></trkpt><trkpt lat="43.1711833818471" lon="12.31571329528868"><ele>264.6666666666667</ele><time>2026-04-19T10:44:04Z</time></trkpt><trkpt lat="43.171107007134204" lon="12.315727740060117"><ele>265.5</ele><time>2026-04-19T10:44:05Z</time></trkpt><trkpt lat="43.171041517685055" lon="12.31574232456504"><ele>266.3333333333333</ele><time>2026-04-19T10:44:06Z</time></trkpt><trkpt lat="43.17093012587412" lon="12.31577254644787"><ele>267.16666666666663</ele><time>2026-04-19T10:44:08Z</time></trkpt><trkpt lat="43.170857711280384" lon="12.315778009311071"><ele>268.0</ele><time>2026-04-19T10:44:09Z</time></trkpt><trkpt lat="43.17077543082479" lon="12.315774028622466"><ele>268.0</ele><time>2026-04-19T10:44:10Z</time></trkpt><trkpt lat="43.17067681051803" lon="12.31577444118568"><ele>268.0</ele><time>2026-04-19T10:44:11Z</time></trkpt><trkpt lat="43.17055140377851" lon="12.315775450105715"><ele>268.0</ele><time>2026-04-19T10:44:12Z</time></trkpt><trkpt lat="43.17039326946509" lon="12.315753528737071"><ele>268.0</ele><time>2026-04-19T10:44:13Z</time></trkpt><trkpt lat="43.17019336136395" lon="12.315735289823657"><ele>268.0</ele><time>2026-04-19T10:44:14Z</time></trkpt><trkpt lat="43.16994536773089" lon="12.31568567913998"><ele>268.0</ele><time>2026-04-19T10:44:15Z</time></trkpt><trkpt lat="43.16967434144525" lon="12.315615228819727"><ele>264.5</ele><time>2026-04-19T10:44:16Z</time></trkpt><trkpt lat="43.16939289337839" lon="12.31551542459245"><ele>261.0</ele><time>2026-04-19T10:44:17Z</time></trkpt><trkpt lat="43.16907642448952" lon="12.31535710303764"><ele>262.0</ele><time>2026-04-19T10:44:18Z</time></trkpt><trkpt lat="43.16872805146515" lon="12.315168962492148"><ele>263.0</ele><time>2026-04-19T10:44:19Z</time></trkpt><trkpt lat="43.16837538696526" lon="12.315000570542738"><ele>264.0</ele><time>2026-04-19T10:44:20Z</time></trkpt><trkpt lat="43.168007054452566" lon="12.314860447080669"><ele>265.0</ele><time>2026-04-19T10:44:21Z</time></trkpt><trkpt lat="43.16760502144178" lon="12.314712486409917"><ele>263.0</ele><time>2026-04-19T10:44:22Z</time></trkpt><trkpt lat="43.167194398138356" lon="12.31456162875104"><ele>261.0</ele><time>2026-04-19T10:44:23Z</time></trkpt><trkpt lat="43.16683238360533" lon="12.314441208550724"><ele>263.0</ele><time>2026-04-19T10:44:24Z</time></trkpt><trkpt lat="43.16650075430806" lon="12.314321707699188"><ele>265.0</ele><time>2026-04-19T10:44:25Z</time></trkpt><trkpt lat="43.16618233469862" lon="12.314209057914951"><ele>265.0</ele><time>2026-04-19T10:44:26Z</time></trkpt><trkpt lat="43.16586344791885" lon="12.314071151118512"><ele>265.0</ele><time>2026-04-19T10:44:27Z</time></trkpt><trkpt lat="43.165536512361065" lon="12.31387360983966"><ele>263.5</ele><time>2026-04-19T10:44:27.999Z</time></trkpt><trkpt lat="43.165209671307586" lon="12.31362683103949"><ele>262.0</ele><time>2026-04-19T10:44:28.999Z</time></trkpt><trkpt lat="43.164923450191694" lon="12.313422173392812"><ele>262.0</ele><time>2026-04-19T10:44:29.999Z</time></trkpt><trkpt lat="43.16465497368249" lon="12.31323886249083"><ele>262.0</ele><time>2026-04-19T10:44:30.999Z</time></trkpt><trkpt lat="43.164393839405186" lon="12.313053325427928"><ele>262.0</ele><time>2026-04-19T10:44:31.999Z</time></trkpt><trkpt lat="43.16415677982332" lon="12.312858031936077"><ele>262.0</ele><time>2026-04-19T10:44:32.999Z</time></trkpt><trkpt lat="43.163950550805396" lon="12.3126146995276"><ele>262.0</ele><time>2026-04-19T10:44:33.999Z</time></trkpt><trkpt lat="43.16379114488863" lon="12.312314194940383"><ele>262.0</ele><time>2026-04-19T10:44:34.999Z</time></trkpt><trkpt lat="43.16366855180908" lon="12.31192851407021"><ele>262.5</ele><time>2026-04-19T10:44:35.999Z</time></trkpt><trkpt lat="43.163522762765865" lon="12.311557346380674"><ele>263.0</ele><time>2026-04-19T10:44:36.999Z</time></trkpt><trkpt lat="43.16331223301208" lon="12.311267241216692"><ele>264.0</ele><time>2026-04-19T10:44:37.999Z</time></trkpt><trkpt lat="43.16307982001739" lon="12.310991315446783"><ele>265.0</ele><time>2026-04-19T10:44:38.999Z</time></trkpt><trkpt lat="43.16282043305372" lon="12.31073803116356"><ele>263.0</ele><time>2026-04-19T10:44:39.999Z</time></trkpt><trkpt lat="43.16254297166251" lon="12.310474354994627"><ele>261.0</ele><time>2026-04-19T10:44:40.999Z</time></trkpt><trkpt lat="43.16225502092761" lon="12.310195241991746"><ele>261.0</ele><time>2026-04-19T10:44:41.999Z</time></trkpt><trkpt lat="43.16197474185953" lon="12.309919243873416"><ele>261.0</ele><time>2026-04-19T10:44:42.999Z</time></trkpt><trkpt lat="43.16170050678191" lon="12.309650113604878"><ele>260.0</ele><time>2026-04-19T10:44:43.999Z</time></trkpt><trkpt lat="43.16142901359349" lon="12.309383167519181"><ele>259.0</ele><time>2026-04-19T10:44:44.999Z</time></trkpt><trkpt lat="43.16115861766492" lon="12.309114965834224"><ele>258.5</ele><time>2026-04-19T10:44:45.999Z</time></trkpt><trkpt lat="43.16088244642035" lon="12.308850577291134"><ele>258.0</ele><time>2026-04-19T10:44:46.999Z</time></trkpt><trkpt lat="43.1605921945491" lon="12.308599257973754"><ele>256.5</ele><time>2026-04-19T10:44:47.999Z</time></trkpt><trkpt lat="43.16027163390242" lon="12.30837235533042"><ele>255.0</ele><time>2026-04-19T10:44:48.999Z</time></trkpt><trkpt lat="43.15995818364669" lon="12.308177980137057"><ele>254.0</ele><time>2026-04-19T10:44:49.999Z</time></trkpt><trkpt lat="43.15965903776213" lon="12.308003256495255"><ele>253.0</ele><time>2026-04-19T10:44:50.999Z</time></trkpt><trkpt lat="43.159373429761715" lon="12.307781635684682"><ele>253.0</ele><time>2026-04-19T10:44:51.999Z</time></trkpt><trkpt lat="43.15910472388165" lon="12.307522687144864"><ele>253.0</ele><time>2026-04-19T10:44:52.999Z</time></trkpt><trkpt lat="43.15886643471398" lon="12.307219252447544"><ele>255.0</ele><time>2026-04-19T10:44:53.999Z</time></trkpt><trkpt lat="43.1586569849678" lon="12.306867585048064"><ele>257.0</ele><time>2026-04-19T10:44:54.999Z</time></trkpt><trkpt lat="43.158472468498175" lon="12.30647771733726"><ele>256.0</ele><time>2026-04-19T10:44:55.999Z</time></trkpt><trkpt lat="43.15830290295622" lon="12.306073530821543"><ele>255.0</ele><time>2026-04-19T10:44:56.999Z</time></trkpt><trkpt lat="43.1581469976902" lon="12.305676040102133"><ele>259.0</ele><time>2026-04-19T10:44:57.999Z</time></trkpt><trkpt lat="43.15800032734893" lon="12.30531862492691"><ele>263.0</ele><time>2026-04-19T10:44:58.999Z</time></trkpt><trkpt lat="43.15783853021935" lon="12.304985842037347"><ele>265.0</ele><time>2026-04-19T10:44:59.999Z</time></trkpt><trkpt lat="43.157617530119104" lon="12.304635583492617"><ele>267.0</ele><time>2026-04-19T10:45:00.999Z</time></trkpt><trkpt lat="43.15736040719789" lon="12.304258458678296"><ele>262.0</ele><time>2026-04-19T10:45:01.999Z</time></trkpt><trkpt lat="43.157125779030885" lon="12.303887034071757"><ele>257.0</ele><time>2026-04-19T10:45:03Z</time></trkpt><trkpt lat="43.156887000436576" lon="12.303552654954908"><ele>257.0</ele><time>2026-04-19T10:45:04Z</time></trkpt><trkpt lat="43.15665299746049" lon="12.303204822140343"><ele>257.0</ele><time>2026-04-19T10:45:05Z</time></trkpt><trkpt lat="43.1564332159644" lon="12.302834381504018"><ele>258.0</ele><time>2026-04-19T10:45:06Z</time></trkpt><trkpt lat="43.15624611599079" lon="12.302419732493671"><ele>259.0</ele><time>2026-04-19T10:45:07Z</time></trkpt><trkpt lat="43.156087678817556" lon="12.301973968947554"><ele>259.0</ele><time>2026-04-19T10:45:08Z</time></trkpt><trkpt lat="43.15594651382871" lon="12.30153914078494"><ele>259.0</ele><time>2026-04-19T10:45:09Z</time></trkpt><trkpt lat="43.15582080126394" lon="12.301118521257626"><ele>257.5</ele><time>2026-04-19T10:45:10Z</time></trkpt><trkpt lat="43.15571584168093" lon="12.300673381106675"><ele>256.0</ele><time>2026-04-19T10:45:11Z</time></trkpt><trkpt lat="43.1556372139554" lon="12.300205567863653"><ele>253.5</ele><time>2026-04-19T10:45:12Z</time></trkpt><trkpt lat="43.15556373551519" lon="12.299704827939976"><ele>251.0</ele><time>2026-04-19T10:45:13Z</time></trkpt><trkpt lat="43.15549152029102" lon="12.299256102749897"><ele>250.5</ele><time>2026-04-19T10:45:14Z</time></trkpt><trkpt lat="43.155420196550224" lon="12.298819398624532"><ele>250.0</ele><time>2026-04-19T10:45:15Z</time></trkpt><trkpt lat="43.155333360537774" lon="12.29838113092599"><ele>250.0</ele><time>2026-04-19T10:45:16Z</time></trkpt><trkpt lat="43.15520785167228" lon="12.297922755153046"><ele>250.0</ele><time>2026-04-19T10:45:17Z</time></trkpt><trkpt lat="43.15505858099598" lon="12.29741061487797"><ele>251.0</ele><time>2026-04-19T10:45:18Z</time></trkpt><trkpt lat="43.15490337715065" lon="12.29685970437376"><ele>252.0</ele><time>2026-04-19T10:45:19Z</time></trkpt><trkpt lat="43.154758078768076" lon="12.296302457917916"><ele>250.0</ele><time>2026-04-19T10:45:20Z</time></trkpt><trkpt lat="43.15461267572051" lon="12.295749844641602"><ele>248.0</ele><time>2026-04-19T10:45:21Z</time></trkpt><trkpt lat="43.154452542806695" lon="12.29522534441276"><ele>250.0</ele><time>2026-04-19T10:45:22Z</time></trkpt><trkpt lat="43.15429556765455" lon="12.2947360603853"><ele>252.0</ele><time>2026-04-19T10:45:23Z</time></trkpt><trkpt lat="43.15414403374439" lon="12.294298488339125"><ele>249.5</ele><time>2026-04-19T10:45:24Z</time></trkpt><trkpt lat="43.15399708236592" lon="12.293887685989102"><ele>247.0</ele><time>2026-04-19T10:45:25Z</time></trkpt><trkpt lat="43.15384107362946" lon="12.29344241498704"><ele>248.5</ele><time>2026-04-19T10:45:26Z</time></trkpt><trkpt lat="43.153666109434084" lon="12.292975032821944"><ele>250.0</ele><time>2026-04-19T10:45:27Z</time></trkpt><trkpt lat="43.15347570134257" lon="12.292494828260216"><ele>250.0</ele><time>2026-04-19T10:45:28Z</time></trkpt><trkpt lat="43.15329429921922" lon="12.291969398331254"><ele>250.0</ele><time>2026-04-19T10:45:29Z</time></trkpt><trkpt lat="43.153125224085784" lon="12.291421683853926"><ele>247.0</ele><time>2026-04-19T10:45:30Z</time></trkpt><trkpt lat="43.15291850349131" lon="12.290853277208917"><ele>249.0</ele><time>2026-04-19T10:45:31Z</time></trkpt><trkpt lat="43.15267681108238" lon="12.290238332221328"><ele>250.0</ele><time>2026-04-19T10:45:32Z</time></trkpt><trkpt lat="43.152464765136614" lon="12.289650093898937"><ele>248.0</ele><time>2026-04-19T10:45:33Z</time></trkpt><trkpt lat="43.152279788263534" lon="12.289124776247215"><ele>246.0</ele><time>2026-04-19T10:45:34Z</time></trkpt><trkpt lat="43.15213742149464" lon="12.288710743834562"><ele>245.5</ele><time>2026-04-19T10:45:35Z</time></trkpt><trkpt lat="43.15199307625758" lon="12.28828389032839"><ele>245.0</ele><time>2026-04-19T10:45:36Z</time></trkpt><trkpt lat="43.15184831601728" lon="12.287886523784522"><ele>244.5</ele><time>2026-04-19T10:45:37Z</time></trkpt><trkpt lat="43.15168797149668" lon="12.287498119466289"><ele>244.0</ele><time>2026-04-19T10:45:38Z</time></trkpt><trkpt lat="43.15151344712645" lon="12.287208268325378"><ele>244.0</ele><time>2026-04-19T10:45:39Z</time></trkpt><trkpt lat="43.1513076952791" lon="12.286944917678618"><ele>244.0</ele><time>2026-04-19T10:45:40Z</time></trkpt><trkpt lat="43.15109744029953" lon="12.286707853195988"><ele>244.0</ele><time>2026-04-19T10:45:41Z</time></trkpt><trkpt lat="43.15089333411043" lon="12.286513020736692"><ele>244.0</ele><time>2026-04-19T10:45:42Z</time></trkpt><trkpt lat="43.15067216057391" lon="12.286336975848531"><ele>244.0</ele><time>2026-04-19T10:45:43Z</time></trkpt><trkpt lat="43.15046886584008" lon="12.286227780889678"><ele>244.0</ele><time>2026-04-19T10:45:44Z</time></trkpt><trkpt lat="43.15027129765739" lon="12.286139977310999"><ele>244.0</ele><time>2026-04-19T10:45:45Z</time></trkpt><trkpt lat="43.15004212926889" lon="12.28607193886191"><ele>244.0</ele><time>2026-04-19T10:45:46Z</time></trkpt><trkpt lat="43.149789377976816" lon="12.28603134954497"><ele>244.0</ele><time>2026-04-19T10:45:47Z</time></trkpt><trkpt lat="43.149517723144825" lon="12.285999608664795"><ele>244.0</ele><time>2026-04-19T10:45:48Z</time></trkpt><trkpt lat="43.149246561983844" lon="12.285965237649886"><ele>244.0</ele><time>2026-04-19T10:45:49Z</time></trkpt><trkpt lat="43.14896200106492" lon="12.285918032239453"><ele>243.5</ele><time>2026-04-19T10:45:50Z</time></trkpt><trkpt lat="43.14870592876077" lon="12.285876744375019"><ele>243.0</ele><time>2026-04-19T10:45:51Z</time></trkpt><trkpt lat="43.14847808266012" lon="12.285814678291228"><ele>243.0</ele><time>2026-04-19T10:45:52Z</time></trkpt><trkpt lat="43.14826399230579" lon="12.285799111811736"><ele>243.0</ele><time>2026-04-19T10:45:53Z</time></trkpt><trkpt lat="43.14806294662613" lon="12.28577673742166"><ele>243.0</ele><time>2026-04-19T10:45:54Z</time></trkpt><trkpt lat="43.14788075898598" lon="12.285750952994173"><ele>243.0</ele><time>2026-04-19T10:45:55Z</time></trkpt><trkpt lat="43.14771302863119" lon="12.285731243495976"><ele>243.0</ele><time>2026-04-19T10:45:56Z</time></trkpt><trkpt lat="43.147555112746375" lon="12.28571249829321"><ele>243.0</ele><time>2026-04-19T10:45:57Z</time></trkpt><trkpt lat="43.14740212330983" lon="12.28568981558668"><ele>243.33333333333331</ele><time>2026-04-19T10:45:58Z</time></trkpt><trkpt lat="43.14724850732619" lon="12.285663622824814"><ele>243.66666666666666</ele><time>2026-04-19T10:45:59Z</time></trkpt><trkpt lat="43.14708740381107" lon="12.285661661966687"><ele>244.0</ele><time>2026-04-19T10:46:00Z</time></trkpt><trkpt lat="43.14692574201955" lon="12.285688409684125"><ele>244.0</ele><time>2026-04-19T10:46:01Z</time></trkpt><trkpt lat="43.14676011806016" lon="12.285718284548519"><ele>244.0</ele><time>2026-04-19T10:46:02Z</time></trkpt><trkpt lat="43.14658915965352" lon="12.28574888246806"><ele>244.0</ele><time>2026-04-19T10:46:03Z</time></trkpt><trkpt lat="43.14639721645937" lon="12.285804053229146"><ele>243.0</ele><time>2026-04-19T10:46:04Z</time></trkpt><trkpt lat="43.14616053015697" lon="12.28586464591238"><ele>242.0</ele><time>2026-04-19T10:46:05Z</time></trkpt><trkpt lat="43.14592146298828" lon="12.285872259740326"><ele>242.0</ele><time>2026-04-19T10:46:06Z</time></trkpt><trkpt lat="43.145731423430306" lon="12.285862659175837"><ele>242.0</ele><time>2026-04-19T10:46:07Z</time></trkpt><trkpt lat="43.145556563152184" lon="12.285787858057642"><ele>242.0</ele><time>2026-04-19T10:46:08Z</time></trkpt><trkpt lat="43.14540333397548" lon="12.285682639845357"><ele>241.75</ele><time>2026-04-19T10:46:09Z</time></trkpt><trkpt lat="43.14529110272308" lon="12.285562345018379"><ele>241.5</ele><time>2026-04-19T10:46:10Z</time></trkpt><trkpt lat="43.14519496677972" lon="12.285435411065194"><ele>241.25</ele><time>2026-04-19T10:46:11Z</time></trkpt><trkpt lat="43.14508576535228" lon="12.285269404201776"><ele>241.0</ele><time>2026-04-19T10:46:12Z</time></trkpt><trkpt lat="43.14499050027395" lon="12.285030525471589"><ele>240.66666666666666</ele><time>2026-04-19T10:46:13Z</time></trkpt><trkpt lat="43.14493230096668" lon="12.284730060514288"><ele>240.33333333333331</ele><time>2026-04-19T10:46:14Z</time></trkpt><trkpt lat="43.14492730195145" lon="12.28443177774452"><ele>240.0</ele><time>2026-04-19T10:46:15Z</time></trkpt><trkpt lat="43.1449560982864" lon="12.284150669350971"><ele>240.5</ele><time>2026-04-19T10:46:16Z</time></trkpt><trkpt lat="43.145010849823684" lon="12.28386917599138"><ele>241.0</ele><time>2026-04-19T10:46:17Z</time></trkpt><trkpt lat="43.14508423461111" lon="12.283552141427275"><ele>241.0</ele><time>2026-04-19T10:46:18Z</time></trkpt><trkpt lat="43.14518336066436" lon="12.283241318063014"><ele>241.0</ele><time>2026-04-19T10:46:19Z</time></trkpt><trkpt lat="43.14528089592812" lon="12.282972599187838"><ele>240.66666666666666</ele><time>2026-04-19T10:46:20Z</time></trkpt><trkpt lat="43.1453196248613" lon="12.282684419088904"><ele>240.33333333333331</ele><time>2026-04-19T10:46:21Z</time></trkpt><trkpt lat="43.14529907619713" lon="12.282368559333438"><ele>240.0</ele><time>2026-04-19T10:46:22Z</time></trkpt><trkpt lat="43.145214449192444" lon="12.282065598048062"><ele>240.0</ele><time>2026-04-19T10:46:23Z</time></trkpt><trkpt lat="43.14506666489073" lon="12.281779032072869"><ele>240.0</ele><time>2026-04-19T10:46:24Z</time></trkpt><trkpt lat="43.14486091794122" lon="12.281501458665673"><ele>239.0</ele><time>2026-04-19T10:46:25Z</time></trkpt><trkpt lat="43.144607556360576" lon="12.281217760771204"><ele>238.0</ele><time>2026-04-19T10:46:26Z</time></trkpt><trkpt lat="43.14432778299108" lon="12.28088879910914"><ele>238.5</ele><time>2026-04-19T10:46:27Z</time></trkpt><trkpt lat="43.144039388026584" lon="12.280542696670908"><ele>239.0</ele><time>2026-04-19T10:46:28Z</time></trkpt><trkpt lat="43.143757578325946" lon="12.280208665910527"><ele>239.0</ele><time>2026-04-19T10:46:29Z</time></trkpt><trkpt lat="43.14351300775929" lon="12.27991972064917"><ele>239.0</ele><time>2026-04-19T10:46:30Z</time></trkpt><trkpt lat="43.14328776444967" lon="12.279668376783912"><ele>238.5</ele><time>2026-04-19T10:46:31Z</time></trkpt><trkpt lat="43.14309332604646" lon="12.279447435372393"><ele>238.0</ele><time>2026-04-19T10:46:31.999Z</time></trkpt><trkpt lat="43.14293512691762" lon="12.279266339051548"><ele>238.0</ele><time>2026-04-19T10:46:32.999Z</time></trkpt><trkpt lat="43.14281095565574" lon="12.27911253938034"><ele>238.0</ele><time>2026-04-19T10:46:33.999Z</time></trkpt><trkpt lat="43.14270688274401" lon="12.278970389877706"><ele>238.0</ele><time>2026-04-19T10:46:34.999Z</time></trkpt><trkpt lat="43.14260529110812" lon="12.27882774444615"><ele>238.33333333333331</ele><time>2026-04-19T10:46:35.999Z</time></trkpt><trkpt lat="43.1424822932416" lon="12.278662434734583"><ele>238.66666666666669</ele><time>2026-04-19T10:46:36.999Z</time></trkpt><trkpt lat="43.14231446269142" lon="12.27846891109843"><ele>239.0</ele><time>2026-04-19T10:46:37.999Z</time></trkpt><trkpt lat="43.14213452944623" lon="12.278212055765128"><ele>239.5</ele><time>2026-04-19T10:46:38.999Z</time></trkpt><trkpt lat="43.141932478047515" lon="12.277915072075357"><ele>240.0</ele><time>2026-04-19T10:46:39.999Z</time></trkpt><trkpt lat="43.141676967269625" lon="12.277601651520696"><ele>239.0</ele><time>2026-04-19T10:46:40.999Z</time></trkpt><trkpt lat="43.14138112165704" lon="12.277275424779184"><ele>238.0</ele><time>2026-04-19T10:46:41.999Z</time></trkpt><trkpt lat="43.14106565995945" lon="12.276948167608689"><ele>238.0</ele><time>2026-04-19T10:46:42.999Z</time></trkpt><trkpt lat="43.14072054353028" lon="12.276601489466195"><ele>238.0</ele><time>2026-04-19T10:46:43.999Z</time></trkpt><trkpt lat="43.14041256891549" lon="12.276288875375204"><ele>238.5</ele><time>2026-04-19T10:46:44.999Z</time></trkpt><trkpt lat="43.140145818887056" lon="12.276014748016191"><ele>239.0</ele><time>2026-04-19T10:46:45.999Z</time></trkpt><trkpt lat="43.139900593273595" lon="12.275763282375367"><ele>238.0</ele><time>2026-04-19T10:46:46.999Z</time></trkpt><trkpt lat="43.13966814915137" lon="12.275533803021467"><ele>237.0</ele><time>2026-04-19T10:46:47.999Z</time></trkpt><trkpt lat="43.139451014125285" lon="12.27532691886082"><ele>237.0</ele><time>2026-04-19T10:46:48.999Z</time></trkpt><trkpt lat="43.13926679351634" lon="12.275123808414731"><ele>237.0</ele><time>2026-04-19T10:46:49.999Z</time></trkpt><trkpt lat="43.13912857264394" lon="12.274898996714954"><ele>237.5</ele><time>2026-04-19T10:46:50.999Z</time></trkpt><trkpt lat="43.139029855297494" lon="12.274641745236956"><ele>238.0</ele><time>2026-04-19T10:46:51.999Z</time></trkpt><trkpt lat="43.1389501328467" lon="12.274299320327609"><ele>238.0</ele><time>2026-04-19T10:46:52.999Z</time></trkpt><trkpt lat="43.13897745625513" lon="12.273945072264407"><ele>238.0</ele><time>2026-04-19T10:46:53.999Z</time></trkpt><trkpt lat="43.139038108306494" lon="12.273565629078002"><ele>238.0</ele><time>2026-04-19T10:46:54.999Z</time></trkpt><trkpt lat="43.13910396389711" lon="12.273180659177298"><ele>238.0</ele><time>2026-04-19T10:46:55.999Z</time></trkpt><trkpt lat="43.13917192692396" lon="12.272776130383583"><ele>238.0</ele><time>2026-04-19T10:46:56.999Z</time></trkpt><trkpt lat="43.139224081895144" lon="12.272361514342139"><ele>238.0</ele><time>2026-04-19T10:46:57.999Z</time></trkpt><trkpt lat="43.13930264871964" lon="12.271932309646353"><ele>237.0</ele><time>2026-04-19T10:46:58.999Z</time></trkpt><trkpt lat="43.13939030730761" lon="12.271519891176332"><ele>236.0</ele><time>2026-04-19T10:46:59.999Z</time></trkpt><trkpt lat="43.13944445785761" lon="12.27111921354523"><ele>235.5</ele><time>2026-04-19T10:47:00.999Z</time></trkpt><trkpt lat="43.13952192020818" lon="12.270789102821288"><ele>235.0</ele><time>2026-04-19T10:47:01.999Z</time></trkpt><trkpt lat="43.13954904791208" lon="12.270472993130626"><ele>236.0</ele><time>2026-04-19T10:47:02.999Z</time></trkpt><trkpt lat="43.13951288898141" lon="12.270168509351675"><ele>237.0</ele><time>2026-04-19T10:47:03.999Z</time></trkpt><trkpt lat="43.13941031405291" lon="12.269886345234138"><ele>237.5</ele><time>2026-04-19T10:47:04.999Z</time></trkpt><trkpt lat="43.13926093971399" lon="12.269637388224794"><ele>238.0</ele><time>2026-04-19T10:47:05.999Z</time></trkpt><trkpt lat="43.13904704292541" lon="12.269432475595485"><ele>237.0</ele><time>2026-04-19T10:47:06.999Z</time></trkpt><trkpt lat="43.13873567462778" lon="12.269278899296825"><ele>236.0</ele><time>2026-04-19T10:47:07.999Z</time></trkpt><trkpt lat="43.13855051131318" lon="12.269007489621066"><ele>236.0</ele><time>2026-04-19T10:47:09Z</time></trkpt><trkpt lat="43.1383925491912" lon="12.268768239734996"><ele>236.0</ele><time>2026-04-19T10:47:10Z</time></trkpt><trkpt lat="43.13824481546247" lon="12.268567093443954"><ele>236.0</ele><time>2026-04-19T10:47:11Z</time></trkpt><trkpt lat="43.13805604909512" lon="12.268276224535002"><ele>236.5</ele><time>2026-04-19T10:47:12Z</time></trkpt><trkpt lat="43.13790143043122" lon="12.26794811265693"><ele>237.0</ele><time>2026-04-19T10:47:13Z</time></trkpt><trkpt lat="43.13771391301677" lon="12.26754446465608"><ele>236.5</ele><time>2026-04-19T10:47:14Z</time></trkpt><trkpt lat="43.13751049569025" lon="12.267180979256393"><ele>236.0</ele><time>2026-04-19T10:47:15Z</time></trkpt><trkpt lat="43.13733297669554" lon="12.266886887497979"><ele>235.0</ele><time>2026-04-19T10:47:16Z</time></trkpt><trkpt lat="43.13716172377313" lon="12.266562020709626"><ele>234.0</ele><time>2026-04-19T10:47:17Z</time></trkpt><trkpt lat="43.13698098581042" lon="12.266250252480571"><ele>234.0</ele><time>2026-04-19T10:47:18Z</time></trkpt><trkpt lat="43.136786013045466" lon="12.265894967247222"><ele>234.0</ele><time>2026-04-19T10:47:19Z</time></trkpt><trkpt lat="43.13661537012376" lon="12.265536778022021"><ele>235.0</ele><time>2026-04-19T10:47:20Z</time></trkpt><trkpt lat="43.13642317845112" lon="12.265193736920565"><ele>236.0</ele><time>2026-04-19T10:47:21Z</time></trkpt><trkpt lat="43.13625255809367" lon="12.264860948348241"><ele>234.5</ele><time>2026-04-19T10:47:22Z</time></trkpt><trkpt lat="43.136142626067006" lon="12.264552255287656"><ele>233.0</ele><time>2026-04-19T10:47:23Z</time></trkpt><trkpt lat="43.13601019863371" lon="12.264308322083561"><ele>233.0</ele><time>2026-04-19T10:47:24Z</time></trkpt><trkpt lat="43.13587609657327" lon="12.264078329991266"><ele>233.0</ele><time>2026-04-19T10:47:25Z</time></trkpt><trkpt lat="43.13578526016931" lon="12.263918243689302"><ele>233.0</ele><time>2026-04-19T10:47:26Z</time></trkpt><trkpt lat="43.13568940979545" lon="12.263733485796516"><ele>233.25</ele><time>2026-04-19T10:47:27Z</time></trkpt><trkpt lat="43.13562242102931" lon="12.26356096597319"><ele>233.5</ele><time>2026-04-19T10:47:28Z</time></trkpt><trkpt lat="43.1356269412502" lon="12.263380896680788"><ele>233.75</ele><time>2026-04-19T10:47:29Z</time></trkpt><trkpt lat="43.13564887259823" lon="12.263165044409272"><ele>234.0</ele><time>2026-04-19T10:47:30Z</time></trkpt><trkpt lat="43.13560340840055" lon="12.2629719657503"><ele>234.0</ele><time>2026-04-19T10:47:31Z</time></trkpt><trkpt lat="43.13552309028014" lon="12.262821442038817"><ele>234.0</ele><time>2026-04-19T10:47:32Z</time></trkpt><trkpt lat="43.13543893284589" lon="12.262720842019476"><ele>234.0</ele><time>2026-04-19T10:47:33Z</time></trkpt><trkpt lat="43.13534310932857" lon="12.262644579026057"><ele>234.0</ele><time>2026-04-19T10:47:34Z</time></trkpt><trkpt lat="43.13524601187045" lon="12.262604432672033"><ele>234.0</ele><time>2026-04-19T10:47:35Z</time></trkpt><trkpt lat="43.13514271456549" lon="12.262602101692888"><ele>234.0</ele><time>2026-04-19T10:47:36Z</time></trkpt><trkpt lat="43.135038405070475" lon="12.26261576325678"><ele>234.0</ele><time>2026-04-19T10:47:37Z</time></trkpt><trkpt lat="43.13494152757594" lon="12.262341664294903"><ele>234.0</ele><time>2026-04-19T10:47:38Z</time></trkpt><trkpt lat="43.1348282591373" lon="12.262147519596619"><ele>233.5</ele><time>2026-04-19T10:47:39Z</time></trkpt><trkpt lat="43.134704833752615" lon="12.2618794005615"><ele>233.0</ele><time>2026-04-19T10:47:40Z</time></trkpt><trkpt lat="43.134571803940645" lon="12.26161290719649"><ele>232.5</ele><time>2026-04-19T10:47:41Z</time></trkpt><trkpt lat="43.13442246643316" lon="12.2613255709768"><ele>232.0</ele><time>2026-04-19T10:47:42Z</time></trkpt><trkpt lat="43.134314376514745" lon="12.260961801395116"><ele>232.0</ele><time>2026-04-19T10:47:43Z</time></trkpt><trkpt lat="43.13419821846015" lon="12.260622187155679"><ele>232.0</ele><time>2026-04-19T10:47:44Z</time></trkpt><trkpt lat="43.13411738061949" lon="12.260234641274987"><ele>231.5</ele><time>2026-04-19T10:47:45Z</time></trkpt><trkpt lat="43.13408906405879" lon="12.259785321692906"><ele>231.0</ele><time>2026-04-19T10:47:46Z</time></trkpt><trkpt lat="43.13407789625473" lon="12.259383527243532"><ele>232.0</ele><time>2026-04-19T10:47:47Z</time></trkpt><trkpt lat="43.13411995729042" lon="12.259034742258935"><ele>233.0</ele><time>2026-04-19T10:47:48Z</time></trkpt><trkpt lat="43.134165318372986" lon="12.258662418084143"><ele>233.0</ele><time>2026-04-19T10:47:49Z</time></trkpt><trkpt lat="43.13431837535877" lon="12.258311276565285"><ele>233.0</ele><time>2026-04-19T10:47:50Z</time></trkpt><trkpt lat="43.134459720420494" lon="12.257795439713654"><ele>235.0</ele><time>2026-04-19T10:47:51Z</time></trkpt><trkpt lat="43.13458541600198" lon="12.257265829271368"><ele>237.0</ele><time>2026-04-19T10:47:52Z</time></trkpt><trkpt lat="43.134717739463476" lon="12.256750127484981"><ele>237.0</ele><time>2026-04-19T10:47:53Z</time></trkpt><trkpt lat="43.134860845699876" lon="12.256160018465538"><ele>233.0</ele><time>2026-04-19T10:47:54Z</time></trkpt><trkpt lat="43.135019697485" lon="12.255550545919332"><ele>233.0</ele><time>2026-04-19T10:47:55Z</time></trkpt><trkpt lat="43.13520174502496" lon="12.254887040601135"><ele>233.0</ele><time>2026-04-19T10:47:56Z</time></trkpt><trkpt lat="43.13537882372726" lon="12.254227072526803"><ele>232.0</ele><time>2026-04-19T10:47:57Z</time></trkpt><trkpt lat="43.13555185476624" lon="12.253574931908728"><ele>231.0</ele><time>2026-04-19T10:47:58Z</time></trkpt><trkpt lat="43.135739247141586" lon="12.252875706449329"><ele>230.0</ele><time>2026-04-19T10:47:59Z</time></trkpt><trkpt lat="43.13593075501798" lon="12.252163875072926"><ele>230.0</ele><time>2026-04-19T10:48:00Z</time></trkpt><trkpt lat="43.13613318542978" lon="12.251428608158381"><ele>230.0</ele><time>2026-04-19T10:48:01Z</time></trkpt><trkpt lat="43.136329677385085" lon="12.250702462819856"><ele>229.0</ele><time>2026-04-19T10:48:02Z</time></trkpt><trkpt lat="43.13653136171397" lon="12.249973595608246"><ele>229.0</ele><time>2026-04-19T10:48:03Z</time></trkpt><trkpt lat="43.136731243384844" lon="12.249247334620527"><ele>229.0</ele><time>2026-04-19T10:48:04Z</time></trkpt><trkpt lat="43.136920038789874" lon="12.248570977843517"><ele>230.0</ele><time>2026-04-19T10:48:05Z</time></trkpt><trkpt lat="43.13706531357061" lon="12.2480350280464"><ele>231.0</ele><time>2026-04-19T10:48:06Z</time></trkpt><trkpt lat="43.13723325994528" lon="12.247412314449205"><ele>231.0</ele><time>2026-04-19T10:48:07Z</time></trkpt><trkpt lat="43.137398062665596" lon="12.246789599522648"><ele>233.0</ele><time>2026-04-19T10:48:08Z</time></trkpt><trkpt lat="43.13756961905782" lon="12.246166146178638"><ele>232.0</ele><time>2026-04-19T10:48:09Z</time></trkpt><trkpt lat="43.13773471077883" lon="12.245545739139125"><ele>232.0</ele><time>2026-04-19T10:48:10Z</time></trkpt><trkpt lat="43.13789203547464" lon="12.244962603493827"><ele>232.0</ele><time>2026-04-19T10:48:11Z</time></trkpt><trkpt lat="43.13804495539207" lon="12.244395462735241"><ele>232.0</ele><time>2026-04-19T10:48:12Z</time></trkpt><trkpt lat="43.138191318271765" lon="12.2438408326237"><ele>233.0</ele><time>2026-04-19T10:48:13Z</time></trkpt><trkpt lat="43.138340878079454" lon="12.24326661153421"><ele>234.0</ele><time>2026-04-19T10:48:14Z</time></trkpt><trkpt lat="43.13849728243404" lon="12.24270378936189"><ele>234.0</ele><time>2026-04-19T10:48:15Z</time></trkpt><trkpt lat="43.138648894509544" lon="12.24214059097718"><ele>234.0</ele><time>2026-04-19T10:48:16Z</time></trkpt><trkpt lat="43.13878548248793" lon="12.241634267478602"><ele>234.5</ele><time>2026-04-19T10:48:17Z</time></trkpt><trkpt lat="43.138923057031164" lon="12.241156814951376"><ele>235.0</ele><time>2026-04-19T10:48:18Z</time></trkpt><trkpt lat="43.139055630350796" lon="12.240664228647699"><ele>235.0</ele><time>2026-04-19T10:48:19Z</time></trkpt><trkpt lat="43.13917747511207" lon="12.24019634803295"><ele>235.0</ele><time>2026-04-19T10:48:20Z</time></trkpt><trkpt lat="43.139290214654956" lon="12.239759812365293"><ele>236.0</ele><time>2026-04-19T10:48:21Z</time></trkpt><trkpt lat="43.13940211932708" lon="12.239338452844555"><ele>237.0</ele><time>2026-04-19T10:48:22Z</time></trkpt><trkpt lat="43.13951138271975" lon="12.238932829425515"><ele>237.5</ele><time>2026-04-19T10:48:23Z</time></trkpt><trkpt lat="43.139623050709645" lon="12.238523045114839"><ele>238.0</ele><time>2026-04-19T10:48:24Z</time></trkpt><trkpt lat="43.1397358270658" lon="12.238120970491185"><ele>237.0</ele><time>2026-04-19T10:48:25Z</time></trkpt><trkpt lat="43.13984137568786" lon="12.237743336381438"><ele>236.0</ele><time>2026-04-19T10:48:26Z</time></trkpt><trkpt lat="43.13993418894728" lon="12.2373936542415"><ele>235.5</ele><time>2026-04-19T10:48:27Z</time></trkpt><trkpt lat="43.140028368246696" lon="12.237031802198823"><ele>235.0</ele><time>2026-04-19T10:48:28Z</time></trkpt><trkpt lat="43.14012451192681" lon="12.236677887449474"><ele>235.5</ele><time>2026-04-19T10:48:29Z</time></trkpt><trkpt lat="43.14021808806505" lon="12.236324221070275"><ele>236.0</ele><time>2026-04-19T10:48:30Z</time></trkpt><trkpt lat="43.14031841287713" lon="12.235968638351892"><ele>236.5</ele><time>2026-04-19T10:48:31Z</time></trkpt><trkpt lat="43.14041475992826" lon="12.235578981046185"><ele>237.0</ele><time>2026-04-19T10:48:32Z</time></trkpt><trkpt lat="43.14050942558684" lon="12.235169510998153"><ele>237.0</ele><time>2026-04-19T10:48:33Z</time></trkpt><trkpt lat="43.14060888798659" lon="12.234765111839994"><ele>237.0</ele><time>2026-04-19T10:48:34Z</time></trkpt><trkpt lat="43.14070234446534" lon="12.234355744493483"><ele>236.5</ele><time>2026-04-19T10:48:35Z</time></trkpt><trkpt lat="43.140799855053096" lon="12.233905806387714"><ele>236.0</ele><time>2026-04-19T10:48:36Z</time></trkpt><trkpt lat="43.1409018952376" lon="12.233417229090882"><ele>237.0</ele><time>2026-04-19T10:48:37Z</time></trkpt><trkpt lat="43.14101283405011" lon="12.232898572398089"><ele>238.0</ele><time>2026-04-19T10:48:38Z</time></trkpt><trkpt lat="43.14112503799698" lon="12.232350885680946"><ele>238.0</ele><time>2026-04-19T10:48:39Z</time></trkpt><trkpt lat="43.14124347772986" lon="12.231788410506779"><ele>238.0</ele><time>2026-04-19T10:48:40Z</time></trkpt><trkpt lat="43.14136541872218" lon="12.23129698095862"><ele>237.0</ele><time>2026-04-19T10:48:41Z</time></trkpt><trkpt lat="43.141439169170575" lon="12.230893286480207"><ele>236.0</ele><time>2026-04-19T10:48:42Z</time></trkpt><trkpt lat="43.1415052036097" lon="12.23056574585786"><ele>236.33333333333334</ele><time>2026-04-19T10:48:42.999Z</time></trkpt><trkpt lat="43.1415627446434" lon="12.230284884759268"><ele>236.66666666666669</ele><time>2026-04-19T10:48:43.999Z</time></trkpt><trkpt lat="43.14161768175963" lon="12.230015470900955"><ele>237.0</ele><time>2026-04-19T10:48:44.999Z</time></trkpt><trkpt lat="43.14164035327463" lon="12.22990340080133"><ele>237.0</ele><time>2026-04-19T10:48:45.999Z</time></trkpt><trkpt lat="43.14199233376395" lon="12.229840487177725"><ele>237.0</ele><time>2026-04-19T10:48:46.999Z</time></trkpt><trkpt lat="43.14220419456171" lon="12.229778422001358"><ele>237.0</ele><time>2026-04-19T10:48:47.999Z</time></trkpt><trkpt lat="43.142370859430905" lon="12.229701858569252"><ele>237.0</ele><time>2026-04-19T10:48:48.999Z</time></trkpt><trkpt lat="43.1424823459598" lon="12.229701598253163"><ele>237.0</ele><time>2026-04-19T10:48:49.999Z</time></trkpt><trkpt lat="43.142566289045476" lon="12.229627523968905"><ele>237.0</ele><time>2026-04-19T10:48:50.999Z</time></trkpt><trkpt lat="43.1426486238732" lon="12.229479505348532"><ele>237.0</ele><time>2026-04-19T10:48:51.999Z</time></trkpt><trkpt lat="43.14269437194018" lon="12.22933074987914"><ele>237.0</ele><time>2026-04-19T10:48:52.999Z</time></trkpt><trkpt lat="43.14271245412953" lon="12.229168857473262"><ele>237.0</ele><time>2026-04-19T10:48:53.999Z</time></trkpt><trkpt lat="43.14266572592031" lon="12.228992182836897"><ele>237.0</ele><time>2026-04-19T10:48:54.999Z</time></trkpt><trkpt lat="43.142539854825706" lon="12.228750992821904"><ele>237.33333333333331</ele><time>2026-04-19T10:48:55.999Z</time></trkpt><trkpt lat="43.142389396959835" lon="12.228603107939385"><ele>237.66666666666666</ele><time>2026-04-19T10:48:56.999Z</time></trkpt><trkpt lat="43.14220576952482" lon="12.228566227689987"><ele>238.0</ele><time>2026-04-19T10:48:57.999Z</time></trkpt><trkpt lat="43.142053205769514" lon="12.228530102521669"><ele>237.66666666666666</ele><time>2026-04-19T10:48:58.999Z</time></trkpt><trkpt lat="43.14186506223593" lon="12.228483096065796"><ele>237.33333333333331</ele><time>2026-04-19T10:48:59.999Z</time></trkpt><trkpt lat="43.141704048592736" lon="12.228389807525197"><ele>237.0</ele><time>2026-04-19T10:49:00.999Z</time></trkpt><trkpt lat="43.14154182305114" lon="12.22833785827389"><ele>237.0</ele><time>2026-04-19T10:49:01.999Z</time></trkpt><trkpt lat="43.14145696696927" lon="12.228305168067074"><ele>237.0</ele><time>2026-04-19T10:49:02.999Z</time></trkpt><trkpt lat="43.141341675870486" lon="12.228270797992229"><ele>237.0</ele><time>2026-04-19T10:49:03.999Z</time></trkpt><trkpt lat="43.14125354243287" lon="12.22816522054645"><ele>237.0</ele><time>2026-04-19T10:49:04.999Z</time></trkpt><trkpt lat="43.141205575740535" lon="12.22807507079539"><ele>237.0</ele><time>2026-04-19T10:49:05.999Z</time></trkpt><trkpt lat="43.14119770349601" lon="12.227903984337951"><ele>236.66666666666669</ele><time>2026-04-19T10:49:06.999Z</time></trkpt><trkpt lat="43.14119814250159" lon="12.227740953798932"><ele>236.33333333333334</ele><time>2026-04-19T10:49:07.999Z</time></trkpt><trkpt lat="43.14132591407216" lon="12.227536137085597"><ele>236.0</ele><time>2026-04-19T10:49:08.999Z</time></trkpt><trkpt lat="43.14137697709205" lon="12.227363339854746"><ele>236.0</ele><time>2026-04-19T10:49:09.999Z</time></trkpt><trkpt lat="43.141400093378756" lon="12.227220638130094"><ele>236.00000000000003</ele><time>2026-04-19T10:49:10.999Z</time></trkpt><trkpt lat="43.1414642556204" lon="12.227098582353856"><ele>236.00000000000003</ele><time>2026-04-19T10:49:11.999Z</time></trkpt><trkpt lat="43.14151722138362" lon="12.22703785046741"><ele>236.0</ele><time>2026-04-19T10:49:12.999Z</time></trkpt><trkpt lat="43.14165793841949" lon="12.226973539985133"><ele>236.0</ele><time>2026-04-19T10:49:15Z</time></trkpt><trkpt lat="43.14173554421059" lon="12.22692022935258"><ele>236.4</ele><time>2026-04-19T10:49:16Z</time></trkpt><trkpt lat="43.14179729601321" lon="12.226795738718401"><ele>236.8</ele><time>2026-04-19T10:49:17Z</time></trkpt><trkpt lat="43.141813715449004" lon="12.226674916176389"><ele>237.20000000000002</ele><time>2026-04-19T10:49:18Z</time></trkpt><trkpt lat="43.14182432929714" lon="12.226584124305086"><ele>237.60000000000002</ele><time>2026-04-19T10:49:19Z</time></trkpt><trkpt lat="43.14175092503766" lon="12.226384559306275"><ele>238.0</ele><time>2026-04-19T10:49:21Z</time></trkpt><trkpt lat="43.141659886246096" lon="12.226292973797296"><ele>238.0</ele><time>2026-04-19T10:49:22Z</time></trkpt><trkpt lat="43.141588600065845" lon="12.226203487055336"><ele>238.0</ele><time>2026-04-19T10:49:23Z</time></trkpt><trkpt lat="43.141666207995726" lon="12.22596488592498"><ele>238.0</ele><time>2026-04-19T10:49:24Z</time></trkpt><trkpt lat="43.1417306263576" lon="12.22577060592712"><ele>238.0</ele><time>2026-04-19T10:49:25Z</time></trkpt><trkpt lat="43.14184154771534" lon="12.225405824802138"><ele>237.5</ele><time>2026-04-19T10:49:26Z</time></trkpt><trkpt lat="43.14194093809771" lon="12.225029626290802"><ele>237.0</ele><time>2026-04-19T10:49:27Z</time></trkpt><trkpt lat="43.142029019110055" lon="12.224655391380539"><ele>236.5</ele><time>2026-04-19T10:49:28Z</time></trkpt><trkpt lat="43.142120974218614" lon="12.224271261209513"><ele>236.0</ele><time>2026-04-19T10:49:29Z</time></trkpt><trkpt lat="43.14221800369895" lon="12.223933469313469"><ele>236.0</ele><time>2026-04-19T10:49:30Z</time></trkpt><trkpt lat="43.142291161196546" lon="12.223576605230864"><ele>236.0</ele><time>2026-04-19T10:49:31Z</time></trkpt><trkpt lat="43.14238467833389" lon="12.223219509652035"><ele>238.5</ele><time>2026-04-19T10:49:32Z</time></trkpt><trkpt lat="43.1424744431925" lon="12.22287045586659"><ele>241.0</ele><time>2026-04-19T10:49:33Z</time></trkpt><trkpt lat="43.142561983867424" lon="12.222546278122307"><ele>240.33333333333331</ele><time>2026-04-19T10:49:34Z</time></trkpt><trkpt lat="43.14262957244738" lon="12.222264679737423"><ele>239.66666666666669</ele><time>2026-04-19T10:49:35Z</time></trkpt><trkpt lat="43.142679861293686" lon="12.222032646043273"><ele>239.0</ele><time>2026-04-19T10:49:36Z</time></trkpt><trkpt lat="43.14273573466546" lon="12.2217714994424"><ele>239.0</ele><time>2026-04-19T10:49:37Z</time></trkpt><trkpt lat="43.1428076029648" lon="12.22154696128158"><ele>239.0</ele><time>2026-04-19T10:49:38Z</time></trkpt><trkpt lat="43.142873257582366" lon="12.221277451689442"><ele>239.0</ele><time>2026-04-19T10:49:39Z</time></trkpt><trkpt lat="43.14294189670661" lon="12.220946804240752"><ele>239.0</ele><time>2026-04-19T10:49:40Z</time></trkpt><trkpt lat="43.143020808578754" lon="12.220627586401097"><ele>239.0</ele><time>2026-04-19T10:49:41Z</time></trkpt><trkpt lat="43.143093833809694" lon="12.220337709520802"><ele>239.0</ele><time>2026-04-19T10:49:42Z</time></trkpt><trkpt lat="43.14315631702688" lon="12.22007447026673"><ele>239.0</ele><time>2026-04-19T10:49:43Z</time></trkpt><trkpt lat="43.143214138941346" lon="12.219856328401502"><ele>239.0</ele><time>2026-04-19T10:49:44Z</time></trkpt><trkpt lat="43.14326658626955" lon="12.219660290775062"><ele>239.66666666666669</ele><time>2026-04-19T10:49:45Z</time></trkpt><trkpt lat="43.14331131145993" lon="12.219474634543053"><ele>240.33333333333331</ele><time>2026-04-19T10:49:46Z</time></trkpt><trkpt lat="43.143353690526034" lon="12.219285021706442"><ele>241.0</ele><time>2026-04-19T10:49:47Z</time></trkpt><trkpt lat="43.14341815510686" lon="12.219010010745087"><ele>240.66666666666666</ele><time>2026-04-19T10:49:48Z</time></trkpt><trkpt lat="43.14350954902248" lon="12.218740316002117"><ele>240.33333333333331</ele><time>2026-04-19T10:49:49Z</time></trkpt><trkpt lat="43.14358563232011" lon="12.218469920549131"><ele>240.0</ele><time>2026-04-19T10:49:50Z</time></trkpt><trkpt lat="43.14363962334604" lon="12.218215828463885"><ele>239.5</ele><time>2026-04-19T10:49:51Z</time></trkpt><trkpt lat="43.14369032624237" lon="12.217923750445992"><ele>239.0</ele><time>2026-04-19T10:49:52Z</time></trkpt><trkpt lat="43.143769061843805" lon="12.217615837440583"><ele>238.0</ele><time>2026-04-19T10:49:53Z</time></trkpt><trkpt lat="43.14386318175231" lon="12.217284719745537"><ele>237.0</ele><time>2026-04-19T10:49:54Z</time></trkpt><trkpt lat="43.14393252576068" lon="12.216965998188911"><ele>237.0</ele><time>2026-04-19T10:49:55Z</time></trkpt><trkpt lat="43.14399641749333" lon="12.216679018713826"><ele>237.0</ele><time>2026-04-19T10:49:56Z</time></trkpt><trkpt lat="43.144049669903886" lon="12.216384383569226"><ele>237.0</ele><time>2026-04-19T10:49:57Z</time></trkpt><trkpt lat="43.14412174779874" lon="12.216080119671087"><ele>237.33333333333331</ele><time>2026-04-19T10:49:58Z</time></trkpt><trkpt lat="43.14421226575425" lon="12.215777274038032"><ele>237.66666666666666</ele><time>2026-04-19T10:49:59Z</time></trkpt><trkpt lat="43.14429200898772" lon="12.215525072775272"><ele>238.0</ele><time>2026-04-19T10:50:00Z</time></trkpt><trkpt lat="43.14435319030322" lon="12.215311972301409"><ele>238.0</ele><time>2026-04-19T10:50:01Z</time></trkpt><trkpt lat="43.14439117000237" lon="12.215139036626315"><ele>238.0</ele><time>2026-04-19T10:50:02Z</time></trkpt><trkpt lat="43.144432619249415" lon="12.214987338701569"><ele>238.0</ele><time>2026-04-19T10:50:03Z</time></trkpt><trkpt lat="43.144471972276335" lon="12.21484994941707"><ele>238.0</ele><time>2026-04-19T10:50:04Z</time></trkpt><trkpt lat="43.14450080364839" lon="12.214721879347888"><ele>237.99999999999997</ele><time>2026-04-19T10:50:05Z</time></trkpt><trkpt lat="43.14452367126167" lon="12.214604013978578"><ele>238.0</ele><time>2026-04-19T10:50:06Z</time></trkpt><trkpt lat="43.14453510301178" lon="12.21448830426099"><ele>238.0</ele><time>2026-04-19T10:50:07Z</time></trkpt><trkpt lat="43.14451916220418" lon="12.214370450401647"><ele>238.0</ele><time>2026-04-19T10:50:08Z</time></trkpt><trkpt lat="43.144499380311466" lon="12.21427722905068"><ele>237.99999999999997</ele><time>2026-04-19T10:50:09Z</time></trkpt><trkpt lat="43.144471836899484" lon="12.214179331665406"><ele>238.0</ele><time>2026-04-19T10:50:10Z</time></trkpt><trkpt lat="43.14446266547114" lon="12.214075485508626"><ele>238.2</ele><time>2026-04-19T10:50:11Z</time></trkpt><trkpt lat="43.14448920460544" lon="12.21394579625753"><ele>238.4</ele><time>2026-04-19T10:50:12Z</time></trkpt><trkpt lat="43.144542285254346" lon="12.213839720689599"><ele>238.59999999999997</ele><time>2026-04-19T10:50:13Z</time></trkpt><trkpt lat="43.14458403146204" lon="12.213769956151545"><ele>238.79999999999998</ele><time>2026-04-19T10:50:14Z</time></trkpt><trkpt lat="43.14458320654765" lon="12.213615744298444"><ele>239.0</ele><time>2026-04-19T10:50:16Z</time></trkpt><trkpt lat="43.14449324181087" lon="12.2134766162094"><ele>239.00000000000003</ele><time>2026-04-19T10:50:18Z</time></trkpt><trkpt lat="43.1444308961113" lon="12.21341843523955"><ele>239.0</ele><time>2026-04-19T10:50:19Z</time></trkpt><trkpt lat="43.144355510473964" lon="12.213375167756345"><ele>239.0</ele><time>2026-04-19T10:50:20Z</time></trkpt><trkpt lat="43.14427619128762" lon="12.213327136223326"><ele>239.0</ele><time>2026-04-19T10:50:21Z</time></trkpt><trkpt lat="43.14420601970149" lon="12.213238042655739"><ele>239.00000000000003</ele><time>2026-04-19T10:50:22Z</time></trkpt><trkpt lat="43.14415631824153" lon="12.213112993888492"><ele>239.0</ele><time>2026-04-19T10:50:23Z</time></trkpt><trkpt lat="43.14411030020946" lon="12.212990839189452"><ele>239.0</ele><time>2026-04-19T10:50:24Z</time></trkpt><trkpt lat="43.14403369090875" lon="12.212864805952329"><ele>239.0</ele><time>2026-04-19T10:50:25Z</time></trkpt><trkpt lat="43.143924923198" lon="12.212736496447368"><ele>239.0</ele><time>2026-04-19T10:50:26Z</time></trkpt><trkpt lat="43.143814041048515" lon="12.212605374798859"><ele>239.0</ele><time>2026-04-19T10:50:27Z</time></trkpt><trkpt lat="43.14371412612452" lon="12.212471882044712"><ele>239.0</ele><time>2026-04-19T10:50:28Z</time></trkpt><trkpt lat="43.14360128117663" lon="12.212333517505925"><ele>239.0</ele><time>2026-04-19T10:50:29Z</time></trkpt><trkpt lat="43.14349302358937" lon="12.21219852452544"><ele>239.0</ele><time>2026-04-19T10:50:30Z</time></trkpt><trkpt lat="43.14339822418423" lon="12.212072926283263"><ele>239.0</ele><time>2026-04-19T10:50:31Z</time></trkpt><trkpt lat="43.143287776870075" lon="12.211956606898314"><ele>240.33333333333334</ele><time>2026-04-19T10:50:32Z</time></trkpt><trkpt lat="43.143169535092944" lon="12.211834463173345"><ele>241.66666666666669</ele><time>2026-04-19T10:50:33Z</time></trkpt><trkpt lat="43.14304091183328" lon="12.211733821661792"><ele>243.0</ele><time>2026-04-19T10:50:34Z</time></trkpt><trkpt lat="43.14289046462991" lon="12.211634800611272"><ele>243.0</ele><time>2026-04-19T10:50:35Z</time></trkpt><trkpt lat="43.14272809690886" lon="12.211559224968001"><ele>243.0</ele><time>2026-04-19T10:50:36Z</time></trkpt><trkpt lat="43.14252179124171" lon="12.21150913108219"><ele>243.0</ele><time>2026-04-19T10:50:37Z</time></trkpt><trkpt lat="43.14228388540651" lon="12.211442002575948"><ele>243.0</ele><time>2026-04-19T10:50:38Z</time></trkpt><trkpt lat="43.14208703800835" lon="12.21135904237925"><ele>243.0</ele><time>2026-04-19T10:50:39Z</time></trkpt><trkpt lat="43.14192847870652" lon="12.211300443736306"><ele>243.0</ele><time>2026-04-19T10:50:40Z</time></trkpt><trkpt lat="43.14178098840666" lon="12.211249694429108"><ele>243.0</ele><time>2026-04-19T10:50:41Z</time></trkpt><trkpt lat="43.14163250017737" lon="12.211208676380675"><ele>243.0</ele><time>2026-04-19T10:50:42Z</time></trkpt><trkpt lat="43.141467561787145" lon="12.211167364113502"><ele>243.0</ele><time>2026-04-19T10:50:43Z</time></trkpt><trkpt lat="43.14125847748091" lon="12.211099890048597"><ele>241.66666666666669</ele><time>2026-04-19T10:50:44Z</time></trkpt><trkpt lat="43.141047821379786" lon="12.211022045876668"><ele>240.33333333333334</ele><time>2026-04-19T10:50:45Z</time></trkpt><trkpt lat="43.14087100786801" lon="12.210960468204512"><ele>239.0</ele><time>2026-04-19T10:50:45.999Z</time></trkpt><trkpt lat="43.14068366802237" lon="12.210935103086719"><ele>238.0</ele><time>2026-04-19T10:50:46.999Z</time></trkpt><trkpt lat="43.14044193048688" lon="12.210914409083944"><ele>237.0</ele><time>2026-04-19T10:50:47.999Z</time></trkpt><trkpt lat="43.140176627476144" lon="12.210902440500762"><ele>238.0</ele><time>2026-04-19T10:50:48.999Z</time></trkpt><trkpt lat="43.13985191799673" lon="12.210970366756554"><ele>239.0</ele><time>2026-04-19T10:50:49.999Z</time></trkpt><trkpt lat="43.13953594966729" lon="12.211063244812403"><ele>239.0</ele><time>2026-04-19T10:50:50.999Z</time></trkpt><trkpt lat="43.13927256670437" lon="12.211132550803958"><ele>239.0</ele><time>2026-04-19T10:50:51.999Z</time></trkpt><trkpt lat="43.13901001981364" lon="12.211152424388484"><ele>239.0</ele><time>2026-04-19T10:50:52.999Z</time></trkpt><trkpt lat="43.13873945062464" lon="12.211124184722864"><ele>239.0</ele><time>2026-04-19T10:50:53.999Z</time></trkpt><trkpt lat="43.138461750433024" lon="12.211082779963965"><ele>239.0</ele><time>2026-04-19T10:50:54.999Z</time></trkpt><trkpt lat="43.13826760649283" lon="12.210979357797791"><ele>239.0</ele><time>2026-04-19T10:50:55.999Z</time></trkpt><trkpt lat="43.138029453877714" lon="12.210928404705275"><ele>239.0</ele><time>2026-04-19T10:50:56.999Z</time></trkpt><trkpt lat="43.137804931421016" lon="12.210888427227449"><ele>238.5</ele><time>2026-04-19T10:50:57.999Z</time></trkpt><trkpt lat="43.13755203960476" lon="12.210828950294635"><ele>238.0</ele><time>2026-04-19T10:50:58.999Z</time></trkpt><trkpt lat="43.13726750960164" lon="12.210716902121385"><ele>240.0</ele><time>2026-04-19T10:50:59.999Z</time></trkpt><trkpt lat="43.136932965517325" lon="12.210580157347676"><ele>242.0</ele><time>2026-04-19T10:51:00.999Z</time></trkpt><trkpt lat="43.1366505878423" lon="12.210436691944015"><ele>240.66666666666669</ele><time>2026-04-19T10:51:01.999Z</time></trkpt><trkpt lat="43.13640074534638" lon="12.210285861646147"><ele>239.33333333333331</ele><time>2026-04-19T10:51:02.999Z</time></trkpt><trkpt lat="43.13624342583529" lon="12.210179950593465"><ele>238.0</ele><time>2026-04-19T10:51:03.999Z</time></trkpt><trkpt lat="43.13607891781861" lon="12.210081831683484"><ele>238.0</ele><time>2026-04-19T10:51:04.999Z</time></trkpt><trkpt lat="43.13592777740979" lon="12.20997624276071"><ele>238.0</ele><time>2026-04-19T10:51:05.999Z</time></trkpt><trkpt lat="43.135762479106134" lon="12.209865402549617"><ele>238.0</ele><time>2026-04-19T10:51:06.999Z</time></trkpt><trkpt lat="43.13562000473" lon="12.209771346381377"><ele>238.5</ele><time>2026-04-19T10:51:07.999Z</time></trkpt><trkpt lat="43.135495637193536" lon="12.209695944225677"><ele>239.0</ele><time>2026-04-19T10:51:08.999Z</time></trkpt><trkpt lat="43.135384913369066" lon="12.209603288930566"><ele>239.5</ele><time>2026-04-19T10:51:09.999Z</time></trkpt><trkpt lat="43.13528499159222" lon="12.209538438018892"><ele>240.0</ele><time>2026-04-19T10:51:10.999Z</time></trkpt><trkpt lat="43.135162998893826" lon="12.20947034094771"><ele>240.0</ele><time>2026-04-19T10:51:11.999Z</time></trkpt><trkpt lat="43.13503059388238" lon="12.209419962058764"><ele>240.0</ele><time>2026-04-19T10:51:12.999Z</time></trkpt><trkpt lat="43.13489152193463" lon="12.209334997995128"><ele>240.0</ele><time>2026-04-19T10:51:13.999Z</time></trkpt><trkpt lat="43.134797372318104" lon="12.20927712998861"><ele>240.0</ele><time>2026-04-19T10:51:14.999Z</time></trkpt><trkpt lat="43.13471545191774" lon="12.209227004429792"><ele>239.6</ele><time>2026-04-19T10:51:15.999Z</time></trkpt><trkpt lat="43.13462177664509" lon="12.20917085679238"><ele>239.2</ele><time>2026-04-19T10:51:16.999Z</time></trkpt><trkpt lat="43.13452417462955" lon="12.20911382693265"><ele>238.8</ele><time>2026-04-19T10:51:17.999Z</time></trkpt><trkpt lat="43.13442819045066" lon="12.20904761741657"><ele>238.4</ele><time>2026-04-19T10:51:18.999Z</time></trkpt><trkpt lat="43.13433062317047" lon="12.208969613332245"><ele>238.0</ele><time>2026-04-19T10:51:20Z</time></trkpt><trkpt lat="43.13424067405057" lon="12.208875328761374"><ele>238.0</ele><time>2026-04-19T10:51:21Z</time></trkpt><trkpt lat="43.1341555119607" lon="12.208768646607218"><ele>238.0</ele><time>2026-04-19T10:51:22Z</time></trkpt><trkpt lat="43.13408029822175" lon="12.208664671381896"><ele>238.0</ele><time>2026-04-19T10:51:23Z</time></trkpt><trkpt lat="43.134013226937114" lon="12.208532769697536"><ele>238.0</ele><time>2026-04-19T10:51:24Z</time></trkpt><trkpt lat="43.13394668213304" lon="12.208399409374081"><ele>238.0</ele><time>2026-04-19T10:51:25Z</time></trkpt><trkpt lat="43.133859980316544" lon="12.208265583500825"><ele>238.0</ele><time>2026-04-19T10:51:26Z</time></trkpt><trkpt lat="43.13378471614536" lon="12.208125860799719"><ele>238.0</ele><time>2026-04-19T10:51:27Z</time></trkpt><trkpt lat="43.133680504278495" lon="12.207954081417991"><ele>238.0</ele><time>2026-04-19T10:51:28Z</time></trkpt><trkpt lat="43.133576211886755" lon="12.207744994152293"><ele>238.0</ele><time>2026-04-19T10:51:29Z</time></trkpt><trkpt lat="43.13348157613369" lon="12.207550129353793"><ele>238.0</ele><time>2026-04-19T10:51:30Z</time></trkpt><trkpt lat="43.13341186003328" lon="12.207383451276344"><ele>238.0</ele><time>2026-04-19T10:51:31Z</time></trkpt><trkpt lat="43.13329228110237" lon="12.207198962001202"><ele>237.33333333333331</ele><time>2026-04-19T10:51:32Z</time></trkpt><trkpt lat="43.13318907043613" lon="12.207001717827078"><ele>236.66666666666669</ele><time>2026-04-19T10:51:33Z</time></trkpt><trkpt lat="43.133100459887" lon="12.20678926436246"><ele>236.0</ele><time>2026-04-19T10:51:34Z</time></trkpt><trkpt lat="43.133033541935276" lon="12.206597253762958"><ele>236.20000000000002</ele><time>2026-04-19T10:51:35Z</time></trkpt><trkpt lat="43.132994097799326" lon="12.20646650793895"><ele>236.40000000000003</ele><time>2026-04-19T10:51:36Z</time></trkpt><trkpt lat="43.13295359342396" lon="12.20631243623282"><ele>236.6</ele><time>2026-04-19T10:51:37Z</time></trkpt><trkpt lat="43.13293777530014" lon="12.206155540571617"><ele>236.8</ele><time>2026-04-19T10:51:39Z</time></trkpt><trkpt lat="43.13295185997126" lon="12.206048343251167"><ele>237.0</ele><time>2026-04-19T10:51:40Z</time></trkpt><trkpt lat="43.132987545498956" lon="12.205947566586287"><ele>237.0</ele><time>2026-04-19T10:51:41Z</time></trkpt><trkpt lat="43.13300818135127" lon="12.205861338673197"><ele>237.0</ele><time>2026-04-19T10:51:42Z</time></trkpt><trkpt lat="43.132966516591054" lon="12.205745849583787"><ele>237.0</ele><time>2026-04-19T10:51:44Z</time></trkpt><trkpt lat="43.13287145336609" lon="12.205643710310696"><ele>237.0</ele><time>2026-04-19T10:51:46Z</time></trkpt><trkpt lat="43.13280698233864" lon="12.205626993880024"><ele>237.0</ele><time>2026-04-19T10:51:47Z</time></trkpt><trkpt lat="43.132665465945884" lon="12.205614486172045"><ele>237.5</ele><time>2026-04-19T10:51:49Z</time></trkpt><trkpt lat="43.132576097667474" lon="12.205567116423486"><ele>238.0</ele><time>2026-04-19T10:51:50Z</time></trkpt><trkpt lat="43.13246042640169" lon="12.205501649818132"><ele>238.5</ele><time>2026-04-19T10:51:51Z</time></trkpt><trkpt lat="43.1323763840424" lon="12.20534356626647"><ele>239.0</ele><time>2026-04-19T10:51:52Z</time></trkpt><trkpt lat="43.132282304526754" lon="12.205227867144737"><ele>239.66666666666669</ele><time>2026-04-19T10:51:53Z</time></trkpt><trkpt lat="43.13216980435215" lon="12.205074109856175"><ele>240.33333333333331</ele><time>2026-04-19T10:51:54Z</time></trkpt><trkpt lat="43.132048760927006" lon="12.204904033800597"><ele>241.0</ele><time>2026-04-19T10:51:55Z</time></trkpt><trkpt lat="43.13192387755641" lon="12.204786354551212"><ele>241.0</ele><time>2026-04-19T10:51:56Z</time></trkpt><trkpt lat="43.13178393579921" lon="12.20467415311529"><ele>241.0</ele><time>2026-04-19T10:51:57Z</time></trkpt><trkpt lat="43.13164627713362" lon="12.20457654043997"><ele>241.0</ele><time>2026-04-19T10:51:58Z</time></trkpt><trkpt lat="43.131504773582435" lon="12.204507398970794"><ele>241.0</ele><time>2026-04-19T10:51:59Z</time></trkpt><trkpt lat="43.13136075134562" lon="12.204420822381474"><ele>241.0</ele><time>2026-04-19T10:52:00Z</time></trkpt><trkpt lat="43.131178844482555" lon="12.2043660247296"><ele>241.0</ele><time>2026-04-19T10:52:01Z</time></trkpt><trkpt lat="43.13095627315269" lon="12.204300579354788"><ele>241.0</ele><time>2026-04-19T10:52:02Z</time></trkpt><trkpt lat="43.13072585423552" lon="12.204196521027466"><ele>241.0</ele><time>2026-04-19T10:52:03Z</time></trkpt><trkpt lat="43.13048669080962" lon="12.20410838755122"><ele>241.0</ele><time>2026-04-19T10:52:04Z</time></trkpt><trkpt lat="43.1302383430156" lon="12.204045515292211"><ele>241.0</ele><time>2026-04-19T10:52:05Z</time></trkpt><trkpt lat="43.12997065762759" lon="12.203937988285949"><ele>241.0</ele><time>2026-04-19T10:52:06Z</time></trkpt><trkpt lat="43.1296530843201" lon="12.203801548318774"><ele>241.0</ele><time>2026-04-19T10:52:07Z</time></trkpt><trkpt lat="43.12935316430214" lon="12.203699814378405"><ele>240.0</ele><time>2026-04-19T10:52:08Z</time></trkpt><trkpt lat="43.12904289664996" lon="12.203591550672273"><ele>239.0</ele><time>2026-04-19T10:52:09Z</time></trkpt><trkpt lat="43.12876288129904" lon="12.20347876672544"><ele>239.0</ele><time>2026-04-19T10:52:10Z</time></trkpt><trkpt lat="43.12851121007703" lon="12.203399051524586"><ele>239.0</ele><time>2026-04-19T10:52:11Z</time></trkpt><trkpt lat="43.12825141248258" lon="12.2032973940117"><ele>239.5</ele><time>2026-04-19T10:52:12Z</time></trkpt><trkpt lat="43.12798298304336" lon="12.203197212892317"><ele>240.0</ele><time>2026-04-19T10:52:13Z</time></trkpt><trkpt lat="43.127706130577465" lon="12.203051308645163"><ele>240.5</ele><time>2026-04-19T10:52:14Z</time></trkpt><trkpt lat="43.127413840016615" lon="12.202906355522153"><ele>241.0</ele><time>2026-04-19T10:52:15Z</time></trkpt><trkpt lat="43.12716819067377" lon="12.202767637425312"><ele>240.0</ele><time>2026-04-19T10:52:16Z</time></trkpt><trkpt lat="43.12693435161606" lon="12.202616801048135"><ele>239.0</ele><time>2026-04-19T10:52:17Z</time></trkpt><trkpt lat="43.126662660149364" lon="12.202534213871694"><ele>238.5</ele><time>2026-04-19T10:52:18Z</time></trkpt><trkpt lat="43.12636709671941" lon="12.20254578815839"><ele>238.0</ele><time>2026-04-19T10:52:19Z</time></trkpt><trkpt lat="43.12607915832823" lon="12.202567498344395"><ele>238.0</ele><time>2026-04-19T10:52:20Z</time></trkpt><trkpt lat="43.12573828217457" lon="12.202514967962886"><ele>238.0</ele><time>2026-04-19T10:52:21Z</time></trkpt><trkpt lat="43.12543619744936" lon="12.202449063295019"><ele>238.5</ele><time>2026-04-19T10:52:22Z</time></trkpt><trkpt lat="43.12519987126214" lon="12.202412763748242"><ele>239.0</ele><time>2026-04-19T10:52:23Z</time></trkpt><trkpt lat="43.12496181510039" lon="12.202387466237665"><ele>239.5</ele><time>2026-04-19T10:52:24Z</time></trkpt><trkpt lat="43.12469927688563" lon="12.202351990341723"><ele>240.0</ele><time>2026-04-19T10:52:25Z</time></trkpt><trkpt lat="43.12442629813761" lon="12.202317563990883"><ele>240.0</ele><time>2026-04-19T10:52:26Z</time></trkpt><trkpt lat="43.12416243439008" lon="12.202323680999527"><ele>240.0</ele><time>2026-04-19T10:52:27Z</time></trkpt><trkpt lat="43.12389445128855" lon="12.202275324347026"><ele>241.0</ele><time>2026-04-19T10:52:28Z</time></trkpt><trkpt lat="43.12362787525504" lon="12.202203770550838"><ele>242.0</ele><time>2026-04-19T10:52:29Z</time></trkpt><trkpt lat="43.12339150244294" lon="12.202124029379664"><ele>243.5</ele><time>2026-04-19T10:52:30Z</time></trkpt><trkpt lat="43.123136955391516" lon="12.20205324079002"><ele>245.0</ele><time>2026-04-19T10:52:31Z</time></trkpt><trkpt lat="43.12287418933049" lon="12.201981068070005"><ele>245.0</ele><time>2026-04-19T10:52:32Z</time></trkpt><trkpt lat="43.12260355699714" lon="12.20188481742836"><ele>245.0</ele><time>2026-04-19T10:52:33Z</time></trkpt><trkpt lat="43.12231489256662" lon="12.201805122856673"><ele>245.0</ele><time>2026-04-19T10:52:34Z</time></trkpt><trkpt lat="43.12204661355162" lon="12.20172268400419"><ele>245.0</ele><time>2026-04-19T10:52:35Z</time></trkpt><trkpt lat="43.12179508479364" lon="12.201629484076994"><ele>245.0</ele><time>2026-04-19T10:52:36Z</time></trkpt><trkpt lat="43.12154253639903" lon="12.20157611762565"><ele>245.0</ele><time>2026-04-19T10:52:37Z</time></trkpt><trkpt lat="43.1213291683992" lon="12.201520123845487"><ele>245.33333333333334</ele><time>2026-04-19T10:52:38Z</time></trkpt><trkpt lat="43.12111593065955" lon="12.201476184751842"><ele>245.66666666666669</ele><time>2026-04-19T10:52:39Z</time></trkpt><trkpt lat="43.12088638388658" lon="12.201438782193962"><ele>246.0</ele><time>2026-04-19T10:52:40Z</time></trkpt><trkpt lat="43.12068924319563" lon="12.201404867910806"><ele>246.0</ele><time>2026-04-19T10:52:41Z</time></trkpt><trkpt lat="43.12049614821347" lon="12.201364171315687"><ele>246.0</ele><time>2026-04-19T10:52:42Z</time></trkpt><trkpt lat="43.12033364353036" lon="12.201337884719315"><ele>246.0</ele><time>2026-04-19T10:52:43Z</time></trkpt><trkpt lat="43.120175189522854" lon="12.201314647071355"><ele>246.0</ele><time>2026-04-19T10:52:43.999Z</time></trkpt><trkpt lat="43.12000427228056" lon="12.201284945769517"><ele>246.0</ele><time>2026-04-19T10:52:44.999Z</time></trkpt><trkpt lat="43.119846082516666" lon="12.20126598454138"><ele>246.0</ele><time>2026-04-19T10:52:45.999Z</time></trkpt><trkpt lat="43.119694645584744" lon="12.201220621052562"><ele>245.75</ele><time>2026-04-19T10:52:46.999Z</time></trkpt><trkpt lat="43.119554552015416" lon="12.201161190286756"><ele>245.5</ele><time>2026-04-19T10:52:47.999Z</time></trkpt><trkpt lat="43.11941645834803" lon="12.20111916899422"><ele>245.25</ele><time>2026-04-19T10:52:48.999Z</time></trkpt><trkpt lat="43.119273797885086" lon="12.201065737481777"><ele>245.0</ele><time>2026-04-19T10:52:49.999Z</time></trkpt><trkpt lat="43.11913387448782" lon="12.201007897889523"><ele>244.33333333333334</ele><time>2026-04-19T10:52:50.999Z</time></trkpt><trkpt lat="43.118995347388264" lon="12.200954877765101"><ele>243.66666666666669</ele><time>2026-04-19T10:52:51.999Z</time></trkpt><trkpt lat="43.118859034319186" lon="12.20090020363216"><ele>243.0</ele><time>2026-04-19T10:52:52.999Z</time></trkpt><trkpt lat="43.11865824257374" lon="12.200818946118487"><ele>243.0</ele><time>2026-04-19T10:52:53.999Z</time></trkpt><trkpt lat="43.11841974326234" lon="12.200722428869405"><ele>243.0</ele><time>2026-04-19T10:52:54.999Z</time></trkpt><trkpt lat="43.11814763123784" lon="12.20061468223611"><ele>245.0</ele><time>2026-04-19T10:52:55.999Z</time></trkpt><trkpt lat="43.117832309548156" lon="12.200513691134395"><ele>247.0</ele><time>2026-04-19T10:52:56.999Z</time></trkpt><trkpt lat="43.11748779367785" lon="12.200392817205797"><ele>248.0</ele><time>2026-04-19T10:52:57.999Z</time></trkpt><trkpt lat="43.11712716897221" lon="12.200269371351974"><ele>249.0</ele><time>2026-04-19T10:52:58.999Z</time></trkpt><trkpt lat="43.11681240682066" lon="12.200158132848834"><ele>249.5</ele><time>2026-04-19T10:52:59.999Z</time></trkpt><trkpt lat="43.116518989380396" lon="12.200061154088267"><ele>250.0</ele><time>2026-04-19T10:53:00.999Z</time></trkpt><trkpt lat="43.11622863656751" lon="12.199986570099117"><ele>250.0</ele><time>2026-04-19T10:53:01.999Z</time></trkpt><trkpt lat="43.1159581147882" lon="12.199931253391636"><ele>250.0</ele><time>2026-04-19T10:53:02.999Z</time></trkpt><trkpt lat="43.11569812127856" lon="12.199901341332286"><ele>250.5</ele><time>2026-04-19T10:53:03.999Z</time></trkpt><trkpt lat="43.11544799722957" lon="12.199881594396029"><ele>251.0</ele><time>2026-04-19T10:53:04.999Z</time></trkpt><trkpt lat="43.11521685224617" lon="12.199836571246882"><ele>252.66666666666669</ele><time>2026-04-19T10:53:05.999Z</time></trkpt><trkpt lat="43.11500537137246" lon="12.19978434128837"><ele>254.33333333333331</ele><time>2026-04-19T10:53:06.999Z</time></trkpt><trkpt lat="43.11480953337173" lon="12.199726943889505"><ele>256.0</ele><time>2026-04-19T10:53:07.999Z</time></trkpt><trkpt lat="43.11460303660635" lon="12.19966657030287"><ele>256.0</ele><time>2026-04-19T10:53:08.999Z</time></trkpt><trkpt lat="43.11439401663894" lon="12.199587806392675"><ele>256.0</ele><time>2026-04-19T10:53:09.999Z</time></trkpt><trkpt lat="43.114194812899136" lon="12.199409711218232"><ele>256.5</ele><time>2026-04-19T10:53:10.999Z</time></trkpt><trkpt lat="43.11395921952302" lon="12.199180461233226"><ele>257.0</ele><time>2026-04-19T10:53:11.999Z</time></trkpt><trkpt lat="43.11369431525183" lon="12.198919816715435"><ele>259.0</ele><time>2026-04-19T10:53:12.999Z</time></trkpt><trkpt lat="43.113410265657215" lon="12.19864029973525"><ele>261.0</ele><time>2026-04-19T10:53:13.999Z</time></trkpt><trkpt lat="43.11314968501668" lon="12.198410888848779"><ele>261.0</ele><time>2026-04-19T10:53:14.999Z</time></trkpt><trkpt lat="43.1129444316116" lon="12.198169410073984"><ele>261.0</ele><time>2026-04-19T10:53:15.999Z</time></trkpt><trkpt lat="43.112764051356415" lon="12.197985002576974"><ele>262.6666666666667</ele><time>2026-04-19T10:53:16.999Z</time></trkpt><trkpt lat="43.11259056760616" lon="12.197809567055181"><ele>264.33333333333337</ele><time>2026-04-19T10:53:17.999Z</time></trkpt><trkpt lat="43.11244706275603" lon="12.197662161835973"><ele>266.0</ele><time>2026-04-19T10:53:18.999Z</time></trkpt><trkpt lat="43.112319841520154" lon="12.197538526151577"><ele>266.0</ele><time>2026-04-19T10:53:19.999Z</time></trkpt><trkpt lat="43.11217287293164" lon="12.197364474625399"><ele>266.0</ele><time>2026-04-19T10:53:20.999Z</time></trkpt><trkpt lat="43.11200466657663" lon="12.197118039078427"><ele>266.0</ele><time>2026-04-19T10:53:21.999Z</time></trkpt><trkpt lat="43.11180038907971" lon="12.19682563074698"><ele>269.0</ele><time>2026-04-19T10:53:22.999Z</time></trkpt><trkpt lat="43.11155844646592" lon="12.19653069891924"><ele>272.0</ele><time>2026-04-19T10:53:23.999Z</time></trkpt><trkpt lat="43.11129858246318" lon="12.196236239215539"><ele>274.0</ele><time>2026-04-19T10:53:24.999Z</time></trkpt><trkpt lat="43.11107661036522" lon="12.195991975993202"><ele>276.0</ele><time>2026-04-19T10:53:26Z</time></trkpt><trkpt lat="43.11087841104699" lon="12.195764871265906"><ele>279.5</ele><time>2026-04-19T10:53:27Z</time></trkpt><trkpt lat="43.11068446480745" lon="12.195514424291355"><ele>283.0</ele><time>2026-04-19T10:53:28Z</time></trkpt><trkpt lat="43.11052941868117" lon="12.195196930530456"><ele>285.0</ele><time>2026-04-19T10:53:29Z</time></trkpt><trkpt lat="43.11038890360483" lon="12.194827323785296"><ele>287.0</ele><time>2026-04-19T10:53:30Z</time></trkpt><trkpt lat="43.11022292348022" lon="12.194465702874307"><ele>287.0</ele><time>2026-04-19T10:53:31Z</time></trkpt><trkpt lat="43.11005941762468" lon="12.194129532816566"><ele>287.0</ele><time>2026-04-19T10:53:32Z</time></trkpt><trkpt lat="43.10992453294604" lon="12.193833112253385"><ele>288.5</ele><time>2026-04-19T10:53:33Z</time></trkpt><trkpt lat="43.10980254044244" lon="12.193563603358827"><ele>290.0</ele><time>2026-04-19T10:53:34Z</time></trkpt><trkpt lat="43.10965235686551" lon="12.193313324835023"><ele>288.5</ele><time>2026-04-19T10:53:35Z</time></trkpt><trkpt lat="43.10944387632499" lon="12.193083011023612"><ele>287.0</ele><time>2026-04-19T10:53:36Z</time></trkpt><trkpt lat="43.109179806610065" lon="12.192880441093253"><ele>287.0</ele><time>2026-04-19T10:53:37Z</time></trkpt><trkpt lat="43.10889787426255" lon="12.192710957967952"><ele>287.0</ele><time>2026-04-19T10:53:38Z</time></trkpt><trkpt lat="43.108634858822356" lon="12.1925351777338"><ele>287.5</ele><time>2026-04-19T10:53:39Z</time></trkpt><trkpt lat="43.108422675544055" lon="12.192302121765989"><ele>288.0</ele><time>2026-04-19T10:53:40Z</time></trkpt><trkpt lat="43.10819141485988" lon="12.192175473633483"><ele>288.0</ele><time>2026-04-19T10:53:41Z</time></trkpt><trkpt lat="43.108009506917725" lon="12.192016923925042"><ele>288.0</ele><time>2026-04-19T10:53:42Z</time></trkpt><trkpt lat="43.10785930115685" lon="12.191811918966357"><ele>288.0</ele><time>2026-04-19T10:53:43Z</time></trkpt><trkpt lat="43.10772168885832" lon="12.191565530099124"><ele>281.0</ele><time>2026-04-19T10:53:44Z</time></trkpt><trkpt lat="43.107592014543734" lon="12.191295123284855"><ele>274.0</ele><time>2026-04-19T10:53:45Z</time></trkpt><trkpt lat="43.10746449346247" lon="12.191039697828208"><ele>274.66666666666663</ele><time>2026-04-19T10:53:46Z</time></trkpt><trkpt lat="43.10733979588835" lon="12.190800464007223"><ele>275.3333333333333</ele><time>2026-04-19T10:53:47Z</time></trkpt><trkpt lat="43.10721202492236" lon="12.190551187295709"><ele>276.0</ele><time>2026-04-19T10:53:48Z</time></trkpt><trkpt lat="43.107063810054036" lon="12.19027378890367"><ele>276.0</ele><time>2026-04-19T10:53:49Z</time></trkpt><trkpt lat="43.106897364129146" lon="12.189949148504652"><ele>276.0</ele><time>2026-04-19T10:53:50Z</time></trkpt><trkpt lat="43.10673765302029" lon="12.189622212410518"><ele>275.5</ele><time>2026-04-19T10:53:51Z</time></trkpt><trkpt lat="43.10658627451044" lon="12.189331564335182"><ele>275.0</ele><time>2026-04-19T10:53:52Z</time></trkpt><trkpt lat="43.10645887168543" lon="12.189087649672688"><ele>272.25</ele><time>2026-04-19T10:53:53Z</time></trkpt><trkpt lat="43.106385262705714" lon="12.188949081586314"><ele>269.5</ele><time>2026-04-19T10:53:54Z</time></trkpt><trkpt lat="43.10631656229612" lon="12.18874449614842"><ele>266.75</ele><time>2026-04-19T10:53:55Z</time></trkpt><trkpt lat="43.10629395712907" lon="12.188589758121898"><ele>264.0</ele><time>2026-04-19T10:53:56Z</time></trkpt><trkpt lat="43.10634589224846" lon="12.188423894365092"><ele>264.0</ele><time>2026-04-19T10:53:57Z</time></trkpt><trkpt lat="43.10645286806994" lon="12.188270057881056"><ele>264.0</ele><time>2026-04-19T10:53:58Z</time></trkpt><trkpt lat="43.10663120487858" lon="12.188151531244339"><ele>264.0</ele><time>2026-04-19T10:53:59Z</time></trkpt><trkpt lat="43.106826322696804" lon="12.18800884856301"><ele>261.0</ele><time>2026-04-19T10:54:00Z</time></trkpt><trkpt lat="43.10703445619041" lon="12.187855850742189"><ele>258.0</ele><time>2026-04-19T10:54:01Z</time></trkpt><trkpt lat="43.10731366405957" lon="12.187661822990592"><ele>259.0</ele><time>2026-04-19T10:54:02Z</time></trkpt><trkpt lat="43.107590860878766" lon="12.187536953806141"><ele>260.0</ele><time>2026-04-19T10:54:03Z</time></trkpt><trkpt lat="43.10788658848751" lon="12.187409706410808"><ele>260.5</ele><time>2026-04-19T10:54:04Z</time></trkpt><trkpt lat="43.108133564765424" lon="12.187239451596913"><ele>261.0</ele><time>2026-04-19T10:54:05Z</time></trkpt><trkpt lat="43.10836588614269" lon="12.187015028013487"><ele>261.0</ele><time>2026-04-19T10:54:06Z</time></trkpt><trkpt lat="43.108601463625405" lon="12.186801977724853"><ele>261.0</ele><time>2026-04-19T10:54:07Z</time></trkpt><trkpt lat="43.108791843866385" lon="12.18663590366613"><ele>261.0</ele><time>2026-04-19T10:54:08Z</time></trkpt><trkpt lat="43.10891374801642" lon="12.186512504447185"><ele>261.0</ele><time>2026-04-19T10:54:09Z</time></trkpt><trkpt lat="43.10908304477377" lon="12.18635855823752"><ele>261.0</ele><time>2026-04-19T10:54:10Z</time></trkpt><trkpt lat="43.109245491199914" lon="12.18614532531734"><ele>260.5</ele><time>2026-04-19T10:54:11Z</time></trkpt><trkpt lat="43.1094095715004" lon="12.18582722283175"><ele>260.0</ele><time>2026-04-19T10:54:12Z</time></trkpt><trkpt lat="43.10957664181354" lon="12.18543565158503"><ele>259.0</ele><time>2026-04-19T10:54:13Z</time></trkpt><trkpt lat="43.10974141247072" lon="12.185029197901947"><ele>258.0</ele><time>2026-04-19T10:54:14Z</time></trkpt><trkpt lat="43.10989317151431" lon="12.1846099548547"><ele>258.5</ele><time>2026-04-19T10:54:15Z</time></trkpt><trkpt lat="43.1100433278844" lon="12.184187558558602"><ele>259.0</ele><time>2026-04-19T10:54:16Z</time></trkpt><trkpt lat="43.1101811112626" lon="12.183816623006138"><ele>259.0</ele><time>2026-04-19T10:54:17Z</time></trkpt><trkpt lat="43.11032811670566" lon="12.183519014153315"><ele>259.0</ele><time>2026-04-19T10:54:18Z</time></trkpt><trkpt lat="43.110549010273935" lon="12.183193228239801"><ele>260.0</ele><time>2026-04-19T10:54:19Z</time></trkpt><trkpt lat="43.1108113895964" lon="12.18282391905809"><ele>261.0</ele><time>2026-04-19T10:54:20Z</time></trkpt><trkpt lat="43.11106905891193" lon="12.18244835617389"><ele>260.5</ele><time>2026-04-19T10:54:21Z</time></trkpt><trkpt lat="43.11136121198877" lon="12.182019895904387"><ele>260.0</ele><time>2026-04-19T10:54:22Z</time></trkpt><trkpt lat="43.11158143733724" lon="12.181622835211172"><ele>260.5</ele><time>2026-04-19T10:54:23Z</time></trkpt><trkpt lat="43.11176384982901" lon="12.18125010111033"><ele>261.0</ele><time>2026-04-19T10:54:24Z</time></trkpt><trkpt lat="43.111933867826664" lon="12.180883487563023"><ele>259.5</ele><time>2026-04-19T10:54:25Z</time></trkpt><trkpt lat="43.11209124778801" lon="12.18053084655414"><ele>258.0</ele><time>2026-04-19T10:54:26Z</time></trkpt><trkpt lat="43.11226204241602" lon="12.180191555829573"><ele>259.5</ele><time>2026-04-19T10:54:27Z</time></trkpt><trkpt lat="43.1124327317642" lon="12.179874927915598"><ele>261.0</ele><time>2026-04-19T10:54:28Z</time></trkpt><trkpt lat="43.112559372843414" lon="12.179551150076739"><ele>261.0</ele><time>2026-04-19T10:54:29Z</time></trkpt><trkpt lat="43.11267523190007" lon="12.179132029417744"><ele>261.0</ele><time>2026-04-19T10:54:30Z</time></trkpt><trkpt lat="43.11276407127731" lon="12.178668510932114"><ele>259.5</ele><time>2026-04-19T10:54:31Z</time></trkpt><trkpt lat="43.11286388803356" lon="12.17812727821431"><ele>258.0</ele><time>2026-04-19T10:54:32Z</time></trkpt><trkpt lat="43.112971808410414" lon="12.177585562358567"><ele>258.0</ele><time>2026-04-19T10:54:33Z</time></trkpt><trkpt lat="43.11306820772628" lon="12.177122856919995"><ele>258.0</ele><time>2026-04-19T10:54:34Z</time></trkpt><trkpt lat="43.113144162594516" lon="12.176745754778858"><ele>257.5</ele><time>2026-04-19T10:54:35Z</time></trkpt><trkpt lat="43.11321076569524" lon="12.17641342690818"><ele>257.0</ele><time>2026-04-19T10:54:36Z</time></trkpt><trkpt lat="43.11327982206335" lon="12.17611038248116"><ele>257.6666666666667</ele><time>2026-04-19T10:54:37Z</time></trkpt><trkpt lat="43.11336788686732" lon="12.175835466284092"><ele>258.3333333333333</ele><time>2026-04-19T10:54:38Z</time></trkpt><trkpt lat="43.11347630827294" lon="12.175564593935619"><ele>259.0</ele><time>2026-04-19T10:54:39Z</time></trkpt><trkpt lat="43.11361325324392" lon="12.175283175833425"><ele>259.0</ele><time>2026-04-19T10:54:40Z</time></trkpt><trkpt lat="43.11375032379885" lon="12.17500182966104"><ele>259.0</ele><time>2026-04-19T10:54:41Z</time></trkpt><trkpt lat="43.11387010398615" lon="12.17475163379546"><ele>259.0</ele><time>2026-04-19T10:54:42Z</time></trkpt><trkpt lat="43.11397658635135" lon="12.17452289618759"><ele>259.0</ele><time>2026-04-19T10:54:43Z</time></trkpt><trkpt lat="43.11406682437824" lon="12.17428493969961"><ele>259.0</ele><time>2026-04-19T10:54:44Z</time></trkpt><trkpt lat="43.11411734873164" lon="12.174020144014806"><ele>259.66666666666663</ele><time>2026-04-19T10:54:45Z</time></trkpt><trkpt lat="43.114127272784074" lon="12.173716897999757"><ele>260.3333333333333</ele><time>2026-04-19T10:54:46Z</time></trkpt><trkpt lat="43.11412505361877" lon="12.173414501551424"><ele>261.0</ele><time>2026-04-19T10:54:47Z</time></trkpt><trkpt lat="43.11415418331767" lon="12.17312971905256"><ele>261.0</ele><time>2026-04-19T10:54:48Z</time></trkpt><trkpt lat="43.11424797885689" lon="12.172865630597009"><ele>261.0</ele><time>2026-04-19T10:54:49Z</time></trkpt><trkpt lat="43.11438574099355" lon="12.172612301578601"><ele>261.0</ele><time>2026-04-19T10:54:50Z</time></trkpt><trkpt lat="43.11455490544691" lon="12.172382331024764"><ele>260.0</ele><time>2026-04-19T10:54:51Z</time></trkpt><trkpt lat="43.11470432031717" lon="12.172129513649988"><ele>259.0</ele><time>2026-04-19T10:54:52Z</time></trkpt><trkpt lat="43.11483663809432" lon="12.17187017777298"><ele>260.0</ele><time>2026-04-19T10:54:53Z</time></trkpt><trkpt lat="43.114946027662924" lon="12.17157498307489"><ele>261.0</ele><time>2026-04-19T10:54:54Z</time></trkpt><trkpt lat="43.115043185582266" lon="12.171278219091636"><ele>261.0</ele><time>2026-04-19T10:54:54.999Z</time></trkpt><trkpt lat="43.11513562163444" lon="12.170996099825144"><ele>261.0</ele><time>2026-04-19T10:54:55.999Z</time></trkpt><trkpt lat="43.11522156343538" lon="12.170737560057242"><ele>261.0</ele><time>2026-04-19T10:54:56.999Z</time></trkpt><trkpt lat="43.115308728583244" lon="12.170476823051795"><ele>261.0</ele><time>2026-04-19T10:54:57.999Z</time></trkpt><trkpt lat="43.11540035443867" lon="12.170205593293744"><ele>261.0</ele><time>2026-04-19T10:54:58.999Z</time></trkpt><trkpt lat="43.11549644719315" lon="12.169931607950637"><ele>261.0</ele><time>2026-04-19T10:54:59.999Z</time></trkpt><trkpt lat="43.115579332033676" lon="12.16968497473505"><ele>260.6666666666667</ele><time>2026-04-19T10:55:00.999Z</time></trkpt><trkpt lat="43.11567092320597" lon="12.169478727180723"><ele>260.33333333333337</ele><time>2026-04-19T10:55:01.999Z</time></trkpt><trkpt lat="43.11577984973922" lon="12.16930762993444"><ele>260.0</ele><time>2026-04-19T10:55:02.999Z</time></trkpt><trkpt lat="43.11590224957605" lon="12.169175230385015"><ele>260.0</ele><time>2026-04-19T10:55:03.999Z</time></trkpt><trkpt lat="43.11604074284978" lon="12.169061572351037"><ele>260.0</ele><time>2026-04-19T10:55:04.999Z</time></trkpt><trkpt lat="43.1161897371969" lon="12.168955008848899"><ele>260.0</ele><time>2026-04-19T10:55:05.999Z</time></trkpt><trkpt lat="43.11630776958187" lon="12.168846809151232"><ele>259.75</ele><time>2026-04-19T10:55:06.999Z</time></trkpt><trkpt lat="43.11641008363413" lon="12.168738053284839"><ele>259.5</ele><time>2026-04-19T10:55:07.999Z</time></trkpt><trkpt lat="43.11648722056798" lon="12.16865616078738"><ele>259.25</ele><time>2026-04-19T10:55:08.999Z</time></trkpt><trkpt lat="43.11658172449719" lon="12.168610761972728"><ele>259.0</ele><time>2026-04-19T10:55:10.999Z</time></trkpt><trkpt lat="43.116625268313" lon="12.168804267777071"><ele>259.0</ele><time>2026-04-19T10:55:12.999Z</time></trkpt><trkpt lat="43.11668865880556" lon="12.16889371070736"><ele>259.0</ele><time>2026-04-19T10:55:13.999Z</time></trkpt><trkpt lat="43.116736253738345" lon="12.168991100444053"><ele>259.0</ele><time>2026-04-19T10:55:14.999Z</time></trkpt><trkpt lat="43.11674399544951" lon="12.169112407154257"><ele>259.0</ele><time>2026-04-19T10:55:15.999Z</time></trkpt><trkpt lat="43.11678850953486" lon="12.16924833872657"><ele>259.0</ele><time>2026-04-19T10:55:16.999Z</time></trkpt><trkpt lat="43.116853575284054" lon="12.169354249831573"><ele>259.66666666666663</ele><time>2026-04-19T10:55:17.999Z</time></trkpt><trkpt lat="43.11692186196896" lon="12.169399884853885"><ele>260.3333333333333</ele><time>2026-04-19T10:55:18.999Z</time></trkpt><trkpt lat="43.116983672707924" lon="12.169485699503712"><ele>261.0</ele><time>2026-04-19T10:55:20.999Z</time></trkpt><trkpt lat="43.11723396541583" lon="12.169703293194988"><ele>261.0</ele><time>2026-04-19T10:55:22.999Z</time></trkpt><trkpt lat="43.11704956025044" lon="12.169287893609647"><ele>261.0</ele><time>2026-04-19T10:55:54Z</time></trkpt></trkseg></trk></gpx>